<?xml version='1.0' encoding='UTF-8'?><gpx version="1.1" creator="JPX - https://github.com/jenetics/jpx" xmlns="http://www.topografix.com/GPX/1/1"><trk><trkseg><trkpt lat="45.472913906050174" lon="9.948456123289759"><ele>105.0</ele><time>2026-04-12T06:35:51Z</time></trkpt><trkpt lat="45.473007222970786" lon="9.948374844194676"><ele>105.0</ele><time>2026-04-12T06:35:59Z</time></trkpt><trkpt lat="45.47310549427046" lon="9.948495804377018"><ele>105.0</ele><time>2026-04-12T06:36:04.001Z</time></trkpt><trkpt lat="45.473107458387204" lon="9.948599669425848"><ele>105.0</ele><time>2026-04-12T06:36:06.001Z</time></trkpt><trkpt lat="45.473080056648655" lon="9.948720945497984"><ele>105.0</ele><time>2026-04-12T06:36:08.001Z</time></trkpt><trkpt lat="45.47305931411723" lon="9.948827318509256"><ele>105.33333333333333</ele><time>2026-04-12T06:36:10.001Z</time></trkpt><trkpt lat="45.47304948780687" lon="9.948923886982179"><ele>105.66666666666666</ele><time>2026-04-12T06:36:12.001Z</time></trkpt><trkpt lat="45.47304224086767" lon="9.94907751337985"><ele>106.0</ele><time>2026-04-12T06:36:14.001Z</time></trkpt><trkpt lat="45.47300382802138" lon="9.949243113063913"><ele>106.33333333333333</ele><time>2026-04-12T06:36:16.001Z</time></trkpt><trkpt lat="45.47299897971067" lon="9.949340589563912"><ele>106.66666666666666</ele><time>2026-04-12T06:36:17.001Z</time></trkpt><trkpt lat="45.473017572530225" lon="9.949438684146656"><ele>107.0</ele><time>2026-04-12T06:36:18.001Z</time></trkpt><trkpt lat="45.47300141678862" lon="9.949538886301625"><ele>107.0</ele><time>2026-04-12T06:36:19.001Z</time></trkpt><trkpt lat="45.47299012301326" lon="9.949627678494823"><ele>106.99999999999999</ele><time>2026-04-12T06:36:20.001Z</time></trkpt><trkpt lat="45.47298705757948" lon="9.94980371325877"><ele>106.99999999999999</ele><time>2026-04-12T06:36:22.001Z</time></trkpt><trkpt lat="45.47295486196298" lon="9.949974368015498"><ele>107.0</ele><time>2026-04-12T06:36:24.001Z</time></trkpt><trkpt lat="45.47294719257725" lon="9.95007517429488"><ele>107.0</ele><time>2026-04-12T06:36:25.001Z</time></trkpt><trkpt lat="45.47294149846596" lon="9.950174118370144"><ele>106.66666666666666</ele><time>2026-04-12T06:36:26.001Z</time></trkpt><trkpt lat="45.47292010855563" lon="9.95028494599892"><ele>106.33333333333333</ele><time>2026-04-12T06:36:27.001Z</time></trkpt><trkpt lat="45.4729085291856" lon="9.950393648398569"><ele>106.0</ele><time>2026-04-12T06:36:28.001Z</time></trkpt><trkpt lat="45.47289580434759" lon="9.95050752940612"><ele>105.66666666666666</ele><time>2026-04-12T06:36:29.001Z</time></trkpt><trkpt lat="45.47289849352814" lon="9.950634412441715"><ele>105.33333333333333</ele><time>2026-04-12T06:36:30.001Z</time></trkpt><trkpt lat="45.472882043686894" lon="9.950766894509982"><ele>105.0</ele><time>2026-04-12T06:36:31.001Z</time></trkpt><trkpt lat="45.472868241560846" lon="9.950902307182966"><ele>105.0</ele><time>2026-04-12T06:36:32.001Z</time></trkpt><trkpt lat="45.47285108023603" lon="9.951041618951146"><ele>105.0</ele><time>2026-04-12T06:36:33.001Z</time></trkpt><trkpt lat="45.472820544463275" lon="9.951177096598471"><ele>105.0</ele><time>2026-04-12T06:36:34.001Z</time></trkpt><trkpt lat="45.47280460975743" lon="9.951316897239131"><ele>105.0</ele><time>2026-04-12T06:36:35.001Z</time></trkpt><trkpt lat="45.47280326099542" lon="9.951459400393555"><ele>105.0</ele><time>2026-04-12T06:36:36.001Z</time></trkpt><trkpt lat="45.47278615504183" lon="9.95159245564292"><ele>105.0</ele><time>2026-04-12T06:36:37.001Z</time></trkpt><trkpt lat="45.4727715104179" lon="9.951722821699233"><ele>105.0</ele><time>2026-04-12T06:36:38.001Z</time></trkpt><trkpt lat="45.47275771844526" lon="9.951854759940963"><ele>105.0</ele><time>2026-04-12T06:36:39.001Z</time></trkpt><trkpt lat="45.47274582106345" lon="9.951974946473758"><ele>105.0</ele><time>2026-04-12T06:36:40.001Z</time></trkpt><trkpt lat="45.47271583381594" lon="9.952091724769906"><ele>105.0</ele><time>2026-04-12T06:36:41.001Z</time></trkpt><trkpt lat="45.472703522339735" lon="9.952199080436815"><ele>105.0</ele><time>2026-04-12T06:36:42.001Z</time></trkpt><trkpt lat="45.472693063040694" lon="9.952290285182025"><ele>105.0</ele><time>2026-04-12T06:36:43.001Z</time></trkpt><trkpt lat="45.47269025371905" lon="9.952424640510527"><ele>105.0</ele><time>2026-04-12T06:36:45.001Z</time></trkpt><trkpt lat="45.472666585742864" lon="9.952521166321814"><ele>105.0</ele><time>2026-04-12T06:36:53.001Z</time></trkpt><trkpt lat="45.47279649781056" lon="9.95258351292099"><ele>105.0</ele><time>2026-04-12T06:36:55.001Z</time></trkpt><trkpt lat="45.47287327337717" lon="9.952598481361326"><ele>105.0</ele><time>2026-04-12T06:36:56.001Z</time></trkpt><trkpt lat="45.47295499028322" lon="9.952611445671074"><ele>105.0</ele><time>2026-04-12T06:36:57.001Z</time></trkpt><trkpt lat="45.4730336537206" lon="9.952629105761662"><ele>105.0</ele><time>2026-04-12T06:36:58.001Z</time></trkpt><trkpt lat="45.473120246532524" lon="9.952646560117381"><ele>105.0</ele><time>2026-04-12T06:36:59.001Z</time></trkpt><trkpt lat="45.47321445931256" lon="9.952665945961353"><ele>105.0</ele><time>2026-04-12T06:37:00.001Z</time></trkpt><trkpt lat="45.47330761552586" lon="9.952686646676021"><ele>105.0</ele><time>2026-04-12T06:37:01.001Z</time></trkpt><trkpt lat="45.47340356037958" lon="9.95270904322212"><ele>105.0</ele><time>2026-04-12T06:37:02.001Z</time></trkpt><trkpt lat="45.47350104874492" lon="9.952730490029996"><ele>105.0</ele><time>2026-04-12T06:37:03.001Z</time></trkpt><trkpt lat="45.473597463356555" lon="9.952754937423576"><ele>105.0</ele><time>2026-04-12T06:37:04.001Z</time></trkpt><trkpt lat="45.47369453991719" lon="9.952780768577862"><ele>105.0</ele><time>2026-04-12T06:37:05.001Z</time></trkpt><trkpt lat="45.47379175391036" lon="9.95280302107306"><ele>105.0</ele><time>2026-04-12T06:37:06.001Z</time></trkpt><trkpt lat="45.473892774658474" lon="9.952822546931117"><ele>105.0</ele><time>2026-04-12T06:37:07.001Z</time></trkpt><trkpt lat="45.47399567877019" lon="9.9528421033152"><ele>105.0</ele><time>2026-04-12T06:37:08.001Z</time></trkpt><trkpt lat="45.47409840576169" lon="9.952862565154243"><ele>105.0</ele><time>2026-04-12T06:37:09.001Z</time></trkpt><trkpt lat="45.474199064147435" lon="9.952882565370583"><ele>105.0</ele><time>2026-04-12T06:37:10.001Z</time></trkpt><trkpt lat="45.474288635106184" lon="9.952907019820527"><ele>105.0</ele><time>2026-04-12T06:37:11.001Z</time></trkpt><trkpt lat="45.474365856468594" lon="9.952928118776587"><ele>105.0</ele><time>2026-04-12T06:37:12Z</time></trkpt><trkpt lat="45.47443517423011" lon="9.952951723193769"><ele>105.0</ele><time>2026-04-12T06:37:13Z</time></trkpt><trkpt lat="45.47451443367713" lon="9.95302602987029"><ele>105.0</ele><time>2026-04-12T06:37:15Z</time></trkpt><trkpt lat="45.47456288371007" lon="9.953132490379758"><ele>105.0</ele><time>2026-04-12T06:37:19Z</time></trkpt><trkpt lat="45.47458478986845" lon="9.95332772656767"><ele>105.0</ele><time>2026-04-12T06:37:21Z</time></trkpt><trkpt lat="45.47458027164224" lon="9.953454910575365"><ele>104.75</ele><time>2026-04-12T06:37:22Z</time></trkpt><trkpt lat="45.47455986165001" lon="9.953588641438689"><ele>104.5</ele><time>2026-04-12T06:37:23Z</time></trkpt><trkpt lat="45.4745353636774" lon="9.953731395390923"><ele>104.25</ele><time>2026-04-12T06:37:24Z</time></trkpt><trkpt lat="45.474507179885094" lon="9.953901751099442"><ele>104.0</ele><time>2026-04-12T06:37:25Z</time></trkpt><trkpt lat="45.474480484921806" lon="9.954091909514718"><ele>103.75</ele><time>2026-04-12T06:37:26Z</time></trkpt><trkpt lat="45.47445467256372" lon="9.954299138452814"><ele>103.5</ele><time>2026-04-12T06:37:27Z</time></trkpt><trkpt lat="45.47442615035664" lon="9.954506394005408"><ele>103.25</ele><time>2026-04-12T06:37:28Z</time></trkpt><trkpt lat="45.47439357091412" lon="9.9547114055249"><ele>103.0</ele><time>2026-04-12T06:37:29Z</time></trkpt><trkpt lat="45.474360293230056" lon="9.954931739346181"><ele>103.33333333333334</ele><time>2026-04-12T06:37:30Z</time></trkpt><trkpt lat="45.474324556886295" lon="9.955152701907073"><ele>103.66666666666666</ele><time>2026-04-12T06:37:31Z</time></trkpt><trkpt lat="45.47429473791651" lon="9.955383987184502"><ele>104.0</ele><time>2026-04-12T06:37:32Z</time></trkpt><trkpt lat="45.47425978993587" lon="9.955608421936255"><ele>104.0</ele><time>2026-04-12T06:37:33Z</time></trkpt><trkpt lat="45.47422732125934" lon="9.955850314437612"><ele>104.0</ele><time>2026-04-12T06:37:34Z</time></trkpt><trkpt lat="45.474193644814676" lon="9.956085692352454"><ele>104.0</ele><time>2026-04-12T06:37:35Z</time></trkpt><trkpt lat="45.47415953440364" lon="9.956316271562702"><ele>103.75</ele><time>2026-04-12T06:37:36Z</time></trkpt><trkpt lat="45.474130582806595" lon="9.956532128994883"><ele>103.5</ele><time>2026-04-12T06:37:37Z</time></trkpt><trkpt lat="45.47410367509127" lon="9.956734663839898"><ele>103.25</ele><time>2026-04-12T06:37:38Z</time></trkpt><trkpt lat="45.4740839077511" lon="9.956917317831712"><ele>103.0</ele><time>2026-04-12T06:37:39Z</time></trkpt><trkpt lat="45.47406563466903" lon="9.957092037639105"><ele>103.0</ele><time>2026-04-12T06:37:40Z</time></trkpt><trkpt lat="45.47404284713713" lon="9.957252531896678"><ele>103.0</ele><time>2026-04-12T06:37:41Z</time></trkpt><trkpt lat="45.47400894038575" lon="9.957399259663374"><ele>103.0</ele><time>2026-04-12T06:37:42Z</time></trkpt><trkpt lat="45.47396840796177" lon="9.957505424783292"><ele>103.0</ele><time>2026-04-12T06:37:43Z</time></trkpt><trkpt lat="45.47392716098803" lon="9.95763668767357"><ele>103.0</ele><time>2026-04-12T06:37:44Z</time></trkpt><trkpt lat="45.4739183980367" lon="9.957753725430802"><ele>103.0</ele><time>2026-04-12T06:37:45Z</time></trkpt><trkpt lat="45.473954735064815" lon="9.957860093821061"><ele>103.0</ele><time>2026-04-12T06:37:46Z</time></trkpt><trkpt lat="45.4740237258024" lon="9.957951519044512"><ele>103.0</ele><time>2026-04-12T06:37:47Z</time></trkpt><trkpt lat="45.47412445386765" lon="9.957994370022732"><ele>103.0</ele><time>2026-04-12T06:37:48Z</time></trkpt><trkpt lat="45.474201265316324" lon="9.958125685173005"><ele>103.0</ele><time>2026-04-12T06:37:49Z</time></trkpt><trkpt lat="45.47427097612075" lon="9.958276225506799"><ele>103.0</ele><time>2026-04-12T06:37:50Z</time></trkpt><trkpt lat="45.47432369695809" lon="9.958468788225737"><ele>103.0</ele><time>2026-04-12T06:37:51Z</time></trkpt><trkpt lat="45.47437378419609" lon="9.958671829800288"><ele>103.0</ele><time>2026-04-12T06:37:52Z</time></trkpt><trkpt lat="45.474448492398615" lon="9.95887397196455"><ele>103.0</ele><time>2026-04-12T06:37:53Z</time></trkpt><trkpt lat="45.4744805203158" lon="9.95912141064784"><ele>103.0</ele><time>2026-04-12T06:37:54Z</time></trkpt><trkpt lat="45.474530355101365" lon="9.959354879112231"><ele>103.0</ele><time>2026-04-12T06:37:55Z</time></trkpt><trkpt lat="45.47457918074654" lon="9.959596210731943"><ele>103.33333333333334</ele><time>2026-04-12T06:37:56Z</time></trkpt><trkpt lat="45.47463286686659" lon="9.959837720983241"><ele>103.66666666666666</ele><time>2026-04-12T06:37:57Z</time></trkpt><trkpt lat="45.47468613459211" lon="9.960080289415387"><ele>104.0</ele><time>2026-04-12T06:37:58Z</time></trkpt><trkpt lat="45.474733150585195" lon="9.960327006767814"><ele>104.0</ele><time>2026-04-12T06:37:59Z</time></trkpt><trkpt lat="45.47477234526185" lon="9.960577381467093"><ele>104.0</ele><time>2026-04-12T06:38:00Z</time></trkpt><trkpt lat="45.47480239827385" lon="9.960835325476534"><ele>104.0</ele><time>2026-04-12T06:38:01Z</time></trkpt><trkpt lat="45.474830211181505" lon="9.96109872486429"><ele>104.0</ele><time>2026-04-12T06:38:02Z</time></trkpt><trkpt lat="45.474855231947046" lon="9.961361001628209"><ele>104.0</ele><time>2026-04-12T06:38:03Z</time></trkpt><trkpt lat="45.474881160666584" lon="9.961627945831715"><ele>104.0</ele><time>2026-04-12T06:38:04Z</time></trkpt><trkpt lat="45.474908260861724" lon="9.961897960658366"><ele>104.0</ele><time>2026-04-12T06:38:05Z</time></trkpt><trkpt lat="45.47493645535835" lon="9.962168694301631"><ele>104.0</ele><time>2026-04-12T06:38:06Z</time></trkpt><trkpt lat="45.47496765479844" lon="9.96243924356126"><ele>104.0</ele><time>2026-04-12T06:38:07Z</time></trkpt><trkpt lat="45.474994850667706" lon="9.962711434324655"><ele>104.0</ele><time>2026-04-12T06:38:08Z</time></trkpt><trkpt lat="45.47502404321807" lon="9.962986052700455"><ele>104.0</ele><time>2026-04-12T06:38:09Z</time></trkpt><trkpt lat="45.4750520538111" lon="9.963255636288356"><ele>104.0</ele><time>2026-04-12T06:38:10Z</time></trkpt><trkpt lat="45.47508124835721" lon="9.963534082184422"><ele>104.33333333333333</ele><time>2026-04-12T06:38:11Z</time></trkpt><trkpt lat="45.47511052517998" lon="9.963809085389963"><ele>104.66666666666666</ele><time>2026-04-12T06:38:12Z</time></trkpt><trkpt lat="45.475141343358125" lon="9.964078887973345"><ele>105.0</ele><time>2026-04-12T06:38:13Z</time></trkpt><trkpt lat="45.47517275386664" lon="9.964347488968551"><ele>105.0</ele><time>2026-04-12T06:38:14Z</time></trkpt><trkpt lat="45.47519811658739" lon="9.964616929472758"><ele>105.0</ele><time>2026-04-12T06:38:15Z</time></trkpt><trkpt lat="45.47522669892037" lon="9.964886361533352"><ele>105.0</ele><time>2026-04-12T06:38:16Z</time></trkpt><trkpt lat="45.47527261367316" lon="9.965142516977586"><ele>105.0</ele><time>2026-04-12T06:38:17Z</time></trkpt><trkpt lat="45.475337835535775" lon="9.965394155999068"><ele>105.0</ele><time>2026-04-12T06:38:18Z</time></trkpt><trkpt lat="45.47541534965318" lon="9.965637504667239"><ele>105.0</ele><time>2026-04-12T06:38:19Z</time></trkpt><trkpt lat="45.475498915559854" lon="9.965876198966512"><ele>105.0</ele><time>2026-04-12T06:38:20Z</time></trkpt><trkpt lat="45.47558788291987" lon="9.966118744074445"><ele>105.0</ele><time>2026-04-12T06:38:21Z</time></trkpt><trkpt lat="45.47568046078765" lon="9.966356774972398"><ele>105.0</ele><time>2026-04-12T06:38:22Z</time></trkpt><trkpt lat="45.47577675263335" lon="9.966598515669268"><ele>104.33333333333334</ele><time>2026-04-12T06:38:23Z</time></trkpt><trkpt lat="45.47587508781706" lon="9.966839581072854"><ele>103.66666666666667</ele><time>2026-04-12T06:38:24Z</time></trkpt><trkpt lat="45.47597251531009" lon="9.96708127360706"><ele>103.0</ele><time>2026-04-12T06:38:25Z</time></trkpt><trkpt lat="45.476068442997004" lon="9.967317203029886"><ele>102.66666666666667</ele><time>2026-04-12T06:38:26Z</time></trkpt><trkpt lat="45.47616325727008" lon="9.967551836709333"><ele>102.33333333333334</ele><time>2026-04-12T06:38:27Z</time></trkpt><trkpt lat="45.4762496794977" lon="9.967772438359102"><ele>102.0</ele><time>2026-04-12T06:38:28Z</time></trkpt><trkpt lat="45.47632796826183" lon="9.967984072046274"><ele>102.66666666666666</ele><time>2026-04-12T06:38:29Z</time></trkpt><trkpt lat="45.47639866794531" lon="9.968187590566588"><ele>103.33333333333333</ele><time>2026-04-12T06:38:30Z</time></trkpt><trkpt lat="45.47644943195705" lon="9.968398857881818"><ele>104.0</ele><time>2026-04-12T06:38:31Z</time></trkpt><trkpt lat="45.47646927060662" lon="9.968618159380666"><ele>104.33333333333333</ele><time>2026-04-12T06:38:32Z</time></trkpt><trkpt lat="45.47646298350114" lon="9.96884832594035"><ele>104.66666666666666</ele><time>2026-04-12T06:38:33Z</time></trkpt><trkpt lat="45.47644026534219" lon="9.969078931594543"><ele>105.0</ele><time>2026-04-12T06:38:34Z</time></trkpt><trkpt lat="45.476411713320786" lon="9.969286526530373"><ele>105.0</ele><time>2026-04-12T06:38:35Z</time></trkpt><trkpt lat="45.47639032083307" lon="9.969467253630345"><ele>105.0</ele><time>2026-04-12T06:38:36Z</time></trkpt><trkpt lat="45.47637207746627" lon="9.969624103465781"><ele>105.0</ele><time>2026-04-12T06:38:37Z</time></trkpt><trkpt lat="45.476358596918914" lon="9.969750714392035"><ele>105.0</ele><time>2026-04-12T06:38:38Z</time></trkpt><trkpt lat="45.476360371974756" lon="9.969845127205197"><ele>105.0</ele><time>2026-04-12T06:38:39Z</time></trkpt><trkpt lat="45.476357845152094" lon="9.969944671234675"><ele>105.0</ele><time>2026-04-12T06:38:41Z</time></trkpt><trkpt lat="45.47657353047379" lon="9.969988062057256"><ele>105.0</ele><time>2026-04-12T06:38:42Z</time></trkpt><trkpt lat="45.47669328010101" lon="9.9700006082236"><ele>105.0</ele><time>2026-04-12T06:38:43Z</time></trkpt><trkpt lat="45.476827822016595" lon="9.970023044868189"><ele>105.0</ele><time>2026-04-12T06:38:44Z</time></trkpt><trkpt lat="45.476981265655844" lon="9.9700553488284"><ele>105.0</ele><time>2026-04-12T06:38:45Z</time></trkpt><trkpt lat="45.477151426435036" lon="9.970095628245987"><ele>105.0</ele><time>2026-04-12T06:38:46Z</time></trkpt><trkpt lat="45.47733154081347" lon="9.970140939760812"><ele>105.0</ele><time>2026-04-12T06:38:47Z</time></trkpt><trkpt lat="45.477523342286396" lon="9.970190572514454"><ele>105.0</ele><time>2026-04-12T06:38:48Z</time></trkpt><trkpt lat="45.477725919489686" lon="9.970239664779424"><ele>105.0</ele><time>2026-04-12T06:38:49Z</time></trkpt><trkpt lat="45.477936982492686" lon="9.970288234693157"><ele>105.0</ele><time>2026-04-12T06:38:50Z</time></trkpt><trkpt lat="45.4781534691176" lon="9.970341160942432"><ele>105.0</ele><time>2026-04-12T06:38:51Z</time></trkpt><trkpt lat="45.47837803937356" lon="9.970396175230592"><ele>105.0</ele><time>2026-04-12T06:38:52Z</time></trkpt><trkpt lat="45.478606382878056" lon="9.9704495823708"><ele>105.0</ele><time>2026-04-12T06:38:53Z</time></trkpt><trkpt lat="45.47882920759225" lon="9.970496433797646"><ele>105.0</ele><time>2026-04-12T06:38:54Z</time></trkpt><trkpt lat="45.47904424834839" lon="9.970539894439986"><ele>105.0</ele><time>2026-04-12T06:38:55Z</time></trkpt><trkpt lat="45.47924640223918" lon="9.970582109061246"><ele>105.0</ele><time>2026-04-12T06:38:56Z</time></trkpt><trkpt lat="45.4794422837422" lon="9.970623486551595"><ele>105.0</ele><time>2026-04-12T06:38:57Z</time></trkpt><trkpt lat="45.47963770603718" lon="9.97066298045087"><ele>105.0</ele><time>2026-04-12T06:38:58Z</time></trkpt><trkpt lat="45.47983531890836" lon="9.970701938803115"><ele>105.66666666666666</ele><time>2026-04-12T06:38:59Z</time></trkpt><trkpt lat="45.48003365915389" lon="9.970738920548548"><ele>106.33333333333333</ele><time>2026-04-12T06:39:00Z</time></trkpt><trkpt lat="45.48023981054861" lon="9.970780031084834"><ele>107.0</ele><time>2026-04-12T06:39:01Z</time></trkpt><trkpt lat="45.48045167064351" lon="9.970826970677416"><ele>107.33333333333333</ele><time>2026-04-12T06:39:02Z</time></trkpt><trkpt lat="45.480665334606535" lon="9.970877210382845"><ele>107.66666666666666</ele><time>2026-04-12T06:39:03Z</time></trkpt><trkpt lat="45.48088205501052" lon="9.970937217803655"><ele>108.0</ele><time>2026-04-12T06:39:04Z</time></trkpt><trkpt lat="45.48109780755887" lon="9.971004549102693"><ele>108.33333333333334</ele><time>2026-04-12T06:39:05Z</time></trkpt><trkpt lat="45.48131535753888" lon="9.971075491193806"><ele>108.66666666666667</ele><time>2026-04-12T06:39:06Z</time></trkpt><trkpt lat="45.48153570540311" lon="9.97114662662658"><ele>109.0</ele><time>2026-04-12T06:39:07Z</time></trkpt><trkpt lat="45.4817571563934" lon="9.971214214295927"><ele>109.0</ele><time>2026-04-12T06:39:08Z</time></trkpt><trkpt lat="45.48198047360023" lon="9.971280021282341"><ele>109.0</ele><time>2026-04-12T06:39:09Z</time></trkpt><trkpt lat="45.48220306470322" lon="9.97133990103653"><ele>108.5</ele><time>2026-04-12T06:39:10Z</time></trkpt><trkpt lat="45.48242894026959" lon="9.971394564501134"><ele>108.0</ele><time>2026-04-12T06:39:11Z</time></trkpt><trkpt lat="45.482653786952866" lon="9.97144694668601"><ele>108.0</ele><time>2026-04-12T06:39:12Z</time></trkpt><trkpt lat="45.48287965486483" lon="9.971487846512202"><ele>108.0</ele><time>2026-04-12T06:39:13Z</time></trkpt><trkpt lat="45.48310763314952" lon="9.971496534204888"><ele>108.0</ele><time>2026-04-12T06:39:14Z</time></trkpt><trkpt lat="45.48333429336111" lon="9.971475876598703"><ele>108.0</ele><time>2026-04-12T06:39:15Z</time></trkpt><trkpt lat="45.48356039825207" lon="9.971482839306042"><ele>107.5</ele><time>2026-04-12T06:39:16Z</time></trkpt><trkpt lat="45.48378768816096" lon="9.971517807417031"><ele>107.0</ele><time>2026-04-12T06:39:17Z</time></trkpt><trkpt lat="45.48401219627577" lon="9.971539271818349"><ele>107.0</ele><time>2026-04-12T06:39:18Z</time></trkpt><trkpt lat="45.48423682748275" lon="9.971550131185904"><ele>107.0</ele><time>2026-04-12T06:39:19Z</time></trkpt><trkpt lat="45.48446093169365" lon="9.971551618691846"><ele>107.0</ele><time>2026-04-12T06:39:20Z</time></trkpt><trkpt lat="45.48468442323525" lon="9.971538575084175"><ele>107.66666666666666</ele><time>2026-04-12T06:39:21Z</time></trkpt><trkpt lat="45.484906517997096" lon="9.971517976670176"><ele>108.33333333333334</ele><time>2026-04-12T06:39:22Z</time></trkpt><trkpt lat="45.48512892257761" lon="9.97150082992194"><ele>109.0</ele><time>2026-04-12T06:39:23Z</time></trkpt><trkpt lat="45.48534806624665" lon="9.971504516811724"><ele>108.66666666666667</ele><time>2026-04-12T06:39:24Z</time></trkpt><trkpt lat="45.48556758756462" lon="9.971528356058945"><ele>108.33333333333334</ele><time>2026-04-12T06:39:25Z</time></trkpt><trkpt lat="45.48578419761898" lon="9.97157499732412"><ele>108.0</ele><time>2026-04-12T06:39:26Z</time></trkpt><trkpt lat="45.48600093094945" lon="9.971622697670423"><ele>108.0</ele><time>2026-04-12T06:39:27Z</time></trkpt><trkpt lat="45.48621534584162" lon="9.971671074186967"><ele>108.0</ele><time>2026-04-12T06:39:28Z</time></trkpt><trkpt lat="45.486428853763265" lon="9.971722104338436"><ele>108.0</ele><time>2026-04-12T06:39:29Z</time></trkpt><trkpt lat="45.48663960001792" lon="9.971772540666171"><ele>108.33333333333334</ele><time>2026-04-12T06:39:30Z</time></trkpt><trkpt lat="45.486853039112404" lon="9.97182166522922"><ele>108.66666666666667</ele><time>2026-04-12T06:39:31Z</time></trkpt><trkpt lat="45.487066604272115" lon="9.971862898860808"><ele>109.0</ele><time>2026-04-12T06:39:32Z</time></trkpt><trkpt lat="45.48728294427096" lon="9.971898371906976"><ele>109.0</ele><time>2026-04-12T06:39:33Z</time></trkpt><trkpt lat="45.48749871000282" lon="9.97193150279122"><ele>109.0</ele><time>2026-04-12T06:39:34Z</time></trkpt><trkpt lat="45.48771591981482" lon="9.971963193287245"><ele>109.0</ele><time>2026-04-12T06:39:35Z</time></trkpt><trkpt lat="45.48793246475577" lon="9.971995000833122"><ele>109.0</ele><time>2026-04-12T06:39:36Z</time></trkpt><trkpt lat="45.488146311170084" lon="9.972025751621151"><ele>109.0</ele><time>2026-04-12T06:39:37Z</time></trkpt><trkpt lat="45.48836020015406" lon="9.972053249678229"><ele>109.0</ele><time>2026-04-12T06:39:38Z</time></trkpt><trkpt lat="45.488576309550204" lon="9.972082365236624"><ele>109.66666666666667</ele><time>2026-04-12T06:39:39Z</time></trkpt><trkpt lat="45.48879184132656" lon="9.972114294061289"><ele>110.33333333333334</ele><time>2026-04-12T06:39:40Z</time></trkpt><trkpt lat="45.489006282307955" lon="9.972140725486673"><ele>111.0</ele><time>2026-04-12T06:39:41Z</time></trkpt><trkpt lat="45.489219766018394" lon="9.972193351427785"><ele>111.0</ele><time>2026-04-12T06:39:42Z</time></trkpt><trkpt lat="45.48943716051745" lon="9.972200478799472"><ele>111.0</ele><time>2026-04-12T06:39:43Z</time></trkpt><trkpt lat="45.48965457055663" lon="9.972233141080393"><ele>111.0</ele><time>2026-04-12T06:39:44Z</time></trkpt><trkpt lat="45.48987337713539" lon="9.972257901741834"><ele>111.33333333333334</ele><time>2026-04-12T06:39:45Z</time></trkpt><trkpt lat="45.49009150018872" lon="9.972290186324688"><ele>111.66666666666667</ele><time>2026-04-12T06:39:46Z</time></trkpt><trkpt lat="45.49030858622415" lon="9.972324625010936"><ele>112.0</ele><time>2026-04-12T06:39:47Z</time></trkpt><trkpt lat="45.490527930092405" lon="9.97235377560675"><ele>112.0</ele><time>2026-04-12T06:39:48Z</time></trkpt><trkpt lat="45.4907483566433" lon="9.972388060105418"><ele>112.0</ele><time>2026-04-12T06:39:49Z</time></trkpt><trkpt lat="45.49096867194815" lon="9.972424770231655"><ele>112.0</ele><time>2026-04-12T06:39:50Z</time></trkpt><trkpt lat="45.49118783274341" lon="9.972465780633735"><ele>112.0</ele><time>2026-04-12T06:39:51Z</time></trkpt><trkpt lat="45.49139599162373" lon="9.97250854346483"><ele>112.0</ele><time>2026-04-12T06:39:52Z</time></trkpt><trkpt lat="45.491583010530505" lon="9.972551202123753"><ele>112.0</ele><time>2026-04-12T06:39:53Z</time></trkpt><trkpt lat="45.49174457391359" lon="9.972602293407023"><ele>112.0</ele><time>2026-04-12T06:39:54Z</time></trkpt><trkpt lat="45.49188329695505" lon="9.972659790223831"><ele>112.0</ele><time>2026-04-12T06:39:55Z</time></trkpt><trkpt lat="45.49199844444845" lon="9.972715099923331"><ele>112.0</ele><time>2026-04-12T06:39:56Z</time></trkpt><trkpt lat="45.49210458847066" lon="9.972763438967792"><ele>112.0</ele><time>2026-04-12T06:39:57Z</time></trkpt><trkpt lat="45.492215805309" lon="9.972801952701355"><ele>112.0</ele><time>2026-04-12T06:39:58Z</time></trkpt><trkpt lat="45.49233781932561" lon="9.972842854076617"><ele>112.0</ele><time>2026-04-12T06:39:59Z</time></trkpt><trkpt lat="45.4924567015955" lon="9.972880572948498"><ele>112.0</ele><time>2026-04-12T06:40:00Z</time></trkpt><trkpt lat="45.49258612516252" lon="9.97292438283684"><ele>112.0</ele><time>2026-04-12T06:40:01Z</time></trkpt><trkpt lat="45.49273343535155" lon="9.9729745307891"><ele>112.0</ele><time>2026-04-12T06:40:02Z</time></trkpt><trkpt lat="45.49289839802715" lon="9.973029629485033"><ele>112.0</ele><time>2026-04-12T06:40:03Z</time></trkpt><trkpt lat="45.493079763549886" lon="9.973089727117843"><ele>112.0</ele><time>2026-04-12T06:40:04Z</time></trkpt><trkpt lat="45.4932768778805" lon="9.973152452717045"><ele>112.33333333333334</ele><time>2026-04-12T06:40:05Z</time></trkpt><trkpt lat="45.49348707608687" lon="9.973216848727262"><ele>112.66666666666666</ele><time>2026-04-12T06:40:06Z</time></trkpt><trkpt lat="45.493703584915565" lon="9.97327903372907"><ele>113.0</ele><time>2026-04-12T06:40:07Z</time></trkpt><trkpt lat="45.49393224545156" lon="9.973338899628272"><ele>113.5</ele><time>2026-04-12T06:40:08Z</time></trkpt><trkpt lat="45.494167901249085" lon="9.973397265953484"><ele>114.0</ele><time>2026-04-12T06:40:09Z</time></trkpt><trkpt lat="45.49440780619606" lon="9.973454021965734"><ele>113.5</ele><time>2026-04-12T06:40:10Z</time></trkpt><trkpt lat="45.49465356228099" lon="9.973513369026962"><ele>113.0</ele><time>2026-04-12T06:40:11Z</time></trkpt><trkpt lat="45.49490401947534" lon="9.973573919585785"><ele>113.0</ele><time>2026-04-12T06:40:12Z</time></trkpt><trkpt lat="45.49515673006249" lon="9.97363382017511"><ele>113.0</ele><time>2026-04-12T06:40:13Z</time></trkpt><trkpt lat="45.49540963587774" lon="9.97369349246133"><ele>113.5</ele><time>2026-04-12T06:40:14Z</time></trkpt><trkpt lat="45.495660334209035" lon="9.97375357526508"><ele>114.0</ele><time>2026-04-12T06:40:15Z</time></trkpt><trkpt lat="45.495912357085174" lon="9.973805432394109"><ele>114.0</ele><time>2026-04-12T06:40:16Z</time></trkpt><trkpt lat="45.49616309608487" lon="9.97383825871905"><ele>114.0</ele><time>2026-04-12T06:40:17Z</time></trkpt><trkpt lat="45.496414490144275" lon="9.973855640726466"><ele>114.5</ele><time>2026-04-12T06:40:18Z</time></trkpt><trkpt lat="45.49666591613648" lon="9.973869772037549"><ele>115.0</ele><time>2026-04-12T06:40:19Z</time></trkpt><trkpt lat="45.496916466105056" lon="9.973886478922962"><ele>115.0</ele><time>2026-04-12T06:40:20Z</time></trkpt><trkpt lat="45.497166021457524" lon="9.973905631468549"><ele>115.0</ele><time>2026-04-12T06:40:21Z</time></trkpt><trkpt lat="45.49741297806423" lon="9.973929986454984"><ele>115.0</ele><time>2026-04-12T06:40:22Z</time></trkpt><trkpt lat="45.497658158804384" lon="9.97395623762056"><ele>115.0</ele><time>2026-04-12T06:40:23Z</time></trkpt><trkpt lat="45.49790528000457" lon="9.973987368132663"><ele>115.0</ele><time>2026-04-12T06:40:24Z</time></trkpt><trkpt lat="45.49814984842943" lon="9.974018629074779"><ele>115.0</ele><time>2026-04-12T06:40:25Z</time></trkpt><trkpt lat="45.49838642927884" lon="9.974049997174674"><ele>115.0</ele><time>2026-04-12T06:40:26Z</time></trkpt><trkpt lat="45.498603627414276" lon="9.974090137222088"><ele>115.0</ele><time>2026-04-12T06:40:27Z</time></trkpt><trkpt lat="45.49880074300024" lon="9.974139441994208"><ele>115.0</ele><time>2026-04-12T06:40:28Z</time></trkpt><trkpt lat="45.498975380148075" lon="9.97418393089218"><ele>115.25</ele><time>2026-04-12T06:40:29Z</time></trkpt><trkpt lat="45.49912248832112" lon="9.974220132542024"><ele>115.5</ele><time>2026-04-12T06:40:30Z</time></trkpt><trkpt lat="45.49924960288446" lon="9.974250415818993"><ele>115.75</ele><time>2026-04-12T06:40:31Z</time></trkpt><trkpt lat="45.49935492225964" lon="9.97427823610815"><ele>116.0</ele><time>2026-04-12T06:40:32Z</time></trkpt><trkpt lat="45.49945203346168" lon="9.97430297924338"><ele>116.0</ele><time>2026-04-12T06:40:33Z</time></trkpt><trkpt lat="45.49955379269911" lon="9.974325975813176"><ele>116.0</ele><time>2026-04-12T06:40:34Z</time></trkpt><trkpt lat="45.49966981320849" lon="9.974347880831006"><ele>116.0</ele><time>2026-04-12T06:40:35Z</time></trkpt><trkpt lat="45.49980098927338" lon="9.974368884789136"><ele>116.0</ele><time>2026-04-12T06:40:36Z</time></trkpt><trkpt lat="45.49994107241598" lon="9.974391176341427"><ele>116.5</ele><time>2026-04-12T06:40:37Z</time></trkpt><trkpt lat="45.50008211343953" lon="9.974414211133281"><ele>117.0</ele><time>2026-04-12T06:40:38Z</time></trkpt><trkpt lat="45.50021098153057" lon="9.974436018851364"><ele>117.5</ele><time>2026-04-12T06:40:39Z</time></trkpt><trkpt lat="45.500318019312736" lon="9.974466047320195"><ele>118.0</ele><time>2026-04-12T06:40:40Z</time></trkpt><trkpt lat="45.500408137908835" lon="9.97450420602727"><ele>118.0</ele><time>2026-04-12T06:40:41Z</time></trkpt><trkpt lat="45.500480347000035" lon="9.974579368856437"><ele>118.00000000000001</ele><time>2026-04-12T06:40:42Z</time></trkpt><trkpt lat="45.50051583139913" lon="9.974704830268044"><ele>118.00000000000001</ele><time>2026-04-12T06:40:43Z</time></trkpt><trkpt lat="45.500521184889365" lon="9.974861255783908"><ele>118.0</ele><time>2026-04-12T06:40:44Z</time></trkpt><trkpt lat="45.50049817313018" lon="9.975047690266157"><ele>118.0</ele><time>2026-04-12T06:40:45Z</time></trkpt><trkpt lat="45.50047626442995" lon="9.975249791723863"><ele>117.60000000000001</ele><time>2026-04-12T06:40:46Z</time></trkpt><trkpt lat="45.50045646623266" lon="9.975434910344804"><ele>117.20000000000002</ele><time>2026-04-12T06:40:47Z</time></trkpt><trkpt lat="45.50044690677869" lon="9.975595578938094"><ele>116.8</ele><time>2026-04-12T06:40:48Z</time></trkpt><trkpt lat="45.5004391217116" lon="9.975727640563626"><ele>116.4</ele><time>2026-04-12T06:40:49Z</time></trkpt><trkpt lat="45.500460172918515" lon="9.975849264052913"><ele>116.0</ele><time>2026-04-12T06:40:50Z</time></trkpt><trkpt lat="45.50052121411629" lon="9.975943043289279"><ele>116.0</ele><time>2026-04-12T06:40:51Z</time></trkpt><trkpt lat="45.500619307636754" lon="9.976000708474626"><ele>116.0</ele><time>2026-04-12T06:40:52Z</time></trkpt><trkpt lat="45.50074787443233" lon="9.976030861234756"><ele>116.0</ele><time>2026-04-12T06:40:53Z</time></trkpt><trkpt lat="45.500888119447204" lon="9.97605891854674"><ele>116.0</ele><time>2026-04-12T06:40:54Z</time></trkpt><trkpt lat="45.50104935464501" lon="9.976094795572045"><ele>116.0</ele><time>2026-04-12T06:40:55Z</time></trkpt><trkpt lat="45.50123231187049" lon="9.976138730567598"><ele>116.0</ele><time>2026-04-12T06:40:56Z</time></trkpt><trkpt lat="45.50141919802354" lon="9.976187829261596"><ele>116.0</ele><time>2026-04-12T06:40:57Z</time></trkpt><trkpt lat="45.50162312946561" lon="9.976244284625494"><ele>117.0</ele><time>2026-04-12T06:40:58Z</time></trkpt><trkpt lat="45.50183829328882" lon="9.976304565698573"><ele>118.0</ele><time>2026-04-12T06:40:59Z</time></trkpt><trkpt lat="45.50206537864479" lon="9.976369247412912"><ele>117.5</ele><time>2026-04-12T06:41:00Z</time></trkpt><trkpt lat="45.5022933536859" lon="9.976433474891495"><ele>117.0</ele><time>2026-04-12T06:41:01Z</time></trkpt><trkpt lat="45.50252768170524" lon="9.976498666336482"><ele>117.0</ele><time>2026-04-12T06:41:02Z</time></trkpt><trkpt lat="45.50276353239146" lon="9.976560976003924"><ele>117.0</ele><time>2026-04-12T06:41:03Z</time></trkpt><trkpt lat="45.50300093556008" lon="9.976616875638719"><ele>117.5</ele><time>2026-04-12T06:41:04Z</time></trkpt><trkpt lat="45.503242277518325" lon="9.976667805422675"><ele>118.0</ele><time>2026-04-12T06:41:05Z</time></trkpt><trkpt lat="45.50348328234708" lon="9.976712558203019"><ele>118.5</ele><time>2026-04-12T06:41:06Z</time></trkpt><trkpt lat="45.50372091595187" lon="9.976749023163089"><ele>119.0</ele><time>2026-04-12T06:41:07Z</time></trkpt><trkpt lat="45.50395870586437" lon="9.976782010567836"><ele>119.0</ele><time>2026-04-12T06:41:08Z</time></trkpt><trkpt lat="45.50419394811954" lon="9.976806454306985"><ele>119.0</ele><time>2026-04-12T06:41:09Z</time></trkpt><trkpt lat="45.50442486086157" lon="9.976831633700092"><ele>119.5</ele><time>2026-04-12T06:41:10Z</time></trkpt><trkpt lat="45.50465885769551" lon="9.976859999420348"><ele>120.0</ele><time>2026-04-12T06:41:11Z</time></trkpt><trkpt lat="45.50489223767205" lon="9.976883992578978"><ele>120.0</ele><time>2026-04-12T06:41:12Z</time></trkpt><trkpt lat="45.50512426821751" lon="9.976905560608056"><ele>120.0</ele><time>2026-04-12T06:41:13Z</time></trkpt><trkpt lat="45.50535605824139" lon="9.976925838818719"><ele>121.0</ele><time>2026-04-12T06:41:14Z</time></trkpt><trkpt lat="45.505584315633975" lon="9.976947165526475"><ele>122.0</ele><time>2026-04-12T06:41:15Z</time></trkpt><trkpt lat="45.505811927270564" lon="9.97697152415967"><ele>122.0</ele><time>2026-04-12T06:41:16Z</time></trkpt><trkpt lat="45.5060390727045" lon="9.976994781344697"><ele>122.0</ele><time>2026-04-12T06:41:17Z</time></trkpt><trkpt lat="45.50626162650501" lon="9.977021429329366"><ele>122.33333333333333</ele><time>2026-04-12T06:41:18Z</time></trkpt><trkpt lat="45.50647659092433" lon="9.977048805096643"><ele>122.66666666666666</ele><time>2026-04-12T06:41:19Z</time></trkpt><trkpt lat="45.50667765942125" lon="9.977072696610223"><ele>123.0</ele><time>2026-04-12T06:41:20Z</time></trkpt><trkpt lat="45.506870714506675" lon="9.977102820359132"><ele>123.0</ele><time>2026-04-12T06:41:21Z</time></trkpt><trkpt lat="45.50705107168092" lon="9.977133240642154"><ele>123.0</ele><time>2026-04-12T06:41:22Z</time></trkpt><trkpt lat="45.507221276816466" lon="9.977163541537683"><ele>123.0</ele><time>2026-04-12T06:41:23Z</time></trkpt><trkpt lat="45.50736238786981" lon="9.97719200030468"><ele>122.80000000000001</ele><time>2026-04-12T06:41:24Z</time></trkpt><trkpt lat="45.507465478785555" lon="9.97721103190706"><ele>122.60000000000001</ele><time>2026-04-12T06:41:25Z</time></trkpt><trkpt lat="45.50755805285834" lon="9.977226456989184"><ele>122.39999999999999</ele><time>2026-04-12T06:41:26Z</time></trkpt><trkpt lat="45.50764552645017" lon="9.977237445804903"><ele>122.19999999999999</ele><time>2026-04-12T06:41:27Z</time></trkpt><trkpt lat="45.50774436742838" lon="9.977247894595648"><ele>122.0</ele><time>2026-04-12T06:41:28Z</time></trkpt><trkpt lat="45.50783704214207" lon="9.977255877156903"><ele>122.0</ele><time>2026-04-12T06:41:29Z</time></trkpt><trkpt lat="45.50793646511783" lon="9.977265256269911"><ele>121.99999999999999</ele><time>2026-04-12T06:41:30Z</time></trkpt><trkpt lat="45.50804066350756" lon="9.977278951465438"><ele>121.99999999999999</ele><time>2026-04-12T06:41:31Z</time></trkpt><trkpt lat="45.50814627314454" lon="9.977290645270752"><ele>122.0</ele><time>2026-04-12T06:41:32Z</time></trkpt><trkpt lat="45.50825823017066" lon="9.977299787178076"><ele>122.0</ele><time>2026-04-12T06:41:33Z</time></trkpt><trkpt lat="45.508373585342014" lon="9.977309902583208"><ele>122.0</ele><time>2026-04-12T06:41:34Z</time></trkpt><trkpt lat="45.50848422464926" lon="9.977323035874536"><ele>121.99999999999999</ele><time>2026-04-12T06:41:35Z</time></trkpt><trkpt lat="45.50860105270797" lon="9.977340512332901"><ele>121.99999999999999</ele><time>2026-04-12T06:41:36Z</time></trkpt><trkpt lat="45.508714215958754" lon="9.977359015630439"><ele>122.0</ele><time>2026-04-12T06:41:37Z</time></trkpt><trkpt lat="45.5088209608738" lon="9.977367425936196"><ele>122.0</ele><time>2026-04-12T06:41:38Z</time></trkpt><trkpt lat="45.5089408053235" lon="9.977382568099728"><ele>122.0</ele><time>2026-04-12T06:41:39Z</time></trkpt><trkpt lat="45.50905727020312" lon="9.977395154254943"><ele>122.0</ele><time>2026-04-12T06:41:40Z</time></trkpt><trkpt lat="45.509178377027325" lon="9.977407927579865"><ele>122.0</ele><time>2026-04-12T06:41:41Z</time></trkpt><trkpt lat="45.50929701071612" lon="9.97742355620199"><ele>122.0</ele><time>2026-04-12T06:41:42Z</time></trkpt><trkpt lat="45.509413176770586" lon="9.977438523064084"><ele>122.0</ele><time>2026-04-12T06:41:43Z</time></trkpt><trkpt lat="45.509529810919524" lon="9.977452530974093"><ele>121.99999999999999</ele><time>2026-04-12T06:41:44Z</time></trkpt><trkpt lat="45.509642796025695" lon="9.977466091745722"><ele>121.99999999999999</ele><time>2026-04-12T06:41:45Z</time></trkpt><trkpt lat="45.50974480214654" lon="9.977479637288015"><ele>122.0</ele><time>2026-04-12T06:41:46Z</time></trkpt><trkpt lat="45.50983749831047" lon="9.977492120269718"><ele>122.0</ele><time>2026-04-12T06:41:47Z</time></trkpt><trkpt lat="45.50992273202336" lon="9.977504882015667"><ele>122.6</ele><time>2026-04-12T06:41:48Z</time></trkpt><trkpt lat="45.51000004532154" lon="9.977510908317472"><ele>123.19999999999999</ele><time>2026-04-12T06:41:49Z</time></trkpt><trkpt lat="45.51006634698836" lon="9.97752235261741"><ele>123.8</ele><time>2026-04-12T06:41:50Z</time></trkpt><trkpt lat="45.51012604570961" lon="9.977559235339719"><ele>124.4</ele><time>2026-04-12T06:41:51Z</time></trkpt><trkpt lat="45.51016037280349" lon="9.977741436266678"><ele>125.0</ele><time>2026-04-12T06:41:53Z</time></trkpt><trkpt lat="45.51020476806908" lon="9.977908931836547"><ele>125.0</ele><time>2026-04-12T06:41:55Z</time></trkpt><trkpt lat="45.51022094630296" lon="9.978017349438158"><ele>125.0</ele><time>2026-04-12T06:41:56Z</time></trkpt><trkpt lat="45.51024436326125" lon="9.978136990263026"><ele>125.0</ele><time>2026-04-12T06:41:57Z</time></trkpt><trkpt lat="45.510273833441104" lon="9.978262629386816"><ele>125.0</ele><time>2026-04-12T06:41:58Z</time></trkpt><trkpt lat="45.510304842881226" lon="9.978400419779575"><ele>125.0</ele><time>2026-04-12T06:41:59Z</time></trkpt><trkpt lat="45.51033646128497" lon="9.978548451398826"><ele>125.0</ele><time>2026-04-12T06:42:00Z</time></trkpt><trkpt lat="45.51037167303623" lon="9.97870451154822"><ele>125.0</ele><time>2026-04-12T06:42:01Z</time></trkpt><trkpt lat="45.51040866729947" lon="9.978875652966286"><ele>125.0</ele><time>2026-04-12T06:42:02Z</time></trkpt><trkpt lat="45.51044196123959" lon="9.979051286242042"><ele>125.0</ele><time>2026-04-12T06:42:03Z</time></trkpt><trkpt lat="45.510475482770836" lon="9.979220547460034"><ele>125.0</ele><time>2026-04-12T06:42:04Z</time></trkpt><trkpt lat="45.51050359284595" lon="9.979371800702932"><ele>125.0</ele><time>2026-04-12T06:42:05Z</time></trkpt><trkpt lat="45.510513010918594" lon="9.979513295844134"><ele>125.0</ele><time>2026-04-12T06:42:06Z</time></trkpt><trkpt lat="45.5105082700298" lon="9.979639895846704"><ele>125.0</ele><time>2026-04-12T06:42:07Z</time></trkpt><trkpt lat="45.51047753496503" lon="9.97975732981833"><ele>125.0</ele><time>2026-04-12T06:42:08Z</time></trkpt><trkpt lat="45.51046492202492" lon="9.979900520693088"><ele>124.75</ele><time>2026-04-12T06:42:09Z</time></trkpt><trkpt lat="45.510438951764705" lon="9.980059510027074"><ele>124.5</ele><time>2026-04-12T06:42:10Z</time></trkpt><trkpt lat="45.51041095112902" lon="9.980225266170107"><ele>124.25</ele><time>2026-04-12T06:42:11Z</time></trkpt><trkpt lat="45.51038051709138" lon="9.980402869804157"><ele>124.0</ele><time>2026-04-12T06:42:12Z</time></trkpt><trkpt lat="45.51034854251058" lon="9.980582516592909"><ele>124.0</ele><time>2026-04-12T06:42:13Z</time></trkpt><trkpt lat="45.51031627007657" lon="9.980775414777177"><ele>124.0</ele><time>2026-04-12T06:42:14Z</time></trkpt><trkpt lat="45.51027723726925" lon="9.980965954246365"><ele>124.0</ele><time>2026-04-12T06:42:15Z</time></trkpt><trkpt lat="45.510230217077485" lon="9.981168242182198"><ele>124.0</ele><time>2026-04-12T06:42:16Z</time></trkpt><trkpt lat="45.510163160056166" lon="9.981353738317976"><ele>124.0</ele><time>2026-04-12T06:42:17Z</time></trkpt><trkpt lat="45.5101014055152" lon="9.981549587075174"><ele>124.0</ele><time>2026-04-12T06:42:18Z</time></trkpt><trkpt lat="45.51004577886907" lon="9.981749840586199"><ele>124.0</ele><time>2026-04-12T06:42:19Z</time></trkpt><trkpt lat="45.50997591746015" lon="9.981946100106285"><ele>124.0</ele><time>2026-04-12T06:42:20Z</time></trkpt><trkpt lat="45.509907655034034" lon="9.982145662035078"><ele>124.0</ele><time>2026-04-12T06:42:21Z</time></trkpt><trkpt lat="45.50983686522139" lon="9.982350143040907"><ele>124.0</ele><time>2026-04-12T06:42:22Z</time></trkpt><trkpt lat="45.50976704195281" lon="9.982551182533632"><ele>124.33333333333334</ele><time>2026-04-12T06:42:23Z</time></trkpt><trkpt lat="45.50969747400583" lon="9.982748902452796"><ele>124.66666666666666</ele><time>2026-04-12T06:42:24Z</time></trkpt><trkpt lat="45.50963020577822" lon="9.982949980588252"><ele>125.0</ele><time>2026-04-12T06:42:25Z</time></trkpt><trkpt lat="45.509545914080945" lon="9.98314893090466"><ele>124.66666666666666</ele><time>2026-04-12T06:42:26Z</time></trkpt><trkpt lat="45.50947593989295" lon="9.983347831031036"><ele>124.33333333333334</ele><time>2026-04-12T06:42:27Z</time></trkpt><trkpt lat="45.50940413018685" lon="9.98355392150981"><ele>124.0</ele><time>2026-04-12T06:42:28Z</time></trkpt><trkpt lat="45.509344591437696" lon="9.983776616715499"><ele>124.0</ele><time>2026-04-12T06:42:29Z</time></trkpt><trkpt lat="45.5092753262747" lon="9.983974775204075"><ele>124.0</ele><time>2026-04-12T06:42:30Z</time></trkpt><trkpt lat="45.50922320848447" lon="9.984148777701478"><ele>124.0</ele><time>2026-04-12T06:42:31Z</time></trkpt><trkpt lat="45.509186256373575" lon="9.984290337282664"><ele>124.0</ele><time>2026-04-12T06:42:32Z</time></trkpt><trkpt lat="45.509160423359354" lon="9.984403334391283"><ele>124.0</ele><time>2026-04-12T06:42:33Z</time></trkpt><trkpt lat="45.509141349511246" lon="9.984490444651561"><ele>124.0</ele><time>2026-04-12T06:42:34Z</time></trkpt><trkpt lat="45.50911449138404" lon="9.984596871881923"><ele>124.0</ele><time>2026-04-12T06:42:36Z</time></trkpt><trkpt lat="45.50930742383954" lon="9.984603353652671"><ele>124.0</ele><time>2026-04-12T06:42:38Z</time></trkpt><trkpt lat="45.50939207182536" lon="9.984571270706802"><ele>124.0</ele><time>2026-04-12T06:42:39Z</time></trkpt><trkpt lat="45.50949830447444" lon="9.984566081629495"><ele>124.0</ele><time>2026-04-12T06:42:40Z</time></trkpt><trkpt lat="45.509632117072066" lon="9.98456168208851"><ele>124.0</ele><time>2026-04-12T06:42:41Z</time></trkpt><trkpt lat="45.509782939174954" lon="9.984556486914416"><ele>124.0</ele><time>2026-04-12T06:42:42Z</time></trkpt><trkpt lat="45.50994574881379" lon="9.98454929562868"><ele>124.0</ele><time>2026-04-12T06:42:43Z</time></trkpt><trkpt lat="45.51011297030062" lon="9.984543211750657"><ele>124.0</ele><time>2026-04-12T06:42:44Z</time></trkpt><trkpt lat="45.51026304210715" lon="9.984537997309523"><ele>124.0</ele><time>2026-04-12T06:42:45Z</time></trkpt><trkpt lat="45.51039644466816" lon="9.984533478730102"><ele>124.0</ele><time>2026-04-12T06:42:46Z</time></trkpt><trkpt lat="45.51051486722326" lon="9.984532703127188"><ele>124.0</ele><time>2026-04-12T06:42:47Z</time></trkpt><trkpt lat="45.510626968186656" lon="9.984529518778263"><ele>124.0</ele><time>2026-04-12T06:42:48Z</time></trkpt><trkpt lat="45.510748043699714" lon="9.984527536545778"><ele>124.0</ele><time>2026-04-12T06:42:49Z</time></trkpt><trkpt lat="45.510873038313726" lon="9.984520998554625"><ele>124.0</ele><time>2026-04-12T06:42:50Z</time></trkpt><trkpt lat="45.510987533853445" lon="9.984516352258058"><ele>124.0</ele><time>2026-04-12T06:42:51Z</time></trkpt><trkpt lat="45.51108605493647" lon="9.984512094371466"><ele>124.0</ele><time>2026-04-12T06:42:52Z</time></trkpt><trkpt lat="45.511178588615756" lon="9.984510714082198"><ele>124.0</ele><time>2026-04-12T06:42:53Z</time></trkpt><trkpt lat="45.51127220986449" lon="9.984503835451928"><ele>124.0</ele><time>2026-04-12T06:42:54Z</time></trkpt><trkpt lat="45.511364471255355" lon="9.984497731441804"><ele>124.0</ele><time>2026-04-12T06:42:55Z</time></trkpt><trkpt lat="45.5114777369842" lon="9.984508236506024"><ele>124.0</ele><time>2026-04-12T06:42:56Z</time></trkpt><trkpt lat="45.51161577791644" lon="9.984503400559886"><ele>124.66666666666667</ele><time>2026-04-12T06:42:57Z</time></trkpt><trkpt lat="45.51176906397729" lon="9.98449800852985"><ele>125.33333333333334</ele><time>2026-04-12T06:42:58Z</time></trkpt><trkpt lat="45.511926383741816" lon="9.984484560155254"><ele>126.0</ele><time>2026-04-12T06:42:59Z</time></trkpt><trkpt lat="45.5120917747568" lon="9.98449540952228"><ele>126.0</ele><time>2026-04-12T06:43:00Z</time></trkpt><trkpt lat="45.51224538331818" lon="9.984480157708907"><ele>126.0</ele><time>2026-04-12T06:43:01Z</time></trkpt><trkpt lat="45.5123754549688" lon="9.984475161046992"><ele>126.0</ele><time>2026-04-12T06:43:02Z</time></trkpt><trkpt lat="45.5124939619336" lon="9.98447065163075"><ele>126.0</ele><time>2026-04-12T06:43:03Z</time></trkpt><trkpt lat="45.51260911180972" lon="9.984475219348393"><ele>126.0</ele><time>2026-04-12T06:43:04Z</time></trkpt><trkpt lat="45.512720352496665" lon="9.984475594982975"><ele>126.0</ele><time>2026-04-12T06:43:05Z</time></trkpt><trkpt lat="45.5128325413268" lon="9.984459232131355"><ele>126.0</ele><time>2026-04-12T06:43:06Z</time></trkpt><trkpt lat="45.51296160891945" lon="9.984449580575156"><ele>126.0</ele><time>2026-04-12T06:43:07Z</time></trkpt><trkpt lat="45.51308191335866" lon="9.984441623998663"><ele>126.0</ele><time>2026-04-12T06:43:08Z</time></trkpt><trkpt lat="45.51317721326629" lon="9.984437107919883"><ele>126.0</ele><time>2026-04-12T06:43:09Z</time></trkpt><trkpt lat="45.51325784379242" lon="9.984436041700931"><ele>126.0</ele><time>2026-04-12T06:43:10Z</time></trkpt><trkpt lat="45.513337698252506" lon="9.984439155430119"><ele>126.0</ele><time>2026-04-12T06:43:11Z</time></trkpt><trkpt lat="45.51344256373354" lon="9.984436174621306"><ele>126.0</ele><time>2026-04-12T06:43:12Z</time></trkpt><trkpt lat="45.513551843814106" lon="9.984431581036366"><ele>126.0</ele><time>2026-04-12T06:43:13Z</time></trkpt><trkpt lat="45.51367260568127" lon="9.98442298893982"><ele>126.0</ele><time>2026-04-12T06:43:14Z</time></trkpt><trkpt lat="45.513797959555646" lon="9.984412681027734"><ele>126.0</ele><time>2026-04-12T06:43:15Z</time></trkpt><trkpt lat="45.51390713235551" lon="9.984402459013742"><ele>126.0</ele><time>2026-04-12T06:43:16Z</time></trkpt><trkpt lat="45.51398820665587" lon="9.984398939379393"><ele>126.0</ele><time>2026-04-12T06:43:17Z</time></trkpt><trkpt lat="45.51411003269516" lon="9.984394521218121"><ele>125.8</ele><time>2026-04-12T06:43:19Z</time></trkpt><trkpt lat="45.51418793425643" lon="9.984388301030725"><ele>125.6</ele><time>2026-04-12T06:43:20Z</time></trkpt><trkpt lat="45.51428324386782" lon="9.984380711293092"><ele>125.4</ele><time>2026-04-12T06:43:21Z</time></trkpt><trkpt lat="45.514386450462744" lon="9.98437091342662"><ele>125.2</ele><time>2026-04-12T06:43:22Z</time></trkpt><trkpt lat="45.51450261604523" lon="9.984364725291154"><ele>125.0</ele><time>2026-04-12T06:43:23Z</time></trkpt><trkpt lat="45.51462870624749" lon="9.98435907814606"><ele>125.5</ele><time>2026-04-12T06:43:24Z</time></trkpt><trkpt lat="45.514766972754394" lon="9.984354810606995"><ele>126.0</ele><time>2026-04-12T06:43:25Z</time></trkpt><trkpt lat="45.51491174491806" lon="9.984351496613147"><ele>126.5</ele><time>2026-04-12T06:43:26Z</time></trkpt><trkpt lat="45.51506533632015" lon="9.984345458579597"><ele>127.0</ele><time>2026-04-12T06:43:27Z</time></trkpt><trkpt lat="45.5152246406934" lon="9.984339657805082"><ele>127.0</ele><time>2026-04-12T06:43:28Z</time></trkpt><trkpt lat="45.5153921990446" lon="9.984337175360222"><ele>127.0</ele><time>2026-04-12T06:43:29Z</time></trkpt><trkpt lat="45.51556682610524" lon="9.984337993570593"><ele>127.0</ele><time>2026-04-12T06:43:30Z</time></trkpt><trkpt lat="45.51574283079348" lon="9.984341058617781"><ele>127.33333333333334</ele><time>2026-04-12T06:43:31Z</time></trkpt><trkpt lat="45.51592260244387" lon="9.984365905857956"><ele>127.66666666666666</ele><time>2026-04-12T06:43:32Z</time></trkpt><trkpt lat="45.516105308615515" lon="9.98439075684896"><ele>128.0</ele><time>2026-04-12T06:43:33Z</time></trkpt><trkpt lat="45.51629130696957" lon="9.984409684300227"><ele>128.0</ele><time>2026-04-12T06:43:34Z</time></trkpt><trkpt lat="45.516474678133996" lon="9.984428749765113"><ele>128.0</ele><time>2026-04-12T06:43:35Z</time></trkpt><trkpt lat="45.516643222758034" lon="9.984445435936737"><ele>128.0</ele><time>2026-04-12T06:43:36Z</time></trkpt><trkpt lat="45.516793636631505" lon="9.98446044642274"><ele>128.0</ele><time>2026-04-12T06:43:37Z</time></trkpt><trkpt lat="45.51692843550794" lon="9.984470430256456"><ele>128.0</ele><time>2026-04-12T06:43:38Z</time></trkpt><trkpt lat="45.517051262284596" lon="9.98447670907752"><ele>128.0</ele><time>2026-04-12T06:43:39Z</time></trkpt><trkpt lat="45.51716686499778" lon="9.984485074949054"><ele>128.0</ele><time>2026-04-12T06:43:40Z</time></trkpt><trkpt lat="45.5172926866012" lon="9.984500196026277"><ele>128.0</ele><time>2026-04-12T06:43:41Z</time></trkpt><trkpt lat="45.51743244894669" lon="9.984514947851178"><ele>128.0</ele><time>2026-04-12T06:43:42Z</time></trkpt><trkpt lat="45.51757908760273" lon="9.984529123364961"><ele>128.0</ele><time>2026-04-12T06:43:43Z</time></trkpt><trkpt lat="45.51773676557269" lon="9.984539654481825"><ele>128.0</ele><time>2026-04-12T06:43:44Z</time></trkpt><trkpt lat="45.51789851764209" lon="9.984550032631981"><ele>128.66666666666666</ele><time>2026-04-12T06:43:45Z</time></trkpt><trkpt lat="45.518063386540675" lon="9.98457121630971"><ele>129.33333333333334</ele><time>2026-04-12T06:43:46Z</time></trkpt><trkpt lat="45.51822909568814" lon="9.98459764696199"><ele>130.0</ele><time>2026-04-12T06:43:47Z</time></trkpt><trkpt lat="45.51838452658099" lon="9.984616320736846"><ele>130.0</ele><time>2026-04-12T06:43:48Z</time></trkpt><trkpt lat="45.518524506652774" lon="9.984632870733002"><ele>130.0</ele><time>2026-04-12T06:43:49Z</time></trkpt><trkpt lat="45.51864629732087" lon="9.984646973407962"><ele>130.0</ele><time>2026-04-12T06:43:50Z</time></trkpt><trkpt lat="45.51874949022142" lon="9.98467263261105"><ele>130.0</ele><time>2026-04-12T06:43:51Z</time></trkpt><trkpt lat="45.518840742754534" lon="9.984722431768745"><ele>130.0</ele><time>2026-04-12T06:43:52Z</time></trkpt><trkpt lat="45.51891088535743" lon="9.984726987481611"><ele>130.0</ele><time>2026-04-12T06:43:53Z</time></trkpt><trkpt lat="45.518981975544406" lon="9.984742668665612"><ele>130.0</ele><time>2026-04-12T06:43:54Z</time></trkpt><trkpt lat="45.5190466729737" lon="9.984767578930255"><ele>130.0</ele><time>2026-04-12T06:43:55Z</time></trkpt><trkpt lat="45.51913795653751" lon="9.98474230039734"><ele>130.0</ele><time>2026-04-12T06:43:56Z</time></trkpt><trkpt lat="45.519246072675465" lon="9.984775394861988"><ele>130.0</ele><time>2026-04-12T06:43:57Z</time></trkpt><trkpt lat="45.51936467768899" lon="9.984829763333783"><ele>130.0</ele><time>2026-04-12T06:43:58Z</time></trkpt><trkpt lat="45.51947628895566" lon="9.984878015864322"><ele>130.0</ele><time>2026-04-12T06:43:59Z</time></trkpt><trkpt lat="45.5195734481857" lon="9.984884230290758"><ele>130.0</ele><time>2026-04-12T06:44:00Z</time></trkpt><trkpt lat="45.51965985454244" lon="9.984843384615564"><ele>130.0</ele><time>2026-04-12T06:44:01Z</time></trkpt><trkpt lat="45.519737706706884" lon="9.98479643498831"><ele>130.0</ele><time>2026-04-12T06:44:02Z</time></trkpt><trkpt lat="45.51980483669891" lon="9.984728498767506"><ele>130.2</ele><time>2026-04-12T06:44:03Z</time></trkpt><trkpt lat="45.51986485568828" lon="9.984661528895048"><ele>130.4</ele><time>2026-04-12T06:44:04Z</time></trkpt><trkpt lat="45.51992446396051" lon="9.984596848433627"><ele>130.6</ele><time>2026-04-12T06:44:05Z</time></trkpt><trkpt lat="45.520044236326115" lon="9.984630300602511"><ele>130.8</ele><time>2026-04-12T06:44:06Z</time></trkpt><trkpt lat="45.52014840571781" lon="9.984655835396433"><ele>131.0</ele><time>2026-04-12T06:44:07Z</time></trkpt><trkpt lat="45.520250959564535" lon="9.984687250484434"><ele>131.0</ele><time>2026-04-12T06:44:08Z</time></trkpt><trkpt lat="45.52035346138042" lon="9.984716254596766"><ele>131.0</ele><time>2026-04-12T06:44:09Z</time></trkpt><trkpt lat="45.52047107689638" lon="9.984750722077496"><ele>131.0</ele><time>2026-04-12T06:44:10Z</time></trkpt><trkpt lat="45.52061167802971" lon="9.984783254278312"><ele>131.0</ele><time>2026-04-12T06:44:11Z</time></trkpt><trkpt lat="45.5207605459794" lon="9.984816555363041"><ele>130.66666666666666</ele><time>2026-04-12T06:44:12Z</time></trkpt><trkpt lat="45.52092070375702" lon="9.98485096413021"><ele>130.33333333333334</ele><time>2026-04-12T06:44:13Z</time></trkpt><trkpt lat="45.521086522348504" lon="9.984883163379306"><ele>130.0</ele><time>2026-04-12T06:44:14Z</time></trkpt><trkpt lat="45.52125837624881" lon="9.98491247939738"><ele>130.0</ele><time>2026-04-12T06:44:15Z</time></trkpt><trkpt lat="45.521423910436525" lon="9.984942154049202"><ele>130.0</ele><time>2026-04-12T06:44:16Z</time></trkpt><trkpt lat="45.5215681602501" lon="9.984965628713132"><ele>130.0</ele><time>2026-04-12T06:44:17Z</time></trkpt><trkpt lat="45.52169004744357" lon="9.984983065856909"><ele>130.0</ele><time>2026-04-12T06:44:18Z</time></trkpt><trkpt lat="45.52179110895891" lon="9.984999419331487"><ele>130.0</ele><time>2026-04-12T06:44:19Z</time></trkpt><trkpt lat="45.521877415062164" lon="9.985023459090135"><ele>130.0</ele><time>2026-04-12T06:44:20Z</time></trkpt><trkpt lat="45.521949351889404" lon="9.985084262856105"><ele>130.0</ele><time>2026-04-12T06:44:21Z</time></trkpt><trkpt lat="45.52200238806149" lon="9.985192686306801"><ele>130.0</ele><time>2026-04-12T06:44:22Z</time></trkpt><trkpt lat="45.522067948006885" lon="9.985279906322518"><ele>130.0</ele><time>2026-04-12T06:44:23Z</time></trkpt><trkpt lat="45.522158049703144" lon="9.985316627730716"><ele>130.0</ele><time>2026-04-12T06:44:24Z</time></trkpt><trkpt lat="45.52226852276356" lon="9.985292474617987"><ele>130.75</ele><time>2026-04-12T06:44:25Z</time></trkpt><trkpt lat="45.52238512394594" lon="9.985209278223158"><ele>131.5</ele><time>2026-04-12T06:44:26Z</time></trkpt><trkpt lat="45.522510535460924" lon="9.985148281734213"><ele>132.25</ele><time>2026-04-12T06:44:27Z</time></trkpt><trkpt lat="45.522640223131646" lon="9.985138468396727"><ele>133.0</ele><time>2026-04-12T06:44:28Z</time></trkpt><trkpt lat="45.52275641517558" lon="9.98514964607173"><ele>133.0</ele><time>2026-04-12T06:44:29Z</time></trkpt><trkpt lat="45.52285402722255" lon="9.985171226287228"><ele>133.0</ele><time>2026-04-12T06:44:30Z</time></trkpt><trkpt lat="45.52293883666746" lon="9.98519872302166"><ele>133.0</ele><time>2026-04-12T06:44:31Z</time></trkpt><trkpt lat="45.52301189137324" lon="9.98522031751226"><ele>133.0</ele><time>2026-04-12T06:44:32Z</time></trkpt><trkpt lat="45.52310244176404" lon="9.985262262887579"><ele>133.0</ele><time>2026-04-12T06:44:33Z</time></trkpt><trkpt lat="45.52316507810749" lon="9.985329487819048"><ele>133.0</ele><time>2026-04-12T06:44:34Z</time></trkpt><trkpt lat="45.52321676962806" lon="9.985443838077975"><ele>133.20000000000002</ele><time>2026-04-12T06:44:35Z</time></trkpt><trkpt lat="45.52325235757524" lon="9.985588761537077"><ele>133.4</ele><time>2026-04-12T06:44:36Z</time></trkpt><trkpt lat="45.52328823407257" lon="9.985751147281029"><ele>133.60000000000002</ele><time>2026-04-12T06:44:37Z</time></trkpt><trkpt lat="45.523372167927" lon="9.985862279551093"><ele>133.8</ele><time>2026-04-12T06:44:38Z</time></trkpt><trkpt lat="45.523463991666695" lon="9.985940152239307"><ele>134.0</ele><time>2026-04-12T06:44:39Z</time></trkpt><trkpt lat="45.52346274318999" lon="9.986186637694459"><ele>133.75</ele><time>2026-04-12T06:44:40Z</time></trkpt><trkpt lat="45.5234675098502" lon="9.986381881549908"><ele>133.5</ele><time>2026-04-12T06:44:41Z</time></trkpt><trkpt lat="45.52345846796562" lon="9.986575346919915"><ele>133.25</ele><time>2026-04-12T06:44:42Z</time></trkpt><trkpt lat="45.52345056219244" lon="9.986762520088403"><ele>133.0</ele><time>2026-04-12T06:44:43Z</time></trkpt><trkpt lat="45.52344967350096" lon="9.9869543017437"><ele>133.0</ele><time>2026-04-12T06:44:44Z</time></trkpt><trkpt lat="45.52344889675247" lon="9.987153337345017"><ele>133.0</ele><time>2026-04-12T06:44:45Z</time></trkpt><trkpt lat="45.523447127738166" lon="9.987354362071425"><ele>133.0</ele><time>2026-04-12T06:44:46Z</time></trkpt><trkpt lat="45.52344863514295" lon="9.987561810338132"><ele>133.0</ele><time>2026-04-12T06:44:47Z</time></trkpt><trkpt lat="45.52344741495292" lon="9.987780322579003"><ele>133.0</ele><time>2026-04-12T06:44:48Z</time></trkpt><trkpt lat="45.523446023735815" lon="9.988013065748829"><ele>133.0</ele><time>2026-04-12T06:44:49Z</time></trkpt><trkpt lat="45.52344969706523" lon="9.98827761706161"><ele>133.0</ele><time>2026-04-12T06:44:50Z</time></trkpt><trkpt lat="45.52345097406703" lon="9.988552688230492"><ele>133.0</ele><time>2026-04-12T06:44:51Z</time></trkpt><trkpt lat="45.523454672813976" lon="9.988845141821143"><ele>133.0</ele><time>2026-04-12T06:44:52Z</time></trkpt><trkpt lat="45.52346459949416" lon="9.98915910386524"><ele>133.0</ele><time>2026-04-12T06:44:53Z</time></trkpt><trkpt lat="45.523473606438166" lon="9.98948327392777"><ele>133.0</ele><time>2026-04-12T06:44:54Z</time></trkpt><trkpt lat="45.5234846053076" lon="9.989825448809846"><ele>133.0</ele><time>2026-04-12T06:44:55Z</time></trkpt><trkpt lat="45.5234926027451" lon="9.990174840270042"><ele>133.0</ele><time>2026-04-12T06:44:56Z</time></trkpt><trkpt lat="45.52352629501237" lon="9.990529643942912"><ele>133.0</ele><time>2026-04-12T06:44:57Z</time></trkpt><trkpt lat="45.52350670211174" lon="9.990908722171694"><ele>133.0</ele><time>2026-04-12T06:44:58Z</time></trkpt><trkpt lat="45.523505097771476" lon="9.99128379975739"><ele>133.0</ele><time>2026-04-12T06:44:59Z</time></trkpt><trkpt lat="45.523501769925375" lon="9.991663448084235"><ele>133.0</ele><time>2026-04-12T06:45:00Z</time></trkpt><trkpt lat="45.52350004634299" lon="9.992048887989998"><ele>133.0</ele><time>2026-04-12T06:45:01Z</time></trkpt><trkpt lat="45.52350206189949" lon="9.99244093081073"><ele>133.5</ele><time>2026-04-12T06:45:02Z</time></trkpt><trkpt lat="45.52350449517376" lon="9.992834459605525"><ele>134.0</ele><time>2026-04-12T06:45:03Z</time></trkpt><trkpt lat="45.523506335588245" lon="9.993231292469265"><ele>134.0</ele><time>2026-04-12T06:45:04Z</time></trkpt><trkpt lat="45.523511090145135" lon="9.993625196595456"><ele>134.0</ele><time>2026-04-12T06:45:05Z</time></trkpt><trkpt lat="45.52351270624682" lon="9.994022628397857"><ele>133.5</ele><time>2026-04-12T06:45:06Z</time></trkpt><trkpt lat="45.52351563378238" lon="9.994420558353289"><ele>133.0</ele><time>2026-04-12T06:45:07Z</time></trkpt><trkpt lat="45.52351106015951" lon="9.994821760876377"><ele>133.0</ele><time>2026-04-12T06:45:08Z</time></trkpt><trkpt lat="45.52350917209573" lon="9.995226424142862"><ele>133.0</ele><time>2026-04-12T06:45:09Z</time></trkpt><trkpt lat="45.52350663889175" lon="9.99563653269263"><ele>133.0</ele><time>2026-04-12T06:45:10Z</time></trkpt><trkpt lat="45.52350637252199" lon="9.9960426403007"><ele>133.0</ele><time>2026-04-12T06:45:11Z</time></trkpt><trkpt lat="45.523505372327385" lon="9.996453259573132"><ele>134.0</ele><time>2026-04-12T06:45:12Z</time></trkpt><trkpt lat="45.52350206224533" lon="9.996862677455242"><ele>135.0</ele><time>2026-04-12T06:45:13Z</time></trkpt><trkpt lat="45.523498046458" lon="9.997273844688848"><ele>134.0</ele><time>2026-04-12T06:45:14Z</time></trkpt><trkpt lat="45.52349705107157" lon="9.997687471563355"><ele>133.0</ele><time>2026-04-12T06:45:15Z</time></trkpt><trkpt lat="45.52349790161964" lon="9.998099528356095"><ele>133.5</ele><time>2026-04-12T06:45:16Z</time></trkpt><trkpt lat="45.52349751890132" lon="9.998515859490544"><ele>134.0</ele><time>2026-04-12T06:45:17Z</time></trkpt><trkpt lat="45.52349276701679" lon="9.998928287383583"><ele>134.0</ele><time>2026-04-12T06:45:18Z</time></trkpt><trkpt lat="45.52349084639897" lon="9.999342990010716"><ele>134.0</ele><time>2026-04-12T06:45:19Z</time></trkpt><trkpt lat="45.523489932465566" lon="9.999757949839715"><ele>134.0</ele><time>2026-04-12T06:45:20Z</time></trkpt><trkpt lat="45.523489530438155" lon="10.000175495971707"><ele>134.0</ele><time>2026-04-12T06:45:21Z</time></trkpt><trkpt lat="45.52348787130246" lon="10.000594325291706"><ele>134.0</ele><time>2026-04-12T06:45:22Z</time></trkpt><trkpt lat="45.52348670097576" lon="10.001008821806996"><ele>134.0</ele><time>2026-04-12T06:45:23Z</time></trkpt><trkpt lat="45.52348581187118" lon="10.001426193026926"><ele>134.5</ele><time>2026-04-12T06:45:24Z</time></trkpt><trkpt lat="45.52348463211238" lon="10.001843493709819"><ele>135.0</ele><time>2026-04-12T06:45:25Z</time></trkpt><trkpt lat="45.52348334810519" lon="10.002261092363987"><ele>134.0</ele><time>2026-04-12T06:45:26Z</time></trkpt><trkpt lat="45.52348042792083" lon="10.002679678939343"><ele>133.0</ele><time>2026-04-12T06:45:27Z</time></trkpt><trkpt lat="45.523477705315734" lon="10.003097737635246"><ele>133.0</ele><time>2026-04-12T06:45:28Z</time></trkpt><trkpt lat="45.52347542874329" lon="10.003514179531706"><ele>133.0</ele><time>2026-04-12T06:45:29Z</time></trkpt><trkpt lat="45.52347198983553" lon="10.00393335405261"><ele>134.0</ele><time>2026-04-12T06:45:30Z</time></trkpt><trkpt lat="45.52346988428955" lon="10.004346428717701"><ele>135.0</ele><time>2026-04-12T06:45:31Z</time></trkpt><trkpt lat="45.52346679082033" lon="10.004764472298852"><ele>135.0</ele><time>2026-04-12T06:45:32Z</time></trkpt><trkpt lat="45.523464019812984" lon="10.005182112748752"><ele>135.0</ele><time>2026-04-12T06:45:33Z</time></trkpt><trkpt lat="45.523462653064776" lon="10.005598519668276"><ele>135.0</ele><time>2026-04-12T06:45:34Z</time></trkpt><trkpt lat="45.52346051943291" lon="10.00601618886349"><ele>135.0</ele><time>2026-04-12T06:45:35Z</time></trkpt><trkpt lat="45.52346037512995" lon="10.006430990614856"><ele>133.5</ele><time>2026-04-12T06:45:36Z</time></trkpt><trkpt lat="45.52345846936522" lon="10.006846564563473"><ele>132.0</ele><time>2026-04-12T06:45:37Z</time></trkpt><trkpt lat="45.52345644842449" lon="10.007262998977398"><ele>131.5</ele><time>2026-04-12T06:45:38Z</time></trkpt><trkpt lat="45.523452743199364" lon="10.007675826841554"><ele>131.0</ele><time>2026-04-12T06:45:39Z</time></trkpt><trkpt lat="45.52344718729316" lon="10.008089967149468"><ele>131.5</ele><time>2026-04-12T06:45:40Z</time></trkpt><trkpt lat="45.523444606080744" lon="10.008502581330934"><ele>132.0</ele><time>2026-04-12T06:45:41Z</time></trkpt><trkpt lat="45.523443563080754" lon="10.008914277168063"><ele>133.0</ele><time>2026-04-12T06:45:42Z</time></trkpt><trkpt lat="45.523446236147976" lon="10.009326176047038"><ele>134.0</ele><time>2026-04-12T06:45:43Z</time></trkpt><trkpt lat="45.52344740510043" lon="10.009738385894002"><ele>135.0</ele><time>2026-04-12T06:45:44Z</time></trkpt><trkpt lat="45.52344651043085" lon="10.010148836872867"><ele>136.0</ele><time>2026-04-12T06:45:45Z</time></trkpt><trkpt lat="45.523445026808304" lon="10.010560532062383"><ele>135.5</ele><time>2026-04-12T06:45:46Z</time></trkpt><trkpt lat="45.52344186539921" lon="10.010973682228377"><ele>135.0</ele><time>2026-04-12T06:45:47Z</time></trkpt><trkpt lat="45.523438991019454" lon="10.011388474152255"><ele>134.5</ele><time>2026-04-12T06:45:48Z</time></trkpt><trkpt lat="45.52343760544673" lon="10.011804926703075"><ele>134.0</ele><time>2026-04-12T06:45:49Z</time></trkpt><trkpt lat="45.52343585920735" lon="10.012223373714226"><ele>134.5</ele><time>2026-04-12T06:45:50Z</time></trkpt><trkpt lat="45.52343356450429" lon="10.012644818376948"><ele>135.0</ele><time>2026-04-12T06:45:51Z</time></trkpt><trkpt lat="45.52343086110262" lon="10.013067580260236"><ele>134.5</ele><time>2026-04-12T06:45:52Z</time></trkpt><trkpt lat="45.52342600189433" lon="10.013489709233626"><ele>134.0</ele><time>2026-04-12T06:45:53Z</time></trkpt><trkpt lat="45.523424018523116" lon="10.013908306313429"><ele>134.0</ele><time>2026-04-12T06:45:54Z</time></trkpt><trkpt lat="45.52342315385777" lon="10.014330059872723"><ele>134.0</ele><time>2026-04-12T06:45:55Z</time></trkpt><trkpt lat="45.52342197453073" lon="10.014746235365328"><ele>134.0</ele><time>2026-04-12T06:45:56Z</time></trkpt><trkpt lat="45.523422701028885" lon="10.015164311947004"><ele>134.0</ele><time>2026-04-12T06:45:57Z</time></trkpt><trkpt lat="45.52342477039775" lon="10.015589043834325"><ele>134.0</ele><time>2026-04-12T06:45:58Z</time></trkpt><trkpt lat="45.52342877395638" lon="10.016007419298415"><ele>134.0</ele><time>2026-04-12T06:45:59Z</time></trkpt><trkpt lat="45.523439182061004" lon="10.016428179617998"><ele>134.5</ele><time>2026-04-12T06:46:00Z</time></trkpt><trkpt lat="45.52344789286173" lon="10.016846193778411"><ele>135.0</ele><time>2026-04-12T06:46:01Z</time></trkpt><trkpt lat="45.52345470831646" lon="10.017260716301555"><ele>134.0</ele><time>2026-04-12T06:46:02Z</time></trkpt><trkpt lat="45.52346477691534" lon="10.017678999453945"><ele>133.0</ele><time>2026-04-12T06:46:03Z</time></trkpt><trkpt lat="45.52347109366074" lon="10.018092156300318"><ele>132.5</ele><time>2026-04-12T06:46:04Z</time></trkpt><trkpt lat="45.52347965334746" lon="10.018502031595215"><ele>132.0</ele><time>2026-04-12T06:46:05Z</time></trkpt><trkpt lat="45.52349102951794" lon="10.018920833558907"><ele>132.5</ele><time>2026-04-12T06:46:06Z</time></trkpt><trkpt lat="45.52350727326767" lon="10.019335920538794"><ele>133.0</ele><time>2026-04-12T06:46:07Z</time></trkpt><trkpt lat="45.5235258264481" lon="10.019747824034742"><ele>133.0</ele><time>2026-04-12T06:46:08Z</time></trkpt><trkpt lat="45.52354768022881" lon="10.020163751500746"><ele>133.0</ele><time>2026-04-12T06:46:09Z</time></trkpt><trkpt lat="45.52357260200477" lon="10.020586340816727"><ele>133.5</ele><time>2026-04-12T06:46:10Z</time></trkpt><trkpt lat="45.523600978660625" lon="10.021011682234947"><ele>134.0</ele><time>2026-04-12T06:46:11Z</time></trkpt><trkpt lat="45.52363465763076" lon="10.021437131654173"><ele>133.5</ele><time>2026-04-12T06:46:12Z</time></trkpt><trkpt lat="45.523663952030674" lon="10.021863873376962"><ele>133.0</ele><time>2026-04-12T06:46:13Z</time></trkpt><trkpt lat="45.52370174630555" lon="10.02228947133645"><ele>133.0</ele><time>2026-04-12T06:46:14Z</time></trkpt><trkpt lat="45.52374343548171" lon="10.022716333070427"><ele>133.0</ele><time>2026-04-12T06:46:15Z</time></trkpt><trkpt lat="45.52378769247516" lon="10.023142863825285"><ele>133.0</ele><time>2026-04-12T06:46:16Z</time></trkpt><trkpt lat="45.52383741986674" lon="10.023570504375494"><ele>133.0</ele><time>2026-04-12T06:46:17Z</time></trkpt><trkpt lat="45.5238864641155" lon="10.023995442529783"><ele>134.0</ele><time>2026-04-12T06:46:18Z</time></trkpt><trkpt lat="45.523939615233836" lon="10.024420870055627"><ele>135.0</ele><time>2026-04-12T06:46:19Z</time></trkpt><trkpt lat="45.52399237923691" lon="10.024840878086128"><ele>134.5</ele><time>2026-04-12T06:46:20Z</time></trkpt><trkpt lat="45.52405382127871" lon="10.025262075635885"><ele>134.0</ele><time>2026-04-12T06:46:21Z</time></trkpt><trkpt lat="45.52411732006664" lon="10.02568116792267"><ele>133.5</ele><time>2026-04-12T06:46:22Z</time></trkpt><trkpt lat="45.5241818846573" lon="10.026091340421308"><ele>133.0</ele><time>2026-04-12T06:46:23Z</time></trkpt><trkpt lat="45.52425003068679" lon="10.02650445656567"><ele>133.5</ele><time>2026-04-12T06:46:24Z</time></trkpt><trkpt lat="45.52432315367176" lon="10.026912290235172"><ele>134.0</ele><time>2026-04-12T06:46:25Z</time></trkpt><trkpt lat="45.524402420103605" lon="10.027319661606263"><ele>134.0</ele><time>2026-04-12T06:46:26Z</time></trkpt><trkpt lat="45.524484965601154" lon="10.027726648224748"><ele>134.0</ele><time>2026-04-12T06:46:27Z</time></trkpt><trkpt lat="45.5245673786524" lon="10.028134695815844"><ele>134.5</ele><time>2026-04-12T06:46:28Z</time></trkpt><trkpt lat="45.5246491882149" lon="10.028544813477588"><ele>135.0</ele><time>2026-04-12T06:46:29Z</time></trkpt><trkpt lat="45.524738383090366" lon="10.028949596417895"><ele>134.5</ele><time>2026-04-12T06:46:30Z</time></trkpt><trkpt lat="45.52483113785312" lon="10.02935806975945"><ele>134.0</ele><time>2026-04-12T06:46:31Z</time></trkpt><trkpt lat="45.52492781755014" lon="10.029766473601947"><ele>133.5</ele><time>2026-04-12T06:46:32Z</time></trkpt><trkpt lat="45.525027003946335" lon="10.03017443340709"><ele>133.0</ele><time>2026-04-12T06:46:33Z</time></trkpt><trkpt lat="45.525126135861534" lon="10.03058526379217"><ele>133.0</ele><time>2026-04-12T06:46:34Z</time></trkpt><trkpt lat="45.525233031148666" lon="10.030992578661243"><ele>133.0</ele><time>2026-04-12T06:46:35Z</time></trkpt><trkpt lat="45.525338895645696" lon="10.031404148997595"><ele>133.0</ele><time>2026-04-12T06:46:36Z</time></trkpt><trkpt lat="45.52544573027376" lon="10.031812250728406"><ele>133.0</ele><time>2026-04-12T06:46:37Z</time></trkpt><trkpt lat="45.52555293843834" lon="10.032229279834642"><ele>133.5</ele><time>2026-04-12T06:46:38Z</time></trkpt><trkpt lat="45.52566122453348" lon="10.032641264371012"><ele>134.0</ele><time>2026-04-12T06:46:39Z</time></trkpt><trkpt lat="45.52577311291622" lon="10.033055578219969"><ele>134.5</ele><time>2026-04-12T06:46:40Z</time></trkpt><trkpt lat="45.52588039792968" lon="10.033472332485522"><ele>135.0</ele><time>2026-04-12T06:46:41Z</time></trkpt><trkpt lat="45.525988144676894" lon="10.033888507260679"><ele>134.5</ele><time>2026-04-12T06:46:42Z</time></trkpt><trkpt lat="45.526097914294155" lon="10.034303482296204"><ele>134.0</ele><time>2026-04-12T06:46:43Z</time></trkpt><trkpt lat="45.52620357203831" lon="10.034714170716924"><ele>134.5</ele><time>2026-04-12T06:46:44Z</time></trkpt><trkpt lat="45.52631287597351" lon="10.03513094056926"><ele>135.0</ele><time>2026-04-12T06:46:45Z</time></trkpt><trkpt lat="45.526421777883726" lon="10.03554238022447"><ele>135.5</ele><time>2026-04-12T06:46:46Z</time></trkpt><trkpt lat="45.5265323296194" lon="10.035954682901615"><ele>136.0</ele><time>2026-04-12T06:46:47Z</time></trkpt><trkpt lat="45.526646621735864" lon="10.03636723796894"><ele>136.5</ele><time>2026-04-12T06:46:48Z</time></trkpt><trkpt lat="45.52675863194799" lon="10.036775887919635"><ele>137.0</ele><time>2026-04-12T06:46:49Z</time></trkpt><trkpt lat="45.52687192260383" lon="10.03718467347552"><ele>136.5</ele><time>2026-04-12T06:46:50Z</time></trkpt><trkpt lat="45.52698476512188" lon="10.0375951119669"><ele>136.0</ele><time>2026-04-12T06:46:51Z</time></trkpt><trkpt lat="45.52709464396036" lon="10.038009533438943"><ele>136.0</ele><time>2026-04-12T06:46:52Z</time></trkpt><trkpt lat="45.52720112853309" lon="10.038420085740151"><ele>136.0</ele><time>2026-04-12T06:46:53Z</time></trkpt><trkpt lat="45.5273093217049" lon="10.038832168897926"><ele>136.0</ele><time>2026-04-12T06:46:54Z</time></trkpt><trkpt lat="45.52741688687415" lon="10.039244908653082"><ele>136.0</ele><time>2026-04-12T06:46:55Z</time></trkpt><trkpt lat="45.52752280462871" lon="10.039653224521599"><ele>136.0</ele><time>2026-04-12T06:46:56Z</time></trkpt><trkpt lat="45.527629931795126" lon="10.040063012551366"><ele>136.0</ele><time>2026-04-12T06:46:57Z</time></trkpt><trkpt lat="45.52773609818852" lon="10.04047199680244"><ele>136.0</ele><time>2026-04-12T06:46:58Z</time></trkpt><trkpt lat="45.52784236702979" lon="10.040879313003616"><ele>136.0</ele><time>2026-04-12T06:46:59Z</time></trkpt><trkpt lat="45.52794984190451" lon="10.0412844095908"><ele>136.0</ele><time>2026-04-12T06:47:00Z</time></trkpt><trkpt lat="45.528056963595375" lon="10.04169125193903"><ele>136.0</ele><time>2026-04-12T06:47:01Z</time></trkpt><trkpt lat="45.52816269096581" lon="10.042096791818791"><ele>135.5</ele><time>2026-04-12T06:47:02Z</time></trkpt><trkpt lat="45.5282686647463" lon="10.042502010550262"><ele>135.0</ele><time>2026-04-12T06:47:03Z</time></trkpt><trkpt lat="45.52837342192042" lon="10.042908668177962"><ele>135.0</ele><time>2026-04-12T06:47:04Z</time></trkpt><trkpt lat="45.52847918261722" lon="10.043315583445782"><ele>135.0</ele><time>2026-04-12T06:47:05Z</time></trkpt><trkpt lat="45.52858593600119" lon="10.043723913114196"><ele>135.0</ele><time>2026-04-12T06:47:06Z</time></trkpt><trkpt lat="45.52869315759419" lon="10.044131979727405"><ele>135.0</ele><time>2026-04-12T06:47:07Z</time></trkpt><trkpt lat="45.528800568166" lon="10.044537683518055"><ele>135.5</ele><time>2026-04-12T06:47:08Z</time></trkpt><trkpt lat="45.52890833218252" lon="10.044948489697685"><ele>136.0</ele><time>2026-04-12T06:47:09Z</time></trkpt><trkpt lat="45.5290140999859" lon="10.045349028509737"><ele>136.0</ele><time>2026-04-12T06:47:10Z</time></trkpt><trkpt lat="45.529123490703306" lon="10.04575831844622"><ele>136.0</ele><time>2026-04-12T06:47:11Z</time></trkpt><trkpt lat="45.52923104928102" lon="10.046162888804394"><ele>136.0</ele><time>2026-04-12T06:47:12Z</time></trkpt><trkpt lat="45.529339667303084" lon="10.046568867630114"><ele>136.0</ele><time>2026-04-12T06:47:13Z</time></trkpt><trkpt lat="45.52944752088433" lon="10.046974885310224"><ele>136.0</ele><time>2026-04-12T06:47:14Z</time></trkpt><trkpt lat="45.52955206909683" lon="10.047379940573112"><ele>136.0</ele><time>2026-04-12T06:47:15Z</time></trkpt><trkpt lat="45.529657912143286" lon="10.047789939432132"><ele>136.0</ele><time>2026-04-12T06:47:16Z</time></trkpt><trkpt lat="45.52976588445903" lon="10.048200520621851"><ele>136.0</ele><time>2026-04-12T06:47:17Z</time></trkpt><trkpt lat="45.529873965847386" lon="10.048609944648927"><ele>136.0</ele><time>2026-04-12T06:47:18Z</time></trkpt><trkpt lat="45.52998218361392" lon="10.049021841445363"><ele>136.0</ele><time>2026-04-12T06:47:19Z</time></trkpt><trkpt lat="45.53009065720856" lon="10.049437398574385"><ele>136.0</ele><time>2026-04-12T06:47:20Z</time></trkpt><trkpt lat="45.53019926858184" lon="10.049855553691666"><ele>136.0</ele><time>2026-04-12T06:47:21Z</time></trkpt><trkpt lat="45.530308336590004" lon="10.05027610502802"><ele>136.5</ele><time>2026-04-12T06:47:22Z</time></trkpt><trkpt lat="45.53041881365259" lon="10.050696430465333"><ele>137.0</ele><time>2026-04-12T06:47:23Z</time></trkpt><trkpt lat="45.5305309007305" lon="10.051120565785913"><ele>137.0</ele><time>2026-04-12T06:47:24Z</time></trkpt><trkpt lat="45.530642089663786" lon="10.05154408141931"><ele>137.0</ele><time>2026-04-12T06:47:25Z</time></trkpt><trkpt lat="45.53075664185561" lon="10.051972397681215"><ele>137.0</ele><time>2026-04-12T06:47:26Z</time></trkpt><trkpt lat="45.53086813309783" lon="10.052395207315726"><ele>137.0</ele><time>2026-04-12T06:47:27Z</time></trkpt><trkpt lat="45.530985754537596" lon="10.052824418185068"><ele>137.0</ele><time>2026-04-12T06:47:28Z</time></trkpt><trkpt lat="45.531099815544806" lon="10.053247138529665"><ele>137.0</ele><time>2026-04-12T06:47:29Z</time></trkpt><trkpt lat="45.531216447874804" lon="10.053667241834463"><ele>137.0</ele><time>2026-04-12T06:47:30Z</time></trkpt><trkpt lat="45.53133509017962" lon="10.054091813860117"><ele>137.0</ele><time>2026-04-12T06:47:31Z</time></trkpt><trkpt lat="45.53145611352654" lon="10.054510468311483"><ele>137.0</ele><time>2026-04-12T06:47:32Z</time></trkpt><trkpt lat="45.53157253077372" lon="10.05490228576751"><ele>137.0</ele><time>2026-04-12T06:47:33Z</time></trkpt><trkpt lat="45.53168740065591" lon="10.055288056934032"><ele>137.0</ele><time>2026-04-12T06:47:34Z</time></trkpt><trkpt lat="45.531813021659794" lon="10.055723435913041"><ele>137.0</ele><time>2026-04-12T06:47:35Z</time></trkpt><trkpt lat="45.531958377828204" lon="10.056145122520348"><ele>137.5</ele><time>2026-04-12T06:47:36Z</time></trkpt><trkpt lat="45.53209009631908" lon="10.056559477057599"><ele>138.0</ele><time>2026-04-12T06:47:37Z</time></trkpt><trkpt lat="45.53222974523709" lon="10.056967137154105"><ele>138.0</ele><time>2026-04-12T06:47:38Z</time></trkpt><trkpt lat="45.53236886706275" lon="10.057367201499499"><ele>138.0</ele><time>2026-04-12T06:47:39Z</time></trkpt><trkpt lat="45.53251313072904" lon="10.057765087343753"><ele>138.5</ele><time>2026-04-12T06:47:40Z</time></trkpt><trkpt lat="45.53266042500246" lon="10.058169004647066"><ele>139.0</ele><time>2026-04-12T06:47:41Z</time></trkpt><trkpt lat="45.532811982250514" lon="10.058562644002388"><ele>138.5</ele><time>2026-04-12T06:47:42Z</time></trkpt><trkpt lat="45.53296406345547" lon="10.05895408956418"><ele>138.0</ele><time>2026-04-12T06:47:43Z</time></trkpt><trkpt lat="45.533118243074476" lon="10.059346194027542"><ele>138.0</ele><time>2026-04-12T06:47:44Z</time></trkpt><trkpt lat="45.53327324255584" lon="10.05973745522402"><ele>138.0</ele><time>2026-04-12T06:47:45Z</time></trkpt><trkpt lat="45.533427428904204" lon="10.060119984884993"><ele>138.5</ele><time>2026-04-12T06:47:46Z</time></trkpt><trkpt lat="45.533585037662064" lon="10.060510943065157"><ele>139.0</ele><time>2026-04-12T06:47:47Z</time></trkpt><trkpt lat="45.533744168738494" lon="10.060901258538975"><ele>139.0</ele><time>2026-04-12T06:47:48Z</time></trkpt><trkpt lat="45.53390223422652" lon="10.061288356095881"><ele>139.0</ele><time>2026-04-12T06:47:49Z</time></trkpt><trkpt lat="45.53405964549373" lon="10.061678921641569"><ele>138.5</ele><time>2026-04-12T06:47:50Z</time></trkpt><trkpt lat="45.5342164861286" lon="10.062066783207438"><ele>138.0</ele><time>2026-04-12T06:47:51Z</time></trkpt><trkpt lat="45.53437553592513" lon="10.062457759723783"><ele>138.0</ele><time>2026-04-12T06:47:52Z</time></trkpt><trkpt lat="45.53453147434269" lon="10.062848899945863"><ele>138.0</ele><time>2026-04-12T06:47:53Z</time></trkpt><trkpt lat="45.53469204825277" lon="10.06324733013372"><ele>138.0</ele><time>2026-04-12T06:47:54Z</time></trkpt><trkpt lat="45.53485232462398" lon="10.063649976284378"><ele>138.0</ele><time>2026-04-12T06:47:55Z</time></trkpt><trkpt lat="45.53501810731453" lon="10.064058994720165"><ele>137.0</ele><time>2026-04-12T06:47:56.022Z</time></trkpt><trkpt lat="45.53518103999725" lon="10.064460294397579"><ele>136.0</ele><time>2026-04-12T06:47:57.024Z</time></trkpt><trkpt lat="45.53534306431144" lon="10.064860560649139"><ele>137.5</ele><time>2026-04-12T06:47:58.022Z</time></trkpt><trkpt lat="45.535507557784314" lon="10.06526230325144"><ele>139.0</ele><time>2026-04-12T06:47:59.023Z</time></trkpt><trkpt lat="45.535668428932624" lon="10.065657390733913"><ele>138.5</ele><time>2026-04-12T06:48:00.014Z</time></trkpt><trkpt lat="45.53575557519849" lon="10.06616847027858"><ele>138.0</ele><time>2026-04-12T06:48:01Z</time></trkpt><trkpt lat="45.53587467712269" lon="10.066541193773492"><ele>138.0</ele><time>2026-04-12T06:48:02Z</time></trkpt><trkpt lat="45.5359891465895" lon="10.066935025462705"><ele>138.0</ele><time>2026-04-12T06:48:03Z</time></trkpt><trkpt lat="45.536108147725415" lon="10.067362664266945"><ele>138.0</ele><time>2026-04-12T06:48:04Z</time></trkpt><trkpt lat="45.53622970970068" lon="10.067790022705779"><ele>138.0</ele><time>2026-04-12T06:48:05Z</time></trkpt><trkpt lat="45.53634712833377" lon="10.068222238074624"><ele>138.0</ele><time>2026-04-12T06:48:06Z</time></trkpt><trkpt lat="45.53646121287183" lon="10.068656821181074"><ele>138.0</ele><time>2026-04-12T06:48:07Z</time></trkpt><trkpt lat="45.53657113774967" lon="10.06908833890071"><ele>138.0</ele><time>2026-04-12T06:48:08Z</time></trkpt><trkpt lat="45.53667743364489" lon="10.06952108548631"><ele>138.0</ele><time>2026-04-12T06:48:09Z</time></trkpt><trkpt lat="45.53677907376024" lon="10.069957920540187"><ele>138.0</ele><time>2026-04-12T06:48:10Z</time></trkpt><trkpt lat="45.536876354703985" lon="10.070392040088144"><ele>138.0</ele><time>2026-04-12T06:48:11Z</time></trkpt><trkpt lat="45.536970877741766" lon="10.07082737024204"><ele>137.5</ele><time>2026-04-12T06:48:12Z</time></trkpt><trkpt lat="45.53705566457236" lon="10.071261714475739"><ele>137.0</ele><time>2026-04-12T06:48:13Z</time></trkpt><trkpt lat="45.53713889998394" lon="10.071706347046462"><ele>136.5</ele><time>2026-04-12T06:48:14Z</time></trkpt><trkpt lat="45.5372264216857" lon="10.072131521037912"><ele>136.0</ele><time>2026-04-12T06:48:15Z</time></trkpt><trkpt lat="45.53730634217167" lon="10.072577013700963"><ele>136.5</ele><time>2026-04-12T06:48:16Z</time></trkpt><trkpt lat="45.53737563848249" lon="10.073024374822888"><ele>137.0</ele><time>2026-04-12T06:48:17Z</time></trkpt><trkpt lat="45.537444258909844" lon="10.073471345784172"><ele>137.0</ele><time>2026-04-12T06:48:18Z</time></trkpt><trkpt lat="45.537510255724214" lon="10.07392222831746"><ele>137.0</ele><time>2026-04-12T06:48:19Z</time></trkpt><trkpt lat="45.53757359008396" lon="10.074373545661937"><ele>137.0</ele><time>2026-04-12T06:48:20Z</time></trkpt><trkpt lat="45.537637942657945" lon="10.074820560126271"><ele>137.0</ele><time>2026-04-12T06:48:21Z</time></trkpt><trkpt lat="45.53770331631677" lon="10.075270472859831"><ele>137.0</ele><time>2026-04-12T06:48:22Z</time></trkpt><trkpt lat="45.5377649189153" lon="10.075715533738576"><ele>137.0</ele><time>2026-04-12T06:48:23Z</time></trkpt><trkpt lat="45.53782974137546" lon="10.076166826402325"><ele>137.5</ele><time>2026-04-12T06:48:24Z</time></trkpt><trkpt lat="45.53788706290757" lon="10.076596264997121"><ele>138.0</ele><time>2026-04-12T06:48:25Z</time></trkpt><trkpt lat="45.5379315644601" lon="10.077058301792277"><ele>138.0</ele><time>2026-04-12T06:48:26Z</time></trkpt><trkpt lat="45.53797976599975" lon="10.077503221759962"><ele>138.0</ele><time>2026-04-12T06:48:27Z</time></trkpt><trkpt lat="45.53803122610989" lon="10.077950084034432"><ele>137.5</ele><time>2026-04-12T06:48:28Z</time></trkpt><trkpt lat="45.538081834435715" lon="10.078394384397473"><ele>137.0</ele><time>2026-04-12T06:48:29Z</time></trkpt><trkpt lat="45.53813328288276" lon="10.07884257197121"><ele>137.5</ele><time>2026-04-12T06:48:30Z</time></trkpt><trkpt lat="45.53818406474578" lon="10.07928603679812"><ele>138.0</ele><time>2026-04-12T06:48:31Z</time></trkpt><trkpt lat="45.53823657180867" lon="10.079734286079855"><ele>137.5</ele><time>2026-04-12T06:48:32Z</time></trkpt><trkpt lat="45.53829069097786" lon="10.080181607085168"><ele>137.0</ele><time>2026-04-12T06:48:33Z</time></trkpt><trkpt lat="45.53834536997561" lon="10.080624555576705"><ele>136.5</ele><time>2026-04-12T06:48:34Z</time></trkpt><trkpt lat="45.53839787177447" lon="10.081071005378305"><ele>136.0</ele><time>2026-04-12T06:48:35Z</time></trkpt><trkpt lat="45.53845025569881" lon="10.081515772320284"><ele>136.0</ele><time>2026-04-12T06:48:36Z</time></trkpt><trkpt lat="45.538502890531" lon="10.081957820891976"><ele>136.0</ele><time>2026-04-12T06:48:37Z</time></trkpt><trkpt lat="45.538554886818474" lon="10.082404317101972"><ele>136.0</ele><time>2026-04-12T06:48:38Z</time></trkpt><trkpt lat="45.538607673384995" lon="10.082851794698433"><ele>136.0</ele><time>2026-04-12T06:48:39Z</time></trkpt><trkpt lat="45.5386621576602" lon="10.083297631317805"><ele>135.5</ele><time>2026-04-12T06:48:40Z</time></trkpt><trkpt lat="45.538719727182205" lon="10.0837465053162"><ele>135.0</ele><time>2026-04-12T06:48:41Z</time></trkpt><trkpt lat="45.53877591922693" lon="10.084200032513003"><ele>135.0</ele><time>2026-04-12T06:48:42Z</time></trkpt><trkpt lat="45.53883088735262" lon="10.084652667472406"><ele>135.0</ele><time>2026-04-12T06:48:43Z</time></trkpt><trkpt lat="45.53888477829889" lon="10.085108327714234"><ele>135.0</ele><time>2026-04-12T06:48:44Z</time></trkpt><trkpt lat="45.53893760287517" lon="10.085566012890277"><ele>135.0</ele><time>2026-04-12T06:48:45Z</time></trkpt><trkpt lat="45.538989940590255" lon="10.086025617071867"><ele>134.5</ele><time>2026-04-12T06:48:46Z</time></trkpt><trkpt lat="45.53904148902212" lon="10.0864858384985"><ele>134.0</ele><time>2026-04-12T06:48:47Z</time></trkpt><trkpt lat="45.53909627248598" lon="10.08694599297705"><ele>134.0</ele><time>2026-04-12T06:48:48Z</time></trkpt><trkpt lat="45.53915300785187" lon="10.087406903113466"><ele>134.0</ele><time>2026-04-12T06:48:49Z</time></trkpt><trkpt lat="45.53920955268368" lon="10.087865278131485"><ele>134.0</ele><time>2026-04-12T06:48:50Z</time></trkpt><trkpt lat="45.5392658390604" lon="10.088325097679219"><ele>134.0</ele><time>2026-04-12T06:48:51Z</time></trkpt><trkpt lat="45.53932055048226" lon="10.088786660033723"><ele>132.5</ele><time>2026-04-12T06:48:52Z</time></trkpt><trkpt lat="45.53937753933758" lon="10.089248945980325"><ele>131.0</ele><time>2026-04-12T06:48:53Z</time></trkpt><trkpt lat="45.53943190142706" lon="10.08970982457035"><ele>131.0</ele><time>2026-04-12T06:48:54Z</time></trkpt><trkpt lat="45.53948471637525" lon="10.09017324509755"><ele>131.0</ele><time>2026-04-12T06:48:55Z</time></trkpt><trkpt lat="45.53953551178169" lon="10.090633384368251"><ele>133.5</ele><time>2026-04-12T06:48:56Z</time></trkpt><trkpt lat="45.539585447858855" lon="10.091096643042382"><ele>136.0</ele><time>2026-04-12T06:48:57Z</time></trkpt><trkpt lat="45.53963291301954" lon="10.091558962831067"><ele>135.0</ele><time>2026-04-12T06:48:58Z</time></trkpt><trkpt lat="45.53968034331206" lon="10.092025037269842"><ele>134.0</ele><time>2026-04-12T06:48:59Z</time></trkpt><trkpt lat="45.5397270235589" lon="10.092491209562608"><ele>133.0</ele><time>2026-04-12T06:49:00Z</time></trkpt><trkpt lat="45.53977898432762" lon="10.092952950027955"><ele>132.0</ele><time>2026-04-12T06:49:01Z</time></trkpt><trkpt lat="45.53983670097783" lon="10.093413101722769"><ele>132.0</ele><time>2026-04-12T06:49:02Z</time></trkpt><trkpt lat="45.539894627915395" lon="10.0938752783814"><ele>132.0</ele><time>2026-04-12T06:49:03Z</time></trkpt><trkpt lat="45.539952230786376" lon="10.094336574225416"><ele>132.0</ele><time>2026-04-12T06:49:04Z</time></trkpt><trkpt lat="45.54000721902863" lon="10.094794809758191"><ele>132.0</ele><time>2026-04-12T06:49:05Z</time></trkpt><trkpt lat="45.54006132794457" lon="10.09525825156936"><ele>132.0</ele><time>2026-04-12T06:49:06Z</time></trkpt><trkpt lat="45.54011301175295" lon="10.095718559105766"><ele>132.0</ele><time>2026-04-12T06:49:07Z</time></trkpt><trkpt lat="45.540170959626586" lon="10.096179295230305"><ele>133.0</ele><time>2026-04-12T06:49:08Z</time></trkpt><trkpt lat="45.54022786962725" lon="10.096639804686449"><ele>134.0</ele><time>2026-04-12T06:49:09Z</time></trkpt><trkpt lat="45.54028489068678" lon="10.097098297606223"><ele>134.0</ele><time>2026-04-12T06:49:10Z</time></trkpt><trkpt lat="45.540343908331344" lon="10.097555424661419"><ele>134.0</ele><time>2026-04-12T06:49:11Z</time></trkpt><trkpt lat="45.54039588809657" lon="10.098015081454108"><ele>133.0</ele><time>2026-04-12T06:49:12Z</time></trkpt><trkpt lat="45.54044888507338" lon="10.098474701699404"><ele>132.0</ele><time>2026-04-12T06:49:13Z</time></trkpt><trkpt lat="45.54050492193072" lon="10.098937142547275"><ele>132.0</ele><time>2026-04-12T06:49:14Z</time></trkpt><trkpt lat="45.54056389836544" lon="10.09939441989334"><ele>132.0</ele><time>2026-04-12T06:49:15Z</time></trkpt><trkpt lat="45.54062498098315" lon="10.099855625778682"><ele>131.5</ele><time>2026-04-12T06:49:16Z</time></trkpt><trkpt lat="45.54068979302864" lon="10.100319558724188"><ele>131.0</ele><time>2026-04-12T06:49:17Z</time></trkpt><trkpt lat="45.54075730057381" lon="10.100781665532303"><ele>130.0</ele><time>2026-04-12T06:49:18Z</time></trkpt><trkpt lat="45.540832254683686" lon="10.101241387706743"><ele>129.0</ele><time>2026-04-12T06:49:19Z</time></trkpt><trkpt lat="45.54090875851227" lon="10.101700984281043"><ele>128.5</ele><time>2026-04-12T06:49:20Z</time></trkpt><trkpt lat="45.54098778472695" lon="10.102161435812835"><ele>128.0</ele><time>2026-04-12T06:49:21Z</time></trkpt><trkpt lat="45.54107189711711" lon="10.102621675300211"><ele>129.0</ele><time>2026-04-12T06:49:22Z</time></trkpt><trkpt lat="45.541160547022265" lon="10.103075274956987"><ele>130.0</ele><time>2026-04-12T06:49:23Z</time></trkpt><trkpt lat="45.54125766837946" lon="10.103529242819047"><ele>130.5</ele><time>2026-04-12T06:49:24Z</time></trkpt><trkpt lat="45.54135849829013" lon="10.103980158560152"><ele>131.0</ele><time>2026-04-12T06:49:25Z</time></trkpt><trkpt lat="45.541464830216015" lon="10.104425016231097"><ele>131.0</ele><time>2026-04-12T06:49:26Z</time></trkpt><trkpt lat="45.541573411557216" lon="10.104868825351303"><ele>131.0</ele><time>2026-04-12T06:49:27Z</time></trkpt><trkpt lat="45.54169023787825" lon="10.105304522422268"><ele>131.0</ele><time>2026-04-12T06:49:28Z</time></trkpt><trkpt lat="45.541809338876384" lon="10.105742880328899"><ele>131.0</ele><time>2026-04-12T06:49:29Z</time></trkpt><trkpt lat="45.54193581473155" lon="10.106174221323615"><ele>131.0</ele><time>2026-04-12T06:49:30Z</time></trkpt><trkpt lat="45.54206660820506" lon="10.106599489971677"><ele>131.0</ele><time>2026-04-12T06:49:31Z</time></trkpt><trkpt lat="45.54220107907631" lon="10.107024996502343"><ele>130.0</ele><time>2026-04-12T06:49:32Z</time></trkpt><trkpt lat="45.54233826936787" lon="10.10744118681056"><ele>129.0</ele><time>2026-04-12T06:49:33Z</time></trkpt><trkpt lat="45.54248066985144" lon="10.107856408940311"><ele>129.5</ele><time>2026-04-12T06:49:34Z</time></trkpt><trkpt lat="45.54262679779416" lon="10.108275037207168"><ele>130.0</ele><time>2026-04-12T06:49:35Z</time></trkpt><trkpt lat="45.54277717415186" lon="10.10868550238766"><ele>129.0</ele><time>2026-04-12T06:49:36Z</time></trkpt><trkpt lat="45.54293414857545" lon="10.109093203579649"><ele>128.0</ele><time>2026-04-12T06:49:37Z</time></trkpt><trkpt lat="45.543094031729666" lon="10.109497952014287"><ele>128.0</ele><time>2026-04-12T06:49:38Z</time></trkpt><trkpt lat="45.54325739584544" lon="10.10990423522174"><ele>128.0</ele><time>2026-04-12T06:49:39Z</time></trkpt><trkpt lat="45.54342220628052" lon="10.110303036647743"><ele>128.5</ele><time>2026-04-12T06:49:40Z</time></trkpt><trkpt lat="45.5435850958582" lon="10.110689795908973"><ele>129.0</ele><time>2026-04-12T06:49:41Z</time></trkpt><trkpt lat="45.543745181711294" lon="10.111052944844506"><ele>129.0</ele><time>2026-04-12T06:49:42Z</time></trkpt><trkpt lat="45.543897198936655" lon="10.111401624045927"><ele>129.0</ele><time>2026-04-12T06:49:43Z</time></trkpt><trkpt lat="45.54403577315644" lon="10.111738019426909"><ele>129.0</ele><time>2026-04-12T06:49:44Z</time></trkpt><trkpt lat="45.54416256615129" lon="10.112073011151558"><ele>129.0</ele><time>2026-04-12T06:49:45Z</time></trkpt><trkpt lat="45.544271572968874" lon="10.112412408460155"><ele>129.0</ele><time>2026-04-12T06:49:46Z</time></trkpt><trkpt lat="45.5443503308202" lon="10.112756917939466"><ele>129.0</ele><time>2026-04-12T06:49:47Z</time></trkpt><trkpt lat="45.54440281616553" lon="10.113116340122739"><ele>127.5</ele><time>2026-04-12T06:49:48Z</time></trkpt><trkpt lat="45.54443411988689" lon="10.113490560682068"><ele>126.0</ele><time>2026-04-12T06:49:49Z</time></trkpt><trkpt lat="45.54446656931064" lon="10.113862970673832"><ele>126.0</ele><time>2026-04-12T06:49:50Z</time></trkpt><trkpt lat="45.544522772916466" lon="10.114226383573415"><ele>126.0</ele><time>2026-04-12T06:49:51Z</time></trkpt><trkpt lat="45.544612983700375" lon="10.114579214673663"><ele>126.5</ele><time>2026-04-12T06:49:52Z</time></trkpt><trkpt lat="45.54474445242071" lon="10.114907157915004"><ele>127.0</ele><time>2026-04-12T06:49:53Z</time></trkpt><trkpt lat="45.54489707342148" lon="10.11522022205679"><ele>127.0</ele><time>2026-04-12T06:49:54Z</time></trkpt><trkpt lat="45.54507968013893" lon="10.115495999979212"><ele>127.0</ele><time>2026-04-12T06:49:55Z</time></trkpt><trkpt lat="45.54528398373753" lon="10.115743660525222"><ele>127.5</ele><time>2026-04-12T06:49:56Z</time></trkpt><trkpt lat="45.54549717389709" lon="10.115948310975423"><ele>128.0</ele><time>2026-04-12T06:49:57Z</time></trkpt><trkpt lat="45.54571717338218" lon="10.116092872700122"><ele>128.0</ele><time>2026-04-12T06:49:58Z</time></trkpt><trkpt lat="45.54593037626935" lon="10.116218652204955"><ele>128.0</ele><time>2026-04-12T06:49:59Z</time></trkpt><trkpt lat="45.54614345278464" lon="10.11636425705179"><ele>127.5</ele><time>2026-04-12T06:50:00.021Z</time></trkpt><trkpt lat="45.546358976585545" lon="10.116522379662165"><ele>127.0</ele><time>2026-04-12T06:50:01.022Z</time></trkpt><trkpt lat="45.54656929056161" lon="10.116674715844693"><ele>127.0</ele><time>2026-04-12T06:50:02.015Z</time></trkpt><trkpt lat="45.54678194003381" lon="10.116828978638228"><ele>127.0</ele><time>2026-04-12T06:50:03.025Z</time></trkpt><trkpt lat="45.54698433918641" lon="10.116968698174093"><ele>129.0</ele><time>2026-04-12T06:50:04Z</time></trkpt><trkpt lat="45.546750688267224" lon="10.117653897063553"><ele>129.0</ele><time>2026-04-12T06:50:05Z</time></trkpt><trkpt lat="45.546840384405165" lon="10.117967558039853"><ele>129.0</ele><time>2026-04-12T06:50:06Z</time></trkpt><trkpt lat="45.54690947593123" lon="10.118255937004596"><ele>130.0</ele><time>2026-04-12T06:50:07Z</time></trkpt><trkpt lat="45.546983735461005" lon="10.118513720637184"><ele>131.0</ele><time>2026-04-12T06:50:08Z</time></trkpt><trkpt lat="45.547055764579504" lon="10.118767532887674"><ele>132.0</ele><time>2026-04-12T06:50:09Z</time></trkpt><trkpt lat="45.547126973828895" lon="10.119027389182467"><ele>131.33333333333334</ele><time>2026-04-12T06:50:10Z</time></trkpt><trkpt lat="45.54718750086313" lon="10.119311340226433"><ele>130.66666666666669</ele><time>2026-04-12T06:50:11Z</time></trkpt><trkpt lat="45.54724527890987" lon="10.11960179872826"><ele>130.0</ele><time>2026-04-12T06:50:12Z</time></trkpt><trkpt lat="45.547336347413186" lon="10.119965413942838"><ele>129.0</ele><time>2026-04-12T06:50:13Z</time></trkpt><trkpt lat="45.54743146539003" lon="10.120298903099656"><ele>128.0</ele><time>2026-04-12T06:50:14Z</time></trkpt><trkpt lat="45.54749544593261" lon="10.120632436941246"><ele>127.0</ele><time>2026-04-12T06:50:15Z</time></trkpt><trkpt lat="45.5475363021352" lon="10.120971087546094"><ele>126.0</ele><time>2026-04-12T06:50:16Z</time></trkpt><trkpt lat="45.54756154534602" lon="10.121313584558889"><ele>126.33333333333334</ele><time>2026-04-12T06:50:17Z</time></trkpt><trkpt lat="45.54758136274905" lon="10.121641589180117"><ele>126.66666666666667</ele><time>2026-04-12T06:50:18Z</time></trkpt><trkpt lat="45.547613274384275" lon="10.121950500063459"><ele>127.0</ele><time>2026-04-12T06:50:19Z</time></trkpt><trkpt lat="45.54765543258118" lon="10.122273320122853"><ele>128.0</ele><time>2026-04-12T06:50:20Z</time></trkpt><trkpt lat="45.547703352369865" lon="10.122611671525263"><ele>129.0</ele><time>2026-04-12T06:50:21Z</time></trkpt><trkpt lat="45.54775100299241" lon="10.122961390168783"><ele>129.0</ele><time>2026-04-12T06:50:22Z</time></trkpt><trkpt lat="45.54779363024359" lon="10.123317223805946"><ele>129.0</ele><time>2026-04-12T06:50:23Z</time></trkpt><trkpt lat="45.54783471154969" lon="10.12368458763424"><ele>129.0</ele><time>2026-04-12T06:50:24Z</time></trkpt><trkpt lat="45.54787145983064" lon="10.124057826603503"><ele>129.0</ele><time>2026-04-12T06:50:25Z</time></trkpt><trkpt lat="45.547904222794486" lon="10.12443383067042"><ele>129.0</ele><time>2026-04-12T06:50:26Z</time></trkpt><trkpt lat="45.54792824370207" lon="10.124818464931524"><ele>129.0</ele><time>2026-04-12T06:50:27Z</time></trkpt><trkpt lat="45.54794948469819" lon="10.125206810637543"><ele>129.0</ele><time>2026-04-12T06:50:28Z</time></trkpt><trkpt lat="45.547968078655565" lon="10.125598783726543"><ele>129.0</ele><time>2026-04-12T06:50:29Z</time></trkpt><trkpt lat="45.54798263647246" lon="10.125991243060723"><ele>129.0</ele><time>2026-04-12T06:50:30Z</time></trkpt><trkpt lat="45.54799170601906" lon="10.126387510605484"><ele>129.0</ele><time>2026-04-12T06:50:31Z</time></trkpt><trkpt lat="45.547995015120776" lon="10.126785406153296"><ele>129.0</ele><time>2026-04-12T06:50:32Z</time></trkpt><trkpt lat="45.547994781707615" lon="10.12718884275179"><ele>129.0</ele><time>2026-04-12T06:50:33Z</time></trkpt><trkpt lat="45.5479907980932" lon="10.127591482243115"><ele>129.0</ele><time>2026-04-12T06:50:34Z</time></trkpt><trkpt lat="45.547981621037444" lon="10.1279937480445"><ele>129.0</ele><time>2026-04-12T06:50:35Z</time></trkpt><trkpt lat="45.54797148329913" lon="10.128398718272983"><ele>128.5</ele><time>2026-04-12T06:50:36Z</time></trkpt><trkpt lat="45.547953205324596" lon="10.12880436501826"><ele>128.0</ele><time>2026-04-12T06:50:37Z</time></trkpt><trkpt lat="45.547924646371015" lon="10.129199822149145"><ele>128.0</ele><time>2026-04-12T06:50:38Z</time></trkpt><trkpt lat="45.54789319117502" lon="10.129595911154105"><ele>128.0</ele><time>2026-04-12T06:50:39Z</time></trkpt><trkpt lat="45.54783431521936" lon="10.12998081323005"><ele>127.0</ele><time>2026-04-12T06:50:40Z</time></trkpt><trkpt lat="45.547795339835865" lon="10.13037041418275"><ele>126.0</ele><time>2026-04-12T06:50:41Z</time></trkpt><trkpt lat="45.547752753869936" lon="10.1307555355216"><ele>126.0</ele><time>2026-04-12T06:50:42Z</time></trkpt><trkpt lat="45.54772028968912" lon="10.131136914920306"><ele>126.0</ele><time>2026-04-12T06:50:43Z</time></trkpt><trkpt lat="45.54768642204836" lon="10.131520993191808"><ele>126.5</ele><time>2026-04-12T06:50:44Z</time></trkpt><trkpt lat="45.54762737446214" lon="10.131898397421743"><ele>127.0</ele><time>2026-04-12T06:50:45Z</time></trkpt><trkpt lat="45.54756016369909" lon="10.13227248613785"><ele>127.0</ele><time>2026-04-12T06:50:46Z</time></trkpt><trkpt lat="45.54748854367068" lon="10.132643131496483"><ele>127.0</ele><time>2026-04-12T06:50:47Z</time></trkpt><trkpt lat="45.54740896205341" lon="10.133008544308469"><ele>128.5</ele><time>2026-04-12T06:50:48Z</time></trkpt><trkpt lat="45.54731409554815" lon="10.133355329838894"><ele>130.0</ele><time>2026-04-12T06:50:49Z</time></trkpt><trkpt lat="45.54720294083245" lon="10.133704953083793"><ele>130.0</ele><time>2026-04-12T06:50:50Z</time></trkpt><trkpt lat="45.547106498797945" lon="10.134049281146599"><ele>130.0</ele><time>2026-04-12T06:50:51Z</time></trkpt><trkpt lat="45.54698568811781" lon="10.134377327791226"><ele>128.0</ele><time>2026-04-12T06:50:52Z</time></trkpt><trkpt lat="45.54686219554993" lon="10.134696446989347"><ele>126.0</ele><time>2026-04-12T06:50:53Z</time></trkpt><trkpt lat="45.5467370543754" lon="10.13500258703015"><ele>126.0</ele><time>2026-04-12T06:50:54Z</time></trkpt><trkpt lat="45.546610265267844" lon="10.13528480452198"><ele>126.0</ele><time>2026-04-12T06:50:55Z</time></trkpt><trkpt lat="45.54647380251807" lon="10.135565917762198"><ele>125.5</ele><time>2026-04-12T06:50:56Z</time></trkpt><trkpt lat="45.54633344444196" lon="10.135843901642591"><ele>125.0</ele><time>2026-04-12T06:50:57Z</time></trkpt><trkpt lat="45.546191066194076" lon="10.13611333031769"><ele>125.0</ele><time>2026-04-12T06:50:58Z</time></trkpt><trkpt lat="45.54604435791533" lon="10.136381593938728"><ele>125.0</ele><time>2026-04-12T06:50:59Z</time></trkpt><trkpt lat="45.54589559726248" lon="10.136653934546588"><ele>124.0</ele><time>2026-04-12T06:51:00Z</time></trkpt><trkpt lat="45.54574647956112" lon="10.1369252777615"><ele>123.0</ele><time>2026-04-12T06:51:01Z</time></trkpt><trkpt lat="45.54559787642418" lon="10.137198479267798"><ele>123.5</ele><time>2026-04-12T06:51:02Z</time></trkpt><trkpt lat="45.54544623501216" lon="10.137471346955175"><ele>124.0</ele><time>2026-04-12T06:51:03Z</time></trkpt><trkpt lat="45.545290386373715" lon="10.137751101547003"><ele>124.0</ele><time>2026-04-12T06:51:04Z</time></trkpt><trkpt lat="45.54512929246982" lon="10.138047475818032"><ele>124.0</ele><time>2026-04-12T06:51:05Z</time></trkpt><trkpt lat="45.544957631746186" lon="10.138355659465509"><ele>124.0</ele><time>2026-04-12T06:51:06Z</time></trkpt><trkpt lat="45.544787086537205" lon="10.13867011692691"><ele>124.0</ele><time>2026-04-12T06:51:07Z</time></trkpt><trkpt lat="45.544611551176295" lon="10.138988290188278"><ele>123.5</ele><time>2026-04-12T06:51:08Z</time></trkpt><trkpt lat="45.544436667157825" lon="10.139306973791546"><ele>123.0</ele><time>2026-04-12T06:51:09Z</time></trkpt><trkpt lat="45.544263100862054" lon="10.139624318528748"><ele>122.5</ele><time>2026-04-12T06:51:10Z</time></trkpt><trkpt lat="45.54409592354106" lon="10.139928873519475"><ele>122.0</ele><time>2026-04-12T06:51:11Z</time></trkpt><trkpt lat="45.54393050728137" lon="10.140227587738748"><ele>122.0</ele><time>2026-04-12T06:51:12Z</time></trkpt><trkpt lat="45.54376528972209" lon="10.140528025033134"><ele>122.0</ele><time>2026-04-12T06:51:13Z</time></trkpt><trkpt lat="45.543601232114646" lon="10.140827412897202"><ele>122.0</ele><time>2026-04-12T06:51:14Z</time></trkpt><trkpt lat="45.54343745604169" lon="10.141121698240026"><ele>122.0</ele><time>2026-04-12T06:51:15Z</time></trkpt><trkpt lat="45.54327440961599" lon="10.141419720525116"><ele>122.0</ele><time>2026-04-12T06:51:16Z</time></trkpt><trkpt lat="45.54311424759687" lon="10.141712408046896"><ele>122.0</ele><time>2026-04-12T06:51:17Z</time></trkpt><trkpt lat="45.542955410688755" lon="10.14200457475563"><ele>121.0</ele><time>2026-04-12T06:51:18Z</time></trkpt><trkpt lat="45.54279950698012" lon="10.142293010840707"><ele>120.0</ele><time>2026-04-12T06:51:19Z</time></trkpt><trkpt lat="45.542641265733174" lon="10.142580928370467"><ele>119.5</ele><time>2026-04-12T06:51:20Z</time></trkpt><trkpt lat="45.54248779425224" lon="10.142862213600692"><ele>119.0</ele><time>2026-04-12T06:51:21Z</time></trkpt><trkpt lat="45.542333869482796" lon="10.143140764180046"><ele>119.0</ele><time>2026-04-12T06:51:22Z</time></trkpt><trkpt lat="45.542179140045924" lon="10.143416209632075"><ele>119.0</ele><time>2026-04-12T06:51:23Z</time></trkpt><trkpt lat="45.54202804274117" lon="10.143695720456183"><ele>119.5</ele><time>2026-04-12T06:51:24Z</time></trkpt><trkpt lat="45.541877998790746" lon="10.14397217308775"><ele>120.0</ele><time>2026-04-12T06:51:25Z</time></trkpt><trkpt lat="45.5417255554922" lon="10.144251067931885"><ele>120.0</ele><time>2026-04-12T06:51:26Z</time></trkpt><trkpt lat="45.5415690059378" lon="10.144524859801791"><ele>120.0</ele><time>2026-04-12T06:51:27Z</time></trkpt><trkpt lat="45.54141438662518" lon="10.144799944246865"><ele>120.0</ele><time>2026-04-12T06:51:28Z</time></trkpt><trkpt lat="45.54126079566193" lon="10.145074592347413"><ele>120.0</ele><time>2026-04-12T06:51:29Z</time></trkpt><trkpt lat="45.54110636622333" lon="10.145354704442088"><ele>120.5</ele><time>2026-04-12T06:51:30Z</time></trkpt><trkpt lat="45.54095120294077" lon="10.145636072670385"><ele>121.0</ele><time>2026-04-12T06:51:31Z</time></trkpt><trkpt lat="45.54079477783185" lon="10.145922586529599"><ele>121.5</ele><time>2026-04-12T06:51:32Z</time></trkpt><trkpt lat="45.540637234316755" lon="10.146208574177544"><ele>122.0</ele><time>2026-04-12T06:51:33Z</time></trkpt><trkpt lat="45.54047982699719" lon="10.146496228940654"><ele>123.0</ele><time>2026-04-12T06:51:34Z</time></trkpt><trkpt lat="45.540321366175974" lon="10.146784564207762"><ele>124.0</ele><time>2026-04-12T06:51:34.999Z</time></trkpt><trkpt lat="45.54016501522782" lon="10.147069506193299"><ele>124.0</ele><time>2026-04-12T06:51:35.999Z</time></trkpt><trkpt lat="45.540005883789576" lon="10.147359396311238"><ele>124.0</ele><time>2026-04-12T06:51:36.999Z</time></trkpt><trkpt lat="45.53985197744338" lon="10.147645859945689"><ele>124.0</ele><time>2026-04-12T06:51:37.999Z</time></trkpt><trkpt lat="45.53969370273163" lon="10.147931435637807"><ele>124.0</ele><time>2026-04-12T06:51:38.999Z</time></trkpt><trkpt lat="45.53953384669874" lon="10.14821908208872"><ele>123.5</ele><time>2026-04-12T06:51:39.999Z</time></trkpt><trkpt lat="45.53937889537559" lon="10.148498574131313"><ele>123.0</ele><time>2026-04-12T06:51:40.999Z</time></trkpt><trkpt lat="45.539224215798136" lon="10.14878090730254"><ele>122.0</ele><time>2026-04-12T06:51:42Z</time></trkpt><trkpt lat="45.53906989496193" lon="10.149077546224648"><ele>121.0</ele><time>2026-04-12T06:51:43Z</time></trkpt><trkpt lat="45.53891291306761" lon="10.149369036129466"><ele>121.0</ele><time>2026-04-12T06:51:44Z</time></trkpt><trkpt lat="45.53875800917803" lon="10.14966231934998"><ele>121.0</ele><time>2026-04-12T06:51:45Z</time></trkpt><trkpt lat="45.53860324753623" lon="10.149963641557234"><ele>121.0</ele><time>2026-04-12T06:51:46Z</time></trkpt><trkpt lat="45.53844478606415" lon="10.150264216790982"><ele>121.0</ele><time>2026-04-12T06:51:47Z</time></trkpt><trkpt lat="45.53828467370286" lon="10.15056941116381"><ele>120.5</ele><time>2026-04-12T06:51:48Z</time></trkpt><trkpt lat="45.53812391583563" lon="10.150880448430495"><ele>120.0</ele><time>2026-04-12T06:51:49Z</time></trkpt><trkpt lat="45.53796060956136" lon="10.151186227649438"><ele>120.5</ele><time>2026-04-12T06:51:50Z</time></trkpt><trkpt lat="45.53779794875302" lon="10.151492912255488"><ele>121.0</ele><time>2026-04-12T06:51:51Z</time></trkpt><trkpt lat="45.53763722742953" lon="10.151798423033258"><ele>121.5</ele><time>2026-04-12T06:51:52Z</time></trkpt><trkpt lat="45.53748221496094" lon="10.152105760278829"><ele>122.0</ele><time>2026-04-12T06:51:53Z</time></trkpt><trkpt lat="45.53732733759065" lon="10.15241282076557"><ele>122.0</ele><time>2026-04-12T06:51:54Z</time></trkpt><trkpt lat="45.53717481177459" lon="10.152720434176"><ele>122.0</ele><time>2026-04-12T06:51:55Z</time></trkpt><trkpt lat="45.53701983910279" lon="10.153028550042523"><ele>121.5</ele><time>2026-04-12T06:51:56Z</time></trkpt><trkpt lat="45.53686297269969" lon="10.15333517880043"><ele>121.0</ele><time>2026-04-12T06:51:57Z</time></trkpt><trkpt lat="45.53670566614311" lon="10.153639087217828"><ele>121.0</ele><time>2026-04-12T06:51:58Z</time></trkpt><trkpt lat="45.53654926791089" lon="10.153944154359772"><ele>121.0</ele><time>2026-04-12T06:51:59Z</time></trkpt><trkpt lat="45.53639317937523" lon="10.154249079538364"><ele>122.0</ele><time>2026-04-12T06:52:00Z</time></trkpt><trkpt lat="45.53623695998275" lon="10.154555722181431"><ele>123.0</ele><time>2026-04-12T06:52:01Z</time></trkpt><trkpt lat="45.5360807266425" lon="10.15485914930523"><ele>121.5</ele><time>2026-04-12T06:52:02Z</time></trkpt><trkpt lat="45.535925356787" lon="10.155165363321503"><ele>120.0</ele><time>2026-04-12T06:52:03Z</time></trkpt><trkpt lat="45.53577126449149" lon="10.155468763171763"><ele>121.0</ele><time>2026-04-12T06:52:04Z</time></trkpt><trkpt lat="45.53561702148236" lon="10.155773369990253"><ele>122.0</ele><time>2026-04-12T06:52:05Z</time></trkpt><trkpt lat="45.53546382539105" lon="10.15607416358891"><ele>122.0</ele><time>2026-04-12T06:52:06Z</time></trkpt><trkpt lat="45.53530654434064" lon="10.156378190160689"><ele>122.0</ele><time>2026-04-12T06:52:07Z</time></trkpt><trkpt lat="45.5351516275835" lon="10.156684027362829"><ele>122.0</ele><time>2026-04-12T06:52:08Z</time></trkpt><trkpt lat="45.53499733582556" lon="10.156983853520973"><ele>122.0</ele><time>2026-04-12T06:52:09Z</time></trkpt><trkpt lat="45.53484298540674" lon="10.157288083948616"><ele>122.5</ele><time>2026-04-12T06:52:10Z</time></trkpt><trkpt lat="45.53468517105244" lon="10.157593175046891"><ele>123.0</ele><time>2026-04-12T06:52:11Z</time></trkpt><trkpt lat="45.53453442056718" lon="10.15790387176588"><ele>123.5</ele><time>2026-04-12T06:52:12Z</time></trkpt><trkpt lat="45.534372783105354" lon="10.158205124349386"><ele>124.0</ele><time>2026-04-12T06:52:13Z</time></trkpt><trkpt lat="45.53421724370373" lon="10.158514125147986"><ele>124.0</ele><time>2026-04-12T06:52:14Z</time></trkpt><trkpt lat="45.53405703902974" lon="10.158816350173408"><ele>124.0</ele><time>2026-04-12T06:52:15Z</time></trkpt><trkpt lat="45.53390253772636" lon="10.159122634549572"><ele>124.0</ele><time>2026-04-12T06:52:16Z</time></trkpt><trkpt lat="45.53374566001906" lon="10.159433720581646"><ele>124.0</ele><time>2026-04-12T06:52:17Z</time></trkpt><trkpt lat="45.53359016788263" lon="10.159739210734584"><ele>123.0</ele><time>2026-04-12T06:52:18Z</time></trkpt><trkpt lat="45.53343338194027" lon="10.160048226392451"><ele>122.0</ele><time>2026-04-12T06:52:19Z</time></trkpt><trkpt lat="45.533280023373706" lon="10.16035606014098"><ele>122.0</ele><time>2026-04-12T06:52:20Z</time></trkpt><trkpt lat="45.53312377379662" lon="10.160654250743532"><ele>122.0</ele><time>2026-04-12T06:52:21Z</time></trkpt><trkpt lat="45.53297338070504" lon="10.160955443264266"><ele>123.0</ele><time>2026-04-12T06:52:22Z</time></trkpt><trkpt lat="45.53281998172507" lon="10.161257495801278"><ele>124.0</ele><time>2026-04-12T06:52:23Z</time></trkpt><trkpt lat="45.53266694772924" lon="10.161558180331447"><ele>124.5</ele><time>2026-04-12T06:52:24Z</time></trkpt><trkpt lat="45.53250667468664" lon="10.161858299081441"><ele>125.0</ele><time>2026-04-12T06:52:25Z</time></trkpt><trkpt lat="45.532350641770165" lon="10.162166433250004"><ele>125.5</ele><time>2026-04-12T06:52:26Z</time></trkpt><trkpt lat="45.53219244406492" lon="10.162469368878222"><ele>126.0</ele><time>2026-04-12T06:52:27Z</time></trkpt><trkpt lat="45.532037634554676" lon="10.16277036395049"><ele>126.0</ele><time>2026-04-12T06:52:28Z</time></trkpt><trkpt lat="45.53187799317474" lon="10.163074328065873"><ele>126.0</ele><time>2026-04-12T06:52:29Z</time></trkpt><trkpt lat="45.53172201358327" lon="10.163379027686934"><ele>126.5</ele><time>2026-04-12T06:52:30Z</time></trkpt><trkpt lat="45.53156313560016" lon="10.163682386137825"><ele>127.0</ele><time>2026-04-12T06:52:31Z</time></trkpt><trkpt lat="45.531400367166476" lon="10.163983437050662"><ele>127.0</ele><time>2026-04-12T06:52:32Z</time></trkpt><trkpt lat="45.5312402106767" lon="10.164290186675558"><ele>127.0</ele><time>2026-04-12T06:52:33Z</time></trkpt><trkpt lat="45.53108316933778" lon="10.164595074163602"><ele>126.5</ele><time>2026-04-12T06:52:34Z</time></trkpt><trkpt lat="45.53092551113277" lon="10.164900439616092"><ele>126.0</ele><time>2026-04-12T06:52:35Z</time></trkpt><trkpt lat="45.53076776971996" lon="10.16520384886753"><ele>126.0</ele><time>2026-04-12T06:52:36Z</time></trkpt><trkpt lat="45.53061009907832" lon="10.165506703066763"><ele>126.0</ele><time>2026-04-12T06:52:37Z</time></trkpt><trkpt lat="45.530453268173936" lon="10.165811698865808"><ele>126.0</ele><time>2026-04-12T06:52:38Z</time></trkpt><trkpt lat="45.53029771373854" lon="10.166119020750155"><ele>126.0</ele><time>2026-04-12T06:52:39Z</time></trkpt><trkpt lat="45.530139866267135" lon="10.166423442444449"><ele>126.0</ele><time>2026-04-12T06:52:40Z</time></trkpt><trkpt lat="45.529982962490045" lon="10.16673267715827"><ele>126.0</ele><time>2026-04-12T06:52:41Z</time></trkpt><trkpt lat="45.52982793569931" lon="10.167041074836856"><ele>126.0</ele><time>2026-04-12T06:52:42Z</time></trkpt><trkpt lat="45.52967280240332" lon="10.167346146520451"><ele>126.0</ele><time>2026-04-12T06:52:43Z</time></trkpt><trkpt lat="45.5295139431967" lon="10.167660124224826"><ele>126.0</ele><time>2026-04-12T06:52:44Z</time></trkpt><trkpt lat="45.52935337962581" lon="10.167967704830692"><ele>126.0</ele><time>2026-04-12T06:52:45Z</time></trkpt><trkpt lat="45.529192583382766" lon="10.168278388357287"><ele>127.0</ele><time>2026-04-12T06:52:46Z</time></trkpt><trkpt lat="45.52902632962126" lon="10.168592707225137"><ele>128.0</ele><time>2026-04-12T06:52:47Z</time></trkpt><trkpt lat="45.528864282066394" lon="10.168908452305049"><ele>128.0</ele><time>2026-04-12T06:52:48Z</time></trkpt><trkpt lat="45.52870151482978" lon="10.169223811811483"><ele>128.0</ele><time>2026-04-12T06:52:49Z</time></trkpt><trkpt lat="45.52853831880428" lon="10.169540938626227"><ele>128.0</ele><time>2026-04-12T06:52:50Z</time></trkpt><trkpt lat="45.528374823261885" lon="10.169856646655035"><ele>128.0</ele><time>2026-04-12T06:52:51Z</time></trkpt><trkpt lat="45.528210187576505" lon="10.17017383217215"><ele>127.5</ele><time>2026-04-12T06:52:52Z</time></trkpt><trkpt lat="45.52804741321198" lon="10.170489849047593"><ele>127.0</ele><time>2026-04-12T06:52:53Z</time></trkpt><trkpt lat="45.5278864927254" lon="10.170808474331874"><ele>126.5</ele><time>2026-04-12T06:52:54Z</time></trkpt><trkpt lat="45.527677161587846" lon="10.171079590526709"><ele>126.0</ele><time>2026-04-12T06:52:55Z</time></trkpt><trkpt lat="45.527570846766665" lon="10.171445190003258"><ele>126.0</ele><time>2026-04-12T06:52:56Z</time></trkpt><trkpt lat="45.5274149928932" lon="10.171765289603428"><ele>126.0</ele><time>2026-04-12T06:52:57Z</time></trkpt><trkpt lat="45.527255935261685" lon="10.172082039726854"><ele>125.0</ele><time>2026-04-12T06:52:58Z</time></trkpt><trkpt lat="45.52709374320527" lon="10.172394379756161"><ele>124.0</ele><time>2026-04-12T06:52:59Z</time></trkpt><trkpt lat="45.5269310038073" lon="10.172705912128158"><ele>124.0</ele><time>2026-04-12T06:53:00Z</time></trkpt><trkpt lat="45.52676802621495" lon="10.173019334503248"><ele>124.0</ele><time>2026-04-12T06:53:01Z</time></trkpt><trkpt lat="45.52660966003678" lon="10.173334569713264"><ele>124.5</ele><time>2026-04-12T06:53:02Z</time></trkpt><trkpt lat="45.52645346890473" lon="10.173654163550545"><ele>125.0</ele><time>2026-04-12T06:53:03Z</time></trkpt><trkpt lat="45.5262995673214" lon="10.173973953501545"><ele>125.5</ele><time>2026-04-12T06:53:04Z</time></trkpt><trkpt lat="45.52614526170655" lon="10.174296078676413"><ele>126.0</ele><time>2026-04-12T06:53:05Z</time></trkpt><trkpt lat="45.52599536370572" lon="10.174621160466733"><ele>125.5</ele><time>2026-04-12T06:53:06Z</time></trkpt><trkpt lat="45.525841611741754" lon="10.17494464383288"><ele>125.0</ele><time>2026-04-12T06:53:07Z</time></trkpt><trkpt lat="45.525694680110554" lon="10.175275019775444"><ele>125.0</ele><time>2026-04-12T06:53:08Z</time></trkpt><trkpt lat="45.525546818426506" lon="10.175609934735807"><ele>125.0</ele><time>2026-04-12T06:53:09Z</time></trkpt><trkpt lat="45.52540122362654" lon="10.175948116348343"><ele>125.0</ele><time>2026-04-12T06:53:10Z</time></trkpt><trkpt lat="45.525257478772694" lon="10.176287004216045"><ele>125.0</ele><time>2026-04-12T06:53:11Z</time></trkpt><trkpt lat="45.52511511750352" lon="10.176625730843762"><ele>126.0</ele><time>2026-04-12T06:53:12Z</time></trkpt><trkpt lat="45.5249729933618" lon="10.176967205117888"><ele>127.0</ele><time>2026-04-12T06:53:13Z</time></trkpt><trkpt lat="45.52483205055606" lon="10.177309992908771"><ele>126.5</ele><time>2026-04-12T06:53:14Z</time></trkpt><trkpt lat="45.52469416217945" lon="10.177652746806036"><ele>126.0</ele><time>2026-04-12T06:53:15Z</time></trkpt><trkpt lat="45.52455763557283" lon="10.177997918546675"><ele>125.5</ele><time>2026-04-12T06:53:16Z</time></trkpt><trkpt lat="45.52442282878093" lon="10.178343147416216"><ele>125.0</ele><time>2026-04-12T06:53:17Z</time></trkpt><trkpt lat="45.52428736910844" lon="10.178690365128956"><ele>125.0</ele><time>2026-04-12T06:53:18Z</time></trkpt><trkpt lat="45.52415097130852" lon="10.179034518148843"><ele>125.0</ele><time>2026-04-12T06:53:19Z</time></trkpt><trkpt lat="45.52401225852848" lon="10.179379568910486"><ele>125.0</ele><time>2026-04-12T06:53:20Z</time></trkpt><trkpt lat="45.52387485811453" lon="10.179721658465896"><ele>125.0</ele><time>2026-04-12T06:53:21Z</time></trkpt><trkpt lat="45.52373714547869" lon="10.180063867826318"><ele>125.0</ele><time>2026-04-12T06:53:22Z</time></trkpt><trkpt lat="45.52359901200051" lon="10.180404157374518"><ele>125.0</ele><time>2026-04-12T06:53:23Z</time></trkpt><trkpt lat="45.523463698063615" lon="10.18074383219452"><ele>125.0</ele><time>2026-04-12T06:53:24Z</time></trkpt><trkpt lat="45.52333131985454" lon="10.181090409928666"><ele>125.0</ele><time>2026-04-12T06:53:25Z</time></trkpt><trkpt lat="45.523204221582326" lon="10.18143037208033"><ele>125.0</ele><time>2026-04-12T06:53:26Z</time></trkpt><trkpt lat="45.523084189358826" lon="10.181779301172218"><ele>125.0</ele><time>2026-04-12T06:53:27Z</time></trkpt><trkpt lat="45.52297018261086" lon="10.182132248179114"><ele>124.5</ele><time>2026-04-12T06:53:28Z</time></trkpt><trkpt lat="45.52286335105048" lon="10.18249062110297"><ele>124.0</ele><time>2026-04-12T06:53:29Z</time></trkpt><trkpt lat="45.52276307588854" lon="10.182853571538342"><ele>123.5</ele><time>2026-04-12T06:53:30Z</time></trkpt><trkpt lat="45.52266420805755" lon="10.18322183951637"><ele>123.0</ele><time>2026-04-12T06:53:31Z</time></trkpt><trkpt lat="45.522571782203215" lon="10.183595434656098"><ele>123.0</ele><time>2026-04-12T06:53:31.999Z</time></trkpt><trkpt lat="45.52247875482833" lon="10.183961348482852"><ele>123.0</ele><time>2026-04-12T06:53:32.999Z</time></trkpt><trkpt lat="45.522392226168094" lon="10.184331323007378"><ele>123.0</ele><time>2026-04-12T06:53:33.999Z</time></trkpt><trkpt lat="45.5223066012079" lon="10.184700579825307"><ele>123.0</ele><time>2026-04-12T06:53:34.999Z</time></trkpt><trkpt lat="45.522217882041424" lon="10.185075418406752"><ele>123.0</ele><time>2026-04-12T06:53:35.999Z</time></trkpt><trkpt lat="45.52213171667775" lon="10.185442961457195"><ele>123.0</ele><time>2026-04-12T06:53:36.999Z</time></trkpt><trkpt lat="45.52204071582628" lon="10.185817951389273"><ele>122.5</ele><time>2026-04-12T06:53:37.999Z</time></trkpt><trkpt lat="45.52195005460331" lon="10.18618894479096"><ele>122.0</ele><time>2026-04-12T06:53:38.999Z</time></trkpt><trkpt lat="45.521860366743226" lon="10.186566854997519"><ele>121.5</ele><time>2026-04-12T06:53:39.999Z</time></trkpt><trkpt lat="45.52177067429279" lon="10.18694028262216"><ele>121.0</ele><time>2026-04-12T06:53:40.999Z</time></trkpt><trkpt lat="45.52167928019915" lon="10.18731796122556"><ele>122.0</ele><time>2026-04-12T06:53:41.999Z</time></trkpt><trkpt lat="45.52158685993851" lon="10.187694659054404"><ele>123.0</ele><time>2026-04-12T06:53:42.999Z</time></trkpt><trkpt lat="45.521497240276624" lon="10.188071710540349"><ele>123.0</ele><time>2026-04-12T06:53:43.999Z</time></trkpt><trkpt lat="45.5214102548996" lon="10.188447679168064"><ele>123.0</ele><time>2026-04-12T06:53:44.999Z</time></trkpt><trkpt lat="45.52132026313424" lon="10.188821805085672"><ele>123.5</ele><time>2026-04-12T06:53:45.999Z</time></trkpt><trkpt lat="45.521229086850056" lon="10.189196478244682"><ele>124.0</ele><time>2026-04-12T06:53:46.999Z</time></trkpt><trkpt lat="45.5211390698055" lon="10.189567851222618"><ele>125.0</ele><time>2026-04-12T06:53:48Z</time></trkpt><trkpt lat="45.52105040242931" lon="10.189936886908447"><ele>126.0</ele><time>2026-04-12T06:53:49Z</time></trkpt><trkpt lat="45.52096133485585" lon="10.190300088787234"><ele>126.0</ele><time>2026-04-12T06:53:50Z</time></trkpt><trkpt lat="45.52086943965598" lon="10.190660472883204"><ele>126.0</ele><time>2026-04-12T06:53:51Z</time></trkpt><trkpt lat="45.52077691780774" lon="10.19101505552678"><ele>126.0</ele><time>2026-04-12T06:53:52Z</time></trkpt><trkpt lat="45.52068078313307" lon="10.191369081661012"><ele>126.0</ele><time>2026-04-12T06:53:53Z</time></trkpt><trkpt lat="45.52058566685364" lon="10.19172365908343"><ele>126.0</ele><time>2026-04-12T06:53:54Z</time></trkpt><trkpt lat="45.5204960636247" lon="10.192073670917411"><ele>126.0</ele><time>2026-04-12T06:53:55Z</time></trkpt><trkpt lat="45.52040911089077" lon="10.192432325933444"><ele>126.5</ele><time>2026-04-12T06:53:56Z</time></trkpt><trkpt lat="45.52033899256784" lon="10.192773838538631"><ele>127.0</ele><time>2026-04-12T06:53:57Z</time></trkpt><trkpt lat="45.52025168253232" lon="10.193133525879015"><ele>126.5</ele><time>2026-04-12T06:53:58Z</time></trkpt><trkpt lat="45.52016949702248" lon="10.193482550739134"><ele>126.0</ele><time>2026-04-12T06:53:59Z</time></trkpt><trkpt lat="45.52008373045377" lon="10.19382732758265"><ele>125.5</ele><time>2026-04-12T06:54:00Z</time></trkpt><trkpt lat="45.520000512993356" lon="10.194177390055446"><ele>125.0</ele><time>2026-04-12T06:54:01Z</time></trkpt><trkpt lat="45.519916980869326" lon="10.194528199899676"><ele>124.0</ele><time>2026-04-12T06:54:02Z</time></trkpt><trkpt lat="45.51983136936773" lon="10.194877678035127"><ele>123.0</ele><time>2026-04-12T06:54:03Z</time></trkpt><trkpt lat="45.519746817598794" lon="10.195227914305178"><ele>123.0</ele><time>2026-04-12T06:54:04Z</time></trkpt><trkpt lat="45.519663317781955" lon="10.19557786463507"><ele>123.0</ele><time>2026-04-12T06:54:05Z</time></trkpt><trkpt lat="45.519577057875246" lon="10.195926815714602"><ele>122.5</ele><time>2026-04-12T06:54:06Z</time></trkpt><trkpt lat="45.51949007065297" lon="10.196281072441131"><ele>122.0</ele><time>2026-04-12T06:54:07Z</time></trkpt><trkpt lat="45.5194059989158" lon="10.196636470762321"><ele>123.0</ele><time>2026-04-12T06:54:08Z</time></trkpt><trkpt lat="45.51931819712623" lon="10.19698514304661"><ele>124.0</ele><time>2026-04-12T06:54:09Z</time></trkpt><trkpt lat="45.51923793108816" lon="10.19733354008375"><ele>123.5</ele><time>2026-04-12T06:54:10Z</time></trkpt><trkpt lat="45.51915359824912" lon="10.197697300603837"><ele>123.0</ele><time>2026-04-12T06:54:11Z</time></trkpt><trkpt lat="45.51906718293203" lon="10.198053297164286"><ele>122.5</ele><time>2026-04-12T06:54:12Z</time></trkpt><trkpt lat="45.51898050829986" lon="10.198397263073353"><ele>122.0</ele><time>2026-04-12T06:54:13Z</time></trkpt><trkpt lat="45.51890403061705" lon="10.198719513146381"><ele>122.0</ele><time>2026-04-12T06:54:14Z</time></trkpt><trkpt lat="45.51882549082248" lon="10.199031162114885"><ele>122.0</ele><time>2026-04-12T06:54:15Z</time></trkpt><trkpt lat="45.51874952775384" lon="10.19932682631511"><ele>122.0</ele><time>2026-04-12T06:54:16Z</time></trkpt><trkpt lat="45.518682109273904" lon="10.199611922774494"><ele>122.0</ele><time>2026-04-12T06:54:17Z</time></trkpt><trkpt lat="45.518618511284224" lon="10.199889190436767"><ele>122.0</ele><time>2026-04-12T06:54:18Z</time></trkpt><trkpt lat="45.5185486633497" lon="10.20016078272272"><ele>122.0</ele><time>2026-04-12T06:54:19Z</time></trkpt><trkpt lat="45.51847921184852" lon="10.200419316716905"><ele>122.0</ele><time>2026-04-12T06:54:20Z</time></trkpt><trkpt lat="45.51841155841943" lon="10.20066353790478"><ele>122.0</ele><time>2026-04-12T06:54:21Z</time></trkpt><trkpt lat="45.518354589114445" lon="10.200898597416606"><ele>122.0</ele><time>2026-04-12T06:54:22Z</time></trkpt><trkpt lat="45.518295359491134" lon="10.201129414597258"><ele>122.0</ele><time>2026-04-12T06:54:23Z</time></trkpt><trkpt lat="45.518239765108106" lon="10.201351710062129"><ele>122.0</ele><time>2026-04-12T06:54:24Z</time></trkpt><trkpt lat="45.51818520895563" lon="10.201561056862811"><ele>122.0</ele><time>2026-04-12T06:54:25Z</time></trkpt><trkpt lat="45.51813591364227" lon="10.201762555065985"><ele>122.0</ele><time>2026-04-12T06:54:26Z</time></trkpt><trkpt lat="45.51808550044024" lon="10.201949395366501"><ele>122.0</ele><time>2026-04-12T06:54:27Z</time></trkpt><trkpt lat="45.518037801081654" lon="10.202124995833294"><ele>122.0</ele><time>2026-04-12T06:54:28Z</time></trkpt><trkpt lat="45.517989531022245" lon="10.202271924137282"><ele>122.19999999999999</ele><time>2026-04-12T06:54:29Z</time></trkpt><trkpt lat="45.51793599873743" lon="10.202412221105167"><ele>122.39999999999999</ele><time>2026-04-12T06:54:30Z</time></trkpt><trkpt lat="45.517863646007285" lon="10.202525569976077"><ele>122.60000000000001</ele><time>2026-04-12T06:54:31Z</time></trkpt><trkpt lat="45.5177900674225" lon="10.202616000580562"><ele>122.80000000000001</ele><time>2026-04-12T06:54:32Z</time></trkpt><trkpt lat="45.517784895841835" lon="10.202741029193792"><ele>123.0</ele><time>2026-04-12T06:54:33Z</time></trkpt><trkpt lat="45.5176591990711" lon="10.202778906274036"><ele>122.66666666666667</ele><time>2026-04-12T06:54:34Z</time></trkpt><trkpt lat="45.517596469294546" lon="10.202847861486138"><ele>122.33333333333334</ele><time>2026-04-12T06:54:35Z</time></trkpt><trkpt lat="45.51754256030694" lon="10.20291401355399"><ele>122.0</ele><time>2026-04-12T06:54:36Z</time></trkpt><trkpt lat="45.51747547614703" lon="10.20304075971347"><ele>121.66666666666667</ele><time>2026-04-12T06:54:38Z</time></trkpt><trkpt lat="45.517473198309204" lon="10.203155039781585"><ele>121.33333333333334</ele><time>2026-04-12T06:54:40Z</time></trkpt><trkpt lat="45.5175220199864" lon="10.203219240149345"><ele>121.0</ele><time>2026-04-12T06:54:42Z</time></trkpt><trkpt lat="45.51760271858621" lon="10.20327184916443"><ele>121.00000000000001</ele><time>2026-04-12T07:09:19Z</time></trkpt><trkpt lat="45.51764645007857" lon="10.20335027922332"><ele>121.0</ele><time>2026-04-12T07:09:21Z</time></trkpt><trkpt lat="45.51761502703315" lon="10.20349925932931"><ele>121.0</ele><time>2026-04-12T07:09:23Z</time></trkpt><trkpt lat="45.517621202672665" lon="10.203592466985679"><ele>121.0</ele><time>2026-04-12T07:09:24Z</time></trkpt><trkpt lat="45.51759942290132" lon="10.203688740886141"><ele>121.00000000000001</ele><time>2026-04-12T07:09:25Z</time></trkpt><trkpt lat="45.517573252657726" lon="10.20379183590705"><ele>121.0</ele><time>2026-04-12T07:09:26Z</time></trkpt><trkpt lat="45.51753716887013" lon="10.203900187941219"><ele>121.0</ele><time>2026-04-12T07:09:27Z</time></trkpt><trkpt lat="45.51749858044522" lon="10.204011189785387"><ele>121.0</ele><time>2026-04-12T07:09:28Z</time></trkpt><trkpt lat="45.51745812180676" lon="10.204118666764135"><ele>121.0</ele><time>2026-04-12T07:09:29Z</time></trkpt><trkpt lat="45.517414456140585" lon="10.20422856623461"><ele>121.0</ele><time>2026-04-12T07:09:30Z</time></trkpt><trkpt lat="45.51736764945" lon="10.20435025951688"><ele>121.0</ele><time>2026-04-12T07:09:31Z</time></trkpt><trkpt lat="45.517312315481774" lon="10.204494164050779"><ele>121.0</ele><time>2026-04-12T07:09:32Z</time></trkpt><trkpt lat="45.51724908717509" lon="10.204661596274097"><ele>121.0</ele><time>2026-04-12T07:09:33Z</time></trkpt><trkpt lat="45.517169847191475" lon="10.204859403405145"><ele>121.0</ele><time>2026-04-12T07:09:34Z</time></trkpt><trkpt lat="45.517084346150995" lon="10.20507688806212"><ele>121.0</ele><time>2026-04-12T07:09:35Z</time></trkpt><trkpt lat="45.51698435247648" lon="10.205293697790887"><ele>121.0</ele><time>2026-04-12T07:09:36Z</time></trkpt><trkpt lat="45.51688745857669" lon="10.205548751823267"><ele>121.0</ele><time>2026-04-12T07:09:37Z</time></trkpt><trkpt lat="45.516763162459355" lon="10.205804841440672"><ele>121.0</ele><time>2026-04-12T07:09:38Z</time></trkpt><trkpt lat="45.516632152335994" lon="10.2060589662371"><ele>121.0</ele><time>2026-04-12T07:09:39Z</time></trkpt><trkpt lat="45.51649884036382" lon="10.206301179588769"><ele>121.0</ele><time>2026-04-12T07:09:40Z</time></trkpt><trkpt lat="45.51636528904192" lon="10.206541392720498"><ele>121.33333333333334</ele><time>2026-04-12T07:09:41Z</time></trkpt><trkpt lat="45.51622962450087" lon="10.206778173562027"><ele>121.66666666666666</ele><time>2026-04-12T07:09:42Z</time></trkpt><trkpt lat="45.516091436390106" lon="10.207021770529257"><ele>122.0</ele><time>2026-04-12T07:09:43Z</time></trkpt><trkpt lat="45.515951155683375" lon="10.207271581381395"><ele>121.0</ele><time>2026-04-12T07:09:44Z</time></trkpt><trkpt lat="45.51580841620572" lon="10.207520367029165"><ele>120.0</ele><time>2026-04-12T07:09:45Z</time></trkpt><trkpt lat="45.51565891588303" lon="10.207772819596824"><ele>120.0</ele><time>2026-04-12T07:09:46Z</time></trkpt><trkpt lat="45.515508775895825" lon="10.2080288945537"><ele>120.0</ele><time>2026-04-12T07:09:47Z</time></trkpt><trkpt lat="45.51535572427594" lon="10.208285481704603"><ele>119.0</ele><time>2026-04-12T07:09:48Z</time></trkpt><trkpt lat="45.51520226082735" lon="10.208544021593713"><ele>118.0</ele><time>2026-04-12T07:09:49Z</time></trkpt><trkpt lat="45.51504622142946" lon="10.208802934611512"><ele>119.0</ele><time>2026-04-12T07:09:50Z</time></trkpt><trkpt lat="45.51489175481157" lon="10.209056752787747"><ele>120.0</ele><time>2026-04-12T07:09:51Z</time></trkpt><trkpt lat="45.5147358900244" lon="10.20931900952775"><ele>120.0</ele><time>2026-04-12T07:09:52Z</time></trkpt><trkpt lat="45.51458221178392" lon="10.209578492353543"><ele>120.0</ele><time>2026-04-12T07:09:53Z</time></trkpt><trkpt lat="45.51442553458451" lon="10.209839390022378"><ele>120.0</ele><time>2026-04-12T07:09:54Z</time></trkpt><trkpt lat="45.51427311410618" lon="10.210100894019345"><ele>120.0</ele><time>2026-04-12T07:09:55Z</time></trkpt><trkpt lat="45.51412139831955" lon="10.2103665314842"><ele>120.0</ele><time>2026-04-12T07:09:56Z</time></trkpt><trkpt lat="45.51397017840488" lon="10.210639328134407"><ele>120.0</ele><time>2026-04-12T07:09:57Z</time></trkpt><trkpt lat="45.51382580036454" lon="10.210917537887717"><ele>120.5</ele><time>2026-04-12T07:09:58Z</time></trkpt><trkpt lat="45.513687304266824" lon="10.211204712424973"><ele>121.0</ele><time>2026-04-12T07:09:59Z</time></trkpt><trkpt lat="45.51355580839678" lon="10.211493590733378"><ele>121.5</ele><time>2026-04-12T07:10:00Z</time></trkpt><trkpt lat="45.513430734378886" lon="10.211790121254543"><ele>122.0</ele><time>2026-04-12T07:10:01Z</time></trkpt><trkpt lat="45.513310015361554" lon="10.21209119634515"><ele>122.0</ele><time>2026-04-12T07:10:01.999Z</time></trkpt><trkpt lat="45.51319370227609" lon="10.212396582334486"><ele>122.0</ele><time>2026-04-12T07:10:02.999Z</time></trkpt><trkpt lat="45.51308638118254" lon="10.212701403329538"><ele>122.0</ele><time>2026-04-12T07:10:03.999Z</time></trkpt><trkpt lat="45.51298584274919" lon="10.213009882991738"><ele>122.0</ele><time>2026-04-12T07:10:04.999Z</time></trkpt><trkpt lat="45.51288771345458" lon="10.213325775833342"><ele>120.5</ele><time>2026-04-12T07:10:05.999Z</time></trkpt><trkpt lat="45.51279447892051" lon="10.213643743205552"><ele>119.0</ele><time>2026-04-12T07:10:06.999Z</time></trkpt><trkpt lat="45.51270680078561" lon="10.213964589966016"><ele>119.0</ele><time>2026-04-12T07:10:07.999Z</time></trkpt><trkpt lat="45.51262634975001" lon="10.214298647363684"><ele>119.0</ele><time>2026-04-12T07:10:08.999Z</time></trkpt><trkpt lat="45.51255577264242" lon="10.214634772856677"><ele>119.0</ele><time>2026-04-12T07:10:09.999Z</time></trkpt><trkpt lat="45.5124834554629" lon="10.214970540596399"><ele>119.0</ele><time>2026-04-12T07:10:10.999Z</time></trkpt><trkpt lat="45.512412050250944" lon="10.215302349342654"><ele>119.0</ele><time>2026-04-12T07:10:11.999Z</time></trkpt><trkpt lat="45.51233213836747" lon="10.215641147551759"><ele>119.0</ele><time>2026-04-12T07:10:12.999Z</time></trkpt><trkpt lat="45.51225613877843" lon="10.215974117679265"><ele>120.0</ele><time>2026-04-12T07:10:13.999Z</time></trkpt><trkpt lat="45.51217940594254" lon="10.21630679611741"><ele>121.0</ele><time>2026-04-12T07:10:14.999Z</time></trkpt><trkpt lat="45.5121012195546" lon="10.216641323178127"><ele>120.0</ele><time>2026-04-12T07:10:15.999Z</time></trkpt><trkpt lat="45.51202266345157" lon="10.216978999806392"><ele>119.0</ele><time>2026-04-12T07:10:16.999Z</time></trkpt><trkpt lat="45.511941488816404" lon="10.21731811671727"><ele>120.5</ele><time>2026-04-12T07:10:17.999Z</time></trkpt><trkpt lat="45.51186117150917" lon="10.217663268125175"><ele>122.0</ele><time>2026-04-12T07:10:18.999Z</time></trkpt><trkpt lat="45.51178219639181" lon="10.21800789276676"><ele>122.0</ele><time>2026-04-12T07:10:19.999Z</time></trkpt><trkpt lat="45.51169983976407" lon="10.218357667860365"><ele>122.0</ele><time>2026-04-12T07:10:20.999Z</time></trkpt><trkpt lat="45.51161729414679" lon="10.218710994891632"><ele>122.5</ele><time>2026-04-12T07:10:21.999Z</time></trkpt><trkpt lat="45.5115359042011" lon="10.219062857296734"><ele>123.0</ele><time>2026-04-12T07:10:22.999Z</time></trkpt><trkpt lat="45.51145422380921" lon="10.219418808091065"><ele>123.0</ele><time>2026-04-12T07:10:23.999Z</time></trkpt><trkpt lat="45.51137131333415" lon="10.21976673182096"><ele>123.0</ele><time>2026-04-12T07:10:24.999Z</time></trkpt><trkpt lat="45.511288742725945" lon="10.220117758534924"><ele>122.5</ele><time>2026-04-12T07:10:25.999Z</time></trkpt><trkpt lat="45.511206447834255" lon="10.220469550650671"><ele>122.0</ele><time>2026-04-12T07:10:26.999Z</time></trkpt><trkpt lat="45.51112668111933" lon="10.22081981149918"><ele>122.0</ele><time>2026-04-12T07:10:27.999Z</time></trkpt><trkpt lat="45.51104384450059" lon="10.22117212548797"><ele>122.0</ele><time>2026-04-12T07:10:28.999Z</time></trkpt><trkpt lat="45.51096287572255" lon="10.221525581507986"><ele>121.5</ele><time>2026-04-12T07:10:29.999Z</time></trkpt><trkpt lat="45.51087919423851" lon="10.221878507330104"><ele>121.0</ele><time>2026-04-12T07:10:30.999Z</time></trkpt><trkpt lat="45.51079601694388" lon="10.222232263344011"><ele>121.5</ele><time>2026-04-12T07:10:31.999Z</time></trkpt><trkpt lat="45.51071348623874" lon="10.222582774256802"><ele>122.0</ele><time>2026-04-12T07:10:32.999Z</time></trkpt><trkpt lat="45.510634261717755" lon="10.222936725344223"><ele>120.5</ele><time>2026-04-12T07:10:33.999Z</time></trkpt><trkpt lat="45.510556854952895" lon="10.223291639215788"><ele>119.0</ele><time>2026-04-12T07:10:34.999Z</time></trkpt><trkpt lat="45.510486636095145" lon="10.223654124638367"><ele>119.0</ele><time>2026-04-12T07:10:36Z</time></trkpt><trkpt lat="45.51042491856602" lon="10.224014723866336"><ele>119.0</ele><time>2026-04-12T07:10:37Z</time></trkpt><trkpt lat="45.51037279508222" lon="10.224381226667017"><ele>119.0</ele><time>2026-04-12T07:10:38Z</time></trkpt><trkpt lat="45.51032535814801" lon="10.224748303429571"><ele>119.0</ele><time>2026-04-12T07:10:39Z</time></trkpt><trkpt lat="45.510285817253425" lon="10.225113268076576"><ele>119.0</ele><time>2026-04-12T07:10:40Z</time></trkpt><trkpt lat="45.5102542932706" lon="10.225479529902994"><ele>119.0</ele><time>2026-04-12T07:10:41Z</time></trkpt><trkpt lat="45.51023393170684" lon="10.225845367190715"><ele>118.5</ele><time>2026-04-12T07:10:42Z</time></trkpt><trkpt lat="45.51022368525638" lon="10.226212245065332"><ele>118.0</ele><time>2026-04-12T07:10:43Z</time></trkpt><trkpt lat="45.51022183682493" lon="10.22658197291254"><ele>118.0</ele><time>2026-04-12T07:10:44Z</time></trkpt><trkpt lat="45.51022247549922" lon="10.226953087940727"><ele>118.0</ele><time>2026-04-12T07:10:45Z</time></trkpt><trkpt lat="45.51021877569098" lon="10.227321367023139"><ele>118.0</ele><time>2026-04-12T07:10:46Z</time></trkpt><trkpt lat="45.51020907775251" lon="10.22769070474947"><ele>118.0</ele><time>2026-04-12T07:10:47Z</time></trkpt><trkpt lat="45.51019360339384" lon="10.228056030660973"><ele>118.0</ele><time>2026-04-12T07:10:48Z</time></trkpt><trkpt lat="45.51017282544784" lon="10.228424146585409"><ele>118.0</ele><time>2026-04-12T07:10:49Z</time></trkpt><trkpt lat="45.51014566388493" lon="10.228789643597407"><ele>117.5</ele><time>2026-04-12T07:10:50Z</time></trkpt><trkpt lat="45.51011632543733" lon="10.229157031637008"><ele>117.0</ele><time>2026-04-12T07:10:51Z</time></trkpt><trkpt lat="45.51008427899319" lon="10.22952483858138"><ele>117.5</ele><time>2026-04-12T07:10:52Z</time></trkpt><trkpt lat="45.51005596381451" lon="10.229888214865445"><ele>118.0</ele><time>2026-04-12T07:10:53Z</time></trkpt><trkpt lat="45.5100302937216" lon="10.230259734052368"><ele>118.0</ele><time>2026-04-12T07:10:54Z</time></trkpt><trkpt lat="45.51000303253822" lon="10.230632344355632"><ele>118.0</ele><time>2026-04-12T07:10:55Z</time></trkpt><trkpt lat="45.50997555228952" lon="10.231004120611372"><ele>118.0</ele><time>2026-04-12T07:10:56Z</time></trkpt><trkpt lat="45.50994859643099" lon="10.231381459367475"><ele>118.0</ele><time>2026-04-12T07:10:57Z</time></trkpt><trkpt lat="45.509923822716004" lon="10.23176095661617"><ele>118.0</ele><time>2026-04-12T07:10:58Z</time></trkpt><trkpt lat="45.50989717276016" lon="10.232140202681771"><ele>118.0</ele><time>2026-04-12T07:10:59Z</time></trkpt><trkpt lat="45.50986878308827" lon="10.232527067245861"><ele>116.5</ele><time>2026-04-12T07:11:00Z</time></trkpt><trkpt lat="45.50983905003532" lon="10.232912429296023"><ele>115.0</ele><time>2026-04-12T07:11:01Z</time></trkpt><trkpt lat="45.50980978563585" lon="10.233300309722342"><ele>115.0</ele><time>2026-04-12T07:11:02Z</time></trkpt><trkpt lat="45.50978129926852" lon="10.233688763742514"><ele>115.0</ele><time>2026-04-12T07:11:03Z</time></trkpt><trkpt lat="45.50975452345906" lon="10.234074616289874"><ele>116.0</ele><time>2026-04-12T07:11:04Z</time></trkpt><trkpt lat="45.509727275528846" lon="10.234444613364182"><ele>117.0</ele><time>2026-04-12T07:11:05Z</time></trkpt><trkpt lat="45.50970145051682" lon="10.234797155811377"><ele>117.0</ele><time>2026-04-12T07:11:06Z</time></trkpt><trkpt lat="45.509672391152925" lon="10.235138555358443"><ele>117.0</ele><time>2026-04-12T07:11:07Z</time></trkpt><trkpt lat="45.50964329306672" lon="10.235467830185868"><ele>117.33333333333334</ele><time>2026-04-12T07:11:08Z</time></trkpt><trkpt lat="45.50961592734556" lon="10.235784859942344"><ele>117.66666666666667</ele><time>2026-04-12T07:11:09Z</time></trkpt><trkpt lat="45.509588640107246" lon="10.236089949063043"><ele>118.0</ele><time>2026-04-12T07:11:10Z</time></trkpt><trkpt lat="45.509556848833796" lon="10.236389507704361"><ele>117.33333333333334</ele><time>2026-04-12T07:11:11Z</time></trkpt><trkpt lat="45.509516377607234" lon="10.236683020614404"><ele>116.66666666666666</ele><time>2026-04-12T07:11:12Z</time></trkpt><trkpt lat="45.509471737285125" lon="10.236975770473489"><ele>116.0</ele><time>2026-04-12T07:11:13Z</time></trkpt><trkpt lat="45.509425180722744" lon="10.23726472725454"><ele>116.0</ele><time>2026-04-12T07:11:14Z</time></trkpt><trkpt lat="45.50937586571373" lon="10.237550114427687"><ele>116.0</ele><time>2026-04-12T07:11:15Z</time></trkpt><trkpt lat="45.509321910039695" lon="10.237836460341068"><ele>116.0</ele><time>2026-04-12T07:11:16Z</time></trkpt><trkpt lat="45.509264117916125" lon="10.23811738310588"><ele>115.0</ele><time>2026-04-12T07:11:17Z</time></trkpt><trkpt lat="45.509201281144" lon="10.238397117852783"><ele>114.0</ele><time>2026-04-12T07:11:18Z</time></trkpt><trkpt lat="45.509135096515415" lon="10.23867765895465"><ele>113.0</ele><time>2026-04-12T07:11:19Z</time></trkpt><trkpt lat="45.50906618110295" lon="10.238954662355313"><ele>114.0</ele><time>2026-04-12T07:11:20Z</time></trkpt><trkpt lat="45.508990257544276" lon="10.239230039819386"><ele>115.0</ele><time>2026-04-12T07:11:21Z</time></trkpt><trkpt lat="45.508911214338724" lon="10.239502082496934"><ele>116.0</ele><time>2026-04-12T07:11:22Z</time></trkpt><trkpt lat="45.50882864769309" lon="10.239774549584807"><ele>116.66666666666666</ele><time>2026-04-12T07:11:23Z</time></trkpt><trkpt lat="45.50874331316126" lon="10.240042617149985"><ele>117.33333333333334</ele><time>2026-04-12T07:11:24Z</time></trkpt><trkpt lat="45.50865463936518" lon="10.240310924544666"><ele>118.0</ele><time>2026-04-12T07:11:25Z</time></trkpt><trkpt lat="45.50856307201366" lon="10.24057711570987"><ele>117.0</ele><time>2026-04-12T07:11:26Z</time></trkpt><trkpt lat="45.508465625438475" lon="10.240846151585341"><ele>116.0</ele><time>2026-04-12T07:11:27Z</time></trkpt><trkpt lat="45.50836486301176" lon="10.24111006096029"><ele>115.0</ele><time>2026-04-12T07:11:28Z</time></trkpt><trkpt lat="45.50826194966171" lon="10.241370887943193"><ele>115.66666666666667</ele><time>2026-04-12T07:11:29Z</time></trkpt><trkpt lat="45.508155169149354" lon="10.24163003200875"><ele>116.33333333333334</ele><time>2026-04-12T07:11:30Z</time></trkpt><trkpt lat="45.508046693478406" lon="10.241886556002738"><ele>117.0</ele><time>2026-04-12T07:11:31Z</time></trkpt><trkpt lat="45.5079319450538" lon="10.242141695526152"><ele>117.0</ele><time>2026-04-12T07:11:32Z</time></trkpt><trkpt lat="45.50781280182394" lon="10.242389812841118"><ele>117.0</ele><time>2026-04-12T07:11:33Z</time></trkpt><trkpt lat="45.50768489183544" lon="10.242635656342431"><ele>117.0</ele><time>2026-04-12T07:11:34Z</time></trkpt><trkpt lat="45.50755879934914" lon="10.24287775412789"><ele>117.0</ele><time>2026-04-12T07:11:35Z</time></trkpt><trkpt lat="45.507426387831025" lon="10.243116528799952"><ele>117.0</ele><time>2026-04-12T07:11:36Z</time></trkpt><trkpt lat="45.507290763775615" lon="10.24335320237551"><ele>117.0</ele><time>2026-04-12T07:11:37Z</time></trkpt><trkpt lat="45.50715169972027" lon="10.243582121404252"><ele>117.0</ele><time>2026-04-12T07:11:38Z</time></trkpt><trkpt lat="45.507001420679345" lon="10.243800075774994"><ele>117.0</ele><time>2026-04-12T07:11:39Z</time></trkpt><trkpt lat="45.50684909545362" lon="10.244019962667188"><ele>117.0</ele><time>2026-04-12T07:11:40Z</time></trkpt><trkpt lat="45.50670839852479" lon="10.244255712446433"><ele>117.0</ele><time>2026-04-12T07:11:41Z</time></trkpt><trkpt lat="45.506568549771046" lon="10.244492526780755"><ele>117.0</ele><time>2026-04-12T07:11:42Z</time></trkpt><trkpt lat="45.506423821504015" lon="10.244724583465956"><ele>117.0</ele><time>2026-04-12T07:11:43Z</time></trkpt><trkpt lat="45.506278634462404" lon="10.244952112845775"><ele>117.0</ele><time>2026-04-12T07:11:44Z</time></trkpt><trkpt lat="45.50613536027643" lon="10.245180849634915"><ele>117.0</ele><time>2026-04-12T07:11:45Z</time></trkpt><trkpt lat="45.50599493412704" lon="10.2454087474515"><ele>117.0</ele><time>2026-04-12T07:11:46Z</time></trkpt><trkpt lat="45.50585839538793" lon="10.245638985492887"><ele>118.0</ele><time>2026-04-12T07:11:47Z</time></trkpt><trkpt lat="45.50571907821952" lon="10.245868385623274"><ele>119.0</ele><time>2026-04-12T07:11:48Z</time></trkpt><trkpt lat="45.505582027464804" lon="10.246094355205035"><ele>120.0</ele><time>2026-04-12T07:11:49Z</time></trkpt><trkpt lat="45.5054450356295" lon="10.24631918107929"><ele>120.0</ele><time>2026-04-12T07:11:50Z</time></trkpt><trkpt lat="45.50530648450971" lon="10.24654181504342"><ele>120.0</ele><time>2026-04-12T07:11:51Z</time></trkpt><trkpt lat="45.50516708292063" lon="10.24676215219483"><ele>120.0</ele><time>2026-04-12T07:11:52Z</time></trkpt><trkpt lat="45.50502675864289" lon="10.246984395140297"><ele>120.0</ele><time>2026-04-12T07:11:53Z</time></trkpt><trkpt lat="45.50488621184558" lon="10.247208346252938"><ele>120.0</ele><time>2026-04-12T07:11:54Z</time></trkpt><trkpt lat="45.504745299809734" lon="10.247433526091688"><ele>120.0</ele><time>2026-04-12T07:11:55Z</time></trkpt><trkpt lat="45.504604517791606" lon="10.247662874002925"><ele>120.33333333333334</ele><time>2026-04-12T07:11:56Z</time></trkpt><trkpt lat="45.504465918838285" lon="10.247889947578464"><ele>120.66666666666667</ele><time>2026-04-12T07:11:57Z</time></trkpt><trkpt lat="45.504325505680455" lon="10.248116169758621"><ele>121.0</ele><time>2026-04-12T07:11:57.999Z</time></trkpt><trkpt lat="45.504181075525224" lon="10.248344427544055"><ele>121.0</ele><time>2026-04-12T07:11:58.999Z</time></trkpt><trkpt lat="45.50403562755613" lon="10.248572999629227"><ele>121.0</ele><time>2026-04-12T07:11:59.999Z</time></trkpt><trkpt lat="45.503892254336684" lon="10.248802952539682"><ele>121.0</ele><time>2026-04-12T07:12:00.999Z</time></trkpt><trkpt lat="45.50374828356907" lon="10.24903252406819"><ele>120.66666666666667</ele><time>2026-04-12T07:12:01.999Z</time></trkpt><trkpt lat="45.50360649553638" lon="10.249261892105462"><ele>120.33333333333334</ele><time>2026-04-12T07:12:02.999Z</time></trkpt><trkpt lat="45.50346351407598" lon="10.249494639140094"><ele>120.0</ele><time>2026-04-12T07:12:03.999Z</time></trkpt><trkpt lat="45.50332034689135" lon="10.249723828803848"><ele>120.33333333333334</ele><time>2026-04-12T07:12:04.999Z</time></trkpt><trkpt lat="45.50317416889085" lon="10.24995650972276"><ele>120.66666666666667</ele><time>2026-04-12T07:12:05.999Z</time></trkpt><trkpt lat="45.503034498789646" lon="10.250185603456856"><ele>121.0</ele><time>2026-04-12T07:12:06.999Z</time></trkpt><trkpt lat="45.50289476386678" lon="10.250417846465133"><ele>120.66666666666667</ele><time>2026-04-12T07:12:07.999Z</time></trkpt><trkpt lat="45.50275627238112" lon="10.25065663314627"><ele>120.33333333333334</ele><time>2026-04-12T07:12:08.999Z</time></trkpt><trkpt lat="45.50262502732149" lon="10.250901180732884"><ele>120.0</ele><time>2026-04-12T07:12:09.999Z</time></trkpt><trkpt lat="45.50250120366188" lon="10.251154765361285"><ele>120.0</ele><time>2026-04-12T07:12:10.999Z</time></trkpt><trkpt lat="45.502380139546176" lon="10.251410897547066"><ele>120.0</ele><time>2026-04-12T07:12:11.999Z</time></trkpt><trkpt lat="45.50226470067124" lon="10.251673333015741"><ele>120.0</ele><time>2026-04-12T07:12:12.999Z</time></trkpt><trkpt lat="45.502154641586586" lon="10.251942545803587"><ele>119.0</ele><time>2026-04-12T07:12:13.999Z</time></trkpt><trkpt lat="45.50204972493991" lon="10.252214792912245"><ele>118.0</ele><time>2026-04-12T07:12:14.999Z</time></trkpt><trkpt lat="45.50194760069092" lon="10.252493013421585"><ele>117.0</ele><time>2026-04-12T07:12:15.999Z</time></trkpt><trkpt lat="45.50185431437125" lon="10.252773254337384"><ele>117.0</ele><time>2026-04-12T07:12:16.999Z</time></trkpt><trkpt lat="45.501766550152816" lon="10.253061093043687"><ele>117.0</ele><time>2026-04-12T07:12:17.999Z</time></trkpt><trkpt lat="45.501683608387225" lon="10.253352423019514"><ele>117.0</ele><time>2026-04-12T07:12:18.999Z</time></trkpt><trkpt lat="45.50160899655958" lon="10.25365183238259"><ele>118.0</ele><time>2026-04-12T07:12:19.999Z</time></trkpt><trkpt lat="45.5015407229139" lon="10.25394949004476"><ele>119.0</ele><time>2026-04-12T07:12:20.999Z</time></trkpt><trkpt lat="45.501477774397145" lon="10.254253081675769"><ele>120.0</ele><time>2026-04-12T07:12:21.999Z</time></trkpt><trkpt lat="45.50142326856707" lon="10.254556558658905"><ele>120.33333333333334</ele><time>2026-04-12T07:12:22.999Z</time></trkpt><trkpt lat="45.50137615272558" lon="10.25486220583106"><ele>120.66666666666667</ele><time>2026-04-12T07:12:23.999Z</time></trkpt><trkpt lat="45.50133817707991" lon="10.255165774139055"><ele>121.0</ele><time>2026-04-12T07:12:24.999Z</time></trkpt><trkpt lat="45.50130214431927" lon="10.255476172410077"><ele>120.66666666666667</ele><time>2026-04-12T07:12:25.999Z</time></trkpt><trkpt lat="45.501269773243926" lon="10.255783564553653"><ele>120.33333333333334</ele><time>2026-04-12T07:12:26.999Z</time></trkpt><trkpt lat="45.50124630456714" lon="10.256090899138787"><ele>120.0</ele><time>2026-04-12T07:12:27.999Z</time></trkpt><trkpt lat="45.50123030666624" lon="10.256402312740667"><ele>120.66666666666666</ele><time>2026-04-12T07:12:28.999Z</time></trkpt><trkpt lat="45.501217498198706" lon="10.256712523002962"><ele>121.33333333333333</ele><time>2026-04-12T07:12:29.999Z</time></trkpt><trkpt lat="45.50120654406963" lon="10.257021099073716"><ele>122.0</ele><time>2026-04-12T07:12:30.999Z</time></trkpt><trkpt lat="45.501187556918765" lon="10.257335574867513"><ele>122.0</ele><time>2026-04-12T07:12:31.999Z</time></trkpt><trkpt lat="45.50116869337307" lon="10.257643820031578"><ele>122.0</ele><time>2026-04-12T07:12:32.999Z</time></trkpt><trkpt lat="45.50115041751251" lon="10.257953488007088"><ele>122.0</ele><time>2026-04-12T07:12:33.999Z</time></trkpt><trkpt lat="45.501133661948536" lon="10.25826209767933"><ele>121.66666666666666</ele><time>2026-04-12T07:12:34.999Z</time></trkpt><trkpt lat="45.50111574677559" lon="10.258562726171052"><ele>121.33333333333334</ele><time>2026-04-12T07:12:35.999Z</time></trkpt><trkpt lat="45.50109781975427" lon="10.258866684616319"><ele>121.0</ele><time>2026-04-12T07:12:36.999Z</time></trkpt><trkpt lat="45.50107638363952" lon="10.259166717455477"><ele>121.0</ele><time>2026-04-12T07:12:37.999Z</time></trkpt><trkpt lat="45.50105903113374" lon="10.259460920834607"><ele>121.0</ele><time>2026-04-12T07:12:38.999Z</time></trkpt><trkpt lat="45.5010448848642" lon="10.259758492724204"><ele>121.0</ele><time>2026-04-12T07:12:39.999Z</time></trkpt><trkpt lat="45.50102371435099" lon="10.260048298511402"><ele>121.0</ele><time>2026-04-12T07:12:40.999Z</time></trkpt><trkpt lat="45.5010037438933" lon="10.260345342182319"><ele>121.0</ele><time>2026-04-12T07:12:42Z</time></trkpt><trkpt lat="45.50099176054017" lon="10.260642883057239"><ele>121.0</ele><time>2026-04-12T07:12:43Z</time></trkpt><trkpt lat="45.50097963761069" lon="10.260935282139956"><ele>121.33333333333334</ele><time>2026-04-12T07:12:44Z</time></trkpt><trkpt lat="45.50096559190234" lon="10.261229955587153"><ele>121.66666666666666</ele><time>2026-04-12T07:12:45Z</time></trkpt><trkpt lat="45.50095382210135" lon="10.261526545150506"><ele>122.0</ele><time>2026-04-12T07:12:46Z</time></trkpt><trkpt lat="45.500934139294735" lon="10.261823630915071"><ele>122.33333333333333</ele><time>2026-04-12T07:12:47Z</time></trkpt><trkpt lat="45.50091624184449" lon="10.262122519199787"><ele>122.66666666666666</ele><time>2026-04-12T07:12:48Z</time></trkpt><trkpt lat="45.50089523795578" lon="10.26241889467325"><ele>123.0</ele><time>2026-04-12T07:12:49Z</time></trkpt><trkpt lat="45.50087574273621" lon="10.262721413965389"><ele>123.0</ele><time>2026-04-12T07:12:50Z</time></trkpt><trkpt lat="45.50085654895653" lon="10.263020467934851"><ele>123.0</ele><time>2026-04-12T07:12:51Z</time></trkpt><trkpt lat="45.50084110937865" lon="10.263323114459924"><ele>123.0</ele><time>2026-04-12T07:12:52Z</time></trkpt><trkpt lat="45.50082266562549" lon="10.263630449164523"><ele>123.0</ele><time>2026-04-12T07:12:53Z</time></trkpt><trkpt lat="45.5008078700469" lon="10.263941731140774"><ele>123.0</ele><time>2026-04-12T07:12:54Z</time></trkpt><trkpt lat="45.50078910455622" lon="10.264257943357032"><ele>123.0</ele><time>2026-04-12T07:12:55Z</time></trkpt><trkpt lat="45.50077614802265" lon="10.264573244566206"><ele>122.66666666666666</ele><time>2026-04-12T07:12:56Z</time></trkpt><trkpt lat="45.50077044791864" lon="10.264890072506999"><ele>122.33333333333333</ele><time>2026-04-12T07:12:57Z</time></trkpt><trkpt lat="45.500764301936904" lon="10.265206760532479"><ele>122.0</ele><time>2026-04-12T07:12:58Z</time></trkpt><trkpt lat="45.50074703019239" lon="10.265510510414831"><ele>122.0</ele><time>2026-04-12T07:12:59Z</time></trkpt><trkpt lat="45.500731268234496" lon="10.265810181397875"><ele>122.0</ele><time>2026-04-12T07:13:00Z</time></trkpt><trkpt lat="45.50071630612162" lon="10.266102269288583"><ele>122.0</ele><time>2026-04-12T07:13:01Z</time></trkpt><trkpt lat="45.50069822572451" lon="10.2663956401364"><ele>122.33333333333333</ele><time>2026-04-12T07:13:02Z</time></trkpt><trkpt lat="45.500680738740684" lon="10.26668743816675"><ele>122.66666666666666</ele><time>2026-04-12T07:13:03Z</time></trkpt><trkpt lat="45.50067376834851" lon="10.266980295936497"><ele>123.0</ele><time>2026-04-12T07:13:04Z</time></trkpt><trkpt lat="45.50067472692179" lon="10.267274537920159"><ele>123.0</ele><time>2026-04-12T07:13:05Z</time></trkpt><trkpt lat="45.50068008838362" lon="10.267569177342988"><ele>123.0</ele><time>2026-04-12T07:13:06Z</time></trkpt><trkpt lat="45.50068521295289" lon="10.267866601448524"><ele>123.0</ele><time>2026-04-12T07:13:07Z</time></trkpt><trkpt lat="45.500689726384074" lon="10.26816192986508"><ele>123.33333333333334</ele><time>2026-04-12T07:13:08Z</time></trkpt><trkpt lat="45.50070096288171" lon="10.268458222166743"><ele>123.66666666666667</ele><time>2026-04-12T07:13:09Z</time></trkpt><trkpt lat="45.5007150760227" lon="10.268754993045176"><ele>124.0</ele><time>2026-04-12T07:13:10Z</time></trkpt><trkpt lat="45.50073071777797" lon="10.269050806115699"><ele>124.66666666666667</ele><time>2026-04-12T07:13:11Z</time></trkpt><trkpt lat="45.50074485292057" lon="10.269345212498346"><ele>125.33333333333334</ele><time>2026-04-12T07:13:12Z</time></trkpt><trkpt lat="45.500759715919315" lon="10.26964001630006"><ele>126.0</ele><time>2026-04-12T07:13:13Z</time></trkpt><trkpt lat="45.50078128214825" lon="10.26993130453796"><ele>126.33333333333334</ele><time>2026-04-12T07:13:14Z</time></trkpt><trkpt lat="45.50079083005326" lon="10.270225027018226"><ele>126.66666666666667</ele><time>2026-04-12T07:13:15Z</time></trkpt><trkpt lat="45.50080412559907" lon="10.270513885623789"><ele>127.0</ele><time>2026-04-12T07:13:16Z</time></trkpt><trkpt lat="45.50082057078151" lon="10.270805717296755"><ele>127.0</ele><time>2026-04-12T07:13:17Z</time></trkpt><trkpt lat="45.500833013035226" lon="10.271095934867244"><ele>127.0</ele><time>2026-04-12T07:13:18Z</time></trkpt><trkpt lat="45.5008456855482" lon="10.271385946760521"><ele>127.0</ele><time>2026-04-12T07:13:19Z</time></trkpt><trkpt lat="45.50086091807008" lon="10.271679593483531"><ele>127.66666666666667</ele><time>2026-04-12T07:13:20Z</time></trkpt><trkpt lat="45.50087326601713" lon="10.271973806992982"><ele>128.33333333333334</ele><time>2026-04-12T07:13:21Z</time></trkpt><trkpt lat="45.50088782438951" lon="10.272265244869818"><ele>129.0</ele><time>2026-04-12T07:13:22Z</time></trkpt><trkpt lat="45.50090520412833" lon="10.272561552631359"><ele>129.0</ele><time>2026-04-12T07:13:23Z</time></trkpt><trkpt lat="45.5009192428458" lon="10.272858696047669"><ele>129.0</ele><time>2026-04-12T07:13:24Z</time></trkpt><trkpt lat="45.50093047280209" lon="10.273157449804721"><ele>129.0</ele><time>2026-04-12T07:13:25Z</time></trkpt><trkpt lat="45.500947713388264" lon="10.273458718973847"><ele>129.0</ele><time>2026-04-12T07:13:26Z</time></trkpt><trkpt lat="45.50096100486024" lon="10.273756236650868"><ele>129.0</ele><time>2026-04-12T07:13:27Z</time></trkpt><trkpt lat="45.50097391352862" lon="10.274051889089456"><ele>129.0</ele><time>2026-04-12T07:13:28Z</time></trkpt><trkpt lat="45.50098679598665" lon="10.274350409063693"><ele>128.66666666666666</ele><time>2026-04-12T07:13:29Z</time></trkpt><trkpt lat="45.50100221405215" lon="10.274649290583586"><ele>128.33333333333331</ele><time>2026-04-12T07:13:30Z</time></trkpt><trkpt lat="45.50101896826081" lon="10.27494780582949"><ele>128.0</ele><time>2026-04-12T07:13:31Z</time></trkpt><trkpt lat="45.501032061332815" lon="10.275250490437022"><ele>128.0</ele><time>2026-04-12T07:13:32Z</time></trkpt><trkpt lat="45.501046109247675" lon="10.275545669912697"><ele>128.0</ele><time>2026-04-12T07:13:33Z</time></trkpt><trkpt lat="45.501061207203506" lon="10.275844942978916"><ele>128.0</ele><time>2026-04-12T07:13:34Z</time></trkpt><trkpt lat="45.50107665204546" lon="10.276143307874912"><ele>128.66666666666666</ele><time>2026-04-12T07:13:35Z</time></trkpt><trkpt lat="45.50109068144069" lon="10.276441293711235"><ele>129.33333333333334</ele><time>2026-04-12T07:13:36Z</time></trkpt><trkpt lat="45.50110429906631" lon="10.276738808877573"><ele>130.0</ele><time>2026-04-12T07:13:37Z</time></trkpt><trkpt lat="45.501122168781855" lon="10.277036216886966"><ele>130.0</ele><time>2026-04-12T07:13:38Z</time></trkpt><trkpt lat="45.501136568834674" lon="10.27732744630218"><ele>130.0</ele><time>2026-04-12T07:13:39Z</time></trkpt><trkpt lat="45.50114935804999" lon="10.277621931555723"><ele>130.0</ele><time>2026-04-12T07:13:40Z</time></trkpt><trkpt lat="45.50116171674418" lon="10.277919754041893"><ele>130.33333333333334</ele><time>2026-04-12T07:13:41Z</time></trkpt><trkpt lat="45.50117462822077" lon="10.278217651970289"><ele>130.66666666666666</ele><time>2026-04-12T07:13:42Z</time></trkpt><trkpt lat="45.50118523948896" lon="10.27850989409983"><ele>131.0</ele><time>2026-04-12T07:13:43Z</time></trkpt><trkpt lat="45.50119434611562" lon="10.278801777086061"><ele>130.66666666666666</ele><time>2026-04-12T07:13:44Z</time></trkpt><trkpt lat="45.50119549783162" lon="10.279095060164178"><ele>130.33333333333334</ele><time>2026-04-12T07:13:45Z</time></trkpt><trkpt lat="45.501192460406436" lon="10.279394260901483"><ele>130.0</ele><time>2026-04-12T07:13:46Z</time></trkpt><trkpt lat="45.50118749374735" lon="10.279691749220074"><ele>130.0</ele><time>2026-04-12T07:13:47Z</time></trkpt><trkpt lat="45.50118011501687" lon="10.27999366886199"><ele>130.0</ele><time>2026-04-12T07:13:48Z</time></trkpt><trkpt lat="45.50116730849647" lon="10.280296385781932"><ele>130.0</ele><time>2026-04-12T07:13:49Z</time></trkpt><trkpt lat="45.50115429031296" lon="10.280601488686543"><ele>129.66666666666669</ele><time>2026-04-12T07:13:50Z</time></trkpt><trkpt lat="45.50113813999079" lon="10.280908098328279"><ele>129.33333333333334</ele><time>2026-04-12T07:13:51Z</time></trkpt><trkpt lat="45.50111855376011" lon="10.281211738711237"><ele>129.0</ele><time>2026-04-12T07:13:52Z</time></trkpt><trkpt lat="45.50109622207372" lon="10.28151988479701"><ele>129.0</ele><time>2026-04-12T07:13:53Z</time></trkpt><trkpt lat="45.50106824959054" lon="10.281826030264652"><ele>129.0</ele><time>2026-04-12T07:13:54Z</time></trkpt><trkpt lat="45.50103799555187" lon="10.282128540182061"><ele>129.0</ele><time>2026-04-12T07:13:55Z</time></trkpt><trkpt lat="45.50100347311524" lon="10.282435575927924"><ele>129.0</ele><time>2026-04-12T07:13:56Z</time></trkpt><trkpt lat="45.50096713256285" lon="10.282738686099185"><ele>129.0</ele><time>2026-04-12T07:13:57Z</time></trkpt><trkpt lat="45.50092916915176" lon="10.283039196408899"><ele>129.0</ele><time>2026-04-12T07:13:58Z</time></trkpt><trkpt lat="45.50088652021804" lon="10.283342548896082"><ele>129.66666666666666</ele><time>2026-04-12T07:13:59Z</time></trkpt><trkpt lat="45.500843925337506" lon="10.283638724886236"><ele>130.33333333333331</ele><time>2026-04-12T07:14:00Z</time></trkpt><trkpt lat="45.500805573361795" lon="10.283939095682324"><ele>131.0</ele><time>2026-04-12T07:14:01Z</time></trkpt><trkpt lat="45.50077019778949" lon="10.284240898174266"><ele>131.0</ele><time>2026-04-12T07:14:02Z</time></trkpt><trkpt lat="45.500736370588264" lon="10.284536703885902"><ele>131.0</ele><time>2026-04-12T07:14:03Z</time></trkpt><trkpt lat="45.5007006349462" lon="10.284837020561099"><ele>131.0</ele><time>2026-04-12T07:14:04Z</time></trkpt><trkpt lat="45.50066566835384" lon="10.285135931325781"><ele>131.0</ele><time>2026-04-12T07:14:05Z</time></trkpt><trkpt lat="45.500631940552886" lon="10.28543258831272"><ele>131.0</ele><time>2026-04-12T07:14:06Z</time></trkpt><trkpt lat="45.50059573066558" lon="10.285732196089514"><ele>131.0</ele><time>2026-04-12T07:14:07Z</time></trkpt><trkpt lat="45.50055810212149" lon="10.286028905963187"><ele>131.33333333333331</ele><time>2026-04-12T07:14:08Z</time></trkpt><trkpt lat="45.50051968842223" lon="10.286323423964403"><ele>131.66666666666666</ele><time>2026-04-12T07:14:09Z</time></trkpt><trkpt lat="45.50048089338214" lon="10.286624875110391"><ele>132.0</ele><time>2026-04-12T07:14:10Z</time></trkpt><trkpt lat="45.500442319396456" lon="10.286919973825329"><ele>132.0</ele><time>2026-04-12T07:14:11Z</time></trkpt><trkpt lat="45.50040392555907" lon="10.287217324303338"><ele>132.0</ele><time>2026-04-12T07:14:12Z</time></trkpt><trkpt lat="45.50036677054173" lon="10.287512845025491"><ele>132.0</ele><time>2026-04-12T07:14:13Z</time></trkpt><trkpt lat="45.500330943640364" lon="10.287807511657387"><ele>132.33333333333334</ele><time>2026-04-12T07:14:14Z</time></trkpt><trkpt lat="45.5002952706968" lon="10.288105549451275"><ele>132.66666666666669</ele><time>2026-04-12T07:14:15Z</time></trkpt><trkpt lat="45.50025961430053" lon="10.288397919589933"><ele>133.0</ele><time>2026-04-12T07:14:16Z</time></trkpt><trkpt lat="45.50022128077563" lon="10.28869577608901"><ele>132.33333333333334</ele><time>2026-04-12T07:14:17Z</time></trkpt><trkpt lat="45.50018528420552" lon="10.288989884662076"><ele>131.66666666666666</ele><time>2026-04-12T07:14:18Z</time></trkpt><trkpt lat="45.500147364309676" lon="10.289282495628177"><ele>131.0</ele><time>2026-04-12T07:14:19Z</time></trkpt><trkpt lat="45.50010961343456" lon="10.289580953424833"><ele>132.0</ele><time>2026-04-12T07:14:20Z</time></trkpt><trkpt lat="45.5000733995413" lon="10.289875393734084"><ele>133.0</ele><time>2026-04-12T07:14:21Z</time></trkpt><trkpt lat="45.50003625325449" lon="10.290174314688453"><ele>134.0</ele><time>2026-04-12T07:14:22Z</time></trkpt><trkpt lat="45.49999922217235" lon="10.290472999714133"><ele>134.33333333333331</ele><time>2026-04-12T07:14:23Z</time></trkpt><trkpt lat="45.49996327234403" lon="10.290770764510066"><ele>134.66666666666666</ele><time>2026-04-12T07:14:24Z</time></trkpt><trkpt lat="45.49992505537283" lon="10.291074000345251"><ele>135.0</ele><time>2026-04-12T07:14:25Z</time></trkpt><trkpt lat="45.4998876368234" lon="10.291368679990772"><ele>135.33333333333334</ele><time>2026-04-12T07:14:26Z</time></trkpt><trkpt lat="45.49985002538711" lon="10.291666272900333"><ele>135.66666666666669</ele><time>2026-04-12T07:14:27Z</time></trkpt><trkpt lat="45.499812361341405" lon="10.29196096053964"><ele>136.0</ele><time>2026-04-12T07:14:28Z</time></trkpt><trkpt lat="45.499773936234256" lon="10.2922581648633"><ele>136.0</ele><time>2026-04-12T07:14:29Z</time></trkpt><trkpt lat="45.49973648362052" lon="10.292556156485007"><ele>136.0</ele><time>2026-04-12T07:14:30Z</time></trkpt><trkpt lat="45.49970128850846" lon="10.292852969815478"><ele>136.0</ele><time>2026-04-12T07:14:31Z</time></trkpt><trkpt lat="45.49966728911578" lon="10.293149573407291"><ele>136.0</ele><time>2026-04-12T07:14:32Z</time></trkpt><trkpt lat="45.499632612190645" lon="10.29344789036642"><ele>136.0</ele><time>2026-04-12T07:14:33Z</time></trkpt><trkpt lat="45.49959595024534" lon="10.293742294250698"><ele>136.0</ele><time>2026-04-12T07:14:34Z</time></trkpt><trkpt lat="45.4995568551617" lon="10.294038096686423"><ele>136.0</ele><time>2026-04-12T07:14:35Z</time></trkpt><trkpt lat="45.49951879909035" lon="10.294329878555356"><ele>136.0</ele><time>2026-04-12T07:14:36Z</time></trkpt><trkpt lat="45.499481516820836" lon="10.294619142829095"><ele>136.0</ele><time>2026-04-12T07:14:37Z</time></trkpt><trkpt lat="45.49944552873129" lon="10.29491050705046"><ele>136.0</ele><time>2026-04-12T07:14:38Z</time></trkpt><trkpt lat="45.49940880537401" lon="10.295195345180419"><ele>136.0</ele><time>2026-04-12T07:14:38.999Z</time></trkpt><trkpt lat="45.49937280313094" lon="10.295482046073074"><ele>136.0</ele><time>2026-04-12T07:14:39.999Z</time></trkpt><trkpt lat="45.49933893441231" lon="10.295770039292918"><ele>136.0</ele><time>2026-04-12T07:14:40.999Z</time></trkpt><trkpt lat="45.499304995590464" lon="10.296060328836306"><ele>136.0</ele><time>2026-04-12T07:14:41.999Z</time></trkpt><trkpt lat="45.49927166609744" lon="10.296350296277732"><ele>136.0</ele><time>2026-04-12T07:14:42.999Z</time></trkpt><trkpt lat="45.499235967156274" lon="10.296639963521885"><ele>136.0</ele><time>2026-04-12T07:14:43.999Z</time></trkpt><trkpt lat="45.49919974291719" lon="10.296928765437736"><ele>136.0</ele><time>2026-04-12T07:14:44.999Z</time></trkpt><trkpt lat="45.499162667011916" lon="10.29721785505244"><ele>136.0</ele><time>2026-04-12T07:14:45.999Z</time></trkpt><trkpt lat="45.49912529889931" lon="10.297513068475244"><ele>135.66666666666669</ele><time>2026-04-12T07:14:46.999Z</time></trkpt><trkpt lat="45.49908991396958" lon="10.297804413572004"><ele>135.33333333333334</ele><time>2026-04-12T07:14:48Z</time></trkpt><trkpt lat="45.49905207058982" lon="10.298108106791261"><ele>135.0</ele><time>2026-04-12T07:14:49Z</time></trkpt><trkpt lat="45.49901299600749" lon="10.29840601391225"><ele>135.66666666666666</ele><time>2026-04-12T07:14:50Z</time></trkpt><trkpt lat="45.49897651844473" lon="10.29870804950385"><ele>136.33333333333331</ele><time>2026-04-12T07:14:51Z</time></trkpt><trkpt lat="45.4989396395152" lon="10.299015310793887"><ele>137.0</ele><time>2026-04-12T07:14:52Z</time></trkpt><trkpt lat="45.4989025991931" lon="10.299321943999148"><ele>137.33333333333331</ele><time>2026-04-12T07:14:53Z</time></trkpt><trkpt lat="45.49886466616918" lon="10.29963377735912"><ele>137.66666666666666</ele><time>2026-04-12T07:14:54Z</time></trkpt><trkpt lat="45.498826094600524" lon="10.299941429351762"><ele>138.0</ele><time>2026-04-12T07:14:55Z</time></trkpt><trkpt lat="45.49878591489464" lon="10.30025327156545"><ele>137.0</ele><time>2026-04-12T07:14:56Z</time></trkpt><trkpt lat="45.4987485043153" lon="10.300549492899624"><ele>136.0</ele><time>2026-04-12T07:14:57Z</time></trkpt><trkpt lat="45.49871119659464" lon="10.300832211541005"><ele>135.0</ele><time>2026-04-12T07:14:58Z</time></trkpt><trkpt lat="45.49867633032527" lon="10.30111542034617"><ele>135.0</ele><time>2026-04-12T07:14:59Z</time></trkpt><trkpt lat="45.49864302612598" lon="10.30139753457281"><ele>135.0</ele><time>2026-04-12T07:15:00Z</time></trkpt><trkpt lat="45.4986092027687" lon="10.301674150704333"><ele>135.0</ele><time>2026-04-12T07:15:01Z</time></trkpt><trkpt lat="45.498575498424266" lon="10.301950497989878"><ele>135.0</ele><time>2026-04-12T07:15:02Z</time></trkpt><trkpt lat="45.4985396466142" lon="10.302228513844378"><ele>135.0</ele><time>2026-04-12T07:15:03Z</time></trkpt><trkpt lat="45.49850410924376" lon="10.302511819053487"><ele>135.0</ele><time>2026-04-12T07:15:04Z</time></trkpt><trkpt lat="45.498467657778605" lon="10.302793988712558"><ele>135.33333333333334</ele><time>2026-04-12T07:15:05Z</time></trkpt><trkpt lat="45.49843263301671" lon="10.303078418797645"><ele>135.66666666666669</ele><time>2026-04-12T07:15:06Z</time></trkpt><trkpt lat="45.49839673513232" lon="10.303367179715394"><ele>136.0</ele><time>2026-04-12T07:15:07Z</time></trkpt><trkpt lat="45.49836127610137" lon="10.303654575156209"><ele>136.66666666666669</ele><time>2026-04-12T07:15:08Z</time></trkpt><trkpt lat="45.498327937258445" lon="10.303944921590574"><ele>137.33333333333334</ele><time>2026-04-12T07:15:09Z</time></trkpt><trkpt lat="45.49829605864857" lon="10.304241878527074"><ele>138.0</ele><time>2026-04-12T07:15:10Z</time></trkpt><trkpt lat="45.49825683408794" lon="10.304538024884407"><ele>137.0</ele><time>2026-04-12T07:15:11Z</time></trkpt><trkpt lat="45.49821832124062" lon="10.304833135709435"><ele>136.0</ele><time>2026-04-12T07:15:12Z</time></trkpt><trkpt lat="45.49818013917685" lon="10.305136211029042"><ele>135.0</ele><time>2026-04-12T07:15:13Z</time></trkpt><trkpt lat="45.49814038007718" lon="10.30544614463127"><ele>136.0</ele><time>2026-04-12T07:15:14Z</time></trkpt><trkpt lat="45.49810151029615" lon="10.305764688193275"><ele>137.0</ele><time>2026-04-12T07:15:15Z</time></trkpt><trkpt lat="45.498061367040556" lon="10.30608144775691"><ele>137.0</ele><time>2026-04-12T07:15:16Z</time></trkpt><trkpt lat="45.498022432964625" lon="10.306402575114122"><ele>137.0</ele><time>2026-04-12T07:15:17Z</time></trkpt><trkpt lat="45.497982485346235" lon="10.306728523793325"><ele>137.0</ele><time>2026-04-12T07:15:18Z</time></trkpt><trkpt lat="45.4979426957428" lon="10.307049842314504"><ele>137.0</ele><time>2026-04-12T07:15:19Z</time></trkpt><trkpt lat="45.49790619374863" lon="10.307354501952783"><ele>137.0</ele><time>2026-04-12T07:15:20Z</time></trkpt><trkpt lat="45.49787017649284" lon="10.307638237842582"><ele>137.0</ele><time>2026-04-12T07:15:21Z</time></trkpt><trkpt lat="45.49783456407081" lon="10.307891034279507"><ele>137.0</ele><time>2026-04-12T07:15:22Z</time></trkpt><trkpt lat="45.49780567803585" lon="10.308128318051082"><ele>137.0</ele><time>2026-04-12T07:15:23Z</time></trkpt><trkpt lat="45.49777851376644" lon="10.30835617457599"><ele>137.33333333333331</ele><time>2026-04-12T07:15:24Z</time></trkpt><trkpt lat="45.49774935950405" lon="10.308577017619212"><ele>137.66666666666666</ele><time>2026-04-12T07:15:25Z</time></trkpt><trkpt lat="45.49772037277032" lon="10.30880112914098"><ele>138.0</ele><time>2026-04-12T07:15:26Z</time></trkpt><trkpt lat="45.49769235040748" lon="10.309023472633845"><ele>138.0</ele><time>2026-04-12T07:15:27Z</time></trkpt><trkpt lat="45.49766667400325" lon="10.309242954913318"><ele>138.0</ele><time>2026-04-12T07:15:28Z</time></trkpt><trkpt lat="45.4976402158691" lon="10.309457746561195"><ele>138.0</ele><time>2026-04-12T07:15:29Z</time></trkpt><trkpt lat="45.49761265687381" lon="10.309677874091545"><ele>137.33333333333334</ele><time>2026-04-12T07:15:30Z</time></trkpt><trkpt lat="45.49758536816031" lon="10.30990843636506"><ele>136.66666666666669</ele><time>2026-04-12T07:15:31Z</time></trkpt><trkpt lat="45.49756125087403" lon="10.31013938520915"><ele>136.0</ele><time>2026-04-12T07:15:32Z</time></trkpt><trkpt lat="45.49753634270343" lon="10.31037997296157"><ele>136.66666666666669</ele><time>2026-04-12T07:15:33Z</time></trkpt><trkpt lat="45.49750881447444" lon="10.310624442713584"><ele>137.33333333333334</ele><time>2026-04-12T07:15:34Z</time></trkpt><trkpt lat="45.497478582186616" lon="10.310888310657408"><ele>138.0</ele><time>2026-04-12T07:15:35Z</time></trkpt><trkpt lat="45.49744692492746" lon="10.311152323972392"><ele>138.0</ele><time>2026-04-12T07:15:36Z</time></trkpt><trkpt lat="45.497413411689905" lon="10.31142631522103"><ele>138.0</ele><time>2026-04-12T07:15:37Z</time></trkpt><trkpt lat="45.49737947522012" lon="10.311706766852456"><ele>138.0</ele><time>2026-04-12T07:15:38Z</time></trkpt><trkpt lat="45.49734223951396" lon="10.311993019884227"><ele>138.0</ele><time>2026-04-12T07:15:39Z</time></trkpt><trkpt lat="45.49730411997011" lon="10.312288902822552"><ele>138.0</ele><time>2026-04-12T07:15:40Z</time></trkpt><trkpt lat="45.497263322511" lon="10.312597703668422"><ele>138.0</ele><time>2026-04-12T07:15:41Z</time></trkpt><trkpt lat="45.497222814007515" lon="10.31292670135886"><ele>138.5</ele><time>2026-04-12T07:15:42Z</time></trkpt><trkpt lat="45.49718152079205" lon="10.31326319411484"><ele>139.0</ele><time>2026-04-12T07:15:43Z</time></trkpt><trkpt lat="45.49713629681999" lon="10.31359927497965"><ele>139.0</ele><time>2026-04-12T07:15:44Z</time></trkpt><trkpt lat="45.49709498508843" lon="10.313942318876729"><ele>139.0</ele><time>2026-04-12T07:15:45Z</time></trkpt><trkpt lat="45.49704992435672" lon="10.314290317480957"><ele>139.0</ele><time>2026-04-12T07:15:46Z</time></trkpt><trkpt lat="45.497003701048676" lon="10.314641027748838"><ele>139.0</ele><time>2026-04-12T07:15:47Z</time></trkpt><trkpt lat="45.49695814864496" lon="10.314994855709058"><ele>139.0</ele><time>2026-04-12T07:15:48Z</time></trkpt><trkpt lat="45.49691457476176" lon="10.315346887773147"><ele>139.0</ele><time>2026-04-12T07:15:49Z</time></trkpt><trkpt lat="45.49686568192622" lon="10.315693668784782"><ele>138.0</ele><time>2026-04-12T07:15:50Z</time></trkpt><trkpt lat="45.496800877372536" lon="10.316043520839397"><ele>137.0</ele><time>2026-04-12T07:15:51Z</time></trkpt><trkpt lat="45.49671607056652" lon="10.316382340390167"><ele>136.5</ele><time>2026-04-12T07:15:52Z</time></trkpt><trkpt lat="45.496614604380156" lon="10.316706185318917"><ele>136.0</ele><time>2026-04-12T07:15:53Z</time></trkpt><trkpt lat="45.496498087074066" lon="10.31702225992898"><ele>136.5</ele><time>2026-04-12T07:15:54Z</time></trkpt><trkpt lat="45.49637033979634" lon="10.317329821826018"><ele>137.0</ele><time>2026-04-12T07:15:55Z</time></trkpt><trkpt lat="45.49623359789913" lon="10.317628684153869"><ele>138.5</ele><time>2026-04-12T07:15:56Z</time></trkpt><trkpt lat="45.49608608090643" lon="10.317918923968161"><ele>140.0</ele><time>2026-04-12T07:15:57Z</time></trkpt><trkpt lat="45.49592761216661" lon="10.318200362357132"><ele>140.0</ele><time>2026-04-12T07:15:58Z</time></trkpt><trkpt lat="45.495760625357036" lon="10.318465599193981"><ele>140.0</ele><time>2026-04-12T07:15:59Z</time></trkpt><trkpt lat="45.49558187501208" lon="10.31872193891228"><ele>140.0</ele><time>2026-04-12T07:16:00Z</time></trkpt><trkpt lat="45.495400114226804" lon="10.318966862368676"><ele>140.0</ele><time>2026-04-12T07:16:01Z</time></trkpt><trkpt lat="45.49521490327906" lon="10.319216540956102"><ele>140.0</ele><time>2026-04-12T07:16:02Z</time></trkpt><trkpt lat="45.49503487642489" lon="10.31946620152374"><ele>140.0</ele><time>2026-04-12T07:16:03Z</time></trkpt><trkpt lat="45.49485405449013" lon="10.319714795067831"><ele>140.0</ele><time>2026-04-12T07:16:04Z</time></trkpt><trkpt lat="45.49465819177302" lon="10.319991258891957"><ele>140.0</ele><time>2026-04-12T07:16:05Z</time></trkpt><trkpt lat="45.4945006969747" lon="10.3202259877812"><ele>140.0</ele><time>2026-04-12T07:16:06Z</time></trkpt><trkpt lat="45.49432407514456" lon="10.320477828431024"><ele>140.0</ele><time>2026-04-12T07:16:07Z</time></trkpt><trkpt lat="45.4941451946703" lon="10.320728180244938"><ele>140.5</ele><time>2026-04-12T07:16:08Z</time></trkpt><trkpt lat="45.49396860904322" lon="10.320981436101295"><ele>141.0</ele><time>2026-04-12T07:16:09Z</time></trkpt><trkpt lat="45.49377637899331" lon="10.321205121045455"><ele>140.0</ele><time>2026-04-12T07:16:10Z</time></trkpt><trkpt lat="45.49359648623581" lon="10.32145597124387"><ele>139.0</ele><time>2026-04-12T07:16:11Z</time></trkpt><trkpt lat="45.493419238371445" lon="10.321703133682242"><ele>139.0</ele><time>2026-04-12T07:16:12Z</time></trkpt><trkpt lat="45.49324096610099" lon="10.321951634334356"><ele>139.0</ele><time>2026-04-12T07:16:13Z</time></trkpt><trkpt lat="45.493062391832886" lon="10.32219971808764"><ele>139.0</ele><time>2026-04-12T07:16:14Z</time></trkpt><trkpt lat="45.49288267731287" lon="10.322449385966326"><ele>139.0</ele><time>2026-04-12T07:16:15Z</time></trkpt><trkpt lat="45.492702667147384" lon="10.322699464534477"><ele>139.0</ele><time>2026-04-12T07:16:16Z</time></trkpt><trkpt lat="45.492527728345394" lon="10.322944507362964"><ele>139.0</ele><time>2026-04-12T07:16:17Z</time></trkpt><trkpt lat="45.492344997692285" lon="10.323197036815177"><ele>139.0</ele><time>2026-04-12T07:16:18Z</time></trkpt><trkpt lat="45.492166830398496" lon="10.32344432365132"><ele>139.0</ele><time>2026-04-12T07:16:19Z</time></trkpt><trkpt lat="45.49198822019193" lon="10.323693813917968"><ele>138.5</ele><time>2026-04-12T07:16:20Z</time></trkpt><trkpt lat="45.491808005988645" lon="10.32394559137392"><ele>138.0</ele><time>2026-04-12T07:16:21Z</time></trkpt><trkpt lat="45.491628571983426" lon="10.324196278770502"><ele>138.0</ele><time>2026-04-12T07:16:22Z</time></trkpt><trkpt lat="45.491460040672635" lon="10.324463432382005"><ele>138.0</ele><time>2026-04-12T07:16:23Z</time></trkpt><trkpt lat="45.491275456267395" lon="10.324708364363373"><ele>138.5</ele><time>2026-04-12T07:16:24Z</time></trkpt><trkpt lat="45.49109595081499" lon="10.324957651195149"><ele>139.0</ele><time>2026-04-12T07:16:25Z</time></trkpt><trkpt lat="45.49091777420884" lon="10.32521219883353"><ele>139.0</ele><time>2026-04-12T07:16:26Z</time></trkpt><trkpt lat="45.49074105173147" lon="10.3254654984666"><ele>139.0</ele><time>2026-04-12T07:16:27Z</time></trkpt><trkpt lat="45.49056020201702" lon="10.325714328989486"><ele>138.5</ele><time>2026-04-12T07:16:28Z</time></trkpt><trkpt lat="45.49037856431065" lon="10.325957799573116"><ele>138.0</ele><time>2026-04-12T07:16:29Z</time></trkpt><trkpt lat="45.49019682464567" lon="10.326205721773931"><ele>138.5</ele><time>2026-04-12T07:16:30Z</time></trkpt><trkpt lat="45.49002107157924" lon="10.326456339225924"><ele>139.0</ele><time>2026-04-12T07:16:31Z</time></trkpt><trkpt lat="45.48984417367104" lon="10.326705875272829"><ele>139.0</ele><time>2026-04-12T07:16:32Z</time></trkpt><trkpt lat="45.48966474828628" lon="10.326960307737584"><ele>139.0</ele><time>2026-04-12T07:16:33Z</time></trkpt><trkpt lat="45.4894861651461" lon="10.327209144112755"><ele>138.5</ele><time>2026-04-12T07:16:34Z</time></trkpt><trkpt lat="45.48930848561649" lon="10.327457542007554"><ele>138.0</ele><time>2026-04-12T07:16:35Z</time></trkpt><trkpt lat="45.48912908069376" lon="10.327710567914886"><ele>138.0</ele><time>2026-04-12T07:16:36Z</time></trkpt><trkpt lat="45.48893757663094" lon="10.327946532541917"><ele>138.0</ele><time>2026-04-12T07:16:37Z</time></trkpt><trkpt lat="45.48877021934586" lon="10.328212025875306"><ele>139.0</ele><time>2026-04-12T07:16:38Z</time></trkpt><trkpt lat="45.48857726178593" lon="10.328447612077403"><ele>140.0</ele><time>2026-04-12T07:16:38.999Z</time></trkpt><trkpt lat="45.488400109444676" lon="10.328693972803894"><ele>139.0</ele><time>2026-04-12T07:16:39.999Z</time></trkpt><trkpt lat="45.48822960515411" lon="10.328931088435612"><ele>138.0</ele><time>2026-04-12T07:16:40.999Z</time></trkpt><trkpt lat="45.48806712955112" lon="10.32915703797909"><ele>138.0</ele><time>2026-04-12T07:16:41.999Z</time></trkpt><trkpt lat="45.487903055957645" lon="10.32938521038205"><ele>138.0</ele><time>2026-04-12T07:16:42.999Z</time></trkpt><trkpt lat="45.48773992617046" lon="10.329612070355275"><ele>137.5</ele><time>2026-04-12T07:16:43.999Z</time></trkpt><trkpt lat="45.48757521511809" lon="10.329841129026192"><ele>137.0</ele><time>2026-04-12T07:16:44.999Z</time></trkpt><trkpt lat="45.48739853631733" lon="10.330086831185232"><ele>137.0</ele><time>2026-04-12T07:16:45.999Z</time></trkpt><trkpt lat="45.487213787821474" lon="10.330343755460222"><ele>137.0</ele><time>2026-04-12T07:16:46.999Z</time></trkpt><trkpt lat="45.48703491867022" lon="10.33059250353282"><ele>137.0</ele><time>2026-04-12T07:16:47.999Z</time></trkpt><trkpt lat="45.486865609859024" lon="10.330827956484665"><ele>137.0</ele><time>2026-04-12T07:16:48.999Z</time></trkpt><trkpt lat="45.48670427256442" lon="10.331052323569983"><ele>137.0</ele><time>2026-04-12T07:16:49.999Z</time></trkpt><trkpt lat="45.48655590024047" lon="10.331258660621724"><ele>137.0</ele><time>2026-04-12T07:16:50.999Z</time></trkpt><trkpt lat="45.4864125410552" lon="10.331458026203126"><ele>137.0</ele><time>2026-04-12T07:16:51.999Z</time></trkpt><trkpt lat="45.4862690662874" lon="10.331657552303938"><ele>137.0</ele><time>2026-04-12T07:16:52.999Z</time></trkpt><trkpt lat="45.486128313111735" lon="10.331853293519893"><ele>137.0</ele><time>2026-04-12T07:16:54Z</time></trkpt><trkpt lat="45.48597985445862" lon="10.332059750709458"><ele>137.0</ele><time>2026-04-12T07:16:55Z</time></trkpt><trkpt lat="45.485823994405436" lon="10.332276500687582"><ele>138.0</ele><time>2026-04-12T07:16:56Z</time></trkpt><trkpt lat="45.4856654256991" lon="10.33249701762852"><ele>139.0</ele><time>2026-04-12T07:16:57Z</time></trkpt><trkpt lat="45.485501529131064" lon="10.332724944052197"><ele>138.0</ele><time>2026-04-12T07:16:58Z</time></trkpt><trkpt lat="45.48532254711541" lon="10.332974588513567"><ele>137.0</ele><time>2026-04-12T07:16:59Z</time></trkpt><trkpt lat="45.485134280335295" lon="10.333237663048282"><ele>136.5</ele><time>2026-04-12T07:17:00Z</time></trkpt><trkpt lat="45.48493628154578" lon="10.333514338181363"><ele>136.0</ele><time>2026-04-12T07:17:01Z</time></trkpt><trkpt lat="45.484752357151066" lon="10.333801072529583"><ele>138.0</ele><time>2026-04-12T07:17:02Z</time></trkpt><trkpt lat="45.48456450967897" lon="10.33406269622015"><ele>140.0</ele><time>2026-04-12T07:17:03Z</time></trkpt><trkpt lat="45.48436955315827" lon="10.334306256011741"><ele>140.0</ele><time>2026-04-12T07:17:04Z</time></trkpt><trkpt lat="45.4841891777884" lon="10.33455762233755"><ele>140.0</ele><time>2026-04-12T07:17:05Z</time></trkpt><trkpt lat="45.48401476582133" lon="10.334800453284654"><ele>139.66666666666666</ele><time>2026-04-12T07:17:06Z</time></trkpt><trkpt lat="45.483851781892064" lon="10.335027370388957"><ele>139.33333333333334</ele><time>2026-04-12T07:17:07Z</time></trkpt><trkpt lat="45.48372044353085" lon="10.33523974328361"><ele>139.0</ele><time>2026-04-12T07:17:08Z</time></trkpt><trkpt lat="45.483568164987474" lon="10.335422225616451"><ele>138.33333333333334</ele><time>2026-04-12T07:17:09Z</time></trkpt><trkpt lat="45.48344509412268" lon="10.335636953411973"><ele>137.66666666666666</ele><time>2026-04-12T07:17:10Z</time></trkpt><trkpt lat="45.48328796797965" lon="10.335865984574404"><ele>137.0</ele><time>2026-04-12T07:17:11Z</time></trkpt><trkpt lat="45.48311899853583" lon="10.336102871475203"><ele>137.0</ele><time>2026-04-12T07:17:12Z</time></trkpt><trkpt lat="45.482937921460056" lon="10.33634585944396"><ele>137.0</ele><time>2026-04-12T07:17:13Z</time></trkpt><trkpt lat="45.482763598555515" lon="10.336582184197535"><ele>138.0</ele><time>2026-04-12T07:17:14Z</time></trkpt><trkpt lat="45.48259789381634" lon="10.336810218269719"><ele>139.0</ele><time>2026-04-12T07:17:15Z</time></trkpt><trkpt lat="45.48243771921191" lon="10.337030988013167"><ele>138.66666666666669</ele><time>2026-04-12T07:17:16Z</time></trkpt><trkpt lat="45.48228586610866" lon="10.337244869880795"><ele>138.33333333333334</ele><time>2026-04-12T07:17:17Z</time></trkpt><trkpt lat="45.482138573109175" lon="10.337448375814503"><ele>138.0</ele><time>2026-04-12T07:17:18Z</time></trkpt><trkpt lat="45.48199642603567" lon="10.33764444254696"><ele>138.33333333333334</ele><time>2026-04-12T07:17:19Z</time></trkpt><trkpt lat="45.481861633170006" lon="10.337840885935496"><ele>138.66666666666669</ele><time>2026-04-12T07:17:20Z</time></trkpt><trkpt lat="45.48172725400765" lon="10.338046633002088"><ele>139.0</ele><time>2026-04-12T07:17:21Z</time></trkpt><trkpt lat="45.48159658169492" lon="10.338249478226677"><ele>139.0</ele><time>2026-04-12T07:17:22Z</time></trkpt><trkpt lat="45.48147427775237" lon="10.338460044683575"><ele>139.0</ele><time>2026-04-12T07:17:23Z</time></trkpt><trkpt lat="45.48135676062157" lon="10.33867907023779"><ele>139.0</ele><time>2026-04-12T07:17:24Z</time></trkpt><trkpt lat="45.481241536616444" lon="10.33889855168401"><ele>139.0</ele><time>2026-04-12T07:17:25Z</time></trkpt><trkpt lat="45.48112780403633" lon="10.339122867319539"><ele>139.0</ele><time>2026-04-12T07:17:26Z</time></trkpt><trkpt lat="45.481019161221674" lon="10.339350470205805"><ele>139.0</ele><time>2026-04-12T07:17:27Z</time></trkpt><trkpt lat="45.48092010766609" lon="10.339585844772827"><ele>139.33333333333334</ele><time>2026-04-12T07:17:28Z</time></trkpt><trkpt lat="45.48082646480439" lon="10.33982149402892"><ele>139.66666666666666</ele><time>2026-04-12T07:17:29Z</time></trkpt><trkpt lat="45.48073407776529" lon="10.340061219660686"><ele>140.0</ele><time>2026-04-12T07:17:30Z</time></trkpt><trkpt lat="45.48064477693983" lon="10.340305389716319"><ele>140.0</ele><time>2026-04-12T07:17:31Z</time></trkpt><trkpt lat="45.48056034838814" lon="10.340555903655787"><ele>140.0</ele><time>2026-04-12T07:17:32Z</time></trkpt><trkpt lat="45.480479128399594" lon="10.340813446457567"><ele>140.0</ele><time>2026-04-12T07:17:33Z</time></trkpt><trkpt lat="45.48040792812966" lon="10.341078520482156"><ele>139.33333333333331</ele><time>2026-04-12T07:17:34Z</time></trkpt><trkpt lat="45.48033136986315" lon="10.341372764999592"><ele>138.66666666666666</ele><time>2026-04-12T07:17:35Z</time></trkpt><trkpt lat="45.480242461523716" lon="10.341672686751032"><ele>138.0</ele><time>2026-04-12T07:17:36Z</time></trkpt><trkpt lat="45.48014521008813" lon="10.341979834926342"><ele>139.5</ele><time>2026-04-12T07:17:37Z</time></trkpt><trkpt lat="45.4800440263649" lon="10.3422893891805"><ele>141.0</ele><time>2026-04-12T07:17:38Z</time></trkpt><trkpt lat="45.479949756381565" lon="10.342605076704167"><ele>141.0</ele><time>2026-04-12T07:17:39Z</time></trkpt><trkpt lat="45.479842302536596" lon="10.342927958053128"><ele>141.0</ele><time>2026-04-12T07:17:40Z</time></trkpt><trkpt lat="45.47973993900563" lon="10.343252329088141"><ele>141.5</ele><time>2026-04-12T07:17:41Z</time></trkpt><trkpt lat="45.47963916164228" lon="10.343586419181674"><ele>142.0</ele><time>2026-04-12T07:17:42Z</time></trkpt><trkpt lat="45.479535955433796" lon="10.343926709577987"><ele>140.5</ele><time>2026-04-12T07:17:43Z</time></trkpt><trkpt lat="45.47943165535561" lon="10.344269878819558"><ele>139.0</ele><time>2026-04-12T07:17:44Z</time></trkpt><trkpt lat="45.47932796898615" lon="10.34461633785656"><ele>139.0</ele><time>2026-04-12T07:17:45Z</time></trkpt><trkpt lat="45.47922290712481" lon="10.34496401429034"><ele>139.0</ele><time>2026-04-12T07:17:46Z</time></trkpt><trkpt lat="45.47912581002914" lon="10.345312833609611"><ele>138.0</ele><time>2026-04-12T07:17:47Z</time></trkpt><trkpt lat="45.4790433417193" lon="10.345667621234586"><ele>137.0</ele><time>2026-04-12T07:17:48Z</time></trkpt><trkpt lat="45.47897432465742" lon="10.346026973840917"><ele>137.0</ele><time>2026-04-12T07:17:49Z</time></trkpt><trkpt lat="45.47891584384523" lon="10.346389417989041"><ele>137.0</ele><time>2026-04-12T07:17:50Z</time></trkpt><trkpt lat="45.47887377709633" lon="10.346753837344671"><ele>137.0</ele><time>2026-04-12T07:17:51Z</time></trkpt><trkpt lat="45.47884600118852" lon="10.347123740062433"><ele>137.0</ele><time>2026-04-12T07:17:52Z</time></trkpt><trkpt lat="45.4788265119488" lon="10.34749074606213"><ele>137.5</ele><time>2026-04-12T07:17:53Z</time></trkpt><trkpt lat="45.47881792703815" lon="10.347856349698677"><ele>138.0</ele><time>2026-04-12T07:17:54Z</time></trkpt><trkpt lat="45.47881833067026" lon="10.348222652212499"><ele>139.0</ele><time>2026-04-12T07:17:55Z</time></trkpt><trkpt lat="45.47882812591545" lon="10.348586413313335"><ele>140.0</ele><time>2026-04-12T07:17:56Z</time></trkpt><trkpt lat="45.47884103102293" lon="10.348947457236331"><ele>140.0</ele><time>2026-04-12T07:17:57Z</time></trkpt><trkpt lat="45.47885550520482" lon="10.349308831018634"><ele>140.0</ele><time>2026-04-12T07:17:58Z</time></trkpt><trkpt lat="45.47886618569389" lon="10.349667481917106"><ele>140.0</ele><time>2026-04-12T07:17:59Z</time></trkpt><trkpt lat="45.47887837345588" lon="10.35002034682262"><ele>140.0</ele><time>2026-04-12T07:18:00Z</time></trkpt><trkpt lat="45.47888641541492" lon="10.35037658214236"><ele>140.5</ele><time>2026-04-12T07:18:01Z</time></trkpt><trkpt lat="45.47889528232529" lon="10.350728396756063"><ele>141.0</ele><time>2026-04-12T07:18:02Z</time></trkpt><trkpt lat="45.47889981303263" lon="10.351083494833787"><ele>140.0</ele><time>2026-04-12T07:18:03Z</time></trkpt><trkpt lat="45.47891004322372" lon="10.351436377614599"><ele>139.0</ele><time>2026-04-12T07:18:04Z</time></trkpt><trkpt lat="45.4789191640265" lon="10.351786075106446"><ele>139.0</ele><time>2026-04-12T07:18:05Z</time></trkpt><trkpt lat="45.47892714255268" lon="10.352139467857743"><ele>139.0</ele><time>2026-04-12T07:18:06Z</time></trkpt><trkpt lat="45.478934993428574" lon="10.352485506999527"><ele>139.0</ele><time>2026-04-12T07:18:07Z</time></trkpt><trkpt lat="45.478945042097656" lon="10.352835715147808"><ele>139.0</ele><time>2026-04-12T07:18:08Z</time></trkpt><trkpt lat="45.47895335907441" lon="10.353187588088744"><ele>139.0</ele><time>2026-04-12T07:18:09Z</time></trkpt><trkpt lat="45.47896056565353" lon="10.353534786678066"><ele>139.0</ele><time>2026-04-12T07:18:10Z</time></trkpt><trkpt lat="45.47896870935436" lon="10.353887033699905"><ele>140.0</ele><time>2026-04-12T07:18:11Z</time></trkpt><trkpt lat="45.47897569759591" lon="10.354233458193166"><ele>141.0</ele><time>2026-04-12T07:18:12Z</time></trkpt><trkpt lat="45.47898888025743" lon="10.35456435686203"><ele>141.5</ele><time>2026-04-12T07:18:13Z</time></trkpt><trkpt lat="45.479001625404045" lon="10.354925809819354"><ele>142.0</ele><time>2026-04-12T07:18:14Z</time></trkpt><trkpt lat="45.47900376582108" lon="10.355278179643307"><ele>141.0</ele><time>2026-04-12T07:18:15Z</time></trkpt><trkpt lat="45.479010658812705" lon="10.355625836389462"><ele>140.0</ele><time>2026-04-12T07:18:16Z</time></trkpt><trkpt lat="45.479018374976484" lon="10.35597506664114"><ele>140.0</ele><time>2026-04-12T07:18:17Z</time></trkpt><trkpt lat="45.479027880804665" lon="10.356322982127457"><ele>140.0</ele><time>2026-04-12T07:18:18Z</time></trkpt><trkpt lat="45.47904237572261" lon="10.356670520483227"><ele>140.0</ele><time>2026-04-12T07:18:19Z</time></trkpt><trkpt lat="45.47905334125423" lon="10.357018824004912"><ele>140.0</ele><time>2026-04-12T07:18:20Z</time></trkpt><trkpt lat="45.47906549501395" lon="10.357367014450046"><ele>140.0</ele><time>2026-04-12T07:18:21Z</time></trkpt><trkpt lat="45.47908243059404" lon="10.357712450270608"><ele>140.0</ele><time>2026-04-12T07:18:22Z</time></trkpt><trkpt lat="45.479107576332495" lon="10.358054386114611"><ele>139.0</ele><time>2026-04-12T07:18:23Z</time></trkpt><trkpt lat="45.47914134465785" lon="10.358394274871097"><ele>138.0</ele><time>2026-04-12T07:18:24Z</time></trkpt><trkpt lat="45.47917705024748" lon="10.358726484740412"><ele>138.5</ele><time>2026-04-12T07:18:25Z</time></trkpt><trkpt lat="45.479222136609536" lon="10.359052274888601"><ele>139.0</ele><time>2026-04-12T07:18:26Z</time></trkpt><trkpt lat="45.479272229616974" lon="10.359376690026687"><ele>139.0</ele><time>2026-04-12T07:18:27Z</time></trkpt><trkpt lat="45.47932742527697" lon="10.359693690027488"><ele>139.0</ele><time>2026-04-12T07:18:28Z</time></trkpt><trkpt lat="45.47938752202203" lon="10.360007617792684"><ele>139.66666666666669</ele><time>2026-04-12T07:18:29Z</time></trkpt><trkpt lat="45.4794494312689" lon="10.360311444481882"><ele>140.33333333333334</ele><time>2026-04-12T07:18:30Z</time></trkpt><trkpt lat="45.47951185818505" lon="10.360601254343687"><ele>141.0</ele><time>2026-04-12T07:18:31Z</time></trkpt><trkpt lat="45.47957747299395" lon="10.360881488270465"><ele>141.0</ele><time>2026-04-12T07:18:32Z</time></trkpt><trkpt lat="45.47964640257978" lon="10.361147683875911"><ele>141.0</ele><time>2026-04-12T07:18:33Z</time></trkpt><trkpt lat="45.47971491854063" lon="10.36139400618773"><ele>141.0</ele><time>2026-04-12T07:18:34Z</time></trkpt><trkpt lat="45.47978378680665" lon="10.36162523216532"><ele>141.0</ele><time>2026-04-12T07:18:35Z</time></trkpt><trkpt lat="45.47984954114934" lon="10.361860230911544"><ele>141.0</ele><time>2026-04-12T07:18:36Z</time></trkpt><trkpt lat="45.47990193280639" lon="10.362094632725404"><ele>141.0</ele><time>2026-04-12T07:18:37Z</time></trkpt><trkpt lat="45.47994075222934" lon="10.362334302328325"><ele>141.0</ele><time>2026-04-12T07:18:38Z</time></trkpt><trkpt lat="45.479977533609635" lon="10.362583141895051"><ele>141.0</ele><time>2026-04-12T07:18:39Z</time></trkpt><trkpt lat="45.48006329977057" lon="10.362807153221004"><ele>141.0</ele><time>2026-04-12T07:18:40Z</time></trkpt><trkpt lat="45.480142763259686" lon="10.363049337701002"><ele>141.33333333333334</ele><time>2026-04-12T07:18:41Z</time></trkpt><trkpt lat="45.48022113574626" lon="10.363287958514745"><ele>141.66666666666669</ele><time>2026-04-12T07:18:42Z</time></trkpt><trkpt lat="45.480300058064984" lon="10.363528953507721"><ele>142.0</ele><time>2026-04-12T07:18:43Z</time></trkpt><trkpt lat="45.48037871381378" lon="10.363768729683768"><ele>141.33333333333334</ele><time>2026-04-12T07:18:44Z</time></trkpt><trkpt lat="45.48045305108707" lon="10.363994547712648"><ele>140.66666666666666</ele><time>2026-04-12T07:18:45Z</time></trkpt><trkpt lat="45.48052874819058" lon="10.364225178660744"><ele>140.0</ele><time>2026-04-12T07:18:46Z</time></trkpt><trkpt lat="45.48059504232719" lon="10.364459508782517"><ele>140.0</ele><time>2026-04-12T07:18:47Z</time></trkpt><trkpt lat="45.48069093585639" lon="10.364671229489296"><ele>140.0</ele><time>2026-04-12T07:18:48Z</time></trkpt><trkpt lat="45.48079118257777" lon="10.364870580973514"><ele>140.0</ele><time>2026-04-12T07:18:49Z</time></trkpt><trkpt lat="45.48089538204508" lon="10.3650765463035"><ele>140.0</ele><time>2026-04-12T07:18:50Z</time></trkpt><trkpt lat="45.48099201219309" lon="10.36529437569736"><ele>140.0</ele><time>2026-04-12T07:18:51Z</time></trkpt><trkpt lat="45.48107481076429" lon="10.36552555746374"><ele>140.0</ele><time>2026-04-12T07:18:52Z</time></trkpt><trkpt lat="45.481154327362574" lon="10.36577598663575"><ele>140.0</ele><time>2026-04-12T07:18:53Z</time></trkpt><trkpt lat="45.48123406043467" lon="10.366034303178461"><ele>140.0</ele><time>2026-04-12T07:18:54Z</time></trkpt><trkpt lat="45.48131882153642" lon="10.366290469565882"><ele>140.0</ele><time>2026-04-12T07:18:55Z</time></trkpt><trkpt lat="45.481406032241026" lon="10.366550737705799"><ele>140.66666666666666</ele><time>2026-04-12T07:18:56Z</time></trkpt><trkpt lat="45.48149396821726" lon="10.366817216583541"><ele>141.33333333333334</ele><time>2026-04-12T07:18:57Z</time></trkpt><trkpt lat="45.48157894277936" lon="10.367079565620646"><ele>142.0</ele><time>2026-04-12T07:18:58Z</time></trkpt><trkpt lat="45.48166630365584" lon="10.367344289903967"><ele>142.0</ele><time>2026-04-12T07:18:59Z</time></trkpt><trkpt lat="45.48176525418448" lon="10.367623411079299"><ele>142.0</ele><time>2026-04-12T07:19:00Z</time></trkpt><trkpt lat="45.4818544873799" lon="10.367945033417952"><ele>142.5</ele><time>2026-04-12T07:19:01Z</time></trkpt><trkpt lat="45.481965780288256" lon="10.368283719245696"><ele>143.0</ele><time>2026-04-12T07:19:02Z</time></trkpt><trkpt lat="45.48208537637626" lon="10.368613107542817"><ele>143.0</ele><time>2026-04-12T07:19:03Z</time></trkpt><trkpt lat="45.48218458970669" lon="10.368931036885845"><ele>143.0</ele><time>2026-04-12T07:19:04Z</time></trkpt><trkpt lat="45.48228376169899" lon="10.369228856167782"><ele>143.0</ele><time>2026-04-12T07:19:05Z</time></trkpt><trkpt lat="45.48237607026233" lon="10.36950816790015"><ele>143.0</ele><time>2026-04-12T07:19:06Z</time></trkpt><trkpt lat="45.48245688250456" lon="10.369755833965025"><ele>143.0</ele><time>2026-04-12T07:19:07Z</time></trkpt><trkpt lat="45.48253324330387" lon="10.369982707104809"><ele>143.33333333333331</ele><time>2026-04-12T07:19:08Z</time></trkpt><trkpt lat="45.48260505714251" lon="10.370199032327053"><ele>143.66666666666666</ele><time>2026-04-12T07:19:09Z</time></trkpt><trkpt lat="45.482676278998575" lon="10.370411557625399"><ele>144.0</ele><time>2026-04-12T07:19:10Z</time></trkpt><trkpt lat="45.48274416438314" lon="10.370628701407995"><ele>144.0</ele><time>2026-04-12T07:19:11Z</time></trkpt><trkpt lat="45.48281660412553" lon="10.370846995929929"><ele>144.0</ele><time>2026-04-12T07:19:12Z</time></trkpt><trkpt lat="45.48288937309333" lon="10.371066827205873"><ele>144.0</ele><time>2026-04-12T07:19:13Z</time></trkpt><trkpt lat="45.48296088047246" lon="10.371285932616164"><ele>143.66666666666666</ele><time>2026-04-12T07:19:14Z</time></trkpt><trkpt lat="45.48303517711948" lon="10.371516012954983"><ele>143.33333333333331</ele><time>2026-04-12T07:19:15Z</time></trkpt><trkpt lat="45.48313070611162" lon="10.371771447500002"><ele>143.0</ele><time>2026-04-12T07:19:16Z</time></trkpt><trkpt lat="45.48321229409867" lon="10.3720630915769"><ele>143.5</ele><time>2026-04-12T07:19:17Z</time></trkpt><trkpt lat="45.4833223240966" lon="10.372352590790445"><ele>144.0</ele><time>2026-04-12T07:19:18Z</time></trkpt><trkpt lat="45.483413476718354" lon="10.372652819363829"><ele>144.0</ele><time>2026-04-12T07:19:19Z</time></trkpt><trkpt lat="45.48350985784478" lon="10.372950277746064"><ele>144.0</ele><time>2026-04-12T07:19:20Z</time></trkpt><trkpt lat="45.4836045028066" lon="10.373240228215279"><ele>144.0</ele><time>2026-04-12T07:19:21Z</time></trkpt><trkpt lat="45.48369747805619" lon="10.373526958146059"><ele>144.0</ele><time>2026-04-12T07:19:22Z</time></trkpt><trkpt lat="45.48378989570661" lon="10.373805251260473"><ele>144.0</ele><time>2026-04-12T07:19:23Z</time></trkpt><trkpt lat="45.48387646116555" lon="10.374067359076342"><ele>144.0</ele><time>2026-04-12T07:19:24Z</time></trkpt><trkpt lat="45.483961397201526" lon="10.374327753783536"><ele>144.0</ele><time>2026-04-12T07:19:25Z</time></trkpt><trkpt lat="45.48404437635654" lon="10.374588179100762"><ele>144.0</ele><time>2026-04-12T07:19:26Z</time></trkpt><trkpt lat="45.484128981926425" lon="10.374852306693782"><ele>144.0</ele><time>2026-04-12T07:19:27Z</time></trkpt><trkpt lat="45.484216408045796" lon="10.37511695248705"><ele>144.0</ele><time>2026-04-12T07:19:28Z</time></trkpt><trkpt lat="45.48430577425943" lon="10.375380576655246"><ele>144.0</ele><time>2026-04-12T07:19:29Z</time></trkpt><trkpt lat="45.484392259575024" lon="10.375633283594862"><ele>144.0</ele><time>2026-04-12T07:19:30Z</time></trkpt><trkpt lat="45.484472768179586" lon="10.375880057776124"><ele>144.0</ele><time>2026-04-12T07:19:31Z</time></trkpt><trkpt lat="45.484551483657086" lon="10.37612299704136"><ele>144.0</ele><time>2026-04-12T07:19:32Z</time></trkpt><trkpt lat="45.48462932569252" lon="10.37635989852811"><ele>143.66666666666666</ele><time>2026-04-12T07:19:33Z</time></trkpt><trkpt lat="45.484707800453805" lon="10.376600712633005"><ele>143.33333333333331</ele><time>2026-04-12T07:19:34Z</time></trkpt><trkpt lat="45.48479168522752" lon="10.376854522732414"><ele>143.0</ele><time>2026-04-12T07:19:35Z</time></trkpt><trkpt lat="45.484876982843666" lon="10.377108754650608"><ele>143.66666666666666</ele><time>2026-04-12T07:19:36Z</time></trkpt><trkpt lat="45.484955100840914" lon="10.377368167997451"><ele>144.33333333333334</ele><time>2026-04-12T07:19:37Z</time></trkpt><trkpt lat="45.48503216818989" lon="10.37763339023973"><ele>145.0</ele><time>2026-04-12T07:19:38Z</time></trkpt><trkpt lat="45.48510667906873" lon="10.37789983012655"><ele>145.33333333333334</ele><time>2026-04-12T07:19:39Z</time></trkpt><trkpt lat="45.48518477039947" lon="10.378181949823063"><ele>145.66666666666666</ele><time>2026-04-12T07:19:40Z</time></trkpt><trkpt lat="45.48525972416816" lon="10.378478405460994"><ele>146.0</ele><time>2026-04-12T07:19:41Z</time></trkpt><trkpt lat="45.485325547305855" lon="10.37878859172644"><ele>144.5</ele><time>2026-04-12T07:19:42Z</time></trkpt><trkpt lat="45.48538671189227" lon="10.379111568095942"><ele>143.0</ele><time>2026-04-12T07:19:43Z</time></trkpt><trkpt lat="45.48544086087475" lon="10.379440485204317"><ele>143.5</ele><time>2026-04-12T07:19:44Z</time></trkpt><trkpt lat="45.48548664466449" lon="10.379772454880586"><ele>144.0</ele><time>2026-04-12T07:19:45Z</time></trkpt><trkpt lat="45.48550829389915" lon="10.380110331027204"><ele>144.0</ele><time>2026-04-12T07:19:46Z</time></trkpt><trkpt lat="45.48555448277302" lon="10.380431668094438"><ele>144.0</ele><time>2026-04-12T07:19:47Z</time></trkpt><trkpt lat="45.48557707843811" lon="10.38075297026167"><ele>144.0</ele><time>2026-04-12T07:19:48Z</time></trkpt><trkpt lat="45.485577835873286" lon="10.381072455218247"><ele>144.0</ele><time>2026-04-12T07:19:49Z</time></trkpt><trkpt lat="45.485584223150035" lon="10.38138551733175"><ele>144.0</ele><time>2026-04-12T07:19:50Z</time></trkpt><trkpt lat="45.48560123235006" lon="10.381683640725315"><ele>144.33333333333334</ele><time>2026-04-12T07:19:51Z</time></trkpt><trkpt lat="45.485593218212756" lon="10.381972324573937"><ele>144.66666666666669</ele><time>2026-04-12T07:19:52Z</time></trkpt><trkpt lat="45.48558208564462" lon="10.38224803768757"><ele>145.0</ele><time>2026-04-12T07:19:53Z</time></trkpt><trkpt lat="45.48556541234955" lon="10.382527738957092"><ele>145.0</ele><time>2026-04-12T07:19:54Z</time></trkpt><trkpt lat="45.4855462976877" lon="10.382810471636905"><ele>145.0</ele><time>2026-04-12T07:19:55Z</time></trkpt><trkpt lat="45.48552404246207" lon="10.38310358718488"><ele>145.0</ele><time>2026-04-12T07:19:56Z</time></trkpt><trkpt lat="45.485490940071244" lon="10.383407532372471"><ele>145.0</ele><time>2026-04-12T07:19:57Z</time></trkpt><trkpt lat="45.48544787472382" lon="10.383718878541774"><ele>145.0</ele><time>2026-04-12T07:19:58Z</time></trkpt><trkpt lat="45.48539852684494" lon="10.384039227608953"><ele>145.0</ele><time>2026-04-12T07:19:59Z</time></trkpt><trkpt lat="45.485332286992296" lon="10.384362082530984"><ele>145.0</ele><time>2026-04-12T07:20:00Z</time></trkpt><trkpt lat="45.485266843814706" lon="10.384686261190858"><ele>144.5</ele><time>2026-04-12T07:20:01Z</time></trkpt><trkpt lat="45.48519318421564" lon="10.385007672621548"><ele>144.0</ele><time>2026-04-12T07:20:02Z</time></trkpt><trkpt lat="45.48511375480732" lon="10.385330002327388"><ele>144.0</ele><time>2026-04-12T07:20:03Z</time></trkpt><trkpt lat="45.48502563732146" lon="10.385655661136896"><ele>144.0</ele><time>2026-04-12T07:20:04Z</time></trkpt><trkpt lat="45.484935812590585" lon="10.385983900325357"><ele>144.0</ele><time>2026-04-12T07:20:05Z</time></trkpt><trkpt lat="45.48483809601122" lon="10.386323320290646"><ele>144.0</ele><time>2026-04-12T07:20:06Z</time></trkpt><trkpt lat="45.48473704839921" lon="10.386669104956118"><ele>143.5</ele><time>2026-04-12T07:20:07Z</time></trkpt><trkpt lat="45.48463401943" lon="10.38701678527291"><ele>143.0</ele><time>2026-04-12T07:20:08Z</time></trkpt><trkpt lat="45.48453790254721" lon="10.38736253785449"><ele>143.0</ele><time>2026-04-12T07:20:09Z</time></trkpt><trkpt lat="45.484441439287316" lon="10.387706307047932"><ele>143.0</ele><time>2026-04-12T07:20:10Z</time></trkpt><trkpt lat="45.48434583451845" lon="10.388044960518284"><ele>143.0</ele><time>2026-04-12T07:20:11Z</time></trkpt><trkpt lat="45.48424801251733" lon="10.388382195164807"><ele>143.0</ele><time>2026-04-12T07:20:12Z</time></trkpt><trkpt lat="45.48414903183727" lon="10.388713835880582"><ele>144.5</ele><time>2026-04-12T07:20:13Z</time></trkpt><trkpt lat="45.484051088426746" lon="10.389045204427482"><ele>146.0</ele><time>2026-04-12T07:20:14Z</time></trkpt><trkpt lat="45.48395764833665" lon="10.38937412759618"><ele>145.5</ele><time>2026-04-12T07:20:15Z</time></trkpt><trkpt lat="45.48386364948533" lon="10.389705208318418"><ele>145.0</ele><time>2026-04-12T07:20:16Z</time></trkpt><trkpt lat="45.48377241277434" lon="10.39003392061289"><ele>144.5</ele><time>2026-04-12T07:20:17Z</time></trkpt><trkpt lat="45.48368124622922" lon="10.39035816420044"><ele>144.0</ele><time>2026-04-12T07:20:18Z</time></trkpt><trkpt lat="45.48359151898367" lon="10.390685071195183"><ele>142.5</ele><time>2026-04-12T07:20:19Z</time></trkpt><trkpt lat="45.48350288099861" lon="10.391009642642702"><ele>141.0</ele><time>2026-04-12T07:20:20Z</time></trkpt><trkpt lat="45.48341276286039" lon="10.391337543110444"><ele>141.5</ele><time>2026-04-12T07:20:21Z</time></trkpt><trkpt lat="45.48332190804287" lon="10.391668029364265"><ele>142.0</ele><time>2026-04-12T07:20:22Z</time></trkpt><trkpt lat="45.48323370877837" lon="10.391998936366107"><ele>142.5</ele><time>2026-04-12T07:20:23Z</time></trkpt><trkpt lat="45.48315018744042" lon="10.392329893051935"><ele>143.0</ele><time>2026-04-12T07:20:24Z</time></trkpt><trkpt lat="45.483068609508976" lon="10.39266425782899"><ele>143.0</ele><time>2026-04-12T07:20:25Z</time></trkpt><trkpt lat="45.48299035272984" lon="10.393003484546421"><ele>143.0</ele><time>2026-04-12T07:20:26Z</time></trkpt><trkpt lat="45.48289825111284" lon="10.393348979502878"><ele>142.5</ele><time>2026-04-12T07:20:27Z</time></trkpt><trkpt lat="45.48282268964742" lon="10.393669423881935"><ele>142.0</ele><time>2026-04-12T07:20:28Z</time></trkpt><trkpt lat="45.482740043174616" lon="10.394000350435844"><ele>140.0</ele><time>2026-04-12T07:20:29Z</time></trkpt><trkpt lat="45.48265628172288" lon="10.394326150458905"><ele>138.0</ele><time>2026-04-12T07:20:30Z</time></trkpt><trkpt lat="45.48256931538163" lon="10.394651887640851"><ele>137.5</ele><time>2026-04-12T07:20:31Z</time></trkpt><trkpt lat="45.48248447620434" lon="10.394976251319905"><ele>137.0</ele><time>2026-04-12T07:20:32Z</time></trkpt><trkpt lat="45.48239832228192" lon="10.395299981713517"><ele>136.5</ele><time>2026-04-12T07:20:33Z</time></trkpt><trkpt lat="45.48231136134949" lon="10.395625352447716"><ele>136.0</ele><time>2026-04-12T07:20:34Z</time></trkpt><trkpt lat="45.482227991340395" lon="10.395951233896293"><ele>136.0</ele><time>2026-04-12T07:20:35Z</time></trkpt><trkpt lat="45.48214877911281" lon="10.396277332195119"><ele>136.0</ele><time>2026-04-12T07:20:36Z</time></trkpt><trkpt lat="45.4820640593195" lon="10.396605693596296"><ele>136.0</ele><time>2026-04-12T07:20:37Z</time></trkpt><trkpt lat="45.48197887064501" lon="10.396940922208767"><ele>136.0</ele><time>2026-04-12T07:20:38Z</time></trkpt><trkpt lat="45.481895121089664" lon="10.397273374394599"><ele>136.0</ele><time>2026-04-12T07:20:39Z</time></trkpt><trkpt lat="45.48181118081714" lon="10.397610173131874"><ele>136.0</ele><time>2026-04-12T07:20:40Z</time></trkpt><trkpt lat="45.48172725067142" lon="10.397945302516344"><ele>135.5</ele><time>2026-04-12T07:20:41Z</time></trkpt><trkpt lat="45.48164263491815" lon="10.39828285126177"><ele>135.0</ele><time>2026-04-12T07:20:42Z</time></trkpt><trkpt lat="45.48155771227428" lon="10.398620814280548"><ele>135.0</ele><time>2026-04-12T07:20:43Z</time></trkpt><trkpt lat="45.481472988784084" lon="10.398959394507896"><ele>135.0</ele><time>2026-04-12T07:20:44Z</time></trkpt><trkpt lat="45.481386006115585" lon="10.399298759492284"><ele>135.0</ele><time>2026-04-12T07:20:45Z</time></trkpt><trkpt lat="45.48129946379933" lon="10.399637400811926"><ele>135.0</ele><time>2026-04-12T07:20:46Z</time></trkpt><trkpt lat="45.48120944747614" lon="10.39997857941367"><ele>135.5</ele><time>2026-04-12T07:20:47Z</time></trkpt><trkpt lat="45.481121469118456" lon="10.400317957338963"><ele>136.0</ele><time>2026-04-12T07:20:48Z</time></trkpt><trkpt lat="45.48103227726228" lon="10.400657004241063"><ele>136.0</ele><time>2026-04-12T07:20:49Z</time></trkpt><trkpt lat="45.480945616402344" lon="10.400996581435884"><ele>136.0</ele><time>2026-04-12T07:20:50Z</time></trkpt><trkpt lat="45.48086032685055" lon="10.40133401447069"><ele>136.5</ele><time>2026-04-12T07:20:51Z</time></trkpt><trkpt lat="45.480774382237975" lon="10.401670756661431"><ele>137.0</ele><time>2026-04-12T07:20:52Z</time></trkpt><trkpt lat="45.48068535729438" lon="10.402011146728693"><ele>137.0</ele><time>2026-04-12T07:20:53Z</time></trkpt><trkpt lat="45.4806007042592" lon="10.402345927082685"><ele>137.0</ele><time>2026-04-12T07:20:54Z</time></trkpt><trkpt lat="45.48051504168097" lon="10.402683960618573"><ele>136.0</ele><time>2026-04-12T07:20:55Z</time></trkpt><trkpt lat="45.480432484163366" lon="10.403019874524853"><ele>135.0</ele><time>2026-04-12T07:20:56Z</time></trkpt><trkpt lat="45.480354180549384" lon="10.403360070036292"><ele>135.0</ele><time>2026-04-12T07:20:57Z</time></trkpt><trkpt lat="45.48027914173985" lon="10.403701103113224"><ele>135.0</ele><time>2026-04-12T07:20:58Z</time></trkpt><trkpt lat="45.480212024706425" lon="10.404044676348402"><ele>135.0</ele><time>2026-04-12T07:20:59Z</time></trkpt><trkpt lat="45.48015299382032" lon="10.404390334447283"><ele>135.0</ele><time>2026-04-12T07:21:00Z</time></trkpt><trkpt lat="45.48010350465711" lon="10.404738111057485"><ele>134.5</ele><time>2026-04-12T07:21:01Z</time></trkpt><trkpt lat="45.480072596610704" lon="10.405088811928511"><ele>134.0</ele><time>2026-04-12T07:21:02Z</time></trkpt><trkpt lat="45.480051713443025" lon="10.405436031849659"><ele>136.0</ele><time>2026-04-12T07:21:03Z</time></trkpt><trkpt lat="45.480037022859634" lon="10.405770023295329"><ele>138.0</ele><time>2026-04-12T07:21:04Z</time></trkpt><trkpt lat="45.48002150877238" lon="10.406102715912011"><ele>141.5</ele><time>2026-04-12T07:21:05Z</time></trkpt><trkpt lat="45.479999357829506" lon="10.406444092428538"><ele>145.0</ele><time>2026-04-12T07:21:06Z</time></trkpt><trkpt lat="45.47997776449524" lon="10.406789693389957"><ele>145.0</ele><time>2026-04-12T07:21:07Z</time></trkpt><trkpt lat="45.47995593207094" lon="10.407138774978302"><ele>145.0</ele><time>2026-04-12T07:21:08.013Z</time></trkpt><trkpt lat="45.479935261131565" lon="10.407482418317747"><ele>144.5</ele><time>2026-04-12T07:21:09.019Z</time></trkpt><trkpt lat="45.47996578903843" lon="10.407817607766463"><ele>144.0</ele><time>2026-04-12T07:21:10.016Z</time></trkpt><trkpt lat="45.48000174383776" lon="10.408152188824413"><ele>143.5</ele><time>2026-04-12T07:21:11.016Z</time></trkpt><trkpt lat="45.48004211134066" lon="10.408483503955118"><ele>143.0</ele><time>2026-04-12T07:21:12.022Z</time></trkpt><trkpt lat="45.48047468475513" lon="10.410710482256983"><ele>149.0</ele><time>2026-04-12T07:21:15.634Z</time></trkpt><trkpt lat="45.48121224875483" lon="10.42251610274518"><ele>149.0</ele><time>2026-04-12T07:22:00Z</time></trkpt><trkpt lat="45.48107218406668" lon="10.422770777796686"><ele>149.0</ele><time>2026-04-12T07:22:01Z</time></trkpt><trkpt lat="45.48099141512473" lon="10.42308173999349"><ele>148.5</ele><time>2026-04-12T07:22:02Z</time></trkpt><trkpt lat="45.48087712548903" lon="10.42335954750434"><ele>148.0</ele><time>2026-04-12T07:22:03Z</time></trkpt><trkpt lat="45.480785851787886" lon="10.42366712871062"><ele>148.0</ele><time>2026-04-12T07:22:04Z</time></trkpt><trkpt lat="45.480692729524414" lon="10.423977101032811"><ele>148.0</ele><time>2026-04-12T07:22:05Z</time></trkpt><trkpt lat="45.480597916488456" lon="10.424290412658168"><ele>148.0</ele><time>2026-04-12T07:22:06Z</time></trkpt><trkpt lat="45.48050288838813" lon="10.424604435570977"><ele>148.0</ele><time>2026-04-12T07:22:07Z</time></trkpt><trkpt lat="45.48040647566496" lon="10.424919496867952"><ele>147.0</ele><time>2026-04-12T07:22:08Z</time></trkpt><trkpt lat="45.480309368611636" lon="10.4252365316483"><ele>146.0</ele><time>2026-04-12T07:22:09Z</time></trkpt><trkpt lat="45.480212825998365" lon="10.425546946479056"><ele>145.0</ele><time>2026-04-12T07:22:10Z</time></trkpt><trkpt lat="45.480115974163766" lon="10.425857459754578"><ele>144.0</ele><time>2026-04-12T07:22:11Z</time></trkpt><trkpt lat="45.48001940811904" lon="10.42616791636455"><ele>143.0</ele><time>2026-04-12T07:22:12Z</time></trkpt><trkpt lat="45.479923083521896" lon="10.426480020126274"><ele>142.0</ele><time>2026-04-12T07:22:13Z</time></trkpt><trkpt lat="45.47982821693541" lon="10.42679047686423"><ele>142.0</ele><time>2026-04-12T07:22:14Z</time></trkpt><trkpt lat="45.479732094040905" lon="10.427105044810716"><ele>142.0</ele><time>2026-04-12T07:22:15Z</time></trkpt><trkpt lat="45.47963686893739" lon="10.42741667517972"><ele>142.5</ele><time>2026-04-12T07:22:16Z</time></trkpt><trkpt lat="45.47954079183584" lon="10.42773109315945"><ele>143.0</ele><time>2026-04-12T07:22:17Z</time></trkpt><trkpt lat="45.47944460563869" lon="10.428045299129318"><ele>143.0</ele><time>2026-04-12T07:22:18Z</time></trkpt><trkpt lat="45.47934895219161" lon="10.42835754216426"><ele>143.0</ele><time>2026-04-12T07:22:19Z</time></trkpt><trkpt lat="45.47925340160686" lon="10.428669448930338"><ele>142.5</ele><time>2026-04-12T07:22:20Z</time></trkpt><trkpt lat="45.479157407765506" lon="10.428981455412268"><ele>142.0</ele><time>2026-04-12T07:22:21Z</time></trkpt><trkpt lat="45.479075274138545" lon="10.429296800599131"><ele>142.0</ele><time>2026-04-12T07:22:22Z</time></trkpt><trkpt lat="45.47897293896608" lon="10.42960362300326"><ele>142.0</ele><time>2026-04-12T07:22:23Z</time></trkpt><trkpt lat="45.478876926108626" lon="10.429913809324113"><ele>142.0</ele><time>2026-04-12T07:22:24Z</time></trkpt><trkpt lat="45.47878121963102" lon="10.430222705268163"><ele>142.0</ele><time>2026-04-12T07:22:25Z</time></trkpt><trkpt lat="45.47868739787927" lon="10.430534450454003"><ele>142.0</ele><time>2026-04-12T07:22:26Z</time></trkpt><trkpt lat="45.478599984774235" lon="10.430832078463862"><ele>142.0</ele><time>2026-04-12T07:22:27Z</time></trkpt><trkpt lat="45.478500782189435" lon="10.431142551277043"><ele>141.5</ele><time>2026-04-12T07:22:28Z</time></trkpt><trkpt lat="45.47840759568627" lon="10.431451920080871"><ele>141.0</ele><time>2026-04-12T07:22:29Z</time></trkpt><trkpt lat="45.47831232352643" lon="10.431758391975976"><ele>141.0</ele><time>2026-04-12T07:22:30Z</time></trkpt><trkpt lat="45.47821935774277" lon="10.432067596585554"><ele>141.0</ele><time>2026-04-12T07:22:31Z</time></trkpt><trkpt lat="45.47811669340423" lon="10.432376019031269"><ele>140.5</ele><time>2026-04-12T07:22:32Z</time></trkpt><trkpt lat="45.478020610938124" lon="10.432683845544409"><ele>140.0</ele><time>2026-04-12T07:22:33Z</time></trkpt><trkpt lat="45.477924758262645" lon="10.432993258526512"><ele>141.0</ele><time>2026-04-12T07:22:34Z</time></trkpt><trkpt lat="45.47783046615435" lon="10.433303556765106"><ele>142.0</ele><time>2026-04-12T07:22:35Z</time></trkpt><trkpt lat="45.477735714383115" lon="10.433614289210208"><ele>142.5</ele><time>2026-04-12T07:22:36Z</time></trkpt><trkpt lat="45.47764011830189" lon="10.433922498934434"><ele>143.0</ele><time>2026-04-12T07:22:37Z</time></trkpt><trkpt lat="45.477542149374216" lon="10.434232367833605"><ele>143.0</ele><time>2026-04-12T07:22:38Z</time></trkpt><trkpt lat="45.4774513085486" lon="10.434541985950093"><ele>143.0</ele><time>2026-04-12T07:22:39Z</time></trkpt><trkpt lat="45.477358739557324" lon="10.434849656238141"><ele>143.5</ele><time>2026-04-12T07:22:40Z</time></trkpt><trkpt lat="45.477262086960415" lon="10.435158672548477"><ele>144.0</ele><time>2026-04-12T07:22:41Z</time></trkpt><trkpt lat="45.4771660564251" lon="10.435466440131739"><ele>143.5</ele><time>2026-04-12T07:22:42Z</time></trkpt><trkpt lat="45.47706941230251" lon="10.435771025313665"><ele>143.0</ele><time>2026-04-12T07:22:43Z</time></trkpt><trkpt lat="45.4769729528214" lon="10.436077469981068"><ele>143.0</ele><time>2026-04-12T07:22:44Z</time></trkpt><trkpt lat="45.4768803857406" lon="10.436386576372007"><ele>143.0</ele><time>2026-04-12T07:22:45Z</time></trkpt><trkpt lat="45.476787373623786" lon="10.436693753279602"><ele>143.0</ele><time>2026-04-12T07:22:46Z</time></trkpt><trkpt lat="45.47669206973432" lon="10.437001789112777"><ele>143.0</ele><time>2026-04-12T07:22:47Z</time></trkpt><trkpt lat="45.47659766567404" lon="10.437310728419703"><ele>143.0</ele><time>2026-04-12T07:22:48Z</time></trkpt><trkpt lat="45.476503739617854" lon="10.437621963532473"><ele>143.0</ele><time>2026-04-12T07:22:49Z</time></trkpt><trkpt lat="45.47641427512918" lon="10.437930418662566"><ele>143.0</ele><time>2026-04-12T07:22:50Z</time></trkpt><trkpt lat="45.47632269367241" lon="10.438241118606834"><ele>143.0</ele><time>2026-04-12T07:22:51Z</time></trkpt><trkpt lat="45.47622742614475" lon="10.438550249150877"><ele>142.0</ele><time>2026-04-12T07:22:52Z</time></trkpt><trkpt lat="45.47613266700283" lon="10.438859811133277"><ele>141.0</ele><time>2026-04-12T07:22:53Z</time></trkpt><trkpt lat="45.47603802161887" lon="10.439164789215335"><ele>141.0</ele><time>2026-04-12T07:22:54Z</time></trkpt><trkpt lat="45.47594414253516" lon="10.439468816216916"><ele>141.0</ele><time>2026-04-12T07:22:55Z</time></trkpt><trkpt lat="45.475853274881686" lon="10.439771923620102"><ele>141.5</ele><time>2026-04-12T07:22:56Z</time></trkpt><trkpt lat="45.47576152388932" lon="10.440075792657172"><ele>142.0</ele><time>2026-04-12T07:22:57Z</time></trkpt><trkpt lat="45.47567048926739" lon="10.44037682271477"><ele>143.0</ele><time>2026-04-12T07:22:58Z</time></trkpt><trkpt lat="45.475584486487236" lon="10.440683974239146"><ele>144.0</ele><time>2026-04-12T07:22:59Z</time></trkpt><trkpt lat="45.475502808718666" lon="10.440994692347383"><ele>143.5</ele><time>2026-04-12T07:23:00Z</time></trkpt><trkpt lat="45.47542084848912" lon="10.441304277423896"><ele>143.0</ele><time>2026-04-12T07:23:01Z</time></trkpt><trkpt lat="45.47533733649064" lon="10.44162380931684"><ele>143.0</ele><time>2026-04-12T07:23:02Z</time></trkpt><trkpt lat="45.475256136878" lon="10.441943369417137"><ele>143.0</ele><time>2026-04-12T07:23:03Z</time></trkpt><trkpt lat="45.475174170762" lon="10.442254097134759"><ele>143.5</ele><time>2026-04-12T07:23:04Z</time></trkpt><trkpt lat="45.47509450117218" lon="10.442569569034978"><ele>144.0</ele><time>2026-04-12T07:23:05Z</time></trkpt><trkpt lat="45.47501159615597" lon="10.442888638168604"><ele>144.0</ele><time>2026-04-12T07:23:06Z</time></trkpt><trkpt lat="45.47492626407048" lon="10.443205789292849"><ele>144.0</ele><time>2026-04-12T07:23:07Z</time></trkpt><trkpt lat="45.474842353592045" lon="10.443519123071317"><ele>143.0</ele><time>2026-04-12T07:23:08Z</time></trkpt><trkpt lat="45.47475667858914" lon="10.443833131169871"><ele>142.0</ele><time>2026-04-12T07:23:08.999Z</time></trkpt><trkpt lat="45.474672335133576" lon="10.444148114363283"><ele>142.5</ele><time>2026-04-12T07:23:09.999Z</time></trkpt><trkpt lat="45.474589401577056" lon="10.444462028878428"><ele>143.0</ele><time>2026-04-12T07:23:11Z</time></trkpt><trkpt lat="45.474505796635384" lon="10.444774577333774"><ele>143.0</ele><time>2026-04-12T07:23:12Z</time></trkpt><trkpt lat="45.4744211739537" lon="10.445087054704178"><ele>143.0</ele><time>2026-04-12T07:23:13Z</time></trkpt><trkpt lat="45.47433763825207" lon="10.445398859825282"><ele>142.5</ele><time>2026-04-12T07:23:14Z</time></trkpt><trkpt lat="45.474253405597864" lon="10.445705703067755"><ele>142.0</ele><time>2026-04-12T07:23:15Z</time></trkpt><trkpt lat="45.47417085572952" lon="10.446012147553002"><ele>142.5</ele><time>2026-04-12T07:23:16Z</time></trkpt><trkpt lat="45.47408789815987" lon="10.446318273473524"><ele>143.0</ele><time>2026-04-12T07:23:17Z</time></trkpt><trkpt lat="45.47400528493727" lon="10.44662253340194"><ele>143.0</ele><time>2026-04-12T07:23:18Z</time></trkpt><trkpt lat="45.473923935578476" lon="10.446925560398023"><ele>143.0</ele><time>2026-04-12T07:23:19Z</time></trkpt><trkpt lat="45.47384327406481" lon="10.447228104062576"><ele>144.0</ele><time>2026-04-12T07:23:20Z</time></trkpt><trkpt lat="45.47376198111467" lon="10.447528510903295"><ele>145.0</ele><time>2026-04-12T07:23:21Z</time></trkpt><trkpt lat="45.47367948654145" lon="10.447825782636729"><ele>145.33333333333334</ele><time>2026-04-12T07:23:22Z</time></trkpt><trkpt lat="45.47359757398597" lon="10.448126898936177"><ele>145.66666666666666</ele><time>2026-04-12T07:23:23Z</time></trkpt><trkpt lat="45.47352177811469" lon="10.44842400657049"><ele>146.0</ele><time>2026-04-12T07:23:24Z</time></trkpt><trkpt lat="45.473445602511376" lon="10.448723303408267"><ele>146.0</ele><time>2026-04-12T07:23:25Z</time></trkpt><trkpt lat="45.47336728158028" lon="10.449020801931987"><ele>146.0</ele><time>2026-04-12T07:23:26Z</time></trkpt><trkpt lat="45.47328877977104" lon="10.4493185155257"><ele>146.0</ele><time>2026-04-12T07:23:27Z</time></trkpt><trkpt lat="45.47320902600105" lon="10.449614610377052"><ele>145.66666666666666</ele><time>2026-04-12T07:23:28Z</time></trkpt><trkpt lat="45.473127652104985" lon="10.44991288752635"><ele>145.33333333333334</ele><time>2026-04-12T07:23:29Z</time></trkpt><trkpt lat="45.47304694865644" lon="10.450211380477311"><ele>145.0</ele><time>2026-04-12T07:23:30Z</time></trkpt><trkpt lat="45.47296967157617" lon="10.450512842837513"><ele>145.5</ele><time>2026-04-12T07:23:31Z</time></trkpt><trkpt lat="45.47289447901623" lon="10.450813913507108"><ele>146.0</ele><time>2026-04-12T07:23:32Z</time></trkpt><trkpt lat="45.47281636025913" lon="10.451116820565295"><ele>146.0</ele><time>2026-04-12T07:23:33Z</time></trkpt><trkpt lat="45.472737800518296" lon="10.451421304493387"><ele>146.0</ele><time>2026-04-12T07:23:34Z</time></trkpt><trkpt lat="45.47265634490729" lon="10.451726604356955"><ele>146.0</ele><time>2026-04-12T07:23:35Z</time></trkpt><trkpt lat="45.47257039626814" lon="10.452026939423243"><ele>146.0</ele><time>2026-04-12T07:23:36Z</time></trkpt><trkpt lat="45.47248131675554" lon="10.452325165440659"><ele>146.0</ele><time>2026-04-12T07:23:37Z</time></trkpt><trkpt lat="45.47239169638305" lon="10.45262557262833"><ele>146.0</ele><time>2026-04-12T07:23:38Z</time></trkpt><trkpt lat="45.47230383512837" lon="10.452929281137754"><ele>146.5</ele><time>2026-04-12T07:23:39Z</time></trkpt><trkpt lat="45.47222336174088" lon="10.453238062712073"><ele>147.0</ele><time>2026-04-12T07:23:40Z</time></trkpt><trkpt lat="45.47215016971842" lon="10.453548847292208"><ele>147.0</ele><time>2026-04-12T07:23:41Z</time></trkpt><trkpt lat="45.47208689897757" lon="10.453860457492846"><ele>147.0</ele><time>2026-04-12T07:23:42Z</time></trkpt><trkpt lat="45.4720232483527" lon="10.45417623479831"><ele>147.0</ele><time>2026-04-12T07:23:43Z</time></trkpt><trkpt lat="45.47196927250143" lon="10.45449705213976"><ele>147.0</ele><time>2026-04-12T07:23:44Z</time></trkpt><trkpt lat="45.47192132366315" lon="10.45481751873231"><ele>147.0</ele><time>2026-04-12T07:23:45Z</time></trkpt><trkpt lat="45.471881063873425" lon="10.455141525605184"><ele>147.0</ele><time>2026-04-12T07:23:46Z</time></trkpt><trkpt lat="45.4718521726578" lon="10.455465312124339"><ele>147.0</ele><time>2026-04-12T07:23:47Z</time></trkpt><trkpt lat="45.4718320976882" lon="10.455793170275827"><ele>147.0</ele><time>2026-04-12T07:23:48Z</time></trkpt><trkpt lat="45.47181744546047" lon="10.456123625949866"><ele>148.0</ele><time>2026-04-12T07:23:49Z</time></trkpt><trkpt lat="45.471809761048654" lon="10.456455602602745"><ele>149.0</ele><time>2026-04-12T07:23:50Z</time></trkpt><trkpt lat="45.47181532309021" lon="10.45678359236407"><ele>149.0</ele><time>2026-04-12T07:23:51Z</time></trkpt><trkpt lat="45.47183069326032" lon="10.457113502177906"><ele>149.0</ele><time>2026-04-12T07:23:52Z</time></trkpt><trkpt lat="45.47185278590755" lon="10.457441140379999"><ele>149.0</ele><time>2026-04-12T07:23:53Z</time></trkpt><trkpt lat="45.47188167190897" lon="10.457767946431408"><ele>149.0</ele><time>2026-04-12T07:23:54Z</time></trkpt><trkpt lat="45.47191967720379" lon="10.458087133142094"><ele>149.0</ele><time>2026-04-12T07:23:55Z</time></trkpt><trkpt lat="45.47196348057956" lon="10.458407027889267"><ele>149.0</ele><time>2026-04-12T07:23:56Z</time></trkpt><trkpt lat="45.472017634974186" lon="10.458720376091252"><ele>149.0</ele><time>2026-04-12T07:23:57Z</time></trkpt><trkpt lat="45.47208199430442" lon="10.45903121762957"><ele>149.0</ele><time>2026-04-12T07:23:58Z</time></trkpt><trkpt lat="45.47214772550159" lon="10.459342757292509"><ele>151.0</ele><time>2026-04-12T07:23:59Z</time></trkpt><trkpt lat="45.47221804805339" lon="10.459652018537795"><ele>153.0</ele><time>2026-04-12T07:24:00Z</time></trkpt><trkpt lat="45.47229356554138" lon="10.459956473429552"><ele>153.0</ele><time>2026-04-12T07:24:01Z</time></trkpt><trkpt lat="45.472368993992724" lon="10.460260770455928"><ele>153.0</ele><time>2026-04-12T07:24:02Z</time></trkpt><trkpt lat="45.472443408933486" lon="10.460562345336669"><ele>152.66666666666666</ele><time>2026-04-12T07:24:03Z</time></trkpt><trkpt lat="45.472519775537684" lon="10.460863223224889"><ele>152.33333333333331</ele><time>2026-04-12T07:24:04Z</time></trkpt><trkpt lat="45.472596666633635" lon="10.461162192578584"><ele>152.0</ele><time>2026-04-12T07:24:05Z</time></trkpt><trkpt lat="45.47267255183716" lon="10.461463261941917"><ele>152.0</ele><time>2026-04-12T07:24:06Z</time></trkpt><trkpt lat="45.47274827923743" lon="10.461765105997282"><ele>152.0</ele><time>2026-04-12T07:24:07Z</time></trkpt><trkpt lat="45.47282589920818" lon="10.462069222836686"><ele>152.0</ele><time>2026-04-12T07:24:08Z</time></trkpt><trkpt lat="45.472904981277054" lon="10.462374490748473"><ele>152.0</ele><time>2026-04-12T07:24:09Z</time></trkpt><trkpt lat="45.472982600489516" lon="10.462675512733664"><ele>153.5</ele><time>2026-04-12T07:24:10Z</time></trkpt><trkpt lat="45.473060355363586" lon="10.46297983349204"><ele>155.0</ele><time>2026-04-12T07:24:11Z</time></trkpt><trkpt lat="45.47313466641117" lon="10.46328403598119"><ele>155.0</ele><time>2026-04-12T07:24:12Z</time></trkpt><trkpt lat="45.47321002792317" lon="10.463589175444772"><ele>155.0</ele><time>2026-04-12T07:24:13Z</time></trkpt><trkpt lat="45.473287130463014" lon="10.463893504583112"><ele>155.5</ele><time>2026-04-12T07:24:14Z</time></trkpt><trkpt lat="45.47336445928153" lon="10.464199475246815"><ele>156.0</ele><time>2026-04-12T07:24:15Z</time></trkpt><trkpt lat="45.473440567420774" lon="10.464504350895778"><ele>156.33333333333334</ele><time>2026-04-12T07:24:16Z</time></trkpt><trkpt lat="45.47351504971668" lon="10.464806391615097"><ele>156.66666666666669</ele><time>2026-04-12T07:24:17Z</time></trkpt><trkpt lat="45.47359016525109" lon="10.465108523776495"><ele>157.0</ele><time>2026-04-12T07:24:18Z</time></trkpt><trkpt lat="45.47366662872136" lon="10.465409666641444"><ele>157.0</ele><time>2026-04-12T07:24:19Z</time></trkpt><trkpt lat="45.473741572226196" lon="10.465708048549015"><ele>157.0</ele><time>2026-04-12T07:24:20Z</time></trkpt><trkpt lat="45.473817560554096" lon="10.466004203160661"><ele>157.0</ele><time>2026-04-12T07:24:21Z</time></trkpt><trkpt lat="45.473893778647785" lon="10.466301128220346"><ele>157.66666666666669</ele><time>2026-04-12T07:24:22Z</time></trkpt><trkpt lat="45.47396891977186" lon="10.46659977743853"><ele>158.33333333333334</ele><time>2026-04-12T07:24:23Z</time></trkpt><trkpt lat="45.474043145796884" lon="10.466901065179867"><ele>159.0</ele><time>2026-04-12T07:24:24Z</time></trkpt><trkpt lat="45.47411695864325" lon="10.467202412467849"><ele>159.66666666666666</ele><time>2026-04-12T07:24:25Z</time></trkpt><trkpt lat="45.47418767383019" lon="10.467502988313495"><ele>160.33333333333331</ele><time>2026-04-12T07:24:26Z</time></trkpt><trkpt lat="45.474251889563526" lon="10.467806577650547"><ele>161.0</ele><time>2026-04-12T07:24:27Z</time></trkpt><trkpt lat="45.474310531195556" lon="10.468110102086179"><ele>161.33333333333331</ele><time>2026-04-12T07:24:28Z</time></trkpt><trkpt lat="45.47436360109291" lon="10.468415235310593"><ele>161.66666666666666</ele><time>2026-04-12T07:24:29Z</time></trkpt><trkpt lat="45.474409385137314" lon="10.468718553542995"><ele>162.0</ele><time>2026-04-12T07:24:30Z</time></trkpt><trkpt lat="45.474448123167356" lon="10.46902065720177"><ele>162.66666666666666</ele><time>2026-04-12T07:24:31Z</time></trkpt><trkpt lat="45.474484033069125" lon="10.469329134299938"><ele>163.33333333333331</ele><time>2026-04-12T07:24:32Z</time></trkpt><trkpt lat="45.47451807137429" lon="10.469637267075553"><ele>164.0</ele><time>2026-04-12T07:24:33Z</time></trkpt><trkpt lat="45.474552711877394" lon="10.469943103370925"><ele>164.66666666666666</ele><time>2026-04-12T07:24:34Z</time></trkpt><trkpt lat="45.47458601116103" lon="10.470245154860486"><ele>165.33333333333334</ele><time>2026-04-12T07:24:35Z</time></trkpt><trkpt lat="45.474618705113" lon="10.470550264772323"><ele>166.0</ele><time>2026-04-12T07:24:36Z</time></trkpt><trkpt lat="45.474654260166936" lon="10.470853801986992"><ele>167.33333333333334</ele><time>2026-04-12T07:24:37Z</time></trkpt><trkpt lat="45.47468883792067" lon="10.471158439402375"><ele>168.66666666666666</ele><time>2026-04-12T07:24:38Z</time></trkpt><trkpt lat="45.47472090090169" lon="10.471462965358198"><ele>170.0</ele><time>2026-04-12T07:24:39Z</time></trkpt><trkpt lat="45.47475235907442" lon="10.471763472496768"><ele>172.66666666666666</ele><time>2026-04-12T07:24:40Z</time></trkpt><trkpt lat="45.47478312878395" lon="10.472063281341153"><ele>175.33333333333334</ele><time>2026-04-12T07:24:41Z</time></trkpt><trkpt lat="45.4748150374797" lon="10.472369157626154"><ele>178.0</ele><time>2026-04-12T07:24:42.021Z</time></trkpt><trkpt lat="45.47484778637945" lon="10.47266915436991"><ele>181.33333333333334</ele><time>2026-04-12T07:24:43.023Z</time></trkpt><trkpt lat="45.47488011536268" lon="10.472965668023841"><ele>184.66666666666666</ele><time>2026-04-12T07:24:44.018Z</time></trkpt><trkpt lat="45.474897571365" lon="10.473267620864473"><ele>188.0</ele><time>2026-04-12T07:24:45.016Z</time></trkpt><trkpt lat="45.47492760513676" lon="10.473567413730429"><ele>188.0</ele><time>2026-04-12T07:24:46.02Z</time></trkpt><trkpt lat="45.47495306373206" lon="10.473867177460559"><ele>188.0</ele><time>2026-04-12T07:24:47.016Z</time></trkpt><trkpt lat="45.474976026399176" lon="10.47416836375502"><ele>188.0</ele><time>2026-04-12T07:24:48.017Z</time></trkpt><trkpt lat="45.47490595837433" lon="10.476466344835842"><ele>191.5</ele><time>2026-04-12T07:24:51.633Z</time></trkpt><trkpt lat="45.47481432218439" lon="10.477092256963655"><ele>195.0</ele><time>2026-04-12T07:24:52.632Z</time></trkpt><trkpt lat="45.474714667909424" lon="10.477715814698696"><ele>196.5</ele><time>2026-04-12T07:24:53.632Z</time></trkpt><trkpt lat="45.47461474631797" lon="10.47833929010327"><ele>198.0</ele><time>2026-04-12T07:24:54.632Z</time></trkpt><trkpt lat="45.47451470398396" lon="10.47896325011494"><ele>202.0</ele><time>2026-04-12T07:24:55.633Z</time></trkpt><trkpt lat="45.47441508937092" lon="10.479586267961265"><ele>206.0</ele><time>2026-04-12T07:24:56.632Z</time></trkpt><trkpt lat="45.4743355" lon="10.4800892"><ele>152.0</ele><time>2026-04-12T07:24:57.632Z</time></trkpt><trkpt lat="45.47076171268287" lon="10.49180111848795"><ele>152.0</ele><time>2026-04-12T07:25:45.999Z</time></trkpt><trkpt lat="45.4705978937494" lon="10.492022790628534"><ele>152.0</ele><time>2026-04-12T07:25:46.999Z</time></trkpt><trkpt lat="45.47041549592756" lon="10.492171324731002"><ele>152.0</ele><time>2026-04-12T07:25:47.999Z</time></trkpt><trkpt lat="45.47025219492898" lon="10.492391897848643"><ele>151.5</ele><time>2026-04-12T07:25:48.999Z</time></trkpt><trkpt lat="45.470090224318085" lon="10.492616251149942"><ele>151.0</ele><time>2026-04-12T07:25:49.999Z</time></trkpt><trkpt lat="45.46992747774737" lon="10.492837063691939"><ele>151.33333333333334</ele><time>2026-04-12T07:25:50.999Z</time></trkpt><trkpt lat="45.46976637773" lon="10.49305875300346"><ele>151.66666666666666</ele><time>2026-04-12T07:25:52Z</time></trkpt><trkpt lat="45.4696049513616" lon="10.493279695875955"><ele>152.0</ele><time>2026-04-12T07:25:53Z</time></trkpt><trkpt lat="45.46944676138861" lon="10.493501098954464"><ele>152.0</ele><time>2026-04-12T07:25:54Z</time></trkpt><trkpt lat="45.4692908430417" lon="10.493719114068725"><ele>152.0</ele><time>2026-04-12T07:25:55Z</time></trkpt><trkpt lat="45.46913465272952" lon="10.493935572145022"><ele>152.0</ele><time>2026-04-12T07:25:56Z</time></trkpt><trkpt lat="45.46897759950968" lon="10.494155278542737"><ele>151.66666666666666</ele><time>2026-04-12T07:25:57Z</time></trkpt><trkpt lat="45.46881941513849" lon="10.49437617156774"><ele>151.33333333333334</ele><time>2026-04-12T07:25:58Z</time></trkpt><trkpt lat="45.4686690454233" lon="10.494602043660679"><ele>151.0</ele><time>2026-04-12T07:25:59Z</time></trkpt><trkpt lat="45.468524000651506" lon="10.494839127324473"><ele>149.66666666666669</ele><time>2026-04-12T07:26:00Z</time></trkpt><trkpt lat="45.468386811158574" lon="10.495087983089181"><ele>148.33333333333334</ele><time>2026-04-12T07:26:01Z</time></trkpt><trkpt lat="45.46825936726302" lon="10.495347370993146"><ele>147.0</ele><time>2026-04-12T07:26:02Z</time></trkpt><trkpt lat="45.46813836680333" lon="10.49561651840998"><ele>148.0</ele><time>2026-04-12T07:26:03Z</time></trkpt><trkpt lat="45.468025974409954" lon="10.495904743708497"><ele>149.0</ele><time>2026-04-12T07:26:04Z</time></trkpt><trkpt lat="45.46792158142957" lon="10.496210436753284"><ele>148.5</ele><time>2026-04-12T07:26:05Z</time></trkpt><trkpt lat="45.467816925389855" lon="10.49653788859992"><ele>148.0</ele><time>2026-04-12T07:26:06Z</time></trkpt><trkpt lat="45.467709282220135" lon="10.496871704686722"><ele>146.5</ele><time>2026-04-12T07:26:07Z</time></trkpt><trkpt lat="45.46759915001071" lon="10.49720814265534"><ele>145.0</ele><time>2026-04-12T07:26:08Z</time></trkpt><trkpt lat="45.46748826935593" lon="10.497544478487505"><ele>145.0</ele><time>2026-04-12T07:26:09Z</time></trkpt><trkpt lat="45.467377451432995" lon="10.497886459265235"><ele>145.0</ele><time>2026-04-12T07:26:10Z</time></trkpt><trkpt lat="45.46726709398908" lon="10.498228724034647"><ele>145.0</ele><time>2026-04-12T07:26:11Z</time></trkpt><trkpt lat="45.46715464879494" lon="10.498574260564222"><ele>145.0</ele><time>2026-04-12T07:26:12Z</time></trkpt><trkpt lat="45.467044080840466" lon="10.498914366081639"><ele>144.0</ele><time>2026-04-12T07:26:13Z</time></trkpt><trkpt lat="45.46692988004253" lon="10.499255390464187"><ele>143.0</ele><time>2026-04-12T07:26:14Z</time></trkpt><trkpt lat="45.466818362049175" lon="10.499594589346579"><ele>142.0</ele><time>2026-04-12T07:26:15Z</time></trkpt><trkpt lat="45.46670248164966" lon="10.499931302504168"><ele>141.0</ele><time>2026-04-12T07:26:16Z</time></trkpt><trkpt lat="45.466586203563274" lon="10.500264271909964"><ele>141.5</ele><time>2026-04-12T07:26:17Z</time></trkpt><trkpt lat="45.466467140058434" lon="10.500594389802746"><ele>142.0</ele><time>2026-04-12T07:26:18Z</time></trkpt><trkpt lat="45.466334753009086" lon="10.500913244650416"><ele>142.0</ele><time>2026-04-12T07:26:19Z</time></trkpt><trkpt lat="45.46617636858398" lon="10.501199353328381"><ele>142.0</ele><time>2026-04-12T07:26:20Z</time></trkpt><trkpt lat="45.466019783037346" lon="10.501490219141502"><ele>142.0</ele><time>2026-04-12T07:26:21Z</time></trkpt><trkpt lat="45.46585225319296" lon="10.50177287495591"><ele>142.0</ele><time>2026-04-12T07:26:22Z</time></trkpt><trkpt lat="45.46567365326899" lon="10.502063565227234"><ele>141.5</ele><time>2026-04-12T07:26:23Z</time></trkpt><trkpt lat="45.46548824475067" lon="10.502358236040218"><ele>141.0</ele><time>2026-04-12T07:26:24Z</time></trkpt><trkpt lat="45.46530235207095" lon="10.502653390868579"><ele>142.0</ele><time>2026-04-12T07:26:25Z</time></trkpt><trkpt lat="45.465121173711836" lon="10.502943947962445"><ele>143.0</ele><time>2026-04-12T07:26:26Z</time></trkpt><trkpt lat="45.46494064959" lon="10.503230267643527"><ele>143.0</ele><time>2026-04-12T07:26:27Z</time></trkpt><trkpt lat="45.46475948321036" lon="10.50351552354062"><ele>143.0</ele><time>2026-04-12T07:26:28Z</time></trkpt><trkpt lat="45.46458120262106" lon="10.503803244396321"><ele>145.5</ele><time>2026-04-12T07:26:29Z</time></trkpt><trkpt lat="45.46440318106289" lon="10.50408847810407"><ele>148.0</ele><time>2026-04-12T07:26:30Z</time></trkpt><trkpt lat="45.46422687987746" lon="10.504369851802336"><ele>146.5</ele><time>2026-04-12T07:26:31Z</time></trkpt><trkpt lat="45.46404954055983" lon="10.504653304895903"><ele>145.0</ele><time>2026-04-12T07:26:32Z</time></trkpt><trkpt lat="45.46388824634528" lon="10.50494806441468"><ele>147.5</ele><time>2026-04-12T07:26:33Z</time></trkpt><trkpt lat="45.46371432973678" lon="10.505220237021131"><ele>150.0</ele><time>2026-04-12T07:26:34Z</time></trkpt><trkpt lat="45.46353666544597" lon="10.505496381623205"><ele>150.0</ele><time>2026-04-12T07:26:35Z</time></trkpt><trkpt lat="45.463359942091444" lon="10.505771836700436"><ele>150.0</ele><time>2026-04-12T07:26:36Z</time></trkpt><trkpt lat="45.463186704743045" lon="10.506043679460436"><ele>149.5</ele><time>2026-04-12T07:26:37Z</time></trkpt><trkpt lat="45.46301474409185" lon="10.506317478703833"><ele>149.0</ele><time>2026-04-12T07:26:38Z</time></trkpt><trkpt lat="45.462847037318845" lon="10.506592666836891"><ele>149.0</ele><time>2026-04-12T07:26:39Z</time></trkpt><trkpt lat="45.46267660052802" lon="10.506868503273497"><ele>149.0</ele><time>2026-04-12T07:26:40Z</time></trkpt><trkpt lat="45.46250424458231" lon="10.507140257576252"><ele>149.0</ele><time>2026-04-12T07:26:41Z</time></trkpt><trkpt lat="45.462331649889514" lon="10.507414098898582"><ele>149.0</ele><time>2026-04-12T07:26:42Z</time></trkpt><trkpt lat="45.46216001699773" lon="10.507692838515618"><ele>153.5</ele><time>2026-04-12T07:26:43Z</time></trkpt><trkpt lat="45.461990955029044" lon="10.507975759480496"><ele>158.0</ele><time>2026-04-12T07:26:44Z</time></trkpt><trkpt lat="45.46181975725899" lon="10.50826115640135"><ele>158.0</ele><time>2026-04-12T07:26:45Z</time></trkpt><trkpt lat="45.46164632987919" lon="10.508544100143604"><ele>158.0</ele><time>2026-04-12T07:26:46Z</time></trkpt><trkpt lat="45.46147144661861" lon="10.50882883402372"><ele>161.5</ele><time>2026-04-12T07:26:47Z</time></trkpt><trkpt lat="45.46129446767451" lon="10.509113637889234"><ele>165.0</ele><time>2026-04-12T07:26:48Z</time></trkpt><trkpt lat="45.46111859402191" lon="10.509398809940542"><ele>157.5</ele><time>2026-04-12T07:26:49Z</time></trkpt><trkpt lat="45.46094664120515" lon="10.509681964262063"><ele>150.0</ele><time>2026-04-12T07:26:50Z</time></trkpt><trkpt lat="45.46076958296849" lon="10.509967428007037"><ele>150.0</ele><time>2026-04-12T07:26:51Z</time></trkpt><trkpt lat="45.46059339406284" lon="10.510249493970624"><ele>150.0</ele><time>2026-04-12T07:26:52Z</time></trkpt><trkpt lat="45.4604204588619" lon="10.510536518864852"><ele>148.0</ele><time>2026-04-12T07:26:53Z</time></trkpt><trkpt lat="45.46024573543203" lon="10.510819871843283"><ele>146.0</ele><time>2026-04-12T07:26:54Z</time></trkpt><trkpt lat="45.46007199172699" lon="10.511106351515586"><ele>143.5</ele><time>2026-04-12T07:26:55Z</time></trkpt><trkpt lat="45.45989915658402" lon="10.51138956416585"><ele>141.0</ele><time>2026-04-12T07:26:56Z</time></trkpt><trkpt lat="45.45972518460736" lon="10.511673902211559"><ele>141.5</ele><time>2026-04-12T07:26:57Z</time></trkpt><trkpt lat="45.459550841020686" lon="10.511960052504488"><ele>142.0</ele><time>2026-04-12T07:26:58Z</time></trkpt><trkpt lat="45.459376979985365" lon="10.51224693590958"><ele>140.0</ele><time>2026-04-12T07:26:59Z</time></trkpt><trkpt lat="45.4592046836007" lon="10.512533332746417"><ele>138.0</ele><time>2026-04-12T07:27:00Z</time></trkpt><trkpt lat="45.45903014230333" lon="10.512827757011145"><ele>138.0</ele><time>2026-04-12T07:27:01Z</time></trkpt><trkpt lat="45.45885564371594" lon="10.513114134370353"><ele>138.0</ele><time>2026-04-12T07:27:02Z</time></trkpt><trkpt lat="45.45868884041189" lon="10.513412663866658"><ele>138.0</ele><time>2026-04-12T07:27:03Z</time></trkpt><trkpt lat="45.458540716438925" lon="10.513727629966128"><ele>138.0</ele><time>2026-04-12T07:27:04Z</time></trkpt><trkpt lat="45.45841431548938" lon="10.514060750286097"><ele>136.5</ele><time>2026-04-12T07:27:05Z</time></trkpt><trkpt lat="45.45830623775763" lon="10.514406556953311"><ele>135.0</ele><time>2026-04-12T07:27:06Z</time></trkpt><trkpt lat="45.45821138159373" lon="10.514761665495131"><ele>135.0</ele><time>2026-04-12T07:27:07Z</time></trkpt><trkpt lat="45.4581333766265" lon="10.515122009530254"><ele>135.0</ele><time>2026-04-12T07:27:08Z</time></trkpt><trkpt lat="45.45806861009905" lon="10.515487938558884"><ele>134.5</ele><time>2026-04-12T07:27:09Z</time></trkpt><trkpt lat="45.45802353080926" lon="10.515859829801432"><ele>134.0</ele><time>2026-04-12T07:27:10Z</time></trkpt><trkpt lat="45.45799212602918" lon="10.516231820233678"><ele>133.5</ele><time>2026-04-12T07:27:11Z</time></trkpt><trkpt lat="45.45797030621486" lon="10.516604558817264"><ele>133.0</ele><time>2026-04-12T07:27:12Z</time></trkpt><trkpt lat="45.457955025520285" lon="10.516977491861452"><ele>136.0</ele><time>2026-04-12T07:27:13Z</time></trkpt><trkpt lat="45.457947511547815" lon="10.517351410021716"><ele>139.0</ele><time>2026-04-12T07:27:14Z</time></trkpt><trkpt lat="45.457946106972045" lon="10.517723426777309"><ele>139.5</ele><time>2026-04-12T07:27:15Z</time></trkpt><trkpt lat="45.45794811613542" lon="10.518097781213562"><ele>140.0</ele><time>2026-04-12T07:27:16Z</time></trkpt><trkpt lat="45.45794417557732" lon="10.518477251483167"><ele>136.0</ele><time>2026-04-12T07:27:17Z</time></trkpt><trkpt lat="45.45793026120573" lon="10.51885243390858"><ele>132.0</ele><time>2026-04-12T07:27:18Z</time></trkpt><trkpt lat="45.45791404239352" lon="10.519230566831801"><ele>129.0</ele><time>2026-04-12T07:27:19Z</time></trkpt><trkpt lat="45.45789616411388" lon="10.519605583641761"><ele>126.0</ele><time>2026-04-12T07:27:20Z</time></trkpt><trkpt lat="45.45787761063762" lon="10.51997890318224"><ele>126.0</ele><time>2026-04-12T07:27:21Z</time></trkpt><trkpt lat="45.45785722335855" lon="10.520342406190467"><ele>126.0</ele><time>2026-04-12T07:27:22Z</time></trkpt><trkpt lat="45.45783713903635" lon="10.520700524858862"><ele>125.5</ele><time>2026-04-12T07:27:23Z</time></trkpt><trkpt lat="45.45780984055976" lon="10.521053489135934"><ele>125.0</ele><time>2026-04-12T07:27:24Z</time></trkpt><trkpt lat="45.45776558330332" lon="10.521401845375001"><ele>123.5</ele><time>2026-04-12T07:27:25Z</time></trkpt><trkpt lat="45.45770289717167" lon="10.521744704471056"><ele>122.0</ele><time>2026-04-12T07:27:26Z</time></trkpt><trkpt lat="45.45761296604659" lon="10.522069455266466"><ele>121.5</ele><time>2026-04-12T07:27:27Z</time></trkpt><trkpt lat="45.4575132689596" lon="10.52238079667697"><ele>121.0</ele><time>2026-04-12T07:27:28Z</time></trkpt><trkpt lat="45.45740828147412" lon="10.522680002852594"><ele>120.5</ele><time>2026-04-12T07:27:29Z</time></trkpt><trkpt lat="45.45730548895693" lon="10.522984630091157"><ele>120.0</ele><time>2026-04-12T07:27:30.021Z</time></trkpt><trkpt lat="45.457212196436394" lon="10.523284357840062"><ele>120.0</ele><time>2026-04-12T07:27:31.014Z</time></trkpt><trkpt lat="45.45711347539916" lon="10.523583590848952"><ele>120.0</ele><time>2026-04-12T07:27:32.022Z</time></trkpt><trkpt lat="45.45700191360353" lon="10.523866818190129"><ele>120.0</ele><time>2026-04-12T07:27:33.02Z</time></trkpt><trkpt lat="45.456878591192805" lon="10.524130193724979"><ele>120.0</ele><time>2026-04-12T07:27:34.022Z</time></trkpt><trkpt lat="45.45676729451421" lon="10.524415811622172"><ele>116.0</ele><time>2026-04-12T07:27:35.021Z</time></trkpt><trkpt lat="45.45576468579979" lon="10.525004686797526"><ele>116.0</ele><time>2026-04-12T07:27:38Z</time></trkpt><trkpt lat="45.4556613540202" lon="10.525292002601041"><ele>116.0</ele><time>2026-04-12T07:27:39Z</time></trkpt><trkpt lat="45.45545642240055" lon="10.525528189772896"><ele>119.0</ele><time>2026-04-12T07:27:40Z</time></trkpt><trkpt lat="45.45531004775092" lon="10.52582729885017"><ele>122.0</ele><time>2026-04-12T07:27:41Z</time></trkpt><trkpt lat="45.45519037091201" lon="10.526138411109207"><ele>122.5</ele><time>2026-04-12T07:27:42Z</time></trkpt><trkpt lat="45.455072295973906" lon="10.526454780172678"><ele>123.0</ele><time>2026-04-12T07:27:43Z</time></trkpt><trkpt lat="45.45495804442131" lon="10.526772738960542"><ele>120.0</ele><time>2026-04-12T07:27:44Z</time></trkpt><trkpt lat="45.45485502931981" lon="10.527098574755609"><ele>117.0</ele><time>2026-04-12T07:27:45Z</time></trkpt><trkpt lat="45.45475137369876" lon="10.527424786327957"><ele>117.0</ele><time>2026-04-12T07:27:46Z</time></trkpt><trkpt lat="45.454644824816164" lon="10.527755942886726"><ele>117.0</ele><time>2026-04-12T07:27:47.019Z</time></trkpt><trkpt lat="45.45453982534667" lon="10.52807949376864"><ele>119.5</ele><time>2026-04-12T07:27:48.016Z</time></trkpt><trkpt lat="45.454435167285325" lon="10.528402655531334"><ele>122.0</ele><time>2026-04-12T07:27:49.015Z</time></trkpt><trkpt lat="45.454332710909945" lon="10.52872363262264"><ele>120.5</ele><time>2026-04-12T07:27:50.019Z</time></trkpt><trkpt lat="45.45423267784762" lon="10.529038351669184"><ele>119.0</ele><time>2026-04-12T07:27:51.014Z</time></trkpt><trkpt lat="45.45403254150211" lon="10.52928704999588"><ele>119.0</ele><time>2026-04-12T07:27:52.014Z</time></trkpt><trkpt lat="45.45392072558633" lon="10.529599656606909"><ele>119.0</ele><time>2026-04-12T07:27:53.016Z</time></trkpt><trkpt lat="45.453166631092735" lon="10.531706437478336"><ele>114.5</ele><time>2026-04-12T07:28:01.999Z</time></trkpt><trkpt lat="45.45307387144284" lon="10.531968267609706"><ele>110.0</ele><time>2026-04-12T07:28:02.999Z</time></trkpt><trkpt lat="45.45301448244714" lon="10.532307881940687"><ele>108.66666666666666</ele><time>2026-04-12T07:28:03.999Z</time></trkpt><trkpt lat="45.45293111751955" lon="10.532548080536332"><ele>107.33333333333334</ele><time>2026-04-12T07:28:04.999Z</time></trkpt><trkpt lat="45.45284490160798" lon="10.532810294253943"><ele>106.0</ele><time>2026-04-12T07:28:05.999Z</time></trkpt><trkpt lat="45.452771464225805" lon="10.533089675085707"><ele>105.5</ele><time>2026-04-12T07:28:06.999Z</time></trkpt><trkpt lat="45.452686193701965" lon="10.533427800692818"><ele>105.0</ele><time>2026-04-12T07:28:08Z</time></trkpt><trkpt lat="45.45259861055856" lon="10.533757357386692"><ele>104.0</ele><time>2026-04-12T07:28:09Z</time></trkpt><trkpt lat="45.452480504417714" lon="10.534075778858638"><ele>103.0</ele><time>2026-04-12T07:28:10Z</time></trkpt><trkpt lat="45.45239899428556" lon="10.534427134400831"><ele>101.5</ele><time>2026-04-12T07:28:11Z</time></trkpt><trkpt lat="45.45231766756346" lon="10.534784906683475"><ele>100.0</ele><time>2026-04-12T07:28:12Z</time></trkpt><trkpt lat="45.452236453353926" lon="10.535141301543714"><ele>99.5</ele><time>2026-04-12T07:28:13Z</time></trkpt><trkpt lat="45.45215505400596" lon="10.535498131364527"><ele>99.0</ele><time>2026-04-12T07:28:14Z</time></trkpt><trkpt lat="45.45207401856696" lon="10.535853941990599"><ele>98.5</ele><time>2026-04-12T07:28:15Z</time></trkpt><trkpt lat="45.451993109610235" lon="10.536208346964953"><ele>98.0</ele><time>2026-04-12T07:28:16Z</time></trkpt><trkpt lat="45.45191486125279" lon="10.536551017709757"><ele>98.5</ele><time>2026-04-12T07:28:17Z</time></trkpt><trkpt lat="45.45183944342787" lon="10.536881292795428"><ele>99.0</ele><time>2026-04-12T07:28:18Z</time></trkpt><trkpt lat="45.451764198410046" lon="10.537211571361727"><ele>99.0</ele><time>2026-04-12T07:28:19Z</time></trkpt><trkpt lat="45.451687824972275" lon="10.537546162174543"><ele>99.0</ele><time>2026-04-12T07:28:20Z</time></trkpt><trkpt lat="45.451610575521244" lon="10.53788425671658"><ele>98.0</ele><time>2026-04-12T07:28:21Z</time></trkpt><trkpt lat="45.451532424135934" lon="10.538226921404766"><ele>97.0</ele><time>2026-04-12T07:28:22Z</time></trkpt><trkpt lat="45.451453443017165" lon="10.538573265418071"><ele>96.5</ele><time>2026-04-12T07:28:23Z</time></trkpt><trkpt lat="45.45137350331689" lon="10.538920243131475"><ele>96.0</ele><time>2026-04-12T07:28:24Z</time></trkpt><trkpt lat="45.45129252739768" lon="10.539268921652829"><ele>97.0</ele><time>2026-04-12T07:28:25Z</time></trkpt><trkpt lat="45.45121123182072" lon="10.539620756168489"><ele>98.0</ele><time>2026-04-12T07:28:26Z</time></trkpt><trkpt lat="45.451145999138525" lon="10.539979790638963"><ele>98.0</ele><time>2026-04-12T07:28:27Z</time></trkpt><trkpt lat="45.45106524264145" lon="10.540333103778107"><ele>98.0</ele><time>2026-04-12T07:28:28Z</time></trkpt><trkpt lat="45.45098213615606" lon="10.540685999134427"><ele>97.0</ele><time>2026-04-12T07:28:29Z</time></trkpt><trkpt lat="45.4508864752366" lon="10.541031415774661"><ele>96.0</ele><time>2026-04-12T07:28:30Z</time></trkpt><trkpt lat="45.45080445975629" lon="10.54138295044993"><ele>95.5</ele><time>2026-04-12T07:28:31Z</time></trkpt><trkpt lat="45.450723545290295" lon="10.541730204163276"><ele>95.0</ele><time>2026-04-12T07:28:32Z</time></trkpt><trkpt lat="45.45064210745718" lon="10.542080386852462"><ele>95.0</ele><time>2026-04-12T07:28:33Z</time></trkpt><trkpt lat="45.45057634767445" lon="10.542437175907638"><ele>95.0</ele><time>2026-04-12T07:28:34Z</time></trkpt><trkpt lat="45.450494830608264" lon="10.542781693107333"><ele>95.0</ele><time>2026-04-12T07:28:35Z</time></trkpt><trkpt lat="45.45042007520207" lon="10.543129999710416"><ele>95.0</ele><time>2026-04-12T07:28:36Z</time></trkpt><trkpt lat="45.450348220067916" lon="10.543477828879235"><ele>94.5</ele><time>2026-04-12T07:28:37Z</time></trkpt><trkpt lat="45.45026890669679" lon="10.54382375380017"><ele>94.0</ele><time>2026-04-12T07:28:38Z</time></trkpt><trkpt lat="45.450183126599995" lon="10.544164926691117"><ele>94.0</ele><time>2026-04-12T07:28:39Z</time></trkpt><trkpt lat="45.450079266712024" lon="10.544491455481293"><ele>94.0</ele><time>2026-04-12T07:28:40Z</time></trkpt><trkpt lat="45.450008992072334" lon="10.544791440395922"><ele>93.66666666666666</ele><time>2026-04-12T07:28:41Z</time></trkpt><trkpt lat="45.44994136336234" lon="10.545080130550085"><ele>93.33333333333333</ele><time>2026-04-12T07:28:42Z</time></trkpt><trkpt lat="45.44987603081603" lon="10.545359018976196"><ele>93.0</ele><time>2026-04-12T07:28:43Z</time></trkpt><trkpt lat="45.44980708440574" lon="10.545653334024953"><ele>93.0</ele><time>2026-04-12T07:28:44Z</time></trkpt><trkpt lat="45.44973268387317" lon="10.545970931412338"><ele>93.0</ele><time>2026-04-12T07:28:45Z</time></trkpt><trkpt lat="45.449656558504316" lon="10.546295886325037"><ele>92.0</ele><time>2026-04-12T07:28:46Z</time></trkpt><trkpt lat="45.44957798363421" lon="10.546631207316507"><ele>91.0</ele><time>2026-04-12T07:28:47Z</time></trkpt><trkpt lat="45.449499188152636" lon="10.546968713549624"><ele>90.0</ele><time>2026-04-12T07:28:48Z</time></trkpt><trkpt lat="45.44941859803186" lon="10.547314620965539"><ele>89.0</ele><time>2026-04-12T07:28:49Z</time></trkpt><trkpt lat="45.44933673485798" lon="10.547664282604877"><ele>89.0</ele><time>2026-04-12T07:28:50Z</time></trkpt><trkpt lat="45.449254628378455" lon="10.548018024882445"><ele>89.0</ele><time>2026-04-12T07:28:51Z</time></trkpt><trkpt lat="45.44917184645819" lon="10.548374675826736"><ele>89.5</ele><time>2026-04-12T07:28:52Z</time></trkpt><trkpt lat="45.44908820703314" lon="10.548731222038723"><ele>90.0</ele><time>2026-04-12T07:28:53Z</time></trkpt><trkpt lat="45.44900358839158" lon="10.549091788791655"><ele>90.0</ele><time>2026-04-12T07:28:54Z</time></trkpt><trkpt lat="45.44891896693892" lon="10.54945021604589"><ele>90.0</ele><time>2026-04-12T07:28:55Z</time></trkpt><trkpt lat="45.44884557000448" lon="10.549807908902789"><ele>89.5</ele><time>2026-04-12T07:28:56Z</time></trkpt><trkpt lat="45.448757766898936" lon="10.550160761386856"><ele>89.0</ele><time>2026-04-12T07:28:57Z</time></trkpt><trkpt lat="45.44868122246902" lon="10.550515250449362"><ele>89.0</ele><time>2026-04-12T07:28:58Z</time></trkpt><trkpt lat="45.448602883317925" lon="10.550863661202175"><ele>89.0</ele><time>2026-04-12T07:28:59Z</time></trkpt><trkpt lat="45.44850599404921" lon="10.551202184444989"><ele>89.0</ele><time>2026-04-12T07:29:00Z</time></trkpt><trkpt lat="45.44842748837211" lon="10.551541473710762"><ele>89.0</ele><time>2026-04-12T07:29:01Z</time></trkpt><trkpt lat="45.44835115652062" lon="10.551872857687874"><ele>87.5</ele><time>2026-04-12T07:29:02Z</time></trkpt><trkpt lat="45.448293755513234" lon="10.552211630706802"><ele>86.0</ele><time>2026-04-12T07:29:03Z</time></trkpt><trkpt lat="45.448221021789784" lon="10.552541734873463"><ele>86.0</ele><time>2026-04-12T07:29:04Z</time></trkpt><trkpt lat="45.44813619876394" lon="10.552860691887753"><ele>86.0</ele><time>2026-04-12T07:29:05Z</time></trkpt><trkpt lat="45.448068843411626" lon="10.553182118254211"><ele>86.5</ele><time>2026-04-12T07:29:06Z</time></trkpt><trkpt lat="45.448004104343624" lon="10.553505096939928"><ele>87.0</ele><time>2026-04-12T07:29:07Z</time></trkpt><trkpt lat="45.44794132387667" lon="10.553819125242315"><ele>87.0</ele><time>2026-04-12T07:29:08Z</time></trkpt><trkpt lat="45.447886444088645" lon="10.554103118066186"><ele>87.0</ele><time>2026-04-12T07:29:09Z</time></trkpt><trkpt lat="45.44783883945072" lon="10.554356940018714"><ele>87.0</ele><time>2026-04-12T07:29:10Z</time></trkpt><trkpt lat="45.44778935681215" lon="10.554621982641818"><ele>87.33333333333333</ele><time>2026-04-12T07:29:11Z</time></trkpt><trkpt lat="45.44773690267169" lon="10.554906962178038"><ele>87.66666666666666</ele><time>2026-04-12T07:29:12Z</time></trkpt><trkpt lat="45.44768106231838" lon="10.555210338756499"><ele>88.0</ele><time>2026-04-12T07:29:13Z</time></trkpt><trkpt lat="45.44762416933764" lon="10.555519434101202"><ele>88.0</ele><time>2026-04-12T07:29:14Z</time></trkpt><trkpt lat="45.447567281972354" lon="10.555828803351368"><ele>88.0</ele><time>2026-04-12T07:29:15Z</time></trkpt><trkpt lat="45.44750907435615" lon="10.556149060284687"><ele>87.5</ele><time>2026-04-12T07:29:16Z</time></trkpt><trkpt lat="45.44744876626551" lon="10.556480873979282"><ele>87.0</ele><time>2026-04-12T07:29:17Z</time></trkpt><trkpt lat="45.44738655151341" lon="10.556823178105594"><ele>88.0</ele><time>2026-04-12T07:29:18Z</time></trkpt><trkpt lat="45.447323711528995" lon="10.557166863136693"><ele>89.0</ele><time>2026-04-12T07:29:19Z</time></trkpt><trkpt lat="45.44725993465917" lon="10.557514859816898"><ele>89.0</ele><time>2026-04-12T07:29:20Z</time></trkpt><trkpt lat="45.447195410929" lon="10.557864895569825"><ele>89.0</ele><time>2026-04-12T07:29:21Z</time></trkpt><trkpt lat="45.447130394056266" lon="10.558213754141612"><ele>88.5</ele><time>2026-04-12T07:29:22Z</time></trkpt><trkpt lat="45.44706422940277" lon="10.558568771317011"><ele>88.0</ele><time>2026-04-12T07:29:23Z</time></trkpt><trkpt lat="45.44700022161131" lon="10.558920680034195"><ele>88.0</ele><time>2026-04-12T07:29:24Z</time></trkpt><trkpt lat="45.446969692650065" lon="10.559286207441618"><ele>88.0</ele><time>2026-04-12T07:29:25Z</time></trkpt><trkpt lat="45.44690244797333" lon="10.559635570561959"><ele>88.0</ele><time>2026-04-12T07:29:26Z</time></trkpt><trkpt lat="45.44683204311054" lon="10.559987300915292"><ele>88.0</ele><time>2026-04-12T07:29:27Z</time></trkpt><trkpt lat="45.446765326705545" lon="10.560324975292959"><ele>88.5</ele><time>2026-04-12T07:29:28Z</time></trkpt><trkpt lat="45.44670959479384" lon="10.560653174100338"><ele>89.0</ele><time>2026-04-12T07:29:29Z</time></trkpt><trkpt lat="45.446651702910145" lon="10.56097588720595"><ele>88.5</ele><time>2026-04-12T07:29:30Z</time></trkpt><trkpt lat="45.44659019305379" lon="10.561301874353715"><ele>88.0</ele><time>2026-04-12T07:29:31Z</time></trkpt><trkpt lat="45.446537301632056" lon="10.561609353100748"><ele>88.0</ele><time>2026-04-12T07:29:32Z</time></trkpt><trkpt lat="45.44648262108267" lon="10.56190716068469"><ele>88.0</ele><time>2026-04-12T07:29:33Z</time></trkpt><trkpt lat="45.44643019115534" lon="10.56219426718982"><ele>88.0</ele><time>2026-04-12T07:29:34Z</time></trkpt><trkpt lat="45.446380250971" lon="10.562468791809524"><ele>88.0</ele><time>2026-04-12T07:29:35Z</time></trkpt><trkpt lat="45.44632980738623" lon="10.562728431707216"><ele>88.0</ele><time>2026-04-12T07:29:36Z</time></trkpt><trkpt lat="45.44628459244568" lon="10.562978783787814"><ele>88.0</ele><time>2026-04-12T07:29:37Z</time></trkpt><trkpt lat="45.44623258542741" lon="10.563240613999183"><ele>88.0</ele><time>2026-04-12T07:29:38Z</time></trkpt><trkpt lat="45.446189887071256" lon="10.563534885451974"><ele>88.0</ele><time>2026-04-12T07:29:39Z</time></trkpt><trkpt lat="45.44613578068406" lon="10.563850153254846"><ele>88.0</ele><time>2026-04-12T07:29:40Z</time></trkpt><trkpt lat="45.4460764874119" lon="10.564170767545411"><ele>88.0</ele><time>2026-04-12T07:29:41Z</time></trkpt><trkpt lat="45.446004174764845" lon="10.564481956685585"><ele>88.0</ele><time>2026-04-12T07:29:42Z</time></trkpt><trkpt lat="45.44593675263637" lon="10.564781884765203"><ele>88.0</ele><time>2026-04-12T07:29:43Z</time></trkpt><trkpt lat="45.44587654060096" lon="10.565080489272226"><ele>88.0</ele><time>2026-04-12T07:29:44Z</time></trkpt><trkpt lat="45.445814497245046" lon="10.565380077088799"><ele>88.0</ele><time>2026-04-12T07:29:45Z</time></trkpt><trkpt lat="45.445749232466945" lon="10.565683158657016"><ele>87.33333333333333</ele><time>2026-04-12T07:29:46Z</time></trkpt><trkpt lat="45.44568756982576" lon="10.565986956185409"><ele>86.66666666666667</ele><time>2026-04-12T07:29:47Z</time></trkpt><trkpt lat="45.445625071115906" lon="10.566291694563894"><ele>86.0</ele><time>2026-04-12T07:29:48Z</time></trkpt><trkpt lat="45.44555855267856" lon="10.566595249972028"><ele>85.33333333333334</ele><time>2026-04-12T07:29:49Z</time></trkpt><trkpt lat="45.44549792878102" lon="10.566891832584579"><ele>84.66666666666667</ele><time>2026-04-12T07:29:50Z</time></trkpt><trkpt lat="45.44543813148957" lon="10.567177214418514"><ele>84.0</ele><time>2026-04-12T07:29:51Z</time></trkpt><trkpt lat="45.44538467867501" lon="10.567451268901449"><ele>85.33333333333333</ele><time>2026-04-12T07:29:52Z</time></trkpt><trkpt lat="45.44533002457962" lon="10.567719594653537"><ele>86.66666666666666</ele><time>2026-04-12T07:29:53Z</time></trkpt><trkpt lat="45.445266532222554" lon="10.5679975705216"><ele>88.0</ele><time>2026-04-12T07:29:54Z</time></trkpt><trkpt lat="45.44520201684296" lon="10.568266752146918"><ele>88.66666666666666</ele><time>2026-04-12T07:29:55Z</time></trkpt><trkpt lat="45.44514640931639" lon="10.568524806834061"><ele>89.33333333333333</ele><time>2026-04-12T07:29:56Z</time></trkpt><trkpt lat="45.445092494332755" lon="10.568789995287757"><ele>90.0</ele><time>2026-04-12T07:29:57Z</time></trkpt><trkpt lat="45.445039663170526" lon="10.569065847732526"><ele>90.33333333333333</ele><time>2026-04-12T07:29:58Z</time></trkpt><trkpt lat="45.44499169033118" lon="10.569351567384516"><ele>90.66666666666666</ele><time>2026-04-12T07:29:59Z</time></trkpt><trkpt lat="45.44494900720004" lon="10.569640637971311"><ele>91.0</ele><time>2026-04-12T07:30:00Z</time></trkpt><trkpt lat="45.444916045711636" lon="10.56994052983115"><ele>90.33333333333333</ele><time>2026-04-12T07:30:01Z</time></trkpt><trkpt lat="45.444883911661236" lon="10.570247180669927"><ele>89.66666666666667</ele><time>2026-04-12T07:30:02Z</time></trkpt><trkpt lat="45.44485862943151" lon="10.570562553925715"><ele>89.0</ele><time>2026-04-12T07:30:03Z</time></trkpt><trkpt lat="45.44484486358683" lon="10.57089423724825"><ele>88.5</ele><time>2026-04-12T07:30:04Z</time></trkpt><trkpt lat="45.444847728866314" lon="10.571255640243752"><ele>88.0</ele><time>2026-04-12T07:30:05Z</time></trkpt><trkpt lat="45.44484337018303" lon="10.571638912329597"><ele>88.0</ele><time>2026-04-12T07:30:06Z</time></trkpt><trkpt lat="45.444831574733534" lon="10.572022005313366"><ele>88.0</ele><time>2026-04-12T07:30:07Z</time></trkpt><trkpt lat="45.444832777598776" lon="10.572420349124663"><ele>88.0</ele><time>2026-04-12T07:30:08Z</time></trkpt><trkpt lat="45.44485775644331" lon="10.572814828177098"><ele>88.0</ele><time>2026-04-12T07:30:09Z</time></trkpt><trkpt lat="45.4448827731664" lon="10.573208829558732"><ele>88.0</ele><time>2026-04-12T07:30:10Z</time></trkpt><trkpt lat="45.44490720410269" lon="10.573597431577035"><ele>88.0</ele><time>2026-04-12T07:30:11Z</time></trkpt><trkpt lat="45.44492914879494" lon="10.573980580910334"><ele>88.0</ele><time>2026-04-12T07:30:12Z</time></trkpt><trkpt lat="45.4449528540669" lon="10.574356588490028"><ele>88.0</ele><time>2026-04-12T07:30:13Z</time></trkpt><trkpt lat="45.44497608604487" lon="10.574735174512563"><ele>89.5</ele><time>2026-04-12T07:30:14Z</time></trkpt><trkpt lat="45.44499390913166" lon="10.575112478696424"><ele>91.0</ele><time>2026-04-12T07:30:15Z</time></trkpt><trkpt lat="45.445010388834696" lon="10.57548198675582"><ele>91.5</ele><time>2026-04-12T07:30:16Z</time></trkpt><trkpt lat="45.44502410501776" lon="10.575837077660063"><ele>92.0</ele><time>2026-04-12T07:30:17Z</time></trkpt><trkpt lat="45.44503731714065" lon="10.576187215321362"><ele>92.0</ele><time>2026-04-12T07:30:18Z</time></trkpt><trkpt lat="45.445057122578106" lon="10.576554103376054"><ele>92.0</ele><time>2026-04-12T07:30:19Z</time></trkpt><trkpt lat="45.445077240973006" lon="10.576912113864214"><ele>90.5</ele><time>2026-04-12T07:30:20Z</time></trkpt><trkpt lat="45.44511233258266" lon="10.57726089260084"><ele>89.0</ele><time>2026-04-12T07:30:21Z</time></trkpt><trkpt lat="45.44513629388043" lon="10.577638728933543"><ele>87.5</ele><time>2026-04-12T07:30:22Z</time></trkpt><trkpt lat="45.44515582582912" lon="10.578087840556256"><ele>86.0</ele><time>2026-04-12T07:30:23Z</time></trkpt><trkpt lat="45.445168239315734" lon="10.578487166742633"><ele>86.0</ele><time>2026-04-12T07:30:24Z</time></trkpt><trkpt lat="45.445179825808246" lon="10.578886382006258"><ele>86.0</ele><time>2026-04-12T07:30:25Z</time></trkpt><trkpt lat="45.4451939470576" lon="10.579284156448882"><ele>85.5</ele><time>2026-04-12T07:30:26Z</time></trkpt><trkpt lat="45.4452097964282" lon="10.579679796065161"><ele>85.0</ele><time>2026-04-12T07:30:27Z</time></trkpt><trkpt lat="45.44523059220615" lon="10.580073654257308"><ele>85.0</ele><time>2026-04-12T07:30:28Z</time></trkpt><trkpt lat="45.44525193293012" lon="10.580466002047363"><ele>85.0</ele><time>2026-04-12T07:30:29Z</time></trkpt><trkpt lat="45.44527469856914" lon="10.580858946576038"><ele>86.0</ele><time>2026-04-12T07:30:30Z</time></trkpt><trkpt lat="45.44529353669958" lon="10.581244694748143"><ele>87.0</ele><time>2026-04-12T07:30:31Z</time></trkpt><trkpt lat="45.44531134058087" lon="10.581632010542487"><ele>87.0</ele><time>2026-04-12T07:30:32Z</time></trkpt><trkpt lat="45.445327849126286" lon="10.58201556918291"><ele>87.0</ele><time>2026-04-12T07:30:33Z</time></trkpt><trkpt lat="45.445342738200026" lon="10.582397567284413"><ele>87.0</ele><time>2026-04-12T07:30:34Z</time></trkpt><trkpt lat="45.44535251460119" lon="10.582769718644077"><ele>87.0</ele><time>2026-04-12T07:30:35Z</time></trkpt><trkpt lat="45.445364356836976" lon="10.583153929519714"><ele>86.0</ele><time>2026-04-12T07:30:36Z</time></trkpt><trkpt lat="45.445373743776074" lon="10.583528820400693"><ele>85.0</ele><time>2026-04-12T07:30:37Z</time></trkpt><trkpt lat="45.445378678043504" lon="10.58390575558296"><ele>84.5</ele><time>2026-04-12T07:30:38Z</time></trkpt><trkpt lat="45.445381361289776" lon="10.584277372576066"><ele>84.0</ele><time>2026-04-12T07:30:39Z</time></trkpt><trkpt lat="45.44538386546372" lon="10.584654822727392"><ele>84.0</ele><time>2026-04-12T07:30:40Z</time></trkpt><trkpt lat="45.4453845688067" lon="10.585032147519557"><ele>84.0</ele><time>2026-04-12T07:30:41Z</time></trkpt><trkpt lat="45.445381892507584" lon="10.585409620022652"><ele>84.0</ele><time>2026-04-12T07:30:42Z</time></trkpt><trkpt lat="45.44537675555176" lon="10.585789381443847"><ele>84.0</ele><time>2026-04-12T07:30:43Z</time></trkpt><trkpt lat="45.445372663141654" lon="10.586170218893033"><ele>85.0</ele><time>2026-04-12T07:30:44Z</time></trkpt><trkpt lat="45.445363848606746" lon="10.586551218132643"><ele>86.0</ele><time>2026-04-12T07:30:45Z</time></trkpt><trkpt lat="45.44535292894446" lon="10.586931368555074"><ele>85.5</ele><time>2026-04-12T07:30:46Z</time></trkpt><trkpt lat="45.44534319531589" lon="10.587311778881507"><ele>85.0</ele><time>2026-04-12T07:30:47Z</time></trkpt><trkpt lat="45.44533589832662" lon="10.587693498143842"><ele>84.0</ele><time>2026-04-12T07:30:48Z</time></trkpt><trkpt lat="45.44533012408521" lon="10.5880775436444"><ele>83.0</ele><time>2026-04-12T07:30:49Z</time></trkpt><trkpt lat="45.44532076688428" lon="10.588460201445768"><ele>83.0</ele><time>2026-04-12T07:30:50Z</time></trkpt><trkpt lat="45.44531072490095" lon="10.588842097860002"><ele>83.0</ele><time>2026-04-12T07:30:51Z</time></trkpt><trkpt lat="45.445296024958374" lon="10.58922048280154"><ele>83.0</ele><time>2026-04-12T07:30:52Z</time></trkpt><trkpt lat="45.44528406595857" lon="10.589600976422926"><ele>83.0</ele><time>2026-04-12T07:30:53Z</time></trkpt><trkpt lat="45.44527371326898" lon="10.589980748499448"><ele>82.0</ele><time>2026-04-12T07:30:54Z</time></trkpt><trkpt lat="45.44526588399294" lon="10.59036232686974"><ele>81.0</ele><time>2026-04-12T07:30:55Z</time></trkpt><trkpt lat="45.44525305265538" lon="10.590742825870386"><ele>81.0</ele><time>2026-04-12T07:30:56Z</time></trkpt><trkpt lat="45.44524063210268" lon="10.591122375137664"><ele>81.0</ele><time>2026-04-12T07:30:57Z</time></trkpt><trkpt lat="45.44523232749606" lon="10.591495998354993"><ele>80.0</ele><time>2026-04-12T07:30:58Z</time></trkpt><trkpt lat="45.445223953768306" lon="10.591874886569993"><ele>79.0</ele><time>2026-04-12T07:30:59Z</time></trkpt><trkpt lat="45.44521414749046" lon="10.592250106512369"><ele>79.0</ele><time>2026-04-12T07:31:00Z</time></trkpt><trkpt lat="45.445204347198604" lon="10.592620105328416"><ele>79.0</ele><time>2026-04-12T07:31:01Z</time></trkpt><trkpt lat="45.44519429981609" lon="10.592994170113641"><ele>80.0</ele><time>2026-04-12T07:31:02Z</time></trkpt><trkpt lat="45.44518539915622" lon="10.59336575183106"><ele>81.0</ele><time>2026-04-12T07:31:03Z</time></trkpt><trkpt lat="45.44517825290815" lon="10.593730609180842"><ele>81.0</ele><time>2026-04-12T07:31:04Z</time></trkpt><trkpt lat="45.44516745401095" lon="10.594092917370451"><ele>81.0</ele><time>2026-04-12T07:31:05Z</time></trkpt><trkpt lat="45.445139867153145" lon="10.594449123988115"><ele>80.5</ele><time>2026-04-12T07:31:06Z</time></trkpt><trkpt lat="45.44514789050838" lon="10.594803861153293"><ele>80.0</ele><time>2026-04-12T07:31:07Z</time></trkpt><trkpt lat="45.4451401020119" lon="10.595159181624373"><ele>79.5</ele><time>2026-04-12T07:31:08Z</time></trkpt><trkpt lat="45.445132702573545" lon="10.59551175998666"><ele>79.0</ele><time>2026-04-12T07:31:09Z</time></trkpt><trkpt lat="45.445124137243184" lon="10.595862585741655"><ele>79.0</ele><time>2026-04-12T07:31:10Z</time></trkpt><trkpt lat="45.44509179374108" lon="10.596214325203379"><ele>79.0</ele><time>2026-04-12T07:31:11Z</time></trkpt><trkpt lat="45.44510330843664" lon="10.596566860728597"><ele>79.0</ele><time>2026-04-12T07:31:12Z</time></trkpt><trkpt lat="45.44509480380688" lon="10.596920858245104"><ele>79.0</ele><time>2026-04-12T07:31:13Z</time></trkpt><trkpt lat="45.44508974653451" lon="10.597278629629974"><ele>78.5</ele><time>2026-04-12T07:31:14Z</time></trkpt><trkpt lat="45.44509021319936" lon="10.597644613412415"><ele>78.0</ele><time>2026-04-12T07:31:15Z</time></trkpt><trkpt lat="45.44508204032897" lon="10.598015660010063"><ele>78.0</ele><time>2026-04-12T07:31:16Z</time></trkpt><trkpt lat="45.44506550395448" lon="10.598391486199295"><ele>78.0</ele><time>2026-04-12T07:31:17Z</time></trkpt><trkpt lat="45.44502408993783" lon="10.598781835146767"><ele>78.5</ele><time>2026-04-12T07:31:18Z</time></trkpt><trkpt lat="45.445013917650634" lon="10.59916654887132"><ele>79.0</ele><time>2026-04-12T07:31:19Z</time></trkpt><trkpt lat="45.445003006155424" lon="10.599544389471996"><ele>79.0</ele><time>2026-04-12T07:31:20Z</time></trkpt><trkpt lat="45.44499324150487" lon="10.599902461148941"><ele>79.0</ele><time>2026-04-12T07:31:21Z</time></trkpt><trkpt lat="45.44498381092239" lon="10.60024828271003"><ele>79.5</ele><time>2026-04-12T07:31:22Z</time></trkpt><trkpt lat="45.44497472316962" lon="10.600581532400044"><ele>80.0</ele><time>2026-04-12T07:31:23Z</time></trkpt><trkpt lat="45.44496589644369" lon="10.600905210679851"><ele>80.0</ele><time>2026-04-12T07:31:24Z</time></trkpt><trkpt lat="45.44495713145789" lon="10.601226629225064"><ele>80.0</ele><time>2026-04-12T07:31:25Z</time></trkpt><trkpt lat="45.444948443956385" lon="10.601545206336603"><ele>80.0</ele><time>2026-04-12T07:31:26Z</time></trkpt><trkpt lat="45.44496271194052" lon="10.601860700257593"><ele>79.33333333333334</ele><time>2026-04-12T07:31:27Z</time></trkpt><trkpt lat="45.44496040159216" lon="10.602166904180303"><ele>78.66666666666667</ele><time>2026-04-12T07:31:28Z</time></trkpt><trkpt lat="45.44494892604368" lon="10.602473763080194"><ele>78.0</ele><time>2026-04-12T07:31:29Z</time></trkpt><trkpt lat="45.444940535732904" lon="10.602774682135431"><ele>78.0</ele><time>2026-04-12T07:31:30Z</time></trkpt><trkpt lat="45.44493206278353" lon="10.603070099173362"><ele>78.0</ele><time>2026-04-12T07:31:31Z</time></trkpt><trkpt lat="45.44492658709862" lon="10.603379513068042"><ele>78.0</ele><time>2026-04-12T07:31:32Z</time></trkpt><trkpt lat="45.44492107820779" lon="10.60369803341805"><ele>77.0</ele><time>2026-04-12T07:31:33Z</time></trkpt><trkpt lat="45.444909465045995" lon="10.604028598254049"><ele>76.0</ele><time>2026-04-12T07:31:34Z</time></trkpt><trkpt lat="45.44490097411442" lon="10.604363262410722"><ele>75.0</ele><time>2026-04-12T07:31:35Z</time></trkpt><trkpt lat="45.44489142503008" lon="10.604701608443255"><ele>74.0</ele><time>2026-04-12T07:31:36Z</time></trkpt><trkpt lat="45.444878566659945" lon="10.605039186871405"><ele>74.0</ele><time>2026-04-12T07:31:37Z</time></trkpt><trkpt lat="45.44487029236808" lon="10.605375570207798"><ele>74.0</ele><time>2026-04-12T07:31:38Z</time></trkpt><trkpt lat="45.444862140441465" lon="10.605720203443282"><ele>74.0</ele><time>2026-04-12T07:31:39Z</time></trkpt><trkpt lat="45.44485118826586" lon="10.606064971978354"><ele>74.0</ele><time>2026-04-12T07:31:40Z</time></trkpt><trkpt lat="45.44484009270311" lon="10.606410606905133"><ele>75.0</ele><time>2026-04-12T07:31:41Z</time></trkpt><trkpt lat="45.44483057368877" lon="10.606756194061502"><ele>76.0</ele><time>2026-04-12T07:31:42Z</time></trkpt><trkpt lat="45.44482201990841" lon="10.60709601653373"><ele>76.5</ele><time>2026-04-12T07:31:43Z</time></trkpt><trkpt lat="45.44481176341187" lon="10.607439682101981"><ele>77.0</ele><time>2026-04-12T07:31:44Z</time></trkpt><trkpt lat="45.44479629179518" lon="10.607786132220877"><ele>75.5</ele><time>2026-04-12T07:31:45Z</time></trkpt><trkpt lat="45.44477784635884" lon="10.608188812184373"><ele>74.0</ele><time>2026-04-12T07:31:46Z</time></trkpt><trkpt lat="45.44477212330855" lon="10.608525916459246"><ele>72.5</ele><time>2026-04-12T07:31:47Z</time></trkpt><trkpt lat="45.44476763790933" lon="10.608846113195895"><ele>71.0</ele><time>2026-04-12T07:31:48Z</time></trkpt><trkpt lat="45.4447619408888" lon="10.609187470570557"><ele>70.5</ele><time>2026-04-12T07:31:49Z</time></trkpt><trkpt lat="45.44474978186325" lon="10.609536124020776"><ele>70.0</ele><time>2026-04-12T07:31:50Z</time></trkpt><trkpt lat="45.44473225396718" lon="10.60988046119301"><ele>70.0</ele><time>2026-04-12T07:31:51Z</time></trkpt><trkpt lat="45.444709266533515" lon="10.610224797254554"><ele>70.0</ele><time>2026-04-12T07:31:52Z</time></trkpt><trkpt lat="45.44468318754605" lon="10.610575057461602"><ele>70.5</ele><time>2026-04-12T07:31:53Z</time></trkpt><trkpt lat="45.444659523139" lon="10.610923109991974"><ele>71.0</ele><time>2026-04-12T07:31:54Z</time></trkpt><trkpt lat="45.44463686771553" lon="10.61127516048417"><ele>71.5</ele><time>2026-04-12T07:31:55Z</time></trkpt><trkpt lat="45.44461421973233" lon="10.611625791565455"><ele>72.0</ele><time>2026-04-12T07:31:56Z</time></trkpt><trkpt lat="45.4445918022285" lon="10.611977691455477"><ele>72.0</ele><time>2026-04-12T07:31:57Z</time></trkpt><trkpt lat="45.4445691342366" lon="10.612325277400345"><ele>72.0</ele><time>2026-04-12T07:31:58Z</time></trkpt><trkpt lat="45.444545585201546" lon="10.612672540516247"><ele>72.5</ele><time>2026-04-12T07:31:59Z</time></trkpt><trkpt lat="45.44451826940306" lon="10.613019201022125"><ele>73.0</ele><time>2026-04-12T07:32:00Z</time></trkpt><trkpt lat="45.44449376187612" lon="10.613367135932066"><ele>72.0</ele><time>2026-04-12T07:32:01Z</time></trkpt><trkpt lat="45.44446596824892" lon="10.613712079435272"><ele>71.0</ele><time>2026-04-12T07:32:02Z</time></trkpt><trkpt lat="45.44444224510774" lon="10.614053508978124"><ele>71.0</ele><time>2026-04-12T07:32:03Z</time></trkpt><trkpt lat="45.444416817386944" lon="10.61437691990755"><ele>71.0</ele><time>2026-04-12T07:32:04Z</time></trkpt><trkpt lat="45.44439251589993" lon="10.614679511153673"><ele>71.0</ele><time>2026-04-12T07:32:05Z</time></trkpt><trkpt lat="45.44436682821064" lon="10.614970029180894"><ele>71.0</ele><time>2026-04-12T07:32:06Z</time></trkpt><trkpt lat="45.44434697677104" lon="10.615255152555916"><ele>71.0</ele><time>2026-04-12T07:32:07Z</time></trkpt><trkpt lat="45.44432885657653" lon="10.615535323842906"><ele>71.0</ele><time>2026-04-12T07:32:08Z</time></trkpt><trkpt lat="45.44430798532089" lon="10.615817581824611"><ele>72.0</ele><time>2026-04-12T07:32:09Z</time></trkpt><trkpt lat="45.44428772783336" lon="10.616095762764873"><ele>73.0</ele><time>2026-04-12T07:32:10Z</time></trkpt><trkpt lat="45.44426942953671" lon="10.6163619659082"><ele>74.0</ele><time>2026-04-12T07:32:11Z</time></trkpt><trkpt lat="45.4442498336082" lon="10.616621680218852"><ele>74.33333333333334</ele><time>2026-04-12T07:32:12Z</time></trkpt><trkpt lat="45.44423341180133" lon="10.616871056371023"><ele>74.66666666666667</ele><time>2026-04-12T07:32:13Z</time></trkpt><trkpt lat="45.44421640210059" lon="10.61710885487838"><ele>75.0</ele><time>2026-04-12T07:32:14Z</time></trkpt><trkpt lat="45.44418925362947" lon="10.617363624341088"><ele>75.0</ele><time>2026-04-12T07:32:15Z</time></trkpt><trkpt lat="45.44417021864322" lon="10.617578805861218"><ele>75.0</ele><time>2026-04-12T07:32:16Z</time></trkpt><trkpt lat="45.44415586132127" lon="10.617816160617041"><ele>75.0</ele><time>2026-04-12T07:32:17Z</time></trkpt><trkpt lat="45.44414017799975" lon="10.618061621953954"><ele>74.0</ele><time>2026-04-12T07:32:18Z</time></trkpt><trkpt lat="45.44412208055025" lon="10.61830952257085"><ele>73.0</ele><time>2026-04-12T07:32:19Z</time></trkpt><trkpt lat="45.44410200758966" lon="10.618569243203572"><ele>72.0</ele><time>2026-04-12T07:32:20Z</time></trkpt><trkpt lat="45.444086015660105" lon="10.618838864577683"><ele>71.66666666666667</ele><time>2026-04-12T07:32:21Z</time></trkpt><trkpt lat="45.4440672792611" lon="10.619126805851476"><ele>71.33333333333334</ele><time>2026-04-12T07:32:22Z</time></trkpt><trkpt lat="45.444043032301906" lon="10.619435471452782"><ele>71.0</ele><time>2026-04-12T07:32:23Z</time></trkpt><trkpt lat="45.444020406800554" lon="10.61976016660958"><ele>71.0</ele><time>2026-04-12T07:32:24Z</time></trkpt><trkpt lat="45.443997609611074" lon="10.620106594300612"><ele>71.0</ele><time>2026-04-12T07:32:25Z</time></trkpt><trkpt lat="45.44397934383981" lon="10.620453722430366"><ele>72.0</ele><time>2026-04-12T07:32:26Z</time></trkpt><trkpt lat="45.4439626791732" lon="10.620807072447121"><ele>73.0</ele><time>2026-04-12T07:32:27Z</time></trkpt><trkpt lat="45.443948508018565" lon="10.621164529226625"><ele>73.5</ele><time>2026-04-12T07:32:28Z</time></trkpt><trkpt lat="45.443938248612184" lon="10.621521555146623"><ele>74.0</ele><time>2026-04-12T07:32:29Z</time></trkpt><trkpt lat="45.44393034204985" lon="10.621883214930456"><ele>74.0</ele><time>2026-04-12T07:32:30Z</time></trkpt><trkpt lat="45.44392746175918" lon="10.622241520114436"><ele>74.0</ele><time>2026-04-12T07:32:31Z</time></trkpt><trkpt lat="45.44392723696409" lon="10.622602053039447"><ele>73.5</ele><time>2026-04-12T07:32:32Z</time></trkpt><trkpt lat="45.44393004474356" lon="10.622959295159385"><ele>73.0</ele><time>2026-04-12T07:32:33Z</time></trkpt><trkpt lat="45.443939166395396" lon="10.623318193016058"><ele>73.0</ele><time>2026-04-12T07:32:34Z</time></trkpt><trkpt lat="45.44395121686376" lon="10.623675133424848"><ele>73.0</ele><time>2026-04-12T07:32:35Z</time></trkpt><trkpt lat="45.44396149533326" lon="10.62403426204935"><ele>73.0</ele><time>2026-04-12T07:32:36Z</time></trkpt><trkpt lat="45.44396487531205" lon="10.624391862835463"><ele>73.0</ele><time>2026-04-12T07:32:37Z</time></trkpt><trkpt lat="45.44396862500298" lon="10.624748932375018"><ele>73.0</ele><time>2026-04-12T07:32:38Z</time></trkpt><trkpt lat="45.44397048189393" lon="10.625100869845399"><ele>73.0</ele><time>2026-04-12T07:32:39Z</time></trkpt><trkpt lat="45.443973056080246" lon="10.625455114645156"><ele>71.5</ele><time>2026-04-12T07:32:40Z</time></trkpt><trkpt lat="45.443976866566274" lon="10.625802959474399"><ele>70.0</ele><time>2026-04-12T07:32:41Z</time></trkpt><trkpt lat="45.44398578302806" lon="10.62615160107746"><ele>70.0</ele><time>2026-04-12T07:32:42Z</time></trkpt><trkpt lat="45.44399063373398" lon="10.626498127433612"><ele>70.0</ele><time>2026-04-12T07:32:43Z</time></trkpt><trkpt lat="45.44399711967988" lon="10.62684265640422"><ele>71.0</ele><time>2026-04-12T07:32:44Z</time></trkpt><trkpt lat="45.44400311146462" lon="10.627190191229868"><ele>72.0</ele><time>2026-04-12T07:32:45Z</time></trkpt><trkpt lat="45.44401006914196" lon="10.627534372101108"><ele>72.5</ele><time>2026-04-12T07:32:46Z</time></trkpt><trkpt lat="45.4440134386141" lon="10.627882014531862"><ele>73.0</ele><time>2026-04-12T07:32:47Z</time></trkpt><trkpt lat="45.44401830549979" lon="10.628232747815717"><ele>73.0</ele><time>2026-04-12T07:32:48Z</time></trkpt><trkpt lat="45.44402437040908" lon="10.62858038203485"><ele>73.0</ele><time>2026-04-12T07:32:49Z</time></trkpt><trkpt lat="45.44403084514231" lon="10.62892661363641"><ele>72.0</ele><time>2026-04-12T07:32:50Z</time></trkpt><trkpt lat="45.444035114651726" lon="10.629277508380797"><ele>71.0</ele><time>2026-04-12T07:32:51Z</time></trkpt><trkpt lat="45.44403880688457" lon="10.629625307328896"><ele>70.5</ele><time>2026-04-12T07:32:52Z</time></trkpt><trkpt lat="45.44404127280745" lon="10.62997058175381"><ele>70.0</ele><time>2026-04-12T07:32:53Z</time></trkpt><trkpt lat="45.44404802268418" lon="10.63031748154353"><ele>70.0</ele><time>2026-04-12T07:32:54Z</time></trkpt><trkpt lat="45.44405487367533" lon="10.630661188403748"><ele>70.0</ele><time>2026-04-12T07:32:55Z</time></trkpt><trkpt lat="45.44405865345818" lon="10.631001980463397"><ele>71.0</ele><time>2026-04-12T07:32:56Z</time></trkpt><trkpt lat="45.44405711386931" lon="10.63134399396199"><ele>72.0</ele><time>2026-04-12T07:32:57Z</time></trkpt><trkpt lat="45.444061410074376" lon="10.631683545847721"><ele>71.5</ele><time>2026-04-12T07:32:58Z</time></trkpt><trkpt lat="45.44407314442428" lon="10.63205181790501"><ele>71.0</ele><time>2026-04-12T07:32:59Z</time></trkpt><trkpt lat="45.44407617924862" lon="10.632364319324774"><ele>71.0</ele><time>2026-04-12T07:33:00Z</time></trkpt><trkpt lat="45.444080990946816" lon="10.632697404225972"><ele>71.0</ele><time>2026-04-12T07:33:01Z</time></trkpt><trkpt lat="45.444086064754295" lon="10.63303233967608"><ele>71.5</ele><time>2026-04-12T07:33:02Z</time></trkpt><trkpt lat="45.44408899215942" lon="10.633366260574848"><ele>72.0</ele><time>2026-04-12T07:33:03Z</time></trkpt><trkpt lat="45.444090088726746" lon="10.633697760271248"><ele>74.0</ele><time>2026-04-12T07:33:04Z</time></trkpt><trkpt lat="45.444092620577905" lon="10.634027536785029"><ele>76.0</ele><time>2026-04-12T07:33:05Z</time></trkpt><trkpt lat="45.44409506052508" lon="10.634359215512088"><ele>76.5</ele><time>2026-04-12T07:33:06Z</time></trkpt><trkpt lat="45.44410014936423" lon="10.634694313165255"><ele>77.0</ele><time>2026-04-12T07:33:07Z</time></trkpt><trkpt lat="45.44410814471492" lon="10.635024372079654"><ele>77.0</ele><time>2026-04-12T07:33:08Z</time></trkpt><trkpt lat="45.44411421830519" lon="10.635360400076069"><ele>77.0</ele><time>2026-04-12T07:33:09Z</time></trkpt><trkpt lat="45.444122296027075" lon="10.635695177000763"><ele>77.0</ele><time>2026-04-12T07:33:10Z</time></trkpt><trkpt lat="45.444111634910946" lon="10.636027659809349"><ele>77.0</ele><time>2026-04-12T07:33:11Z</time></trkpt><trkpt lat="45.44412989930984" lon="10.636358975159027"><ele>77.5</ele><time>2026-04-12T07:33:12Z</time></trkpt><trkpt lat="45.444131764868004" lon="10.636687984771424"><ele>78.0</ele><time>2026-04-12T07:33:13Z</time></trkpt><trkpt lat="45.444132460399" lon="10.637021478956719"><ele>78.5</ele><time>2026-04-12T07:33:14Z</time></trkpt><trkpt lat="45.44411937498303" lon="10.637354721511457"><ele>79.0</ele><time>2026-04-12T07:33:15Z</time></trkpt><trkpt lat="45.44412051045693" lon="10.637687972729394"><ele>78.5</ele><time>2026-04-12T07:33:16Z</time></trkpt><trkpt lat="45.44412161751612" lon="10.638023175675976"><ele>78.0</ele><time>2026-04-12T07:33:17Z</time></trkpt><trkpt lat="45.44412272907177" lon="10.638359740053282"><ele>78.5</ele><time>2026-04-12T07:33:18Z</time></trkpt><trkpt lat="45.444123832298956" lon="10.638693782704113"><ele>79.0</ele><time>2026-04-12T07:33:19Z</time></trkpt><trkpt lat="45.44414060171824" lon="10.639041669728192"><ele>79.0</ele><time>2026-04-12T07:33:20Z</time></trkpt><trkpt lat="45.44412425462005" lon="10.639389080802074"><ele>79.0</ele><time>2026-04-12T07:33:21Z</time></trkpt><trkpt lat="45.444124254620604" lon="10.63973499804097"><ele>78.5</ele><time>2026-04-12T07:33:22Z</time></trkpt><trkpt lat="45.44412425462148" lon="10.640089408078595"><ele>78.0</ele><time>2026-04-12T07:33:23Z</time></trkpt><trkpt lat="45.444140409600486" lon="10.640445346130464"><ele>77.5</ele><time>2026-04-12T07:33:24Z</time></trkpt><trkpt lat="45.444141557787844" lon="10.640805702342854"><ele>77.0</ele><time>2026-04-12T07:33:25Z</time></trkpt><trkpt lat="45.444126524627606" lon="10.641160326836825"><ele>77.0</ele><time>2026-04-12T07:33:26Z</time></trkpt><trkpt lat="45.44412549668445" lon="10.641514955897907"><ele>77.0</ele><time>2026-04-12T07:33:27Z</time></trkpt><trkpt lat="45.444115787214855" lon="10.641868234243429"><ele>76.5</ele><time>2026-04-12T07:33:28Z</time></trkpt><trkpt lat="45.444099001929764" lon="10.64222345295652"><ele>76.0</ele><time>2026-04-12T07:33:29Z</time></trkpt><trkpt lat="45.44407572883041" lon="10.642572388153193"><ele>76.0</ele><time>2026-04-12T07:33:30Z</time></trkpt><trkpt lat="45.44404229255977" lon="10.64291218970025"><ele>76.0</ele><time>2026-04-12T07:33:31Z</time></trkpt><trkpt lat="45.444003184530025" lon="10.643241253011809"><ele>76.0</ele><time>2026-04-12T07:33:32Z</time></trkpt><trkpt lat="45.44395375978238" lon="10.643563546261372"><ele>76.0</ele><time>2026-04-12T07:33:33Z</time></trkpt><trkpt lat="45.44388840033878" lon="10.643874579671504"><ele>75.5</ele><time>2026-04-12T07:33:34Z</time></trkpt><trkpt lat="45.44380239868664" lon="10.64418022858873"><ele>75.0</ele><time>2026-04-12T07:33:35Z</time></trkpt><trkpt lat="45.44371575457498" lon="10.644487236723492"><ele>75.0</ele><time>2026-04-12T07:33:36Z</time></trkpt><trkpt lat="45.44362850123802" lon="10.644776180142914"><ele>75.0</ele><time>2026-04-12T07:33:37Z</time></trkpt><trkpt lat="45.44354071376423" lon="10.645047119155327"><ele>75.0</ele><time>2026-04-12T07:33:38Z</time></trkpt><trkpt lat="45.44346478507114" lon="10.645319637964679"><ele>74.66666666666667</ele><time>2026-04-12T07:33:39Z</time></trkpt><trkpt lat="45.443363269454196" lon="10.645564906199944"><ele>74.33333333333334</ele><time>2026-04-12T07:33:40Z</time></trkpt><trkpt lat="45.44325712631122" lon="10.645799108104699"><ele>74.0</ele><time>2026-04-12T07:33:41Z</time></trkpt><trkpt lat="45.44314401137419" lon="10.646028324556163"><ele>73.66666666666667</ele><time>2026-04-12T07:33:42Z</time></trkpt><trkpt lat="45.443033950050584" lon="10.646253453941943"><ele>73.33333333333333</ele><time>2026-04-12T07:33:43Z</time></trkpt><trkpt lat="45.442918935443394" lon="10.646475725717274"><ele>73.0</ele><time>2026-04-12T07:33:44Z</time></trkpt><trkpt lat="45.442798959157265" lon="10.646697527937121"><ele>73.0</ele><time>2026-04-12T07:33:45Z</time></trkpt><trkpt lat="45.44268000653403" lon="10.646915710465148"><ele>73.0</ele><time>2026-04-12T07:33:46Z</time></trkpt><trkpt lat="45.44255830910567" lon="10.647136573840946"><ele>73.0</ele><time>2026-04-12T07:33:47Z</time></trkpt><trkpt lat="45.44243912641867" lon="10.647360425640892"><ele>72.66666666666666</ele><time>2026-04-12T07:33:48Z</time></trkpt><trkpt lat="45.44232473575747" lon="10.647583448498771"><ele>72.33333333333333</ele><time>2026-04-12T07:33:49Z</time></trkpt><trkpt lat="45.44221007341577" lon="10.647801105552789"><ele>72.0</ele><time>2026-04-12T07:33:50Z</time></trkpt><trkpt lat="45.4420908640636" lon="10.648024160507413"><ele>71.0</ele><time>2026-04-12T07:33:51Z</time></trkpt><trkpt lat="45.44197561787843" lon="10.648252503509017"><ele>70.0</ele><time>2026-04-12T07:33:52Z</time></trkpt><trkpt lat="45.441866391732496" lon="10.648470319579548"><ele>69.0</ele><time>2026-04-12T07:33:53Z</time></trkpt><trkpt lat="45.441763828701944" lon="10.648689991700795"><ele>69.0</ele><time>2026-04-12T07:33:54Z</time></trkpt><trkpt lat="45.4416615676671" lon="10.648917215277159"><ele>69.0</ele><time>2026-04-12T07:33:55Z</time></trkpt><trkpt lat="45.44157566407784" lon="10.64915167926795"><ele>69.0</ele><time>2026-04-12T07:33:56Z</time></trkpt><trkpt lat="45.44149036354625" lon="10.649387497846146"><ele>69.33333333333333</ele><time>2026-04-12T07:33:57Z</time></trkpt><trkpt lat="45.441417871467245" lon="10.649623501220677"><ele>69.66666666666666</ele><time>2026-04-12T07:33:58Z</time></trkpt><trkpt lat="45.44134557939903" lon="10.649862925344939"><ele>70.0</ele><time>2026-04-12T07:33:59Z</time></trkpt><trkpt lat="45.44126962372463" lon="10.650102897078165"><ele>70.33333333333333</ele><time>2026-04-12T07:34:00Z</time></trkpt><trkpt lat="45.44122073619091" lon="10.650350281695689"><ele>70.66666666666667</ele><time>2026-04-12T07:34:01Z</time></trkpt><trkpt lat="45.441170099363816" lon="10.650593880205198"><ele>71.0</ele><time>2026-04-12T07:34:02Z</time></trkpt><trkpt lat="45.44111881832684" lon="10.650840194121793"><ele>71.0</ele><time>2026-04-12T07:34:03Z</time></trkpt><trkpt lat="45.44107910632877" lon="10.65108687643503"><ele>71.0</ele><time>2026-04-12T07:34:04Z</time></trkpt><trkpt lat="45.44104542015277" lon="10.651341223112778"><ele>71.0</ele><time>2026-04-12T07:34:05Z</time></trkpt><trkpt lat="45.44101601875588" lon="10.651589861344757"><ele>71.66666666666667</ele><time>2026-04-12T07:34:06Z</time></trkpt><trkpt lat="45.44099190133044" lon="10.651842925317037"><ele>72.33333333333333</ele><time>2026-04-12T07:34:07Z</time></trkpt><trkpt lat="45.44097439109658" lon="10.652094415369083"><ele>73.0</ele><time>2026-04-12T07:34:08Z</time></trkpt><trkpt lat="45.44096299553153" lon="10.652351430774265"><ele>73.33333333333333</ele><time>2026-04-12T07:34:09Z</time></trkpt><trkpt lat="45.4409584056724" lon="10.65260836667038"><ele>73.66666666666667</ele><time>2026-04-12T07:34:10Z</time></trkpt><trkpt lat="45.440964383604" lon="10.65286230547126"><ele>74.0</ele><time>2026-04-12T07:34:11Z</time></trkpt><trkpt lat="45.44097087505209" lon="10.653119657105368"><ele>74.33333333333334</ele><time>2026-04-12T07:34:12Z</time></trkpt><trkpt lat="45.440985785286195" lon="10.653373682213536"><ele>74.66666666666667</ele><time>2026-04-12T07:34:13Z</time></trkpt><trkpt lat="45.44100180763661" lon="10.653632147633182"><ele>75.0</ele><time>2026-04-12T07:34:14Z</time></trkpt><trkpt lat="45.44102271436232" lon="10.653883374438031"><ele>75.0</ele><time>2026-04-12T07:34:15Z</time></trkpt><trkpt lat="45.441043945117386" lon="10.654137969438633"><ele>75.0</ele><time>2026-04-12T07:34:16Z</time></trkpt><trkpt lat="45.44106403850546" lon="10.654393196821175"><ele>75.0</ele><time>2026-04-12T07:34:17Z</time></trkpt><trkpt lat="45.441081668887676" lon="10.654651833606216"><ele>75.66666666666667</ele><time>2026-04-12T07:34:18Z</time></trkpt><trkpt lat="45.441100754985925" lon="10.654907717722239"><ele>76.33333333333334</ele><time>2026-04-12T07:34:19Z</time></trkpt><trkpt lat="45.44112154744365" lon="10.655168249788234"><ele>77.0</ele><time>2026-04-12T07:34:19.999Z</time></trkpt><trkpt lat="45.441139768999115" lon="10.65542678810075"><ele>77.33333333333334</ele><time>2026-04-12T07:34:20.999Z</time></trkpt><trkpt lat="45.441160329243246" lon="10.655688742217363"><ele>77.66666666666667</ele><time>2026-04-12T07:34:21.999Z</time></trkpt><trkpt lat="45.4411806089936" lon="10.655954820284272"><ele>78.0</ele><time>2026-04-12T07:34:22.999Z</time></trkpt><trkpt lat="45.441200927407124" lon="10.656220812901287"><ele>78.33333333333333</ele><time>2026-04-12T07:34:23.999Z</time></trkpt><trkpt lat="45.44121982297128" lon="10.656489591438378"><ele>78.66666666666666</ele><time>2026-04-12T07:34:25Z</time></trkpt><trkpt lat="45.44123953989384" lon="10.656754270827486"><ele>79.0</ele><time>2026-04-12T07:34:26Z</time></trkpt><trkpt lat="45.44125905093793" lon="10.657021715706316"><ele>79.0</ele><time>2026-04-12T07:34:27Z</time></trkpt><trkpt lat="45.44128064689333" lon="10.65729017561747"><ele>79.0</ele><time>2026-04-12T07:34:28Z</time></trkpt><trkpt lat="45.441300665736634" lon="10.65755763391133"><ele>79.0</ele><time>2026-04-12T07:34:29Z</time></trkpt><trkpt lat="45.44132054152703" lon="10.657825383055787"><ele>78.66666666666666</ele><time>2026-04-12T07:34:30Z</time></trkpt><trkpt lat="45.441339650125194" lon="10.658094858493499"><ele>78.33333333333333</ele><time>2026-04-12T07:34:31Z</time></trkpt><trkpt lat="45.441358857749435" lon="10.658364335068015"><ele>78.0</ele><time>2026-04-12T07:34:32Z</time></trkpt><trkpt lat="45.441377779036635" lon="10.658632220929514"><ele>78.0</ele><time>2026-04-12T07:34:33Z</time></trkpt><trkpt lat="45.441397592245096" lon="10.658903025462154"><ele>78.0</ele><time>2026-04-12T07:34:34Z</time></trkpt><trkpt lat="45.44141679297945" lon="10.659170402513762"><ele>78.0</ele><time>2026-04-12T07:34:35Z</time></trkpt><trkpt lat="45.44143535393845" lon="10.659438594923763"><ele>78.33333333333333</ele><time>2026-04-12T07:34:36Z</time></trkpt><trkpt lat="45.44145332225589" lon="10.659707902294185"><ele>78.66666666666666</ele><time>2026-04-12T07:34:37Z</time></trkpt><trkpt lat="45.44147417869085" lon="10.659975131235592"><ele>79.0</ele><time>2026-04-12T07:34:38Z</time></trkpt><trkpt lat="45.441494160235266" lon="10.660245189712898"><ele>79.66666666666666</ele><time>2026-04-12T07:34:39Z</time></trkpt><trkpt lat="45.44151433209172" lon="10.660507639896622"><ele>80.33333333333333</ele><time>2026-04-12T07:34:40Z</time></trkpt><trkpt lat="45.44153155992352" lon="10.660774384705723"><ele>81.0</ele><time>2026-04-12T07:34:41Z</time></trkpt><trkpt lat="45.44155011698918" lon="10.661039409169584"><ele>80.66666666666667</ele><time>2026-04-12T07:34:42Z</time></trkpt><trkpt lat="45.441569809665616" lon="10.661305799879521"><ele>80.33333333333334</ele><time>2026-04-12T07:34:43Z</time></trkpt><trkpt lat="45.44158995337562" lon="10.66157466209019"><ele>80.0</ele><time>2026-04-12T07:34:44Z</time></trkpt><trkpt lat="45.441612788168875" lon="10.661836194335075"><ele>80.0</ele><time>2026-04-12T07:34:45Z</time></trkpt><trkpt lat="45.44163034103396" lon="10.662118271927527"><ele>80.0</ele><time>2026-04-12T07:34:46Z</time></trkpt><trkpt lat="45.44165279783139" lon="10.662418937840505"><ele>80.0</ele><time>2026-04-12T07:34:47Z</time></trkpt><trkpt lat="45.4416838157125" lon="10.662737118515873"><ele>80.5</ele><time>2026-04-12T07:34:48Z</time></trkpt><trkpt lat="45.441722242824696" lon="10.663064891908526"><ele>81.0</ele><time>2026-04-12T07:34:49Z</time></trkpt><trkpt lat="45.44174955746344" lon="10.663401920579021"><ele>80.0</ele><time>2026-04-12T07:34:50Z</time></trkpt><trkpt lat="45.44181042492838" lon="10.663739894086756"><ele>79.0</ele><time>2026-04-12T07:34:51Z</time></trkpt><trkpt lat="45.44185585102337" lon="10.66408054728473"><ele>79.0</ele><time>2026-04-12T07:34:52Z</time></trkpt><trkpt lat="45.44190555062865" lon="10.664433004746734"><ele>79.0</ele><time>2026-04-12T07:34:53Z</time></trkpt><trkpt lat="45.441958103700436" lon="10.664778734720905"><ele>78.0</ele><time>2026-04-12T07:34:54Z</time></trkpt><trkpt lat="45.44201036146727" lon="10.665115707389061"><ele>77.0</ele><time>2026-04-12T07:34:55Z</time></trkpt><trkpt lat="45.44206440357847" lon="10.665447429442061"><ele>77.0</ele><time>2026-04-12T07:34:56Z</time></trkpt><trkpt lat="45.44212352345755" lon="10.665773058891158"><ele>77.0</ele><time>2026-04-12T07:34:57Z</time></trkpt><trkpt lat="45.44218573187331" lon="10.666095288023806"><ele>75.5</ele><time>2026-04-12T07:34:58Z</time></trkpt><trkpt lat="45.44224451604401" lon="10.66642117965227"><ele>74.0</ele><time>2026-04-12T07:34:59Z</time></trkpt><trkpt lat="45.44230305752071" lon="10.666739159251676"><ele>75.0</ele><time>2026-04-12T07:35:00Z</time></trkpt><trkpt lat="45.442353000695995" lon="10.66705851905361"><ele>76.0</ele><time>2026-04-12T07:35:01Z</time></trkpt><trkpt lat="45.442395750708826" lon="10.66737885513173"><ele>76.0</ele><time>2026-04-12T07:35:02Z</time></trkpt><trkpt lat="45.4424334795501" lon="10.667697515253353"><ele>76.0</ele><time>2026-04-12T07:35:03Z</time></trkpt><trkpt lat="45.442460030377376" lon="10.668021645822378"><ele>76.0</ele><time>2026-04-12T07:35:04Z</time></trkpt><trkpt lat="45.44247985719479" lon="10.668342023400346"><ele>76.0</ele><time>2026-04-12T07:35:05Z</time></trkpt><trkpt lat="45.44249601130157" lon="10.66865772406694"><ele>76.0</ele><time>2026-04-12T07:35:06Z</time></trkpt><trkpt lat="45.442507189901534" lon="10.668974459692583"><ele>76.33333333333333</ele><time>2026-04-12T07:35:07Z</time></trkpt><trkpt lat="45.44250425252965" lon="10.669291557722481"><ele>76.66666666666667</ele><time>2026-04-12T07:35:08Z</time></trkpt><trkpt lat="45.442496286548895" lon="10.66960873534522"><ele>77.0</ele><time>2026-04-12T07:35:09Z</time></trkpt><trkpt lat="45.44247977586732" lon="10.669928048433656"><ele>77.33333333333334</ele><time>2026-04-12T07:35:10Z</time></trkpt><trkpt lat="45.44245232380398" lon="10.670242377956468"><ele>77.66666666666667</ele><time>2026-04-12T07:35:11Z</time></trkpt><trkpt lat="45.44241995503452" lon="10.670561729897065"><ele>78.0</ele><time>2026-04-12T07:35:12Z</time></trkpt><trkpt lat="45.442381590934275" lon="10.670878015155282"><ele>78.0</ele><time>2026-04-12T07:35:13Z</time></trkpt><trkpt lat="45.44233579582148" lon="10.6711915071855"><ele>78.0</ele><time>2026-04-12T07:35:14Z</time></trkpt><trkpt lat="45.44228063851038" lon="10.671500615438411"><ele>78.0</ele><time>2026-04-12T07:35:15Z</time></trkpt><trkpt lat="45.44222045060278" lon="10.671807992129974"><ele>78.33333333333333</ele><time>2026-04-12T07:35:16Z</time></trkpt><trkpt lat="45.4421544154034" lon="10.67210941455182"><ele>78.66666666666666</ele><time>2026-04-12T07:35:17Z</time></trkpt><trkpt lat="45.44208399755475" lon="10.672406996164113"><ele>79.0</ele><time>2026-04-12T07:35:18Z</time></trkpt><trkpt lat="45.44200553527315" lon="10.672704389008207"><ele>79.66666666666666</ele><time>2026-04-12T07:35:19Z</time></trkpt><trkpt lat="45.441928216652336" lon="10.673001455351372"><ele>80.33333333333333</ele><time>2026-04-12T07:35:20Z</time></trkpt><trkpt lat="45.4418503433637" lon="10.673304192019522"><ele>81.0</ele><time>2026-04-12T07:35:21Z</time></trkpt><trkpt lat="45.44176204480546" lon="10.673597721701656"><ele>82.0</ele><time>2026-04-12T07:35:22Z</time></trkpt><trkpt lat="45.441684039896515" lon="10.673900533991278"><ele>83.0</ele><time>2026-04-12T07:35:23Z</time></trkpt><trkpt lat="45.441619631483164" lon="10.674212098638694"><ele>83.0</ele><time>2026-04-12T07:35:24Z</time></trkpt><trkpt lat="45.441537357589944" lon="10.674519227835098"><ele>83.0</ele><time>2026-04-12T07:35:25Z</time></trkpt><trkpt lat="45.44145727667676" lon="10.67482305636603"><ele>83.0</ele><time>2026-04-12T07:35:26Z</time></trkpt><trkpt lat="45.44138275661034" lon="10.67512051784346"><ele>83.0</ele><time>2026-04-12T07:35:27Z</time></trkpt><trkpt lat="45.44130243205493" lon="10.6754035693548"><ele>83.0</ele><time>2026-04-12T07:35:28Z</time></trkpt><trkpt lat="45.44121937983597" lon="10.675657828812833"><ele>83.66666666666667</ele><time>2026-04-12T07:35:29Z</time></trkpt><trkpt lat="45.441129615845014" lon="10.675898190253353"><ele>84.33333333333333</ele><time>2026-04-12T07:35:30Z</time></trkpt><trkpt lat="45.44104043257101" lon="10.676115298802518"><ele>85.0</ele><time>2026-04-12T07:35:31Z</time></trkpt><trkpt lat="45.44094842247417" lon="10.67632181917348"><ele>85.25</ele><time>2026-04-12T07:35:32Z</time></trkpt><trkpt lat="45.4408546259336" lon="10.676496273880057"><ele>85.5</ele><time>2026-04-12T07:35:33Z</time></trkpt><trkpt lat="45.440765518313334" lon="10.67663491436484"><ele>85.75</ele><time>2026-04-12T07:35:34Z</time></trkpt><trkpt lat="45.4406873738096" lon="10.676729648198767"><ele>86.0</ele><time>2026-04-12T07:35:35Z</time></trkpt><trkpt lat="45.440601188958965" lon="10.67678300655284"><ele>86.0</ele><time>2026-04-12T07:35:36Z</time></trkpt><trkpt lat="45.440504274409996" lon="10.676775497558335"><ele>86.0</ele><time>2026-04-12T07:35:37Z</time></trkpt><trkpt lat="45.440405395611364" lon="10.676719236262159"><ele>86.0</ele><time>2026-04-12T07:35:38Z</time></trkpt><trkpt lat="45.44032401589942" lon="10.67660995355389"><ele>86.0</ele><time>2026-04-12T07:35:39Z</time></trkpt><trkpt lat="45.440281838215434" lon="10.676444807242467"><ele>86.0</ele><time>2026-04-12T07:35:40Z</time></trkpt><trkpt lat="45.44026482976088" lon="10.676238536784004"><ele>86.33333333333334</ele><time>2026-04-12T07:35:41Z</time></trkpt><trkpt lat="45.4403022352845" lon="10.675989624195669"><ele>86.66666666666667</ele><time>2026-04-12T07:35:42Z</time></trkpt><trkpt lat="45.44034922780078" lon="10.675700575033693"><ele>87.0</ele><time>2026-04-12T07:35:43Z</time></trkpt><trkpt lat="45.44040437579088" lon="10.675393517867416"><ele>86.66666666666667</ele><time>2026-04-12T07:35:44Z</time></trkpt><trkpt lat="45.44048024374902" lon="10.675091948758965"><ele>86.33333333333334</ele><time>2026-04-12T07:35:45Z</time></trkpt><trkpt lat="45.44058308367887" lon="10.674825551776427"><ele>86.0</ele><time>2026-04-12T07:35:46Z</time></trkpt><trkpt lat="45.44070245006631" lon="10.674595730960707"><ele>85.66666666666667</ele><time>2026-04-12T07:35:47Z</time></trkpt><trkpt lat="45.440823838162565" lon="10.674395464111539"><ele>85.33333333333333</ele><time>2026-04-12T07:35:48Z</time></trkpt><trkpt lat="45.44094656480798" lon="10.674214216591844"><ele>85.0</ele><time>2026-04-12T07:35:49Z</time></trkpt><trkpt lat="45.44106350033054" lon="10.674075930742092"><ele>85.0</ele><time>2026-04-12T07:35:50Z</time></trkpt><trkpt lat="45.44117151868156" lon="10.673966816998997"><ele>85.0</ele><time>2026-04-12T07:35:51Z</time></trkpt><trkpt lat="45.441269536715744" lon="10.67388106696806"><ele>85.0</ele><time>2026-04-12T07:35:52Z</time></trkpt><trkpt lat="45.44136952433212" lon="10.67382474275557"><ele>85.0</ele><time>2026-04-12T07:35:53Z</time></trkpt><trkpt lat="45.441478789946395" lon="10.673830250756179"><ele>84.5</ele><time>2026-04-12T07:35:54Z</time></trkpt><trkpt lat="45.441597520362926" lon="10.67389217450376"><ele>84.0</ele><time>2026-04-12T07:35:55Z</time></trkpt><trkpt lat="45.44169896883583" lon="10.674016818527848"><ele>83.5</ele><time>2026-04-12T07:35:56Z</time></trkpt><trkpt lat="45.44176181698173" lon="10.67419663433724"><ele>83.0</ele><time>2026-04-12T07:35:57Z</time></trkpt><trkpt lat="45.44175241090159" lon="10.674408883157911"><ele>83.0</ele><time>2026-04-12T07:35:58Z</time></trkpt><trkpt lat="45.44175921291541" lon="10.67465628685959"><ele>83.0</ele><time>2026-04-12T07:35:59Z</time></trkpt><trkpt lat="45.441762295351516" lon="10.674906208078932"><ele>83.0</ele><time>2026-04-12T07:36:00Z</time></trkpt><trkpt lat="45.44176589043043" lon="10.67512593139838"><ele>82.80000000000001</ele><time>2026-04-12T07:36:01Z</time></trkpt><trkpt lat="45.441790520420426" lon="10.675302778977562"><ele>82.6</ele><time>2026-04-12T07:36:02Z</time></trkpt><trkpt lat="45.441791462866654" lon="10.675443325947002"><ele>82.4</ele><time>2026-04-12T07:36:03Z</time></trkpt><trkpt lat="45.441785066911656" lon="10.675544144201035"><ele>82.19999999999999</ele><time>2026-04-12T07:36:04Z</time></trkpt><trkpt lat="45.44175527542198" lon="10.67570250479362"><ele>82.0</ele><time>2026-04-12T07:36:09Z</time></trkpt><trkpt lat="45.44171655431241" lon="10.675791613007435"><ele>82.0</ele><time>2026-04-12T07:36:10Z</time></trkpt><trkpt lat="45.441687036780756" lon="10.675911516163858"><ele>82.0</ele><time>2026-04-12T07:36:11Z</time></trkpt><trkpt lat="45.44166199278864" lon="10.676035958092271"><ele>82.0</ele><time>2026-04-12T07:36:12Z</time></trkpt><trkpt lat="45.441640623766595" lon="10.676158035880988"><ele>82.0</ele><time>2026-04-12T07:36:13Z</time></trkpt><trkpt lat="45.44167974262723" lon="10.676298291203022"><ele>82.0</ele><time>2026-04-12T07:36:14Z</time></trkpt><trkpt lat="45.44174526331825" lon="10.676399772862622"><ele>82.19999999999999</ele><time>2026-04-12T07:36:15Z</time></trkpt><trkpt lat="45.44179356132399" lon="10.67650792716559"><ele>82.4</ele><time>2026-04-12T07:36:16Z</time></trkpt><trkpt lat="45.44182577450195" lon="10.676643037401726"><ele>82.6</ele><time>2026-04-12T07:36:17Z</time></trkpt><trkpt lat="45.441786850934534" lon="10.676796264060359"><ele>82.80000000000001</ele><time>2026-04-12T07:36:18Z</time></trkpt><trkpt lat="45.44176565766072" lon="10.676958003306556"><ele>83.0</ele><time>2026-04-12T07:36:19Z</time></trkpt><trkpt lat="45.441712062970446" lon="10.677121224397961"><ele>83.5</ele><time>2026-04-12T07:36:20Z</time></trkpt><trkpt lat="45.44167074112348" lon="10.677307204133076"><ele>84.0</ele><time>2026-04-12T07:36:21Z</time></trkpt><trkpt lat="45.44163236029537" lon="10.677503912799253"><ele>84.5</ele><time>2026-04-12T07:36:22Z</time></trkpt><trkpt lat="45.44157584560854" lon="10.677693831904122"><ele>85.0</ele><time>2026-04-12T07:36:23Z</time></trkpt><trkpt lat="45.44152714422652" lon="10.677880817391921"><ele>85.0</ele><time>2026-04-12T07:36:24Z</time></trkpt><trkpt lat="45.441483516049814" lon="10.678048324667634"><ele>85.0</ele><time>2026-04-12T07:36:25Z</time></trkpt><trkpt lat="45.44147745705833" lon="10.678228759136575"><ele>85.0</ele><time>2026-04-12T07:36:26Z</time></trkpt><trkpt lat="45.441447892750745" lon="10.678388004451232"><ele>85.0</ele><time>2026-04-12T07:36:27Z</time></trkpt><trkpt lat="45.44141878134618" lon="10.678531691555582"><ele>85.0</ele><time>2026-04-12T07:36:28Z</time></trkpt><trkpt lat="45.44139301573106" lon="10.678655558805252"><ele>85.0</ele><time>2026-04-12T07:36:29Z</time></trkpt><trkpt lat="45.44138080437408" lon="10.678762324857267"><ele>85.0</ele><time>2026-04-12T07:36:29.999Z</time></trkpt><trkpt lat="45.441367136030806" lon="10.678850525479598"><ele>85.0</ele><time>2026-04-12T07:36:31Z</time></trkpt><trkpt lat="45.441333271891935" lon="10.679033207222325"><ele>85.0</ele><time>2026-04-12T07:36:33Z</time></trkpt><trkpt lat="45.44131146008857" lon="10.67915582805115"><ele>85.0</ele><time>2026-04-12T07:36:34Z</time></trkpt><trkpt lat="45.44128544034729" lon="10.679296485632909"><ele>85.0</ele><time>2026-04-12T07:36:35Z</time></trkpt><trkpt lat="45.441255735288145" lon="10.679449439387309"><ele>85.0</ele><time>2026-04-12T07:36:36Z</time></trkpt><trkpt lat="45.4412133500099" lon="10.679618538913997"><ele>85.0</ele><time>2026-04-12T07:36:37Z</time></trkpt><trkpt lat="45.44117258390683" lon="10.679800469364967"><ele>84.75</ele><time>2026-04-12T07:36:38Z</time></trkpt><trkpt lat="45.44113785515047" lon="10.680002144611809"><ele>84.5</ele><time>2026-04-12T07:36:39Z</time></trkpt><trkpt lat="45.44111211586855" lon="10.680210388806525"><ele>84.25</ele><time>2026-04-12T07:36:40Z</time></trkpt><trkpt lat="45.4410903974335" lon="10.680400767062915"><ele>84.0</ele><time>2026-04-12T07:36:41Z</time></trkpt><trkpt lat="45.44107590327517" lon="10.680555013993368"><ele>84.33333333333333</ele><time>2026-04-12T07:36:42Z</time></trkpt><trkpt lat="45.441070181375885" lon="10.680671267273844"><ele>84.66666666666667</ele><time>2026-04-12T07:36:43Z</time></trkpt><trkpt lat="45.441054323069686" lon="10.680806417565513"><ele>85.0</ele><time>2026-04-12T07:36:45Z</time></trkpt><trkpt lat="45.44105340445619" lon="10.680956318921927"><ele>85.33333333333334</ele><time>2026-04-12T07:36:47Z</time></trkpt><trkpt lat="45.44104667275881" lon="10.68106512061397"><ele>85.66666666666667</ele><time>2026-04-12T07:36:48Z</time></trkpt><trkpt lat="45.44102788367521" lon="10.681174941767491"><ele>86.0</ele><time>2026-04-12T07:36:49Z</time></trkpt><trkpt lat="45.44098447805545" lon="10.68125008961038"><ele>86.16666666666667</ele><time>2026-04-12T07:36:50Z</time></trkpt><trkpt lat="45.440930227511245" lon="10.68130970678111"><ele>86.33333333333334</ele><time>2026-04-12T07:36:51Z</time></trkpt><trkpt lat="45.440912138674705" lon="10.681401030740707"><ele>86.5</ele><time>2026-04-12T07:36:52Z</time></trkpt><trkpt lat="45.440940753858385" lon="10.681515489855942"><ele>86.66666666666667</ele><time>2026-04-12T07:36:53Z</time></trkpt><trkpt lat="45.4409562778356" lon="10.681643254551211"><ele>86.83333333333333</ele><time>2026-04-12T07:36:54Z</time></trkpt><trkpt lat="45.44092807865661" lon="10.681789124217318"><ele>87.0</ele><time>2026-04-12T07:36:55Z</time></trkpt><trkpt lat="45.44086628702227" lon="10.681919198470194"><ele>86.66666666666667</ele><time>2026-04-12T07:36:56Z</time></trkpt><trkpt lat="45.44083696058054" lon="10.6820316698107"><ele>86.33333333333333</ele><time>2026-04-12T07:36:57Z</time></trkpt><trkpt lat="45.4408164892576" lon="10.682161741758176"><ele>86.0</ele><time>2026-04-12T07:36:59Z</time></trkpt><trkpt lat="45.44078346589166" lon="10.682295162854915"><ele>85.66666666666666</ele><time>2026-04-12T07:37:01Z</time></trkpt><trkpt lat="45.44075946020966" lon="10.682394532172292"><ele>85.33333333333333</ele><time>2026-04-12T07:37:02Z</time></trkpt><trkpt lat="45.44073419578654" lon="10.682504856711235"><ele>85.0</ele><time>2026-04-12T07:37:03Z</time></trkpt><trkpt lat="45.4407043986497" lon="10.682624597243638"><ele>85.0</ele><time>2026-04-12T07:37:04Z</time></trkpt><trkpt lat="45.44067167571974" lon="10.682750988891698"><ele>85.0</ele><time>2026-04-12T07:37:05Z</time></trkpt><trkpt lat="45.440635633165286" lon="10.682885362587943"><ele>85.0</ele><time>2026-04-12T07:37:06Z</time></trkpt><trkpt lat="45.44060325998706" lon="10.683023018785647"><ele>85.0</ele><time>2026-04-12T07:37:07Z</time></trkpt><trkpt lat="45.4405656600245" lon="10.683162797110834"><ele>85.0</ele><time>2026-04-12T07:37:08Z</time></trkpt><trkpt lat="45.440514391038676" lon="10.68330066486617"><ele>84.6</ele><time>2026-04-12T07:37:09Z</time></trkpt><trkpt lat="45.44047699557667" lon="10.683446613086103"><ele>84.2</ele><time>2026-04-12T07:37:10Z</time></trkpt><trkpt lat="45.4404394842149" lon="10.68359231239742"><ele>83.80000000000001</ele><time>2026-04-12T07:37:11Z</time></trkpt><trkpt lat="45.44040211784129" lon="10.683738554710056"><ele>83.4</ele><time>2026-04-12T07:37:12Z</time></trkpt><trkpt lat="45.440361994335866" lon="10.683896519840063"><ele>83.0</ele><time>2026-04-12T07:37:13Z</time></trkpt><trkpt lat="45.44032135873172" lon="10.684056500935222"><ele>82.25</ele><time>2026-04-12T07:37:14Z</time></trkpt><trkpt lat="45.44028013550713" lon="10.684218787493558"><ele>81.5</ele><time>2026-04-12T07:37:15Z</time></trkpt><trkpt lat="45.44023989808009" lon="10.684377192083106"><ele>80.75</ele><time>2026-04-12T07:37:16Z</time></trkpt><trkpt lat="45.44020019534335" lon="10.684533491785304"><ele>80.0</ele><time>2026-04-12T07:37:17Z</time></trkpt><trkpt lat="45.44016144810433" lon="10.68468602997306"><ele>79.5</ele><time>2026-04-12T07:37:18Z</time></trkpt><trkpt lat="45.44014552614221" lon="10.684853191027987"><ele>79.0</ele><time>2026-04-12T07:37:19Z</time></trkpt><trkpt lat="45.44010556904131" lon="10.685005481618271"><ele>78.5</ele><time>2026-04-12T07:37:20Z</time></trkpt><trkpt lat="45.44006712751024" lon="10.685165335852023"><ele>78.0</ele><time>2026-04-12T07:37:21Z</time></trkpt><trkpt lat="45.44002595976352" lon="10.685324557560389"><ele>78.0</ele><time>2026-04-12T07:37:22Z</time></trkpt><trkpt lat="45.43998477357209" lon="10.685483004779389"><ele>78.0</ele><time>2026-04-12T07:37:23Z</time></trkpt><trkpt lat="45.43994392759326" lon="10.68564173015225"><ele>78.0</ele><time>2026-04-12T07:37:24Z</time></trkpt><trkpt lat="45.439904030460845" lon="10.685802229110047"><ele>78.0</ele><time>2026-04-12T07:37:25Z</time></trkpt><trkpt lat="45.439840092919525" lon="10.685952991283987"><ele>77.66666666666667</ele><time>2026-04-12T07:37:26Z</time></trkpt><trkpt lat="45.439804803233415" lon="10.68610566945198"><ele>77.33333333333333</ele><time>2026-04-12T07:37:27Z</time></trkpt><trkpt lat="45.439774264977544" lon="10.686240675167719"><ele>77.0</ele><time>2026-04-12T07:37:28Z</time></trkpt><trkpt lat="45.439763362041006" lon="10.686361946910617"><ele>76.66666666666666</ele><time>2026-04-12T07:37:29Z</time></trkpt><trkpt lat="45.43973940599883" lon="10.686462785837376"><ele>76.33333333333333</ele><time>2026-04-12T07:37:30Z</time></trkpt><trkpt lat="45.43971434315913" lon="10.686550479320056"><ele>76.0</ele><time>2026-04-12T07:37:31Z</time></trkpt><trkpt lat="45.439691588220946" lon="10.686636199337602"><ele>76.0</ele><time>2026-04-12T07:37:32Z</time></trkpt><trkpt lat="45.439661112823146" lon="10.68679432068512"><ele>76.0</ele><time>2026-04-12T07:37:34Z</time></trkpt><trkpt lat="45.43973335934162" lon="10.686935724200293"><ele>76.0</ele><time>2026-04-12T07:37:36Z</time></trkpt><trkpt lat="45.43981226471919" lon="10.687058260578018"><ele>76.0</ele><time>2026-04-12T07:37:38Z</time></trkpt><trkpt lat="45.439845171119416" lon="10.687220975712552"><ele>75.5</ele><time>2026-04-12T07:37:40Z</time></trkpt><trkpt lat="45.43987166757219" lon="10.68740649316311"><ele>75.0</ele><time>2026-04-12T07:37:42Z</time></trkpt><trkpt lat="45.43989159548108" lon="10.687507082511283"><ele>74.5</ele><time>2026-04-12T07:37:43Z</time></trkpt><trkpt lat="45.43990993437969" lon="10.687607048015932"><ele>74.0</ele><time>2026-04-12T07:37:44Z</time></trkpt><trkpt lat="45.43992788785237" lon="10.687695827764164"><ele>73.5</ele><time>2026-04-12T07:37:45Z</time></trkpt><trkpt lat="45.43992860019214" lon="10.68779169554415"><ele>73.0</ele><time>2026-04-12T07:37:46Z</time></trkpt><trkpt lat="45.4399577878366" lon="10.687874216776713"><ele>73.0</ele><time>2026-04-12T07:37:47Z</time></trkpt><trkpt lat="45.439955549454645" lon="10.68796436774748"><ele>73.0</ele><time>2026-04-12T07:37:48Z</time></trkpt><trkpt lat="45.439997287042594" lon="10.688125251140033"><ele>73.0</ele><time>2026-04-12T07:37:50Z</time></trkpt><trkpt lat="45.44001942219045" lon="10.688275168866152"><ele>73.0</ele><time>2026-04-12T07:37:52Z</time></trkpt><trkpt lat="45.440032152082" lon="10.68845982432648"><ele>73.0</ele><time>2026-04-12T07:37:54Z</time></trkpt><trkpt lat="45.44004804783006" lon="10.688562800604844"><ele>72.66666666666666</ele><time>2026-04-12T07:37:55Z</time></trkpt><trkpt lat="45.44007905028494" lon="10.688670764463714"><ele>72.33333333333333</ele><time>2026-04-12T07:37:56Z</time></trkpt><trkpt lat="45.4400948596537" lon="10.68879151238334"><ele>72.0</ele><time>2026-04-12T07:37:57Z</time></trkpt><trkpt lat="45.440114018848156" lon="10.688916061660635"><ele>71.66666666666667</ele><time>2026-04-12T07:37:58Z</time></trkpt><trkpt lat="45.44013342367037" lon="10.689043877968853"><ele>71.33333333333334</ele><time>2026-04-12T07:37:59Z</time></trkpt><trkpt lat="45.44014975361529" lon="10.689173840564706"><ele>71.0</ele><time>2026-04-12T07:38:00Z</time></trkpt><trkpt lat="45.44014303449024" lon="10.68930442981928"><ele>70.2</ele><time>2026-04-12T07:38:01Z</time></trkpt><trkpt lat="45.440146308831466" lon="10.68943636918348"><ele>69.39999999999999</ele><time>2026-04-12T07:38:02Z</time></trkpt><trkpt lat="45.44014463410605" lon="10.68956994825556"><ele>68.6</ele><time>2026-04-12T07:38:03Z</time></trkpt><trkpt lat="45.44013828937693" lon="10.689705648655641"><ele>67.8</ele><time>2026-04-12T07:38:04Z</time></trkpt><trkpt lat="45.44012747200538" lon="10.6898351224535"><ele>67.0</ele><time>2026-04-12T07:38:05Z</time></trkpt><trkpt lat="45.440111961982005" lon="10.689958190672604"><ele>67.0</ele><time>2026-04-12T07:38:06Z</time></trkpt><trkpt lat="45.44009603878083" lon="10.690067960633808"><ele>67.0</ele><time>2026-04-12T07:38:07Z</time></trkpt><trkpt lat="45.44006802869535" lon="10.690219744080611"><ele>67.0</ele><time>2026-04-12T07:38:09Z</time></trkpt><trkpt lat="45.44005592602834" lon="10.690328899596828"><ele>67.0</ele><time>2026-04-12T07:38:11Z</time></trkpt><trkpt lat="45.439991438802245" lon="10.69041840671066"><ele>67.0</ele><time>2026-04-12T07:38:13Z</time></trkpt><trkpt lat="45.439914581550404" lon="10.690531523870394"><ele>66.66666666666666</ele><time>2026-04-12T07:38:15Z</time></trkpt><trkpt lat="45.439898545537176" lon="10.690620117439723"><ele>66.33333333333333</ele><time>2026-04-12T07:38:16Z</time></trkpt><trkpt lat="45.43990534573359" lon="10.69071809099084"><ele>66.0</ele><time>2026-04-12T07:38:17Z</time></trkpt><trkpt lat="45.43988517091535" lon="10.69081881997024"><ele>65.66666666666667</ele><time>2026-04-12T07:38:18Z</time></trkpt><trkpt lat="45.43984016696863" lon="10.690909061258699"><ele>65.33333333333334</ele><time>2026-04-12T07:38:19Z</time></trkpt><trkpt lat="45.43979064479101" lon="10.6910087767812"><ele>65.0</ele><time>2026-04-12T07:38:20Z</time></trkpt><trkpt lat="45.43974611628511" lon="10.691106655203017"><ele>64.83333333333334</ele><time>2026-04-12T07:38:21Z</time></trkpt><trkpt lat="45.439703245858766" lon="10.69120858229022"><ele>64.66666666666667</ele><time>2026-04-12T07:38:22Z</time></trkpt><trkpt lat="45.43966206691359" lon="10.691307260605988"><ele>64.5</ele><time>2026-04-12T07:38:23Z</time></trkpt><trkpt lat="45.4396192581715" lon="10.69139655014671"><ele>64.33333333333333</ele><time>2026-04-12T07:38:24Z</time></trkpt><trkpt lat="45.439586548798346" lon="10.691497395669037"><ele>64.16666666666666</ele><time>2026-04-12T07:38:25Z</time></trkpt><trkpt lat="45.43953887482267" lon="10.691574918983424"><ele>64.0</ele><time>2026-04-12T07:38:26Z</time></trkpt><trkpt lat="45.43950653139562" lon="10.691657935445738"><ele>64.83333333333333</ele><time>2026-04-12T07:38:27Z</time></trkpt><trkpt lat="45.43947143865896" lon="10.691748035475417"><ele>65.66666666666666</ele><time>2026-04-12T07:38:29Z</time></trkpt><trkpt lat="45.43943290823673" lon="10.691847029909312"><ele>66.5</ele><time>2026-04-12T07:38:32Z</time></trkpt><trkpt lat="45.43938269174237" lon="10.691979466297996"><ele>67.33333333333333</ele><time>2026-04-12T07:38:34Z</time></trkpt><trkpt lat="45.43935198998186" lon="10.692064273696019"><ele>68.16666666666667</ele><time>2026-04-12T07:38:35Z</time></trkpt><trkpt lat="45.439323379238296" lon="10.692144750299274"><ele>69.0</ele><time>2026-04-12T07:38:36Z</time></trkpt><trkpt lat="45.439295943096056" lon="10.692229160419663"><ele>69.14285714285714</ele><time>2026-04-12T07:38:37Z</time></trkpt><trkpt lat="45.43927080540172" lon="10.692324486862107"><ele>69.28571428571429</ele><time>2026-04-12T07:38:38Z</time></trkpt><trkpt lat="45.439262616365326" lon="10.692428931752405"><ele>69.42857142857143</ele><time>2026-04-12T07:38:39Z</time></trkpt><trkpt lat="45.43924017537746" lon="10.6925185416874"><ele>69.57142857142857</ele><time>2026-04-12T07:38:40Z</time></trkpt><trkpt lat="45.43922040684278" lon="10.692606350039828"><ele>69.71428571428572</ele><time>2026-04-12T07:38:41Z</time></trkpt><trkpt lat="45.43920682558757" lon="10.692701538983885"><ele>69.85714285714286</ele><time>2026-04-12T07:38:42Z</time></trkpt><trkpt lat="45.439205022012494" lon="10.69279688137684"><ele>70.0</ele><time>2026-04-12T07:38:43Z</time></trkpt><trkpt lat="45.43922000503665" lon="10.69288590546768"><ele>70.14285714285714</ele><time>2026-04-12T07:38:44Z</time></trkpt><trkpt lat="45.43925191872185" lon="10.692972065147623"><ele>70.28571428571428</ele><time>2026-04-12T07:38:45Z</time></trkpt><trkpt lat="45.43932588078876" lon="10.693014900900675"><ele>70.42857142857143</ele><time>2026-04-12T07:38:46Z</time></trkpt><trkpt lat="45.43939556720359" lon="10.6930521769681"><ele>70.57142857142857</ele><time>2026-04-12T07:38:47Z</time></trkpt><trkpt lat="45.43945962839109" lon="10.693095529627147"><ele>70.71428571428571</ele><time>2026-04-12T07:38:48Z</time></trkpt><trkpt lat="45.4395292630843" lon="10.693146478338702"><ele>70.85714285714286</ele><time>2026-04-12T07:38:49Z</time></trkpt><trkpt lat="45.439592218032594" lon="10.693203365538714"><ele>71.0</ele><time>2026-04-12T07:38:50Z</time></trkpt><trkpt lat="45.43964571678647" lon="10.693271771450641"><ele>70.66666666666667</ele><time>2026-04-12T07:38:51Z</time></trkpt><trkpt lat="45.439689720631854" lon="10.693337564711287"><ele>70.33333333333334</ele><time>2026-04-12T07:38:52Z</time></trkpt><trkpt lat="45.43972198959649" lon="10.693428513900159"><ele>70.0</ele><time>2026-04-12T07:38:56Z</time></trkpt><trkpt lat="45.43976004915631" lon="10.693532828011756"><ele>69.66666666666667</ele><time>2026-04-12T07:38:59Z</time></trkpt><trkpt lat="45.43978297206512" lon="10.693670386380754"><ele>69.33333333333333</ele><time>2026-04-12T07:39:01Z</time></trkpt><trkpt lat="45.43975508821105" lon="10.693821412507813"><ele>69.0</ele><time>2026-04-12T07:39:03Z</time></trkpt><trkpt lat="45.4397309398003" lon="10.693916431625723"><ele>69.0</ele><time>2026-04-12T07:39:04Z</time></trkpt><trkpt lat="45.439701642005986" lon="10.694042506626738"><ele>69.0</ele><time>2026-04-12T07:39:05Z</time></trkpt><trkpt lat="45.43967073335737" lon="10.694175513556962"><ele>69.0</ele><time>2026-04-12T07:39:06Z</time></trkpt><trkpt lat="45.43963457646633" lon="10.694331104755179"><ele>69.0</ele><time>2026-04-12T07:39:07Z</time></trkpt><trkpt lat="45.4395938322726" lon="10.694506436257537"><ele>69.0</ele><time>2026-04-12T07:39:08Z</time></trkpt><trkpt lat="45.43955249262636" lon="10.69468433008276"><ele>69.0</ele><time>2026-04-12T07:39:09Z</time></trkpt><trkpt lat="45.43951453451057" lon="10.694847672581636"><ele>69.0</ele><time>2026-04-12T07:39:10Z</time></trkpt><trkpt lat="45.43947864841363" lon="10.694999290378556"><ele>69.0</ele><time>2026-04-12T07:39:11Z</time></trkpt><trkpt lat="45.43944578843629" lon="10.695138135389913"><ele>69.0</ele><time>2026-04-12T07:39:12Z</time></trkpt><trkpt lat="45.43941723085657" lon="10.69526503819176"><ele>69.0</ele><time>2026-04-12T07:39:13Z</time></trkpt><trkpt lat="45.43939448250286" lon="10.695387349425667"><ele>69.16666666666667</ele><time>2026-04-12T07:39:14Z</time></trkpt><trkpt lat="45.43939021797963" lon="10.695518748431189"><ele>69.33333333333333</ele><time>2026-04-12T07:39:15Z</time></trkpt><trkpt lat="45.439362851229035" lon="10.695640914734742"><ele>69.5</ele><time>2026-04-12T07:39:16Z</time></trkpt><trkpt lat="45.43934800553095" lon="10.695748023363176"><ele>69.66666666666666</ele><time>2026-04-12T07:39:17Z</time></trkpt><trkpt lat="45.43933927674742" lon="10.695851177671654"><ele>69.83333333333333</ele><time>2026-04-12T07:39:18Z</time></trkpt><trkpt lat="45.43935013058553" lon="10.69594486780135"><ele>70.0</ele><time>2026-04-12T07:39:19Z</time></trkpt><trkpt lat="45.43939270678158" lon="10.696102509529561"><ele>70.0</ele><time>2026-04-12T07:39:21Z</time></trkpt><trkpt lat="45.43946675093644" lon="10.696155505703983"><ele>70.0</ele><time>2026-04-12T07:39:22Z</time></trkpt><trkpt lat="45.43952698030018" lon="10.696198866542192"><ele>70.0</ele><time>2026-04-12T07:39:23Z</time></trkpt><trkpt lat="45.439592242589534" lon="10.696231542996571"><ele>70.0</ele><time>2026-04-12T07:39:24Z</time></trkpt><trkpt lat="45.439656350917446" lon="10.696266552990352"><ele>70.0</ele><time>2026-04-12T07:39:25Z</time></trkpt><trkpt lat="45.439721928931206" lon="10.696308756892115"><ele>70.0</ele><time>2026-04-12T07:39:26Z</time></trkpt><trkpt lat="45.43977962066683" lon="10.696345263109992"><ele>70.0</ele><time>2026-04-12T07:39:27Z</time></trkpt><trkpt lat="45.43984198067335" lon="10.696383850726306"><ele>69.5</ele><time>2026-04-12T07:39:28Z</time></trkpt><trkpt lat="45.43990272524791" lon="10.696422919861657"><ele>69.0</ele><time>2026-04-12T07:39:29Z</time></trkpt><trkpt lat="45.43997536804686" lon="10.696474281806763"><ele>68.5</ele><time>2026-04-12T07:39:30Z</time></trkpt><trkpt lat="45.44005676499259" lon="10.696532174948493"><ele>68.0</ele><time>2026-04-12T07:39:31Z</time></trkpt><trkpt lat="45.44014077695064" lon="10.696596721545411"><ele>67.5</ele><time>2026-04-12T07:39:32Z</time></trkpt><trkpt lat="45.44021703060232" lon="10.69664943827497"><ele>67.0</ele><time>2026-04-12T07:39:33Z</time></trkpt><trkpt lat="45.44029056183637" lon="10.696709320429541"><ele>67.0</ele><time>2026-04-12T07:39:34Z</time></trkpt><trkpt lat="45.44035627281254" lon="10.696764581325686"><ele>67.0</ele><time>2026-04-12T07:39:35Z</time></trkpt><trkpt lat="45.44041859832584" lon="10.696817306903311"><ele>67.0</ele><time>2026-04-12T07:39:36Z</time></trkpt><trkpt lat="45.44048215893924" lon="10.696879154971164"><ele>67.0</ele><time>2026-04-12T07:39:37Z</time></trkpt><trkpt lat="45.44054343807206" lon="10.69695052083112"><ele>67.0</ele><time>2026-04-12T07:39:38Z</time></trkpt><trkpt lat="45.440591720780674" lon="10.697031549760437"><ele>67.0</ele><time>2026-04-12T07:39:39Z</time></trkpt><trkpt lat="45.44063046368527" lon="10.697124318118377"><ele>66.71428571428572</ele><time>2026-04-12T07:39:40Z</time></trkpt><trkpt lat="45.44065776999547" lon="10.697220355838812"><ele>66.42857142857143</ele><time>2026-04-12T07:39:41Z</time></trkpt><trkpt lat="45.440672859363055" lon="10.69731932873558"><ele>66.14285714285714</ele><time>2026-04-12T07:39:42Z</time></trkpt><trkpt lat="45.44068117024827" lon="10.697426489734205"><ele>65.85714285714286</ele><time>2026-04-12T07:39:43Z</time></trkpt><trkpt lat="45.44068493168069" lon="10.697537668706003"><ele>65.57142857142857</ele><time>2026-04-12T07:39:44Z</time></trkpt><trkpt lat="45.44068456800006" lon="10.697648304937745"><ele>65.28571428571429</ele><time>2026-04-12T07:39:45Z</time></trkpt><trkpt lat="45.440683268416855" lon="10.697754003037467"><ele>65.0</ele><time>2026-04-12T07:39:46Z</time></trkpt><trkpt lat="45.44068545566914" lon="10.697854505190135"><ele>65.00000000000001</ele><time>2026-04-12T07:39:47Z</time></trkpt><trkpt lat="45.44068677326145" lon="10.697955065142452"><ele>65.0</ele><time>2026-04-12T07:39:48Z</time></trkpt><trkpt lat="45.44068765872216" lon="10.69805119976629"><ele>65.0</ele><time>2026-04-12T07:39:49Z</time></trkpt><trkpt lat="45.44068198945774" lon="10.698140896711172"><ele>65.0</ele><time>2026-04-12T07:39:50Z</time></trkpt><trkpt lat="45.440671039420046" lon="10.698230293733902"><ele>65.0</ele><time>2026-04-12T07:39:51Z</time></trkpt><trkpt lat="45.44064680139471" lon="10.698332890709953"><ele>65.00000000000001</ele><time>2026-04-12T07:39:52Z</time></trkpt><trkpt lat="45.440612993377194" lon="10.698432212918934"><ele>65.0</ele><time>2026-04-12T07:39:53Z</time></trkpt><trkpt lat="45.44055608422824" lon="10.698502336497773"><ele>65.0</ele><time>2026-04-12T07:39:54Z</time></trkpt><trkpt lat="45.440512201194274" lon="10.698582570847618"><ele>65.0</ele><time>2026-04-12T07:39:55Z</time></trkpt><trkpt lat="45.44048300883371" lon="10.69866368575303"><ele>65.0</ele><time>2026-04-12T07:39:56Z</time></trkpt><trkpt lat="45.440386519609575" lon="10.698773239355502"><ele>65.0</ele><time>2026-04-12T07:39:58Z</time></trkpt><trkpt lat="45.44031112949991" lon="10.69880957692868"><ele>65.0</ele><time>2026-04-12T07:39:59Z</time></trkpt><trkpt lat="45.4402252542892" lon="10.69884746820044"><ele>65.0</ele><time>2026-04-12T07:40:00Z</time></trkpt><trkpt lat="45.44014974848265" lon="10.69888804029297"><ele>65.0</ele><time>2026-04-12T07:40:01Z</time></trkpt><trkpt lat="45.44009637027911" lon="10.698962638741198"><ele>65.0</ele><time>2026-04-12T07:40:02Z</time></trkpt><trkpt lat="45.44005940204016" lon="10.69905423180948"><ele>65.0</ele><time>2026-04-12T07:40:03Z</time></trkpt><trkpt lat="45.440063822022466" lon="10.699157520446397"><ele>65.0</ele><time>2026-04-12T07:40:04Z</time></trkpt><trkpt lat="45.44013234302425" lon="10.699292320740842"><ele>65.0</ele><time>2026-04-12T07:40:06Z</time></trkpt><trkpt lat="45.44020154172898" lon="10.69938664263842"><ele>65.0</ele><time>2026-04-12T07:40:08Z</time></trkpt><trkpt lat="45.44024795296221" lon="10.699486974960156"><ele>65.66666666666667</ele><time>2026-04-12T07:40:10Z</time></trkpt><trkpt lat="45.44025985202692" lon="10.699665323889732"><ele>66.33333333333334</ele><time>2026-04-12T07:40:12Z</time></trkpt><trkpt lat="45.440263191654545" lon="10.699779016015837"><ele>67.0</ele><time>2026-04-12T07:40:13Z</time></trkpt><trkpt lat="45.44026972122323" lon="10.699875154824378"><ele>67.66666666666667</ele><time>2026-04-12T07:40:14Z</time></trkpt><trkpt lat="45.440270298169594" lon="10.699972092250906"><ele>68.33333333333333</ele><time>2026-04-12T07:40:15Z</time></trkpt><trkpt lat="45.44029383984275" lon="10.700058688667527"><ele>69.0</ele><time>2026-04-12T07:40:16Z</time></trkpt><trkpt lat="45.440364516584246" lon="10.700185813794567"><ele>69.33333333333333</ele><time>2026-04-12T07:40:18Z</time></trkpt><trkpt lat="45.44043786350692" lon="10.700286476417634"><ele>69.66666666666667</ele><time>2026-04-12T07:40:20Z</time></trkpt><trkpt lat="45.440505949393334" lon="10.700374030102237"><ele>70.0</ele><time>2026-04-12T07:40:21.999Z</time></trkpt><trkpt lat="45.44045391295908" lon="10.7003149824599"><ele>70.33333333333334</ele><time>2026-04-12T07:46:38Z</time></trkpt><trkpt lat="45.4403827721822" lon="10.700273658925886"><ele>70.66666666666667</ele><time>2026-04-12T07:46:50Z</time></trkpt><trkpt lat="45.44044034629487" lon="10.700328403997164"><ele>71.0</ele><time>2026-04-12T07:46:55Z</time></trkpt><trkpt lat="45.44049574764724" lon="10.700383945766871"><ele>71.0</ele><time>2026-04-12T07:47:02.001Z</time></trkpt><trkpt lat="45.440531311840374" lon="10.700488660703607"><ele>71.0</ele><time>2026-04-12T07:48:21Z</time></trkpt><trkpt lat="45.44063590435703" lon="10.7005984748048"><ele>71.0</ele><time>2026-04-12T07:48:28Z</time></trkpt><trkpt lat="45.440698152385565" lon="10.70067202652696"><ele>71.0</ele><time>2026-04-12T07:48:29Z</time></trkpt><trkpt lat="45.44074619071372" lon="10.700738724133537"><ele>71.0</ele><time>2026-04-12T07:48:30Z</time></trkpt><trkpt lat="45.44081046257556" lon="10.700802966397058"><ele>71.0</ele><time>2026-04-12T07:48:31Z</time></trkpt><trkpt lat="45.440860118674685" lon="10.70087652973384"><ele>71.0</ele><time>2026-04-12T07:48:32Z</time></trkpt><trkpt lat="45.440956920536905" lon="10.700963144986886"><ele>71.0</ele><time>2026-04-12T07:48:34Z</time></trkpt><trkpt lat="45.44102331244559" lon="10.70099991393253"><ele>71.0</ele><time>2026-04-12T07:48:36Z</time></trkpt><trkpt lat="45.44110586523662" lon="10.700820498186728"><ele>71.0</ele><time>2026-04-12T07:48:39Z</time></trkpt><trkpt lat="45.4410814197317" lon="10.70065654323362"><ele>71.0</ele><time>2026-04-12T07:48:41Z</time></trkpt><trkpt lat="45.441048296219066" lon="10.700530228066393"><ele>71.0</ele><time>2026-04-12T07:48:43Z</time></trkpt><trkpt lat="45.44094736150419" lon="10.700491320450203"><ele>71.0</ele><time>2026-04-12T07:48:45Z</time></trkpt><trkpt lat="45.44088910498673" lon="10.700439408828377"><ele>71.0</ele><time>2026-04-12T07:48:47Z</time></trkpt><trkpt lat="45.44074756047589" lon="10.700424200504473"><ele>71.0</ele><time>2026-04-12T07:48:49Z</time></trkpt><trkpt lat="45.440617619044204" lon="10.700386450250436"><ele>71.0</ele><time>2026-04-12T07:48:57Z</time></trkpt><trkpt lat="45.44054427045181" lon="10.700320836246021"><ele>71.0</ele><time>2026-04-12T07:48:58Z</time></trkpt><trkpt lat="45.44045639778251" lon="10.70019877822457"><ele>71.0</ele><time>2026-04-12T07:49:00Z</time></trkpt><trkpt lat="45.44038651453509" lon="10.700093233908367"><ele>71.0</ele><time>2026-04-12T07:49:02Z</time></trkpt><trkpt lat="45.44033016142754" lon="10.700013431039697"><ele>71.0</ele><time>2026-04-12T07:49:04Z</time></trkpt><trkpt lat="45.440216607515104" lon="10.700074970917061"><ele>71.0</ele><time>2026-04-12T07:49:07Z</time></trkpt><trkpt lat="45.440147114810756" lon="10.700206479932774"><ele>71.0</ele><time>2026-04-12T07:49:09Z</time></trkpt><trkpt lat="45.44007034612781" lon="10.700341392197076"><ele>71.0</ele><time>2026-04-12T07:49:11Z</time></trkpt><trkpt lat="45.44001676386474" lon="10.700437859684962"><ele>71.0</ele><time>2026-04-12T07:49:13Z</time></trkpt><trkpt lat="45.439955484721985" lon="10.700479528746614"><ele>71.0</ele><time>2026-04-12T07:49:16Z</time></trkpt><trkpt lat="45.4400048299829" lon="10.70042212714884"><ele>71.0</ele><time>2026-04-12T07:49:57Z</time></trkpt><trkpt lat="45.440052139115814" lon="10.700352985160848"><ele>71.0</ele><time>2026-04-12T07:50:03Z</time></trkpt><trkpt lat="45.44012094427163" lon="10.700416392100562"><ele>71.0</ele><time>2026-04-12T07:50:04Z</time></trkpt><trkpt lat="45.44018736187516" lon="10.700365361690357"><ele>71.0</ele><time>2026-04-12T07:50:09Z</time></trkpt><trkpt lat="45.44024257541947" lon="10.700319992557645"><ele>71.0</ele><time>2026-04-12T07:50:14Z</time></trkpt><trkpt lat="45.44031044603556" lon="10.700320134281151"><ele>71.0</ele><time>2026-04-12T07:50:19Z</time></trkpt><trkpt lat="45.4403621646969" lon="10.70038316441434"><ele>71.0</ele><time>2026-04-12T07:50:26Z</time></trkpt><trkpt lat="45.440377699654384" lon="10.700291708084592"><ele>71.0</ele><time>2026-04-12T07:50:34Z</time></trkpt><trkpt lat="45.4404392154298" lon="10.70033345055118"><ele>71.0</ele><time>2026-04-12T07:52:04Z</time></trkpt></trkseg><trkseg><trkpt lat="45.440359084639574" lon="10.700376600927877"><ele>71.0</ele><time>2026-04-12T08:25:48.001Z</time></trkpt><trkpt lat="45.440244359782454" lon="10.700301478816026"><ele>71.0</ele><time>2026-04-12T08:26:15.001Z</time></trkpt><trkpt lat="45.44018832852527" lon="10.700367757515853"><ele>71.0</ele><time>2026-04-12T08:26:22.001Z</time></trkpt><trkpt lat="45.44012745209712" lon="10.70041215712415"><ele>71.0</ele><time>2026-04-12T08:26:28.001Z</time></trkpt><trkpt lat="45.44006703938643" lon="10.70044116000229"><ele>71.0</ele><time>2026-04-12T08:26:35.002Z</time></trkpt><trkpt lat="45.43999952564749" lon="10.70047897527862"><ele>71.0</ele><time>2026-04-12T08:26:40.002Z</time></trkpt><trkpt lat="45.43993368683088" lon="10.700488659856354"><ele>71.0</ele><time>2026-04-12T08:26:45.002Z</time></trkpt><trkpt lat="45.439899053587794" lon="10.700551842965929"><ele>71.0</ele><time>2026-04-12T08:31:10Z</time></trkpt><trkpt lat="45.439850808210544" lon="10.70061392819697"><ele>71.0</ele><time>2026-04-12T08:31:12Z</time></trkpt><trkpt lat="45.439792832832886" lon="10.700688855694505"><ele>71.0</ele><time>2026-04-12T08:31:14Z</time></trkpt><trkpt lat="45.43973210181031" lon="10.700761989751012"><ele>71.0</ele><time>2026-04-12T08:31:17Z</time></trkpt><trkpt lat="45.439704189585754" lon="10.700842459193858"><ele>71.0</ele><time>2026-04-12T08:31:21Z</time></trkpt><trkpt lat="45.439770293416984" lon="10.700780549613546"><ele>71.0</ele><time>2026-04-12T08:31:24Z</time></trkpt><trkpt lat="45.43982221220312" lon="10.700685346646942"><ele>71.0</ele><time>2026-04-12T08:31:28Z</time></trkpt><trkpt lat="45.43987580747602" lon="10.70061494178114"><ele>71.0</ele><time>2026-04-12T08:31:31Z</time></trkpt><trkpt lat="45.43993140894743" lon="10.70054354562905"><ele>71.0</ele><time>2026-04-12T08:31:34Z</time></trkpt><trkpt lat="45.4399964874862" lon="10.700481778090479"><ele>71.0</ele><time>2026-04-12T08:33:09.001Z</time></trkpt><trkpt lat="45.44005050000156" lon="10.700388765431882"><ele>71.0</ele><time>2026-04-12T08:33:11.001Z</time></trkpt><trkpt lat="45.44012793687085" lon="10.700289622814694"><ele>71.0</ele><time>2026-04-12T08:33:13.001Z</time></trkpt><trkpt lat="45.440195333866335" lon="10.700207674752361"><ele>71.0</ele><time>2026-04-12T08:33:14.999Z</time></trkpt><trkpt lat="45.44027608972012" lon="10.700155917089582"><ele>71.0</ele><time>2026-04-12T08:33:18.999Z</time></trkpt><trkpt lat="45.44035428396102" lon="10.700172617452028"><ele>71.0</ele><time>2026-04-12T08:33:32.999Z</time></trkpt><trkpt lat="45.44041434045221" lon="10.70023824746621"><ele>71.0</ele><time>2026-04-12T08:33:36.999Z</time></trkpt><trkpt lat="45.440468245407665" lon="10.700301031333062"><ele>71.0</ele><time>2026-04-12T08:33:40Z</time></trkpt><trkpt lat="45.440549010327814" lon="10.700391779121817"><ele>71.0</ele><time>2026-04-12T08:33:42Z</time></trkpt><trkpt lat="45.44064699280232" lon="10.700500857761133"><ele>71.0</ele><time>2026-04-12T08:33:44Z</time></trkpt><trkpt lat="45.44069968607031" lon="10.700561511555943"><ele>71.0</ele><time>2026-04-12T08:33:45Z</time></trkpt><trkpt lat="45.44075851304006" lon="10.700624556786362"><ele>71.0</ele><time>2026-04-12T08:33:46Z</time></trkpt><trkpt lat="45.440819316739784" lon="10.700684639029456"><ele>71.0</ele><time>2026-04-12T08:33:47Z</time></trkpt><trkpt lat="45.44088345789504" lon="10.700745200682254"><ele>71.0</ele><time>2026-04-12T08:33:48Z</time></trkpt><trkpt lat="45.44094745070081" lon="10.700809928247057"><ele>71.0</ele><time>2026-04-12T08:33:49Z</time></trkpt><trkpt lat="45.441008987627555" lon="10.700878078647825"><ele>71.0</ele><time>2026-04-12T08:33:50Z</time></trkpt><trkpt lat="45.441070576067574" lon="10.700951402878655"><ele>71.0</ele><time>2026-04-12T08:33:51Z</time></trkpt><trkpt lat="45.441133908861175" lon="10.701024431805104"><ele>71.0</ele><time>2026-04-12T08:33:52Z</time></trkpt><trkpt lat="45.44119949069025" lon="10.70109485035381"><ele>71.0</ele><time>2026-04-12T08:33:53Z</time></trkpt><trkpt lat="45.44126595519195" lon="10.701166062372634"><ele>71.0</ele><time>2026-04-12T08:33:54Z</time></trkpt><trkpt lat="45.441326049806904" lon="10.701230854016192"><ele>71.0</ele><time>2026-04-12T08:33:55Z</time></trkpt><trkpt lat="45.441383731891484" lon="10.7012996516993"><ele>71.0</ele><time>2026-04-12T08:33:56Z</time></trkpt><trkpt lat="45.44143993320692" lon="10.701366383925098"><ele>70.83333333333334</ele><time>2026-04-12T08:33:57Z</time></trkpt><trkpt lat="45.44150160187114" lon="10.701437990779171"><ele>70.66666666666667</ele><time>2026-04-12T08:33:58Z</time></trkpt><trkpt lat="45.44156513310264" lon="10.701519920702516"><ele>70.5</ele><time>2026-04-12T08:33:59Z</time></trkpt><trkpt lat="45.44162497055701" lon="10.70161351763335"><ele>70.33333333333333</ele><time>2026-04-12T08:34:00Z</time></trkpt><trkpt lat="45.44167206242678" lon="10.701712233325052"><ele>70.16666666666666</ele><time>2026-04-12T08:34:01Z</time></trkpt><trkpt lat="45.44171067837997" lon="10.70182173098538"><ele>70.0</ele><time>2026-04-12T08:34:02Z</time></trkpt><trkpt lat="45.44174998506637" lon="10.701935915587278"><ele>69.8</ele><time>2026-04-12T08:34:03Z</time></trkpt><trkpt lat="45.441777404349686" lon="10.70205220283028"><ele>69.6</ele><time>2026-04-12T08:34:04Z</time></trkpt><trkpt lat="45.441805816672584" lon="10.702173466211818"><ele>69.4</ele><time>2026-04-12T08:34:05Z</time></trkpt><trkpt lat="45.44182622957871" lon="10.70230106629563"><ele>69.2</ele><time>2026-04-12T08:34:06Z</time></trkpt><trkpt lat="45.441850545680936" lon="10.702439402796594"><ele>69.0</ele><time>2026-04-12T08:34:07Z</time></trkpt><trkpt lat="45.44187101757572" lon="10.70256536857963"><ele>69.0</ele><time>2026-04-12T08:34:08Z</time></trkpt><trkpt lat="45.44188225346041" lon="10.702691765774716"><ele>69.0</ele><time>2026-04-12T08:34:09Z</time></trkpt><trkpt lat="45.44189277360999" lon="10.702820415547263"><ele>69.0</ele><time>2026-04-12T08:34:10Z</time></trkpt><trkpt lat="45.44190187512664" lon="10.702960144662562"><ele>69.0</ele><time>2026-04-12T08:34:11Z</time></trkpt><trkpt lat="45.44191793012134" lon="10.703097324941554"><ele>69.0</ele><time>2026-04-12T08:34:12Z</time></trkpt><trkpt lat="45.44193961724704" lon="10.70323206671769"><ele>69.0</ele><time>2026-04-12T08:34:13Z</time></trkpt><trkpt lat="45.441955290356695" lon="10.70336576059431"><ele>69.0</ele><time>2026-04-12T08:34:14Z</time></trkpt><trkpt lat="45.44196918327886" lon="10.703502605089549"><ele>69.0</ele><time>2026-04-12T08:34:15Z</time></trkpt><trkpt lat="45.44198217772827" lon="10.7036261041041"><ele>69.0</ele><time>2026-04-12T08:34:16Z</time></trkpt><trkpt lat="45.44199484721586" lon="10.703730568573972"><ele>69.0</ele><time>2026-04-12T08:34:17Z</time></trkpt><trkpt lat="45.441982834318765" lon="10.703822737792523"><ele>69.0</ele><time>2026-04-12T08:34:18Z</time></trkpt><trkpt lat="45.44212253114042" lon="10.703866627320755"><ele>69.8</ele><time>2026-04-12T08:34:20Z</time></trkpt><trkpt lat="45.44218844636" lon="10.703830866889673"><ele>70.60000000000001</ele><time>2026-04-12T08:34:21Z</time></trkpt><trkpt lat="45.44225085566401" lon="10.7037753869097"><ele>71.4</ele><time>2026-04-12T08:34:22Z</time></trkpt><trkpt lat="45.442397225515265" lon="10.703699396767218"><ele>72.2</ele><time>2026-04-12T08:34:24Z</time></trkpt><trkpt lat="45.44248708216926" lon="10.703689150667095"><ele>73.0</ele><time>2026-04-12T08:34:25Z</time></trkpt><trkpt lat="45.442585860562154" lon="10.703713233589696"><ele>73.0</ele><time>2026-04-12T08:34:26Z</time></trkpt><trkpt lat="45.44267848798249" lon="10.703776787255471"><ele>73.0</ele><time>2026-04-12T08:34:27Z</time></trkpt><trkpt lat="45.44275613862035" lon="10.703883269917386"><ele>73.0</ele><time>2026-04-12T08:34:28Z</time></trkpt><trkpt lat="45.442817614628176" lon="10.70401533836297"><ele>73.0</ele><time>2026-04-12T08:34:29Z</time></trkpt><trkpt lat="45.442848983425385" lon="10.704182156890463"><ele>73.0</ele><time>2026-04-12T08:34:30Z</time></trkpt><trkpt lat="45.44291170219475" lon="10.704335603640544"><ele>74.75</ele><time>2026-04-12T08:34:31Z</time></trkpt><trkpt lat="45.442965860399525" lon="10.704498760746949"><ele>76.5</ele><time>2026-04-12T08:34:32Z</time></trkpt><trkpt lat="45.44302455116862" lon="10.704654669695197"><ele>78.25</ele><time>2026-04-12T08:34:33Z</time></trkpt><trkpt lat="45.44308469190358" lon="10.704800671642982"><ele>80.0</ele><time>2026-04-12T08:34:34Z</time></trkpt><trkpt lat="45.443153154361525" lon="10.704944212029611"><ele>80.0</ele><time>2026-04-12T08:34:35Z</time></trkpt><trkpt lat="45.443232912894096" lon="10.705082451070947"><ele>80.0</ele><time>2026-04-12T08:34:36Z</time></trkpt><trkpt lat="45.44331731520999" lon="10.70521049479311"><ele>80.0</ele><time>2026-04-12T08:34:37Z</time></trkpt><trkpt lat="45.44340443793907" lon="10.705340169272878"><ele>80.0</ele><time>2026-04-12T08:34:38Z</time></trkpt><trkpt lat="45.44349321985218" lon="10.705469853671767"><ele>80.5</ele><time>2026-04-12T08:34:39Z</time></trkpt><trkpt lat="45.44359585602634" lon="10.705585627008125"><ele>81.0</ele><time>2026-04-12T08:34:40Z</time></trkpt><trkpt lat="45.44370970701928" lon="10.705687863431963"><ele>81.5</ele><time>2026-04-12T08:34:41Z</time></trkpt><trkpt lat="45.44381826014367" lon="10.705810418019954"><ele>82.0</ele><time>2026-04-12T08:34:42Z</time></trkpt><trkpt lat="45.44392233702818" lon="10.705926222248117"><ele>82.0</ele><time>2026-04-12T08:34:43Z</time></trkpt><trkpt lat="45.444027188617504" lon="10.706052077142916"><ele>82.0</ele><time>2026-04-12T08:34:44Z</time></trkpt><trkpt lat="45.44413690198735" lon="10.70616563333948"><ele>82.0</ele><time>2026-04-12T08:34:45Z</time></trkpt><trkpt lat="45.444243504839086" lon="10.706284630667497"><ele>82.0</ele><time>2026-04-12T08:34:46Z</time></trkpt><trkpt lat="45.44435059286835" lon="10.706407347369968"><ele>82.5</ele><time>2026-04-12T08:34:47Z</time></trkpt><trkpt lat="45.44445819605229" lon="10.706526051074981"><ele>83.0</ele><time>2026-04-12T08:34:48Z</time></trkpt><trkpt lat="45.44456916268359" lon="10.706661046715647"><ele>83.5</ele><time>2026-04-12T08:34:49Z</time></trkpt><trkpt lat="45.444700738748544" lon="10.706806602755893"><ele>84.0</ele><time>2026-04-12T08:34:50Z</time></trkpt><trkpt lat="45.44484912402683" lon="10.706972217881507"><ele>84.33333333333333</ele><time>2026-04-12T08:34:51Z</time></trkpt><trkpt lat="45.44500188948337" lon="10.707148936596274"><ele>84.66666666666666</ele><time>2026-04-12T08:34:52Z</time></trkpt><trkpt lat="45.44513930891991" lon="10.707328210387558"><ele>85.0</ele><time>2026-04-12T08:34:53Z</time></trkpt><trkpt lat="45.44525079796004" lon="10.707501679480444"><ele>85.0</ele><time>2026-04-12T08:34:54Z</time></trkpt><trkpt lat="45.445340265117665" lon="10.707669876191337"><ele>85.0</ele><time>2026-04-12T08:34:55Z</time></trkpt><trkpt lat="45.44542835868277" lon="10.707813516984722"><ele>85.0</ele><time>2026-04-12T08:34:56Z</time></trkpt><trkpt lat="45.44547769272782" lon="10.707974976195791"><ele>85.0</ele><time>2026-04-12T08:34:57Z</time></trkpt><trkpt lat="45.445501684509715" lon="10.708140706388077"><ele>84.75</ele><time>2026-04-12T08:34:58Z</time></trkpt><trkpt lat="45.44549206213515" lon="10.708304355779893"><ele>84.5</ele><time>2026-04-12T08:34:59Z</time></trkpt><trkpt lat="45.44549907486587" lon="10.708450638826271"><ele>84.25</ele><time>2026-04-12T08:35:00Z</time></trkpt><trkpt lat="45.44556643082734" lon="10.708572492609715"><ele>84.0</ele><time>2026-04-12T08:35:01Z</time></trkpt><trkpt lat="45.44568629599552" lon="10.708656959894494"><ele>85.0</ele><time>2026-04-12T08:35:02Z</time></trkpt><trkpt lat="45.445829012609174" lon="10.708744821913493"><ele>86.0</ele><time>2026-04-12T08:35:03Z</time></trkpt><trkpt lat="45.445944535417915" lon="10.70889565949837"><ele>87.0</ele><time>2026-04-12T08:35:04Z</time></trkpt><trkpt lat="45.446050385166146" lon="10.709108486852543"><ele>87.0</ele><time>2026-04-12T08:35:05Z</time></trkpt><trkpt lat="45.446151724600625" lon="10.709337026277796"><ele>87.0</ele><time>2026-04-12T08:35:06Z</time></trkpt><trkpt lat="45.44626026495616" lon="10.70955458537692"><ele>87.0</ele><time>2026-04-12T08:35:07Z</time></trkpt><trkpt lat="45.446372122827306" lon="10.709750569465083"><ele>87.0</ele><time>2026-04-12T08:35:08Z</time></trkpt><trkpt lat="45.44648799984282" lon="10.709932326157867"><ele>87.0</ele><time>2026-04-12T08:35:09Z</time></trkpt><trkpt lat="45.44660886093184" lon="10.710103683118241"><ele>87.0</ele><time>2026-04-12T08:35:10Z</time></trkpt><trkpt lat="45.44673509615163" lon="10.710257976070592"><ele>87.0</ele><time>2026-04-12T08:35:11Z</time></trkpt><trkpt lat="45.44687750513079" lon="10.710381199816869"><ele>87.0</ele><time>2026-04-12T08:35:12Z</time></trkpt><trkpt lat="45.44702721751731" lon="10.710492061743219"><ele>87.0</ele><time>2026-04-12T08:35:13Z</time></trkpt><trkpt lat="45.44717623802204" lon="10.710587200844618"><ele>87.0</ele><time>2026-04-12T08:35:14Z</time></trkpt><trkpt lat="45.447325746392906" lon="10.710682332507615"><ele>87.0</ele><time>2026-04-12T08:35:15Z</time></trkpt><trkpt lat="45.447470951201275" lon="10.710769424074277"><ele>87.0</ele><time>2026-04-12T08:35:16Z</time></trkpt><trkpt lat="45.44762473075922" lon="10.710853875318442"><ele>87.0</ele><time>2026-04-12T08:35:17Z</time></trkpt><trkpt lat="45.447776623785494" lon="10.71094270686721"><ele>87.0</ele><time>2026-04-12T08:35:18Z</time></trkpt><trkpt lat="45.44792673784708" lon="10.711039411297811"><ele>87.0</ele><time>2026-04-12T08:35:19Z</time></trkpt><trkpt lat="45.4480758498411" lon="10.711139008038563"><ele>88.33333333333333</ele><time>2026-04-12T08:35:20Z</time></trkpt><trkpt lat="45.44822574284569" lon="10.711245501121692"><ele>89.66666666666666</ele><time>2026-04-12T08:35:20.998Z</time></trkpt><trkpt lat="45.448378055430865" lon="10.711347927050257"><ele>91.0</ele><time>2026-04-12T08:35:21.998Z</time></trkpt><trkpt lat="45.44852401554655" lon="10.71144352256256"><ele>91.0</ele><time>2026-04-12T08:35:22.998Z</time></trkpt><trkpt lat="45.448665068386305" lon="10.711540652393184"><ele>91.0</ele><time>2026-04-12T08:35:23.998Z</time></trkpt><trkpt lat="45.44879559883173" lon="10.711632772145602"><ele>91.0</ele><time>2026-04-12T08:35:24.998Z</time></trkpt><trkpt lat="45.44892632899022" lon="10.711721275255156"><ele>91.0</ele><time>2026-04-12T08:35:25.998Z</time></trkpt><trkpt lat="45.44905452470252" lon="10.711805614016859"><ele>90.75</ele><time>2026-04-12T08:35:26.998Z</time></trkpt><trkpt lat="45.44918522960482" lon="10.711893773751584"><ele>90.5</ele><time>2026-04-12T08:35:27.998Z</time></trkpt><trkpt lat="45.449313513585786" lon="10.711983460161411"><ele>90.25</ele><time>2026-04-12T08:35:28.999Z</time></trkpt><trkpt lat="45.44944304074941" lon="10.712069991318492"><ele>90.0</ele><time>2026-04-12T08:35:29.999Z</time></trkpt><trkpt lat="45.44956849715603" lon="10.712152918198548"><ele>89.25</ele><time>2026-04-12T08:35:30.999Z</time></trkpt><trkpt lat="45.449695868895176" lon="10.71223945565885"><ele>88.5</ele><time>2026-04-12T08:35:31.999Z</time></trkpt><trkpt lat="45.44982497402304" lon="10.712327544420651"><ele>87.75</ele><time>2026-04-12T08:35:32.999Z</time></trkpt><trkpt lat="45.44994687815277" lon="10.712415802488216"><ele>87.0</ele><time>2026-04-12T08:35:33.999Z</time></trkpt><trkpt lat="45.45006252106898" lon="10.712500029309808"><ele>87.0</ele><time>2026-04-12T08:35:34.999Z</time></trkpt><trkpt lat="45.45018274167868" lon="10.712579574989197"><ele>87.0</ele><time>2026-04-12T08:35:35.999Z</time></trkpt><trkpt lat="45.45030160944673" lon="10.712657156668254"><ele>87.0</ele><time>2026-04-12T08:35:36.999Z</time></trkpt><trkpt lat="45.4504162648206" lon="10.712730713318967"><ele>87.0</ele><time>2026-04-12T08:35:37.999Z</time></trkpt><trkpt lat="45.450518603676876" lon="10.712809381740012"><ele>87.0</ele><time>2026-04-12T08:35:38.999Z</time></trkpt><trkpt lat="45.450595769919815" lon="10.712881446628884"><ele>87.0</ele><time>2026-04-12T08:35:39.999Z</time></trkpt><trkpt lat="45.45065871156557" lon="10.712970953384291"><ele>87.0</ele><time>2026-04-12T08:35:41.999Z</time></trkpt><trkpt lat="45.45069171688939" lon="10.713084413116524"><ele>87.0</ele><time>2026-04-12T08:35:46.999Z</time></trkpt><trkpt lat="45.4507489621521" lon="10.713259767989385"><ele>87.0</ele><time>2026-04-12T08:35:48.999Z</time></trkpt><trkpt lat="45.450813215625956" lon="10.7133497893111"><ele>87.0</ele><time>2026-04-12T08:35:49.999Z</time></trkpt><trkpt lat="45.45089711432165" lon="10.7134009271882"><ele>87.0</ele><time>2026-04-12T08:35:50.999Z</time></trkpt><trkpt lat="45.45100389714564" lon="10.713405829020214"><ele>87.0</ele><time>2026-04-12T08:35:51.999Z</time></trkpt><trkpt lat="45.45110402547496" lon="10.713374757334565"><ele>87.0</ele><time>2026-04-12T08:35:52.999Z</time></trkpt><trkpt lat="45.45119832327637" lon="10.71336602080174"><ele>87.0</ele><time>2026-04-12T08:35:54Z</time></trkpt><trkpt lat="45.45129251566673" lon="10.713402536796728"><ele>87.8</ele><time>2026-04-12T08:35:55Z</time></trkpt><trkpt lat="45.45137603728754" lon="10.713463388947511"><ele>88.6</ele><time>2026-04-12T08:35:56Z</time></trkpt><trkpt lat="45.45145764884415" lon="10.713539582444705"><ele>89.39999999999999</ele><time>2026-04-12T08:35:57Z</time></trkpt><trkpt lat="45.45154372309036" lon="10.713622258650528"><ele>90.19999999999999</ele><time>2026-04-12T08:35:58Z</time></trkpt><trkpt lat="45.45163351375132" lon="10.713700179654497"><ele>91.0</ele><time>2026-04-12T08:35:59Z</time></trkpt><trkpt lat="45.4517280479999" lon="10.713779716867755"><ele>91.0</ele><time>2026-04-12T08:36:00Z</time></trkpt><trkpt lat="45.45182463651335" lon="10.713864239611617"><ele>91.0</ele><time>2026-04-12T08:36:01Z</time></trkpt><trkpt lat="45.45191844048353" lon="10.713950773711911"><ele>91.0</ele><time>2026-04-12T08:36:02Z</time></trkpt><trkpt lat="45.45201492331466" lon="10.714037401186653"><ele>91.0</ele><time>2026-04-12T08:36:03Z</time></trkpt><trkpt lat="45.452118039080645" lon="10.714124432954748"><ele>91.0</ele><time>2026-04-12T08:36:04Z</time></trkpt><trkpt lat="45.45221765555397" lon="10.714202443661305"><ele>91.0</ele><time>2026-04-12T08:36:05Z</time></trkpt><trkpt lat="45.45230996384526" lon="10.7142701162956"><ele>91.0</ele><time>2026-04-12T08:36:06Z</time></trkpt><trkpt lat="45.45240221438069" lon="10.714332770464265"><ele>91.0</ele><time>2026-04-12T08:36:07Z</time></trkpt><trkpt lat="45.452505089162855" lon="10.714395779811394"><ele>91.0</ele><time>2026-04-12T08:36:08Z</time></trkpt><trkpt lat="45.45262238316023" lon="10.714450171033"><ele>91.0</ele><time>2026-04-12T08:36:09Z</time></trkpt><trkpt lat="45.45274883343872" lon="10.714502402912593"><ele>91.0</ele><time>2026-04-12T08:36:10Z</time></trkpt><trkpt lat="45.45287499867534" lon="10.714550705809435"><ele>91.0</ele><time>2026-04-12T08:36:11Z</time></trkpt><trkpt lat="45.452993877123035" lon="10.714596775768486"><ele>91.0</ele><time>2026-04-12T08:36:12Z</time></trkpt><trkpt lat="45.453105687087984" lon="10.71463796465987"><ele>91.0</ele><time>2026-04-12T08:36:13Z</time></trkpt><trkpt lat="45.453207644354" lon="10.714668546597226"><ele>91.0</ele><time>2026-04-12T08:36:14Z</time></trkpt><trkpt lat="45.45330532472472" lon="10.714700654878119"><ele>91.0</ele><time>2026-04-12T08:36:15Z</time></trkpt><trkpt lat="45.45340271293608" lon="10.714733499668062"><ele>91.0</ele><time>2026-04-12T08:36:16Z</time></trkpt><trkpt lat="45.45350130910175" lon="10.714761041912729"><ele>91.0</ele><time>2026-04-12T08:36:17Z</time></trkpt><trkpt lat="45.45359992612796" lon="10.714789616782776"><ele>91.0</ele><time>2026-04-12T08:36:18Z</time></trkpt><trkpt lat="45.45369613725012" lon="10.714821232509268"><ele>91.0</ele><time>2026-04-12T08:36:19Z</time></trkpt><trkpt lat="45.453806018984025" lon="10.714863962835974"><ele>91.0</ele><time>2026-04-12T08:36:20Z</time></trkpt><trkpt lat="45.45392672381075" lon="10.714907661463315"><ele>91.0</ele><time>2026-04-12T08:36:21Z</time></trkpt><trkpt lat="45.45406116114594" lon="10.714954235766806"><ele>90.5</ele><time>2026-04-12T08:36:22Z</time></trkpt><trkpt lat="45.45419910897995" lon="10.715007181936205"><ele>90.0</ele><time>2026-04-12T08:36:23Z</time></trkpt><trkpt lat="45.45434047837019" lon="10.7150718060745"><ele>89.5</ele><time>2026-04-12T08:36:24Z</time></trkpt><trkpt lat="45.45448743735361" lon="10.715131437541041"><ele>89.0</ele><time>2026-04-12T08:36:25Z</time></trkpt><trkpt lat="45.45464013482816" lon="10.715208195931442"><ele>87.66666666666667</ele><time>2026-04-12T08:36:26Z</time></trkpt><trkpt lat="45.4547995925752" lon="10.715280964601352"><ele>86.33333333333333</ele><time>2026-04-12T08:36:27Z</time></trkpt><trkpt lat="45.4549711646734" lon="10.715341450551414"><ele>85.0</ele><time>2026-04-12T08:36:28Z</time></trkpt><trkpt lat="45.4551423995961" lon="10.715402075719485"><ele>85.0</ele><time>2026-04-12T08:36:29Z</time></trkpt><trkpt lat="45.45530999666164" lon="10.715470958925238"><ele>85.0</ele><time>2026-04-12T08:36:30Z</time></trkpt><trkpt lat="45.455484525757875" lon="10.71554114285859"><ele>85.0</ele><time>2026-04-12T08:36:31Z</time></trkpt><trkpt lat="45.455648208036386" lon="10.715604513709776"><ele>84.0</ele><time>2026-04-12T08:36:32Z</time></trkpt><trkpt lat="45.45580501211659" lon="10.715664560378473"><ele>83.0</ele><time>2026-04-12T08:36:33Z</time></trkpt><trkpt lat="45.455952433263676" lon="10.71572033919519"><ele>82.0</ele><time>2026-04-12T08:36:34Z</time></trkpt><trkpt lat="45.456092305702626" lon="10.715776741372332"><ele>82.0</ele><time>2026-04-12T08:36:35Z</time></trkpt><trkpt lat="45.45622764335008" lon="10.715833197746337"><ele>82.0</ele><time>2026-04-12T08:36:36Z</time></trkpt><trkpt lat="45.45636206497412" lon="10.71588392525554"><ele>82.0</ele><time>2026-04-12T08:36:37Z</time></trkpt><trkpt lat="45.45650753136059" lon="10.715933370006796"><ele>82.0</ele><time>2026-04-12T08:36:38Z</time></trkpt><trkpt lat="45.45665568897398" lon="10.715974857296965"><ele>83.0</ele><time>2026-04-12T08:36:39Z</time></trkpt><trkpt lat="45.45680731205703" lon="10.716019170483206"><ele>84.0</ele><time>2026-04-12T08:36:40Z</time></trkpt><trkpt lat="45.45695806764117" lon="10.71606621269857"><ele>85.0</ele><time>2026-04-12T08:36:41Z</time></trkpt><trkpt lat="45.457109957925496" lon="10.716108299820696"><ele>85.5</ele><time>2026-04-12T08:36:42Z</time></trkpt><trkpt lat="45.45725188297536" lon="10.716156331204122"><ele>86.0</ele><time>2026-04-12T08:36:43Z</time></trkpt><trkpt lat="45.45737966424505" lon="10.716196671049447"><ele>86.5</ele><time>2026-04-12T08:36:44Z</time></trkpt><trkpt lat="45.457498749279765" lon="10.716223092279337"><ele>87.0</ele><time>2026-04-12T08:36:45Z</time></trkpt><trkpt lat="45.45758356957413" lon="10.716267546164364"><ele>87.0</ele><time>2026-04-12T08:36:46Z</time></trkpt><trkpt lat="45.45765075534078" lon="10.716289165146842"><ele>87.0</ele><time>2026-04-12T08:36:47Z</time></trkpt><trkpt lat="45.457720047372476" lon="10.716294259615257"><ele>87.0</ele><time>2026-04-12T08:36:48Z</time></trkpt><trkpt lat="45.45782987946018" lon="10.716335753587185"><ele>87.0</ele><time>2026-04-12T08:36:50Z</time></trkpt><trkpt lat="45.45789329053429" lon="10.716348379969885"><ele>87.0</ele><time>2026-04-12T08:36:51Z</time></trkpt><trkpt lat="45.457968395653" lon="10.716366739619241"><ele>87.0</ele><time>2026-04-12T08:36:52Z</time></trkpt><trkpt lat="45.45806429047513" lon="10.716393339135474"><ele>88.25</ele><time>2026-04-12T08:36:53Z</time></trkpt><trkpt lat="45.45818055839203" lon="10.716425757889477"><ele>89.5</ele><time>2026-04-12T08:36:54Z</time></trkpt><trkpt lat="45.458312694714124" lon="10.71646821172096"><ele>90.75</ele><time>2026-04-12T08:36:55Z</time></trkpt><trkpt lat="45.458460490852794" lon="10.716518672739372"><ele>92.0</ele><time>2026-04-12T08:36:56Z</time></trkpt><trkpt lat="45.45862117295744" lon="10.716569252591219"><ele>92.33333333333334</ele><time>2026-04-12T08:36:57.001Z</time></trkpt><trkpt lat="45.45879041292261" lon="10.716616587219537"><ele>92.66666666666667</ele><time>2026-04-12T08:36:58.001Z</time></trkpt><trkpt lat="45.4589700381632" lon="10.716675841884353"><ele>93.0</ele><time>2026-04-12T08:36:59.001Z</time></trkpt><trkpt lat="45.459150412704105" lon="10.716740188165389"><ele>93.0</ele><time>2026-04-12T08:37:00.001Z</time></trkpt><trkpt lat="45.45933866625187" lon="10.716805805354202"><ele>93.0</ele><time>2026-04-12T08:37:01.001Z</time></trkpt><trkpt lat="45.45953537404355" lon="10.71687685070441"><ele>93.0</ele><time>2026-04-12T08:37:02.001Z</time></trkpt><trkpt lat="45.459736424101926" lon="10.71695159820468"><ele>93.0</ele><time>2026-04-12T08:37:03.001Z</time></trkpt><trkpt lat="45.45993693147884" lon="10.717024115124019"><ele>93.0</ele><time>2026-04-12T08:37:04.001Z</time></trkpt><trkpt lat="45.460137610439716" lon="10.717095619249097"><ele>93.0</ele><time>2026-04-12T08:37:05.001Z</time></trkpt><trkpt lat="45.460338504208245" lon="10.717169684896486"><ele>93.66666666666667</ele><time>2026-04-12T08:37:06.001Z</time></trkpt><trkpt lat="45.46053432669357" lon="10.717243798153255"><ele>94.33333333333334</ele><time>2026-04-12T08:37:07.001Z</time></trkpt><trkpt lat="45.46073083048376" lon="10.71731699935901"><ele>95.0</ele><time>2026-04-12T08:37:08.001Z</time></trkpt><trkpt lat="45.460918024656685" lon="10.717383583039023"><ele>95.0</ele><time>2026-04-12T08:37:09.001Z</time></trkpt><trkpt lat="45.461103264404585" lon="10.717451177991244"><ele>95.0</ele><time>2026-04-12T08:37:10.001Z</time></trkpt><trkpt lat="45.46128707524303" lon="10.717520762540326"><ele>95.0</ele><time>2026-04-12T08:37:11.001Z</time></trkpt><trkpt lat="45.461465343533334" lon="10.717583917534537"><ele>95.0</ele><time>2026-04-12T08:37:12.001Z</time></trkpt><trkpt lat="45.46163979715345" lon="10.71764472981826"><ele>95.0</ele><time>2026-04-12T08:37:13.001Z</time></trkpt><trkpt lat="45.46180188150577" lon="10.717703600091555"><ele>95.0</ele><time>2026-04-12T08:37:14.001Z</time></trkpt><trkpt lat="45.46195476191117" lon="10.717774073482584"><ele>95.0</ele><time>2026-04-12T08:37:15.001Z</time></trkpt><trkpt lat="45.46208807475207" lon="10.717862818955348"><ele>95.0</ele><time>2026-04-12T08:37:16.001Z</time></trkpt><trkpt lat="45.46219276893139" lon="10.717984198476874"><ele>95.0</ele><time>2026-04-12T08:37:17.001Z</time></trkpt><trkpt lat="45.46226024249493" lon="10.718133468357694"><ele>95.0</ele><time>2026-04-12T08:37:18.001Z</time></trkpt><trkpt lat="45.46229720483891" lon="10.718307944342937"><ele>95.0</ele><time>2026-04-12T08:37:19.001Z</time></trkpt><trkpt lat="45.46234076327566" lon="10.718469101544654"><ele>95.0</ele><time>2026-04-12T08:37:20.001Z</time></trkpt><trkpt lat="45.462432844260384" lon="10.718585775654915"><ele>95.0</ele><time>2026-04-12T08:37:21.001Z</time></trkpt><trkpt lat="45.46256212988433" lon="10.71863570152227"><ele>95.0</ele><time>2026-04-12T08:37:22.001Z</time></trkpt><trkpt lat="45.462688582848536" lon="10.718726314177234"><ele>95.0</ele><time>2026-04-12T08:37:23.001Z</time></trkpt><trkpt lat="45.46280344428038" lon="10.718841898743412"><ele>95.0</ele><time>2026-04-12T08:37:24.001Z</time></trkpt><trkpt lat="45.46287262806841" lon="10.719008149126921"><ele>95.0</ele><time>2026-04-12T08:37:25.001Z</time></trkpt><trkpt lat="45.46295124366442" lon="10.719134185102316"><ele>95.0</ele><time>2026-04-12T08:37:26.001Z</time></trkpt><trkpt lat="45.46302915276483" lon="10.719264915256556"><ele>95.25</ele><time>2026-04-12T08:37:27Z</time></trkpt><trkpt lat="45.46312617374027" lon="10.71938525397637"><ele>95.5</ele><time>2026-04-12T08:37:28Z</time></trkpt><trkpt lat="45.46323560073603" lon="10.719506587827384"><ele>95.75</ele><time>2026-04-12T08:37:29Z</time></trkpt><trkpt lat="45.463350977713866" lon="10.719626293191407"><ele>96.0</ele><time>2026-04-12T08:37:30Z</time></trkpt><trkpt lat="45.46347539745856" lon="10.71973545358496"><ele>96.75</ele><time>2026-04-12T08:37:31Z</time></trkpt><trkpt lat="45.463603160120705" lon="10.719825676986371"><ele>97.5</ele><time>2026-04-12T08:37:32Z</time></trkpt><trkpt lat="45.463731571135455" lon="10.71990211772131"><ele>98.25</ele><time>2026-04-12T08:37:33Z</time></trkpt><trkpt lat="45.4638593585291" lon="10.719966898434594"><ele>99.0</ele><time>2026-04-12T08:37:34Z</time></trkpt><trkpt lat="45.463988627017585" lon="10.720006165145463"><ele>100.0</ele><time>2026-04-12T08:37:35Z</time></trkpt><trkpt lat="45.464118346179674" lon="10.720028274609431"><ele>101.0</ele><time>2026-04-12T08:37:36Z</time></trkpt><trkpt lat="45.46425309265397" lon="10.720050339554058"><ele>102.0</ele><time>2026-04-12T08:37:37Z</time></trkpt><trkpt lat="45.46438288162462" lon="10.720074498815507"><ele>103.0</ele><time>2026-04-12T08:37:38Z</time></trkpt><trkpt lat="45.464514401248564" lon="10.720088923824905"><ele>103.5</ele><time>2026-04-12T08:37:39Z</time></trkpt><trkpt lat="45.46464890936465" lon="10.720114198406536"><ele>104.0</ele><time>2026-04-12T08:37:40Z</time></trkpt><trkpt lat="45.46477120075508" lon="10.720141788720996"><ele>104.5</ele><time>2026-04-12T08:37:41Z</time></trkpt><trkpt lat="45.464905662666894" lon="10.720163474954555"><ele>105.0</ele><time>2026-04-12T08:37:42Z</time></trkpt><trkpt lat="45.465034171608295" lon="10.720194604378747"><ele>104.75</ele><time>2026-04-12T08:37:43Z</time></trkpt><trkpt lat="45.465171482084834" lon="10.720234617219903"><ele>104.5</ele><time>2026-04-12T08:37:44Z</time></trkpt><trkpt lat="45.46531196515489" lon="10.720263153007018"><ele>104.25</ele><time>2026-04-12T08:37:45Z</time></trkpt><trkpt lat="45.46544554094004" lon="10.720297510318751"><ele>104.0</ele><time>2026-04-12T08:37:46Z</time></trkpt><trkpt lat="45.46558608705627" lon="10.7203270342039"><ele>104.0</ele><time>2026-04-12T08:37:47Z</time></trkpt><trkpt lat="45.46571800820074" lon="10.720364458323461"><ele>104.0</ele><time>2026-04-12T08:37:48Z</time></trkpt><trkpt lat="45.46584315346903" lon="10.720403089288398"><ele>104.0</ele><time>2026-04-12T08:37:49Z</time></trkpt><trkpt lat="45.46596761426032" lon="10.72044637310828"><ele>104.0</ele><time>2026-04-12T08:37:50Z</time></trkpt><trkpt lat="45.46609175879001" lon="10.720495827002978"><ele>104.0</ele><time>2026-04-12T08:37:51Z</time></trkpt><trkpt lat="45.46621673977349" lon="10.720526232771578"><ele>104.0</ele><time>2026-04-12T08:37:52Z</time></trkpt><trkpt lat="45.46633617831372" lon="10.720582247443053"><ele>104.0</ele><time>2026-04-12T08:37:53Z</time></trkpt><trkpt lat="45.466455974491595" lon="10.720618825036093"><ele>104.0</ele><time>2026-04-12T08:37:54Z</time></trkpt><trkpt lat="45.46657495803483" lon="10.720636633949516"><ele>104.16666666666666</ele><time>2026-04-12T08:37:55Z</time></trkpt><trkpt lat="45.46667229891527" lon="10.72066528343251"><ele>104.33333333333333</ele><time>2026-04-12T08:37:56Z</time></trkpt><trkpt lat="45.46675469848971" lon="10.720677135155153"><ele>104.5</ele><time>2026-04-12T08:37:57Z</time></trkpt><trkpt lat="45.46684214231368" lon="10.720689712400901"><ele>104.66666666666666</ele><time>2026-04-12T08:37:59Z</time></trkpt><trkpt lat="45.466914815752446" lon="10.720702704635503"><ele>104.83333333333333</ele><time>2026-04-12T08:38:03Z</time></trkpt><trkpt lat="45.46698651778143" lon="10.720716827212119"><ele>105.0</ele><time>2026-04-12T08:38:19Z</time></trkpt><trkpt lat="45.46706741528998" lon="10.720713401145007"><ele>104.5</ele><time>2026-04-12T08:38:21Z</time></trkpt><trkpt lat="45.46720529946312" lon="10.720723185965095"><ele>104.0</ele><time>2026-04-12T08:38:23.001Z</time></trkpt><trkpt lat="45.46729470131561" lon="10.720718574648055"><ele>103.5</ele><time>2026-04-12T08:38:24.001Z</time></trkpt><trkpt lat="45.467405881270395" lon="10.720717381075268"><ele>103.0</ele><time>2026-04-12T08:38:25.001Z</time></trkpt><trkpt lat="45.467533413853815" lon="10.720750057541707"><ele>103.0</ele><time>2026-04-12T08:38:26.001Z</time></trkpt><trkpt lat="45.4676814823141" lon="10.72074970254794"><ele>103.0</ele><time>2026-04-12T08:38:27.001Z</time></trkpt><trkpt lat="45.467819250164766" lon="10.720777321122755"><ele>103.0</ele><time>2026-04-12T08:38:28.001Z</time></trkpt><trkpt lat="45.46795332532223" lon="10.72080197913137"><ele>103.0</ele><time>2026-04-12T08:38:29.001Z</time></trkpt><trkpt lat="45.468083700840864" lon="10.720824927891904"><ele>102.66666666666667</ele><time>2026-04-12T08:38:30.001Z</time></trkpt><trkpt lat="45.468222937178304" lon="10.72085715517112"><ele>102.33333333333334</ele><time>2026-04-12T08:38:31.001Z</time></trkpt><trkpt lat="45.4683754342174" lon="10.720888870873972"><ele>102.0</ele><time>2026-04-12T08:38:32.001Z</time></trkpt><trkpt lat="45.46853592284073" lon="10.720918894694787"><ele>102.0</ele><time>2026-04-12T08:38:33.001Z</time></trkpt><trkpt lat="45.46870594986136" lon="10.720947287749068"><ele>102.0</ele><time>2026-04-12T08:38:34.001Z</time></trkpt><trkpt lat="45.46888022947946" lon="10.720973576634869"><ele>102.0</ele><time>2026-04-12T08:38:35.001Z</time></trkpt><trkpt lat="45.46906620702508" lon="10.72100479700544"><ele>102.0</ele><time>2026-04-12T08:38:36.001Z</time></trkpt><trkpt lat="45.469253768457385" lon="10.721042690132924"><ele>102.0</ele><time>2026-04-12T08:38:37.001Z</time></trkpt><trkpt lat="45.46943813417206" lon="10.721096525147892"><ele>102.0</ele><time>2026-04-12T08:38:38.001Z</time></trkpt><trkpt lat="45.4696015420569" lon="10.721191408473517"><ele>102.0</ele><time>2026-04-12T08:38:39.001Z</time></trkpt><trkpt lat="45.46975147638234" lon="10.721302809010334"><ele>102.0</ele><time>2026-04-12T08:38:40.001Z</time></trkpt><trkpt lat="45.46989423230756" lon="10.721457572692753"><ele>102.0</ele><time>2026-04-12T08:38:41.001Z</time></trkpt><trkpt lat="45.47002404282325" lon="10.721634908518778"><ele>102.0</ele><time>2026-04-12T08:38:42.001Z</time></trkpt><trkpt lat="45.4701303614242" lon="10.721820926071947"><ele>102.0</ele><time>2026-04-12T08:38:43.001Z</time></trkpt><trkpt lat="45.47020386511283" lon="10.721984225746688"><ele>102.0</ele><time>2026-04-12T08:38:44.001Z</time></trkpt><trkpt lat="45.4702498226704" lon="10.72213089566254"><ele>102.0</ele><time>2026-04-12T08:38:45.001Z</time></trkpt><trkpt lat="45.47026854518495" lon="10.722273318673313"><ele>102.0</ele><time>2026-04-12T08:38:46.001Z</time></trkpt><trkpt lat="45.470272234866464" lon="10.72241060348467"><ele>102.0</ele><time>2026-04-12T08:38:47.001Z</time></trkpt><trkpt lat="45.47032761683474" lon="10.722525085067137"><ele>102.0</ele><time>2026-04-12T08:38:48.001Z</time></trkpt><trkpt lat="45.47043300136102" lon="10.722620242220392"><ele>102.0</ele><time>2026-04-12T08:38:49.001Z</time></trkpt><trkpt lat="45.47053844482186" lon="10.72275552838954"><ele>103.0</ele><time>2026-04-12T08:38:50.001Z</time></trkpt><trkpt lat="45.47063411995213" lon="10.722934329592002"><ele>104.0</ele><time>2026-04-12T08:38:51.001Z</time></trkpt><trkpt lat="45.470747136468354" lon="10.723141594213129"><ele>105.0</ele><time>2026-04-12T08:38:52.001Z</time></trkpt><trkpt lat="45.47088465304059" lon="10.723333100574242"><ele>105.0</ele><time>2026-04-12T08:38:53.001Z</time></trkpt><trkpt lat="45.47104916514517" lon="10.72348856917934"><ele>105.0</ele><time>2026-04-12T08:38:54.001Z</time></trkpt><trkpt lat="45.47122429612756" lon="10.723634700224379"><ele>105.0</ele><time>2026-04-12T08:38:55.001Z</time></trkpt><trkpt lat="45.471413244182564" lon="10.723761447346067"><ele>105.0</ele><time>2026-04-12T08:38:56.001Z</time></trkpt><trkpt lat="45.47161188408938" lon="10.723860712786184"><ele>105.0</ele><time>2026-04-12T08:38:57.001Z</time></trkpt><trkpt lat="45.471816242869195" lon="10.723954643221417"><ele>105.0</ele><time>2026-04-12T08:38:58.001Z</time></trkpt><trkpt lat="45.47201770531924" lon="10.724053736501206"><ele>104.0</ele><time>2026-04-12T08:38:59.001Z</time></trkpt><trkpt lat="45.472220522593446" lon="10.724160109006581"><ele>103.0</ele><time>2026-04-12T08:39:00.001Z</time></trkpt><trkpt lat="45.472421359448965" lon="10.724260459364263"><ele>102.0</ele><time>2026-04-12T08:39:01.001Z</time></trkpt><trkpt lat="45.47261708458568" lon="10.724359911840779"><ele>102.66666666666666</ele><time>2026-04-12T08:39:02.001Z</time></trkpt><trkpt lat="45.47281813682152" lon="10.724437953288115"><ele>103.33333333333333</ele><time>2026-04-12T08:39:03.001Z</time></trkpt><trkpt lat="45.473020984856525" lon="10.724505053982904"><ele>104.0</ele><time>2026-04-12T08:39:04.001Z</time></trkpt><trkpt lat="45.473219874955554" lon="10.724559046991354"><ele>104.66666666666666</ele><time>2026-04-12T08:39:05.001Z</time></trkpt><trkpt lat="45.473419215862975" lon="10.724611250137423"><ele>105.33333333333334</ele><time>2026-04-12T08:39:06.001Z</time></trkpt><trkpt lat="45.47361261331639" lon="10.724662480355446"><ele>106.0</ele><time>2026-04-12T08:39:07.001Z</time></trkpt><trkpt lat="45.47380486854388" lon="10.724714745468063"><ele>106.0</ele><time>2026-04-12T08:39:08.001Z</time></trkpt><trkpt lat="45.47399312778976" lon="10.72476378893409"><ele>106.0</ele><time>2026-04-12T08:39:09.001Z</time></trkpt><trkpt lat="45.47417921027118" lon="10.724809960223494"><ele>106.0</ele><time>2026-04-12T08:39:10.001Z</time></trkpt><trkpt lat="45.4743633625426" lon="10.724863146952114"><ele>106.0</ele><time>2026-04-12T08:39:11.001Z</time></trkpt><trkpt lat="45.47454274060912" lon="10.724915747491677"><ele>106.0</ele><time>2026-04-12T08:39:12.001Z</time></trkpt><trkpt lat="45.47472140723813" lon="10.724966613641072"><ele>106.0</ele><time>2026-04-12T08:39:13.001Z</time></trkpt><trkpt lat="45.47490165395509" lon="10.725022376386406"><ele>105.66666666666667</ele><time>2026-04-12T08:39:14.001Z</time></trkpt><trkpt lat="45.47507453224854" lon="10.72510044276796"><ele>105.33333333333334</ele><time>2026-04-12T08:39:15.001Z</time></trkpt><trkpt lat="45.47524407430266" lon="10.725213189296987"><ele>105.0</ele><time>2026-04-12T08:39:16.001Z</time></trkpt><trkpt lat="45.475402764624526" lon="10.725345016688486"><ele>104.33333333333334</ele><time>2026-04-12T08:39:17.001Z</time></trkpt><trkpt lat="45.47556774678541" lon="10.725476740227581"><ele>103.66666666666667</ele><time>2026-04-12T08:39:18.001Z</time></trkpt><trkpt lat="45.47573090923183" lon="10.725610358944204"><ele>103.0</ele><time>2026-04-12T08:39:19.001Z</time></trkpt><trkpt lat="45.475895687310505" lon="10.725747587014821"><ele>103.0</ele><time>2026-04-12T08:39:20.001Z</time></trkpt><trkpt lat="45.476056140315876" lon="10.725897305380208"><ele>103.0</ele><time>2026-04-12T08:39:21.001Z</time></trkpt><trkpt lat="45.47620630507053" lon="10.726068128268688"><ele>103.0</ele><time>2026-04-12T08:39:22.001Z</time></trkpt><trkpt lat="45.4763478079529" lon="10.726249610762109"><ele>104.0</ele><time>2026-04-12T08:39:23.001Z</time></trkpt><trkpt lat="45.476479248260574" lon="10.726418188476963"><ele>105.0</ele><time>2026-04-12T08:39:24.001Z</time></trkpt><trkpt lat="45.47660163991467" lon="10.726578736884573"><ele>106.0</ele><time>2026-04-12T08:39:25.001Z</time></trkpt><trkpt lat="45.476719047511395" lon="10.726726112512067"><ele>106.0</ele><time>2026-04-12T08:39:26.001Z</time></trkpt><trkpt lat="45.47682242659598" lon="10.72685600490357"><ele>106.0</ele><time>2026-04-12T08:39:27.001Z</time></trkpt><trkpt lat="45.476902730607044" lon="10.726960705500087"><ele>106.0</ele><time>2026-04-12T08:39:28.001Z</time></trkpt><trkpt lat="45.476978564136296" lon="10.727057206719488"><ele>106.0</ele><time>2026-04-12T08:39:29.001Z</time></trkpt><trkpt lat="45.477049607181414" lon="10.727145326147893"><ele>106.0</ele><time>2026-04-12T08:39:30.001Z</time></trkpt><trkpt lat="45.47711519072516" lon="10.727228356685753"><ele>105.8</ele><time>2026-04-12T08:39:31.001Z</time></trkpt><trkpt lat="45.47718185703712" lon="10.727313718195628"><ele>105.6</ele><time>2026-04-12T08:39:32.001Z</time></trkpt><trkpt lat="45.47724892051156" lon="10.727404537446766"><ele>105.4</ele><time>2026-04-12T08:39:33.001Z</time></trkpt><trkpt lat="45.47732151721387" lon="10.727497642639188"><ele>105.2</ele><time>2026-04-12T08:39:34.001Z</time></trkpt><trkpt lat="45.47739461375387" lon="10.727595006958715"><ele>105.0</ele><time>2026-04-12T08:39:35.001Z</time></trkpt><trkpt lat="45.47747568903927" lon="10.727685127690762"><ele>105.4</ele><time>2026-04-12T08:39:36.001Z</time></trkpt><trkpt lat="45.47756526743446" lon="10.727768000188346"><ele>105.8</ele><time>2026-04-12T08:39:37.001Z</time></trkpt><trkpt lat="45.4776497179702" lon="10.727857559966814"><ele>106.19999999999999</ele><time>2026-04-12T08:39:38.001Z</time></trkpt><trkpt lat="45.47774413586944" lon="10.727911541143854"><ele>106.6</ele><time>2026-04-12T08:39:39.001Z</time></trkpt><trkpt lat="45.477845775516336" lon="10.72796808275156"><ele>107.0</ele><time>2026-04-12T08:39:40.001Z</time></trkpt><trkpt lat="45.47794213293029" lon="10.728002073880598"><ele>107.39999999999999</ele><time>2026-04-12T08:39:41.001Z</time></trkpt><trkpt lat="45.47804477193454" lon="10.728028830347863"><ele>107.79999999999998</ele><time>2026-04-12T08:39:42.001Z</time></trkpt><trkpt lat="45.47814039667243" lon="10.728053782844746"><ele>108.2</ele><time>2026-04-12T08:39:43.001Z</time></trkpt><trkpt lat="45.47823058132877" lon="10.728075516120505"><ele>108.6</ele><time>2026-04-12T08:39:44.001Z</time></trkpt><trkpt lat="45.47831362524476" lon="10.728094555479354"><ele>109.0</ele><time>2026-04-12T08:39:45.001Z</time></trkpt><trkpt lat="45.478390471507275" lon="10.728108191585523"><ele>109.0</ele><time>2026-04-12T08:39:46.001Z</time></trkpt><trkpt lat="45.478464716690226" lon="10.728126774975573"><ele>109.0</ele><time>2026-04-12T08:39:47.001Z</time></trkpt><trkpt lat="45.478539108834404" lon="10.728145548483793"><ele>109.0</ele><time>2026-04-12T08:39:48.001Z</time></trkpt><trkpt lat="45.47863070859984" lon="10.728169395299375"><ele>109.0</ele><time>2026-04-12T08:39:49.001Z</time></trkpt><trkpt lat="45.47873306632453" lon="10.728192889856087"><ele>109.0</ele><time>2026-04-12T08:39:50.001Z</time></trkpt><trkpt lat="45.47884863030907" lon="10.728225598507555"><ele>108.75</ele><time>2026-04-12T08:39:51.001Z</time></trkpt><trkpt lat="45.47897589603835" lon="10.728252849345886"><ele>108.5</ele><time>2026-04-12T08:39:52.001Z</time></trkpt><trkpt lat="45.479116279042024" lon="10.728283433927194"><ele>108.25</ele><time>2026-04-12T08:39:53.001Z</time></trkpt><trkpt lat="45.479271609434335" lon="10.728320106486834"><ele>108.0</ele><time>2026-04-12T08:39:54.001Z</time></trkpt><trkpt lat="45.47943961066638" lon="10.728361954062127"><ele>108.66666666666666</ele><time>2026-04-12T08:39:55.001Z</time></trkpt><trkpt lat="45.47961542472544" lon="10.728402942344818"><ele>109.33333333333333</ele><time>2026-04-12T08:39:56.001Z</time></trkpt><trkpt lat="45.479801184772356" lon="10.728439543914426"><ele>110.0</ele><time>2026-04-12T08:39:57.001Z</time></trkpt><trkpt lat="45.479989923192825" lon="10.728481503922655"><ele>110.0</ele><time>2026-04-12T08:39:58.001Z</time></trkpt><trkpt lat="45.48018123280956" lon="10.728534948215811"><ele>110.0</ele><time>2026-04-12T08:39:59.001Z</time></trkpt><trkpt lat="45.48037810006092" lon="10.728582956323468"><ele>110.0</ele><time>2026-04-12T08:40:00.001Z</time></trkpt><trkpt lat="45.480576488200754" lon="10.728629563785649"><ele>109.66666666666666</ele><time>2026-04-12T08:40:01.001Z</time></trkpt><trkpt lat="45.48078087236875" lon="10.72867648731648"><ele>109.33333333333334</ele><time>2026-04-12T08:40:02.001Z</time></trkpt><trkpt lat="45.480978735965955" lon="10.728717680467545"><ele>109.0</ele><time>2026-04-12T08:40:03.001Z</time></trkpt><trkpt lat="45.48118099756646" lon="10.728766987931026"><ele>110.0</ele><time>2026-04-12T08:40:04.001Z</time></trkpt><trkpt lat="45.48138105803868" lon="10.728808068657125"><ele>111.0</ele><time>2026-04-12T08:40:05.001Z</time></trkpt><trkpt lat="45.48157986031067" lon="10.728861013370631"><ele>112.0</ele><time>2026-04-12T08:40:06.001Z</time></trkpt><trkpt lat="45.48177201276429" lon="10.728905704198771"><ele>112.0</ele><time>2026-04-12T08:40:07.001Z</time></trkpt><trkpt lat="45.481956755782235" lon="10.728962583041959"><ele>112.0</ele><time>2026-04-12T08:40:08.001Z</time></trkpt><trkpt lat="45.48213465735324" lon="10.729031791417897"><ele>112.0</ele><time>2026-04-12T08:40:09.001Z</time></trkpt><trkpt lat="45.48230438816793" lon="10.729124730689406"><ele>112.33333333333334</ele><time>2026-04-12T08:40:10.001Z</time></trkpt><trkpt lat="45.482452187084505" lon="10.729275305214097"><ele>112.66666666666666</ele><time>2026-04-12T08:40:11.001Z</time></trkpt><trkpt lat="45.48259026349781" lon="10.729447502361381"><ele>113.0</ele><time>2026-04-12T08:40:12.001Z</time></trkpt><trkpt lat="45.482713889029164" lon="10.729636943258114"><ele>113.33333333333333</ele><time>2026-04-12T08:40:13.001Z</time></trkpt><trkpt lat="45.48283334818859" lon="10.729842641205966"><ele>113.66666666666666</ele><time>2026-04-12T08:40:14.001Z</time></trkpt><trkpt lat="45.48295644897287" lon="10.730035271353607"><ele>114.0</ele><time>2026-04-12T08:40:15.001Z</time></trkpt><trkpt lat="45.48306819386605" lon="10.730223305256269"><ele>113.5</ele><time>2026-04-12T08:40:16.001Z</time></trkpt><trkpt lat="45.4831706081428" lon="10.730400762844775"><ele>113.0</ele><time>2026-04-12T08:40:17.001Z</time></trkpt><trkpt lat="45.483255766384396" lon="10.73056023717686"><ele>112.5</ele><time>2026-04-12T08:40:18.001Z</time></trkpt><trkpt lat="45.4833407921065" lon="10.730716876905268"><ele>112.0</ele><time>2026-04-12T08:40:19.001Z</time></trkpt><trkpt lat="45.48342312565864" lon="10.730863099776743"><ele>112.0</ele><time>2026-04-12T08:40:20.001Z</time></trkpt><trkpt lat="45.4835079320008" lon="10.731006482277364"><ele>112.0</ele><time>2026-04-12T08:40:21.001Z</time></trkpt><trkpt lat="45.48358596849981" lon="10.731134072296411"><ele>112.0</ele><time>2026-04-12T08:40:22.001Z</time></trkpt><trkpt lat="45.48366722375494" lon="10.731251637239351"><ele>112.0</ele><time>2026-04-12T08:40:23.001Z</time></trkpt><trkpt lat="45.48374771268756" lon="10.731353807373432"><ele>112.0</ele><time>2026-04-12T08:40:24.001Z</time></trkpt><trkpt lat="45.48383742078693" lon="10.731461171812498"><ele>112.0</ele><time>2026-04-12T08:40:25.001Z</time></trkpt><trkpt lat="45.48393508403145" lon="10.731580196946258"><ele>112.0</ele><time>2026-04-12T08:40:26.001Z</time></trkpt><trkpt lat="45.484051684474494" lon="10.731697059259412"><ele>112.0</ele><time>2026-04-12T08:40:27.001Z</time></trkpt><trkpt lat="45.48416883276286" lon="10.73183381908634"><ele>112.0</ele><time>2026-04-12T08:40:28.001Z</time></trkpt><trkpt lat="45.48430125592292" lon="10.731980943414714"><ele>112.0</ele><time>2026-04-12T08:40:29.001Z</time></trkpt><trkpt lat="45.48445389134604" lon="10.732121242758108"><ele>112.0</ele><time>2026-04-12T08:40:30.001Z</time></trkpt><trkpt lat="45.48457959050014" lon="10.732295637486864"><ele>112.33333333333334</ele><time>2026-04-12T08:40:31.001Z</time></trkpt><trkpt lat="45.48470432742316" lon="10.732441188738346"><ele>112.66666666666666</ele><time>2026-04-12T08:40:32.001Z</time></trkpt><trkpt lat="45.48481043332353" lon="10.732591801139003"><ele>113.0</ele><time>2026-04-12T08:40:33.001Z</time></trkpt><trkpt lat="45.48490226948946" lon="10.732755479806578"><ele>113.0</ele><time>2026-04-12T08:40:34.001Z</time></trkpt><trkpt lat="45.48497621904879" lon="10.732927295556824"><ele>113.0</ele><time>2026-04-12T08:40:35.001Z</time></trkpt><trkpt lat="45.4850396368401" lon="10.733097360905884"><ele>113.0</ele><time>2026-04-12T08:40:36.001Z</time></trkpt><trkpt lat="45.485099576475875" lon="10.733261111301195"><ele>113.0</ele><time>2026-04-12T08:40:37.001Z</time></trkpt><trkpt lat="45.48515900082584" lon="10.733413312230637"><ele>113.0</ele><time>2026-04-12T08:40:38.001Z</time></trkpt><trkpt lat="45.48522184362595" lon="10.73355771643549"><ele>113.0</ele><time>2026-04-12T08:40:39.001Z</time></trkpt><trkpt lat="45.48528365890132" lon="10.733696517581972"><ele>113.0</ele><time>2026-04-12T08:40:40.001Z</time></trkpt><trkpt lat="45.48534193531309" lon="10.733832152939017"><ele>113.0</ele><time>2026-04-12T08:40:41.001Z</time></trkpt><trkpt lat="45.48541410373006" lon="10.733959095886519"><ele>112.75</ele><time>2026-04-12T08:40:42.001Z</time></trkpt><trkpt lat="45.4854826071371" lon="10.734086328047432"><ele>112.5</ele><time>2026-04-12T08:40:43.001Z</time></trkpt><trkpt lat="45.485556042163516" lon="10.73420368233895"><ele>112.25</ele><time>2026-04-12T08:40:44.001Z</time></trkpt><trkpt lat="45.485625765439075" lon="10.734333196074981"><ele>112.0</ele><time>2026-04-12T08:40:45.001Z</time></trkpt><trkpt lat="45.485709900005155" lon="10.734446296928747"><ele>112.75</ele><time>2026-04-12T08:40:46.001Z</time></trkpt><trkpt lat="45.48580717789276" lon="10.734560358944725"><ele>113.5</ele><time>2026-04-12T08:40:47.001Z</time></trkpt><trkpt lat="45.48591551753253" lon="10.734677825806923"><ele>114.25</ele><time>2026-04-12T08:40:48.001Z</time></trkpt><trkpt lat="45.486029049836425" lon="10.734800519096579"><ele>115.0</ele><time>2026-04-12T08:40:49.001Z</time></trkpt><trkpt lat="45.48613770409781" lon="10.734894426432"><ele>115.0</ele><time>2026-04-12T08:40:50.001Z</time></trkpt><trkpt lat="45.486238863288115" lon="10.735004189649732"><ele>115.0</ele><time>2026-04-12T08:40:51.001Z</time></trkpt><trkpt lat="45.486345584520684" lon="10.735090223761306"><ele>115.0</ele><time>2026-04-12T08:40:52.001Z</time></trkpt><trkpt lat="45.48645384763537" lon="10.735170814682458"><ele>115.0</ele><time>2026-04-12T08:40:53.001Z</time></trkpt><trkpt lat="45.486551238845365" lon="10.735248004866472"><ele>115.0</ele><time>2026-04-12T08:40:54.001Z</time></trkpt><trkpt lat="45.48664636622114" lon="10.735325789459022"><ele>115.0</ele><time>2026-04-12T08:40:55.001Z</time></trkpt><trkpt lat="45.48674531154396" lon="10.735403377125392"><ele>115.0</ele><time>2026-04-12T08:40:56.001Z</time></trkpt><trkpt lat="45.48684531898116" lon="10.7354783384402"><ele>115.0</ele><time>2026-04-12T08:40:57.001Z</time></trkpt><trkpt lat="45.48694721283157" lon="10.735555974938217"><ele>115.0</ele><time>2026-04-12T08:40:58.001Z</time></trkpt><trkpt lat="45.487048048444024" lon="10.735637868895337"><ele>115.0</ele><time>2026-04-12T08:40:59.001Z</time></trkpt><trkpt lat="45.48714528546738" lon="10.735718250001376"><ele>115.0</ele><time>2026-04-12T08:41:00.001Z</time></trkpt><trkpt lat="45.48725111239245" lon="10.735809265912527"><ele>115.0</ele><time>2026-04-12T08:41:01.001Z</time></trkpt><trkpt lat="45.48735424948897" lon="10.735887295503803"><ele>114.75</ele><time>2026-04-12T08:41:02.001Z</time></trkpt><trkpt lat="45.48746487916779" lon="10.735979738251126"><ele>114.5</ele><time>2026-04-12T08:41:03.001Z</time></trkpt><trkpt lat="45.48757695658213" lon="10.736067592103549"><ele>114.25</ele><time>2026-04-12T08:41:04.001Z</time></trkpt><trkpt lat="45.48768986137978" lon="10.736153525009362"><ele>114.0</ele><time>2026-04-12T08:41:05.001Z</time></trkpt><trkpt lat="45.48780477804382" lon="10.736228492806513"><ele>114.0</ele><time>2026-04-12T08:41:06.001Z</time></trkpt><trkpt lat="45.48792381189351" lon="10.736294807813639"><ele>114.0</ele><time>2026-04-12T08:41:07.001Z</time></trkpt><trkpt lat="45.488044569599545" lon="10.736356107321459"><ele>114.0</ele><time>2026-04-12T08:41:08.001Z</time></trkpt><trkpt lat="45.4881576002251" lon="10.736413148421033"><ele>114.0</ele><time>2026-04-12T08:41:09.001Z</time></trkpt><trkpt lat="45.488276883837166" lon="10.73646644649395"><ele>113.25</ele><time>2026-04-12T08:41:10.001Z</time></trkpt><trkpt lat="45.488394480852534" lon="10.73652177961452"><ele>112.5</ele><time>2026-04-12T08:41:11.001Z</time></trkpt><trkpt lat="45.488518697382375" lon="10.736573233839422"><ele>111.75</ele><time>2026-04-12T08:41:12.001Z</time></trkpt><trkpt lat="45.488644469322644" lon="10.736620048111753"><ele>111.0</ele><time>2026-04-12T08:41:13.001Z</time></trkpt><trkpt lat="45.48876316523742" lon="10.736674566684645"><ele>109.75</ele><time>2026-04-12T08:41:14.001Z</time></trkpt><trkpt lat="45.48888533100367" lon="10.736723005548173"><ele>108.5</ele><time>2026-04-12T08:41:15.001Z</time></trkpt><trkpt lat="45.48900216922124" lon="10.736773255644488"><ele>107.25</ele><time>2026-04-12T08:41:16.001Z</time></trkpt><trkpt lat="45.48912729082655" lon="10.736820980352979"><ele>106.0</ele><time>2026-04-12T08:41:17.001Z</time></trkpt><trkpt lat="45.48925704489684" lon="10.73686684012746"><ele>106.0</ele><time>2026-04-12T08:41:18.001Z</time></trkpt><trkpt lat="45.48939573301297" lon="10.73691505209671"><ele>106.0</ele><time>2026-04-12T08:41:19.001Z</time></trkpt><trkpt lat="45.48953926474672" lon="10.736968973894495"><ele>106.0</ele><time>2026-04-12T08:41:20.002Z</time></trkpt><trkpt lat="45.48967914319283" lon="10.73702439042843"><ele>106.0</ele><time>2026-04-12T08:41:21.002Z</time></trkpt><trkpt lat="45.48981990153435" lon="10.737081356638194"><ele>106.0</ele><time>2026-04-12T08:41:22.002Z</time></trkpt><trkpt lat="45.48995792215498" lon="10.737136701624879"><ele>106.0</ele><time>2026-04-12T08:41:23.002Z</time></trkpt><trkpt lat="45.490095676360205" lon="10.737188699861242"><ele>106.0</ele><time>2026-04-12T08:41:24.002Z</time></trkpt><trkpt lat="45.49023201846641" lon="10.73723787855343"><ele>106.0</ele><time>2026-04-12T08:41:25.002Z</time></trkpt><trkpt lat="45.490368956636416" lon="10.737294250230578"><ele>105.75</ele><time>2026-04-12T08:41:26.002Z</time></trkpt><trkpt lat="45.49051009875184" lon="10.737349278351342"><ele>105.5</ele><time>2026-04-12T08:41:27.002Z</time></trkpt><trkpt lat="45.49064984976458" lon="10.73740444463106"><ele>105.25</ele><time>2026-04-12T08:41:28.002Z</time></trkpt><trkpt lat="45.49079323757531" lon="10.73746502683069"><ele>105.0</ele><time>2026-04-12T08:41:29.002Z</time></trkpt><trkpt lat="45.4909394023055" lon="10.737518960813851"><ele>105.0</ele><time>2026-04-12T08:41:30.002Z</time></trkpt><trkpt lat="45.49108585569098" lon="10.73757173759591"><ele>105.0</ele><time>2026-04-12T08:41:31.002Z</time></trkpt><trkpt lat="45.49123148709555" lon="10.737626097910177"><ele>105.0</ele><time>2026-04-12T08:41:32.002Z</time></trkpt><trkpt lat="45.49137198233265" lon="10.737681023544328"><ele>105.0</ele><time>2026-04-12T08:41:33.002Z</time></trkpt><trkpt lat="45.49150712152415" lon="10.73773423482829"><ele>105.0</ele><time>2026-04-12T08:41:34.002Z</time></trkpt><trkpt lat="45.49163847043826" lon="10.737785372471423"><ele>105.0</ele><time>2026-04-12T08:41:35.002Z</time></trkpt><trkpt lat="45.49176920036613" lon="10.737838566887174"><ele>105.0</ele><time>2026-04-12T08:41:36.002Z</time></trkpt><trkpt lat="45.491907039431375" lon="10.737884051440549"><ele>105.0</ele><time>2026-04-12T08:41:37.002Z</time></trkpt><trkpt lat="45.49205133310454" lon="10.73792850623792"><ele>105.25</ele><time>2026-04-12T08:41:38.002Z</time></trkpt><trkpt lat="45.49218417157585" lon="10.737979266945201"><ele>105.5</ele><time>2026-04-12T08:41:39.001Z</time></trkpt><trkpt lat="45.4923089245446" lon="10.73802651914646"><ele>105.75</ele><time>2026-04-12T08:41:40.001Z</time></trkpt><trkpt lat="45.492424814279595" lon="10.738074992660119"><ele>106.0</ele><time>2026-04-12T08:41:41.001Z</time></trkpt><trkpt lat="45.492537261416835" lon="10.738121566774902"><ele>106.0</ele><time>2026-04-12T08:41:42.001Z</time></trkpt><trkpt lat="45.49264687015433" lon="10.738167408515531"><ele>106.0</ele><time>2026-04-12T08:41:43.001Z</time></trkpt><trkpt lat="45.49275763336553" lon="10.73820962394712"><ele>106.0</ele><time>2026-04-12T08:41:44.001Z</time></trkpt><trkpt lat="45.49287099376989" lon="10.73825984614005"><ele>106.0</ele><time>2026-04-12T08:41:45.001Z</time></trkpt><trkpt lat="45.49298503323329" lon="10.738305773041176"><ele>105.5</ele><time>2026-04-12T08:41:46.001Z</time></trkpt><trkpt lat="45.49309954239656" lon="10.73835207478471"><ele>105.0</ele><time>2026-04-12T08:41:47.001Z</time></trkpt><trkpt lat="45.49321363467829" lon="10.73839845798387"><ele>104.5</ele><time>2026-04-12T08:41:48.001Z</time></trkpt><trkpt lat="45.49332819842807" lon="10.738441373640997"><ele>104.0</ele><time>2026-04-12T08:41:49.001Z</time></trkpt><trkpt lat="45.49344266038097" lon="10.73848683040249"><ele>104.0</ele><time>2026-04-12T08:41:50.001Z</time></trkpt><trkpt lat="45.49355932815139" lon="10.738532739403926"><ele>104.0</ele><time>2026-04-12T08:41:51.001Z</time></trkpt><trkpt lat="45.49367668958234" lon="10.7385697291383"><ele>104.0</ele><time>2026-04-12T08:41:52.001Z</time></trkpt><trkpt lat="45.49379126476138" lon="10.738606282834224"><ele>104.0</ele><time>2026-04-12T08:41:53.001Z</time></trkpt><trkpt lat="45.49390362187659" lon="10.738632298285165"><ele>104.0</ele><time>2026-04-12T08:41:54.001Z</time></trkpt><trkpt lat="45.494009623337845" lon="10.738655714337677"><ele>104.0</ele><time>2026-04-12T08:41:55.001Z</time></trkpt><trkpt lat="45.49410874473282" lon="10.738672356031753"><ele>104.0</ele><time>2026-04-12T08:41:56.001Z</time></trkpt><trkpt lat="45.49421012985167" lon="10.738689563994228"><ele>104.0</ele><time>2026-04-12T08:41:57.001Z</time></trkpt><trkpt lat="45.49431705850561" lon="10.738706787981041"><ele>104.0</ele><time>2026-04-12T08:41:58.001Z</time></trkpt><trkpt lat="45.49442091890655" lon="10.738714114714679"><ele>104.0</ele><time>2026-04-12T08:41:59.001Z</time></trkpt><trkpt lat="45.49452947006218" lon="10.738723218004974"><ele>104.0</ele><time>2026-04-12T08:42:00.001Z</time></trkpt><trkpt lat="45.494637665522916" lon="10.738723547560118"><ele>104.0</ele><time>2026-04-12T08:42:01.001Z</time></trkpt><trkpt lat="45.49474780495583" lon="10.7387420851617"><ele>104.0</ele><time>2026-04-12T08:42:02.001Z</time></trkpt><trkpt lat="45.49485317935714" lon="10.738708041704305"><ele>104.0</ele><time>2026-04-12T08:42:03.001Z</time></trkpt><trkpt lat="45.49495621695649" lon="10.738693359227248"><ele>103.66666666666666</ele><time>2026-04-12T08:42:04.001Z</time></trkpt><trkpt lat="45.495056147586155" lon="10.738680358674827"><ele>103.33333333333333</ele><time>2026-04-12T08:42:05.001Z</time></trkpt><trkpt lat="45.495147997261064" lon="10.7386661380128"><ele>103.0</ele><time>2026-04-12T08:42:06.001Z</time></trkpt><trkpt lat="45.49523909306445" lon="10.738681225132881"><ele>102.66666666666666</ele><time>2026-04-12T08:42:07.001Z</time></trkpt><trkpt lat="45.49532323945276" lon="10.738664500788063"><ele>102.33333333333333</ele><time>2026-04-12T08:42:08.001Z</time></trkpt><trkpt lat="45.49539427892055" lon="10.738650986102611"><ele>102.0</ele><time>2026-04-12T08:42:09.001Z</time></trkpt><trkpt lat="45.495516512958275" lon="10.738628293202181"><ele>101.83333333333333</ele><time>2026-04-12T08:42:11.001Z</time></trkpt><trkpt lat="45.495635186961486" lon="10.738606261206632"><ele>101.66666666666666</ele><time>2026-04-12T08:42:13.001Z</time></trkpt><trkpt lat="45.49570305604429" lon="10.738593661225822"><ele>101.5</ele><time>2026-04-12T08:42:14.001Z</time></trkpt><trkpt lat="45.495775233921606" lon="10.738580261310227"><ele>101.33333333333333</ele><time>2026-04-12T08:42:15.001Z</time></trkpt><trkpt lat="45.49585403373112" lon="10.738565632241054"><ele>101.16666666666666</ele><time>2026-04-12T08:42:16.001Z</time></trkpt><trkpt lat="45.495934801430195" lon="10.73855063822513"><ele>101.0</ele><time>2026-04-12T08:42:17.001Z</time></trkpt><trkpt lat="45.49601012894064" lon="10.738532171624746"><ele>100.33333333333333</ele><time>2026-04-12T08:42:18.001Z</time></trkpt><trkpt lat="45.496081896033516" lon="10.738517333095013"><ele>99.66666666666666</ele><time>2026-04-12T08:42:19.001Z</time></trkpt><trkpt lat="45.49614981465681" lon="10.738503290270394"><ele>99.0</ele><time>2026-04-12T08:42:20.001Z</time></trkpt><trkpt lat="45.49622176129891" lon="10.738488414620242"><ele>98.33333333333334</ele><time>2026-04-12T08:42:21.001Z</time></trkpt><trkpt lat="45.496299266289924" lon="10.738472389742139"><ele>97.66666666666667</ele><time>2026-04-12T08:42:22.001Z</time></trkpt><trkpt lat="45.496380474233035" lon="10.73845559959883"><ele>97.0</ele><time>2026-04-12T08:42:23.001Z</time></trkpt><trkpt lat="45.496469018880234" lon="10.738438717155292"><ele>96.50000000000001</ele><time>2026-04-12T08:42:24.001Z</time></trkpt><trkpt lat="45.496560506726446" lon="10.73842066867141"><ele>96.0</ele><time>2026-04-12T08:42:25.001Z</time></trkpt><trkpt lat="45.496654986603716" lon="10.738402029938616"><ele>95.5</ele><time>2026-04-12T08:42:26.001Z</time></trkpt><trkpt lat="45.4967389506761" lon="10.738385465735124"><ele>95.0</ele><time>2026-04-12T08:42:27.001Z</time></trkpt><trkpt lat="45.496801847687976" lon="10.738373057581768"><ele>94.5</ele><time>2026-04-12T08:42:28.001Z</time></trkpt><trkpt lat="45.4968984862779" lon="10.738353992987312"><ele>94.0</ele><time>2026-04-12T08:42:30.001Z</time></trkpt><trkpt lat="45.49699372035712" lon="10.738335205481256"><ele>94.2</ele><time>2026-04-12T08:42:32.001Z</time></trkpt><trkpt lat="45.49710032147098" lon="10.738314175505504"><ele>94.4</ele><time>2026-04-12T08:42:34.001Z</time></trkpt><trkpt lat="45.49716829120836" lon="10.738300766623748"><ele>94.6</ele><time>2026-04-12T08:42:35.001Z</time></trkpt><trkpt lat="45.49724687154777" lon="10.738285266286614"><ele>94.8</ele><time>2026-04-12T08:42:36.001Z</time></trkpt><trkpt lat="45.49733859909047" lon="10.738267048161832"><ele>95.0</ele><time>2026-04-12T08:42:37.001Z</time></trkpt><trkpt lat="45.4974441638617" lon="10.73824592595761"><ele>95.0</ele><time>2026-04-12T08:42:38.001Z</time></trkpt><trkpt lat="45.497559306980996" lon="10.738221820786256"><ele>95.0</ele><time>2026-04-12T08:42:39.001Z</time></trkpt><trkpt lat="45.49768358513157" lon="10.738193542869663"><ele>95.0</ele><time>2026-04-12T08:42:40.001Z</time></trkpt><trkpt lat="45.49781731287186" lon="10.738161203545717"><ele>95.0</ele><time>2026-04-12T08:42:41.001Z</time></trkpt><trkpt lat="45.497963338878" lon="10.738119505377512"><ele>93.66666666666667</ele><time>2026-04-12T08:42:42.001Z</time></trkpt><trkpt lat="45.498115328968815" lon="10.738059457972993"><ele>92.33333333333333</ele><time>2026-04-12T08:42:43.001Z</time></trkpt><trkpt lat="45.49827608623386" lon="10.737988933350064"><ele>91.0</ele><time>2026-04-12T08:42:44.001Z</time></trkpt><trkpt lat="45.49844591959279" lon="10.737898486962123"><ele>91.0</ele><time>2026-04-12T08:42:45.001Z</time></trkpt><trkpt lat="45.498609848025" lon="10.73780102571757"><ele>91.0</ele><time>2026-04-12T08:42:46.001Z</time></trkpt><trkpt lat="45.49876367664311" lon="10.737708091549967"><ele>91.0</ele><time>2026-04-12T08:42:47.001Z</time></trkpt><trkpt lat="45.498899144689226" lon="10.737626750519516"><ele>89.75</ele><time>2026-04-12T08:42:48.001Z</time></trkpt><trkpt lat="45.49902030142121" lon="10.737554002479062"><ele>88.5</ele><time>2026-04-12T08:42:49.001Z</time></trkpt><trkpt lat="45.499129547303816" lon="10.73748903099581"><ele>87.25</ele><time>2026-04-12T08:42:50.001Z</time></trkpt><trkpt lat="45.49923538925184" lon="10.73742744932689"><ele>86.0</ele><time>2026-04-12T08:42:51.001Z</time></trkpt><trkpt lat="45.49933637307675" lon="10.737368692761633"><ele>86.0</ele><time>2026-04-12T08:42:52.001Z</time></trkpt><trkpt lat="45.49944177223164" lon="10.737320660226727"><ele>86.0</ele><time>2026-04-12T08:42:53.001Z</time></trkpt><trkpt lat="45.499559577566465" lon="10.73727823312004"><ele>86.0</ele><time>2026-04-12T08:42:54.001Z</time></trkpt><trkpt lat="45.4996839462437" lon="10.737241241190201"><ele>86.0</ele><time>2026-04-12T08:42:55.001Z</time></trkpt><trkpt lat="45.499819744911726" lon="10.737206116204662"><ele>86.0</ele><time>2026-04-12T08:42:56.001Z</time></trkpt><trkpt lat="45.49996056913487" lon="10.737170215671952"><ele>86.0</ele><time>2026-04-12T08:42:57.001Z</time></trkpt><trkpt lat="45.50010268619202" lon="10.73713326229807"><ele>86.0</ele><time>2026-04-12T08:42:58.001Z</time></trkpt><trkpt lat="45.50024079437868" lon="10.73709636500096"><ele>86.0</ele><time>2026-04-12T08:42:59.001Z</time></trkpt><trkpt lat="45.50036674251721" lon="10.73704300563224"><ele>86.0</ele><time>2026-04-12T08:43:00.001Z</time></trkpt><trkpt lat="45.500488231426345" lon="10.737023306573358"><ele>86.0</ele><time>2026-04-12T08:43:01.001Z</time></trkpt><trkpt lat="45.50059631135407" lon="10.736994379875949"><ele>86.0</ele><time>2026-04-12T08:43:02.001Z</time></trkpt><trkpt lat="45.50070253990509" lon="10.736969593452718"><ele>86.0</ele><time>2026-04-12T08:43:03.001Z</time></trkpt><trkpt lat="45.500802572974315" lon="10.73694057675049"><ele>86.0</ele><time>2026-04-12T08:43:04.001Z</time></trkpt><trkpt lat="45.500898482425214" lon="10.736910916857969"><ele>85.4</ele><time>2026-04-12T08:43:05.001Z</time></trkpt><trkpt lat="45.50099217756597" lon="10.736875936639425"><ele>84.8</ele><time>2026-04-12T08:43:06.001Z</time></trkpt><trkpt lat="45.501081829444466" lon="10.736848567998262"><ele>84.2</ele><time>2026-04-12T08:43:07.001Z</time></trkpt><trkpt lat="45.50117052154872" lon="10.736812904942255"><ele>83.60000000000001</ele><time>2026-04-12T08:43:08.001Z</time></trkpt><trkpt lat="45.50126271891088" lon="10.736771843477161"><ele>83.0</ele><time>2026-04-12T08:43:09.001Z</time></trkpt><trkpt lat="45.50136618549496" lon="10.736708318797348"><ele>82.80000000000001</ele><time>2026-04-12T08:43:10.001Z</time></trkpt><trkpt lat="45.501465775978765" lon="10.736646746821952"><ele>82.6</ele><time>2026-04-12T08:43:11.001Z</time></trkpt><trkpt lat="45.50155564107167" lon="10.736582896227905"><ele>82.4</ele><time>2026-04-12T08:43:12.001Z</time></trkpt><trkpt lat="45.50164097182244" lon="10.736540443893151"><ele>82.19999999999999</ele><time>2026-04-12T08:43:13.001Z</time></trkpt><trkpt lat="45.50172385116992" lon="10.736493247494307"><ele>82.0</ele><time>2026-04-12T08:43:14.001Z</time></trkpt><trkpt lat="45.501809073235755" lon="10.736445686784107"><ele>82.0</ele><time>2026-04-12T08:43:15.001Z</time></trkpt><trkpt lat="45.50188802678724" lon="10.736397265462998"><ele>82.0</ele><time>2026-04-12T08:43:16.001Z</time></trkpt><trkpt lat="45.50196326226085" lon="10.736355559014575"><ele>82.0</ele><time>2026-04-12T08:43:17.001Z</time></trkpt><trkpt lat="45.502036523712285" lon="10.736311724451408"><ele>82.0</ele><time>2026-04-12T08:43:18.001Z</time></trkpt><trkpt lat="45.50211080889595" lon="10.736267510455589"><ele>82.0</ele><time>2026-04-12T08:43:19.001Z</time></trkpt><trkpt lat="45.50219034580516" lon="10.736216168223633"><ele>82.0</ele><time>2026-04-12T08:43:20.001Z</time></trkpt><trkpt lat="45.50227453246197" lon="10.73616851028097"><ele>81.39999999999999</ele><time>2026-04-12T08:43:21.001Z</time></trkpt><trkpt lat="45.502360818193644" lon="10.73612410101941"><ele>80.8</ele><time>2026-04-12T08:43:22.001Z</time></trkpt><trkpt lat="45.50244835854284" lon="10.736079074897615"><ele>80.2</ele><time>2026-04-12T08:43:23.001Z</time></trkpt><trkpt lat="45.502539051340264" lon="10.73602499718693"><ele>79.6</ele><time>2026-04-12T08:43:24.001Z</time></trkpt><trkpt lat="45.50263441747701" lon="10.735972312715193"><ele>79.0</ele><time>2026-04-12T08:43:25.001Z</time></trkpt><trkpt lat="45.50272599462569" lon="10.735918649972415"><ele>78.2</ele><time>2026-04-12T08:43:26.001Z</time></trkpt><trkpt lat="45.50282155997168" lon="10.735870132784786"><ele>77.4</ele><time>2026-04-12T08:43:27.001Z</time></trkpt><trkpt lat="45.502918145462566" lon="10.735830987015223"><ele>76.6</ele><time>2026-04-12T08:43:28.001Z</time></trkpt><trkpt lat="45.50301190906371" lon="10.73579549135893"><ele>75.8</ele><time>2026-04-12T08:43:29.001Z</time></trkpt><trkpt lat="45.50309918195181" lon="10.735765061080674"><ele>75.0</ele><time>2026-04-12T08:43:30.001Z</time></trkpt><trkpt lat="45.50318196685884" lon="10.73574315238197"><ele>74.8</ele><time>2026-04-12T08:43:31.001Z</time></trkpt><trkpt lat="45.503262366604815" lon="10.735718989252646"><ele>74.6</ele><time>2026-04-12T08:43:32.001Z</time></trkpt><trkpt lat="45.50332913498127" lon="10.735700422355432"><ele>74.4</ele><time>2026-04-12T08:43:33.001Z</time></trkpt><trkpt lat="45.503440312994684" lon="10.735665355288043"><ele>74.2</ele><time>2026-04-12T08:43:35.001Z</time></trkpt><trkpt lat="45.50353118568183" lon="10.73565399771734"><ele>74.0</ele><time>2026-04-12T08:43:37.001Z</time></trkpt><trkpt lat="45.50363992643224" lon="10.735619560612237"><ele>73.8</ele><time>2026-04-12T08:43:39.001Z</time></trkpt><trkpt lat="45.50375123015095" lon="10.735597319929576"><ele>73.60000000000001</ele><time>2026-04-12T08:43:41.001Z</time></trkpt><trkpt lat="45.50384074943546" lon="10.735591186029108"><ele>73.4</ele><time>2026-04-12T08:43:43.001Z</time></trkpt><trkpt lat="45.503953588465855" lon="10.735633904521713"><ele>73.2</ele><time>2026-04-12T08:43:45.001Z</time></trkpt><trkpt lat="45.50402170242297" lon="10.735651327816631"><ele>73.0</ele><time>2026-04-12T08:43:46.001Z</time></trkpt><trkpt lat="45.50408522022592" lon="10.73564408382745"><ele>73.0</ele><time>2026-04-12T08:43:47.001Z</time></trkpt><trkpt lat="45.50418154410681" lon="10.735553538180184"><ele>73.0</ele><time>2026-04-12T08:43:49.001Z</time></trkpt><trkpt lat="45.504286757355835" lon="10.735480799639113"><ele>73.0</ele><time>2026-04-12T08:43:51.001Z</time></trkpt><trkpt lat="45.50436296472034" lon="10.735464257637528"><ele>73.0</ele><time>2026-04-12T08:43:52.001Z</time></trkpt><trkpt lat="45.504443970564225" lon="10.735441158152645"><ele>73.0</ele><time>2026-04-12T08:43:53.001Z</time></trkpt><trkpt lat="45.504525217477635" lon="10.735418830558093"><ele>73.4</ele><time>2026-04-12T08:43:54.001Z</time></trkpt><trkpt lat="45.504589868562405" lon="10.73540519177597"><ele>73.8</ele><time>2026-04-12T08:43:55.001Z</time></trkpt><trkpt lat="45.504682334454216" lon="10.735381561950982"><ele>74.2</ele><time>2026-04-12T08:43:57.001Z</time></trkpt><trkpt lat="45.504777931602305" lon="10.735358882561293"><ele>74.6</ele><time>2026-04-12T08:43:59.001Z</time></trkpt><trkpt lat="45.50489781584481" lon="10.73532882608625"><ele>75.0</ele><time>2026-04-12T08:44:01.001Z</time></trkpt><trkpt lat="45.50497597358912" lon="10.735312141476612"><ele>74.99999999999999</ele><time>2026-04-12T08:44:02.001Z</time></trkpt><trkpt lat="45.50505663600158" lon="10.735300563943973"><ele>75.0</ele><time>2026-04-12T08:44:03.001Z</time></trkpt><trkpt lat="45.50513227974126" lon="10.735283734247403"><ele>75.0</ele><time>2026-04-12T08:44:04.001Z</time></trkpt><trkpt lat="45.50520858714914" lon="10.735269043174359"><ele>75.0</ele><time>2026-04-12T08:44:05.001Z</time></trkpt><trkpt lat="45.50528045692629" lon="10.735254148488263"><ele>75.0</ele><time>2026-04-12T08:44:06.001Z</time></trkpt><trkpt lat="45.50534601450451" lon="10.735237823877423"><ele>74.99999999999999</ele><time>2026-04-12T08:44:07.001Z</time></trkpt><trkpt lat="45.50541966596107" lon="10.735216659464157"><ele>75.0</ele><time>2026-04-12T08:44:08.001Z</time></trkpt><trkpt lat="45.50550647126075" lon="10.735198518949502"><ele>75.4</ele><time>2026-04-12T08:44:09.001Z</time></trkpt><trkpt lat="45.50558403898234" lon="10.735183168729558"><ele>75.8</ele><time>2026-04-12T08:44:10.001Z</time></trkpt><trkpt lat="45.50564907368723" lon="10.735167449358968"><ele>76.2</ele><time>2026-04-12T08:44:11.001Z</time></trkpt><trkpt lat="45.505762689717415" lon="10.735182887118029"><ele>76.6</ele><time>2026-04-12T08:44:13.001Z</time></trkpt><trkpt lat="45.50586909148492" lon="10.73519395993443"><ele>77.0</ele><time>2026-04-12T08:44:15.001Z</time></trkpt><trkpt lat="45.505976152798155" lon="10.735272241873744"><ele>76.33333333333334</ele><time>2026-04-12T08:44:17.001Z</time></trkpt><trkpt lat="45.506079322768215" lon="10.735176375147889"><ele>75.66666666666667</ele><time>2026-04-12T08:44:19.001Z</time></trkpt><trkpt lat="45.50612952298117" lon="10.735102123675874"><ele>75.0</ele><time>2026-04-12T08:44:20.001Z</time></trkpt><trkpt lat="45.50619763980106" lon="10.735046798770144"><ele>74.33333333333333</ele><time>2026-04-12T08:44:21.001Z</time></trkpt><trkpt lat="45.50628092095881" lon="10.735056843377057"><ele>73.66666666666666</ele><time>2026-04-12T08:44:22.001Z</time></trkpt><trkpt lat="45.50635685594793" lon="10.73503615185611"><ele>73.0</ele><time>2026-04-12T08:44:23.001Z</time></trkpt><trkpt lat="45.50643434673651" lon="10.735018690860178"><ele>73.0</ele><time>2026-04-12T08:44:24.001Z</time></trkpt><trkpt lat="45.50651786534834" lon="10.735013212294868"><ele>73.0</ele><time>2026-04-12T08:44:25.001Z</time></trkpt><trkpt lat="45.506610570869725" lon="10.735014137201508"><ele>73.0</ele><time>2026-04-12T08:44:26.001Z</time></trkpt><trkpt lat="45.50670821634281" lon="10.734995059289952"><ele>73.0</ele><time>2026-04-12T08:44:27.001Z</time></trkpt><trkpt lat="45.506802064534455" lon="10.73498274257067"><ele>73.0</ele><time>2026-04-12T08:44:28.001Z</time></trkpt><trkpt lat="45.50689953606003" lon="10.734959083179918"><ele>73.0</ele><time>2026-04-12T08:44:29.001Z</time></trkpt><trkpt lat="45.50699864153646" lon="10.734924268024427"><ele>73.0</ele><time>2026-04-12T08:44:30.001Z</time></trkpt><trkpt lat="45.50709653938703" lon="10.734886514443287"><ele>73.0</ele><time>2026-04-12T08:44:31.001Z</time></trkpt><trkpt lat="45.507202405335505" lon="10.734841849874357"><ele>73.0</ele><time>2026-04-12T08:44:32.001Z</time></trkpt><trkpt lat="45.50731160712042" lon="10.73478615010286"><ele>73.0</ele><time>2026-04-12T08:44:33.001Z</time></trkpt><trkpt lat="45.50742304403197" lon="10.734729996434556"><ele>73.0</ele><time>2026-04-12T08:44:34.001Z</time></trkpt><trkpt lat="45.50753486807344" lon="10.734674627098826"><ele>73.0</ele><time>2026-04-12T08:44:35.001Z</time></trkpt><trkpt lat="45.50764462630326" lon="10.734613089976753"><ele>73.0</ele><time>2026-04-12T08:44:36.001Z</time></trkpt><trkpt lat="45.50775413467923" lon="10.734557485019852"><ele>73.0</ele><time>2026-04-12T08:44:37.001Z</time></trkpt><trkpt lat="45.5078654183616" lon="10.734501053589733"><ele>73.0</ele><time>2026-04-12T08:44:38.001Z</time></trkpt><trkpt lat="45.50797527780104" lon="10.734450329875413"><ele>73.0</ele><time>2026-04-12T08:44:39.001Z</time></trkpt><trkpt lat="45.508084146384434" lon="10.734394889971067"><ele>73.0</ele><time>2026-04-12T08:44:40.001Z</time></trkpt><trkpt lat="45.50819143585471" lon="10.734347790490196"><ele>73.0</ele><time>2026-04-12T08:44:41.001Z</time></trkpt><trkpt lat="45.508299127980344" lon="10.734297902496866"><ele>73.0</ele><time>2026-04-12T08:44:42.001Z</time></trkpt><trkpt lat="45.508407015245155" lon="10.73424960646201"><ele>73.0</ele><time>2026-04-12T08:44:43.001Z</time></trkpt><trkpt lat="45.508515121674556" lon="10.734198473438344"><ele>73.0</ele><time>2026-04-12T08:44:44.001Z</time></trkpt><trkpt lat="45.50861827047519" lon="10.734156018016336"><ele>73.0</ele><time>2026-04-12T08:44:45.001Z</time></trkpt><trkpt lat="45.50871540840242" lon="10.734107167202067"><ele>73.0</ele><time>2026-04-12T08:44:46.001Z</time></trkpt><trkpt lat="45.50880138961466" lon="10.73406447993447"><ele>73.2</ele><time>2026-04-12T08:44:47.001Z</time></trkpt><trkpt lat="45.508879019815794" lon="10.734014159496413"><ele>73.4</ele><time>2026-04-12T08:44:48.001Z</time></trkpt><trkpt lat="45.50897340687037" lon="10.733989789956498"><ele>73.60000000000001</ele><time>2026-04-12T08:44:49.001Z</time></trkpt><trkpt lat="45.50907273054815" lon="10.733944454136747"><ele>73.8</ele><time>2026-04-12T08:44:50.001Z</time></trkpt><trkpt lat="45.50917400089364" lon="10.733899033428154"><ele>74.0</ele><time>2026-04-12T08:44:51.001Z</time></trkpt><trkpt lat="45.50928189923156" lon="10.733845118053923"><ele>74.0</ele><time>2026-04-12T08:44:52.001Z</time></trkpt><trkpt lat="45.509400139266226" lon="10.733789799910523"><ele>74.0</ele><time>2026-04-12T08:44:53.001Z</time></trkpt><trkpt lat="45.50952425316951" lon="10.733737726860939"><ele>74.0</ele><time>2026-04-12T08:44:54.001Z</time></trkpt><trkpt lat="45.50964423271609" lon="10.733672975457553"><ele>74.0</ele><time>2026-04-12T08:44:55.001Z</time></trkpt><trkpt lat="45.50977468081296" lon="10.733616139563381"><ele>74.5</ele><time>2026-04-12T08:44:56.001Z</time></trkpt><trkpt lat="45.509906081569575" lon="10.733556745583305"><ele>75.0</ele><time>2026-04-12T08:44:57.001Z</time></trkpt><trkpt lat="45.51003938996185" lon="10.73349001365312"><ele>75.5</ele><time>2026-04-12T08:44:58.001Z</time></trkpt><trkpt lat="45.51017550846597" lon="10.733432245726684"><ele>76.0</ele><time>2026-04-12T08:44:59.001Z</time></trkpt><trkpt lat="45.510309751622835" lon="10.733370073197314"><ele>75.25</ele><time>2026-04-12T08:45:00.001Z</time></trkpt><trkpt lat="45.51044418501722" lon="10.733310640054102"><ele>74.5</ele><time>2026-04-12T08:45:01.001Z</time></trkpt><trkpt lat="45.51057807169335" lon="10.73324998036829"><ele>73.75</ele><time>2026-04-12T08:45:02.001Z</time></trkpt><trkpt lat="45.51070308294298" lon="10.733189561858865"><ele>73.0</ele><time>2026-04-12T08:45:03.001Z</time></trkpt><trkpt lat="45.51082433610971" lon="10.733128821562111"><ele>73.0</ele><time>2026-04-12T08:45:04.001Z</time></trkpt><trkpt lat="45.51094714132301" lon="10.733073289680561"><ele>73.0</ele><time>2026-04-12T08:45:05.001Z</time></trkpt><trkpt lat="45.511064605846" lon="10.733018004703226"><ele>73.0</ele><time>2026-04-12T08:45:06.001Z</time></trkpt><trkpt lat="45.51117871162417" lon="10.732964061415094"><ele>73.0</ele><time>2026-04-12T08:45:07.001Z</time></trkpt><trkpt lat="45.51128813485308" lon="10.732915389489255"><ele>73.4</ele><time>2026-04-12T08:45:08.001Z</time></trkpt><trkpt lat="45.51139168192819" lon="10.73287183024434"><ele>73.8</ele><time>2026-04-12T08:45:09.001Z</time></trkpt><trkpt lat="45.511488554043" lon="10.732824646300678"><ele>74.2</ele><time>2026-04-12T08:45:10.001Z</time></trkpt><trkpt lat="45.511580544139996" lon="10.732790870986312"><ele>74.6</ele><time>2026-04-12T08:45:11.001Z</time></trkpt><trkpt lat="45.51166699207424" lon="10.732760502207423"><ele>75.0</ele><time>2026-04-12T08:45:12.001Z</time></trkpt><trkpt lat="45.51174656567752" lon="10.732724125082933"><ele>75.4</ele><time>2026-04-12T08:45:13.001Z</time></trkpt><trkpt lat="45.51182845830148" lon="10.732678644888257"><ele>75.8</ele><time>2026-04-12T08:45:14.001Z</time></trkpt><trkpt lat="45.511918532884614" lon="10.732628049612964"><ele>76.2</ele><time>2026-04-12T08:45:15.001Z</time></trkpt><trkpt lat="45.51200972881731" lon="10.73257982812384"><ele>76.6</ele><time>2026-04-12T08:45:16.001Z</time></trkpt><trkpt lat="45.51210769061181" lon="10.732540566048025"><ele>77.0</ele><time>2026-04-12T08:45:17.001Z</time></trkpt><trkpt lat="45.51220385830229" lon="10.732497866025808"><ele>77.0</ele><time>2026-04-12T08:45:18.001Z</time></trkpt><trkpt lat="45.51230558663574" lon="10.73245819900673"><ele>77.0</ele><time>2026-04-12T08:45:19.001Z</time></trkpt><trkpt lat="45.5124037803862" lon="10.732411167743637"><ele>77.0</ele><time>2026-04-12T08:45:20.001Z</time></trkpt><trkpt lat="45.51250098314838" lon="10.732363884843775"><ele>77.0</ele><time>2026-04-12T08:45:21.001Z</time></trkpt><trkpt lat="45.512597964871894" lon="10.732314950140344"><ele>77.0</ele><time>2026-04-12T08:45:22.001Z</time></trkpt><trkpt lat="45.5126948191937" lon="10.732269247761872"><ele>77.0</ele><time>2026-04-12T08:45:23.001Z</time></trkpt><trkpt lat="45.51279040532226" lon="10.732219735940069"><ele>77.0</ele><time>2026-04-12T08:45:24.001Z</time></trkpt><trkpt lat="45.51289250417665" lon="10.73217828286878"><ele>77.0</ele><time>2026-04-12T08:45:25.001Z</time></trkpt><trkpt lat="45.51299925004922" lon="10.732127902572472"><ele>77.0</ele><time>2026-04-12T08:45:26.001Z</time></trkpt><trkpt lat="45.513116817158796" lon="10.732075192339641"><ele>77.0</ele><time>2026-04-12T08:45:27.001Z</time></trkpt><trkpt lat="45.513235756036146" lon="10.732016827420768"><ele>77.0</ele><time>2026-04-12T08:45:28.001Z</time></trkpt><trkpt lat="45.51335191197944" lon="10.73196144511044"><ele>77.0</ele><time>2026-04-12T08:45:29.001Z</time></trkpt><trkpt lat="45.51347069861658" lon="10.731910886599556"><ele>77.0</ele><time>2026-04-12T08:45:30.001Z</time></trkpt><trkpt lat="45.5135857920951" lon="10.731856218760795"><ele>77.0</ele><time>2026-04-12T08:45:31.001Z</time></trkpt><trkpt lat="45.51371337013085" lon="10.731806462599566"><ele>76.75</ele><time>2026-04-12T08:45:32.001Z</time></trkpt><trkpt lat="45.513841582349166" lon="10.731753134595797"><ele>76.5</ele><time>2026-04-12T08:45:33.001Z</time></trkpt><trkpt lat="45.51397593586218" lon="10.731701364614443"><ele>76.25</ele><time>2026-04-12T08:45:34.001Z</time></trkpt><trkpt lat="45.51410975848734" lon="10.73165630113661"><ele>76.0</ele><time>2026-04-12T08:45:35.001Z</time></trkpt><trkpt lat="45.51425002316182" lon="10.731608881619186"><ele>76.0</ele><time>2026-04-12T08:45:36.001Z</time></trkpt><trkpt lat="45.514388505296395" lon="10.731566273251321"><ele>76.0</ele><time>2026-04-12T08:45:37.001Z</time></trkpt><trkpt lat="45.514525319861285" lon="10.73151700862889"><ele>76.0</ele><time>2026-04-12T08:45:38.001Z</time></trkpt><trkpt lat="45.51466494173584" lon="10.731478803146977"><ele>76.0</ele><time>2026-04-12T08:45:39.001Z</time></trkpt><trkpt lat="45.514800948547816" lon="10.731439036298049"><ele>76.5</ele><time>2026-04-12T08:45:40.001Z</time></trkpt><trkpt lat="45.51493974446247" lon="10.73139625498862"><ele>77.0</ele><time>2026-04-12T08:45:41.001Z</time></trkpt><trkpt lat="45.51507901693351" lon="10.73135843532115"><ele>77.5</ele><time>2026-04-12T08:45:42.001Z</time></trkpt><trkpt lat="45.51521717380325" lon="10.731310189568731"><ele>78.0</ele><time>2026-04-12T08:45:43.001Z</time></trkpt><trkpt lat="45.515355103172716" lon="10.731265331746242"><ele>78.75</ele><time>2026-04-12T08:45:44.001Z</time></trkpt><trkpt lat="45.51549361034131" lon="10.731226052874389"><ele>79.5</ele><time>2026-04-12T08:45:45.001Z</time></trkpt><trkpt lat="45.51563445809445" lon="10.731179198252113"><ele>80.25</ele><time>2026-04-12T08:45:46.001Z</time></trkpt><trkpt lat="45.515769129446795" lon="10.731138238654575"><ele>81.0</ele><time>2026-04-12T08:45:47.001Z</time></trkpt><trkpt lat="45.51590663916139" lon="10.731090954988446"><ele>80.5</ele><time>2026-04-12T08:45:48.001Z</time></trkpt><trkpt lat="45.516044887978914" lon="10.731045799635853"><ele>80.0</ele><time>2026-04-12T08:45:49.001Z</time></trkpt><trkpt lat="45.51618454463213" lon="10.731008152908073"><ele>79.5</ele><time>2026-04-12T08:45:50.001Z</time></trkpt><trkpt lat="45.516320564553865" lon="10.730967532106245"><ele>79.0</ele><time>2026-04-12T08:45:51.001Z</time></trkpt><trkpt lat="45.5164557086431" lon="10.730924092800057"><ele>79.0</ele><time>2026-04-12T08:45:52.001Z</time></trkpt><trkpt lat="45.51659264524583" lon="10.730878878520066"><ele>79.0</ele><time>2026-04-12T08:45:53.001Z</time></trkpt><trkpt lat="45.516733371383545" lon="10.730835987504237"><ele>79.0</ele><time>2026-04-12T08:45:54.001Z</time></trkpt><trkpt lat="45.51687336883213" lon="10.730792077273767"><ele>79.0</ele><time>2026-04-12T08:45:55.001Z</time></trkpt><trkpt lat="45.517011930175826" lon="10.730746791709022"><ele>81.0</ele><time>2026-04-12T08:45:56.001Z</time></trkpt><trkpt lat="45.51714734124086" lon="10.730698438673606"><ele>83.0</ele><time>2026-04-12T08:45:57.001Z</time></trkpt><trkpt lat="45.51727782829019" lon="10.730650494357482"><ele>85.0</ele><time>2026-04-12T08:45:58.001Z</time></trkpt><trkpt lat="45.517408323919376" lon="10.730598968094519"><ele>87.0</ele><time>2026-04-12T08:45:59.001Z</time></trkpt><trkpt lat="45.517540728817835" lon="10.730548667453144"><ele>87.0</ele><time>2026-04-12T08:46:00.001Z</time></trkpt><trkpt lat="45.51767304223034" lon="10.730502596037741"><ele>87.0</ele><time>2026-04-12T08:46:01.001Z</time></trkpt><trkpt lat="45.51780961577477" lon="10.73045363373473"><ele>87.0</ele><time>2026-04-12T08:46:02.001Z</time></trkpt><trkpt lat="45.51794988451415" lon="10.730400907486487"><ele>87.0</ele><time>2026-04-12T08:46:03.001Z</time></trkpt><trkpt lat="45.518090915770834" lon="10.730344675768572"><ele>87.0</ele><time>2026-04-12T08:46:04.001Z</time></trkpt><trkpt lat="45.51823033191959" lon="10.730288008655322"><ele>87.0</ele><time>2026-04-12T08:46:05.001Z</time></trkpt><trkpt lat="45.51837092613066" lon="10.730235346157714"><ele>87.0</ele><time>2026-04-12T08:46:06Z</time></trkpt><trkpt lat="45.51851169387778" lon="10.730201021957834"><ele>87.0</ele><time>2026-04-12T08:46:07Z</time></trkpt><trkpt lat="45.51864670800503" lon="10.730148805348575"><ele>86.75</ele><time>2026-04-12T08:46:08Z</time></trkpt><trkpt lat="45.51878589721004" lon="10.73009497398052"><ele>86.5</ele><time>2026-04-12T08:46:09Z</time></trkpt><trkpt lat="45.518923710442884" lon="10.730041674806246"><ele>86.25</ele><time>2026-04-12T08:46:10Z</time></trkpt><trkpt lat="45.519058482248234" lon="10.729968438354648"><ele>86.0</ele><time>2026-04-12T08:46:11Z</time></trkpt><trkpt lat="45.51919773337451" lon="10.729918344841105"><ele>86.0</ele><time>2026-04-12T08:46:12Z</time></trkpt><trkpt lat="45.51934669881346" lon="10.729891041920887"><ele>86.0</ele><time>2026-04-12T08:46:13Z</time></trkpt><trkpt lat="45.51950471076633" lon="10.729844302532102"><ele>86.0</ele><time>2026-04-12T08:46:14Z</time></trkpt><trkpt lat="45.51966474868091" lon="10.729812114691608"><ele>85.33333333333334</ele><time>2026-04-12T08:46:15Z</time></trkpt><trkpt lat="45.51983027687332" lon="10.729792310434785"><ele>84.66666666666667</ele><time>2026-04-12T08:46:16Z</time></trkpt><trkpt lat="45.520001937162874" lon="10.729779019428152"><ele>84.0</ele><time>2026-04-12T08:46:17Z</time></trkpt><trkpt lat="45.52017864652142" lon="10.729767656469647"><ele>84.0</ele><time>2026-04-12T08:46:18Z</time></trkpt><trkpt lat="45.520356793544586" lon="10.729756545515334"><ele>84.0</ele><time>2026-04-12T08:46:19Z</time></trkpt><trkpt lat="45.52054321588407" lon="10.729745750906273"><ele>84.0</ele><time>2026-04-12T08:46:20Z</time></trkpt><trkpt lat="45.52072869319393" lon="10.729714940111743"><ele>85.33333333333333</ele><time>2026-04-12T08:46:21Z</time></trkpt><trkpt lat="45.520913818592945" lon="10.729702396232582"><ele>86.66666666666666</ele><time>2026-04-12T08:46:22Z</time></trkpt><trkpt lat="45.521103479062354" lon="10.729696383259556"><ele>88.0</ele><time>2026-04-12T08:46:23Z</time></trkpt><trkpt lat="45.521284715624546" lon="10.72968559413581"><ele>89.0</ele><time>2026-04-12T08:46:24Z</time></trkpt><trkpt lat="45.52146353214989" lon="10.729678523150273"><ele>90.0</ele><time>2026-04-12T08:46:25Z</time></trkpt><trkpt lat="45.521642995023065" lon="10.729673684055523"><ele>91.0</ele><time>2026-04-12T08:46:26Z</time></trkpt><trkpt lat="45.521814172985216" lon="10.72966539920515"><ele>91.0</ele><time>2026-04-12T08:46:27Z</time></trkpt><trkpt lat="45.521986953396166" lon="10.729652664814648"><ele>91.0</ele><time>2026-04-12T08:46:28Z</time></trkpt><trkpt lat="45.52215918437846" lon="10.729664344650342"><ele>91.0</ele><time>2026-04-12T08:46:29Z</time></trkpt><trkpt lat="45.522333780367674" lon="10.729649905043306"><ele>90.66666666666666</ele><time>2026-04-12T08:46:30Z</time></trkpt><trkpt lat="45.52250504153261" lon="10.72960797535397"><ele>90.33333333333333</ele><time>2026-04-12T08:46:31Z</time></trkpt><trkpt lat="45.52266229210113" lon="10.729596665375631"><ele>90.0</ele><time>2026-04-12T08:46:32Z</time></trkpt><trkpt lat="45.52283579358435" lon="10.729561718925767"><ele>90.0</ele><time>2026-04-12T08:46:33Z</time></trkpt><trkpt lat="45.52300694244695" lon="10.729515263167842"><ele>90.0</ele><time>2026-04-12T08:46:34Z</time></trkpt><trkpt lat="45.52316777775421" lon="10.729450310203035"><ele>90.0</ele><time>2026-04-12T08:46:35Z</time></trkpt><trkpt lat="45.52331858483034" lon="10.729402981417419"><ele>88.0</ele><time>2026-04-12T08:46:36Z</time></trkpt><trkpt lat="45.52347374034191" lon="10.729366869925494"><ele>86.0</ele><time>2026-04-12T08:46:37Z</time></trkpt><trkpt lat="45.52362133834516" lon="10.72932212188298"><ele>84.0</ele><time>2026-04-12T08:46:38Z</time></trkpt><trkpt lat="45.523765773917454" lon="10.729282017540688"><ele>83.75</ele><time>2026-04-12T08:46:39Z</time></trkpt><trkpt lat="45.52390819869207" lon="10.729252608160117"><ele>83.5</ele><time>2026-04-12T08:46:40Z</time></trkpt><trkpt lat="45.5240445187788" lon="10.729217451116195"><ele>83.25</ele><time>2026-04-12T08:46:41Z</time></trkpt><trkpt lat="45.524175602620595" lon="10.729167189225981"><ele>83.0</ele><time>2026-04-12T08:46:42Z</time></trkpt><trkpt lat="45.52430404734653" lon="10.729127190393372"><ele>83.0</ele><time>2026-04-12T08:46:43Z</time></trkpt><trkpt lat="45.524430414778415" lon="10.729091384224418"><ele>83.0</ele><time>2026-04-12T08:46:44Z</time></trkpt><trkpt lat="45.524547562748936" lon="10.729061888257265"><ele>83.0</ele><time>2026-04-12T08:46:45Z</time></trkpt><trkpt lat="45.524651447418" lon="10.729032386635163"><ele>83.0</ele><time>2026-04-12T08:46:46Z</time></trkpt><trkpt lat="45.524739584450735" lon="10.72900609537267"><ele>83.0</ele><time>2026-04-12T08:46:47Z</time></trkpt><trkpt lat="45.524810399180424" lon="10.728986376870985"><ele>82.25</ele><time>2026-04-12T08:46:48Z</time></trkpt><trkpt lat="45.524920520182256" lon="10.72896004653042"><ele>81.5</ele><time>2026-04-12T08:46:50Z</time></trkpt><trkpt lat="45.524988662845075" lon="10.728947776358789"><ele>80.75</ele><time>2026-04-12T08:46:52Z</time></trkpt><trkpt lat="45.525097459432715" lon="10.729022294682894"><ele>80.0</ele><time>2026-04-12T08:46:55Z</time></trkpt><trkpt lat="45.52511063739242" lon="10.729245074224268"><ele>80.0</ele><time>2026-04-12T08:46:57Z</time></trkpt><trkpt lat="45.52510291117891" lon="10.72937138052509"><ele>80.0</ele><time>2026-04-12T08:46:58Z</time></trkpt><trkpt lat="45.52509791779472" lon="10.729513855734512"><ele>80.0</ele><time>2026-04-12T08:46:59Z</time></trkpt><trkpt lat="45.52509760730333" lon="10.729668708344139"><ele>80.0</ele><time>2026-04-12T08:47:00Z</time></trkpt><trkpt lat="45.525098953976396" lon="10.729836026209393"><ele>80.0</ele><time>2026-04-12T08:47:01.001Z</time></trkpt><trkpt lat="45.52510234452759" lon="10.730016613791902"><ele>81.0</ele><time>2026-04-12T08:47:02.001Z</time></trkpt><trkpt lat="45.525106182317145" lon="10.730199306467583"><ele>82.0</ele><time>2026-04-12T08:47:03.001Z</time></trkpt><trkpt lat="45.525107728213406" lon="10.730372011693222"><ele>83.0</ele><time>2026-04-12T08:47:04.001Z</time></trkpt><trkpt lat="45.525112237569836" lon="10.730544987778766"><ele>84.0</ele><time>2026-04-12T08:47:05.001Z</time></trkpt><trkpt lat="45.52512603440342" lon="10.73071852805743"><ele>85.5</ele><time>2026-04-12T08:47:06.001Z</time></trkpt><trkpt lat="45.52515119095224" lon="10.730886819205335"><ele>87.0</ele><time>2026-04-12T08:47:07.001Z</time></trkpt><trkpt lat="45.52517595751797" lon="10.731058903832176"><ele>88.5</ele><time>2026-04-12T08:47:08.001Z</time></trkpt><trkpt lat="45.525244901766136" lon="10.731215155037038"><ele>90.0</ele><time>2026-04-12T08:47:09.001Z</time></trkpt><trkpt lat="45.525310343685824" lon="10.731372961072742"><ele>90.25</ele><time>2026-04-12T08:47:10.001Z</time></trkpt><trkpt lat="45.525389686138375" lon="10.731522509580106"><ele>90.5</ele><time>2026-04-12T08:47:11.001Z</time></trkpt><trkpt lat="45.52545759665103" lon="10.731684155711848"><ele>90.75</ele><time>2026-04-12T08:47:12.001Z</time></trkpt><trkpt lat="45.52553561372382" lon="10.731840681769333"><ele>91.0</ele><time>2026-04-12T08:47:13.001Z</time></trkpt><trkpt lat="45.525614636531365" lon="10.731999732328754"><ele>92.75</ele><time>2026-04-12T08:47:14.001Z</time></trkpt><trkpt lat="45.525694729974845" lon="10.732160937304842"><ele>94.5</ele><time>2026-04-12T08:47:15.001Z</time></trkpt><trkpt lat="45.525768592226385" lon="10.732324841086355"><ele>96.25</ele><time>2026-04-12T08:47:16.001Z</time></trkpt><trkpt lat="45.525840271131166" lon="10.732489267062233"><ele>98.0</ele><time>2026-04-12T08:47:17.001Z</time></trkpt><trkpt lat="45.52589552814279" lon="10.732659851026025"><ele>101.0</ele><time>2026-04-12T08:47:18.001Z</time></trkpt><trkpt lat="45.52593817288721" lon="10.732836078674833"><ele>104.0</ele><time>2026-04-12T08:47:19.001Z</time></trkpt><trkpt lat="45.52597270122296" lon="10.733019614098604"><ele>107.0</ele><time>2026-04-12T08:47:20.001Z</time></trkpt><trkpt lat="45.52600193727523" lon="10.733204432112469"><ele>110.0</ele><time>2026-04-12T08:47:21.001Z</time></trkpt><trkpt lat="45.526031201610344" lon="10.733385874434807"><ele>111.75</ele><time>2026-04-12T08:47:22.001Z</time></trkpt><trkpt lat="45.526061527523105" lon="10.733564542084736"><ele>113.5</ele><time>2026-04-12T08:47:23.001Z</time></trkpt><trkpt lat="45.526093904408306" lon="10.73374774729906"><ele>115.25</ele><time>2026-04-12T08:47:24.001Z</time></trkpt><trkpt lat="45.5261264864141" lon="10.733926157425454"><ele>117.0</ele><time>2026-04-12T08:47:25.001Z</time></trkpt><trkpt lat="45.526175444639335" lon="10.734091364459614"><ele>117.0</ele><time>2026-04-12T08:47:26.001Z</time></trkpt><trkpt lat="45.52622448922301" lon="10.734258652259266"><ele>117.0</ele><time>2026-04-12T08:47:27.001Z</time></trkpt><trkpt lat="45.52628100168217" lon="10.734414096660368"><ele>117.0</ele><time>2026-04-12T08:47:28.001Z</time></trkpt><trkpt lat="45.526338639506136" lon="10.734568900215397"><ele>117.0</ele><time>2026-04-12T08:47:29.001Z</time></trkpt><trkpt lat="45.52637657862917" lon="10.734725047477092"><ele>117.39999999999999</ele><time>2026-04-12T08:47:30.001Z</time></trkpt><trkpt lat="45.52641738744753" lon="10.734837776313201"><ele>117.79999999999998</ele><time>2026-04-12T08:47:31.001Z</time></trkpt><trkpt lat="45.52645146227634" lon="10.734943663377539"><ele>118.2</ele><time>2026-04-12T08:47:32.001Z</time></trkpt><trkpt lat="45.52647135632502" lon="10.735032527422407"><ele>118.6</ele><time>2026-04-12T08:47:33.001Z</time></trkpt><trkpt lat="45.5264950077501" lon="10.735144655436455"><ele>119.0</ele><time>2026-04-12T08:47:35.001Z</time></trkpt><trkpt lat="45.526676057249404" lon="10.735128662532462"><ele>119.0</ele><time>2026-04-12T08:47:38.001Z</time></trkpt><trkpt lat="45.52674727933697" lon="10.735062884169983"><ele>119.0</ele><time>2026-04-12T08:47:39.001Z</time></trkpt><trkpt lat="45.526845861977634" lon="10.735021461032606"><ele>119.0</ele><time>2026-04-12T08:47:40.001Z</time></trkpt><trkpt lat="45.526959452862016" lon="10.734987571642531"><ele>119.0</ele><time>2026-04-12T08:47:41.001Z</time></trkpt><trkpt lat="45.52708268738334" lon="10.734949570621302"><ele>119.0</ele><time>2026-04-12T08:47:42.001Z</time></trkpt><trkpt lat="45.5272188951904" lon="10.734911030947538"><ele>119.0</ele><time>2026-04-12T08:47:43.001Z</time></trkpt><trkpt lat="45.527363613177116" lon="10.734869713522945"><ele>119.0</ele><time>2026-04-12T08:47:44.001Z</time></trkpt><trkpt lat="45.527513766585606" lon="10.734832426305625"><ele>119.0</ele><time>2026-04-12T08:47:45.001Z</time></trkpt><trkpt lat="45.527676392393694" lon="10.734799438764183"><ele>119.0</ele><time>2026-04-12T08:47:46.001Z</time></trkpt><trkpt lat="45.527837462665524" lon="10.734762165896822"><ele>119.0</ele><time>2026-04-12T08:47:47.001Z</time></trkpt><trkpt lat="45.52799097595193" lon="10.734725490897175"><ele>119.0</ele><time>2026-04-12T08:47:48.001Z</time></trkpt><trkpt lat="45.52813749644969" lon="10.73469056455406"><ele>118.25</ele><time>2026-04-12T08:47:49.001Z</time></trkpt><trkpt lat="45.52828409637047" lon="10.734654503339957"><ele>117.5</ele><time>2026-04-12T08:47:50.001Z</time></trkpt><trkpt lat="45.52842870830822" lon="10.734628157892567"><ele>116.75</ele><time>2026-04-12T08:47:51.001Z</time></trkpt><trkpt lat="45.52857432401572" lon="10.73460128329435"><ele>116.0</ele><time>2026-04-12T08:47:52.001Z</time></trkpt><trkpt lat="45.528722786280696" lon="10.734578630603545"><ele>117.0</ele><time>2026-04-12T08:47:53.001Z</time></trkpt><trkpt lat="45.528873902321195" lon="10.734566428137272"><ele>118.0</ele><time>2026-04-12T08:47:54.001Z</time></trkpt><trkpt lat="45.52902903930412" lon="10.734573807761972"><ele>119.0</ele><time>2026-04-12T08:47:55.001Z</time></trkpt><trkpt lat="45.52918685278186" lon="10.734576902226259"><ele>119.0</ele><time>2026-04-12T08:47:56.001Z</time></trkpt><trkpt lat="45.529338026785126" lon="10.734580450500093"><ele>119.0</ele><time>2026-04-12T08:47:57Z</time></trkpt><trkpt lat="45.5294918622572" lon="10.73459253632855"><ele>119.0</ele><time>2026-04-12T08:47:58Z</time></trkpt><trkpt lat="45.52962535319312" lon="10.734612156072767"><ele>119.0</ele><time>2026-04-12T08:47:59Z</time></trkpt><trkpt lat="45.52974516760794" lon="10.73463593641185"><ele>119.0</ele><time>2026-04-12T08:48:00Z</time></trkpt><trkpt lat="45.5298610583442" lon="10.734676359196323"><ele>119.0</ele><time>2026-04-12T08:48:01Z</time></trkpt><trkpt lat="45.52997006120835" lon="10.734756866621886"><ele>119.0</ele><time>2026-04-12T08:48:02Z</time></trkpt><trkpt lat="45.530078534454304" lon="10.73483405760677"><ele>119.0</ele><time>2026-04-12T08:48:03Z</time></trkpt><trkpt lat="45.53019421618175" lon="10.734906827052674"><ele>119.0</ele><time>2026-04-12T08:48:04Z</time></trkpt><trkpt lat="45.53031011156714" lon="10.734999495574064"><ele>119.0</ele><time>2026-04-12T08:48:05Z</time></trkpt><trkpt lat="45.530441599156966" lon="10.735048100676048"><ele>119.0</ele><time>2026-04-12T08:48:06Z</time></trkpt><trkpt lat="45.53058587459928" lon="10.735063739927428"><ele>119.0</ele><time>2026-04-12T08:48:07Z</time></trkpt><trkpt lat="45.530734560043626" lon="10.73506883493158"><ele>118.66666666666666</ele><time>2026-04-12T08:48:08Z</time></trkpt><trkpt lat="45.53089134131963" lon="10.735067649301609"><ele>118.33333333333334</ele><time>2026-04-12T08:48:09Z</time></trkpt><trkpt lat="45.53104712271615" lon="10.735064176910512"><ele>118.0</ele><time>2026-04-12T08:48:10Z</time></trkpt><trkpt lat="45.531216771554455" lon="10.73505748242705"><ele>118.33333333333334</ele><time>2026-04-12T08:48:11Z</time></trkpt><trkpt lat="45.531383936445636" lon="10.735039637777906"><ele>118.66666666666666</ele><time>2026-04-12T08:48:12Z</time></trkpt><trkpt lat="45.53155840946679" lon="10.735025567239832"><ele>119.0</ele><time>2026-04-12T08:48:13Z</time></trkpt><trkpt lat="45.53173051893852" lon="10.735020794458467"><ele>119.0</ele><time>2026-04-12T08:48:14Z</time></trkpt><trkpt lat="45.53190233410863" lon="10.73505125395405"><ele>119.0</ele><time>2026-04-12T08:48:15Z</time></trkpt><trkpt lat="45.53207416257284" lon="10.735045882453814"><ele>119.0</ele><time>2026-04-12T08:48:16Z</time></trkpt><trkpt lat="45.53224337913498" lon="10.735072665839015"><ele>118.66666666666666</ele><time>2026-04-12T08:48:17Z</time></trkpt><trkpt lat="45.53241612042694" lon="10.735097285646978"><ele>118.33333333333334</ele><time>2026-04-12T08:48:18Z</time></trkpt><trkpt lat="45.532584698746156" lon="10.7350953051275"><ele>118.0</ele><time>2026-04-12T08:48:19Z</time></trkpt><trkpt lat="45.53274574806154" lon="10.735082854599389"><ele>118.33333333333334</ele><time>2026-04-12T08:48:20Z</time></trkpt><trkpt lat="45.53290924083211" lon="10.735068379737795"><ele>118.66666666666666</ele><time>2026-04-12T08:48:21Z</time></trkpt><trkpt lat="45.533081514789174" lon="10.73506823721949"><ele>119.0</ele><time>2026-04-12T08:48:22Z</time></trkpt><trkpt lat="45.53325227788566" lon="10.735061079013906"><ele>119.0</ele><time>2026-04-12T08:48:23Z</time></trkpt><trkpt lat="45.53342001765426" lon="10.735052647315817"><ele>119.0</ele><time>2026-04-12T08:48:24Z</time></trkpt><trkpt lat="45.533576328523864" lon="10.735038107659939"><ele>119.0</ele><time>2026-04-12T08:48:25Z</time></trkpt><trkpt lat="45.53373233421679" lon="10.735012714099721"><ele>119.0</ele><time>2026-04-12T08:48:26Z</time></trkpt><trkpt lat="45.533887628680496" lon="10.734969499719481"><ele>119.0</ele><time>2026-04-12T08:48:27Z</time></trkpt><trkpt lat="45.53404551344936" lon="10.734909712527825"><ele>119.0</ele><time>2026-04-12T08:48:28Z</time></trkpt><trkpt lat="45.53420114424267" lon="10.734833763841754"><ele>119.0</ele><time>2026-04-12T08:48:29Z</time></trkpt><trkpt lat="45.53435661931772" lon="10.734756540018788"><ele>119.0</ele><time>2026-04-12T08:48:30Z</time></trkpt><trkpt lat="45.53451081767143" lon="10.734682036361683"><ele>119.0</ele><time>2026-04-12T08:48:31Z</time></trkpt><trkpt lat="45.53466891531148" lon="10.734617957813981"><ele>119.0</ele><time>2026-04-12T08:48:32Z</time></trkpt><trkpt lat="45.53482900548877" lon="10.734574204565158"><ele>119.0</ele><time>2026-04-12T08:48:33Z</time></trkpt><trkpt lat="45.534988578780975" lon="10.734541590526979"><ele>119.0</ele><time>2026-04-12T08:48:34Z</time></trkpt><trkpt lat="45.535146444033984" lon="10.734525339551148"><ele>119.0</ele><time>2026-04-12T08:48:35Z</time></trkpt><trkpt lat="45.535284127312565" lon="10.734510103399174"><ele>119.0</ele><time>2026-04-12T08:48:36Z</time></trkpt><trkpt lat="45.53540863082692" lon="10.734502832508582"><ele>119.0</ele><time>2026-04-12T08:48:37Z</time></trkpt><trkpt lat="45.535536958637536" lon="10.734494324666471"><ele>119.0</ele><time>2026-04-12T08:48:38Z</time></trkpt><trkpt lat="45.535683066772144" lon="10.734494536283044"><ele>118.66666666666666</ele><time>2026-04-12T08:48:39Z</time></trkpt><trkpt lat="45.53583697207486" lon="10.73450512574497"><ele>118.33333333333334</ele><time>2026-04-12T08:48:40Z</time></trkpt><trkpt lat="45.535996200514155" lon="10.734524900488319"><ele>118.0</ele><time>2026-04-12T08:48:41Z</time></trkpt><trkpt lat="45.53615588265296" lon="10.734556613684662"><ele>118.0</ele><time>2026-04-12T08:48:42Z</time></trkpt><trkpt lat="45.53631319851547" lon="10.734582787809941"><ele>118.0</ele><time>2026-04-12T08:48:43Z</time></trkpt><trkpt lat="45.53647706791451" lon="10.734609551809978"><ele>118.0</ele><time>2026-04-12T08:48:44Z</time></trkpt><trkpt lat="45.53663159097204" lon="10.734641378974521"><ele>118.0</ele><time>2026-04-12T08:48:45Z</time></trkpt><trkpt lat="45.53678576069331" lon="10.734696430427814"><ele>118.0</ele><time>2026-04-12T08:48:46Z</time></trkpt><trkpt lat="45.53694010001822" lon="10.73474877859415"><ele>118.0</ele><time>2026-04-12T08:48:47Z</time></trkpt><trkpt lat="45.53708006227905" lon="10.734797946077672"><ele>119.0</ele><time>2026-04-12T08:48:48Z</time></trkpt><trkpt lat="45.53721632127791" lon="10.734834183306102"><ele>120.0</ele><time>2026-04-12T08:48:49Z</time></trkpt><trkpt lat="45.537360718026996" lon="10.734832337382826"><ele>121.0</ele><time>2026-04-12T08:48:50Z</time></trkpt><trkpt lat="45.537520633309654" lon="10.734801637466909"><ele>122.0</ele><time>2026-04-12T08:48:51Z</time></trkpt><trkpt lat="45.5376973353188" lon="10.734764430431936"><ele>122.0</ele><time>2026-04-12T08:48:52Z</time></trkpt><trkpt lat="45.53786562083027" lon="10.734733123139492"><ele>122.0</ele><time>2026-04-12T08:48:53Z</time></trkpt><trkpt lat="45.5380264652779" lon="10.734703761176485"><ele>122.0</ele><time>2026-04-12T08:48:54Z</time></trkpt><trkpt lat="45.538188427867844" lon="10.734675732252787"><ele>121.66666666666666</ele><time>2026-04-12T08:48:55Z</time></trkpt><trkpt lat="45.538354090994204" lon="10.73465125509679"><ele>121.33333333333334</ele><time>2026-04-12T08:48:56Z</time></trkpt><trkpt lat="45.53851479084111" lon="10.734622859016108"><ele>121.0</ele><time>2026-04-12T08:48:57Z</time></trkpt><trkpt lat="45.538678462754994" lon="10.73458937029897"><ele>121.66666666666667</ele><time>2026-04-12T08:48:58Z</time></trkpt><trkpt lat="45.53883479102885" lon="10.73456196101551"><ele>122.33333333333334</ele><time>2026-04-12T08:48:59Z</time></trkpt><trkpt lat="45.53898886680255" lon="10.734528035374137"><ele>123.0</ele><time>2026-04-12T08:49:00Z</time></trkpt><trkpt lat="45.53913844826018" lon="10.73449466634592"><ele>123.0</ele><time>2026-04-12T08:49:01Z</time></trkpt><trkpt lat="45.53928594255342" lon="10.734456120557573"><ele>123.0</ele><time>2026-04-12T08:49:02Z</time></trkpt><trkpt lat="45.53943405093644" lon="10.7344150673328"><ele>123.0</ele><time>2026-04-12T08:49:03Z</time></trkpt><trkpt lat="45.539574068091206" lon="10.73433820517576"><ele>122.66666666666666</ele><time>2026-04-12T08:49:04Z</time></trkpt><trkpt lat="45.539713065116395" lon="10.73423179888449"><ele>122.33333333333333</ele><time>2026-04-12T08:49:05Z</time></trkpt><trkpt lat="45.53984371621525" lon="10.734114704824027"><ele>122.0</ele><time>2026-04-12T08:49:06Z</time></trkpt><trkpt lat="45.539966862774946" lon="10.734012626686953"><ele>122.0</ele><time>2026-04-12T08:49:07Z</time></trkpt><trkpt lat="45.54007751162856" lon="10.73392705458478"><ele>122.0</ele><time>2026-04-12T08:49:08Z</time></trkpt><trkpt lat="45.54019300308766" lon="10.733871629853176"><ele>122.0</ele><time>2026-04-12T08:49:09Z</time></trkpt><trkpt lat="45.54030730273396" lon="10.733779186134463"><ele>122.0</ele><time>2026-04-12T08:49:10Z</time></trkpt><trkpt lat="45.540446212544" lon="10.73370370254056"><ele>121.0</ele><time>2026-04-12T08:49:11Z</time></trkpt><trkpt lat="45.54058934464602" lon="10.733616997924873"><ele>120.0</ele><time>2026-04-12T08:49:12Z</time></trkpt><trkpt lat="45.54073701622707" lon="10.733528969415001"><ele>119.0</ele><time>2026-04-12T08:49:13Z</time></trkpt><trkpt lat="45.54088527144451" lon="10.733435692745573"><ele>119.0</ele><time>2026-04-12T08:49:14Z</time></trkpt><trkpt lat="45.541038175393844" lon="10.733351524395077"><ele>119.0</ele><time>2026-04-12T08:49:15Z</time></trkpt><trkpt lat="45.541182997555104" lon="10.73327564612254"><ele>119.0</ele><time>2026-04-12T08:49:16Z</time></trkpt><trkpt lat="45.5413331975201" lon="10.733211660400364"><ele>119.0</ele><time>2026-04-12T08:49:17Z</time></trkpt><trkpt lat="45.54148313985034" lon="10.73314696691648"><ele>119.0</ele><time>2026-04-12T08:49:18Z</time></trkpt><trkpt lat="45.541630594089305" lon="10.733080993146553"><ele>119.0</ele><time>2026-04-12T08:49:19Z</time></trkpt><trkpt lat="45.54177382624927" lon="10.733018885327102"><ele>119.0</ele><time>2026-04-12T08:49:20Z</time></trkpt><trkpt lat="45.54190500122569" lon="10.732958435480672"><ele>119.0</ele><time>2026-04-12T08:49:21Z</time></trkpt><trkpt lat="45.54202767971935" lon="10.732899765238262"><ele>119.0</ele><time>2026-04-12T08:49:22Z</time></trkpt><trkpt lat="45.542137522816276" lon="10.732837713330055"><ele>119.0</ele><time>2026-04-12T08:49:23Z</time></trkpt><trkpt lat="45.54223416572465" lon="10.732755543877698"><ele>118.75</ele><time>2026-04-12T08:49:24Z</time></trkpt><trkpt lat="45.54232445748202" lon="10.732643579138653"><ele>118.5</ele><time>2026-04-12T08:49:25Z</time></trkpt><trkpt lat="45.5424052386778" lon="10.732502594415216"><ele>118.25</ele><time>2026-04-12T08:49:26Z</time></trkpt><trkpt lat="45.54248631773238" lon="10.732335575300345"><ele>118.0</ele><time>2026-04-12T08:49:27Z</time></trkpt><trkpt lat="45.5425926235832" lon="10.732185745599221"><ele>118.0</ele><time>2026-04-12T08:49:28Z</time></trkpt><trkpt lat="45.54269270980969" lon="10.732023449175745"><ele>118.0</ele><time>2026-04-12T08:49:29Z</time></trkpt><trkpt lat="45.54277942491865" lon="10.731854788166212"><ele>118.0</ele><time>2026-04-12T08:49:30Z</time></trkpt><trkpt lat="45.54287355102728" lon="10.731713967065764"><ele>118.0</ele><time>2026-04-12T08:49:31Z</time></trkpt><trkpt lat="45.54296501075489" lon="10.731573362921432"><ele>117.25</ele><time>2026-04-12T08:49:32Z</time></trkpt><trkpt lat="45.54305628429729" lon="10.73143510908163"><ele>116.5</ele><time>2026-04-12T08:49:33Z</time></trkpt><trkpt lat="45.5431542704413" lon="10.731296915898072"><ele>115.75</ele><time>2026-04-12T08:49:34Z</time></trkpt><trkpt lat="45.543267603858354" lon="10.731191893181405"><ele>115.0</ele><time>2026-04-12T08:49:35Z</time></trkpt><trkpt lat="45.54336627341761" lon="10.731051883695384"><ele>113.0</ele><time>2026-04-12T08:49:36Z</time></trkpt><trkpt lat="45.54347935883217" lon="10.730935632561776"><ele>111.0</ele><time>2026-04-12T08:49:37Z</time></trkpt><trkpt lat="45.543596158658694" lon="10.730817621659599"><ele>109.0</ele><time>2026-04-12T08:49:38Z</time></trkpt><trkpt lat="45.54371421325047" lon="10.730700023726031"><ele>107.0</ele><time>2026-04-12T08:49:39Z</time></trkpt><trkpt lat="45.54383106641129" lon="10.730589197266038"><ele>107.0</ele><time>2026-04-12T08:49:40Z</time></trkpt><trkpt lat="45.543953361873854" lon="10.730475840464637"><ele>107.0</ele><time>2026-04-12T08:49:41Z</time></trkpt><trkpt lat="45.54406941404008" lon="10.730363794433321"><ele>107.0</ele><time>2026-04-12T08:49:42Z</time></trkpt><trkpt lat="45.54419107097472" lon="10.730250764118113"><ele>107.0</ele><time>2026-04-12T08:49:43Z</time></trkpt><trkpt lat="45.5443178313075" lon="10.730135920099157"><ele>103.75</ele><time>2026-04-12T08:49:44Z</time></trkpt><trkpt lat="45.54444402022733" lon="10.73003272816539"><ele>100.5</ele><time>2026-04-12T08:49:45Z</time></trkpt><trkpt lat="45.5445667682897" lon="10.729925625876259"><ele>97.25</ele><time>2026-04-12T08:49:46Z</time></trkpt><trkpt lat="45.544684934086284" lon="10.72981378608471"><ele>94.0</ele><time>2026-04-12T08:49:47Z</time></trkpt><trkpt lat="45.544805799731265" lon="10.729708525278951"><ele>94.0</ele><time>2026-04-12T08:49:48Z</time></trkpt><trkpt lat="45.54492573178696" lon="10.729606322346488"><ele>94.0</ele><time>2026-04-12T08:49:49Z</time></trkpt><trkpt lat="45.545041569206376" lon="10.729506944845621"><ele>94.0</ele><time>2026-04-12T08:49:50Z</time></trkpt><trkpt lat="45.54516488842586" lon="10.729405279223586"><ele>94.0</ele><time>2026-04-12T08:49:51Z</time></trkpt><trkpt lat="45.545286419095376" lon="10.729304448649406"><ele>91.5</ele><time>2026-04-12T08:49:52Z</time></trkpt><trkpt lat="45.545411005590175" lon="10.729194044940071"><ele>89.0</ele><time>2026-04-12T08:49:53Z</time></trkpt><trkpt lat="45.54553207304169" lon="10.729088388138683"><ele>86.5</ele><time>2026-04-12T08:49:54Z</time></trkpt><trkpt lat="45.545654202660394" lon="10.728974352952045"><ele>84.0</ele><time>2026-04-12T08:49:55.001Z</time></trkpt><trkpt lat="45.54577594280514" lon="10.72886953117881"><ele>84.0</ele><time>2026-04-12T08:49:56.001Z</time></trkpt><trkpt lat="45.54589515087855" lon="10.728765706468465"><ele>84.0</ele><time>2026-04-12T08:49:57.001Z</time></trkpt><trkpt lat="45.54601041142565" lon="10.728665116096622"><ele>84.0</ele><time>2026-04-12T08:49:58.001Z</time></trkpt><trkpt lat="45.546123229614516" lon="10.72856761556967"><ele>84.0</ele><time>2026-04-12T08:49:59.001Z</time></trkpt><trkpt lat="45.54622911321526" lon="10.72847694212662"><ele>83.6</ele><time>2026-04-12T08:50:00.001Z</time></trkpt><trkpt lat="45.54633581536885" lon="10.728385878966808"><ele>83.2</ele><time>2026-04-12T08:50:01.001Z</time></trkpt><trkpt lat="45.546435176753405" lon="10.728296524638"><ele>82.8</ele><time>2026-04-12T08:50:02.001Z</time></trkpt><trkpt lat="45.54652613527926" lon="10.728218101995106"><ele>82.39999999999999</ele><time>2026-04-12T08:50:03Z</time></trkpt><trkpt lat="45.546603579775045" lon="10.728148060640134"><ele>82.0</ele><time>2026-04-12T08:50:04Z</time></trkpt><trkpt lat="45.546671971748765" lon="10.72809721212565"><ele>82.0</ele><time>2026-04-12T08:50:05Z</time></trkpt><trkpt lat="45.5467337518588" lon="10.728065866363718"><ele>82.0</ele><time>2026-04-12T08:50:07Z</time></trkpt><trkpt lat="45.546804453216026" lon="10.728313916091444"><ele>82.0</ele><time>2026-04-12T08:50:12Z</time></trkpt><trkpt lat="45.54680853831326" lon="10.728488218953235"><ele>82.0</ele><time>2026-04-12T08:50:13Z</time></trkpt><trkpt lat="45.54679306564892" lon="10.728688438391394"><ele>82.75</ele><time>2026-04-12T08:50:14Z</time></trkpt><trkpt lat="45.54679258751565" lon="10.728906117957179"><ele>83.5</ele><time>2026-04-12T08:50:15Z</time></trkpt><trkpt lat="45.54679631861401" lon="10.729130447312643"><ele>84.25</ele><time>2026-04-12T08:50:16Z</time></trkpt><trkpt lat="45.54680280958649" lon="10.729324032330688"><ele>85.0</ele><time>2026-04-12T08:50:17Z</time></trkpt><trkpt lat="45.54681054861911" lon="10.729493888063363"><ele>86.75</ele><time>2026-04-12T08:50:18Z</time></trkpt><trkpt lat="45.54682675566608" lon="10.729646682893685"><ele>88.5</ele><time>2026-04-12T08:50:19Z</time></trkpt><trkpt lat="45.546846793925184" lon="10.729806068401096"><ele>90.25</ele><time>2026-04-12T08:50:20Z</time></trkpt><trkpt lat="45.546871717769235" lon="10.729970945214244"><ele>92.0</ele><time>2026-04-12T08:50:21Z</time></trkpt><trkpt lat="45.54690263058562" lon="10.730136612527897"><ele>93.0</ele><time>2026-04-12T08:50:22Z</time></trkpt><trkpt lat="45.546927874214276" lon="10.730301093303062"><ele>94.0</ele><time>2026-04-12T08:50:23Z</time></trkpt><trkpt lat="45.54694440878993" lon="10.730471890128392"><ele>95.0</ele><time>2026-04-12T08:50:24Z</time></trkpt><trkpt lat="45.54693520012562" lon="10.73063253427767"><ele>96.0</ele><time>2026-04-12T08:50:25Z</time></trkpt><trkpt lat="45.54693439151557" lon="10.730769961803274"><ele>97.0</ele><time>2026-04-12T08:50:26Z</time></trkpt><trkpt lat="45.54693216626442" lon="10.730899848983594"><ele>97.00000000000001</ele><time>2026-04-12T08:50:27Z</time></trkpt><trkpt lat="45.54692906528885" lon="10.731007912508197"><ele>97.0</ele><time>2026-04-12T08:50:28Z</time></trkpt><trkpt lat="45.54693563134656" lon="10.731101199552986"><ele>97.0</ele><time>2026-04-12T08:50:29Z</time></trkpt><trkpt lat="45.546896379768036" lon="10.731274896106363"><ele>97.0</ele><time>2026-04-12T08:50:31Z</time></trkpt><trkpt lat="45.54683881500156" lon="10.731364927903803"><ele>97.00000000000001</ele><time>2026-04-12T08:50:32Z</time></trkpt><trkpt lat="45.54681244796633" lon="10.731466963738994"><ele>97.0</ele><time>2026-04-12T08:50:33Z</time></trkpt><trkpt lat="45.54682459355016" lon="10.731565628465809"><ele>97.85714285714285</ele><time>2026-04-12T08:50:34Z</time></trkpt><trkpt lat="45.54686430139423" lon="10.73165126450861"><ele>98.71428571428572</ele><time>2026-04-12T08:50:35Z</time></trkpt><trkpt lat="45.546890420517016" lon="10.731736256118797"><ele>99.57142857142857</ele><time>2026-04-12T08:50:36Z</time></trkpt><trkpt lat="45.54690158173437" lon="10.731831439544461"><ele>100.42857142857142</ele><time>2026-04-12T08:50:37Z</time></trkpt><trkpt lat="45.54690509698667" lon="10.731940740845088"><ele>101.28571428571428</ele><time>2026-04-12T08:50:38Z</time></trkpt><trkpt lat="45.54689319304323" lon="10.732054952326635"><ele>102.14285714285714</ele><time>2026-04-12T08:50:39Z</time></trkpt><trkpt lat="45.54686765236206" lon="10.732169597717782"><ele>103.0</ele><time>2026-04-12T08:50:40Z</time></trkpt><trkpt lat="45.54682782823172" lon="10.732274666031907"><ele>103.80000000000001</ele><time>2026-04-12T08:50:41Z</time></trkpt><trkpt lat="45.54677466339412" lon="10.73236931731478"><ele>104.6</ele><time>2026-04-12T08:50:42Z</time></trkpt><trkpt lat="45.5467254631028" lon="10.732445584894231"><ele>105.39999999999999</ele><time>2026-04-12T08:50:43Z</time></trkpt><trkpt lat="45.54664271748064" lon="10.73256071007945"><ele>106.19999999999999</ele><time>2026-04-12T08:50:45Z</time></trkpt><trkpt lat="45.546564557984325" lon="10.732627058738586"><ele>107.0</ele><time>2026-04-12T08:50:46Z</time></trkpt><trkpt lat="45.54645265143846" lon="10.732726687232773"><ele>107.66666666666666</ele><time>2026-04-12T08:50:47Z</time></trkpt><trkpt lat="45.54633548736846" lon="10.732880003344881"><ele>108.33333333333334</ele><time>2026-04-12T08:50:48Z</time></trkpt><trkpt lat="45.54619834602801" lon="10.733010067992394"><ele>109.0</ele><time>2026-04-12T08:50:49Z</time></trkpt><trkpt lat="45.5460859151506" lon="10.733151867943704"><ele>109.25</ele><time>2026-04-12T08:50:50Z</time></trkpt><trkpt lat="45.54598764985582" lon="10.733292040867001"><ele>109.5</ele><time>2026-04-12T08:50:51Z</time></trkpt><trkpt lat="45.54586364504549" lon="10.733377094960735"><ele>109.75</ele><time>2026-04-12T08:50:52Z</time></trkpt><trkpt lat="45.54571911588498" lon="10.733464708225851"><ele>110.0</ele><time>2026-04-12T08:50:53Z</time></trkpt><trkpt lat="45.545548587001086" lon="10.73355148621237"><ele>108.66666666666666</ele><time>2026-04-12T08:50:54Z</time></trkpt><trkpt lat="45.54537685059775" lon="10.733667906855098"><ele>107.33333333333334</ele><time>2026-04-12T08:50:55Z</time></trkpt><trkpt lat="45.545211371020336" lon="10.733773612210053"><ele>106.0</ele><time>2026-04-12T08:50:56Z</time></trkpt><trkpt lat="45.54506026361585" lon="10.733865538060373"><ele>106.0</ele><time>2026-04-12T08:50:57Z</time></trkpt><trkpt lat="45.544917544212026" lon="10.733971989271462"><ele>106.0</ele><time>2026-04-12T08:50:58Z</time></trkpt><trkpt lat="45.544799073919414" lon="10.734115706717095"><ele>106.0</ele><time>2026-04-12T08:50:59Z</time></trkpt><trkpt lat="45.54469961928834" lon="10.734298216992444"><ele>105.66666666666667</ele><time>2026-04-12T08:51:00Z</time></trkpt><trkpt lat="45.54461637669519" lon="10.7345070294358"><ele>105.33333333333334</ele><time>2026-04-12T08:51:01Z</time></trkpt><trkpt lat="45.54456561006239" lon="10.734756762319005"><ele>105.0</ele><time>2026-04-12T08:51:02Z</time></trkpt><trkpt lat="45.54454196389914" lon="10.73501943172682"><ele>106.0</ele><time>2026-04-12T08:51:03Z</time></trkpt><trkpt lat="45.54453127726181" lon="10.735308380565835"><ele>107.0</ele><time>2026-04-12T08:51:04Z</time></trkpt><trkpt lat="45.544509082788785" lon="10.73559947599149"><ele>108.0</ele><time>2026-04-12T08:51:05Z</time></trkpt><trkpt lat="45.5444927502283" lon="10.735897511214716"><ele>108.33333333333334</ele><time>2026-04-12T08:51:06Z</time></trkpt><trkpt lat="45.54448924811431" lon="10.73620034461282"><ele>108.66666666666667</ele><time>2026-04-12T08:51:07Z</time></trkpt><trkpt lat="45.544487405443554" lon="10.736501727632028"><ele>109.0</ele><time>2026-04-12T08:51:08Z</time></trkpt><trkpt lat="45.544477742487345" lon="10.736806188252228"><ele>109.33333333333334</ele><time>2026-04-12T08:51:09Z</time></trkpt><trkpt lat="45.54446457852108" lon="10.737102044401222"><ele>109.66666666666666</ele><time>2026-04-12T08:51:10Z</time></trkpt><trkpt lat="45.54445336764871" lon="10.737394914028444"><ele>110.0</ele><time>2026-04-12T08:51:11Z</time></trkpt><trkpt lat="45.54443126213719" lon="10.737678870617858"><ele>110.33333333333333</ele><time>2026-04-12T08:51:12Z</time></trkpt><trkpt lat="45.54440253724556" lon="10.737961741052194"><ele>110.66666666666666</ele><time>2026-04-12T08:51:13Z</time></trkpt><trkpt lat="45.54433836977174" lon="10.738222490055529"><ele>111.0</ele><time>2026-04-12T08:51:14Z</time></trkpt><trkpt lat="45.544276172652694" lon="10.73848968162094"><ele>112.0</ele><time>2026-04-12T08:51:15Z</time></trkpt><trkpt lat="45.54420452768835" lon="10.738747046182196"><ele>113.0</ele><time>2026-04-12T08:51:16Z</time></trkpt><trkpt lat="45.544114172995876" lon="10.738997390932905"><ele>114.0</ele><time>2026-04-12T08:51:17Z</time></trkpt><trkpt lat="45.54401041780821" lon="10.73923519484586"><ele>114.66666666666666</ele><time>2026-04-12T08:51:18Z</time></trkpt><trkpt lat="45.543893955395454" lon="10.739460322946607"><ele>115.33333333333333</ele><time>2026-04-12T08:51:19Z</time></trkpt><trkpt lat="45.54376657151812" lon="10.739674803752864"><ele>116.0</ele><time>2026-04-12T08:51:20Z</time></trkpt><trkpt lat="45.54362970104911" lon="10.739873500812939"><ele>115.0</ele><time>2026-04-12T08:51:21Z</time></trkpt><trkpt lat="45.54348000094788" lon="10.740067048186676"><ele>114.0</ele><time>2026-04-12T08:51:22Z</time></trkpt><trkpt lat="45.54333831681888" lon="10.740271859876731"><ele>113.0</ele><time>2026-04-12T08:51:23Z</time></trkpt><trkpt lat="45.543186701723734" lon="10.740459195011343"><ele>113.0</ele><time>2026-04-12T08:51:24Z</time></trkpt><trkpt lat="45.54303073606134" lon="10.740649578370634"><ele>113.0</ele><time>2026-04-12T08:51:25Z</time></trkpt><trkpt lat="45.5428793389919" lon="10.740841997591732"><ele>113.0</ele><time>2026-04-12T08:51:26Z</time></trkpt><trkpt lat="45.54272843524197" lon="10.741036564287157"><ele>112.33333333333333</ele><time>2026-04-12T08:51:27Z</time></trkpt><trkpt lat="45.54256758878149" lon="10.741213433091264"><ele>111.66666666666666</ele><time>2026-04-12T08:51:28Z</time></trkpt><trkpt lat="45.54241346625219" lon="10.741407545456669"><ele>111.0</ele><time>2026-04-12T08:51:29Z</time></trkpt><trkpt lat="45.54226062486114" lon="10.741600898948708"><ele>111.0</ele><time>2026-04-12T08:51:30Z</time></trkpt><trkpt lat="45.54212356980943" lon="10.741818262149456"><ele>111.0</ele><time>2026-04-12T08:51:31Z</time></trkpt><trkpt lat="45.54197657769773" lon="10.742013428224261"><ele>111.0</ele><time>2026-04-12T08:51:32Z</time></trkpt><trkpt lat="45.541833754610956" lon="10.742218564976966"><ele>112.0</ele><time>2026-04-12T08:51:33Z</time></trkpt><trkpt lat="45.54170324406297" lon="10.742436824072225"><ele>113.0</ele><time>2026-04-12T08:51:34Z</time></trkpt><trkpt lat="45.5415828613901" lon="10.742665956456118"><ele>114.0</ele><time>2026-04-12T08:51:35Z</time></trkpt><trkpt lat="45.54146653743458" lon="10.742895605311555"><ele>115.66666666666666</ele><time>2026-04-12T08:51:36Z</time></trkpt><trkpt lat="45.54135230669933" lon="10.743128188272768"><ele>117.33333333333333</ele><time>2026-04-12T08:51:37Z</time></trkpt><trkpt lat="45.54124172837505" lon="10.743360467204418"><ele>119.0</ele><time>2026-04-12T08:51:38Z</time></trkpt><trkpt lat="45.54113623790625" lon="10.743592592127788"><ele>119.66666666666666</ele><time>2026-04-12T08:51:39Z</time></trkpt><trkpt lat="45.541031100315756" lon="10.74381621478573"><ele>120.33333333333334</ele><time>2026-04-12T08:51:40Z</time></trkpt><trkpt lat="45.54092515162963" lon="10.744033953924248"><ele>121.0</ele><time>2026-04-12T08:51:41Z</time></trkpt><trkpt lat="45.54080990098124" lon="10.744237686015003"><ele>123.0</ele><time>2026-04-12T08:51:42Z</time></trkpt><trkpt lat="45.54066573335014" lon="10.74439698242227"><ele>125.0</ele><time>2026-04-12T08:51:43Z</time></trkpt><trkpt lat="45.54052350955592" lon="10.744562854244746"><ele>127.0</ele><time>2026-04-12T08:51:44Z</time></trkpt><trkpt lat="45.54037567350426" lon="10.74471803472265"><ele>127.0</ele><time>2026-04-12T08:51:45Z</time></trkpt><trkpt lat="45.54022110920021" lon="10.744860165569628"><ele>127.0</ele><time>2026-04-12T08:51:46Z</time></trkpt><trkpt lat="45.54006094981042" lon="10.744993476428563"><ele>127.0</ele><time>2026-04-12T08:51:47Z</time></trkpt><trkpt lat="45.539894655108604" lon="10.745111295663563"><ele>127.0</ele><time>2026-04-12T08:51:48Z</time></trkpt><trkpt lat="45.539724221885365" lon="10.745210663650388"><ele>127.0</ele><time>2026-04-12T08:51:49Z</time></trkpt><trkpt lat="45.53955123395526" lon="10.745288050525028"><ele>127.0</ele><time>2026-04-12T08:51:50Z</time></trkpt><trkpt lat="45.53937518258161" lon="10.745341142945094"><ele>128.0</ele><time>2026-04-12T08:51:51Z</time></trkpt><trkpt lat="45.53919877418599" lon="10.745378594059884"><ele>129.0</ele><time>2026-04-12T08:51:52Z</time></trkpt><trkpt lat="45.539017022653695" lon="10.745404912119843"><ele>130.0</ele><time>2026-04-12T08:51:53Z</time></trkpt><trkpt lat="45.538836168176616" lon="10.745411352278925"><ele>130.33333333333334</ele><time>2026-04-12T08:51:54Z</time></trkpt><trkpt lat="45.538646288664715" lon="10.745400871027417"><ele>130.66666666666666</ele><time>2026-04-12T08:51:55Z</time></trkpt><trkpt lat="45.538447192018594" lon="10.745387798782309"><ele>131.0</ele><time>2026-04-12T08:51:56Z</time></trkpt><trkpt lat="45.53824070322695" lon="10.745374263883628"><ele>131.0</ele><time>2026-04-12T08:51:57Z</time></trkpt><trkpt lat="45.53803395999757" lon="10.745360829842097"><ele>131.0</ele><time>2026-04-12T08:51:58Z</time></trkpt><trkpt lat="45.53782386008364" lon="10.745367591693482"><ele>131.0</ele><time>2026-04-12T08:51:59Z</time></trkpt><trkpt lat="45.53762122427855" lon="10.745354386222624"><ele>130.33333333333331</ele><time>2026-04-12T08:52:00Z</time></trkpt><trkpt lat="45.53742790239843" lon="10.745320409866844"><ele>129.66666666666666</ele><time>2026-04-12T08:52:01Z</time></trkpt><trkpt lat="45.53723768983903" lon="10.745308128564437"><ele>129.0</ele><time>2026-04-12T08:52:02Z</time></trkpt><trkpt lat="45.53704648153169" lon="10.745295671613261"><ele>129.0</ele><time>2026-04-12T08:52:03Z</time></trkpt><trkpt lat="45.53685631478514" lon="10.745305708634742"><ele>129.0</ele><time>2026-04-12T08:52:04Z</time></trkpt><trkpt lat="45.53666805695913" lon="10.745272081074456"><ele>129.0</ele><time>2026-04-12T08:52:05Z</time></trkpt><trkpt lat="45.53648120172714" lon="10.745269115156102"><ele>129.0</ele><time>2026-04-12T08:52:06Z</time></trkpt><trkpt lat="45.53629268296583" lon="10.745296786955747"><ele>129.0</ele><time>2026-04-12T08:52:07Z</time></trkpt><trkpt lat="45.53610065997831" lon="10.745319747641402"><ele>129.0</ele><time>2026-04-12T08:52:08Z</time></trkpt><trkpt lat="45.535908031846574" lon="10.745362678316999"><ele>129.66666666666666</ele><time>2026-04-12T08:52:09Z</time></trkpt><trkpt lat="45.53571380111349" lon="10.745390834621688"><ele>130.33333333333331</ele><time>2026-04-12T08:52:10Z</time></trkpt><trkpt lat="45.535518786509705" lon="10.745448172173907"><ele>131.0</ele><time>2026-04-12T08:52:11Z</time></trkpt><trkpt lat="45.53532872733473" lon="10.745529867139565"><ele>131.66666666666666</ele><time>2026-04-12T08:52:12Z</time></trkpt><trkpt lat="45.53514995258557" lon="10.745645168361886"><ele>132.33333333333334</ele><time>2026-04-12T08:52:13Z</time></trkpt><trkpt lat="45.53496992046645" lon="10.745749640840545"><ele>133.0</ele><time>2026-04-12T08:52:14Z</time></trkpt><trkpt lat="45.534793429437336" lon="10.745867266426183"><ele>133.0</ele><time>2026-04-12T08:52:15Z</time></trkpt><trkpt lat="45.53461284043222" lon="10.745958579332683"><ele>133.0</ele><time>2026-04-12T08:52:16Z</time></trkpt><trkpt lat="45.53443530037967" lon="10.746071410241418"><ele>133.0</ele><time>2026-04-12T08:52:17Z</time></trkpt><trkpt lat="45.53425888552239" lon="10.746183526065172"><ele>134.0</ele><time>2026-04-12T08:52:18Z</time></trkpt><trkpt lat="45.534090092353736" lon="10.74629079810071"><ele>135.0</ele><time>2026-04-12T08:52:19Z</time></trkpt><trkpt lat="45.53392583445778" lon="10.746395187926613"><ele>136.0</ele><time>2026-04-12T08:52:20Z</time></trkpt><trkpt lat="45.5337656657822" lon="10.746496978885622"><ele>137.0</ele><time>2026-04-12T08:52:21Z</time></trkpt><trkpt lat="45.53360532977202" lon="10.746598876229706"><ele>138.0</ele><time>2026-04-12T08:52:22Z</time></trkpt><trkpt lat="45.53344634253869" lon="10.746701280470635"><ele>139.0</ele><time>2026-04-12T08:52:23Z</time></trkpt><trkpt lat="45.533290439730955" lon="10.746803976149446"><ele>140.33333333333334</ele><time>2026-04-12T08:52:24Z</time></trkpt><trkpt lat="45.53313413862402" lon="10.74690691641416"><ele>141.66666666666666</ele><time>2026-04-12T08:52:25Z</time></trkpt><trkpt lat="45.53297761847278" lon="10.747010000913649"><ele>143.0</ele><time>2026-04-12T08:52:26Z</time></trkpt><trkpt lat="45.5328190496178" lon="10.747114391324525"><ele>143.0</ele><time>2026-04-12T08:52:27Z</time></trkpt><trkpt lat="45.53266115092975" lon="10.74721828800339"><ele>143.0</ele><time>2026-04-12T08:52:28Z</time></trkpt><trkpt lat="45.53250131016325" lon="10.747322399800915"><ele>143.0</ele><time>2026-04-12T08:52:29Z</time></trkpt><trkpt lat="45.53234051658898" lon="10.747424856823706"><ele>143.0</ele><time>2026-04-12T08:52:30Z</time></trkpt><trkpt lat="45.532181536580445" lon="10.74752615846735"><ele>143.0</ele><time>2026-04-12T08:52:31Z</time></trkpt><trkpt lat="45.532016859721544" lon="10.747629106601071"><ele>143.0</ele><time>2026-04-12T08:52:32Z</time></trkpt><trkpt lat="45.53185200738209" lon="10.747750995876059"><ele>146.33333333333331</ele><time>2026-04-12T08:52:33Z</time></trkpt><trkpt lat="45.53168205523957" lon="10.747856959925391"><ele>149.66666666666666</ele><time>2026-04-12T08:52:34Z</time></trkpt><trkpt lat="45.531511788054395" lon="10.747960453842227"><ele>153.0</ele><time>2026-04-12T08:52:35Z</time></trkpt><trkpt lat="45.53133723253329" lon="10.748069369088897"><ele>150.33333333333334</ele><time>2026-04-12T08:52:36Z</time></trkpt><trkpt lat="45.53117215932234" lon="10.748174683789387"><ele>147.66666666666669</ele><time>2026-04-12T08:52:37Z</time></trkpt><trkpt lat="45.53100330246548" lon="10.748280302742517"><ele>145.0</ele><time>2026-04-12T08:52:38Z</time></trkpt><trkpt lat="45.53082552311693" lon="10.748365008123951"><ele>145.0</ele><time>2026-04-12T08:52:39Z</time></trkpt><trkpt lat="45.530670190742924" lon="10.748497339810031"><ele>145.0</ele><time>2026-04-12T08:52:40Z</time></trkpt><trkpt lat="45.53050971063403" lon="10.748616608556453"><ele>145.0</ele><time>2026-04-12T08:52:41Z</time></trkpt><trkpt lat="45.530358684560674" lon="10.748747537677472"><ele>146.33333333333334</ele><time>2026-04-12T08:52:42Z</time></trkpt><trkpt lat="45.53021609313936" lon="10.748895034563857"><ele>147.66666666666666</ele><time>2026-04-12T08:52:43Z</time></trkpt><trkpt lat="45.53009626724464" lon="10.749050477537772"><ele>149.0</ele><time>2026-04-12T08:52:44Z</time></trkpt><trkpt lat="45.52997689525403" lon="10.749264876656254"><ele>151.0</ele><time>2026-04-12T08:52:45Z</time></trkpt><trkpt lat="45.529876352765676" lon="10.749478560441528"><ele>153.0</ele><time>2026-04-12T08:52:46Z</time></trkpt><trkpt lat="45.52978436613093" lon="10.749703254007951"><ele>155.0</ele><time>2026-04-12T08:52:47Z</time></trkpt><trkpt lat="45.52971003046223" lon="10.74993859909015"><ele>155.0</ele><time>2026-04-12T08:52:48Z</time></trkpt><trkpt lat="45.529657238903894" lon="10.750183217827301"><ele>155.0</ele><time>2026-04-12T08:52:49Z</time></trkpt><trkpt lat="45.52961704430226" lon="10.750421218842556"><ele>155.0</ele><time>2026-04-12T08:52:50Z</time></trkpt><trkpt lat="45.529597210583034" lon="10.750633775931728"><ele>155.0</ele><time>2026-04-12T08:52:51Z</time></trkpt><trkpt lat="45.5295932541989" lon="10.750828108503246"><ele>155.0</ele><time>2026-04-12T08:52:52Z</time></trkpt><trkpt lat="45.5296004444787" lon="10.750999085955083"><ele>155.0</ele><time>2026-04-12T08:52:53Z</time></trkpt><trkpt lat="45.52963251519336" lon="10.751167347822678"><ele>155.0</ele><time>2026-04-12T08:52:54Z</time></trkpt><trkpt lat="45.52969590047145" lon="10.751323726738041"><ele>155.0</ele><time>2026-04-12T08:52:55Z</time></trkpt><trkpt lat="45.52976806296198" lon="10.751463920561582"><ele>155.0</ele><time>2026-04-12T08:52:56Z</time></trkpt><trkpt lat="45.5298318021279" lon="10.751593095707687"><ele>155.0</ele><time>2026-04-12T08:52:57Z</time></trkpt><trkpt lat="45.52988415608407" lon="10.751707714886486"><ele>155.0</ele><time>2026-04-12T08:52:58Z</time></trkpt><trkpt lat="45.529937531157614" lon="10.751808756169199"><ele>155.0</ele><time>2026-04-12T08:52:59Z</time></trkpt><trkpt lat="45.52998198391925" lon="10.751905181424776"><ele>154.66666666666666</ele><time>2026-04-12T08:53:00Z</time></trkpt><trkpt lat="45.530027043791875" lon="10.752003065737577"><ele>154.33333333333331</ele><time>2026-04-12T08:53:01Z</time></trkpt><trkpt lat="45.53006992163541" lon="10.752096733858082"><ele>154.0</ele><time>2026-04-12T08:53:02Z</time></trkpt><trkpt lat="45.530115498586945" lon="10.752182855355263"><ele>153.66666666666666</ele><time>2026-04-12T08:53:03Z</time></trkpt><trkpt lat="45.53015163975432" lon="10.75225660509255"><ele>153.33333333333334</ele><time>2026-04-12T08:53:04Z</time></trkpt><trkpt lat="45.53020834783038" lon="10.752380809910349"><ele>153.0</ele><time>2026-04-12T08:53:06Z</time></trkpt><trkpt lat="45.53026432120302" lon="10.752485817720212"><ele>153.0</ele><time>2026-04-12T08:53:08Z</time></trkpt><trkpt lat="45.53030703946435" lon="10.752576999517611"><ele>153.0</ele><time>2026-04-12T08:53:10Z</time></trkpt><trkpt lat="45.530349561296035" lon="10.752668227931212"><ele>153.0</ele><time>2026-04-12T08:53:13Z</time></trkpt><trkpt lat="45.53038867523027" lon="10.752741293548238"><ele>153.0</ele><time>2026-04-12T08:53:17Z</time></trkpt><trkpt lat="45.53045398611917" lon="10.752854784545745"><ele>153.0</ele><time>2026-04-12T08:53:27Z</time></trkpt><trkpt lat="45.53050147328357" lon="10.752924151200768"><ele>153.0</ele><time>2026-04-12T08:53:28Z</time></trkpt><trkpt lat="45.5305578259078" lon="10.752992399826796"><ele>152.83333333333334</ele><time>2026-04-12T08:53:29Z</time></trkpt><trkpt lat="45.530626301282325" lon="10.753049643607113"><ele>152.66666666666666</ele><time>2026-04-12T08:53:30Z</time></trkpt><trkpt lat="45.530700032289914" lon="10.753111677700414"><ele>152.5</ele><time>2026-04-12T08:53:31Z</time></trkpt><trkpt lat="45.53077803925652" lon="10.75317694344136"><ele>152.33333333333331</ele><time>2026-04-12T08:53:32Z</time></trkpt><trkpt lat="45.53086087213572" lon="10.753241851630522"><ele>152.16666666666666</ele><time>2026-04-12T08:53:33Z</time></trkpt><trkpt lat="45.53094237200851" lon="10.753291367174585"><ele>152.0</ele><time>2026-04-12T08:53:34Z</time></trkpt><trkpt lat="45.531019975531855" lon="10.753328177460574"><ele>152.0</ele><time>2026-04-12T08:53:35Z</time></trkpt><trkpt lat="45.53109485021688" lon="10.75334420972719"><ele>152.0</ele><time>2026-04-12T08:53:36Z</time></trkpt><trkpt lat="45.53117264270059" lon="10.753353448339203"><ele>152.0</ele><time>2026-04-12T08:53:37Z</time></trkpt><trkpt lat="45.531261095877625" lon="10.753361994360013"><ele>152.0</ele><time>2026-04-12T08:53:38Z</time></trkpt><trkpt lat="45.531353889374074" lon="10.7533681444066"><ele>152.0</ele><time>2026-04-12T08:53:39Z</time></trkpt><trkpt lat="45.53145256135092" lon="10.753368143308526"><ele>152.0</ele><time>2026-04-12T08:53:40Z</time></trkpt><trkpt lat="45.531561105409345" lon="10.75336925820507"><ele>152.5</ele><time>2026-04-12T08:53:41Z</time></trkpt><trkpt lat="45.53167751688834" lon="10.753362875511508"><ele>153.0</ele><time>2026-04-12T08:53:42Z</time></trkpt><trkpt lat="45.53180255717806" lon="10.753352586707422"><ele>153.5</ele><time>2026-04-12T08:53:43Z</time></trkpt><trkpt lat="45.53193252468479" lon="10.753339149350824"><ele>154.0</ele><time>2026-04-12T08:53:44Z</time></trkpt><trkpt lat="45.53206701258615" lon="10.753337699170222"><ele>154.25</ele><time>2026-04-12T08:53:45Z</time></trkpt><trkpt lat="45.53220890064267" lon="10.753328648514728"><ele>154.5</ele><time>2026-04-12T08:53:46Z</time></trkpt><trkpt lat="45.53235586803805" lon="10.753321789455974"><ele>154.75</ele><time>2026-04-12T08:53:47Z</time></trkpt><trkpt lat="45.532505872928375" lon="10.753313471154414"><ele>155.0</ele><time>2026-04-12T08:53:48Z</time></trkpt><trkpt lat="45.53266345583002" lon="10.75330001552814"><ele>155.0</ele><time>2026-04-12T08:53:49Z</time></trkpt><trkpt lat="45.532824374750064" lon="10.753292257778586"><ele>155.0</ele><time>2026-04-12T08:53:50Z</time></trkpt><trkpt lat="45.532988034771215" lon="10.75328363112363"><ele>155.0</ele><time>2026-04-12T08:53:51Z</time></trkpt><trkpt lat="45.533154273376425" lon="10.75327812264653"><ele>155.33333333333331</ele><time>2026-04-12T08:53:52Z</time></trkpt><trkpt lat="45.53332128927386" lon="10.753274074202492"><ele>155.66666666666666</ele><time>2026-04-12T08:53:53Z</time></trkpt><trkpt lat="45.53349799638003" lon="10.753271665625523"><ele>156.0</ele><time>2026-04-12T08:53:54Z</time></trkpt><trkpt lat="45.53367626602708" lon="10.753275403774811"><ele>157.33333333333334</ele><time>2026-04-12T08:53:55Z</time></trkpt><trkpt lat="45.5338542001147" lon="10.753292486156473"><ele>158.66666666666669</ele><time>2026-04-12T08:53:56Z</time></trkpt><trkpt lat="45.53402312546259" lon="10.753359013388943"><ele>160.0</ele><time>2026-04-12T08:53:57Z</time></trkpt><trkpt lat="45.534191386781416" lon="10.753409793961549"><ele>160.0</ele><time>2026-04-12T08:53:58Z</time></trkpt><trkpt lat="45.53434837454047" lon="10.753500786712474"><ele>160.0</ele><time>2026-04-12T08:53:59Z</time></trkpt><trkpt lat="45.53449502735899" lon="10.753622472150791"><ele>160.0</ele><time>2026-04-12T08:54:00Z</time></trkpt><trkpt lat="45.53463751554093" lon="10.75374530251369"><ele>158.66666666666669</ele><time>2026-04-12T08:54:01Z</time></trkpt><trkpt lat="45.534773299754455" lon="10.75387811697264"><ele>157.33333333333334</ele><time>2026-04-12T08:54:02Z</time></trkpt><trkpt lat="45.53490098355665" lon="10.754025902845433"><ele>156.0</ele><time>2026-04-12T08:54:03Z</time></trkpt><trkpt lat="45.53501555700278" lon="10.754191210340197"><ele>156.0</ele><time>2026-04-12T08:54:04Z</time></trkpt><trkpt lat="45.535122499609045" lon="10.75436948143031"><ele>156.0</ele><time>2026-04-12T08:54:05Z</time></trkpt><trkpt lat="45.535215375975206" lon="10.75454987714768"><ele>156.0</ele><time>2026-04-12T08:54:06Z</time></trkpt><trkpt lat="45.535304470085414" lon="10.75475208549733"><ele>156.0</ele><time>2026-04-12T08:54:07Z</time></trkpt><trkpt lat="45.535380144736706" lon="10.754947857045343"><ele>156.0</ele><time>2026-04-12T08:54:08Z</time></trkpt><trkpt lat="45.53546708001178" lon="10.755144588636876"><ele>156.0</ele><time>2026-04-12T08:54:09Z</time></trkpt><trkpt lat="45.535531912229814" lon="10.755357340596209"><ele>156.66666666666666</ele><time>2026-04-12T08:54:10Z</time></trkpt><trkpt lat="45.53557568441845" lon="10.755584680360172"><ele>157.33333333333331</ele><time>2026-04-12T08:54:11Z</time></trkpt><trkpt lat="45.535628973659385" lon="10.755806711534595"><ele>158.0</ele><time>2026-04-12T08:54:12Z</time></trkpt><trkpt lat="45.53567068999168" lon="10.756029079671457"><ele>158.66666666666666</ele><time>2026-04-12T08:54:13Z</time></trkpt><trkpt lat="45.53570544353194" lon="10.75625975616834"><ele>159.33333333333334</ele><time>2026-04-12T08:54:14Z</time></trkpt><trkpt lat="45.53572708894439" lon="10.756487956844218"><ele>160.0</ele><time>2026-04-12T08:54:15Z</time></trkpt><trkpt lat="45.53573424821295" lon="10.756716490808861"><ele>162.66666666666669</ele><time>2026-04-12T08:54:16Z</time></trkpt><trkpt lat="45.53572444147556" lon="10.756950929164672"><ele>165.33333333333334</ele><time>2026-04-12T08:54:17Z</time></trkpt><trkpt lat="45.53570800512051" lon="10.757180238557492"><ele>168.0</ele><time>2026-04-12T08:54:18Z</time></trkpt><trkpt lat="45.53568050226892" lon="10.757407903309604"><ele>168.0</ele><time>2026-04-12T08:54:19Z</time></trkpt><trkpt lat="45.53564094156877" lon="10.757627930390477"><ele>168.0</ele><time>2026-04-12T08:54:20Z</time></trkpt><trkpt lat="45.53558992414319" lon="10.757845752599186"><ele>168.0</ele><time>2026-04-12T08:54:21Z</time></trkpt><trkpt lat="45.5355261350261" lon="10.758063212301444"><ele>169.0</ele><time>2026-04-12T08:54:22Z</time></trkpt><trkpt lat="45.535451215824985" lon="10.758271790116916"><ele>170.0</ele><time>2026-04-12T08:54:23Z</time></trkpt><trkpt lat="45.53536014228843" lon="10.758473744615623"><ele>171.0</ele><time>2026-04-12T08:54:24Z</time></trkpt><trkpt lat="45.53526304823077" lon="10.758681034590776"><ele>171.0</ele><time>2026-04-12T08:54:25Z</time></trkpt><trkpt lat="45.53516475729032" lon="10.758889866095808"><ele>171.0</ele><time>2026-04-12T08:54:26Z</time></trkpt><trkpt lat="45.53506751945685" lon="10.759096460253973"><ele>171.0</ele><time>2026-04-12T08:54:27Z</time></trkpt><trkpt lat="45.53497976879438" lon="10.759321591666362"><ele>174.66666666666666</ele><time>2026-04-12T08:54:28Z</time></trkpt><trkpt lat="45.53487940025082" lon="10.759533233915722"><ele>178.33333333333331</ele><time>2026-04-12T08:54:29Z</time></trkpt><trkpt lat="45.5347668952771" lon="10.759735505347553"><ele>182.0</ele><time>2026-04-12T08:54:30Z</time></trkpt><trkpt lat="45.53466476196563" lon="10.759952902005331"><ele>182.0</ele><time>2026-04-12T08:54:31Z</time></trkpt><trkpt lat="45.53456195270577" lon="10.760171737235021"><ele>182.0</ele><time>2026-04-12T08:54:32Z</time></trkpt><trkpt lat="45.53445933754468" lon="10.760390159394177"><ele>182.0</ele><time>2026-04-12T08:54:33Z</time></trkpt><trkpt lat="45.53435435347768" lon="10.760615003952857"><ele>180.66666666666666</ele><time>2026-04-12T08:54:34Z</time></trkpt><trkpt lat="45.53425797012313" lon="10.760842647771604"><ele>179.33333333333334</ele><time>2026-04-12T08:54:35Z</time></trkpt><trkpt lat="45.534171853059235" lon="10.761077652930803"><ele>178.0</ele><time>2026-04-12T08:54:36Z</time></trkpt><trkpt lat="45.53409824995163" lon="10.761312756421276"><ele>178.0</ele><time>2026-04-12T08:54:37Z</time></trkpt><trkpt lat="45.5340315810865" lon="10.761548576842477"><ele>178.0</ele><time>2026-04-12T08:54:38Z</time></trkpt><trkpt lat="45.53397087338154" lon="10.761779548011575"><ele>178.0</ele><time>2026-04-12T08:54:39Z</time></trkpt><trkpt lat="45.53391648926501" lon="10.762020145551064"><ele>176.66666666666669</ele><time>2026-04-12T08:54:40Z</time></trkpt><trkpt lat="45.533913474249424" lon="10.762278071187122"><ele>175.33333333333334</ele><time>2026-04-12T08:54:41Z</time></trkpt><trkpt lat="45.53391904051282" lon="10.762537547185453"><ele>174.0</ele><time>2026-04-12T08:54:42Z</time></trkpt><trkpt lat="45.53391399893384" lon="10.762801850756682"><ele>173.33333333333334</ele><time>2026-04-12T08:54:43Z</time></trkpt><trkpt lat="45.53392743097168" lon="10.763063420395328"><ele>172.66666666666669</ele><time>2026-04-12T08:54:44Z</time></trkpt><trkpt lat="45.53395182112356" lon="10.76331164065028"><ele>172.0</ele><time>2026-04-12T08:54:45Z</time></trkpt><trkpt lat="45.53397663482762" lon="10.763527133971133"><ele>172.0</ele><time>2026-04-12T08:54:46Z</time></trkpt><trkpt lat="45.53400249083974" lon="10.763716907082221"><ele>172.0</ele><time>2026-04-12T08:54:47Z</time></trkpt><trkpt lat="45.534025335203744" lon="10.76388208563664"><ele>172.0</ele><time>2026-04-12T08:54:48Z</time></trkpt><trkpt lat="45.53404975443151" lon="10.764020143561707"><ele>172.0</ele><time>2026-04-12T08:54:49Z</time></trkpt><trkpt lat="45.53405946645753" lon="10.76411848686644"><ele>172.0</ele><time>2026-04-12T08:54:50Z</time></trkpt><trkpt lat="45.53404474398275" lon="10.764228169490433"><ele>172.0</ele><time>2026-04-12T08:54:51Z</time></trkpt><trkpt lat="45.5340358627463" lon="10.764340710603134"><ele>172.0</ele><time>2026-04-12T08:54:52Z</time></trkpt><trkpt lat="45.5339574642038" lon="10.76443371101772"><ele>172.0</ele><time>2026-04-12T08:54:53Z</time></trkpt><trkpt lat="45.5339353518" lon="10.7645583855479"><ele>172.0</ele><time>2026-04-12T08:54:54Z</time></trkpt><trkpt lat="45.53395434632194" lon="10.76470402855276"><ele>172.0</ele><time>2026-04-12T08:54:55Z</time></trkpt><trkpt lat="45.53405443462884" lon="10.764829547762165"><ele>173.0</ele><time>2026-04-12T08:54:56Z</time></trkpt><trkpt lat="45.53414407754982" lon="10.764918080463554"><ele>174.0</ele><time>2026-04-12T08:54:57Z</time></trkpt><trkpt lat="45.53423575021416" lon="10.76498248637421"><ele>175.0</ele><time>2026-04-12T08:54:58Z</time></trkpt><trkpt lat="45.53436390874145" lon="10.76491727806267"><ele>176.0</ele><time>2026-04-12T08:54:59Z</time></trkpt><trkpt lat="45.534490099474766" lon="10.764884004194736"><ele>176.66666666666666</ele><time>2026-04-12T08:55:00Z</time></trkpt><trkpt lat="45.53461407084322" lon="10.764927382490427"><ele>177.33333333333334</ele><time>2026-04-12T08:55:01Z</time></trkpt><trkpt lat="45.534750904886984" lon="10.765048198100217"><ele>178.0</ele><time>2026-04-12T08:55:02Z</time></trkpt><trkpt lat="45.53489217201486" lon="10.765215770017203"><ele>178.0</ele><time>2026-04-12T08:55:03Z</time></trkpt><trkpt lat="45.53505151790168" lon="10.765364308296524"><ele>178.0</ele><time>2026-04-12T08:55:04Z</time></trkpt><trkpt lat="45.53519065468931" lon="10.7655132479811"><ele>178.0</ele><time>2026-04-12T08:55:05Z</time></trkpt><trkpt lat="45.535311661337566" lon="10.765666096564711"><ele>178.66666666666669</ele><time>2026-04-12T08:55:06Z</time></trkpt><trkpt lat="45.53542078053702" lon="10.765829373751364"><ele>179.33333333333334</ele><time>2026-04-12T08:55:07Z</time></trkpt><trkpt lat="45.53552642914994" lon="10.766003212352196"><ele>180.0</ele><time>2026-04-12T08:55:08Z</time></trkpt><trkpt lat="45.53564217834857" lon="10.766177940872407"><ele>180.0</ele><time>2026-04-12T08:55:09Z</time></trkpt><trkpt lat="45.535754537429895" lon="10.766361244822289"><ele>180.0</ele><time>2026-04-12T08:55:10Z</time></trkpt><trkpt lat="45.535868570635515" lon="10.766546361823101"><ele>180.0</ele><time>2026-04-12T08:55:11Z</time></trkpt><trkpt lat="45.535983764877706" lon="10.766737287702842"><ele>180.33333333333334</ele><time>2026-04-12T08:55:12Z</time></trkpt><trkpt lat="45.53610111875885" lon="10.766927055700911"><ele>180.66666666666669</ele><time>2026-04-12T08:55:13Z</time></trkpt><trkpt lat="45.53622013022058" lon="10.767125135915538"><ele>181.0</ele><time>2026-04-12T08:55:14Z</time></trkpt><trkpt lat="45.53634420037804" lon="10.76732224005435"><ele>182.0</ele><time>2026-04-12T08:55:15Z</time></trkpt><trkpt lat="45.53646576911555" lon="10.767514075652956"><ele>183.0</ele><time>2026-04-12T08:55:16Z</time></trkpt><trkpt lat="45.53658510811782" lon="10.767703536395093"><ele>184.0</ele><time>2026-04-12T08:55:17Z</time></trkpt><trkpt lat="45.53669954135592" lon="10.767878545277231"><ele>184.75</ele><time>2026-04-12T08:55:18Z</time></trkpt><trkpt lat="45.536799318383785" lon="10.76803247862138"><ele>185.5</ele><time>2026-04-12T08:55:19Z</time></trkpt><trkpt lat="45.53687931134257" lon="10.768148090538398"><ele>186.25</ele><time>2026-04-12T08:55:20Z</time></trkpt><trkpt lat="45.53695974214419" lon="10.768262338866297"><ele>187.0</ele><time>2026-04-12T08:55:21Z</time></trkpt><trkpt lat="45.53704196153558" lon="10.768379618253341"><ele>187.75</ele><time>2026-04-12T08:55:22Z</time></trkpt><trkpt lat="45.537130823669855" lon="10.76850421737007"><ele>188.5</ele><time>2026-04-12T08:55:23Z</time></trkpt><trkpt lat="45.5372175276748" lon="10.768629485350544"><ele>189.25</ele><time>2026-04-12T08:55:24Z</time></trkpt><trkpt lat="45.53730548825974" lon="10.768759590693897"><ele>190.0</ele><time>2026-04-12T08:55:25Z</time></trkpt><trkpt lat="45.53739348121498" lon="10.76888711709446"><ele>190.25</ele><time>2026-04-12T08:55:26Z</time></trkpt><trkpt lat="45.537479450600955" lon="10.769017892128634"><ele>190.5</ele><time>2026-04-12T08:55:27Z</time></trkpt><trkpt lat="45.537570918794714" lon="10.769154073347787"><ele>190.75</ele><time>2026-04-12T08:55:28Z</time></trkpt><trkpt lat="45.53765828797915" lon="10.769299589607359"><ele>191.0</ele><time>2026-04-12T08:55:29Z</time></trkpt><trkpt lat="45.5377437361578" lon="10.769456252530109"><ele>191.0</ele><time>2026-04-12T08:55:30Z</time></trkpt><trkpt lat="45.537829651991565" lon="10.769614263500955"><ele>191.0</ele><time>2026-04-12T08:55:31Z</time></trkpt><trkpt lat="45.53791327858615" lon="10.769775873586516"><ele>191.0</ele><time>2026-04-12T08:55:32Z</time></trkpt><trkpt lat="45.53799433654622" lon="10.76994956369688"><ele>191.0</ele><time>2026-04-12T08:55:33Z</time></trkpt><trkpt lat="45.53805832380573" lon="10.770131635247077"><ele>190.60000000000002</ele><time>2026-04-12T08:55:34Z</time></trkpt><trkpt lat="45.538126013863305" lon="10.770293903239654"><ele>190.2</ele><time>2026-04-12T08:55:35Z</time></trkpt><trkpt lat="45.53818993320361" lon="10.770412563982642"><ele>189.8</ele><time>2026-04-12T08:55:36Z</time></trkpt><trkpt lat="45.538228650171966" lon="10.77052275329018"><ele>189.39999999999998</ele><time>2026-04-12T08:55:37Z</time></trkpt><trkpt lat="45.53826972972576" lon="10.770632992039205"><ele>189.0</ele><time>2026-04-12T08:55:38Z</time></trkpt><trkpt lat="45.538316659043446" lon="10.770754224952475"><ele>189.0</ele><time>2026-04-12T08:55:39Z</time></trkpt><trkpt lat="45.53836980731266" lon="10.770893566511978"><ele>189.0</ele><time>2026-04-12T08:55:40Z</time></trkpt><trkpt lat="45.53843539336303" lon="10.771045414593873"><ele>189.0</ele><time>2026-04-12T08:55:41Z</time></trkpt><trkpt lat="45.538505108225905" lon="10.77120632465777"><ele>189.0</ele><time>2026-04-12T08:55:42Z</time></trkpt><trkpt lat="45.53858008507242" lon="10.771373891159243"><ele>188.75</ele><time>2026-04-12T08:55:43Z</time></trkpt><trkpt lat="45.53865736486442" lon="10.771546829485803"><ele>188.5</ele><time>2026-04-12T08:55:44Z</time></trkpt><trkpt lat="45.53873371471065" lon="10.771720943760874"><ele>188.25</ele><time>2026-04-12T08:55:45Z</time></trkpt><trkpt lat="45.538807962431996" lon="10.771890413453864"><ele>188.0</ele><time>2026-04-12T08:55:46Z</time></trkpt><trkpt lat="45.53888016534754" lon="10.772051938598944"><ele>187.5</ele><time>2026-04-12T08:55:47Z</time></trkpt><trkpt lat="45.53894176677386" lon="10.772222998408692"><ele>187.0</ele><time>2026-04-12T08:55:48Z</time></trkpt><trkpt lat="45.53902627800022" lon="10.772370468322817"><ele>186.5</ele><time>2026-04-12T08:55:49Z</time></trkpt><trkpt lat="45.53910273610976" lon="10.772530880684275"><ele>186.0</ele><time>2026-04-12T08:55:50Z</time></trkpt><trkpt lat="45.53916283461561" lon="10.772687635029463"><ele>185.8</ele><time>2026-04-12T08:55:51Z</time></trkpt><trkpt lat="45.5392221946915" lon="10.772836969231356"><ele>185.60000000000002</ele><time>2026-04-12T08:55:52Z</time></trkpt><trkpt lat="45.53928249891984" lon="10.772973012358486"><ele>185.4</ele><time>2026-04-12T08:55:53Z</time></trkpt><trkpt lat="45.53933473804069" lon="10.77309873378534"><ele>185.2</ele><time>2026-04-12T08:55:54Z</time></trkpt><trkpt lat="45.53935218035317" lon="10.773225230273475"><ele>185.0</ele><time>2026-04-12T08:55:55Z</time></trkpt><trkpt lat="45.53939315536017" lon="10.773332049667646"><ele>185.0</ele><time>2026-04-12T08:55:56Z</time></trkpt><trkpt lat="45.539439127579534" lon="10.773456785479485"><ele>185.0</ele><time>2026-04-12T08:55:57Z</time></trkpt><trkpt lat="45.53948958038821" lon="10.77359708142258"><ele>185.0</ele><time>2026-04-12T08:55:58Z</time></trkpt><trkpt lat="45.5395436906086" lon="10.773745120504897"><ele>185.0</ele><time>2026-04-12T08:55:59Z</time></trkpt><trkpt lat="45.539616983448894" lon="10.7738904971718"><ele>186.0</ele><time>2026-04-12T08:56:00Z</time></trkpt><trkpt lat="45.539679863048214" lon="10.774044048325901"><ele>187.0</ele><time>2026-04-12T08:56:01Z</time></trkpt><trkpt lat="45.539749994499445" lon="10.77419479631402"><ele>188.0</ele><time>2026-04-12T08:56:02Z</time></trkpt><trkpt lat="45.53981818358355" lon="10.774319963119908"><ele>189.0</ele><time>2026-04-12T08:56:03Z</time></trkpt><trkpt lat="45.53988609875601" lon="10.774420042295453"><ele>189.0</ele><time>2026-04-12T08:56:04Z</time></trkpt><trkpt lat="45.5399487778193" lon="10.774505773970004"><ele>189.0</ele><time>2026-04-12T08:56:05Z</time></trkpt><trkpt lat="45.53999960672624" lon="10.77457329722136"><ele>189.0</ele><time>2026-04-12T08:56:06Z</time></trkpt><trkpt lat="45.54005149119269" lon="10.77468303479503"><ele>189.0</ele><time>2026-04-12T08:56:08Z</time></trkpt><trkpt lat="45.54010189293405" lon="10.774745109900238"><ele>189.0</ele><time>2026-04-12T08:56:11Z</time></trkpt><trkpt lat="45.54011344784547" lon="10.77483556489965"><ele>189.0</ele><time>2026-04-12T08:56:52Z</time></trkpt><trkpt lat="45.54022355178451" lon="10.774913359524497"><ele>189.0</ele><time>2026-04-12T08:56:55Z</time></trkpt><trkpt lat="45.54029611110484" lon="10.774938413094095"><ele>189.0</ele><time>2026-04-12T08:56:56Z</time></trkpt><trkpt lat="45.54037128080622" lon="10.774964575466939"><ele>189.0</ele><time>2026-04-12T08:56:57Z</time></trkpt><trkpt lat="45.540441176784654" lon="10.774995046766703"><ele>189.0</ele><time>2026-04-12T08:56:58Z</time></trkpt><trkpt lat="45.540512646396046" lon="10.775030603943575"><ele>189.0</ele><time>2026-04-12T08:56:59Z</time></trkpt><trkpt lat="45.54058333850806" lon="10.775070197346622"><ele>189.0</ele><time>2026-04-12T08:57:00Z</time></trkpt><trkpt lat="45.5406545379292" lon="10.77511136249163"><ele>189.66666666666666</ele><time>2026-04-12T08:57:01Z</time></trkpt><trkpt lat="45.540725364089944" lon="10.775150264422605"><ele>190.33333333333331</ele><time>2026-04-12T08:57:02Z</time></trkpt><trkpt lat="45.54080113433822" lon="10.77518882728812"><ele>191.0</ele><time>2026-04-12T08:57:03Z</time></trkpt><trkpt lat="45.540887217311656" lon="10.775228108935123"><ele>191.66666666666666</ele><time>2026-04-12T08:57:04Z</time></trkpt><trkpt lat="45.540972669587575" lon="10.775271279054026"><ele>192.33333333333331</ele><time>2026-04-12T08:57:05Z</time></trkpt><trkpt lat="45.54107138306513" lon="10.775297406655122"><ele>193.0</ele><time>2026-04-12T08:57:06Z</time></trkpt><trkpt lat="45.541176448892045" lon="10.775325229539684"><ele>194.0</ele><time>2026-04-12T08:57:07Z</time></trkpt><trkpt lat="45.54128753509957" lon="10.775356983655184"><ele>195.0</ele><time>2026-04-12T08:57:08Z</time></trkpt><trkpt lat="45.5414035521239" lon="10.775391523631999"><ele>196.0</ele><time>2026-04-12T08:57:09Z</time></trkpt><trkpt lat="45.54152551224419" lon="10.77542996407492"><ele>197.0</ele><time>2026-04-12T08:57:10Z</time></trkpt><trkpt lat="45.54165315673494" lon="10.775469714057161"><ele>197.0</ele><time>2026-04-12T08:57:11Z</time></trkpt><trkpt lat="45.5417833547184" lon="10.775509837029873"><ele>197.0</ele><time>2026-04-12T08:57:12Z</time></trkpt><trkpt lat="45.54190874380756" lon="10.775550330369628"><ele>197.0</ele><time>2026-04-12T08:57:13Z</time></trkpt><trkpt lat="45.542036943268236" lon="10.775591331856685"><ele>197.0</ele><time>2026-04-12T08:57:14Z</time></trkpt><trkpt lat="45.54216177284199" lon="10.77562983853138"><ele>197.0</ele><time>2026-04-12T08:57:15Z</time></trkpt><trkpt lat="45.542284541159994" lon="10.775662089059155"><ele>197.0</ele><time>2026-04-12T08:57:16Z</time></trkpt><trkpt lat="45.54239818995286" lon="10.775686884860939"><ele>197.0</ele><time>2026-04-12T08:57:17Z</time></trkpt><trkpt lat="45.54250459787292" lon="10.775704233861985"><ele>197.0</ele><time>2026-04-12T08:57:18Z</time></trkpt><trkpt lat="45.542600394607156" lon="10.775706507409826"><ele>197.0</ele><time>2026-04-12T08:57:19Z</time></trkpt><trkpt lat="45.5426816033559" lon="10.775709575299745"><ele>197.00000000000003</ele><time>2026-04-12T08:57:20Z</time></trkpt><trkpt lat="45.542753855858905" lon="10.775722051192071"><ele>197.0</ele><time>2026-04-12T08:57:21Z</time></trkpt><trkpt lat="45.542819186258505" lon="10.77576469474981"><ele>197.0</ele><time>2026-04-12T08:57:22Z</time></trkpt><trkpt lat="45.54289072710459" lon="10.775830126357592"><ele>197.0</ele><time>2026-04-12T08:57:23Z</time></trkpt><trkpt lat="45.54296299401308" lon="10.77590134418637"><ele>197.00000000000003</ele><time>2026-04-12T08:57:24Z</time></trkpt><trkpt lat="45.5430635310421" lon="10.775912186183687"><ele>197.0</ele><time>2026-04-12T08:57:25Z</time></trkpt><trkpt lat="45.543160808373564" lon="10.775802259581527"><ele>197.5</ele><time>2026-04-12T08:57:26Z</time></trkpt><trkpt lat="45.54325140595555" lon="10.775707829439343"><ele>198.0</ele><time>2026-04-12T08:57:27Z</time></trkpt><trkpt lat="45.543346375646664" lon="10.775610940121481"><ele>198.5</ele><time>2026-04-12T08:57:28Z</time></trkpt><trkpt lat="45.54345071140242" lon="10.775512308871035"><ele>199.0</ele><time>2026-04-12T08:57:29Z</time></trkpt><trkpt lat="45.54355600947325" lon="10.775416455343214"><ele>199.0</ele><time>2026-04-12T08:57:30Z</time></trkpt><trkpt lat="45.54366150038403" lon="10.775320049995285"><ele>199.0</ele><time>2026-04-12T08:57:31Z</time></trkpt><trkpt lat="45.54376315354007" lon="10.77522438256515"><ele>199.0</ele><time>2026-04-12T08:57:32Z</time></trkpt><trkpt lat="45.543866900404275" lon="10.77512576061279"><ele>199.0</ele><time>2026-04-12T08:57:33Z</time></trkpt><trkpt lat="45.543976569697435" lon="10.77503278094077"><ele>200.25</ele><time>2026-04-12T08:57:34Z</time></trkpt><trkpt lat="45.54409648195603" lon="10.774953478484578"><ele>201.5</ele><time>2026-04-12T08:57:35Z</time></trkpt><trkpt lat="45.54422386266937" lon="10.774888653396141"><ele>202.75</ele><time>2026-04-12T08:57:36Z</time></trkpt><trkpt lat="45.544358800827055" lon="10.774842522366132"><ele>204.0</ele><time>2026-04-12T08:57:37Z</time></trkpt><trkpt lat="45.544501541066516" lon="10.774799945215431"><ele>204.33333333333331</ele><time>2026-04-12T08:57:38Z</time></trkpt><trkpt lat="45.54465088420316" lon="10.774768492179822"><ele>204.66666666666666</ele><time>2026-04-12T08:57:39Z</time></trkpt><trkpt lat="45.54480883418013" lon="10.77476350991978"><ele>205.0</ele><time>2026-04-12T08:57:40Z</time></trkpt><trkpt lat="45.54496642543013" lon="10.77478213005105"><ele>205.0</ele><time>2026-04-12T08:57:41Z</time></trkpt><trkpt lat="45.5451182675632" lon="10.774806770566414"><ele>205.0</ele><time>2026-04-12T08:57:42Z</time></trkpt><trkpt lat="45.5452648435217" lon="10.774869814045994"><ele>205.0</ele><time>2026-04-12T08:57:43Z</time></trkpt><trkpt lat="45.545408450162974" lon="10.774941003641159"><ele>204.0</ele><time>2026-04-12T08:57:44Z</time></trkpt><trkpt lat="45.54555159667572" lon="10.77502575860743"><ele>203.0</ele><time>2026-04-12T08:57:45Z</time></trkpt><trkpt lat="45.54570164948797" lon="10.775111228308504"><ele>202.0</ele><time>2026-04-12T08:57:46Z</time></trkpt><trkpt lat="45.545844268518316" lon="10.775230997826185"><ele>202.0</ele><time>2026-04-12T08:57:47Z</time></trkpt><trkpt lat="45.545973782285536" lon="10.775390105348375"><ele>202.0</ele><time>2026-04-12T08:57:48Z</time></trkpt><trkpt lat="45.546114117998115" lon="10.77554318219552"><ele>202.0</ele><time>2026-04-12T08:57:49Z</time></trkpt><trkpt lat="45.5462598635483" lon="10.77567855915276"><ele>200.66666666666666</ele><time>2026-04-12T08:57:50Z</time></trkpt><trkpt lat="45.54639716463592" lon="10.775831767220303"><ele>199.33333333333331</ele><time>2026-04-12T08:57:51Z</time></trkpt><trkpt lat="45.54652850901223" lon="10.775981297006908"><ele>198.0</ele><time>2026-04-12T08:57:52Z</time></trkpt><trkpt lat="45.54665900237552" lon="10.776136837170089"><ele>197.33333333333331</ele><time>2026-04-12T08:57:53Z</time></trkpt><trkpt lat="45.54679005859574" lon="10.776291258306815"><ele>196.66666666666666</ele><time>2026-04-12T08:57:54Z</time></trkpt><trkpt lat="45.54692368842791" lon="10.776444503985172"><ele>196.0</ele><time>2026-04-12T08:57:55Z</time></trkpt><trkpt lat="45.54705433043393" lon="10.77659373653354"><ele>196.0</ele><time>2026-04-12T08:57:56Z</time></trkpt><trkpt lat="45.547191330209245" lon="10.776753486701558"><ele>196.0</ele><time>2026-04-12T08:57:57Z</time></trkpt><trkpt lat="45.54731981761691" lon="10.776908967661061"><ele>196.0</ele><time>2026-04-12T08:57:58Z</time></trkpt><trkpt lat="45.547454389540306" lon="10.777065200620452"><ele>195.33333333333331</ele><time>2026-04-12T08:57:59Z</time></trkpt><trkpt lat="45.54759081192109" lon="10.777209395416808"><ele>194.66666666666669</ele><time>2026-04-12T08:58:00Z</time></trkpt><trkpt lat="45.54773672236093" lon="10.777345685224494"><ele>194.0</ele><time>2026-04-12T08:58:01Z</time></trkpt><trkpt lat="45.547887624212706" lon="10.777463474237212"><ele>194.0</ele><time>2026-04-12T08:58:02Z</time></trkpt><trkpt lat="45.548044301279525" lon="10.777568271413823"><ele>194.0</ele><time>2026-04-12T08:58:03Z</time></trkpt><trkpt lat="45.54820344682853" lon="10.777666261675694"><ele>194.0</ele><time>2026-04-12T08:58:04Z</time></trkpt><trkpt lat="45.54835897812413" lon="10.777758794283471"><ele>194.33333333333334</ele><time>2026-04-12T08:58:05Z</time></trkpt><trkpt lat="45.548504001694106" lon="10.777843062713941"><ele>194.66666666666669</ele><time>2026-04-12T08:58:06Z</time></trkpt><trkpt lat="45.54864623302188" lon="10.777926666798816"><ele>195.0</ele><time>2026-04-12T08:58:07Z</time></trkpt><trkpt lat="45.548782981086745" lon="10.778007462762089"><ele>193.75</ele><time>2026-04-12T08:58:08Z</time></trkpt><trkpt lat="45.548919357636905" lon="10.778092889665839"><ele>192.5</ele><time>2026-04-12T08:58:09Z</time></trkpt><trkpt lat="45.54904936786414" lon="10.778180740735799"><ele>191.25</ele><time>2026-04-12T08:58:10Z</time></trkpt><trkpt lat="45.54918658874053" lon="10.778253999559846"><ele>190.0</ele><time>2026-04-12T08:58:11Z</time></trkpt><trkpt lat="45.54932029706786" lon="10.778316749676419"><ele>190.0</ele><time>2026-04-12T08:58:12Z</time></trkpt><trkpt lat="45.54945089158354" lon="10.778376342711832"><ele>190.0</ele><time>2026-04-12T08:58:13Z</time></trkpt><trkpt lat="45.54957856676501" lon="10.778431355747992"><ele>190.0</ele><time>2026-04-12T08:58:14Z</time></trkpt><trkpt lat="45.54970248204211" lon="10.778482998003"><ele>190.0</ele><time>2026-04-12T08:58:15Z</time></trkpt><trkpt lat="45.5498244769267" lon="10.778530500322988"><ele>188.0</ele><time>2026-04-12T08:58:16Z</time></trkpt><trkpt lat="45.549944266435155" lon="10.778581913016337"><ele>186.0</ele><time>2026-04-12T08:58:17Z</time></trkpt><trkpt lat="45.55005854505256" lon="10.778636386886873"><ele>184.0</ele><time>2026-04-12T08:58:18Z</time></trkpt><trkpt lat="45.55016743000412" lon="10.778699146871432"><ele>182.0</ele><time>2026-04-12T08:58:19Z</time></trkpt><trkpt lat="45.55027417893535" lon="10.778760120263188"><ele>182.6</ele><time>2026-04-12T08:58:20Z</time></trkpt><trkpt lat="45.550375615729955" lon="10.778818033874465"><ele>183.2</ele><time>2026-04-12T08:58:21Z</time></trkpt><trkpt lat="45.550472855939" lon="10.77887944850263"><ele>183.8</ele><time>2026-04-12T08:58:22Z</time></trkpt><trkpt lat="45.55056147663471" lon="10.778937604087645"><ele>184.4</ele><time>2026-04-12T08:58:23Z</time></trkpt><trkpt lat="45.5506312422392" lon="10.778985855659133"><ele>185.0</ele><time>2026-04-12T08:58:24Z</time></trkpt><trkpt lat="45.55071160202331" lon="10.779058003965723"><ele>185.0</ele><time>2026-04-12T08:58:26Z</time></trkpt><trkpt lat="45.550765184785625" lon="10.77912744200306"><ele>185.0</ele><time>2026-04-12T08:58:31Z</time></trkpt><trkpt lat="45.550833101950886" lon="10.77922738253438"><ele>185.0</ele><time>2026-04-12T08:58:34Z</time></trkpt><trkpt lat="45.5509100153556" lon="10.779342146863119"><ele>185.0</ele><time>2026-04-12T08:58:36Z</time></trkpt><trkpt lat="45.551037311113774" lon="10.779378881549496"><ele>185.0</ele><time>2026-04-12T08:58:38Z</time></trkpt><trkpt lat="45.55115057764779" lon="10.779412035794179"><ele>185.16666666666666</ele><time>2026-04-12T08:58:40Z</time></trkpt><trkpt lat="45.551252019156045" lon="10.779463515087839"><ele>185.33333333333331</ele><time>2026-04-12T08:58:42Z</time></trkpt><trkpt lat="45.55131879268622" lon="10.779504203500688"><ele>185.5</ele><time>2026-04-12T08:58:43Z</time></trkpt><trkpt lat="45.5513951034026" lon="10.779553042763547"><ele>185.66666666666666</ele><time>2026-04-12T08:58:44Z</time></trkpt><trkpt lat="45.551479622270094" lon="10.779605709274701"><ele>185.83333333333334</ele><time>2026-04-12T08:58:45Z</time></trkpt><trkpt lat="45.551563904559515" lon="10.779655582639187"><ele>186.0</ele><time>2026-04-12T08:58:46Z</time></trkpt><trkpt lat="45.55164183519219" lon="10.779700088627743"><ele>186.0</ele><time>2026-04-12T08:58:47Z</time></trkpt><trkpt lat="45.551718453728704" lon="10.779740998773871"><ele>186.0</ele><time>2026-04-12T08:58:48Z</time></trkpt><trkpt lat="45.551805115577196" lon="10.779777805754211"><ele>186.0</ele><time>2026-04-12T08:58:49Z</time></trkpt><trkpt lat="45.551901832880134" lon="10.779816963752356"><ele>186.0</ele><time>2026-04-12T08:58:50Z</time></trkpt><trkpt lat="45.55200442028972" lon="10.77985883634374"><ele>186.0</ele><time>2026-04-12T08:58:51Z</time></trkpt><trkpt lat="45.55210946655584" lon="10.779897842237055"><ele>185.83333333333334</ele><time>2026-04-12T08:58:52Z</time></trkpt><trkpt lat="45.552208603319706" lon="10.779929188468053"><ele>185.66666666666666</ele><time>2026-04-12T08:58:53Z</time></trkpt><trkpt lat="45.55230408722221" lon="10.779946774487536"><ele>185.5</ele><time>2026-04-12T08:58:54Z</time></trkpt><trkpt lat="45.552390549904494" lon="10.779958871314617"><ele>185.33333333333331</ele><time>2026-04-12T08:58:55Z</time></trkpt><trkpt lat="45.55247110184445" lon="10.779968868510084"><ele>185.16666666666666</ele><time>2026-04-12T08:58:56Z</time></trkpt><trkpt lat="45.552544073802885" lon="10.779986312224821"><ele>185.0</ele><time>2026-04-12T08:58:57Z</time></trkpt><trkpt lat="45.552607713833325" lon="10.779996586252322"><ele>185.0</ele><time>2026-04-12T08:58:58Z</time></trkpt><trkpt lat="45.552690345912026" lon="10.78002114298847"><ele>185.0</ele><time>2026-04-12T08:59:00Z</time></trkpt><trkpt lat="45.55273594983198" lon="10.780120701431573"><ele>185.0</ele><time>2026-04-12T08:59:04Z</time></trkpt><trkpt lat="45.55280247246952" lon="10.780237242132545"><ele>185.0</ele><time>2026-04-12T08:59:06Z</time></trkpt><trkpt lat="45.55286613697327" lon="10.780379659509515"><ele>185.0</ele><time>2026-04-12T08:59:08Z</time></trkpt><trkpt lat="45.55290019494958" lon="10.780462863984337"><ele>185.2</ele><time>2026-04-12T08:59:09Z</time></trkpt><trkpt lat="45.55295126899574" lon="10.78052787908168"><ele>185.4</ele><time>2026-04-12T08:59:10Z</time></trkpt><trkpt lat="45.55299760523595" lon="10.780594665264912"><ele>185.60000000000002</ele><time>2026-04-12T08:59:11Z</time></trkpt><trkpt lat="45.553145455860296" lon="10.78060024698896"><ele>185.8</ele><time>2026-04-12T08:59:13Z</time></trkpt><trkpt lat="45.553214050455225" lon="10.78052831189264"><ele>186.0</ele><time>2026-04-12T08:59:14Z</time></trkpt><trkpt lat="45.55327634091561" lon="10.780444455423984"><ele>186.0</ele><time>2026-04-12T08:59:15Z</time></trkpt><trkpt lat="45.55332092417763" lon="10.780324328652297"><ele>186.0</ele><time>2026-04-12T08:59:16Z</time></trkpt><trkpt lat="45.553365324328745" lon="10.78020456621147"><ele>186.0</ele><time>2026-04-12T08:59:17Z</time></trkpt><trkpt lat="45.55341761430451" lon="10.78008436655306"><ele>186.0</ele><time>2026-04-12T08:59:18Z</time></trkpt><trkpt lat="45.55348688362662" lon="10.779970295165844"><ele>186.0</ele><time>2026-04-12T08:59:19Z</time></trkpt><trkpt lat="45.55359025357067" lon="10.77989941718047"><ele>186.0</ele><time>2026-04-12T08:59:20Z</time></trkpt><trkpt lat="45.5536820465944" lon="10.779799436782136"><ele>186.0</ele><time>2026-04-12T08:59:21Z</time></trkpt><trkpt lat="45.55378467081712" lon="10.779726483965636"><ele>186.0</ele><time>2026-04-12T08:59:22Z</time></trkpt><trkpt lat="45.55388558538378" lon="10.779644235998926"><ele>186.0</ele><time>2026-04-12T08:59:23Z</time></trkpt><trkpt lat="45.55398995503159" lon="10.779560982056246"><ele>186.20000000000002</ele><time>2026-04-12T08:59:24Z</time></trkpt><trkpt lat="45.55409438034411" lon="10.77947555181679"><ele>186.4</ele><time>2026-04-12T08:59:25Z</time></trkpt><trkpt lat="45.55419386457265" lon="10.77939240361948"><ele>186.6</ele><time>2026-04-12T08:59:26Z</time></trkpt><trkpt lat="45.55428287121379" lon="10.779300427108872"><ele>186.8</ele><time>2026-04-12T08:59:27Z</time></trkpt><trkpt lat="45.554362258571764" lon="10.77921609082259"><ele>187.0</ele><time>2026-04-12T08:59:28Z</time></trkpt><trkpt lat="45.55443639229879" lon="10.779137815256743"><ele>187.0</ele><time>2026-04-12T08:59:29Z</time></trkpt><trkpt lat="45.55449639337831" lon="10.779063127375473"><ele>187.0</ele><time>2026-04-12T08:59:30Z</time></trkpt><trkpt lat="45.55454958882365" lon="10.77900152546612"><ele>187.0</ele><time>2026-04-12T08:59:31Z</time></trkpt><trkpt lat="45.55462521195286" lon="10.778910414135852"><ele>187.0</ele><time>2026-04-12T08:59:33Z</time></trkpt><trkpt lat="45.5546875977242" lon="10.778838402153756"><ele>187.0</ele><time>2026-04-12T08:59:36Z</time></trkpt><trkpt lat="45.5547524153249" lon="10.778722285464466"><ele>187.0</ele><time>2026-04-12T09:00:04Z</time></trkpt><trkpt lat="45.55482424358362" lon="10.778631594510925"><ele>187.0</ele><time>2026-04-12T09:00:05Z</time></trkpt><trkpt lat="45.554924924399096" lon="10.778503194778967"><ele>187.0</ele><time>2026-04-12T09:00:06Z</time></trkpt><trkpt lat="45.55504239257952" lon="10.778353766397167"><ele>187.0</ele><time>2026-04-12T09:00:07Z</time></trkpt><trkpt lat="45.55516015990159" lon="10.778205424907993"><ele>187.0</ele><time>2026-04-12T09:00:08Z</time></trkpt><trkpt lat="45.55527060501093" lon="10.778069249152507"><ele>187.0</ele><time>2026-04-12T09:00:09Z</time></trkpt><trkpt lat="45.555377802204646" lon="10.777936806820163"><ele>187.0</ele><time>2026-04-12T09:00:10Z</time></trkpt><trkpt lat="45.55547886917234" lon="10.77781150162932"><ele>187.0</ele><time>2026-04-12T09:00:11Z</time></trkpt><trkpt lat="45.55558155755082" lon="10.777691725906752"><ele>187.0</ele><time>2026-04-12T09:00:12Z</time></trkpt><trkpt lat="45.55569894975245" lon="10.777579349211178"><ele>187.0</ele><time>2026-04-12T09:00:13Z</time></trkpt><trkpt lat="45.555824038201386" lon="10.777477696191735"><ele>187.0</ele><time>2026-04-12T09:00:14Z</time></trkpt><trkpt lat="45.55595690163383" lon="10.77738984123764"><ele>187.0</ele><time>2026-04-12T09:00:15Z</time></trkpt><trkpt lat="45.55610181837459" lon="10.777298727957533"><ele>187.0</ele><time>2026-04-12T09:00:16Z</time></trkpt><trkpt lat="45.556245327432315" lon="10.777211842886517"><ele>187.0</ele><time>2026-04-12T09:00:17Z</time></trkpt><trkpt lat="45.55639435913375" lon="10.77712569881003"><ele>187.0</ele><time>2026-04-12T09:00:18Z</time></trkpt><trkpt lat="45.5565477231168" lon="10.777043146395572"><ele>187.0</ele><time>2026-04-12T09:00:19Z</time></trkpt><trkpt lat="45.556698571191475" lon="10.77696539890181"><ele>187.0</ele><time>2026-04-12T09:00:20Z</time></trkpt><trkpt lat="45.55685724999507" lon="10.776876332605488"><ele>187.0</ele><time>2026-04-12T09:00:21Z</time></trkpt><trkpt lat="45.557012441631336" lon="10.776784863112027"><ele>187.0</ele><time>2026-04-12T09:00:22Z</time></trkpt><trkpt lat="45.55717097746593" lon="10.776699698308354"><ele>188.0</ele><time>2026-04-12T09:00:23Z</time></trkpt><trkpt lat="45.557330364073266" lon="10.776616276468514"><ele>189.0</ele><time>2026-04-12T09:00:24Z</time></trkpt><trkpt lat="45.55765093861485" lon="10.776426728234398"><ele>189.0</ele><time>2026-04-12T09:00:26Z</time></trkpt><trkpt lat="45.55782272282331" lon="10.776360402253175"><ele>189.0</ele><time>2026-04-12T09:00:27Z</time></trkpt><trkpt lat="45.55798483586533" lon="10.776245129019433"><ele>189.0</ele><time>2026-04-12T09:00:28Z</time></trkpt><trkpt lat="45.55815403577576" lon="10.77615415930211"><ele>189.0</ele><time>2026-04-12T09:00:29Z</time></trkpt><trkpt lat="45.55832249373619" lon="10.776063869002467"><ele>189.0</ele><time>2026-04-12T09:00:30Z</time></trkpt><trkpt lat="45.55849319744875" lon="10.77597323307167"><ele>189.0</ele><time>2026-04-12T09:00:31Z</time></trkpt><trkpt lat="45.55866517281449" lon="10.775882798875491"><ele>189.33333333333334</ele><time>2026-04-12T09:00:32Z</time></trkpt><trkpt lat="45.5588363389732" lon="10.775788793895536"><ele>189.66666666666669</ele><time>2026-04-12T09:00:33Z</time></trkpt><trkpt lat="45.559006200176015" lon="10.775699435824782"><ele>190.0</ele><time>2026-04-12T09:00:34Z</time></trkpt><trkpt lat="45.55917908905268" lon="10.775604067013836"><ele>190.0</ele><time>2026-04-12T09:00:35Z</time></trkpt><trkpt lat="45.559350707072596" lon="10.775507637031168"><ele>190.0</ele><time>2026-04-12T09:00:36Z</time></trkpt><trkpt lat="45.55952001485553" lon="10.775412106309261"><ele>190.0</ele><time>2026-04-12T09:00:37Z</time></trkpt><trkpt lat="45.559692717554185" lon="10.775319559538886"><ele>190.0</ele><time>2026-04-12T09:00:38Z</time></trkpt><trkpt lat="45.55986543696332" lon="10.775229595339189"><ele>190.0</ele><time>2026-04-12T09:00:39Z</time></trkpt><trkpt lat="45.560041182285715" lon="10.775139368982735"><ele>190.0</ele><time>2026-04-12T09:00:40Z</time></trkpt><trkpt lat="45.56021468074476" lon="10.775053994195556"><ele>191.0</ele><time>2026-04-12T09:00:41Z</time></trkpt><trkpt lat="45.56039612572749" lon="10.774965955903337"><ele>192.0</ele><time>2026-04-12T09:00:42Z</time></trkpt><trkpt lat="45.56057382802152" lon="10.774877510693809"><ele>193.0</ele><time>2026-04-12T09:00:43Z</time></trkpt><trkpt lat="45.560753724236044" lon="10.774780824656345"><ele>193.0</ele><time>2026-04-12T09:00:44Z</time></trkpt><trkpt lat="45.56092589348368" lon="10.774674684000294"><ele>193.0</ele><time>2026-04-12T09:00:45Z</time></trkpt><trkpt lat="45.56110043633451" lon="10.774562246158219"><ele>193.0</ele><time>2026-04-12T09:00:46Z</time></trkpt><trkpt lat="45.56126720391438" lon="10.774426590252443"><ele>194.0</ele><time>2026-04-12T09:00:47Z</time></trkpt><trkpt lat="45.56142111626479" lon="10.774266155203605"><ele>195.0</ele><time>2026-04-12T09:00:48Z</time></trkpt><trkpt lat="45.56156770447233" lon="10.774091614823691"><ele>196.0</ele><time>2026-04-12T09:00:49Z</time></trkpt><trkpt lat="45.561717205973196" lon="10.773920667622813"><ele>196.0</ele><time>2026-04-12T09:00:50Z</time></trkpt><trkpt lat="45.561873745745174" lon="10.773748063078786"><ele>196.0</ele><time>2026-04-12T09:00:51Z</time></trkpt><trkpt lat="45.56203004890458" lon="10.773581348420379"><ele>196.0</ele><time>2026-04-12T09:00:52Z</time></trkpt><trkpt lat="45.562186365771616" lon="10.773412873618982"><ele>196.66666666666666</ele><time>2026-04-12T09:00:53Z</time></trkpt><trkpt lat="45.56234129214184" lon="10.773241709737134"><ele>197.33333333333331</ele><time>2026-04-12T09:00:54Z</time></trkpt><trkpt lat="45.56249816700127" lon="10.773072909396689"><ele>198.0</ele><time>2026-04-12T09:00:55Z</time></trkpt><trkpt lat="45.56265650409293" lon="10.77290778927041"><ele>198.0</ele><time>2026-04-12T09:00:56Z</time></trkpt><trkpt lat="45.56282306864368" lon="10.772762250420282"><ele>198.0</ele><time>2026-04-12T09:00:57Z</time></trkpt><trkpt lat="45.563013766489355" lon="10.772675190923284"><ele>198.0</ele><time>2026-04-12T09:00:58Z</time></trkpt><trkpt lat="45.56319548845623" lon="10.77257383786106"><ele>198.0</ele><time>2026-04-12T09:00:59Z</time></trkpt><trkpt lat="45.563387344307145" lon="10.772507577827453"><ele>198.0</ele><time>2026-04-12T09:01:00Z</time></trkpt><trkpt lat="45.563576318062914" lon="10.772440272829236"><ele>198.0</ele><time>2026-04-12T09:01:01Z</time></trkpt><trkpt lat="45.56376412864584" lon="10.77236524839698"><ele>198.0</ele><time>2026-04-12T09:01:02Z</time></trkpt><trkpt lat="45.56395316565979" lon="10.772288463868025"><ele>198.0</ele><time>2026-04-12T09:01:03Z</time></trkpt><trkpt lat="45.56413789879918" lon="10.772211188981728"><ele>198.0</ele><time>2026-04-12T09:01:04Z</time></trkpt><trkpt lat="45.56432554529991" lon="10.772136951318299"><ele>198.0</ele><time>2026-04-12T09:01:05Z</time></trkpt><trkpt lat="45.564512781774745" lon="10.772060889314238"><ele>198.0</ele><time>2026-04-12T09:01:06Z</time></trkpt><trkpt lat="45.564697522729105" lon="10.771987426467762"><ele>198.0</ele><time>2026-04-12T09:01:07Z</time></trkpt><trkpt lat="45.56488249196469" lon="10.771915703155885"><ele>198.33333333333331</ele><time>2026-04-12T09:01:08Z</time></trkpt><trkpt lat="45.565073107290786" lon="10.771861207483012"><ele>198.66666666666666</ele><time>2026-04-12T09:01:09Z</time></trkpt><trkpt lat="45.56526185932136" lon="10.771837580599446"><ele>199.0</ele><time>2026-04-12T09:01:10Z</time></trkpt><trkpt lat="45.56545271257052" lon="10.771840322197615"><ele>199.66666666666666</ele><time>2026-04-12T09:01:11Z</time></trkpt><trkpt lat="45.56563898781286" lon="10.771869689965472"><ele>200.33333333333331</ele><time>2026-04-12T09:01:12Z</time></trkpt><trkpt lat="45.565821063251704" lon="10.771912721989807"><ele>201.0</ele><time>2026-04-12T09:01:13Z</time></trkpt><trkpt lat="45.566006271068794" lon="10.77196219527432"><ele>201.0</ele><time>2026-04-12T09:01:14Z</time></trkpt><trkpt lat="45.56619042623474" lon="10.772008653989467"><ele>201.0</ele><time>2026-04-12T09:01:15Z</time></trkpt><trkpt lat="45.56637624445482" lon="10.772053402539425"><ele>201.0</ele><time>2026-04-12T09:01:16Z</time></trkpt><trkpt lat="45.56656353222075" lon="10.772096140354689"><ele>202.0</ele><time>2026-04-12T09:01:17Z</time></trkpt><trkpt lat="45.56674848803971" lon="10.772144513678604"><ele>203.0</ele><time>2026-04-12T09:01:18Z</time></trkpt><trkpt lat="45.56693503424961" lon="10.772187911681248"><ele>204.0</ele><time>2026-04-12T09:01:19Z</time></trkpt><trkpt lat="45.567121212728296" lon="10.772233849272986"><ele>204.33333333333331</ele><time>2026-04-12T09:01:20Z</time></trkpt><trkpt lat="45.56730881266908" lon="10.772278069020306"><ele>204.66666666666666</ele><time>2026-04-12T09:01:21Z</time></trkpt><trkpt lat="45.56749520694391" lon="10.772328597903082"><ele>205.0</ele><time>2026-04-12T09:01:22Z</time></trkpt><trkpt lat="45.567681630921356" lon="10.772381287478924"><ele>205.0</ele><time>2026-04-12T09:01:23Z</time></trkpt><trkpt lat="45.56786869406327" lon="10.772438403362411"><ele>205.0</ele><time>2026-04-12T09:01:24Z</time></trkpt><trkpt lat="45.5680613317487" lon="10.77249576503809"><ele>205.0</ele><time>2026-04-12T09:01:25Z</time></trkpt><trkpt lat="45.568248235706314" lon="10.772553463483158"><ele>205.0</ele><time>2026-04-12T09:01:26Z</time></trkpt><trkpt lat="45.56843808780588" lon="10.772610591208219"><ele>205.0</ele><time>2026-04-12T09:01:27Z</time></trkpt><trkpt lat="45.56862938182995" lon="10.772672829164268"><ele>205.0</ele><time>2026-04-12T09:01:28Z</time></trkpt><trkpt lat="45.56882174113118" lon="10.772734124149782"><ele>206.0</ele><time>2026-04-12T09:01:29Z</time></trkpt><trkpt lat="45.56901635728323" lon="10.77279032849082"><ele>207.0</ele><time>2026-04-12T09:01:30Z</time></trkpt><trkpt lat="45.56920979455434" lon="10.772840934279833"><ele>208.0</ele><time>2026-04-12T09:01:31Z</time></trkpt><trkpt lat="45.56940386735557" lon="10.772888617923314"><ele>208.33333333333331</ele><time>2026-04-12T09:01:32Z</time></trkpt><trkpt lat="45.56960038715196" lon="10.77293198212864"><ele>208.66666666666669</ele><time>2026-04-12T09:01:33Z</time></trkpt><trkpt lat="45.56979605032222" lon="10.772975237268708"><ele>209.0</ele><time>2026-04-12T09:01:34Z</time></trkpt><trkpt lat="45.56999161112717" lon="10.773022601736145"><ele>209.0</ele><time>2026-04-12T09:01:35Z</time></trkpt><trkpt lat="45.570186403228576" lon="10.773069820784698"><ele>209.0</ele><time>2026-04-12T09:01:36Z</time></trkpt><trkpt lat="45.57037999176621" lon="10.773118087007642"><ele>209.0</ele><time>2026-04-12T09:01:37Z</time></trkpt><trkpt lat="45.57057493363203" lon="10.773169533336858"><ele>209.66666666666669</ele><time>2026-04-12T09:01:38Z</time></trkpt><trkpt lat="45.5707658891184" lon="10.773221228794778"><ele>210.33333333333331</ele><time>2026-04-12T09:01:39Z</time></trkpt><trkpt lat="45.570957568528144" lon="10.773269324095034"><ele>211.0</ele><time>2026-04-12T09:01:40Z</time></trkpt><trkpt lat="45.57115148189588" lon="10.773319715028343"><ele>211.0</ele><time>2026-04-12T09:01:41Z</time></trkpt><trkpt lat="45.5713429770454" lon="10.773371093721552"><ele>211.0</ele><time>2026-04-12T09:01:42Z</time></trkpt><trkpt lat="45.57153887387275" lon="10.773419344394526"><ele>211.0</ele><time>2026-04-12T09:01:43Z</time></trkpt><trkpt lat="45.571732063947564" lon="10.773469748551463"><ele>211.0</ele><time>2026-04-12T09:01:44Z</time></trkpt><trkpt lat="45.57191135543788" lon="10.773515668870886"><ele>211.0</ele><time>2026-04-12T09:01:45Z</time></trkpt><trkpt lat="45.572082876563954" lon="10.773560304972078"><ele>211.0</ele><time>2026-04-12T09:01:46Z</time></trkpt><trkpt lat="45.57224420087761" lon="10.773605248975123"><ele>211.25</ele><time>2026-04-12T09:01:47Z</time></trkpt><trkpt lat="45.57239857084899" lon="10.773642323722608"><ele>211.5</ele><time>2026-04-12T09:01:48Z</time></trkpt><trkpt lat="45.572542598073966" lon="10.773679413510985"><ele>211.75</ele><time>2026-04-12T09:01:49Z</time></trkpt><trkpt lat="45.57268380902649" lon="10.773708146420546"><ele>212.0</ele><time>2026-04-12T09:01:50Z</time></trkpt><trkpt lat="45.57281130515521" lon="10.773728752159077"><ele>212.16666666666669</ele><time>2026-04-12T09:01:51Z</time></trkpt><trkpt lat="45.572917160461635" lon="10.773744320203209"><ele>212.33333333333334</ele><time>2026-04-12T09:01:52Z</time></trkpt><trkpt lat="45.57299894026791" lon="10.773750368636193"><ele>212.5</ele><time>2026-04-12T09:01:53Z</time></trkpt><trkpt lat="45.573084797833914" lon="10.773758707554954"><ele>212.66666666666669</ele><time>2026-04-12T09:01:55Z</time></trkpt><trkpt lat="45.57317971273686" lon="10.773759166382847"><ele>212.83333333333334</ele><time>2026-04-12T09:02:05Z</time></trkpt><trkpt lat="45.57325061857183" lon="10.773766439659198"><ele>213.0</ele><time>2026-04-12T09:02:06Z</time></trkpt><trkpt lat="45.57333671691389" lon="10.773777639044143"><ele>213.0</ele><time>2026-04-12T09:02:07Z</time></trkpt><trkpt lat="45.57342903720392" lon="10.773778852993342"><ele>213.0</ele><time>2026-04-12T09:02:08Z</time></trkpt><trkpt lat="45.573541343063184" lon="10.77377907759438"><ele>213.0</ele><time>2026-04-12T09:02:09Z</time></trkpt><trkpt lat="45.57367044203795" lon="10.773771124643224"><ele>213.0</ele><time>2026-04-12T09:02:10Z</time></trkpt><trkpt lat="45.573807185194504" lon="10.773761756919011"><ele>215.0</ele><time>2026-04-12T09:02:11Z</time></trkpt><trkpt lat="45.57394195674098" lon="10.773752346680505"><ele>217.0</ele><time>2026-04-12T09:02:12Z</time></trkpt><trkpt lat="45.57407620963589" lon="10.773746196820076"><ele>219.0</ele><time>2026-04-12T09:02:13Z</time></trkpt><trkpt lat="45.57421418423616" lon="10.77374497280279"><ele>221.0</ele><time>2026-04-12T09:02:14Z</time></trkpt><trkpt lat="45.574354057604275" lon="10.773749330171377"><ele>221.0</ele><time>2026-04-12T09:02:15Z</time></trkpt><trkpt lat="45.57449437495247" lon="10.77375219635404"><ele>221.0</ele><time>2026-04-12T09:02:16Z</time></trkpt><trkpt lat="45.574636518946335" lon="10.773756659726406"><ele>221.0</ele><time>2026-04-12T09:02:17Z</time></trkpt><trkpt lat="45.57478514347206" lon="10.77376775412535"><ele>221.0</ele><time>2026-04-12T09:02:18Z</time></trkpt><trkpt lat="45.57493723980644" lon="10.773788490702527"><ele>219.0</ele><time>2026-04-12T09:02:19Z</time></trkpt><trkpt lat="45.5750933883424" lon="10.773815583525773"><ele>217.0</ele><time>2026-04-12T09:02:20Z</time></trkpt><trkpt lat="45.57525046420341" lon="10.773856722555314"><ele>215.0</ele><time>2026-04-12T09:02:21Z</time></trkpt><trkpt lat="45.57540989859596" lon="10.773900858266101"><ele>214.66666666666669</ele><time>2026-04-12T09:02:22Z</time></trkpt><trkpt lat="45.57557169873473" lon="10.773945479579236"><ele>214.33333333333331</ele><time>2026-04-12T09:02:23Z</time></trkpt><trkpt lat="45.57573254136789" lon="10.773988071568082"><ele>214.0</ele><time>2026-04-12T09:02:24Z</time></trkpt><trkpt lat="45.57590046589648" lon="10.774031994927629"><ele>214.0</ele><time>2026-04-12T09:02:25Z</time></trkpt><trkpt lat="45.57606919847553" lon="10.774075034074523"><ele>214.0</ele><time>2026-04-12T09:02:26Z</time></trkpt><trkpt lat="45.57623730775759" lon="10.774119441623856"><ele>214.0</ele><time>2026-04-12T09:02:27Z</time></trkpt><trkpt lat="45.576410899015386" lon="10.774165709436959"><ele>215.33333333333331</ele><time>2026-04-12T09:02:28Z</time></trkpt><trkpt lat="45.5765842080636" lon="10.774212383266342"><ele>216.66666666666669</ele><time>2026-04-12T09:02:29Z</time></trkpt><trkpt lat="45.57675946447271" lon="10.774260089735499"><ele>218.0</ele><time>2026-04-12T09:02:30Z</time></trkpt><trkpt lat="45.576934662487744" lon="10.774306538334477"><ele>218.0</ele><time>2026-04-12T09:02:31Z</time></trkpt><trkpt lat="45.57711904043362" lon="10.77435156088562"><ele>218.0</ele><time>2026-04-12T09:02:32Z</time></trkpt><trkpt lat="45.57729868469604" lon="10.77439834294094"><ele>218.0</ele><time>2026-04-12T09:02:33Z</time></trkpt><trkpt lat="45.57748351472035" lon="10.774448601358177"><ele>219.66666666666669</ele><time>2026-04-12T09:02:34Z</time></trkpt><trkpt lat="45.57767145173664" lon="10.774499579775476"><ele>221.33333333333331</ele><time>2026-04-12T09:02:35Z</time></trkpt><trkpt lat="45.57785620694631" lon="10.774551944652583"><ele>223.0</ele><time>2026-04-12T09:02:36Z</time></trkpt><trkpt lat="45.578045344062296" lon="10.774604897406409"><ele>223.0</ele><time>2026-04-12T09:02:37Z</time></trkpt><trkpt lat="45.57823455579547" lon="10.774659970251442"><ele>223.0</ele><time>2026-04-12T09:02:38Z</time></trkpt><trkpt lat="45.5784247852547" lon="10.774714946996927"><ele>223.0</ele><time>2026-04-12T09:02:39Z</time></trkpt><trkpt lat="45.578615035692856" lon="10.774768626899021"><ele>223.33333333333331</ele><time>2026-04-12T09:02:40Z</time></trkpt><trkpt lat="45.57880462076949" lon="10.774817497983346"><ele>223.66666666666669</ele><time>2026-04-12T09:02:41Z</time></trkpt><trkpt lat="45.57899242785854" lon="10.774866712419332"><ele>224.0</ele><time>2026-04-12T09:02:42Z</time></trkpt><trkpt lat="45.57918021700573" lon="10.774919506755458"><ele>224.0</ele><time>2026-04-12T09:02:43Z</time></trkpt><trkpt lat="45.57936396423456" lon="10.774971549872124"><ele>224.0</ele><time>2026-04-12T09:02:44Z</time></trkpt><trkpt lat="45.57955005198317" lon="10.775023341668872"><ele>224.0</ele><time>2026-04-12T09:02:45Z</time></trkpt><trkpt lat="45.579734223893226" lon="10.775078708668659"><ele>224.33333333333334</ele><time>2026-04-12T09:02:46Z</time></trkpt><trkpt lat="45.57992022810747" lon="10.775136278896237"><ele>224.66666666666669</ele><time>2026-04-12T09:02:47Z</time></trkpt><trkpt lat="45.58010201016086" lon="10.775197993382687"><ele>225.0</ele><time>2026-04-12T09:02:48Z</time></trkpt><trkpt lat="45.580289599776066" lon="10.77525266354276"><ele>226.33333333333331</ele><time>2026-04-12T09:02:49Z</time></trkpt><trkpt lat="45.580477948467674" lon="10.775296825870972"><ele>227.66666666666666</ele><time>2026-04-12T09:02:50Z</time></trkpt><trkpt lat="45.58066720240273" lon="10.775336432312477"><ele>229.0</ele><time>2026-04-12T09:02:51Z</time></trkpt><trkpt lat="45.58085581386891" lon="10.775385683842417"><ele>229.0</ele><time>2026-04-12T09:02:52Z</time></trkpt><trkpt lat="45.58104192423638" lon="10.775446498160834"><ele>229.0</ele><time>2026-04-12T09:02:53Z</time></trkpt><trkpt lat="45.58123201494429" lon="10.775497846938274"><ele>229.0</ele><time>2026-04-12T09:02:54Z</time></trkpt><trkpt lat="45.58142219192079" lon="10.775551580596384"><ele>229.66666666666666</ele><time>2026-04-12T09:02:55Z</time></trkpt><trkpt lat="45.581614594729906" lon="10.77560417841903"><ele>230.33333333333331</ele><time>2026-04-12T09:02:56Z</time></trkpt><trkpt lat="45.581808468746345" lon="10.775663142802829"><ele>231.0</ele><time>2026-04-12T09:02:57Z</time></trkpt><trkpt lat="45.581994664905075" lon="10.775739964309029"><ele>230.66666666666669</ele><time>2026-04-12T09:02:58Z</time></trkpt><trkpt lat="45.58217890182189" lon="10.775845210832978"><ele>230.33333333333334</ele><time>2026-04-12T09:02:59Z</time></trkpt><trkpt lat="45.58234958550959" lon="10.775996747705245"><ele>230.0</ele><time>2026-04-12T09:03:00Z</time></trkpt><trkpt lat="45.582498922534036" lon="10.776181109078943"><ele>230.0</ele><time>2026-04-12T09:03:01Z</time></trkpt><trkpt lat="45.582627546665194" lon="10.776409141918048"><ele>230.0</ele><time>2026-04-12T09:03:02Z</time></trkpt><trkpt lat="45.582741977623" lon="10.776653578479872"><ele>230.0</ele><time>2026-04-12T09:03:03Z</time></trkpt><trkpt lat="45.58285694614492" lon="10.776898914348783"><ele>231.66666666666669</ele><time>2026-04-12T09:03:04Z</time></trkpt><trkpt lat="45.58297256990201" lon="10.777140676343192"><ele>233.33333333333331</ele><time>2026-04-12T09:03:05Z</time></trkpt><trkpt lat="45.583096842967876" lon="10.777388498400564"><ele>235.0</ele><time>2026-04-12T09:03:06Z</time></trkpt><trkpt lat="45.583221347402315" lon="10.777638687813525"><ele>234.66666666666666</ele><time>2026-04-12T09:03:07Z</time></trkpt><trkpt lat="45.58333722333903" lon="10.777892153711235"><ele>234.33333333333331</ele><time>2026-04-12T09:03:08Z</time></trkpt><trkpt lat="45.583453215777" lon="10.77814214616304"><ele>234.0</ele><time>2026-04-12T09:03:09Z</time></trkpt><trkpt lat="45.58359299139956" lon="10.778365784615064"><ele>237.0</ele><time>2026-04-12T09:03:10Z</time></trkpt><trkpt lat="45.58375855567855" lon="10.77856384134898"><ele>240.0</ele><time>2026-04-12T09:03:11Z</time></trkpt><trkpt lat="45.583932683553606" lon="10.778754593714332"><ele>243.0</ele><time>2026-04-12T09:03:12Z</time></trkpt><trkpt lat="45.5841200386456" lon="10.77892420015886"><ele>243.0</ele><time>2026-04-12T09:03:13Z</time></trkpt><trkpt lat="45.58431700915766" lon="10.77907200582143"><ele>243.0</ele><time>2026-04-12T09:03:14Z</time></trkpt><trkpt lat="45.58452385141694" lon="10.779206018661819"><ele>243.0</ele><time>2026-04-12T09:03:15Z</time></trkpt><trkpt lat="45.5847350797307" lon="10.77934029686328"><ele>243.0</ele><time>2026-04-12T09:03:16Z</time></trkpt><trkpt lat="45.584945959622544" lon="10.779479234498746"><ele>244.0</ele><time>2026-04-12T09:03:17Z</time></trkpt><trkpt lat="45.5851564442811" lon="10.779623826593047"><ele>245.0</ele><time>2026-04-12T09:03:18Z</time></trkpt><trkpt lat="45.58536871678834" lon="10.779772153862817"><ele>245.0</ele><time>2026-04-12T09:03:19Z</time></trkpt><trkpt lat="45.58558486262454" lon="10.779928819698132"><ele>245.0</ele><time>2026-04-12T09:03:20Z</time></trkpt><trkpt lat="45.585798705504864" lon="10.78007013882203"><ele>246.5</ele><time>2026-04-12T09:03:21Z</time></trkpt><trkpt lat="45.586011572228664" lon="10.780218010550488"><ele>248.0</ele><time>2026-04-12T09:03:22Z</time></trkpt><trkpt lat="45.58622737134912" lon="10.780371124101237"><ele>248.0</ele><time>2026-04-12T09:03:23Z</time></trkpt><trkpt lat="45.58644077808394" lon="10.780522768093606"><ele>248.0</ele><time>2026-04-12T09:03:24Z</time></trkpt><trkpt lat="45.5866529953248" lon="10.780673340426421"><ele>248.0</ele><time>2026-04-12T09:03:25Z</time></trkpt><trkpt lat="45.58686426557255" lon="10.780824353297435"><ele>248.0</ele><time>2026-04-12T09:03:26Z</time></trkpt><trkpt lat="45.58707307369896" lon="10.780969223092747"><ele>250.0</ele><time>2026-04-12T09:03:27Z</time></trkpt><trkpt lat="45.587281831422054" lon="10.78112336588585"><ele>252.0</ele><time>2026-04-12T09:03:28Z</time></trkpt><trkpt lat="45.58748648974525" lon="10.781276845424818"><ele>252.0</ele><time>2026-04-12T09:03:29Z</time></trkpt><trkpt lat="45.58768843387725" lon="10.781434509245603"><ele>252.0</ele><time>2026-04-12T09:03:30Z</time></trkpt><trkpt lat="45.587889373038074" lon="10.781591459766235"><ele>254.0</ele><time>2026-04-12T09:03:31Z</time></trkpt><trkpt lat="45.58809157694283" lon="10.781745692672425"><ele>256.0</ele><time>2026-04-12T09:03:32Z</time></trkpt><trkpt lat="45.58829169578741" lon="10.781896521628056"><ele>256.0</ele><time>2026-04-12T09:03:33Z</time></trkpt><trkpt lat="45.588490442826696" lon="10.782047838469571"><ele>256.0</ele><time>2026-04-12T09:03:34Z</time></trkpt><trkpt lat="45.58869002189869" lon="10.78219705722797"><ele>253.66666666666666</ele><time>2026-04-12T09:03:35Z</time></trkpt><trkpt lat="45.588886499845955" lon="10.782344608232007"><ele>251.33333333333331</ele><time>2026-04-12T09:03:36Z</time></trkpt><trkpt lat="45.58908144906744" lon="10.782488239935198"><ele>249.0</ele><time>2026-04-12T09:03:37Z</time></trkpt><trkpt lat="45.5892769801586" lon="10.782626699542725"><ele>250.66666666666669</ele><time>2026-04-12T09:03:38Z</time></trkpt><trkpt lat="45.58947134968118" lon="10.782760020503321"><ele>252.33333333333334</ele><time>2026-04-12T09:03:39Z</time></trkpt><trkpt lat="45.5896667004657" lon="10.782893417730866"><ele>254.0</ele><time>2026-04-12T09:03:40Z</time></trkpt><trkpt lat="45.58985934647126" lon="10.783017237934283"><ele>254.0</ele><time>2026-04-12T09:03:41Z</time></trkpt><trkpt lat="45.59003990017983" lon="10.783166040493459"><ele>254.0</ele><time>2026-04-12T09:03:42Z</time></trkpt><trkpt lat="45.5902336123507" lon="10.783251915348112"><ele>254.0</ele><time>2026-04-12T09:03:43Z</time></trkpt><trkpt lat="45.590406217023585" lon="10.783364464571946"><ele>254.66666666666669</ele><time>2026-04-12T09:03:44Z</time></trkpt><trkpt lat="45.590579719288776" lon="10.783463678073671"><ele>255.33333333333331</ele><time>2026-04-12T09:03:45Z</time></trkpt><trkpt lat="45.590759841454904" lon="10.783541610453993"><ele>256.0</ele><time>2026-04-12T09:03:46Z</time></trkpt><trkpt lat="45.5909368705831" lon="10.78361277778995"><ele>256.0</ele><time>2026-04-12T09:03:47Z</time></trkpt><trkpt lat="45.591102821945434" lon="10.78368285977232"><ele>256.0</ele><time>2026-04-12T09:03:48Z</time></trkpt><trkpt lat="45.591254482179686" lon="10.783752941520277"><ele>256.0</ele><time>2026-04-12T09:03:49Z</time></trkpt><trkpt lat="45.59140439432654" lon="10.783828154887033"><ele>254.66666666666666</ele><time>2026-04-12T09:03:50Z</time></trkpt><trkpt lat="45.591549962101865" lon="10.7838894718267"><ele>253.33333333333331</ele><time>2026-04-12T09:03:51Z</time></trkpt><trkpt lat="45.591691275671856" lon="10.783953213584791"><ele>252.0</ele><time>2026-04-12T09:03:52Z</time></trkpt><trkpt lat="45.59183752390014" lon="10.784057619160732"><ele>252.0</ele><time>2026-04-12T09:03:53Z</time></trkpt><trkpt lat="45.591980926790725" lon="10.784198620959062"><ele>252.0</ele><time>2026-04-12T09:03:54Z</time></trkpt><trkpt lat="45.592119009216" lon="10.784364032417072"><ele>252.0</ele><time>2026-04-12T09:03:55Z</time></trkpt><trkpt lat="45.592251149429515" lon="10.784549889234599"><ele>252.33333333333331</ele><time>2026-04-12T09:03:56Z</time></trkpt><trkpt lat="45.59238383977413" lon="10.784738590739316"><ele>252.66666666666666</ele><time>2026-04-12T09:03:57Z</time></trkpt><trkpt lat="45.59252069141514" lon="10.78492766127468"><ele>253.0</ele><time>2026-04-12T09:03:58Z</time></trkpt><trkpt lat="45.59266689115314" lon="10.78512341341081"><ele>253.66666666666666</ele><time>2026-04-12T09:03:59Z</time></trkpt><trkpt lat="45.592815290880594" lon="10.785311689415892"><ele>254.33333333333331</ele><time>2026-04-12T09:04:00Z</time></trkpt><trkpt lat="45.59296786803444" lon="10.785489800182091"><ele>255.0</ele><time>2026-04-12T09:04:01Z</time></trkpt><trkpt lat="45.59312910224332" lon="10.785654737942272"><ele>255.33333333333331</ele><time>2026-04-12T09:04:02Z</time></trkpt><trkpt lat="45.59330450880855" lon="10.785785586216722"><ele>255.66666666666666</ele><time>2026-04-12T09:04:03Z</time></trkpt><trkpt lat="45.59348062086877" lon="10.785870420185125"><ele>256.0</ele><time>2026-04-12T09:04:04Z</time></trkpt><trkpt lat="45.59365751547019" lon="10.785932285820927"><ele>256.3333333333333</ele><time>2026-04-12T09:04:05Z</time></trkpt><trkpt lat="45.59381867725929" lon="10.786009412948975"><ele>256.6666666666667</ele><time>2026-04-12T09:04:06Z</time></trkpt><trkpt lat="45.593963578815085" lon="10.78612984565548"><ele>257.0</ele><time>2026-04-12T09:04:07Z</time></trkpt><trkpt lat="45.59409262439452" lon="10.786306645313305"><ele>257.0</ele><time>2026-04-12T09:04:08Z</time></trkpt><trkpt lat="45.59422680211334" lon="10.786502166888734"><ele>257.0</ele><time>2026-04-12T09:04:09Z</time></trkpt><trkpt lat="45.594375279586686" lon="10.786687400261716"><ele>257.0</ele><time>2026-04-12T09:04:10Z</time></trkpt><trkpt lat="45.5945278579946" lon="10.78686353628301"><ele>255.66666666666669</ele><time>2026-04-12T09:04:11Z</time></trkpt><trkpt lat="45.59468487581808" lon="10.787035521054701"><ele>254.33333333333331</ele><time>2026-04-12T09:04:12Z</time></trkpt><trkpt lat="45.59484702930808" lon="10.787195843584986"><ele>253.0</ele><time>2026-04-12T09:04:13Z</time></trkpt><trkpt lat="45.595017231640924" lon="10.787353150564835"><ele>253.0</ele><time>2026-04-12T09:04:14Z</time></trkpt><trkpt lat="45.595177980372185" lon="10.787530478861417"><ele>253.0</ele><time>2026-04-12T09:04:15Z</time></trkpt><trkpt lat="45.595315038050366" lon="10.787750448012515"><ele>253.0</ele><time>2026-04-12T09:04:16Z</time></trkpt><trkpt lat="45.595441687680726" lon="10.787959184463595"><ele>253.33333333333331</ele><time>2026-04-12T09:04:17Z</time></trkpt><trkpt lat="45.59555989194828" lon="10.788139506651557"><ele>253.66666666666669</ele><time>2026-04-12T09:04:18Z</time></trkpt><trkpt lat="45.5956659734944" lon="10.788298896808557"><ele>254.0</ele><time>2026-04-12T09:04:19Z</time></trkpt><trkpt lat="45.595756875332455" lon="10.788438125397068"><ele>254.5</ele><time>2026-04-12T09:04:20Z</time></trkpt><trkpt lat="45.595848549688235" lon="10.788570202789245"><ele>255.0</ele><time>2026-04-12T09:04:21Z</time></trkpt><trkpt lat="45.595933502826" lon="10.788692965853878"><ele>255.5</ele><time>2026-04-12T09:04:22Z</time></trkpt><trkpt lat="45.596018393097175" lon="10.788825452115068"><ele>256.0</ele><time>2026-04-12T09:04:23Z</time></trkpt><trkpt lat="45.5961030408221" lon="10.788964916494967"><ele>255.75</ele><time>2026-04-12T09:04:24Z</time></trkpt><trkpt lat="45.59619005993702" lon="10.789105522204883"><ele>255.5</ele><time>2026-04-12T09:04:25Z</time></trkpt><trkpt lat="45.596275692626755" lon="10.789251056756083"><ele>255.25</ele><time>2026-04-12T09:04:26Z</time></trkpt><trkpt lat="45.59635301616376" lon="10.789392940825365"><ele>255.0</ele><time>2026-04-12T09:04:27Z</time></trkpt><trkpt lat="45.59642368595304" lon="10.789536019113607"><ele>255.0</ele><time>2026-04-12T09:04:28Z</time></trkpt><trkpt lat="45.59649243357616" lon="10.78967658300451"><ele>255.0</ele><time>2026-04-12T09:04:29Z</time></trkpt><trkpt lat="45.59655977289673" lon="10.789807488279687"><ele>255.0</ele><time>2026-04-12T09:04:30Z</time></trkpt><trkpt lat="45.59662002307815" lon="10.78996506133844"><ele>255.0</ele><time>2026-04-12T09:04:31Z</time></trkpt><trkpt lat="45.59667192260622" lon="10.790121233838113"><ele>255.0</ele><time>2026-04-12T09:04:32Z</time></trkpt><trkpt lat="45.59673928688071" lon="10.790290262477473"><ele>255.0</ele><time>2026-04-12T09:04:33Z</time></trkpt><trkpt lat="45.59681889028165" lon="10.790447053574452"><ele>255.0</ele><time>2026-04-12T09:04:34Z</time></trkpt><trkpt lat="45.5969003473452" lon="10.790600852165015"><ele>255.0</ele><time>2026-04-12T09:04:35Z</time></trkpt><trkpt lat="45.59698600812038" lon="10.79075760042595"><ele>254.25</ele><time>2026-04-12T09:04:36Z</time></trkpt><trkpt lat="45.59707623998853" lon="10.79090508756357"><ele>253.5</ele><time>2026-04-12T09:04:37Z</time></trkpt><trkpt lat="45.59717805947088" lon="10.791042555949153"><ele>252.75</ele><time>2026-04-12T09:04:38Z</time></trkpt><trkpt lat="45.597286059739375" lon="10.791168688074046"><ele>252.0</ele><time>2026-04-12T09:04:39Z</time></trkpt><trkpt lat="45.597398333219594" lon="10.791297462935566"><ele>252.0</ele><time>2026-04-12T09:04:40Z</time></trkpt><trkpt lat="45.59751307854348" lon="10.791421410685457"><ele>252.0</ele><time>2026-04-12T09:04:41Z</time></trkpt><trkpt lat="45.59762734491008" lon="10.791536288268482"><ele>252.0</ele><time>2026-04-12T09:04:42Z</time></trkpt><trkpt lat="45.59773684502959" lon="10.791643408520605"><ele>252.0</ele><time>2026-04-12T09:04:43Z</time></trkpt><trkpt lat="45.59784101930028" lon="10.791747123329081"><ele>251.75</ele><time>2026-04-12T09:04:44Z</time></trkpt><trkpt lat="45.59793969661193" lon="10.791846942528021"><ele>251.5</ele><time>2026-04-12T09:04:45Z</time></trkpt><trkpt lat="45.59803259718998" lon="10.791940095513704"><ele>251.25</ele><time>2026-04-12T09:04:46Z</time></trkpt><trkpt lat="45.59812325630573" lon="10.792027539540728"><ele>251.0</ele><time>2026-04-12T09:04:47Z</time></trkpt><trkpt lat="45.59821585092421" lon="10.792103507765772"><ele>251.0</ele><time>2026-04-12T09:04:48Z</time></trkpt><trkpt lat="45.59831688340201" lon="10.792173434641187"><ele>251.0</ele><time>2026-04-12T09:04:49Z</time></trkpt><trkpt lat="45.59842786345756" lon="10.792220107008545"><ele>251.0</ele><time>2026-04-12T09:04:50Z</time></trkpt><trkpt lat="45.59855123580322" lon="10.792261113492225"><ele>251.0</ele><time>2026-04-12T09:04:51Z</time></trkpt><trkpt lat="45.59867595228289" lon="10.792301741059228"><ele>250.25</ele><time>2026-04-12T09:04:52Z</time></trkpt><trkpt lat="45.59879939636731" lon="10.792341902199308"><ele>249.5</ele><time>2026-04-12T09:04:53Z</time></trkpt><trkpt lat="45.59891807350871" lon="10.792390040982495"><ele>248.75</ele><time>2026-04-12T09:04:54Z</time></trkpt><trkpt lat="45.59902961405955" lon="10.792436731450405"><ele>248.0</ele><time>2026-04-12T09:04:55Z</time></trkpt><trkpt lat="45.59913746795678" lon="10.792484252686561"><ele>248.0</ele><time>2026-04-12T09:04:56Z</time></trkpt><trkpt lat="45.5992391138461" lon="10.79254087979457"><ele>248.0</ele><time>2026-04-12T09:04:57Z</time></trkpt><trkpt lat="45.59933480060735" lon="10.79260067706892"><ele>248.0</ele><time>2026-04-12T09:04:58Z</time></trkpt><trkpt lat="45.599417877447024" lon="10.792666859575148"><ele>248.0</ele><time>2026-04-12T09:04:59Z</time></trkpt><trkpt lat="45.59948551995228" lon="10.792744583483769"><ele>248.0</ele><time>2026-04-12T09:05:00Z</time></trkpt><trkpt lat="45.599535984731425" lon="10.792831896056096"><ele>247.60000000000002</ele><time>2026-04-12T09:05:01Z</time></trkpt><trkpt lat="45.59957319660696" lon="10.792947843469586"><ele>247.20000000000002</ele><time>2026-04-12T09:05:02Z</time></trkpt><trkpt lat="45.59961240336163" lon="10.793087466767048"><ele>246.8</ele><time>2026-04-12T09:05:03Z</time></trkpt><trkpt lat="45.59966242201362" lon="10.793226051868219"><ele>246.4</ele><time>2026-04-12T09:05:04Z</time></trkpt><trkpt lat="45.59973819830518" lon="10.793325900666394"><ele>246.0</ele><time>2026-04-12T09:05:05Z</time></trkpt><trkpt lat="45.599843027925715" lon="10.793383380415996"><ele>246.0</ele><time>2026-04-12T09:05:06Z</time></trkpt><trkpt lat="45.599954655594736" lon="10.793382942418607"><ele>246.00000000000003</ele><time>2026-04-12T09:05:07Z</time></trkpt><trkpt lat="45.60005589610862" lon="10.79333100278903"><ele>246.00000000000003</ele><time>2026-04-12T09:05:08Z</time></trkpt><trkpt lat="45.60015777704483" lon="10.793379826538402"><ele>246.0</ele><time>2026-04-12T09:05:09Z</time></trkpt><trkpt lat="45.60023963516922" lon="10.793438671604452"><ele>246.0</ele><time>2026-04-12T09:05:10Z</time></trkpt><trkpt lat="45.600308407804484" lon="10.79352067874922"><ele>246.16666666666666</ele><time>2026-04-12T09:05:11Z</time></trkpt><trkpt lat="45.600340708827126" lon="10.793637466466699"><ele>246.33333333333331</ele><time>2026-04-12T09:05:12Z</time></trkpt><trkpt lat="45.600387497966445" lon="10.793737763162998"><ele>246.5</ele><time>2026-04-12T09:05:13Z</time></trkpt><trkpt lat="45.600442804589164" lon="10.793831634559872"><ele>246.66666666666666</ele><time>2026-04-12T09:05:14Z</time></trkpt><trkpt lat="45.600491141767826" lon="10.793940249139848"><ele>246.83333333333331</ele><time>2026-04-12T09:05:15Z</time></trkpt><trkpt lat="45.60054264737245" lon="10.794039613018048"><ele>247.0</ele><time>2026-04-12T09:05:16Z</time></trkpt><trkpt lat="45.60059386165282" lon="10.794146834774894"><ele>247.0</ele><time>2026-04-12T09:05:17Z</time></trkpt><trkpt lat="45.60064331747355" lon="10.794258026861783"><ele>247.0</ele><time>2026-04-12T09:05:18Z</time></trkpt><trkpt lat="45.60070182320038" lon="10.794360722739357"><ele>247.0</ele><time>2026-04-12T09:05:19Z</time></trkpt><trkpt lat="45.60076738676077" lon="10.794455416782053"><ele>247.0</ele><time>2026-04-12T09:05:20Z</time></trkpt><trkpt lat="45.60083431425625" lon="10.794549190088196"><ele>247.0</ele><time>2026-04-12T09:05:21Z</time></trkpt><trkpt lat="45.60090525761835" lon="10.794642223603688"><ele>247.2</ele><time>2026-04-12T09:05:22Z</time></trkpt><trkpt lat="45.60097854257732" lon="10.79472411957431"><ele>247.39999999999998</ele><time>2026-04-12T09:05:23Z</time></trkpt><trkpt lat="45.60105408907486" lon="10.794809676689514"><ele>247.60000000000002</ele><time>2026-04-12T09:05:24Z</time></trkpt><trkpt lat="45.601129514998334" lon="10.794893524405772"><ele>247.8</ele><time>2026-04-12T09:05:25Z</time></trkpt><trkpt lat="45.60120096152445" lon="10.794971655553455"><ele>248.0</ele><time>2026-04-12T09:05:26Z</time></trkpt><trkpt lat="45.60127224381936" lon="10.795044298805383"><ele>248.0</ele><time>2026-04-12T09:05:27Z</time></trkpt><trkpt lat="45.60135371727457" lon="10.795109418350211"><ele>248.0</ele><time>2026-04-12T09:05:28Z</time></trkpt><trkpt lat="45.60145391951602" lon="10.795151084272128"><ele>248.0</ele><time>2026-04-12T09:05:29Z</time></trkpt><trkpt lat="45.60154582847625" lon="10.795165878482193"><ele>248.0</ele><time>2026-04-12T09:05:30Z</time></trkpt><trkpt lat="45.601645701925875" lon="10.79517641853195"><ele>248.0</ele><time>2026-04-12T09:05:31Z</time></trkpt><trkpt lat="45.60174186195484" lon="10.795179226258842"><ele>248.33333333333334</ele><time>2026-04-12T09:05:32Z</time></trkpt><trkpt lat="45.60183106006982" lon="10.795175164538373"><ele>248.66666666666669</ele><time>2026-04-12T09:05:33Z</time></trkpt><trkpt lat="45.601917869792786" lon="10.795171472444206"><ele>249.0</ele><time>2026-04-12T09:05:34Z</time></trkpt><trkpt lat="45.60200205872134" lon="10.79516376892371"><ele>249.33333333333331</ele><time>2026-04-12T09:05:35Z</time></trkpt><trkpt lat="45.60208559060644" lon="10.795158623022457"><ele>249.66666666666666</ele><time>2026-04-12T09:05:36Z</time></trkpt><trkpt lat="45.60216193807376" lon="10.795159883031296"><ele>250.0</ele><time>2026-04-12T09:05:37Z</time></trkpt><trkpt lat="45.602236334580056" lon="10.795164596540621"><ele>249.99999999999997</ele><time>2026-04-12T09:05:38Z</time></trkpt><trkpt lat="45.602305444790915" lon="10.795169923664416"><ele>250.0</ele><time>2026-04-12T09:05:39Z</time></trkpt><trkpt lat="45.602374879859475" lon="10.795178675379576"><ele>250.0</ele><time>2026-04-12T09:05:40Z</time></trkpt><trkpt lat="45.60244281553486" lon="10.795192603986203"><ele>250.0</ele><time>2026-04-12T09:05:41Z</time></trkpt><trkpt lat="45.60250610700197" lon="10.795223173244748"><ele>249.99999999999997</ele><time>2026-04-12T09:05:42Z</time></trkpt><trkpt lat="45.60260514076021" lon="10.795318575601339"><ele>250.0</ele><time>2026-04-12T09:05:44Z</time></trkpt><trkpt lat="45.60272836704819" lon="10.795274114177353"><ele>250.16666666666666</ele><time>2026-04-12T09:05:46Z</time></trkpt><trkpt lat="45.602789887973096" lon="10.79519798864959"><ele>250.33333333333331</ele><time>2026-04-12T09:05:47Z</time></trkpt><trkpt lat="45.602852707475805" lon="10.79513662563911"><ele>250.5</ele><time>2026-04-12T09:05:48Z</time></trkpt><trkpt lat="45.6029266062759" lon="10.795113058367514"><ele>250.66666666666669</ele><time>2026-04-12T09:05:49Z</time></trkpt><trkpt lat="45.60300353509811" lon="10.795098121730383"><ele>250.83333333333334</ele><time>2026-04-12T09:05:50Z</time></trkpt><trkpt lat="45.60307254567713" lon="10.795079081714906"><ele>251.0</ele><time>2026-04-12T09:05:51Z</time></trkpt><trkpt lat="45.60317783891609" lon="10.795066135086346"><ele>251.00000000000003</ele><time>2026-04-12T09:05:53Z</time></trkpt><trkpt lat="45.60324122510465" lon="10.795096635286741"><ele>251.0</ele><time>2026-04-12T09:05:55Z</time></trkpt><trkpt lat="45.60332610126375" lon="10.795056765501073"><ele>251.0</ele><time>2026-04-12T09:06:03Z</time></trkpt><trkpt lat="45.60339561107342" lon="10.795034825541585"><ele>251.0</ele><time>2026-04-12T09:06:05Z</time></trkpt><trkpt lat="45.603454142407145" lon="10.794987690687686"><ele>251.00000000000003</ele><time>2026-04-12T09:11:26Z</time></trkpt><trkpt lat="45.60351539303991" lon="10.79494847703281"><ele>251.0</ele><time>2026-04-12T09:11:28Z</time></trkpt><trkpt lat="45.6036198119957" lon="10.794892441078632"><ele>251.4</ele><time>2026-04-12T09:11:30Z</time></trkpt><trkpt lat="45.6036963112872" lon="10.79487151793431"><ele>251.8</ele><time>2026-04-12T09:11:31Z</time></trkpt><trkpt lat="45.60378901007828" lon="10.794879801080052"><ele>252.20000000000002</ele><time>2026-04-12T09:11:32Z</time></trkpt><trkpt lat="45.6038825420007" lon="10.794852014616296"><ele>252.60000000000002</ele><time>2026-04-12T09:11:33Z</time></trkpt><trkpt lat="45.603982336282584" lon="10.794822367683551"><ele>253.0</ele><time>2026-04-12T09:11:34Z</time></trkpt><trkpt lat="45.60407946470045" lon="10.794793512763464"><ele>253.0</ele><time>2026-04-12T09:11:35Z</time></trkpt><trkpt lat="45.604171604629386" lon="10.79476614003702"><ele>253.0</ele><time>2026-04-12T09:11:36Z</time></trkpt><trkpt lat="45.604272184264154" lon="10.794737577914335"><ele>253.0</ele><time>2026-04-12T09:11:37Z</time></trkpt><trkpt lat="45.60436834013492" lon="10.7947098120028"><ele>253.0</ele><time>2026-04-12T09:11:38Z</time></trkpt><trkpt lat="45.604464400360335" lon="10.794682073717174"><ele>253.0</ele><time>2026-04-12T09:11:39Z</time></trkpt><trkpt lat="45.60455444690304" lon="10.794656071945813"><ele>253.49999999999997</ele><time>2026-04-12T09:11:40Z</time></trkpt><trkpt lat="45.60464229237153" lon="10.794630949900826"><ele>254.0</ele><time>2026-04-12T09:11:41Z</time></trkpt><trkpt lat="45.604729487589786" lon="10.794606028288795"><ele>254.5</ele><time>2026-04-12T09:11:42Z</time></trkpt><trkpt lat="45.60481382223186" lon="10.794581924248204"><ele>255.0</ele><time>2026-04-12T09:11:43Z</time></trkpt><trkpt lat="45.60488774866441" lon="10.794555846350297"><ele>255.49999999999997</ele><time>2026-04-12T09:11:44Z</time></trkpt><trkpt lat="45.60496820551227" lon="10.79451675599252"><ele>256.0</ele><time>2026-04-12T09:11:45Z</time></trkpt><trkpt lat="45.605037576472974" lon="10.794477987993986"><ele>255.99999999999997</ele><time>2026-04-12T09:11:46Z</time></trkpt><trkpt lat="45.60510263364415" lon="10.794446245029597"><ele>256.0</ele><time>2026-04-12T09:11:47Z</time></trkpt><trkpt lat="45.60516538209875" lon="10.794424781776373"><ele>256.0</ele><time>2026-04-12T09:11:48Z</time></trkpt><trkpt lat="45.60528106540612" lon="10.794398299991892"><ele>256.0</ele><time>2026-04-12T09:11:50Z</time></trkpt><trkpt lat="45.60535005873397" lon="10.794460269095817"><ele>255.99999999999997</ele><time>2026-04-12T09:11:51Z</time></trkpt><trkpt lat="45.605408927063344" lon="10.794522877790484"><ele>256.0</ele><time>2026-04-12T09:11:52Z</time></trkpt><trkpt lat="45.6054587736612" lon="10.794602896951899"><ele>256.5</ele><time>2026-04-12T09:11:53Z</time></trkpt><trkpt lat="45.605488937912924" lon="10.794689844478787"><ele>257.0</ele><time>2026-04-12T09:11:54Z</time></trkpt><trkpt lat="45.60556751469334" lon="10.79482732994761"><ele>257.5</ele><time>2026-04-12T09:11:56Z</time></trkpt><trkpt lat="45.60563792363074" lon="10.79485983444464"><ele>258.0</ele><time>2026-04-12T09:11:57Z</time></trkpt><trkpt lat="45.60571399414803" lon="10.794857746735339"><ele>258.5</ele><time>2026-04-12T09:11:58Z</time></trkpt><trkpt lat="45.605789706407464" lon="10.794833097313855"><ele>259.0</ele><time>2026-04-12T09:11:59Z</time></trkpt><trkpt lat="45.60587298049714" lon="10.794827539625098"><ele>259.0</ele><time>2026-04-12T09:12:00Z</time></trkpt><trkpt lat="45.605953556678465" lon="10.794813258605663"><ele>259.0</ele><time>2026-04-12T09:12:01Z</time></trkpt><trkpt lat="45.60603444553136" lon="10.794814936729578"><ele>259.0</ele><time>2026-04-12T09:12:02Z</time></trkpt><trkpt lat="45.60610466187506" lon="10.794819083278286"><ele>259.0</ele><time>2026-04-12T09:12:03Z</time></trkpt><trkpt lat="45.60621268483048" lon="10.794859787733612"><ele>259.0</ele><time>2026-04-12T09:12:05Z</time></trkpt><trkpt lat="45.60630883429716" lon="10.7948940342385"><ele>259.0</ele><time>2026-04-12T09:12:07Z</time></trkpt><trkpt lat="45.60634513834991" lon="10.795051332796483"><ele>259.59999999999997</ele><time>2026-04-12T09:12:08Z</time></trkpt><trkpt lat="45.60638471827671" lon="10.795149801355068"><ele>260.2</ele><time>2026-04-12T09:12:09Z</time></trkpt><trkpt lat="45.606416054835286" lon="10.795266920318147"><ele>260.79999999999995</ele><time>2026-04-12T09:12:10Z</time></trkpt><trkpt lat="45.60641397655584" lon="10.795398090372835"><ele>261.4</ele><time>2026-04-12T09:12:11Z</time></trkpt><trkpt lat="45.60643515447908" lon="10.795531786928326"><ele>262.0</ele><time>2026-04-12T09:12:12Z</time></trkpt><trkpt lat="45.60644670371368" lon="10.795678370661596"><ele>262.4</ele><time>2026-04-12T09:12:13Z</time></trkpt><trkpt lat="45.60645547436788" lon="10.79582315334258"><ele>262.79999999999995</ele><time>2026-04-12T09:12:14Z</time></trkpt><trkpt lat="45.60647020192855" lon="10.795963578417396"><ele>263.2</ele><time>2026-04-12T09:12:15Z</time></trkpt><trkpt lat="45.60647752217697" lon="10.796107582558122"><ele>263.59999999999997</ele><time>2026-04-12T09:12:16Z</time></trkpt><trkpt lat="45.60649503973879" lon="10.796244706551999"><ele>264.0</ele><time>2026-04-12T09:12:17Z</time></trkpt><trkpt lat="45.60650841779524" lon="10.796394719996218"><ele>264.2</ele><time>2026-04-12T09:12:18Z</time></trkpt><trkpt lat="45.606525449743586" lon="10.796540318191632"><ele>264.4</ele><time>2026-04-12T09:12:19Z</time></trkpt><trkpt lat="45.60653670566187" lon="10.796679679444503"><ele>264.6</ele><time>2026-04-12T09:12:20Z</time></trkpt><trkpt lat="45.60655149805907" lon="10.796821994570152"><ele>264.8</ele><time>2026-04-12T09:12:21Z</time></trkpt><trkpt lat="45.606562562068746" lon="10.796967802141038"><ele>265.0</ele><time>2026-04-12T09:12:22Z</time></trkpt><trkpt lat="45.606578809267916" lon="10.797123242416703"><ele>265.5</ele><time>2026-04-12T09:12:23Z</time></trkpt><trkpt lat="45.60659909387631" lon="10.797271862447575"><ele>266.0</ele><time>2026-04-12T09:12:24Z</time></trkpt><trkpt lat="45.606626962260044" lon="10.79742796302889"><ele>266.5</ele><time>2026-04-12T09:12:25Z</time></trkpt><trkpt lat="45.60664150580849" lon="10.797593211486209"><ele>267.0</ele><time>2026-04-12T09:12:26Z</time></trkpt><trkpt lat="45.606670062518624" lon="10.797755922004011"><ele>268.0</ele><time>2026-04-12T09:12:27Z</time></trkpt><trkpt lat="45.60669992808324" lon="10.797919010930082"><ele>269.0</ele><time>2026-04-12T09:12:28Z</time></trkpt><trkpt lat="45.60672714218874" lon="10.79807977686665"><ele>270.0</ele><time>2026-04-12T09:12:29Z</time></trkpt><trkpt lat="45.60675653604284" lon="10.798244196116446"><ele>271.0</ele><time>2026-04-12T09:12:30Z</time></trkpt><trkpt lat="45.60677459261316" lon="10.798401758971602"><ele>271.40000000000003</ele><time>2026-04-12T09:12:31Z</time></trkpt><trkpt lat="45.60679450908949" lon="10.79856465058764"><ele>271.8</ele><time>2026-04-12T09:12:32Z</time></trkpt><trkpt lat="45.60680311338216" lon="10.798721399698088"><ele>272.20000000000005</ele><time>2026-04-12T09:12:33Z</time></trkpt><trkpt lat="45.6068098344198" lon="10.798859956978703"><ele>272.6</ele><time>2026-04-12T09:12:34Z</time></trkpt><trkpt lat="45.60681761491173" lon="10.799015793993952"><ele>273.0</ele><time>2026-04-12T09:12:35Z</time></trkpt><trkpt lat="45.60682228961217" lon="10.799160757493553"><ele>273.0</ele><time>2026-04-12T09:12:36Z</time></trkpt><trkpt lat="45.606830710600825" lon="10.799303895373031"><ele>273.0</ele><time>2026-04-12T09:12:37Z</time></trkpt><trkpt lat="45.60684089338274" lon="10.799458655580246"><ele>273.0</ele><time>2026-04-12T09:12:38Z</time></trkpt><trkpt lat="45.60685136944786" lon="10.799614068470115"><ele>273.0</ele><time>2026-04-12T09:12:39Z</time></trkpt><trkpt lat="45.6068611651215" lon="10.799762534570252"><ele>273.0</ele><time>2026-04-12T09:12:40Z</time></trkpt><trkpt lat="45.60687201328881" lon="10.799912986531764"><ele>273.25</ele><time>2026-04-12T09:12:41Z</time></trkpt><trkpt lat="45.60691377578073" lon="10.800056285863187"><ele>273.5</ele><time>2026-04-12T09:12:42Z</time></trkpt><trkpt lat="45.6069730076681" lon="10.80018911737607"><ele>273.75</ele><time>2026-04-12T09:12:43Z</time></trkpt><trkpt lat="45.60704725818721" lon="10.800319548762262"><ele>274.0</ele><time>2026-04-12T09:12:44Z</time></trkpt><trkpt lat="45.607124091152215" lon="10.80044242742931"><ele>274.75</ele><time>2026-04-12T09:12:45Z</time></trkpt><trkpt lat="45.607204359505886" lon="10.800573934163793"><ele>275.5</ele><time>2026-04-12T09:12:46Z</time></trkpt><trkpt lat="45.607289538073985" lon="10.800715956609235"><ele>276.25</ele><time>2026-04-12T09:12:47Z</time></trkpt><trkpt lat="45.60736960971796" lon="10.800859069122025"><ele>277.0</ele><time>2026-04-12T09:12:48Z</time></trkpt><trkpt lat="45.607456211752385" lon="10.801005591914306"><ele>277.5</ele><time>2026-04-12T09:12:49Z</time></trkpt><trkpt lat="45.60753355700718" lon="10.80114046989099"><ele>278.0</ele><time>2026-04-12T09:12:50Z</time></trkpt><trkpt lat="45.60761166279088" lon="10.801275643733263"><ele>278.5</ele><time>2026-04-12T09:12:51Z</time></trkpt><trkpt lat="45.60768613103504" lon="10.801407988587087"><ele>279.0</ele><time>2026-04-12T09:12:52Z</time></trkpt><trkpt lat="45.60776209497004" lon="10.801537322411253"><ele>279.59999999999997</ele><time>2026-04-12T09:12:53Z</time></trkpt><trkpt lat="45.60783355726727" lon="10.801665429959758"><ele>280.2</ele><time>2026-04-12T09:12:54Z</time></trkpt><trkpt lat="45.60789923735038" lon="10.80177942586174"><ele>280.79999999999995</ele><time>2026-04-12T09:12:55Z</time></trkpt><trkpt lat="45.607951070363896" lon="10.801876119076063"><ele>281.4</ele><time>2026-04-12T09:12:56Z</time></trkpt><trkpt lat="45.60802400600508" lon="10.801981114961338"><ele>282.0</ele><time>2026-04-12T09:12:57Z</time></trkpt><trkpt lat="45.608080228014245" lon="10.802088866807521"><ele>282.2</ele><time>2026-04-12T09:12:58Z</time></trkpt><trkpt lat="45.60813902779954" lon="10.802198660699327"><ele>282.4</ele><time>2026-04-12T09:12:59Z</time></trkpt><trkpt lat="45.60819470427706" lon="10.802313892602015"><ele>282.6</ele><time>2026-04-12T09:13:00Z</time></trkpt><trkpt lat="45.60824377524763" lon="10.802438053700138"><ele>282.8</ele><time>2026-04-12T09:13:01Z</time></trkpt><trkpt lat="45.6082917483479" lon="10.802563447309936"><ele>283.0</ele><time>2026-04-12T09:13:02Z</time></trkpt><trkpt lat="45.608336230738416" lon="10.802680082259904"><ele>283.0</ele><time>2026-04-12T09:13:03Z</time></trkpt><trkpt lat="45.60837330521554" lon="10.80278785507614"><ele>283.0</ele><time>2026-04-12T09:13:04Z</time></trkpt><trkpt lat="45.60840895870785" lon="10.80287475267833"><ele>283.0</ele><time>2026-04-12T09:13:05Z</time></trkpt><trkpt lat="45.60843891819099" lon="10.802961258009413"><ele>283.0</ele><time>2026-04-12T09:13:06Z</time></trkpt><trkpt lat="45.60846658296967" lon="10.80304457495068"><ele>283.0</ele><time>2026-04-12T09:13:07Z</time></trkpt><trkpt lat="45.60849751727194" lon="10.803141972480374"><ele>283.0</ele><time>2026-04-12T09:13:08Z</time></trkpt><trkpt lat="45.60853353808974" lon="10.803235803318499"><ele>283.0</ele><time>2026-04-12T09:13:08.999Z</time></trkpt><trkpt lat="45.60857228082212" lon="10.803329298426776"><ele>283.0</ele><time>2026-04-12T09:13:09.999Z</time></trkpt><trkpt lat="45.60860819158702" lon="10.803429570412417"><ele>283.0</ele><time>2026-04-12T09:13:10.999Z</time></trkpt><trkpt lat="45.60864600767191" lon="10.803535400960516"><ele>283.0</ele><time>2026-04-12T09:13:11.999Z</time></trkpt><trkpt lat="45.60867913350931" lon="10.803658933222453"><ele>283.0</ele><time>2026-04-12T09:13:12.999Z</time></trkpt><trkpt lat="45.60871926316306" lon="10.803787830898795"><ele>283.0</ele><time>2026-04-12T09:13:13.999Z</time></trkpt><trkpt lat="45.60876418438142" lon="10.803928220002495"><ele>284.0</ele><time>2026-04-12T09:13:14.999Z</time></trkpt><trkpt lat="45.608783864976736" lon="10.804084803374579"><ele>285.0</ele><time>2026-04-12T09:13:15.999Z</time></trkpt><trkpt lat="45.60877260129236" lon="10.804265656458432"><ele>286.0</ele><time>2026-04-12T09:13:16.999Z</time></trkpt><trkpt lat="45.608766172705224" lon="10.804455412826805"><ele>287.0</ele><time>2026-04-12T09:13:17.999Z</time></trkpt><trkpt lat="45.60875600893777" lon="10.804659237153835"><ele>287.0</ele><time>2026-04-12T09:13:18.999Z</time></trkpt><trkpt lat="45.60875729582363" lon="10.804859578742265"><ele>287.0</ele><time>2026-04-12T09:13:20Z</time></trkpt><trkpt lat="45.608746859882245" lon="10.80504399842113"><ele>287.0</ele><time>2026-04-12T09:13:21Z</time></trkpt><trkpt lat="45.608738611355356" lon="10.805208495661716"><ele>287.0</ele><time>2026-04-12T09:13:22Z</time></trkpt><trkpt lat="45.60873029250857" lon="10.805359642918145"><ele>287.0</ele><time>2026-04-12T09:13:23Z</time></trkpt><trkpt lat="45.60872314920016" lon="10.805519418691052"><ele>287.0</ele><time>2026-04-12T09:13:24Z</time></trkpt><trkpt lat="45.60869811499325" lon="10.805691531698985"><ele>287.0</ele><time>2026-04-12T09:13:25Z</time></trkpt><trkpt lat="45.6086886968824" lon="10.80588447414176"><ele>287.0</ele><time>2026-04-12T09:13:26Z</time></trkpt><trkpt lat="45.608678914848475" lon="10.806084872349256"><ele>287.0</ele><time>2026-04-12T09:13:27Z</time></trkpt><trkpt lat="45.60866890643772" lon="10.806291074788746"><ele>287.0</ele><time>2026-04-12T09:13:28Z</time></trkpt><trkpt lat="45.608659626386526" lon="10.806486635376427"><ele>287.0</ele><time>2026-04-12T09:13:29Z</time></trkpt><trkpt lat="45.60865091934388" lon="10.80667012078624"><ele>287.0</ele><time>2026-04-12T09:13:30Z</time></trkpt><trkpt lat="45.60864271674606" lon="10.806842975956963"><ele>285.25</ele><time>2026-04-12T09:13:31Z</time></trkpt><trkpt lat="45.6086348792153" lon="10.807008137960098"><ele>283.5</ele><time>2026-04-12T09:13:32Z</time></trkpt><trkpt lat="45.608627240095224" lon="10.807169118851384"><ele>281.75</ele><time>2026-04-12T09:13:33Z</time></trkpt><trkpt lat="45.60861920161387" lon="10.807338514136061"><ele>280.0</ele><time>2026-04-12T09:13:34Z</time></trkpt><trkpt lat="45.60861100298239" lon="10.807512978416476"><ele>279.0</ele><time>2026-04-12T09:13:35Z</time></trkpt><trkpt lat="45.60862036829122" lon="10.807696837955003"><ele>278.0</ele><time>2026-04-12T09:13:36Z</time></trkpt><trkpt lat="45.60861704541477" lon="10.807879724151354"><ele>277.0</ele><time>2026-04-12T09:13:37Z</time></trkpt><trkpt lat="45.608619880620154" lon="10.808057887660054"><ele>276.0</ele><time>2026-04-12T09:13:38Z</time></trkpt><trkpt lat="45.608637776287736" lon="10.808234042413405"><ele>277.75</ele><time>2026-04-12T09:13:39Z</time></trkpt><trkpt lat="45.60867621361803" lon="10.808403148207073"><ele>279.5</ele><time>2026-04-12T09:13:40Z</time></trkpt><trkpt lat="45.60871849858017" lon="10.80857446978585"><ele>281.25</ele><time>2026-04-12T09:13:41Z</time></trkpt><trkpt lat="45.608770039251745" lon="10.808741761473794"><ele>283.0</ele><time>2026-04-12T09:13:42Z</time></trkpt><trkpt lat="45.60883327115334" lon="10.808902958008167"><ele>283.25</ele><time>2026-04-12T09:13:43Z</time></trkpt><trkpt lat="45.60890472741901" lon="10.80905328093813"><ele>283.5</ele><time>2026-04-12T09:13:44Z</time></trkpt><trkpt lat="45.608980702788806" lon="10.809200782886755"><ele>283.75</ele><time>2026-04-12T09:13:45Z</time></trkpt><trkpt lat="45.609055991112264" lon="10.809346116423413"><ele>284.0</ele><time>2026-04-12T09:13:46Z</time></trkpt><trkpt lat="45.60911676119975" lon="10.809509816956142"><ele>283.25</ele><time>2026-04-12T09:13:47Z</time></trkpt><trkpt lat="45.60919026855035" lon="10.809660735220659"><ele>282.5</ele><time>2026-04-12T09:13:48Z</time></trkpt><trkpt lat="45.609274264343405" lon="10.809808607284529"><ele>281.75</ele><time>2026-04-12T09:13:49Z</time></trkpt><trkpt lat="45.60934787935513" lon="10.809959293172108"><ele>281.0</ele><time>2026-04-12T09:13:50Z</time></trkpt><trkpt lat="45.60942727369316" lon="10.81011095014269"><ele>281.5</ele><time>2026-04-12T09:13:51Z</time></trkpt><trkpt lat="45.6094895140252" lon="10.810282504915099"><ele>282.0</ele><time>2026-04-12T09:13:52Z</time></trkpt><trkpt lat="45.60957875658357" lon="10.81042771720722"><ele>282.5</ele><time>2026-04-12T09:13:53Z</time></trkpt><trkpt lat="45.60964521521412" lon="10.81057367867245"><ele>283.0</ele><time>2026-04-12T09:13:54Z</time></trkpt><trkpt lat="45.60970944178834" lon="10.810707371657303"><ele>283.5</ele><time>2026-04-12T09:13:55Z</time></trkpt><trkpt lat="45.60977095516097" lon="10.810833993028714"><ele>284.0</ele><time>2026-04-12T09:13:56Z</time></trkpt><trkpt lat="45.60984515374669" lon="10.810958476353626"><ele>284.5</ele><time>2026-04-12T09:13:57Z</time></trkpt><trkpt lat="45.609931195230615" lon="10.811070678501459"><ele>285.0</ele><time>2026-04-12T09:13:58Z</time></trkpt><trkpt lat="45.61003181978378" lon="10.811163141616095"><ele>285.75</ele><time>2026-04-12T09:13:59Z</time></trkpt><trkpt lat="45.61015609330292" lon="10.811231689418431"><ele>286.5</ele><time>2026-04-12T09:14:00Z</time></trkpt><trkpt lat="45.61030157013963" lon="10.811286311610887"><ele>287.25</ele><time>2026-04-12T09:14:01Z</time></trkpt><trkpt lat="45.61045310325319" lon="10.811325559682748"><ele>288.0</ele><time>2026-04-12T09:14:02Z</time></trkpt><trkpt lat="45.610603113008345" lon="10.81135802331867"><ele>289.0</ele><time>2026-04-12T09:14:03Z</time></trkpt><trkpt lat="45.610747759290994" lon="10.811385567412305"><ele>290.0</ele><time>2026-04-12T09:14:04Z</time></trkpt><trkpt lat="45.610890473331615" lon="10.81140733628151"><ele>291.0</ele><time>2026-04-12T09:14:05Z</time></trkpt><trkpt lat="45.611021804090086" lon="10.811431583083449"><ele>292.0</ele><time>2026-04-12T09:14:06Z</time></trkpt><trkpt lat="45.61113779987276" lon="10.811450066001203"><ele>295.25</ele><time>2026-04-12T09:14:07Z</time></trkpt><trkpt lat="45.61124433266944" lon="10.811479954166863"><ele>298.5</ele><time>2026-04-12T09:14:08Z</time></trkpt><trkpt lat="45.61135208461218" lon="10.811527522116814"><ele>301.75</ele><time>2026-04-12T09:14:09Z</time></trkpt><trkpt lat="45.611459656480825" lon="10.811600208233994"><ele>305.0</ele><time>2026-04-12T09:14:10Z</time></trkpt><trkpt lat="45.6115686743962" lon="10.811699281149837"><ele>303.0</ele><time>2026-04-12T09:14:11Z</time></trkpt><trkpt lat="45.61168780367375" lon="10.811827967172485"><ele>301.0</ele><time>2026-04-12T09:14:12Z</time></trkpt><trkpt lat="45.61180890588856" lon="10.811980855841561"><ele>299.0</ele><time>2026-04-12T09:14:13Z</time></trkpt><trkpt lat="45.61192890911631" lon="10.81215801053965"><ele>303.33333333333337</ele><time>2026-04-12T09:14:14Z</time></trkpt><trkpt lat="45.612057983308475" lon="10.812356947290098"><ele>307.6666666666667</ele><time>2026-04-12T09:14:15Z</time></trkpt><trkpt lat="45.612167358420265" lon="10.812588237100565"><ele>312.0</ele><time>2026-04-12T09:14:16Z</time></trkpt><trkpt lat="45.612285333266534" lon="10.812768057808187"><ele>312.0</ele><time>2026-04-12T09:14:17Z</time></trkpt><trkpt lat="45.61239655705658" lon="10.81293520700267"><ele>312.0</ele><time>2026-04-12T09:14:18Z</time></trkpt><trkpt lat="45.6125166966505" lon="10.813081420429874"><ele>312.0</ele><time>2026-04-12T09:14:19Z</time></trkpt><trkpt lat="45.612617275215044" lon="10.813244028246798"><ele>312.0</ele><time>2026-04-12T09:14:20Z</time></trkpt><trkpt lat="45.61272154217764" lon="10.813406343001594"><ele>312.0</ele><time>2026-04-12T09:14:21Z</time></trkpt><trkpt lat="45.6128238739964" lon="10.813563335655983"><ele>312.0</ele><time>2026-04-12T09:14:22Z</time></trkpt><trkpt lat="45.612922869830214" lon="10.813708062737062"><ele>312.0</ele><time>2026-04-12T09:14:23Z</time></trkpt><trkpt lat="45.61302270190871" lon="10.813846851720088"><ele>314.25</ele><time>2026-04-12T09:14:24Z</time></trkpt><trkpt lat="45.613131937547806" lon="10.813984737167521"><ele>316.5</ele><time>2026-04-12T09:14:25Z</time></trkpt><trkpt lat="45.61325041958609" lon="10.81409143275528"><ele>318.75</ele><time>2026-04-12T09:14:26Z</time></trkpt><trkpt lat="45.61337720748316" lon="10.814179247868603"><ele>321.0</ele><time>2026-04-12T09:14:27Z</time></trkpt><trkpt lat="45.61350724900053" lon="10.814257652231575"><ele>321.25</ele><time>2026-04-12T09:14:28Z</time></trkpt><trkpt lat="45.613635187358774" lon="10.814339694796487"><ele>321.5</ele><time>2026-04-12T09:14:29Z</time></trkpt><trkpt lat="45.61376708685688" lon="10.814430985658936"><ele>321.75</ele><time>2026-04-12T09:14:30Z</time></trkpt><trkpt lat="45.61390277150701" lon="10.81452321003694"><ele>322.0</ele><time>2026-04-12T09:14:31Z</time></trkpt><trkpt lat="45.614040426688575" lon="10.814618922322015"><ele>322.0</ele><time>2026-04-12T09:14:32Z</time></trkpt><trkpt lat="45.614180827296586" lon="10.814728538818411"><ele>322.0</ele><time>2026-04-12T09:14:33Z</time></trkpt><trkpt lat="45.61431573850333" lon="10.814858086723685"><ele>322.0</ele><time>2026-04-12T09:14:34Z</time></trkpt><trkpt lat="45.61443638927545" lon="10.81498638369047"><ele>324.0</ele><time>2026-04-12T09:14:35Z</time></trkpt><trkpt lat="45.614548447770304" lon="10.815109266969628"><ele>326.0</ele><time>2026-04-12T09:14:36Z</time></trkpt><trkpt lat="45.61465896840573" lon="10.81522805558979"><ele>328.0</ele><time>2026-04-12T09:14:37Z</time></trkpt><trkpt lat="45.61476788590253" lon="10.815346230053585"><ele>330.0</ele><time>2026-04-12T09:14:38Z</time></trkpt><trkpt lat="45.61487228005876" lon="10.815447257545465"><ele>330.0</ele><time>2026-04-12T09:14:39Z</time></trkpt><trkpt lat="45.614961717678824" lon="10.815539251452693"><ele>330.0</ele><time>2026-04-12T09:14:40Z</time></trkpt><trkpt lat="45.61504445751922" lon="10.815627287933205"><ele>330.0</ele><time>2026-04-12T09:14:41Z</time></trkpt><trkpt lat="45.61512703219814" lon="10.815716836273248"><ele>330.0</ele><time>2026-04-12T09:14:42Z</time></trkpt><trkpt lat="45.6152116325304" lon="10.815805373518767"><ele>330.0</ele><time>2026-04-12T09:14:43Z</time></trkpt><trkpt lat="45.615296618737815" lon="10.815897246845827"><ele>333.25</ele><time>2026-04-12T09:14:44Z</time></trkpt><trkpt lat="45.61538696122501" lon="10.815989932079983"><ele>336.5</ele><time>2026-04-12T09:14:45Z</time></trkpt><trkpt lat="45.615488019839766" lon="10.816091803257056"><ele>339.75</ele><time>2026-04-12T09:14:46Z</time></trkpt><trkpt lat="45.61557613463615" lon="10.816228820940436"><ele>343.0</ele><time>2026-04-12T09:14:47Z</time></trkpt><trkpt lat="45.61566622587178" lon="10.816366909403698"><ele>343.0</ele><time>2026-04-12T09:14:48Z</time></trkpt><trkpt lat="45.61576013710202" lon="10.816497767106561"><ele>343.0</ele><time>2026-04-12T09:14:49Z</time></trkpt><trkpt lat="45.61581346179566" lon="10.81665940492963"><ele>343.0</ele><time>2026-04-12T09:14:50Z</time></trkpt><trkpt lat="45.61586907586201" lon="10.816824724181819"><ele>343.0</ele><time>2026-04-12T09:14:51Z</time></trkpt><trkpt lat="45.61592819011575" lon="10.816992018030142"><ele>341.5</ele><time>2026-04-12T09:14:52Z</time></trkpt><trkpt lat="45.61596497348175" lon="10.817165984328803"><ele>340.0</ele><time>2026-04-12T09:14:53Z</time></trkpt><trkpt lat="45.61600308520801" lon="10.817344103426178"><ele>338.5</ele><time>2026-04-12T09:14:54Z</time></trkpt><trkpt lat="45.61604150566947" lon="10.817519569322519"><ele>337.0</ele><time>2026-04-12T09:14:55Z</time></trkpt><trkpt lat="45.61607853876235" lon="10.81769793577895"><ele>336.5</ele><time>2026-04-12T09:14:56Z</time></trkpt><trkpt lat="45.6161470698322" lon="10.817863426815705"><ele>336.0</ele><time>2026-04-12T09:14:57Z</time></trkpt><trkpt lat="45.61621567425338" lon="10.818006794491371"><ele>335.5</ele><time>2026-04-12T09:14:58Z</time></trkpt><trkpt lat="45.61628223095614" lon="10.818148149971874"><ele>335.0</ele><time>2026-04-12T09:14:59Z</time></trkpt><trkpt lat="45.61634396258274" lon="10.81828430774497"><ele>338.5</ele><time>2026-04-12T09:15:00Z</time></trkpt><trkpt lat="45.61640387666703" lon="10.818422363851464"><ele>342.0</ele><time>2026-04-12T09:15:01Z</time></trkpt><trkpt lat="45.61646161966169" lon="10.818553508291341"><ele>345.5</ele><time>2026-04-12T09:15:02Z</time></trkpt><trkpt lat="45.61652493984088" lon="10.81868665236685"><ele>349.0</ele><time>2026-04-12T09:15:03Z</time></trkpt><trkpt lat="45.61659159262145" lon="10.818821029316622"><ele>349.0</ele><time>2026-04-12T09:15:04Z</time></trkpt><trkpt lat="45.616652584383736" lon="10.818955109397912"><ele>349.0</ele><time>2026-04-12T09:15:05Z</time></trkpt><trkpt lat="45.61671062166637" lon="10.81909035113255"><ele>349.0</ele><time>2026-04-12T09:15:06Z</time></trkpt><trkpt lat="45.616770516376214" lon="10.819227846829177"><ele>349.0</ele><time>2026-04-12T09:15:07Z</time></trkpt><trkpt lat="45.61683304501499" lon="10.819364472851468"><ele>348.25</ele><time>2026-04-12T09:15:08Z</time></trkpt><trkpt lat="45.61689627987812" lon="10.81950105240341"><ele>347.5</ele><time>2026-04-12T09:15:09Z</time></trkpt><trkpt lat="45.61695418523424" lon="10.819634432765758"><ele>346.75</ele><time>2026-04-12T09:15:10Z</time></trkpt><trkpt lat="45.617013442323994" lon="10.819771985418578"><ele>346.0</ele><time>2026-04-12T09:15:11Z</time></trkpt><trkpt lat="45.61706925081865" lon="10.819912696625082"><ele>350.25</ele><time>2026-04-12T09:15:12Z</time></trkpt><trkpt lat="45.617119035081465" lon="10.82005449668176"><ele>354.5</ele><time>2026-04-12T09:15:13Z</time></trkpt><trkpt lat="45.61714314698182" lon="10.820214418116525"><ele>358.75</ele><time>2026-04-12T09:15:14Z</time></trkpt><trkpt lat="45.617181135014796" lon="10.820366450513006"><ele>363.0</ele><time>2026-04-12T09:15:14.999Z</time></trkpt><trkpt lat="45.61721764655051" lon="10.820520326573297"><ele>363.0</ele><time>2026-04-12T09:15:15.999Z</time></trkpt><trkpt lat="45.617265705546146" lon="10.820670030489099"><ele>363.0</ele><time>2026-04-12T09:15:16.999Z</time></trkpt><trkpt lat="45.61730047148485" lon="10.820826649217281"><ele>363.0</ele><time>2026-04-12T09:15:17.999Z</time></trkpt><trkpt lat="45.617337089326625" lon="10.82098197177869"><ele>363.0</ele><time>2026-04-12T09:15:18.999Z</time></trkpt><trkpt lat="45.61736193866614" lon="10.821138476788612"><ele>362.75</ele><time>2026-04-12T09:15:19.999Z</time></trkpt><trkpt lat="45.61738741322968" lon="10.821302116017947"><ele>362.5</ele><time>2026-04-12T09:15:20.999Z</time></trkpt><trkpt lat="45.617408012279384" lon="10.821459059121295"><ele>362.25</ele><time>2026-04-12T09:15:21.999Z</time></trkpt><trkpt lat="45.617434924701676" lon="10.821623574880256"><ele>362.0</ele><time>2026-04-12T09:15:22.999Z</time></trkpt><trkpt lat="45.61745919514688" lon="10.821801615647795"><ele>362.0</ele><time>2026-04-12T09:15:23.999Z</time></trkpt><trkpt lat="45.61753429937394" lon="10.82197660875457"><ele>362.0</ele><time>2026-04-12T09:15:24.999Z</time></trkpt><trkpt lat="45.61761105812866" lon="10.822163517752394"><ele>362.0</ele><time>2026-04-12T09:15:25.999Z</time></trkpt><trkpt lat="45.61768767805425" lon="10.822362342466374"><ele>362.0</ele><time>2026-04-12T09:15:26.999Z</time></trkpt><trkpt lat="45.61777230534328" lon="10.8225528956492"><ele>362.0</ele><time>2026-04-12T09:15:27.999Z</time></trkpt><trkpt lat="45.6178420859549" lon="10.822761498264875"><ele>362.0</ele><time>2026-04-12T09:15:28.999Z</time></trkpt><trkpt lat="45.61788603213494" lon="10.82300120082633"><ele>366.5</ele><time>2026-04-12T09:15:29.999Z</time></trkpt><trkpt lat="45.61792201267396" lon="10.823233960412654"><ele>371.0</ele><time>2026-04-12T09:15:30.999Z</time></trkpt><trkpt lat="45.61795222372862" lon="10.823436074688718"><ele>375.5</ele><time>2026-04-12T09:15:31.999Z</time></trkpt><trkpt lat="45.617982789455795" lon="10.823621820318968"><ele>380.0</ele><time>2026-04-12T09:15:33Z</time></trkpt><trkpt lat="45.61801183363255" lon="10.823782551866502"><ele>380.6</ele><time>2026-04-12T09:15:34Z</time></trkpt><trkpt lat="45.618051230020676" lon="10.823917552530279"><ele>381.2</ele><time>2026-04-12T09:15:35Z</time></trkpt><trkpt lat="45.61808084025227" lon="10.824038731920853"><ele>381.79999999999995</ele><time>2026-04-12T09:15:36Z</time></trkpt><trkpt lat="45.61813563607656" lon="10.824132731395407"><ele>382.4</ele><time>2026-04-12T09:15:37Z</time></trkpt><trkpt lat="45.618226611484445" lon="10.824198361997063"><ele>383.0</ele><time>2026-04-12T09:15:38Z</time></trkpt><trkpt lat="45.618337492763594" lon="10.824219545837463"><ele>383.0</ele><time>2026-04-12T09:15:39Z</time></trkpt><trkpt lat="45.61844993886457" lon="10.824177622119091"><ele>383.0</ele><time>2026-04-12T09:15:40Z</time></trkpt><trkpt lat="45.61853462994869" lon="10.824072371183826"><ele>383.0</ele><time>2026-04-12T09:15:41Z</time></trkpt><trkpt lat="45.61858631633138" lon="10.823928287485263"><ele>383.0</ele><time>2026-04-12T09:15:42Z</time></trkpt><trkpt lat="45.61860416059433" lon="10.82375282640152"><ele>383.0</ele><time>2026-04-12T09:15:43Z</time></trkpt><trkpt lat="45.61858982674678" lon="10.823542146933734"><ele>383.0</ele><time>2026-04-12T09:15:44Z</time></trkpt><trkpt lat="45.61856591404969" lon="10.823259859106875"><ele>383.0</ele><time>2026-04-12T09:15:45Z</time></trkpt><trkpt lat="45.618536458863986" lon="10.822971376406848"><ele>383.5</ele><time>2026-04-12T09:15:46Z</time></trkpt><trkpt lat="45.61852476040093" lon="10.822625619893538"><ele>384.0</ele><time>2026-04-12T09:15:47Z</time></trkpt><trkpt lat="45.61851155604318" lon="10.822270390674245"><ele>384.0</ele><time>2026-04-12T09:15:48Z</time></trkpt><trkpt lat="45.6185029513237" lon="10.821899016961297"><ele>384.0</ele><time>2026-04-12T09:15:49Z</time></trkpt><trkpt lat="45.61850333126997" lon="10.821561490103164"><ele>386.5</ele><time>2026-04-12T09:15:50Z</time></trkpt><trkpt lat="45.61850203212858" lon="10.821238855750622"><ele>389.0</ele><time>2026-04-12T09:15:51Z</time></trkpt><trkpt lat="45.618501196885425" lon="10.820914693143314"><ele>390.3333333333333</ele><time>2026-04-12T09:15:52Z</time></trkpt><trkpt lat="45.61850003809224" lon="10.820626018990344"><ele>391.66666666666663</ele><time>2026-04-12T09:15:53Z</time></trkpt><trkpt lat="45.6185018686525" lon="10.820375203882243"><ele>393.0</ele><time>2026-04-12T09:15:54Z</time></trkpt><trkpt lat="45.61850426000803" lon="10.820158403182871"><ele>393.0</ele><time>2026-04-12T09:15:55Z</time></trkpt><trkpt lat="45.61850458483616" lon="10.819961731834743"><ele>393.0</ele><time>2026-04-12T09:15:56Z</time></trkpt><trkpt lat="45.61851917855009" lon="10.819790385625895"><ele>393.0</ele><time>2026-04-12T09:15:57Z</time></trkpt><trkpt lat="45.61853311876208" lon="10.819645102246522"><ele>393.0</ele><time>2026-04-12T09:15:58Z</time></trkpt><trkpt lat="45.61867966239235" lon="10.819595563182956"><ele>398.25</ele><time>2026-04-12T09:15:59Z</time></trkpt><trkpt lat="45.61880875407331" lon="10.819558974714813"><ele>403.5</ele><time>2026-04-12T09:16:00Z</time></trkpt><trkpt lat="45.61893069052804" lon="10.819612203431134"><ele>408.75</ele><time>2026-04-12T09:16:01Z</time></trkpt><trkpt lat="45.61901322714387" lon="10.819763337430242"><ele>414.0</ele><time>2026-04-12T09:16:02Z</time></trkpt><trkpt lat="45.6190282202158" lon="10.819963896807064"><ele>415.33333333333337</ele><time>2026-04-12T09:16:03Z</time></trkpt><trkpt lat="45.619044219005374" lon="10.82020711625392"><ele>416.6666666666667</ele><time>2026-04-12T09:16:04Z</time></trkpt><trkpt lat="45.619073719449624" lon="10.820509224124773"><ele>418.0</ele><time>2026-04-12T09:16:05Z</time></trkpt><trkpt lat="45.61911243428144" lon="10.820842296338936"><ele>417.0</ele><time>2026-04-12T09:16:06Z</time></trkpt><trkpt lat="45.619141902826776" lon="10.821142799552478"><ele>416.0</ele><time>2026-04-12T09:16:07Z</time></trkpt><trkpt lat="45.6191658478048" lon="10.82138895921588"><ele>415.0</ele><time>2026-04-12T09:16:08Z</time></trkpt><trkpt lat="45.6191955356686" lon="10.82159650403129"><ele>415.0</ele><time>2026-04-12T09:16:09Z</time></trkpt><trkpt lat="45.61926890069885" lon="10.821774220233456"><ele>415.0</ele><time>2026-04-12T09:16:10Z</time></trkpt><trkpt lat="45.619386774798876" lon="10.821963608010371"><ele>415.0</ele><time>2026-04-12T09:16:11Z</time></trkpt><trkpt lat="45.61954747844823" lon="10.822146747813067"><ele>421.0</ele><time>2026-04-12T09:16:12Z</time></trkpt><trkpt lat="45.6197167479491" lon="10.82235156590427"><ele>427.0</ele><time>2026-04-12T09:16:13Z</time></trkpt><trkpt lat="45.61989173758961" lon="10.822574287298808"><ele>423.5</ele><time>2026-04-12T09:16:14Z</time></trkpt><trkpt lat="45.62006089309465" lon="10.822808617954797"><ele>420.0</ele><time>2026-04-12T09:16:15Z</time></trkpt><trkpt lat="45.62022774136937" lon="10.823045748529971"><ele>421.66666666666663</ele><time>2026-04-12T09:16:16Z</time></trkpt><trkpt lat="45.620390523857516" lon="10.823261820760829"><ele>423.3333333333333</ele><time>2026-04-12T09:16:17Z</time></trkpt><trkpt lat="45.62053935909403" lon="10.8234599642805"><ele>425.0</ele><time>2026-04-12T09:16:18Z</time></trkpt><trkpt lat="45.62069839503039" lon="10.823638599449081"><ele>425.0</ele><time>2026-04-12T09:16:19Z</time></trkpt><trkpt lat="45.62087600066967" lon="10.82378307683327"><ele>425.0</ele><time>2026-04-12T09:16:20Z</time></trkpt><trkpt lat="45.62105687467157" lon="10.823915139840429"><ele>425.0</ele><time>2026-04-12T09:16:21Z</time></trkpt><trkpt lat="45.621226464347934" lon="10.824046652623148"><ele>425.66666666666663</ele><time>2026-04-12T09:16:22Z</time></trkpt><trkpt lat="45.62138695584605" lon="10.824178621724425"><ele>426.33333333333337</ele><time>2026-04-12T09:16:23Z</time></trkpt><trkpt lat="45.6215387495663" lon="10.824308221800637"><ele>427.0</ele><time>2026-04-12T09:16:24Z</time></trkpt><trkpt lat="45.62169346778984" lon="10.824431399643714"><ele>427.0</ele><time>2026-04-12T09:16:25Z</time></trkpt><trkpt lat="45.62183118903271" lon="10.824567085567447"><ele>427.0</ele><time>2026-04-12T09:16:26Z</time></trkpt><trkpt lat="45.621979278229844" lon="10.824663602512691"><ele>427.0</ele><time>2026-04-12T09:16:27Z</time></trkpt><trkpt lat="45.62210762292761" lon="10.824775038969744"><ele>431.25</ele><time>2026-04-12T09:16:28Z</time></trkpt><trkpt lat="45.62221915086121" lon="10.824902476664056"><ele>435.5</ele><time>2026-04-12T09:16:29Z</time></trkpt><trkpt lat="45.62230473146425" lon="10.825052695474989"><ele>439.75</ele><time>2026-04-12T09:16:30Z</time></trkpt><trkpt lat="45.62234115410211" lon="10.825261585640861"><ele>444.0</ele><time>2026-04-12T09:16:31Z</time></trkpt><trkpt lat="45.622377225815384" lon="10.825508038140844"><ele>444.0</ele><time>2026-04-12T09:16:32Z</time></trkpt><trkpt lat="45.6224091782253" lon="10.825770863973231"><ele>444.0</ele><time>2026-04-12T09:16:33Z</time></trkpt><trkpt lat="45.622442044154056" lon="10.826033226022524"><ele>444.0</ele><time>2026-04-12T09:16:34Z</time></trkpt><trkpt lat="45.62247493462172" lon="10.826296970737552"><ele>444.0</ele><time>2026-04-12T09:16:35Z</time></trkpt><trkpt lat="45.622522266909975" lon="10.826553307331125"><ele>444.0</ele><time>2026-04-12T09:16:36Z</time></trkpt><trkpt lat="45.62255277967576" lon="10.826804198707668"><ele>444.0</ele><time>2026-04-12T09:16:37Z</time></trkpt><trkpt lat="45.622584538006315" lon="10.827030025062315"><ele>444.0</ele><time>2026-04-12T09:16:38Z</time></trkpt><trkpt lat="45.622635921467236" lon="10.827229561808064"><ele>444.0</ele><time>2026-04-12T09:16:39Z</time></trkpt><trkpt lat="45.62272318276605" lon="10.82740569451538"><ele>444.0</ele><time>2026-04-12T09:16:40Z</time></trkpt><trkpt lat="45.62284704838618" lon="10.827547650373305"><ele>443.66666666666663</ele><time>2026-04-12T09:16:41Z</time></trkpt><trkpt lat="45.623000837053844" lon="10.827656526797766"><ele>443.3333333333333</ele><time>2026-04-12T09:16:42Z</time></trkpt><trkpt lat="45.623185793568986" lon="10.827711896443924"><ele>443.0</ele><time>2026-04-12T09:16:43Z</time></trkpt><trkpt lat="45.6233978657631" lon="10.827727926452297"><ele>443.0</ele><time>2026-04-12T09:16:44Z</time></trkpt><trkpt lat="45.62362294508599" lon="10.827735539917262"><ele>443.0</ele><time>2026-04-12T09:16:45Z</time></trkpt><trkpt lat="45.62386096612923" lon="10.827752708255636"><ele>446.0</ele><time>2026-04-12T09:16:46Z</time></trkpt><trkpt lat="45.62410574390824" lon="10.827768439857639"><ele>449.0</ele><time>2026-04-12T09:16:47Z</time></trkpt><trkpt lat="45.62435192590612" lon="10.827787835021512"><ele>455.0</ele><time>2026-04-12T09:16:48Z</time></trkpt><trkpt lat="45.62459246996367" lon="10.827812253186316"><ele>461.0</ele><time>2026-04-12T09:16:49Z</time></trkpt><trkpt lat="45.62480954682025" lon="10.827838833683904"><ele>461.0</ele><time>2026-04-12T09:16:50Z</time></trkpt><trkpt lat="45.62500625195759" lon="10.827861758330355"><ele>461.0</ele><time>2026-04-12T09:16:51Z</time></trkpt><trkpt lat="45.62519764991962" lon="10.827888211033503"><ele>461.0</ele><time>2026-04-12T09:16:52Z</time></trkpt><trkpt lat="45.62537153622699" lon="10.827904084450186"><ele>465.3333333333333</ele><time>2026-04-12T09:16:53Z</time></trkpt><trkpt lat="45.62554964794806" lon="10.827927170517398"><ele>469.66666666666663</ele><time>2026-04-12T09:16:54Z</time></trkpt><trkpt lat="45.62572499955524" lon="10.827957369588296"><ele>474.0</ele><time>2026-04-12T09:16:55Z</time></trkpt><trkpt lat="45.62589509128924" lon="10.828016552205105"><ele>474.0</ele><time>2026-04-12T09:16:56Z</time></trkpt><trkpt lat="45.62605080741552" lon="10.828113233918952"><ele>474.0</ele><time>2026-04-12T09:16:57Z</time></trkpt><trkpt lat="45.62620822241672" lon="10.828173258417834"><ele>474.0</ele><time>2026-04-12T09:16:58Z</time></trkpt><trkpt lat="45.626359616479924" lon="10.82825087361784"><ele>478.33333333333337</ele><time>2026-04-12T09:16:59Z</time></trkpt><trkpt lat="45.626509516766" lon="10.82831963195453"><ele>482.6666666666667</ele><time>2026-04-12T09:17:00Z</time></trkpt><trkpt lat="45.62665282355165" lon="10.828383001737272"><ele>487.0</ele><time>2026-04-12T09:17:01Z</time></trkpt><trkpt lat="45.6267951286248" lon="10.828438206856664"><ele>487.0</ele><time>2026-04-12T09:17:02Z</time></trkpt><trkpt lat="45.62694270816696" lon="10.828472890108324"><ele>487.0</ele><time>2026-04-12T09:17:03Z</time></trkpt><trkpt lat="45.627089497453866" lon="10.828488144854377"><ele>487.0</ele><time>2026-04-12T09:17:04Z</time></trkpt><trkpt lat="45.62724459834314" lon="10.828488872497953"><ele>484.6666666666667</ele><time>2026-04-12T09:17:05Z</time></trkpt><trkpt lat="45.627399762728395" lon="10.828489556027101"><ele>482.33333333333337</ele><time>2026-04-12T09:17:06Z</time></trkpt><trkpt lat="45.62755616130569" lon="10.828493958886755"><ele>480.0</ele><time>2026-04-12T09:17:07Z</time></trkpt><trkpt lat="45.627712321165724" lon="10.828494435312654"><ele>482.66666666666663</ele><time>2026-04-12T09:17:08Z</time></trkpt><trkpt lat="45.627865244658764" lon="10.828496225164152"><ele>485.3333333333333</ele><time>2026-04-12T09:17:09Z</time></trkpt><trkpt lat="45.62801646499777" lon="10.828498558882906"><ele>488.0</ele><time>2026-04-12T09:17:10Z</time></trkpt><trkpt lat="45.62816697664039" lon="10.828499936858274"><ele>488.0</ele><time>2026-04-12T09:17:11Z</time></trkpt><trkpt lat="45.628315263801674" lon="10.828502867323543"><ele>488.0</ele><time>2026-04-12T09:17:12Z</time></trkpt><trkpt lat="45.628462992918976" lon="10.828507536301888"><ele>488.0</ele><time>2026-04-12T09:17:13Z</time></trkpt><trkpt lat="45.62861695508726" lon="10.82851323290485"><ele>490.5</ele><time>2026-04-12T09:17:14Z</time></trkpt><trkpt lat="45.62876768451407" lon="10.828519627089806"><ele>493.0</ele><time>2026-04-12T09:17:15Z</time></trkpt><trkpt lat="45.6289131342225" lon="10.828539353309589"><ele>495.5</ele><time>2026-04-12T09:17:16Z</time></trkpt><trkpt lat="45.6290561427991" lon="10.828591744967609"><ele>498.0</ele><time>2026-04-12T09:17:17Z</time></trkpt><trkpt lat="45.62919692900985" lon="10.828681545645168"><ele>498.0</ele><time>2026-04-12T09:17:18Z</time></trkpt><trkpt lat="45.62933958239197" lon="10.828798194444207"><ele>498.0</ele><time>2026-04-12T09:17:19Z</time></trkpt><trkpt lat="45.62948111034605" lon="10.828920045253572"><ele>498.0</ele><time>2026-04-12T09:17:20Z</time></trkpt><trkpt lat="45.629624639578786" lon="10.829041358736735"><ele>501.66666666666663</ele><time>2026-04-12T09:17:20.999Z</time></trkpt><trkpt lat="45.629765721297176" lon="10.82916600426411"><ele>505.3333333333333</ele><time>2026-04-12T09:17:21.999Z</time></trkpt><trkpt lat="45.62990669160449" lon="10.829282740699993"><ele>509.0</ele><time>2026-04-12T09:17:22.999Z</time></trkpt><trkpt lat="45.630042721025646" lon="10.829395303675687"><ele>509.3333333333333</ele><time>2026-04-12T09:17:23.999Z</time></trkpt><trkpt lat="45.63017772576287" lon="10.829509193087477"><ele>509.66666666666663</ele><time>2026-04-12T09:17:24.999Z</time></trkpt><trkpt lat="45.63030782380248" lon="10.829620236140117"><ele>510.0</ele><time>2026-04-12T09:17:25.999Z</time></trkpt><trkpt lat="45.63043614024369" lon="10.829728592501208"><ele>510.5</ele><time>2026-04-12T09:17:26.999Z</time></trkpt><trkpt lat="45.63056324254463" lon="10.829834707167487"><ele>511.0</ele><time>2026-04-12T09:17:27.999Z</time></trkpt><trkpt lat="45.63068742683812" lon="10.829946744695423"><ele>511.5</ele><time>2026-04-12T09:17:28.999Z</time></trkpt><trkpt lat="45.63080789168941" lon="10.830056080269191"><ele>512.0</ele><time>2026-04-12T09:17:29.999Z</time></trkpt><trkpt lat="45.63092900914806" lon="10.83016395940963"><ele>512.0</ele><time>2026-04-12T09:17:30.999Z</time></trkpt><trkpt lat="45.631051341021156" lon="10.830277707277329"><ele>512.0</ele><time>2026-04-12T09:17:31.999Z</time></trkpt><trkpt lat="45.63116963070173" lon="10.830372666594618"><ele>512.0</ele><time>2026-04-12T09:17:32.999Z</time></trkpt><trkpt lat="45.63128790481012" lon="10.830472380464073"><ele>512.0</ele><time>2026-04-12T09:17:34Z</time></trkpt><trkpt lat="45.63140596874651" lon="10.830576122234078"><ele>513.5</ele><time>2026-04-12T09:17:35Z</time></trkpt><trkpt lat="45.631517463762464" lon="10.830673140683157"><ele>515.0</ele><time>2026-04-12T09:17:36Z</time></trkpt><trkpt lat="45.631627405684995" lon="10.830775005337935"><ele>516.5</ele><time>2026-04-12T09:17:37Z</time></trkpt><trkpt lat="45.63172658455708" lon="10.83090149075878"><ele>518.0</ele><time>2026-04-12T09:17:38Z</time></trkpt><trkpt lat="45.63179126041051" lon="10.83110350420422"><ele>518.0</ele><time>2026-04-12T09:17:39Z</time></trkpt><trkpt lat="45.63183672930615" lon="10.831343801472325"><ele>518.0</ele><time>2026-04-12T09:17:40Z</time></trkpt><trkpt lat="45.63181668750359" lon="10.83160454467565"><ele>518.0</ele><time>2026-04-12T09:17:41Z</time></trkpt><trkpt lat="45.63180830473634" lon="10.831904519870843"><ele>519.3333333333333</ele><time>2026-04-12T09:17:42Z</time></trkpt><trkpt lat="45.63179847187442" lon="10.832227486484776"><ele>520.6666666666666</ele><time>2026-04-12T09:17:43Z</time></trkpt><trkpt lat="45.631789295692535" lon="10.832544235752803"><ele>522.0</ele><time>2026-04-12T09:17:44Z</time></trkpt><trkpt lat="45.63179035215926" lon="10.83283809357234"><ele>524.0</ele><time>2026-04-12T09:17:45Z</time></trkpt><trkpt lat="45.63178976626272" lon="10.833104676433944"><ele>526.0</ele><time>2026-04-12T09:17:46Z</time></trkpt><trkpt lat="45.63178745369946" lon="10.833358285113457"><ele>528.0</ele><time>2026-04-12T09:17:47Z</time></trkpt><trkpt lat="45.63178219603315" lon="10.833609553221685"><ele>529.0</ele><time>2026-04-12T09:17:48Z</time></trkpt><trkpt lat="45.63177474892188" lon="10.833854174684133"><ele>530.0</ele><time>2026-04-12T09:17:49Z</time></trkpt><trkpt lat="45.63177244291185" lon="10.834102552713818"><ele>531.0</ele><time>2026-04-12T09:17:50Z</time></trkpt><trkpt lat="45.63176804481541" lon="10.834324000597404"><ele>531.5</ele><time>2026-04-12T09:17:51Z</time></trkpt><trkpt lat="45.63176488030188" lon="10.834522111716002"><ele>532.0</ele><time>2026-04-12T09:17:52Z</time></trkpt><trkpt lat="45.63176193742802" lon="10.834706858496896"><ele>532.5</ele><time>2026-04-12T09:17:53Z</time></trkpt><trkpt lat="45.63177375786141" lon="10.83487812978381"><ele>533.0</ele><time>2026-04-12T09:17:54Z</time></trkpt><trkpt lat="45.631817608239864" lon="10.835036052146688"><ele>533.6666666666666</ele><time>2026-04-12T09:17:55Z</time></trkpt><trkpt lat="45.63191082571883" lon="10.835194083313695"><ele>534.3333333333334</ele><time>2026-04-12T09:17:56Z</time></trkpt><trkpt lat="45.63204105350101" lon="10.835338445239769"><ele>535.0</ele><time>2026-04-12T09:17:57Z</time></trkpt><trkpt lat="45.63220787695965" lon="10.835457697567616"><ele>535.0</ele><time>2026-04-12T09:17:58Z</time></trkpt><trkpt lat="45.632381488072454" lon="10.835580464410665"><ele>535.0</ele><time>2026-04-12T09:17:59Z</time></trkpt><trkpt lat="45.63254770459466" lon="10.835714159858567"><ele>535.0</ele><time>2026-04-12T09:18:00Z</time></trkpt><trkpt lat="45.63270350641138" lon="10.835851699068964"><ele>537.0</ele><time>2026-04-12T09:18:01Z</time></trkpt><trkpt lat="45.632846245017696" lon="10.8359724898421"><ele>539.0</ele><time>2026-04-12T09:18:02Z</time></trkpt><trkpt lat="45.63298907236378" lon="10.836092709637768"><ele>541.0</ele><time>2026-04-12T09:18:03Z</time></trkpt><trkpt lat="45.63312538291283" lon="10.836204965501684"><ele>541.0</ele><time>2026-04-12T09:18:04Z</time></trkpt><trkpt lat="45.63327251664215" lon="10.836276628442322"><ele>541.0</ele><time>2026-04-12T09:18:05Z</time></trkpt><trkpt lat="45.63343512643897" lon="10.836311604715474"><ele>541.0</ele><time>2026-04-12T09:18:06Z</time></trkpt><trkpt lat="45.63360110147624" lon="10.836332618714044"><ele>548.0</ele><time>2026-04-12T09:18:07Z</time></trkpt><trkpt lat="45.633765709246234" lon="10.83637773679793"><ele>555.0</ele><time>2026-04-12T09:18:08Z</time></trkpt><trkpt lat="45.63391703187089" lon="10.836492780769579"><ele>562.0</ele><time>2026-04-12T09:18:09Z</time></trkpt><trkpt lat="45.63408031490197" lon="10.83664294311473"><ele>561.5</ele><time>2026-04-12T09:18:10Z</time></trkpt><trkpt lat="45.63427282159321" lon="10.836828158334061"><ele>561.0</ele><time>2026-04-12T09:18:11Z</time></trkpt><trkpt lat="45.63447964180218" lon="10.837030723695808"><ele>561.0</ele><time>2026-04-12T09:18:12Z</time></trkpt><trkpt lat="45.6347013083816" lon="10.837231989584142"><ele>561.0</ele><time>2026-04-12T09:18:13Z</time></trkpt><trkpt lat="45.634887088692565" lon="10.837422546433974"><ele>561.0</ele><time>2026-04-12T09:18:14Z</time></trkpt><trkpt lat="45.635034817003366" lon="10.83755975516817"><ele>561.0</ele><time>2026-04-12T09:18:15Z</time></trkpt><trkpt lat="45.63517342290097" lon="10.837657811730256"><ele>561.0</ele><time>2026-04-12T09:18:16Z</time></trkpt><trkpt lat="45.63533348516485" lon="10.837709985329324"><ele>562.0</ele><time>2026-04-12T09:18:17Z</time></trkpt><trkpt lat="45.63552083902061" lon="10.837733258644423"><ele>563.0</ele><time>2026-04-12T09:18:18Z</time></trkpt><trkpt lat="45.63570976215524" lon="10.837727431982021"><ele>564.0</ele><time>2026-04-12T09:18:19Z</time></trkpt><trkpt lat="45.635897174112564" lon="10.837666980022412"><ele>567.6666666666666</ele><time>2026-04-12T09:18:20Z</time></trkpt><trkpt lat="45.63605447046939" lon="10.837576288046604"><ele>571.3333333333333</ele><time>2026-04-12T09:18:21Z</time></trkpt><trkpt lat="45.63620210487912" lon="10.837542789128262"><ele>575.0</ele><time>2026-04-12T09:18:22Z</time></trkpt><trkpt lat="45.63634791248914" lon="10.837646432954825"><ele>575.0</ele><time>2026-04-12T09:18:23Z</time></trkpt><trkpt lat="45.636503429251725" lon="10.83775869276709"><ele>575.0</ele><time>2026-04-12T09:18:24Z</time></trkpt><trkpt lat="45.63663482299288" lon="10.837839003245218"><ele>575.0</ele><time>2026-04-12T09:18:25Z</time></trkpt><trkpt lat="45.636722078552616" lon="10.837952972326061"><ele>575.0</ele><time>2026-04-12T09:18:26Z</time></trkpt><trkpt lat="45.636750836174755" lon="10.838127993598873"><ele>575.0</ele><time>2026-04-12T09:18:27Z</time></trkpt><trkpt lat="45.636783780361846" lon="10.838305952466829"><ele>575.0</ele><time>2026-04-12T09:18:28Z</time></trkpt><trkpt lat="45.636774402466216" lon="10.838466503342703"><ele>575.0</ele><time>2026-04-12T09:18:29Z</time></trkpt><trkpt lat="45.636732204666856" lon="10.838619599387014"><ele>575.0</ele><time>2026-04-12T09:18:30Z</time></trkpt><trkpt lat="45.63660106723115" lon="10.838691649048883"><ele>580.3333333333333</ele><time>2026-04-12T09:18:31Z</time></trkpt><trkpt lat="45.636459915005865" lon="10.83873567488504"><ele>585.6666666666666</ele><time>2026-04-12T09:18:32Z</time></trkpt><trkpt lat="45.636280839904494" lon="10.838762716908665"><ele>591.0</ele><time>2026-04-12T09:18:33Z</time></trkpt><trkpt lat="45.636064561294276" lon="10.838804714865386"><ele>591.0</ele><time>2026-04-12T09:18:34Z</time></trkpt><trkpt lat="45.63584233755421" lon="10.8388275399125"><ele>591.0</ele><time>2026-04-12T09:18:35Z</time></trkpt><trkpt lat="45.635632263294305" lon="10.838883927181922"><ele>591.0</ele><time>2026-04-12T09:18:36Z</time></trkpt><trkpt lat="45.63545199987296" lon="10.838975034044996"><ele>589.6666666666666</ele><time>2026-04-12T09:18:37Z</time></trkpt><trkpt lat="45.63528582868738" lon="10.839072784260171"><ele>588.3333333333333</ele><time>2026-04-12T09:18:38Z</time></trkpt><trkpt lat="45.63509811163752" lon="10.839107263130026"><ele>587.0</ele><time>2026-04-12T09:18:39Z</time></trkpt><trkpt lat="45.634896217633994" lon="10.839101732851745"><ele>587.0</ele><time>2026-04-12T09:18:40Z</time></trkpt><trkpt lat="45.63468584952111" lon="10.839110844469863"><ele>587.0</ele><time>2026-04-12T09:18:41Z</time></trkpt><trkpt lat="45.634476163819635" lon="10.839094363957768"><ele>587.0</ele><time>2026-04-12T09:18:42Z</time></trkpt><trkpt lat="45.634265663113524" lon="10.839108873359809"><ele>587.6666666666666</ele><time>2026-04-12T09:18:43Z</time></trkpt><trkpt lat="45.6340540078018" lon="10.83914391640366"><ele>588.3333333333334</ele><time>2026-04-12T09:18:44Z</time></trkpt><trkpt lat="45.6338679533969" lon="10.839190756071606"><ele>589.0</ele><time>2026-04-12T09:18:45Z</time></trkpt><trkpt lat="45.633705022767245" lon="10.8392387087732"><ele>593.0</ele><time>2026-04-12T09:18:46Z</time></trkpt><trkpt lat="45.63354498534712" lon="10.839305770004549"><ele>597.0</ele><time>2026-04-12T09:18:47Z</time></trkpt><trkpt lat="45.63338285848991" lon="10.83943308195575"><ele>601.0</ele><time>2026-04-12T09:18:48Z</time></trkpt><trkpt lat="45.63322547952253" lon="10.8395948237098"><ele>601.0</ele><time>2026-04-12T09:18:49Z</time></trkpt><trkpt lat="45.633073067352846" lon="10.839787818618152"><ele>601.0</ele><time>2026-04-12T09:18:50Z</time></trkpt><trkpt lat="45.632939180474565" lon="10.839955440928222"><ele>601.0</ele><time>2026-04-12T09:18:51Z</time></trkpt><trkpt lat="45.63283005013907" lon="10.840090002361062"><ele>598.75</ele><time>2026-04-12T09:18:52Z</time></trkpt><trkpt lat="45.63273573535104" lon="10.840215780184021"><ele>596.5</ele><time>2026-04-12T09:18:53Z</time></trkpt><trkpt lat="45.63267529294337" lon="10.840368118356414"><ele>594.25</ele><time>2026-04-12T09:18:54Z</time></trkpt><trkpt lat="45.63265789051558" lon="10.840568503330465"><ele>592.0</ele><time>2026-04-12T09:18:55Z</time></trkpt><trkpt lat="45.632690132013295" lon="10.84078303436523"><ele>589.6666666666667</ele><time>2026-04-12T09:18:56Z</time></trkpt><trkpt lat="45.63277430752135" lon="10.840988116927534"><ele>587.3333333333334</ele><time>2026-04-12T09:18:57Z</time></trkpt><trkpt lat="45.63288676933269" lon="10.841189586053655"><ele>585.0</ele><time>2026-04-12T09:18:58Z</time></trkpt><trkpt lat="45.63300794015982" lon="10.841391693602166"><ele>590.3333333333334</ele><time>2026-04-12T09:18:59Z</time></trkpt><trkpt lat="45.63313381344055" lon="10.841590760795652"><ele>595.6666666666667</ele><time>2026-04-12T09:19:00Z</time></trkpt><trkpt lat="45.633266655729585" lon="10.841797791980968"><ele>601.0</ele><time>2026-04-12T09:19:01Z</time></trkpt><trkpt lat="45.633402642523336" lon="10.842011943947144"><ele>601.0</ele><time>2026-04-12T09:19:02Z</time></trkpt><trkpt lat="45.63354499829522" lon="10.842228689774808"><ele>601.0</ele><time>2026-04-12T09:19:03Z</time></trkpt><trkpt lat="45.63369025856468" lon="10.84244608951997"><ele>601.0</ele><time>2026-04-12T09:19:04Z</time></trkpt><trkpt lat="45.63382511022667" lon="10.842652308303633"><ele>605.25</ele><time>2026-04-12T09:19:05Z</time></trkpt><trkpt lat="45.63393216346787" lon="10.842855070583958"><ele>609.5</ele><time>2026-04-12T09:19:06Z</time></trkpt><trkpt lat="45.634044873182674" lon="10.842995830336088"><ele>613.75</ele><time>2026-04-12T09:19:07Z</time></trkpt><trkpt lat="45.6341242533084" lon="10.843125573508534"><ele>618.0</ele><time>2026-04-12T09:19:08Z</time></trkpt><trkpt lat="45.634170155175276" lon="10.843269503319943"><ele>618.0</ele><time>2026-04-12T09:19:09Z</time></trkpt><trkpt lat="45.6341973664689" lon="10.843408007190755"><ele>618.0</ele><time>2026-04-12T09:19:10Z</time></trkpt><trkpt lat="45.63416180083979" lon="10.84354754138223"><ele>618.0</ele><time>2026-04-12T09:19:11Z</time></trkpt><trkpt lat="45.63411421592326" lon="10.84369494769958"><ele>618.0</ele><time>2026-04-12T09:19:12Z</time></trkpt><trkpt lat="45.63398947172971" lon="10.843763786393243"><ele>619.6666666666666</ele><time>2026-04-12T09:19:13Z</time></trkpt><trkpt lat="45.63383474868422" lon="10.84377895588622"><ele>621.3333333333333</ele><time>2026-04-12T09:19:14Z</time></trkpt><trkpt lat="45.63364098559098" lon="10.843809161041154"><ele>623.0</ele><time>2026-04-12T09:19:15Z</time></trkpt><trkpt lat="45.63342078745365" lon="10.843866270359575"><ele>625.5</ele><time>2026-04-12T09:19:16Z</time></trkpt><trkpt lat="45.63317347710297" lon="10.843889391547378"><ele>628.0</ele><time>2026-04-12T09:19:17Z</time></trkpt><trkpt lat="45.6329490383365" lon="10.84393083106757"><ele>630.0</ele><time>2026-04-12T09:19:18Z</time></trkpt><trkpt lat="45.63272872639857" lon="10.843905149733837"><ele>632.0</ele><time>2026-04-12T09:19:19Z</time></trkpt><trkpt lat="45.63249585377839" lon="10.843830450431314"><ele>632.0</ele><time>2026-04-12T09:19:20Z</time></trkpt><trkpt lat="45.63224586160935" lon="10.8437428402692"><ele>632.0</ele><time>2026-04-12T09:19:21Z</time></trkpt><trkpt lat="45.63200605113063" lon="10.843671079031493"><ele>636.0</ele><time>2026-04-12T09:19:22Z</time></trkpt><trkpt lat="45.631783301120564" lon="10.843645421373095"><ele>640.0</ele><time>2026-04-12T09:19:23Z</time></trkpt><trkpt lat="45.63158237710308" lon="10.84363897457619"><ele>644.0</ele><time>2026-04-12T09:19:24Z</time></trkpt><trkpt lat="45.631399158069556" lon="10.843629244686907"><ele>644.0</ele><time>2026-04-12T09:19:25Z</time></trkpt><trkpt lat="45.63123789166666" lon="10.843619298686615"><ele>644.0</ele><time>2026-04-12T09:19:26Z</time></trkpt><trkpt lat="45.63109648895876" lon="10.843607711247605"><ele>644.0</ele><time>2026-04-12T09:19:27Z</time></trkpt><trkpt lat="45.630966126535526" lon="10.843614332319463"><ele>644.0</ele><time>2026-04-12T09:19:28Z</time></trkpt><trkpt lat="45.63085967602938" lon="10.843682610176133"><ele>644.0</ele><time>2026-04-12T09:19:29Z</time></trkpt><trkpt lat="45.630778659218834" lon="10.843827989902993"><ele>644.0</ele><time>2026-04-12T09:19:30Z</time></trkpt><trkpt lat="45.63074017696922" lon="10.844029026015848"><ele>644.0</ele><time>2026-04-12T09:19:31Z</time></trkpt><trkpt lat="45.63075897136577" lon="10.844258297616424"><ele>644.0</ele><time>2026-04-12T09:19:32Z</time></trkpt><trkpt lat="45.630827164014576" lon="10.844510925912335"><ele>644.0</ele><time>2026-04-12T09:19:33Z</time></trkpt><trkpt lat="45.63088716504874" lon="10.844782253041563"><ele>644.0</ele><time>2026-04-12T09:19:34Z</time></trkpt><trkpt lat="45.63088292129782" lon="10.845070320554436"><ele>644.0</ele><time>2026-04-12T09:19:35Z</time></trkpt><trkpt lat="45.630874736319875" lon="10.845318129357983"><ele>646.25</ele><time>2026-04-12T09:19:36Z</time></trkpt><trkpt lat="45.63086041890821" lon="10.845526897711"><ele>648.5</ele><time>2026-04-12T09:19:37Z</time></trkpt><trkpt lat="45.630821319112776" lon="10.845677896076285"><ele>650.75</ele><time>2026-04-12T09:19:38Z</time></trkpt><trkpt lat="45.63075717073247" lon="10.845805566107853"><ele>653.0</ele><time>2026-04-12T09:19:39Z</time></trkpt><trkpt lat="45.63062390158581" lon="10.84582144005656"><ele>653.0</ele><time>2026-04-12T09:19:40Z</time></trkpt><trkpt lat="45.6304888232141" lon="10.845790742825608"><ele>653.0</ele><time>2026-04-12T09:19:41Z</time></trkpt><trkpt lat="45.63032178113294" lon="10.845714422433007"><ele>653.0</ele><time>2026-04-12T09:19:42Z</time></trkpt><trkpt lat="45.630128601095336" lon="10.845632917669679"><ele>656.5</ele><time>2026-04-12T09:19:43Z</time></trkpt><trkpt lat="45.6299196806411" lon="10.84552968263163"><ele>660.0</ele><time>2026-04-12T09:19:44Z</time></trkpt><trkpt lat="45.629688477293776" lon="10.845432270425048"><ele>669.0</ele><time>2026-04-12T09:19:45Z</time></trkpt><trkpt lat="45.62944257613095" lon="10.845334029475278"><ele>678.0</ele><time>2026-04-12T09:19:46Z</time></trkpt><trkpt lat="45.62919254978602" lon="10.845220499923153"><ele>674.3333333333334</ele><time>2026-04-12T09:19:47Z</time></trkpt><trkpt lat="45.62898102927323" lon="10.84512554394858"><ele>670.6666666666667</ele><time>2026-04-12T09:19:48Z</time></trkpt><trkpt lat="45.62879482656542" lon="10.84504764357632"><ele>667.0</ele><time>2026-04-12T09:19:49Z</time></trkpt><trkpt lat="45.628619363931996" lon="10.845002977833387"><ele>667.0</ele><time>2026-04-12T09:19:50Z</time></trkpt><trkpt lat="45.6284381889131" lon="10.845001044493804"><ele>667.0</ele><time>2026-04-12T09:19:51Z</time></trkpt><trkpt lat="45.62824697158686" lon="10.84504584992982"><ele>667.0</ele><time>2026-04-12T09:19:52Z</time></trkpt><trkpt lat="45.62806726179704" lon="10.845173498188537"><ele>669.3333333333334</ele><time>2026-04-12T09:19:53Z</time></trkpt><trkpt lat="45.62788610859551" lon="10.845352712146216"><ele>671.6666666666666</ele><time>2026-04-12T09:19:54Z</time></trkpt><trkpt lat="45.62773177071729" lon="10.84557614434271"><ele>674.0</ele><time>2026-04-12T09:19:55Z</time></trkpt><trkpt lat="45.627594715734034" lon="10.845767204421888"><ele>674.0</ele><time>2026-04-12T09:19:56Z</time></trkpt><trkpt lat="45.62745748543734" lon="10.845910850152187"><ele>674.0</ele><time>2026-04-12T09:19:57Z</time></trkpt><trkpt lat="45.627310982373416" lon="10.846013109113672"><ele>674.0</ele><time>2026-04-12T09:19:58Z</time></trkpt><trkpt lat="45.627137896167646" lon="10.846112777185455"><ele>675.6666666666666</ele><time>2026-04-12T09:19:59Z</time></trkpt><trkpt lat="45.626965525897056" lon="10.846241876213012"><ele>677.3333333333334</ele><time>2026-04-12T09:20:00Z</time></trkpt><trkpt lat="45.626807307935614" lon="10.84635592372706"><ele>679.0</ele><time>2026-04-12T09:20:01Z</time></trkpt><trkpt lat="45.62668035576025" lon="10.846513098035745"><ele>679.0</ele><time>2026-04-12T09:20:02Z</time></trkpt><trkpt lat="45.62657947544314" lon="10.846716118987048"><ele>679.0</ele><time>2026-04-12T09:20:03Z</time></trkpt><trkpt lat="45.62650350550538" lon="10.846946085279983"><ele>679.0</ele><time>2026-04-12T09:20:04Z</time></trkpt><trkpt lat="45.62645436033552" lon="10.847173161555483"><ele>683.0</ele><time>2026-04-12T09:20:05Z</time></trkpt><trkpt lat="45.62643517748358" lon="10.847393781429288"><ele>687.0</ele><time>2026-04-12T09:20:06Z</time></trkpt><trkpt lat="45.63088292129782" lon="10.845070320554436"><ele>678.5</ele><time>2026-04-12T09:19:35Z</time></trkpt><trkpt lat="45.630874736319875" lon="10.845318129357983"><ele>670.0</ele><time>2026-04-12T09:19:36Z</time></trkpt><trkpt lat="45.63086041890821" lon="10.845526897711"><ele>661.5</ele><time>2026-04-12T09:19:37Z</time></trkpt><trkpt lat="45.630821319112776" lon="10.845677896076285"><ele>653.0</ele><time>2026-04-12T09:19:38Z</time></trkpt><trkpt lat="45.63075717073247" lon="10.845805566107853"><ele>653.0</ele><time>2026-04-12T09:19:39Z</time></trkpt><trkpt lat="45.63062390158581" lon="10.84582144005656"><ele>653.0</ele><time>2026-04-12T09:19:40Z</time></trkpt><trkpt lat="45.6304888232141" lon="10.845790742825608"><ele>653.0</ele><time>2026-04-12T09:19:41Z</time></trkpt><trkpt lat="45.63032178113294" lon="10.845714422433007"><ele>653.0</ele><time>2026-04-12T09:19:42Z</time></trkpt><trkpt lat="45.630128601095336" lon="10.845632917669679"><ele>656.5</ele><time>2026-04-12T09:19:43Z</time></trkpt><trkpt lat="45.6299196806411" lon="10.84552968263163"><ele>660.0</ele><time>2026-04-12T09:19:44Z</time></trkpt><trkpt lat="45.629688477293776" lon="10.845432270425048"><ele>669.0</ele><time>2026-04-12T09:19:45Z</time></trkpt><trkpt lat="45.62944257613095" lon="10.845334029475278"><ele>678.0</ele><time>2026-04-12T09:19:46Z</time></trkpt><trkpt lat="45.62919254978602" lon="10.845220499923153"><ele>674.3333333333334</ele><time>2026-04-12T09:19:47Z</time></trkpt><trkpt lat="45.62898102927323" lon="10.84512554394858"><ele>670.6666666666667</ele><time>2026-04-12T09:19:48Z</time></trkpt><trkpt lat="45.62879482656542" lon="10.84504764357632"><ele>667.0</ele><time>2026-04-12T09:19:49Z</time></trkpt><trkpt lat="45.628619363931996" lon="10.845002977833387"><ele>667.0</ele><time>2026-04-12T09:19:50Z</time></trkpt><trkpt lat="45.6284381889131" lon="10.845001044493804"><ele>667.0</ele><time>2026-04-12T09:19:51Z</time></trkpt><trkpt lat="45.62824697158686" lon="10.84504584992982"><ele>667.0</ele><time>2026-04-12T09:19:52Z</time></trkpt><trkpt lat="45.62806726179704" lon="10.845173498188537"><ele>669.3333333333334</ele><time>2026-04-12T09:19:53Z</time></trkpt><trkpt lat="45.62788610859551" lon="10.845352712146216"><ele>671.6666666666666</ele><time>2026-04-12T09:19:54Z</time></trkpt><trkpt lat="45.62773177071729" lon="10.84557614434271"><ele>674.0</ele><time>2026-04-12T09:19:55Z</time></trkpt><trkpt lat="45.627594715734034" lon="10.845767204421888"><ele>674.0</ele><time>2026-04-12T09:19:56Z</time></trkpt><trkpt lat="45.62745748543734" lon="10.845910850152187"><ele>674.0</ele><time>2026-04-12T09:19:57Z</time></trkpt><trkpt lat="45.627310982373416" lon="10.846013109113672"><ele>674.0</ele><time>2026-04-12T09:19:58Z</time></trkpt><trkpt lat="45.627137896167646" lon="10.846112777185455"><ele>675.6666666666666</ele><time>2026-04-12T09:19:59Z</time></trkpt><trkpt lat="45.626965525897056" lon="10.846241876213012"><ele>677.3333333333334</ele><time>2026-04-12T09:20:00Z</time></trkpt><trkpt lat="45.626807307935614" lon="10.84635592372706"><ele>679.0</ele><time>2026-04-12T09:20:01Z</time></trkpt><trkpt lat="45.62668035576025" lon="10.846513098035745"><ele>679.0</ele><time>2026-04-12T09:20:02Z</time></trkpt><trkpt lat="45.62657947544314" lon="10.846716118987048"><ele>679.0</ele><time>2026-04-12T09:20:03Z</time></trkpt><trkpt lat="45.62650350550538" lon="10.846946085279983"><ele>679.0</ele><time>2026-04-12T09:20:04Z</time></trkpt><trkpt lat="45.62645436033552" lon="10.847173161555483"><ele>681.6666666666667</ele><time>2026-04-12T09:20:05Z</time></trkpt><trkpt lat="45.62643517748358" lon="10.847393781429288"><ele>684.3333333333334</ele><time>2026-04-12T09:20:06Z</time></trkpt><trkpt lat="45.62645249228257" lon="10.847624796270365"><ele>687.0</ele><time>2026-04-12T09:20:07Z</time></trkpt><trkpt lat="45.62646801951616" lon="10.847890612411575"><ele>689.6666666666666</ele><time>2026-04-12T09:20:08Z</time></trkpt><trkpt lat="45.62648922673542" lon="10.848180643923474"><ele>692.3333333333333</ele><time>2026-04-12T09:20:09Z</time></trkpt><trkpt lat="45.62650435408369" lon="10.848420541022524"><ele>695.0</ele><time>2026-04-12T09:20:10Z</time></trkpt><trkpt lat="45.626527938958596" lon="10.848620507085862"><ele>698.75</ele><time>2026-04-12T09:20:11Z</time></trkpt><trkpt lat="45.62655958616508" lon="10.848772446400302"><ele>702.5</ele><time>2026-04-12T09:20:12Z</time></trkpt><trkpt lat="45.626642286110915" lon="10.848889233111873"><ele>706.25</ele><time>2026-04-12T09:20:13Z</time></trkpt><trkpt lat="45.62676013236007" lon="10.848951189732222"><ele>710.0</ele><time>2026-04-12T09:20:14Z</time></trkpt><trkpt lat="45.626895271314446" lon="10.848917757481594"><ele>711.3333333333333</ele><time>2026-04-12T09:20:15Z</time></trkpt><trkpt lat="45.62701708691842" lon="10.848794639233205"><ele>712.6666666666666</ele><time>2026-04-12T09:20:16Z</time></trkpt><trkpt lat="45.62712848456981" lon="10.84859108008409"><ele>714.0</ele><time>2026-04-12T09:20:17Z</time></trkpt><trkpt lat="45.62722219150807" lon="10.848320855960223"><ele>714.0</ele><time>2026-04-12T09:20:18Z</time></trkpt><trkpt lat="45.62733101693893" lon="10.848071868826144"><ele>714.0</ele><time>2026-04-12T09:20:19Z</time></trkpt><trkpt lat="45.62743896786674" lon="10.847868340522986"><ele>714.0</ele><time>2026-04-12T09:20:20Z</time></trkpt><trkpt lat="45.62753268714106" lon="10.84768317505316"><ele>714.25</ele><time>2026-04-12T09:20:21Z</time></trkpt><trkpt lat="45.62762309447499" lon="10.847533080322714"><ele>714.5</ele><time>2026-04-12T09:20:22Z</time></trkpt><trkpt lat="45.62771574913747" lon="10.847401859703181"><ele>714.75</ele><time>2026-04-12T09:20:23Z</time></trkpt><trkpt lat="45.62782081594452" lon="10.847292380570849"><ele>715.0</ele><time>2026-04-12T09:20:24Z</time></trkpt><trkpt lat="45.62793872666462" lon="10.847217005821362"><ele>715.0</ele><time>2026-04-12T09:20:25Z</time></trkpt><trkpt lat="45.62805602305433" lon="10.84716609705959"><ele>715.0</ele><time>2026-04-12T09:20:26Z</time></trkpt><trkpt lat="45.62816535604271" lon="10.847139354342499"><ele>715.0</ele><time>2026-04-12T09:20:27Z</time></trkpt><trkpt lat="45.62827104841197" lon="10.847145842126988"><ele>715.0</ele><time>2026-04-12T09:20:28Z</time></trkpt><trkpt lat="45.62838040520722" lon="10.847173754726375"><ele>715.0</ele><time>2026-04-12T09:20:29Z</time></trkpt><trkpt lat="45.628494371110705" lon="10.847222675211452"><ele>715.0</ele><time>2026-04-12T09:20:30Z</time></trkpt><trkpt lat="45.62860333908807" lon="10.847330043578648"><ele>715.0</ele><time>2026-04-12T09:20:31Z</time></trkpt><trkpt lat="45.62874855626856" lon="10.847483691012831"><ele>715.0</ele><time>2026-04-12T09:20:32Z</time></trkpt><trkpt lat="45.62892052350228" lon="10.847656930132214"><ele>719.5</ele><time>2026-04-12T09:20:33Z</time></trkpt><trkpt lat="45.629104248666465" lon="10.847848280872878"><ele>724.0</ele><time>2026-04-12T09:20:34Z</time></trkpt><trkpt lat="45.62929411829559" lon="10.84805477228664"><ele>723.0</ele><time>2026-04-12T09:20:35Z</time></trkpt><trkpt lat="45.62950056737318" lon="10.848253354077897"><ele>722.0</ele><time>2026-04-12T09:20:36Z</time></trkpt><trkpt lat="45.629725242320355" lon="10.848444736953427"><ele>732.0</ele><time>2026-04-12T09:20:37Z</time></trkpt><trkpt lat="45.62997782199434" lon="10.848603164761299"><ele>742.0</ele><time>2026-04-12T09:20:38Z</time></trkpt><trkpt lat="45.63024041655569" lon="10.848734094941339"><ele>742.5</ele><time>2026-04-12T09:20:39Z</time></trkpt><trkpt lat="45.630487160338376" lon="10.8488495772438"><ele>743.0</ele><time>2026-04-12T09:20:40Z</time></trkpt><trkpt lat="45.63072483846929" lon="10.848969228507114"><ele>743.0</ele><time>2026-04-12T09:20:41Z</time></trkpt><trkpt lat="45.630950983733634" lon="10.849121918845503"><ele>743.0</ele><time>2026-04-12T09:20:42Z</time></trkpt><trkpt lat="45.63118428868803" lon="10.849254620996188"><ele>752.0</ele><time>2026-04-12T09:20:43Z</time></trkpt><trkpt lat="45.63141612441931" lon="10.849384633672269"><ele>761.0</ele><time>2026-04-12T09:20:44Z</time></trkpt><trkpt lat="45.631644655291886" lon="10.849512721114836"><ele>755.0</ele><time>2026-04-12T09:20:45Z</time></trkpt><trkpt lat="45.6320868089956" lon="10.849749870296455"><ele>755.0</ele><time>2026-04-12T09:20:47Z</time></trkpt><trkpt lat="45.632304580320145" lon="10.849878895228345"><ele>755.0</ele><time>2026-04-12T09:20:48Z</time></trkpt><trkpt lat="45.63253581416796" lon="10.85001057915638"><ele>762.5</ele><time>2026-04-12T09:20:49Z</time></trkpt><trkpt lat="45.63276697642872" lon="10.85013903769954"><ele>770.0</ele><time>2026-04-12T09:20:50Z</time></trkpt><trkpt lat="45.632975553640534" lon="10.850255064935414"><ele>770.0</ele><time>2026-04-12T09:20:51Z</time></trkpt><trkpt lat="45.63316127915678" lon="10.850368450295097"><ele>770.0</ele><time>2026-04-12T09:20:52Z</time></trkpt><trkpt lat="45.633333901278924" lon="10.85048686562025"><ele>770.0</ele><time>2026-04-12T09:20:53Z</time></trkpt><trkpt lat="45.633473650617994" lon="10.850647904855043"><ele>770.0</ele><time>2026-04-12T09:20:54Z</time></trkpt><trkpt lat="45.63363627735143" lon="10.850829225341606"><ele>770.0</ele><time>2026-04-12T09:20:55Z</time></trkpt><trkpt lat="45.63378197035857" lon="10.85105359843476"><ele>770.0</ele><time>2026-04-12T09:20:56Z</time></trkpt><trkpt lat="45.633917113812544" lon="10.851283612186528"><ele>771.0</ele><time>2026-04-12T09:20:57Z</time></trkpt><trkpt lat="45.63403408473183" lon="10.85154192617556"><ele>772.0</ele><time>2026-04-12T09:20:58Z</time></trkpt><trkpt lat="45.63415862424917" lon="10.851782035849379"><ele>773.0</ele><time>2026-04-12T09:20:59Z</time></trkpt><trkpt lat="45.63428660217758" lon="10.851989135182421"><ele>773.6666666666667</ele><time>2026-04-12T09:21:00Z</time></trkpt><trkpt lat="45.634389344352854" lon="10.852190150464624"><ele>774.3333333333333</ele><time>2026-04-12T09:21:01Z</time></trkpt><trkpt lat="45.634490229252364" lon="10.852379260659198"><ele>775.0</ele><time>2026-04-12T09:21:02Z</time></trkpt><trkpt lat="45.63458072149466" lon="10.852557369965561"><ele>780.25</ele><time>2026-04-12T09:21:03Z</time></trkpt><trkpt lat="45.63466857307692" lon="10.852727100687476"><ele>785.5</ele><time>2026-04-12T09:21:04Z</time></trkpt><trkpt lat="45.634767756321686" lon="10.852890169791"><ele>790.75</ele><time>2026-04-12T09:21:05Z</time></trkpt><trkpt lat="45.634880558239416" lon="10.853027075763249"><ele>796.0</ele><time>2026-04-12T09:21:06Z</time></trkpt><trkpt lat="45.63500901298595" lon="10.853131409165753"><ele>796.0</ele><time>2026-04-12T09:21:07Z</time></trkpt><trkpt lat="45.63515227620662" lon="10.853212826367667"><ele>796.0</ele><time>2026-04-12T09:21:08Z</time></trkpt><trkpt lat="45.635305551521135" lon="10.853263676367988"><ele>796.0</ele><time>2026-04-12T09:21:09Z</time></trkpt><trkpt lat="45.635460309886476" lon="10.853295786721674"><ele>794.6666666666666</ele><time>2026-04-12T09:21:10Z</time></trkpt><trkpt lat="45.635616567718394" lon="10.853320851687359"><ele>793.3333333333333</ele><time>2026-04-12T09:21:11Z</time></trkpt><trkpt lat="45.6357735835166" lon="10.853349226048723"><ele>792.0</ele><time>2026-04-12T09:21:12Z</time></trkpt><trkpt lat="45.635928952437276" lon="10.853382593041879"><ele>792.0</ele><time>2026-04-12T09:21:13Z</time></trkpt><trkpt lat="45.636083706352416" lon="10.853415538676371"><ele>792.0</ele><time>2026-04-12T09:21:14Z</time></trkpt><trkpt lat="45.63624161851188" lon="10.853452054798305"><ele>792.0</ele><time>2026-04-12T09:21:15Z</time></trkpt><trkpt lat="45.63640398081674" lon="10.853486475110168"><ele>800.0</ele><time>2026-04-12T09:21:16Z</time></trkpt><trkpt lat="45.63656441906576" lon="10.853517533196808"><ele>808.0</ele><time>2026-04-12T09:21:17Z</time></trkpt><trkpt lat="45.63673078253321" lon="10.853514698862826"><ele>816.0</ele><time>2026-04-12T09:21:18Z</time></trkpt><trkpt lat="45.63689049222922" lon="10.853543976857699"><ele>817.3333333333333</ele><time>2026-04-12T09:21:19Z</time></trkpt><trkpt lat="45.63705386277826" lon="10.85355687904772"><ele>818.6666666666666</ele><time>2026-04-12T09:21:20Z</time></trkpt><trkpt lat="45.63722083288698" lon="10.85343400186144"><ele>820.0</ele><time>2026-04-12T09:21:21Z</time></trkpt><trkpt lat="45.637379724104335" lon="10.853406155531435"><ele>816.5</ele><time>2026-04-12T09:21:22Z</time></trkpt><trkpt lat="45.637527996436575" lon="10.853379446031644"><ele>813.0</ele><time>2026-04-12T09:21:23Z</time></trkpt><trkpt lat="45.63766421943664" lon="10.853355192269659"><ele>809.5</ele><time>2026-04-12T09:21:24Z</time></trkpt><trkpt lat="45.63780218589941" lon="10.853336076900591"><ele>806.0</ele><time>2026-04-12T09:21:25.001Z</time></trkpt><trkpt lat="45.63794100030426" lon="10.853315671380011"><ele>806.0</ele><time>2026-04-12T09:21:26.001Z</time></trkpt><trkpt lat="45.638077725560024" lon="10.85329514870388"><ele>806.0</ele><time>2026-04-12T09:21:27.001Z</time></trkpt><trkpt lat="45.63821587116964" lon="10.853281446955842"><ele>806.0</ele><time>2026-04-12T09:21:28.001Z</time></trkpt><trkpt lat="45.63836215599504" lon="10.853280137774933"><ele>806.0</ele><time>2026-04-12T09:21:29.001Z</time></trkpt><trkpt lat="45.638513406495264" lon="10.853300378914797"><ele>806.3333333333334</ele><time>2026-04-12T09:21:30.001Z</time></trkpt><trkpt lat="45.63866814950392" lon="10.853338877217459"><ele>806.6666666666667</ele><time>2026-04-12T09:21:31.001Z</time></trkpt><trkpt lat="45.638820921527234" lon="10.85339945342145"><ele>807.0</ele><time>2026-04-12T09:21:32.001Z</time></trkpt><trkpt lat="45.638976154227606" lon="10.853489106736452"><ele>812.0</ele><time>2026-04-12T09:21:33.001Z</time></trkpt><trkpt lat="45.63912405510738" lon="10.853595696601035"><ele>817.0</ele><time>2026-04-12T09:21:34.001Z</time></trkpt><trkpt lat="45.6392697868865" lon="10.85372280491366"><ele>822.0</ele><time>2026-04-12T09:21:35.001Z</time></trkpt><trkpt lat="45.639405994342475" lon="10.853870889862899"><ele>820.3333333333333</ele><time>2026-04-12T09:21:36.001Z</time></trkpt><trkpt lat="45.63953606581303" lon="10.854011317862597"><ele>818.6666666666666</ele><time>2026-04-12T09:21:37.001Z</time></trkpt><trkpt lat="45.63965908906908" lon="10.854135626215621"><ele>817.0</ele><time>2026-04-12T09:21:38.001Z</time></trkpt><trkpt lat="45.63978537589639" lon="10.854241076125604"><ele>823.5</ele><time>2026-04-12T09:21:39.001Z</time></trkpt><trkpt lat="45.6399192212808" lon="10.854323323141477"><ele>830.0</ele><time>2026-04-12T09:21:40.001Z</time></trkpt><trkpt lat="45.640058331880766" lon="10.854380530491705"><ele>836.5</ele><time>2026-04-12T09:21:41Z</time></trkpt><trkpt lat="45.64019463103693" lon="10.85440011941375"><ele>843.0</ele><time>2026-04-12T09:21:42Z</time></trkpt><trkpt lat="45.640328261715936" lon="10.854411392794615"><ele>844.0</ele><time>2026-04-12T09:21:43Z</time></trkpt><trkpt lat="45.6404582571426" lon="10.854427613855188"><ele>845.0</ele><time>2026-04-12T09:21:44Z</time></trkpt><trkpt lat="45.640581473730634" lon="10.854452239235478"><ele>846.0</ele><time>2026-04-12T09:21:45Z</time></trkpt><trkpt lat="45.640704942182175" lon="10.854481224775311"><ele>847.0</ele><time>2026-04-12T09:21:46Z</time></trkpt><trkpt lat="45.64082618101714" lon="10.854512280974447"><ele>847.0</ele><time>2026-04-12T09:21:47Z</time></trkpt><trkpt lat="45.640945352299326" lon="10.854536866880956"><ele>847.0</ele><time>2026-04-12T09:21:48Z</time></trkpt><trkpt lat="45.64106286392084" lon="10.854561174309248"><ele>847.0</ele><time>2026-04-12T09:21:49Z</time></trkpt><trkpt lat="45.64117776814558" lon="10.8545855177221"><ele>847.0</ele><time>2026-04-12T09:21:50Z</time></trkpt><trkpt lat="45.64129121477394" lon="10.85460358962408"><ele>847.0</ele><time>2026-04-12T09:21:51Z</time></trkpt><trkpt lat="45.64140610167305" lon="10.85462475434114"><ele>847.0</ele><time>2026-04-12T09:21:52Z</time></trkpt><trkpt lat="45.64152181968677" lon="10.85465128626082"><ele>847.0</ele><time>2026-04-12T09:21:53Z</time></trkpt><trkpt lat="45.6416353259668" lon="10.854674431476772"><ele>847.0</ele><time>2026-04-12T09:21:54Z</time></trkpt><trkpt lat="45.6417466784857" lon="10.854696121510774"><ele>847.0</ele><time>2026-04-12T09:21:55Z</time></trkpt><trkpt lat="45.641859600202004" lon="10.854721439675302"><ele>847.0</ele><time>2026-04-12T09:21:56Z</time></trkpt><trkpt lat="45.641974713779064" lon="10.854746719491342"><ele>847.0</ele><time>2026-04-12T09:21:57Z</time></trkpt><trkpt lat="45.64209127475491" lon="10.854768661056072"><ele>847.0</ele><time>2026-04-12T09:21:58Z</time></trkpt><trkpt lat="45.64220966824248" lon="10.854783394993799"><ele>847.0</ele><time>2026-04-12T09:21:59Z</time></trkpt><trkpt lat="45.64233072673148" lon="10.854800264560321"><ele>847.0</ele><time>2026-04-12T09:22:00Z</time></trkpt><trkpt lat="45.64245363865768" lon="10.854824170434872"><ele>847.0</ele><time>2026-04-12T09:22:01Z</time></trkpt><trkpt lat="45.64257536253594" lon="10.854853136655958"><ele>847.0</ele><time>2026-04-12T09:22:02Z</time></trkpt><trkpt lat="45.642697829412896" lon="10.854872251942542"><ele>850.25</ele><time>2026-04-12T09:22:03Z</time></trkpt><trkpt lat="45.642822829196" lon="10.854863185047634"><ele>853.5</ele><time>2026-04-12T09:22:04Z</time></trkpt><trkpt lat="45.6429470796863" lon="10.854821371160524"><ele>856.75</ele><time>2026-04-12T09:22:05Z</time></trkpt><trkpt lat="45.6430671736614" lon="10.854756932136029"><ele>860.0</ele><time>2026-04-12T09:22:06Z</time></trkpt><trkpt lat="45.64319021884671" lon="10.854693513160658"><ele>860.0</ele><time>2026-04-12T09:22:07Z</time></trkpt><trkpt lat="45.643316965469054" lon="10.854630767860709"><ele>860.0</ele><time>2026-04-12T09:22:08Z</time></trkpt><trkpt lat="45.64344726035521" lon="10.854567684582234"><ele>860.0</ele><time>2026-04-12T09:22:09Z</time></trkpt><trkpt lat="45.64356154792336" lon="10.854456015160483"><ele>860.0</ele><time>2026-04-12T09:22:10Z</time></trkpt><trkpt lat="45.643664751878" lon="10.854324401457914"><ele>861.0</ele><time>2026-04-12T09:22:11Z</time></trkpt><trkpt lat="45.64374765339074" lon="10.85415206619921"><ele>862.0</ele><time>2026-04-12T09:22:12Z</time></trkpt><trkpt lat="45.643811616302244" lon="10.853970559020913"><ele>863.0</ele><time>2026-04-12T09:22:13Z</time></trkpt><trkpt lat="45.64385380596871" lon="10.853783218271627"><ele>864.0</ele><time>2026-04-12T09:22:14Z</time></trkpt><trkpt lat="45.64389234636986" lon="10.853608650050997"><ele>864.0</ele><time>2026-04-12T09:22:15Z</time></trkpt><trkpt lat="45.64395232927023" lon="10.853464241630483"><ele>864.0</ele><time>2026-04-12T09:22:16Z</time></trkpt><trkpt lat="45.64404284197076" lon="10.85335252058467"><ele>864.0</ele><time>2026-04-12T09:22:17Z</time></trkpt><trkpt lat="45.64415441651611" lon="10.853296455667312"><ele>864.0</ele><time>2026-04-12T09:22:18Z</time></trkpt><trkpt lat="45.64425681697103" lon="10.853242452018474"><ele>864.0</ele><time>2026-04-12T09:22:19Z</time></trkpt><trkpt lat="45.64435537380556" lon="10.853178116788515"><ele>864.0000000000001</ele><time>2026-04-12T09:22:20Z</time></trkpt><trkpt lat="45.644453807078435" lon="10.853123470017799"><ele>864.0000000000001</ele><time>2026-04-12T09:22:21Z</time></trkpt><trkpt lat="45.6445447784572" lon="10.853032871244537"><ele>864.0</ele><time>2026-04-12T09:22:22Z</time></trkpt><trkpt lat="45.64463027232151" lon="10.852926430790237"><ele>864.0</ele><time>2026-04-12T09:22:23Z</time></trkpt><trkpt lat="45.64472584220781" lon="10.852820757862931"><ele>864.0</ele><time>2026-04-12T09:22:24Z</time></trkpt><trkpt lat="45.64483023490505" lon="10.852726384901397"><ele>864.0</ele><time>2026-04-12T09:22:25Z</time></trkpt><trkpt lat="45.64495221110482" lon="10.852643073330642"><ele>864.0</ele><time>2026-04-12T09:22:26Z</time></trkpt><trkpt lat="45.64507245749248" lon="10.852555810752204"><ele>864.0</ele><time>2026-04-12T09:22:27Z</time></trkpt><trkpt lat="45.64520749739808" lon="10.852493232854533"><ele>861.75</ele><time>2026-04-12T09:22:28Z</time></trkpt><trkpt lat="45.64535285569639" lon="10.852471891165715"><ele>859.5</ele><time>2026-04-12T09:22:29Z</time></trkpt><trkpt lat="45.645495851784005" lon="10.852420658559003"><ele>857.25</ele><time>2026-04-12T09:22:30Z</time></trkpt><trkpt lat="45.645638478618274" lon="10.852391633281737"><ele>855.0</ele><time>2026-04-12T09:22:31Z</time></trkpt><trkpt lat="45.64578647524795" lon="10.852368698957367"><ele>855.0</ele><time>2026-04-12T09:22:32Z</time></trkpt><trkpt lat="45.64592677007306" lon="10.852345443730076"><ele>855.0</ele><time>2026-04-12T09:22:33Z</time></trkpt><trkpt lat="45.64605058115331" lon="10.852329101161418"><ele>855.0</ele><time>2026-04-12T09:22:34Z</time></trkpt><trkpt lat="45.64616511206843" lon="10.852317065271828"><ele>855.0</ele><time>2026-04-12T09:22:35Z</time></trkpt><trkpt lat="45.64627543441511" lon="10.852303839492919"><ele>856.4</ele><time>2026-04-12T09:22:36Z</time></trkpt><trkpt lat="45.64638516012039" lon="10.852298527916094"><ele>857.8</ele><time>2026-04-12T09:22:37Z</time></trkpt><trkpt lat="45.64648748163164" lon="10.852293499887805"><ele>859.2</ele><time>2026-04-12T09:22:38Z</time></trkpt><trkpt lat="45.646588596424046" lon="10.85230268250585"><ele>860.6</ele><time>2026-04-12T09:22:39Z</time></trkpt><trkpt lat="45.64667358211057" lon="10.852295086061098"><ele>862.0</ele><time>2026-04-12T09:22:40Z</time></trkpt><trkpt lat="45.64674048118016" lon="10.852293354529856"><ele>862.0</ele><time>2026-04-12T09:22:41Z</time></trkpt><trkpt lat="45.64681215814239" lon="10.85228630776469"><ele>862.0</ele><time>2026-04-12T09:22:43Z</time></trkpt><trkpt lat="45.64690784659777" lon="10.852281597073146"><ele>862.0</ele><time>2026-04-12T09:22:46.001Z</time></trkpt><trkpt lat="45.64701803021502" lon="10.852275377920195"><ele>862.0</ele><time>2026-04-12T09:22:48.001Z</time></trkpt><trkpt lat="45.64713995367299" lon="10.852250539126384"><ele>862.0</ele><time>2026-04-12T09:22:50.001Z</time></trkpt><trkpt lat="45.64720404043171" lon="10.852218423614614"><ele>862.3333333333333</ele><time>2026-04-12T09:22:51.001Z</time></trkpt><trkpt lat="45.6472714402706" lon="10.85220532643264"><ele>862.6666666666666</ele><time>2026-04-12T09:22:52.001Z</time></trkpt><trkpt lat="45.6473440823991" lon="10.85223090217182"><ele>863.0</ele><time>2026-04-12T09:22:53.001Z</time></trkpt><trkpt lat="45.64741118958816" lon="10.852277387413334"><ele>863.3333333333333</ele><time>2026-04-12T09:22:54.001Z</time></trkpt><trkpt lat="45.64748005834646" lon="10.852310799618085"><ele>863.6666666666666</ele><time>2026-04-12T09:22:55.001Z</time></trkpt><trkpt lat="45.64759704496727" lon="10.852343953747011"><ele>864.0</ele><time>2026-04-12T09:22:57.001Z</time></trkpt><trkpt lat="45.64769814995117" lon="10.852321762611455"><ele>864.0</ele><time>2026-04-12T09:22:59.001Z</time></trkpt><trkpt lat="45.6478114602466" lon="10.852296926357855"><ele>864.0</ele><time>2026-04-12T09:23:01.001Z</time></trkpt><trkpt lat="45.64792044578066" lon="10.85222094948533"><ele>864.0</ele><time>2026-04-12T09:23:03.001Z</time></trkpt><trkpt lat="45.647985901057886" lon="10.852187548301952"><ele>864.0</ele><time>2026-04-12T09:23:04.001Z</time></trkpt><trkpt lat="45.648050528929915" lon="10.852155074972277"><ele>864.0</ele><time>2026-04-12T09:23:05.001Z</time></trkpt><trkpt lat="45.64811934086097" lon="10.852131339338518"><ele>864.0</ele><time>2026-04-12T09:23:06.001Z</time></trkpt><trkpt lat="45.64819389048525" lon="10.85211182111644"><ele>864.0</ele><time>2026-04-12T09:23:07.001Z</time></trkpt><trkpt lat="45.6482687925579" lon="10.852095571816351"><ele>864.0</ele><time>2026-04-12T09:23:08.001Z</time></trkpt><trkpt lat="45.64834613836071" lon="10.85207930496466"><ele>864.0</ele><time>2026-04-12T09:23:09.001Z</time></trkpt><trkpt lat="45.64842688512124" lon="10.852080301325524"><ele>864.0</ele><time>2026-04-12T09:23:10.001Z</time></trkpt><trkpt lat="45.648516238922" lon="10.852104530981164"><ele>864.0</ele><time>2026-04-12T09:23:11.001Z</time></trkpt><trkpt lat="45.64861280602427" lon="10.852148607834515"><ele>864.0</ele><time>2026-04-12T09:23:12.001Z</time></trkpt><trkpt lat="45.64871230649694" lon="10.85220423701351"><ele>867.0</ele><time>2026-04-12T09:23:13.001Z</time></trkpt><trkpt lat="45.64881711341753" lon="10.852266005183822"><ele>870.0</ele><time>2026-04-12T09:23:14.001Z</time></trkpt><trkpt lat="45.6489256317107" lon="10.8523314740441"><ele>873.0</ele><time>2026-04-12T09:23:15.001Z</time></trkpt><trkpt lat="45.649032501608595" lon="10.852407323407103"><ele>876.0</ele><time>2026-04-12T09:23:16.001Z</time></trkpt><trkpt lat="45.64913245617761" lon="10.8524900351592"><ele>876.0</ele><time>2026-04-12T09:23:17.001Z</time></trkpt><trkpt lat="45.6492146184629" lon="10.852565395681067"><ele>875.9999999999999</ele><time>2026-04-12T09:23:18.001Z</time></trkpt><trkpt lat="45.64928676807583" lon="10.85263914147325"><ele>875.9999999999999</ele><time>2026-04-12T09:23:19.001Z</time></trkpt><trkpt lat="45.64935988023371" lon="10.852711911607873"><ele>876.0</ele><time>2026-04-12T09:23:20.001Z</time></trkpt><trkpt lat="45.64943170886784" lon="10.852792640264353"><ele>876.0</ele><time>2026-04-12T09:23:21.001Z</time></trkpt><trkpt lat="45.649502192789015" lon="10.852865014432888"><ele>877.8</ele><time>2026-04-12T09:23:22.001Z</time></trkpt><trkpt lat="45.64957479638899" lon="10.852942661988184"><ele>879.5999999999999</ele><time>2026-04-12T09:23:23.001Z</time></trkpt><trkpt lat="45.6496457059332" lon="10.853020245127832"><ele>881.4</ele><time>2026-04-12T09:23:24.001Z</time></trkpt><trkpt lat="45.64971722890023" lon="10.853098491348506"><ele>883.2</ele><time>2026-04-12T09:23:25.001Z</time></trkpt><trkpt lat="45.649792556483845" lon="10.853175603329474"><ele>885.0</ele><time>2026-04-12T09:23:26.001Z</time></trkpt><trkpt lat="45.64987719243143" lon="10.8532399884492"><ele>885.0</ele><time>2026-04-12T09:23:27.001Z</time></trkpt><trkpt lat="45.64996710898573" lon="10.85330240736978"><ele>885.0</ele><time>2026-04-12T09:23:28.001Z</time></trkpt><trkpt lat="45.65006689098433" lon="10.853366162313465"><ele>885.0</ele><time>2026-04-12T09:23:29.001Z</time></trkpt><trkpt lat="45.65016968496474" lon="10.853431913962384"><ele>885.0</ele><time>2026-04-12T09:23:30.001Z</time></trkpt><trkpt lat="45.650276513154914" lon="10.85350418422961"><ele>885.0</ele><time>2026-04-12T09:23:31.001Z</time></trkpt><trkpt lat="45.65038847480065" lon="10.853575286339778"><ele>885.8</ele><time>2026-04-12T09:23:32.001Z</time></trkpt><trkpt lat="45.650496751453964" lon="10.85364005375435"><ele>886.6</ele><time>2026-04-12T09:23:33.001Z</time></trkpt><trkpt lat="45.65059934851602" lon="10.853715363534173"><ele>887.4000000000001</ele><time>2026-04-12T09:23:34.001Z</time></trkpt><trkpt lat="45.65069674335502" lon="10.853787450276775"><ele>888.2</ele><time>2026-04-12T09:23:35.001Z</time></trkpt><trkpt lat="45.650787668085485" lon="10.853865109875834"><ele>889.0</ele><time>2026-04-12T09:23:36.001Z</time></trkpt><trkpt lat="45.65087570912184" lon="10.85395310090994"><ele>889.0</ele><time>2026-04-12T09:23:37.001Z</time></trkpt><trkpt lat="45.65095173022279" lon="10.854051516206006"><ele>889.0000000000001</ele><time>2026-04-12T09:23:38.001Z</time></trkpt><trkpt lat="45.65102006901138" lon="10.854159349319403"><ele>889.0000000000001</ele><time>2026-04-12T09:23:39.001Z</time></trkpt><trkpt lat="45.651082314055095" lon="10.854268789866047"><ele>889.0</ele><time>2026-04-12T09:23:40.001Z</time></trkpt><trkpt lat="45.651142816691376" lon="10.854371643998107"><ele>889.0</ele><time>2026-04-12T09:23:41.001Z</time></trkpt><trkpt lat="45.65120606645567" lon="10.854460994335115"><ele>888.0</ele><time>2026-04-12T09:23:42.001Z</time></trkpt><trkpt lat="45.65127333948607" lon="10.854540147119446"><ele>887.0000000000001</ele><time>2026-04-12T09:23:43.001Z</time></trkpt><trkpt lat="45.65134760881844" lon="10.854604248757921"><ele>886.0000000000001</ele><time>2026-04-12T09:23:44.001Z</time></trkpt><trkpt lat="45.65143475377824" lon="10.85465964312476"><ele>885.0</ele><time>2026-04-12T09:23:45.001Z</time></trkpt><trkpt lat="45.65152975872361" lon="10.854711341293031"><ele>884.0</ele><time>2026-04-12T09:23:46.001Z</time></trkpt><trkpt lat="45.65163380490197" lon="10.854753002446074"><ele>884.0</ele><time>2026-04-12T09:23:47.001Z</time></trkpt><trkpt lat="45.65174184155144" lon="10.854756314649796"><ele>884.0</ele><time>2026-04-12T09:23:48.001Z</time></trkpt><trkpt lat="45.65185957318296" lon="10.854731467991344"><ele>884.0</ele><time>2026-04-12T09:23:49.001Z</time></trkpt><trkpt lat="45.6519721800455" lon="10.854675397751297"><ele>884.0</ele><time>2026-04-12T09:23:50.001Z</time></trkpt><trkpt lat="45.65208025651588" lon="10.854576483325884"><ele>884.25</ele><time>2026-04-12T09:23:51.001Z</time></trkpt><trkpt lat="45.65218278851988" lon="10.854438352573107"><ele>884.5</ele><time>2026-04-12T09:23:52.001Z</time></trkpt><trkpt lat="45.65228588013929" lon="10.854284567394707"><ele>884.75</ele><time>2026-04-12T09:23:53.001Z</time></trkpt><trkpt lat="45.65239584698854" lon="10.854138480854507"><ele>885.0</ele><time>2026-04-12T09:23:54.001Z</time></trkpt><trkpt lat="45.65250265549294" lon="10.853994749973038"><ele>885.0</ele><time>2026-04-12T09:23:55.001Z</time></trkpt><trkpt lat="45.652604651169845" lon="10.853858155204547"><ele>885.0</ele><time>2026-04-12T09:23:56.001Z</time></trkpt><trkpt lat="45.652705297085376" lon="10.853733034293427"><ele>885.0</ele><time>2026-04-12T09:23:57.001Z</time></trkpt><trkpt lat="45.65280753467143" lon="10.853617227561173"><ele>885.0</ele><time>2026-04-12T09:23:58.001Z</time></trkpt><trkpt lat="45.652917132103816" lon="10.85350953481221"><ele>886.5</ele><time>2026-04-12T09:23:59.001Z</time></trkpt><trkpt lat="45.65304577674843" lon="10.853436574243691"><ele>888.0</ele><time>2026-04-12T09:24:00Z</time></trkpt><trkpt lat="45.65317880399239" lon="10.853366657028571"><ele>889.5</ele><time>2026-04-12T09:24:01Z</time></trkpt><trkpt lat="45.6533194028285" lon="10.853311119154256"><ele>891.0</ele><time>2026-04-12T09:24:02Z</time></trkpt><trkpt lat="45.65345532147631" lon="10.853254445631757"><ele>891.0</ele><time>2026-04-12T09:24:03Z</time></trkpt><trkpt lat="45.65358934786934" lon="10.85325233016996"><ele>891.0</ele><time>2026-04-12T09:24:04Z</time></trkpt><trkpt lat="45.65371710253273" lon="10.853327236909989"><ele>891.0</ele><time>2026-04-12T09:24:05Z</time></trkpt><trkpt lat="45.653845218165245" lon="10.853397792593936"><ele>891.0</ele><time>2026-04-12T09:24:06Z</time></trkpt><trkpt lat="45.65393857551703" lon="10.853554385462783"><ele>892.0</ele><time>2026-04-12T09:24:07Z</time></trkpt><trkpt lat="45.654010142724594" lon="10.853720974713687"><ele>893.0</ele><time>2026-04-12T09:24:08Z</time></trkpt><trkpt lat="45.65407140896964" lon="10.853881063499376"><ele>894.0</ele><time>2026-04-12T09:24:09Z</time></trkpt><trkpt lat="45.65412974743294" lon="10.854016345966041"><ele>895.0</ele><time>2026-04-12T09:24:10Z</time></trkpt><trkpt lat="45.65418213389234" lon="10.854143145594872"><ele>895.0</ele><time>2026-04-12T09:24:11Z</time></trkpt><trkpt lat="45.65425045080511" lon="10.8542621575228"><ele>895.0</ele><time>2026-04-12T09:24:12Z</time></trkpt><trkpt lat="45.65432896597561" lon="10.854373791761851"><ele>895.0</ele><time>2026-04-12T09:24:13Z</time></trkpt><trkpt lat="45.654422351186874" lon="10.854470315248696"><ele>895.0</ele><time>2026-04-12T09:24:14Z</time></trkpt><trkpt lat="45.65453360533381" lon="10.854548228428753"><ele>896.0</ele><time>2026-04-12T09:24:15Z</time></trkpt><trkpt lat="45.65465427628191" lon="10.85460977261855"><ele>897.0</ele><time>2026-04-12T09:24:16Z</time></trkpt><trkpt lat="45.65478471606991" lon="10.854661662628937"><ele>898.0</ele><time>2026-04-12T09:24:17Z</time></trkpt><trkpt lat="45.654920875257076" lon="10.85470243665406"><ele>899.0</ele><time>2026-04-12T09:24:18Z</time></trkpt><trkpt lat="45.6550560921295" lon="10.854761856413209"><ele>899.0</ele><time>2026-04-12T09:24:19Z</time></trkpt><trkpt lat="45.655192492759326" lon="10.854825211865068"><ele>899.0</ele><time>2026-04-12T09:24:20Z</time></trkpt><trkpt lat="45.65533114872038" lon="10.854911098997396"><ele>899.0</ele><time>2026-04-12T09:24:21Z</time></trkpt><trkpt lat="45.65545709434981" lon="10.855013281998309"><ele>899.0</ele><time>2026-04-12T09:24:22Z</time></trkpt><trkpt lat="45.65556729550851" lon="10.855137296054469"><ele>898.75</ele><time>2026-04-12T09:24:23Z</time></trkpt><trkpt lat="45.65566214539892" lon="10.855278929357253"><ele>898.5</ele><time>2026-04-12T09:24:24Z</time></trkpt><trkpt lat="45.65576010634942" lon="10.855398842875442"><ele>898.25</ele><time>2026-04-12T09:24:25Z</time></trkpt><trkpt lat="45.65586581666069" lon="10.855492332245056"><ele>898.0</ele><time>2026-04-12T09:24:26Z</time></trkpt><trkpt lat="45.655980796449825" lon="10.855566819355053"><ele>898.0</ele><time>2026-04-12T09:24:27Z</time></trkpt><trkpt lat="45.65610691258583" lon="10.855625212595294"><ele>898.0</ele><time>2026-04-12T09:24:28Z</time></trkpt><trkpt lat="45.656240057640034" lon="10.855672492771692"><ele>898.0</ele><time>2026-04-12T09:24:29Z</time></trkpt><trkpt lat="45.65638134355496" lon="10.855716426835714"><ele>898.0</ele><time>2026-04-12T09:24:30Z</time></trkpt><trkpt lat="45.656529083991984" lon="10.85575352964482"><ele>897.0</ele><time>2026-04-12T09:24:31Z</time></trkpt><trkpt lat="45.65668014136628" lon="10.855765262914185"><ele>896.0</ele><time>2026-04-12T09:24:32Z</time></trkpt><trkpt lat="45.65683042375531" lon="10.855741517668376"><ele>895.0</ele><time>2026-04-12T09:24:33Z</time></trkpt><trkpt lat="45.65697569635878" lon="10.85568774049194"><ele>893.6666666666666</ele><time>2026-04-12T09:24:34Z</time></trkpt><trkpt lat="45.65712667966595" lon="10.85563922627782"><ele>892.3333333333333</ele><time>2026-04-12T09:24:35Z</time></trkpt><trkpt lat="45.65726101892991" lon="10.8555280252771"><ele>891.0</ele><time>2026-04-12T09:24:36Z</time></trkpt><trkpt lat="45.657393748309055" lon="10.855429522086048"><ele>891.0</ele><time>2026-04-12T09:24:37Z</time></trkpt><trkpt lat="45.657526106515185" lon="10.85535884057478"><ele>891.0</ele><time>2026-04-12T09:24:38Z</time></trkpt><trkpt lat="45.6576453264672" lon="10.855277783807162"><ele>891.0</ele><time>2026-04-12T09:24:39Z</time></trkpt><trkpt lat="45.65776058845786" lon="10.855199502554187"><ele>891.0</ele><time>2026-04-12T09:24:40Z</time></trkpt><trkpt lat="45.65787320638752" lon="10.855100163483227"><ele>893.25</ele><time>2026-04-12T09:24:41Z</time></trkpt><trkpt lat="45.658011159406" lon="10.855034894127476"><ele>895.5</ele><time>2026-04-12T09:24:42Z</time></trkpt><trkpt lat="45.65814828154185" lon="10.854980714684157"><ele>897.75</ele><time>2026-04-12T09:24:43Z</time></trkpt><trkpt lat="45.65827640787432" lon="10.85497094418361"><ele>900.0</ele><time>2026-04-12T09:24:44Z</time></trkpt><trkpt lat="45.65840295553023" lon="10.85499229815629"><ele>900.0</ele><time>2026-04-12T09:24:45Z</time></trkpt><trkpt lat="45.658532851851895" lon="10.855057259426339"><ele>900.0</ele><time>2026-04-12T09:24:46Z</time></trkpt><trkpt lat="45.65865649471905" lon="10.855130786918203"><ele>900.0</ele><time>2026-04-12T09:24:47Z</time></trkpt><trkpt lat="45.65877064226676" lon="10.855193016905199"><ele>900.0</ele><time>2026-04-12T09:24:48Z</time></trkpt><trkpt lat="45.65888891437589" lon="10.85521547436545"><ele>899.25</ele><time>2026-04-12T09:24:49Z</time></trkpt><trkpt lat="45.659006801856975" lon="10.855199613876408"><ele>898.5</ele><time>2026-04-12T09:24:50Z</time></trkpt><trkpt lat="45.659124955816445" lon="10.85515008707547"><ele>897.75</ele><time>2026-04-12T09:24:51Z</time></trkpt><trkpt lat="45.65924133506274" lon="10.855069759534857"><ele>897.0</ele><time>2026-04-12T09:24:52Z</time></trkpt><trkpt lat="45.65935140268701" lon="10.854969787827661"><ele>896.75</ele><time>2026-04-12T09:24:53Z</time></trkpt><trkpt lat="45.65946095275579" lon="10.854878858643898"><ele>896.5</ele><time>2026-04-12T09:24:54Z</time></trkpt><trkpt lat="45.659569101766245" lon="10.854793851343702"><ele>896.25</ele><time>2026-04-12T09:24:55Z</time></trkpt><trkpt lat="45.659678147210776" lon="10.854718146489345"><ele>896.0</ele><time>2026-04-12T09:24:56Z</time></trkpt><trkpt lat="45.65979600891888" lon="10.854682759003916"><ele>896.0</ele><time>2026-04-12T09:24:57Z</time></trkpt><trkpt lat="45.65991842892843" lon="10.854710052266489"><ele>896.0</ele><time>2026-04-12T09:24:58Z</time></trkpt><trkpt lat="45.660035859934865" lon="10.854810403214962"><ele>896.0</ele><time>2026-04-12T09:24:59Z</time></trkpt><trkpt lat="45.66015597361364" lon="10.854962471309644"><ele>896.0</ele><time>2026-04-12T09:25:00Z</time></trkpt><trkpt lat="45.66024657903568" lon="10.855119001320121"><ele>897.75</ele><time>2026-04-12T09:25:01Z</time></trkpt><trkpt lat="45.6603286122892" lon="10.855256695809159"><ele>899.5</ele><time>2026-04-12T09:25:02Z</time></trkpt><trkpt lat="45.66040367261212" lon="10.85538518082739"><ele>901.25</ele><time>2026-04-12T09:25:03Z</time></trkpt><trkpt lat="45.66048311299365" lon="10.855513122136081"><ele>903.0</ele><time>2026-04-12T09:25:04Z</time></trkpt><trkpt lat="45.66056158463216" lon="10.855639386043645"><ele>903.0</ele><time>2026-04-12T09:25:05Z</time></trkpt><trkpt lat="45.66063233683002" lon="10.85577190709335"><ele>903.0</ele><time>2026-04-12T09:25:06Z</time></trkpt><trkpt lat="45.660706257276836" lon="10.855889368688272"><ele>903.0</ele><time>2026-04-12T09:25:07Z</time></trkpt><trkpt lat="45.660783302553334" lon="10.855985662569594"><ele>903.0</ele><time>2026-04-12T09:25:08Z</time></trkpt><trkpt lat="45.660888087515886" lon="10.85603132230568"><ele>903.0</ele><time>2026-04-12T09:25:09Z</time></trkpt><trkpt lat="45.66099810005303" lon="10.856037292990155"><ele>901.75</ele><time>2026-04-12T09:25:10Z</time></trkpt><trkpt lat="45.661113229492926" lon="10.856003816587936"><ele>900.5</ele><time>2026-04-12T09:25:11Z</time></trkpt><trkpt lat="45.66122746452693" lon="10.85593294946974"><ele>899.25</ele><time>2026-04-12T09:25:12Z</time></trkpt><trkpt lat="45.66133702054676" lon="10.855848201297377"><ele>898.0</ele><time>2026-04-12T09:25:13Z</time></trkpt><trkpt lat="45.6614470071997" lon="10.855761854432627"><ele>898.0</ele><time>2026-04-12T09:25:14Z</time></trkpt><trkpt lat="45.6615593461005" lon="10.855676236662092"><ele>898.0</ele><time>2026-04-12T09:25:15Z</time></trkpt><trkpt lat="45.661664759821825" lon="10.85560254192586"><ele>898.0</ele><time>2026-04-12T09:25:16Z</time></trkpt><trkpt lat="45.66177189431322" lon="10.855566606392488"><ele>898.0</ele><time>2026-04-12T09:25:17Z</time></trkpt><trkpt lat="45.66188479640895" lon="10.855587821344914"><ele>896.75</ele><time>2026-04-12T09:25:18Z</time></trkpt><trkpt lat="45.661996105575" lon="10.855669824163522"><ele>895.5</ele><time>2026-04-12T09:25:19Z</time></trkpt><trkpt lat="45.66209120471491" lon="10.85577437541153"><ele>894.25</ele><time>2026-04-12T09:25:20Z</time></trkpt><trkpt lat="45.66217770432859" lon="10.85587726922551"><ele>893.0</ele><time>2026-04-12T09:25:21Z</time></trkpt><trkpt lat="45.66227049310913" lon="10.855991209235818"><ele>893.0</ele><time>2026-04-12T09:25:22Z</time></trkpt><trkpt lat="45.662369289603994" lon="10.85610419066774"><ele>893.0</ele><time>2026-04-12T09:25:23Z</time></trkpt><trkpt lat="45.66247319314959" lon="10.85621497223403"><ele>893.0</ele><time>2026-04-12T09:25:24Z</time></trkpt><trkpt lat="45.662581486116196" lon="10.856327804614958"><ele>893.0</ele><time>2026-04-12T09:25:25Z</time></trkpt><trkpt lat="45.66268900473699" lon="10.856437705014073"><ele>894.75</ele><time>2026-04-12T09:25:26Z</time></trkpt><trkpt lat="45.66279828355407" lon="10.856536989403438"><ele>896.5</ele><time>2026-04-12T09:25:27Z</time></trkpt><trkpt lat="45.66290687767289" lon="10.856620264842533"><ele>898.25</ele><time>2026-04-12T09:25:28Z</time></trkpt><trkpt lat="45.66301238599305" lon="10.85668141142686"><ele>900.0</ele><time>2026-04-12T09:25:29Z</time></trkpt><trkpt lat="45.66311534930348" lon="10.856710781604415"><ele>900.0</ele><time>2026-04-12T09:25:30Z</time></trkpt><trkpt lat="45.66321893519995" lon="10.856704977390356"><ele>900.0</ele><time>2026-04-12T09:25:31Z</time></trkpt><trkpt lat="45.66332515667371" lon="10.85664796232413"><ele>900.0</ele><time>2026-04-12T09:25:32Z</time></trkpt><trkpt lat="45.66342359727124" lon="10.856541613766849"><ele>900.0</ele><time>2026-04-12T09:25:33Z</time></trkpt><trkpt lat="45.663507074658604" lon="10.856389339657971"><ele>900.0</ele><time>2026-04-12T09:25:34Z</time></trkpt><trkpt lat="45.66360404316894" lon="10.856229538567028"><ele>900.0</ele><time>2026-04-12T09:25:35Z</time></trkpt><trkpt lat="45.66370663472115" lon="10.856081735882334"><ele>900.0</ele><time>2026-04-12T09:25:36Z</time></trkpt><trkpt lat="45.66380499808325" lon="10.855940445804341"><ele>900.0</ele><time>2026-04-12T09:25:37Z</time></trkpt><trkpt lat="45.66389919040809" lon="10.85580560808658"><ele>896.0</ele><time>2026-04-12T09:25:38Z</time></trkpt><trkpt lat="45.66398561345413" lon="10.85566300491279"><ele>892.0</ele><time>2026-04-12T09:25:39Z</time></trkpt><trkpt lat="45.66405525609489" lon="10.855505802988983"><ele>888.0</ele><time>2026-04-12T09:25:40Z</time></trkpt><trkpt lat="45.66410437192548" lon="10.855330092984286"><ele>884.0</ele><time>2026-04-12T09:25:41Z</time></trkpt><trkpt lat="45.66413442785758" lon="10.855147522913455"><ele>886.2</ele><time>2026-04-12T09:25:42Z</time></trkpt><trkpt lat="45.66415803005862" lon="10.854977827971814"><ele>888.4000000000001</ele><time>2026-04-12T09:25:43Z</time></trkpt><trkpt lat="45.66419549039247" lon="10.854824213637334"><ele>890.6</ele><time>2026-04-12T09:25:44Z</time></trkpt><trkpt lat="45.664229631697374" lon="10.854690684005307"><ele>892.8</ele><time>2026-04-12T09:25:45.001Z</time></trkpt><trkpt lat="45.66426647698817" lon="10.854568275602498"><ele>895.0</ele><time>2026-04-12T09:25:46.001Z</time></trkpt><trkpt lat="45.664304987321685" lon="10.854447776265474"><ele>895.0</ele><time>2026-04-12T09:25:47.001Z</time></trkpt><trkpt lat="45.66436209302013" lon="10.854357169161945"><ele>895.0</ele><time>2026-04-12T09:25:48.001Z</time></trkpt><trkpt lat="45.66447486870255" lon="10.854364952131561"><ele>895.0</ele><time>2026-04-12T09:25:49.001Z</time></trkpt><trkpt lat="45.66458455339615" lon="10.854305201133538"><ele>895.0</ele><time>2026-04-12T09:25:50.001Z</time></trkpt><trkpt lat="45.66468463567417" lon="10.854263374065011"><ele>895.0</ele><time>2026-04-12T09:25:51.001Z</time></trkpt><trkpt lat="45.66476852068458" lon="10.854197513572027"><ele>895.9999999999999</ele><time>2026-04-12T09:25:52.001Z</time></trkpt><trkpt lat="45.66485289128378" lon="10.85413462855469"><ele>897.0</ele><time>2026-04-12T09:25:53.001Z</time></trkpt><trkpt lat="45.6649418473596" lon="10.854074118950791"><ele>898.0</ele><time>2026-04-12T09:25:54.001Z</time></trkpt><trkpt lat="45.66501730503266" lon="10.854001844106024"><ele>899.0</ele><time>2026-04-12T09:25:55Z</time></trkpt><trkpt lat="45.66508274070392" lon="10.853954536502703"><ele>899.9999999999999</ele><time>2026-04-12T09:25:56Z</time></trkpt><trkpt lat="45.665159445327404" lon="10.853885041158515"><ele>901.0</ele><time>2026-04-12T09:25:57Z</time></trkpt><trkpt lat="45.665233467749104" lon="10.853885712227518"><ele>901.9999999999999</ele><time>2026-04-12T09:25:58Z</time></trkpt><trkpt lat="45.66530119124712" lon="10.85392721063878"><ele>903.0</ele><time>2026-04-12T09:25:59Z</time></trkpt><trkpt lat="45.665362411779036" lon="10.854017080578297"><ele>904.0</ele><time>2026-04-12T09:26:00Z</time></trkpt><trkpt lat="45.665419337158525" lon="10.85410444608105"><ele>905.0</ele><time>2026-04-12T09:26:01Z</time></trkpt><trkpt lat="45.6654637658108" lon="10.85420147464094"><ele>905.9999999999999</ele><time>2026-04-12T09:26:02Z</time></trkpt><trkpt lat="45.66551121003169" lon="10.854300543713254"><ele>907.0</ele><time>2026-04-12T09:26:03Z</time></trkpt><trkpt lat="45.66556061189596" lon="10.854407238723333"><ele>900.0</ele><time>2026-04-12T09:26:04Z</time></trkpt><trkpt lat="45.66560836226393" lon="10.854523639899734"><ele>893.0</ele><time>2026-04-12T09:26:05Z</time></trkpt><trkpt lat="45.6656657365804" lon="10.854634280072075"><ele>886.0</ele><time>2026-04-12T09:26:06Z</time></trkpt><trkpt lat="45.66573603519522" lon="10.854717048939634"><ele>879.0</ele><time>2026-04-12T09:26:07Z</time></trkpt><trkpt lat="45.665818969470564" lon="10.854753802170906"><ele>872.0</ele><time>2026-04-12T09:26:08Z</time></trkpt><trkpt lat="45.665930177606704" lon="10.854762718834975"><ele>872.0</ele><time>2026-04-12T09:26:09Z</time></trkpt><trkpt lat="45.66604732128606" lon="10.854751918911996"><ele>872.0</ele><time>2026-04-12T09:26:10Z</time></trkpt><trkpt lat="45.66615050177355" lon="10.854744465993118"><ele>872.0</ele><time>2026-04-12T09:26:11Z</time></trkpt><trkpt lat="45.6662480669941" lon="10.854746023022038"><ele>872.0</ele><time>2026-04-12T09:26:12Z</time></trkpt><trkpt lat="45.66634706905006" lon="10.854785005328498"><ele>872.0</ele><time>2026-04-12T09:26:13Z</time></trkpt><trkpt lat="45.666446482060906" lon="10.854865706566159"><ele>870.4000000000001</ele><time>2026-04-12T09:26:14Z</time></trkpt><trkpt lat="45.66653258329413" lon="10.854957057040124"><ele>868.8000000000001</ele><time>2026-04-12T09:26:15Z</time></trkpt><trkpt lat="45.66661993825387" lon="10.85504516649136"><ele>867.2</ele><time>2026-04-12T09:26:16Z</time></trkpt><trkpt lat="45.66670924673962" lon="10.855135477732963"><ele>865.6</ele><time>2026-04-12T09:26:17Z</time></trkpt><trkpt lat="45.666793035424995" lon="10.855234867194111"><ele>864.0</ele><time>2026-04-12T09:26:18Z</time></trkpt><trkpt lat="45.66687310856097" lon="10.855334651218628"><ele>864.2</ele><time>2026-04-12T09:26:19Z</time></trkpt><trkpt lat="45.6669524549756" lon="10.85542935038344"><ele>864.4000000000001</ele><time>2026-04-12T09:26:20Z</time></trkpt><trkpt lat="45.667031085651" lon="10.855513645222045"><ele>864.6</ele><time>2026-04-12T09:26:21Z</time></trkpt><trkpt lat="45.667117379469175" lon="10.85555476311979"><ele>864.8</ele><time>2026-04-12T09:26:22Z</time></trkpt><trkpt lat="45.667209682716" lon="10.855568663672049"><ele>865.0</ele><time>2026-04-12T09:26:23Z</time></trkpt><trkpt lat="45.66731116308425" lon="10.855551788273093"><ele>865.0</ele><time>2026-04-12T09:26:24Z</time></trkpt><trkpt lat="45.667416288969854" lon="10.855497056015851"><ele>865.0</ele><time>2026-04-12T09:26:25Z</time></trkpt><trkpt lat="45.66751653308314" lon="10.855425037290232"><ele>865.0</ele><time>2026-04-12T09:26:26Z</time></trkpt><trkpt lat="45.667606505804976" lon="10.85531979424541"><ele>865.0</ele><time>2026-04-12T09:26:27Z</time></trkpt><trkpt lat="45.66768575964325" lon="10.855203615265859"><ele>863.0</ele><time>2026-04-12T09:26:28Z</time></trkpt><trkpt lat="45.66776059386107" lon="10.855077230811014"><ele>861.0</ele><time>2026-04-12T09:26:29Z</time></trkpt><trkpt lat="45.6678421527265" lon="10.854962549476491"><ele>859.0</ele><time>2026-04-12T09:26:30Z</time></trkpt><trkpt lat="45.66793348014758" lon="10.854863495925947"><ele>857.0</ele><time>2026-04-12T09:26:31Z</time></trkpt><trkpt lat="45.66804452845908" lon="10.854802457946418"><ele>857.0</ele><time>2026-04-12T09:26:32Z</time></trkpt><trkpt lat="45.66816205580419" lon="10.854773105005075"><ele>857.0</ele><time>2026-04-12T09:26:33Z</time></trkpt><trkpt lat="45.66828022993467" lon="10.854773854403536"><ele>857.0</ele><time>2026-04-12T09:26:34Z</time></trkpt><trkpt lat="45.668397243586945" lon="10.854807772765762"><ele>857.0</ele><time>2026-04-12T09:26:35Z</time></trkpt><trkpt lat="45.66850130551266" lon="10.854849187125634"><ele>857.0</ele><time>2026-04-12T09:26:36Z</time></trkpt><trkpt lat="45.668599154039796" lon="10.854888446233417"><ele>857.0</ele><time>2026-04-12T09:26:37Z</time></trkpt><trkpt lat="45.66869826846373" lon="10.854932666184482"><ele>857.0</ele><time>2026-04-12T09:26:38Z</time></trkpt><trkpt lat="45.668793413158376" lon="10.854998705086668"><ele>857.0</ele><time>2026-04-12T09:26:39Z</time></trkpt><trkpt lat="45.668866333925926" lon="10.855124750343908"><ele>857.0</ele><time>2026-04-12T09:26:40Z</time></trkpt><trkpt lat="45.66895262088664" lon="10.855241207212401"><ele>853.8</ele><time>2026-04-12T09:26:41Z</time></trkpt><trkpt lat="45.669028391304664" lon="10.855370145938728"><ele>850.6</ele><time>2026-04-12T09:26:42Z</time></trkpt><trkpt lat="45.66910306436176" lon="10.855492078554812"><ele>847.4</ele><time>2026-04-12T09:26:43Z</time></trkpt><trkpt lat="45.669171214056355" lon="10.855604128431805"><ele>844.1999999999999</ele><time>2026-04-12T09:26:44Z</time></trkpt><trkpt lat="45.66923435256908" lon="10.855707854935305"><ele>841.0</ele><time>2026-04-12T09:26:45Z</time></trkpt><trkpt lat="45.66930254310642" lon="10.85578822291486"><ele>841.0</ele><time>2026-04-12T09:26:46Z</time></trkpt><trkpt lat="45.66938796630181" lon="10.85582632947115"><ele>841.0</ele><time>2026-04-12T09:26:47Z</time></trkpt><trkpt lat="45.66946853204566" lon="10.855807699023947"><ele>841.0</ele><time>2026-04-12T09:26:48Z</time></trkpt><trkpt lat="45.66953965727333" lon="10.855740688665954"><ele>841.0</ele><time>2026-04-12T09:26:49Z</time></trkpt><trkpt lat="45.669593089892274" lon="10.855640656037155"><ele>841.0</ele><time>2026-04-12T09:26:50Z</time></trkpt><trkpt lat="45.66963162210499" lon="10.855497407673285"><ele>838.1999999999999</ele><time>2026-04-12T09:26:51Z</time></trkpt><trkpt lat="45.66959156775288" lon="10.8553316930096"><ele>835.4</ele><time>2026-04-12T09:26:52Z</time></trkpt><trkpt lat="45.669547734757764" lon="10.855195534996506"><ele>832.6</ele><time>2026-04-12T09:26:53Z</time></trkpt><trkpt lat="45.66950606571233" lon="10.855047995259152"><ele>829.8</ele><time>2026-04-12T09:26:54Z</time></trkpt><trkpt lat="45.66949783406393" lon="10.854901949800256"><ele>827.0</ele><time>2026-04-12T09:26:55Z</time></trkpt><trkpt lat="45.669492741010885" lon="10.85475575871095"><ele>827.0</ele><time>2026-04-12T09:26:56Z</time></trkpt><trkpt lat="45.66951713200438" lon="10.85459257054973"><ele>827.0</ele><time>2026-04-12T09:26:57Z</time></trkpt><trkpt lat="45.66954166887188" lon="10.854433681067109"><ele>827.0</ele><time>2026-04-12T09:26:58Z</time></trkpt><trkpt lat="45.66957069197393" lon="10.854265922097353"><ele>827.0</ele><time>2026-04-12T09:26:59Z</time></trkpt><trkpt lat="45.66960050762956" lon="10.854093715568576"><ele>828.0</ele><time>2026-04-12T09:27:00Z</time></trkpt><trkpt lat="45.66963047839978" lon="10.853922716331223"><ele>829.0</ele><time>2026-04-12T09:27:01Z</time></trkpt><trkpt lat="45.66966221055888" lon="10.853754418037488"><ele>830.0</ele><time>2026-04-12T09:27:02Z</time></trkpt><trkpt lat="45.66969559381834" lon="10.853585802281732"><ele>831.0</ele><time>2026-04-12T09:27:03Z</time></trkpt><trkpt lat="45.66973035881101" lon="10.853414419599709"><ele>832.75</ele><time>2026-04-12T09:27:04Z</time></trkpt><trkpt lat="45.66977120660382" lon="10.853244534935133"><ele>834.5</ele><time>2026-04-12T09:27:05Z</time></trkpt><trkpt lat="45.66984129623822" lon="10.853104312821742"><ele>836.25</ele><time>2026-04-12T09:27:06Z</time></trkpt><trkpt lat="45.669951518860465" lon="10.853028193705248"><ele>838.0</ele><time>2026-04-12T09:27:07Z</time></trkpt><trkpt lat="45.6700712040769" lon="10.852990909797686"><ele>838.0</ele><time>2026-04-12T09:27:08Z</time></trkpt><trkpt lat="45.670223160912286" lon="10.85301789983895"><ele>838.0</ele><time>2026-04-12T09:27:09Z</time></trkpt><trkpt lat="45.67037058885377" lon="10.853068822915883"><ele>838.0</ele><time>2026-04-12T09:27:10Z</time></trkpt><trkpt lat="45.67052251880985" lon="10.853139405692206"><ele>836.25</ele><time>2026-04-12T09:27:11Z</time></trkpt><trkpt lat="45.67065368346637" lon="10.853187963123922"><ele>834.5</ele><time>2026-04-12T09:27:12Z</time></trkpt><trkpt lat="45.67077444353437" lon="10.853270010524538"><ele>832.75</ele><time>2026-04-12T09:27:13Z</time></trkpt><trkpt lat="45.67089554875044" lon="10.853331730983871"><ele>831.0</ele><time>2026-04-12T09:27:14Z</time></trkpt><trkpt lat="45.67101627230466" lon="10.853399579059513"><ele>829.5</ele><time>2026-04-12T09:27:15Z</time></trkpt><trkpt lat="45.6711332586768" lon="10.853473436942888"><ele>828.0</ele><time>2026-04-12T09:27:16Z</time></trkpt><trkpt lat="45.67124706892137" lon="10.853561747512954"><ele>826.5</ele><time>2026-04-12T09:27:17Z</time></trkpt><trkpt lat="45.67135501551053" lon="10.853670689445368"><ele>825.0</ele><time>2026-04-12T09:27:18Z</time></trkpt><trkpt lat="45.671443974029664" lon="10.853808028375985"><ele>825.0</ele><time>2026-04-12T09:27:19Z</time></trkpt><trkpt lat="45.671523663208305" lon="10.853969423400718"><ele>825.0</ele><time>2026-04-12T09:27:20Z</time></trkpt><trkpt lat="45.671601224504634" lon="10.854154413861346"><ele>825.0</ele><time>2026-04-12T09:27:21Z</time></trkpt><trkpt lat="45.671677533294414" lon="10.854334217350155"><ele>825.0</ele><time>2026-04-12T09:27:22Z</time></trkpt><trkpt lat="45.67175448198743" lon="10.854475018426125"><ele>822.5</ele><time>2026-04-12T09:27:23Z</time></trkpt><trkpt lat="45.67181758510491" lon="10.854602452488159"><ele>820.0</ele><time>2026-04-12T09:27:24Z</time></trkpt><trkpt lat="45.67189516209334" lon="10.854710645897379"><ele>817.5</ele><time>2026-04-12T09:27:25Z</time></trkpt><trkpt lat="45.67199498745273" lon="10.854773301012546"><ele>815.0</ele><time>2026-04-12T09:27:26Z</time></trkpt><trkpt lat="45.672116546789645" lon="10.854806666913186"><ele>815.0</ele><time>2026-04-12T09:27:27Z</time></trkpt><trkpt lat="45.67223429675236" lon="10.854798175453416"><ele>815.0</ele><time>2026-04-12T09:27:28Z</time></trkpt><trkpt lat="45.67234623041218" lon="10.854746911552699"><ele>815.0</ele><time>2026-04-12T09:27:29Z</time></trkpt><trkpt lat="45.67245277527019" lon="10.854672062333696"><ele>815.0</ele><time>2026-04-12T09:27:30Z</time></trkpt><trkpt lat="45.672561197540865" lon="10.85462922903964"><ele>815.0</ele><time>2026-04-12T09:27:31Z</time></trkpt><trkpt lat="45.67268134923608" lon="10.854583222534918"><ele>815.0</ele><time>2026-04-12T09:27:32Z</time></trkpt><trkpt lat="45.6727907562604" lon="10.854573361131093"><ele>815.0</ele><time>2026-04-12T09:27:33Z</time></trkpt><trkpt lat="45.6728989024256" lon="10.854560176929363"><ele>815.0</ele><time>2026-04-12T09:27:34Z</time></trkpt><trkpt lat="45.673002610656965" lon="10.854524293610295"><ele>815.0</ele><time>2026-04-12T09:27:35Z</time></trkpt><trkpt lat="45.673106800834034" lon="10.8544825064722"><ele>814.75</ele><time>2026-04-12T09:27:36Z</time></trkpt><trkpt lat="45.67322481759295" lon="10.854444731023474"><ele>814.5</ele><time>2026-04-12T09:27:37Z</time></trkpt><trkpt lat="45.67334821690222" lon="10.854395723707169"><ele>814.25</ele><time>2026-04-12T09:27:38Z</time></trkpt><trkpt lat="45.67346249388335" lon="10.854337334417307"><ele>814.0</ele><time>2026-04-12T09:27:39Z</time></trkpt><trkpt lat="45.673580620340246" lon="10.854306333339627"><ele>815.2</ele><time>2026-04-12T09:27:40Z</time></trkpt><trkpt lat="45.67369306226438" lon="10.8542538606702"><ele>816.4000000000001</ele><time>2026-04-12T09:27:41Z</time></trkpt><trkpt lat="45.67378776744357" lon="10.854217317046322"><ele>817.6</ele><time>2026-04-12T09:27:42Z</time></trkpt><trkpt lat="45.673881806371" lon="10.854196311286927"><ele>818.8</ele><time>2026-04-12T09:27:43Z</time></trkpt><trkpt lat="45.67397943303546" lon="10.854179232726255"><ele>820.0</ele><time>2026-04-12T09:27:44Z</time></trkpt><trkpt lat="45.6740775529417" lon="10.854166624563065"><ele>820.0</ele><time>2026-04-12T09:27:45Z</time></trkpt><trkpt lat="45.674176507677366" lon="10.854147406722484"><ele>820.0</ele><time>2026-04-12T09:27:46Z</time></trkpt><trkpt lat="45.67427882775489" lon="10.85412289808168"><ele>820.0</ele><time>2026-04-12T09:27:47Z</time></trkpt><trkpt lat="45.67437947739789" lon="10.854088019455714"><ele>820.0</ele><time>2026-04-12T09:27:48Z</time></trkpt><trkpt lat="45.674486584189445" lon="10.854042772379742"><ele>820.0</ele><time>2026-04-12T09:27:49Z</time></trkpt><trkpt lat="45.67460131569925" lon="10.85398548604141"><ele>817.8</ele><time>2026-04-12T09:27:50Z</time></trkpt><trkpt lat="45.674720364538345" lon="10.85393518299827"><ele>815.6</ele><time>2026-04-12T09:27:51Z</time></trkpt><trkpt lat="45.67482963043354" lon="10.853893068737564"><ele>813.4000000000001</ele><time>2026-04-12T09:27:52Z</time></trkpt><trkpt lat="45.67492094387006" lon="10.853852090369058"><ele>811.2</ele><time>2026-04-12T09:27:53Z</time></trkpt><trkpt lat="45.67501001831289" lon="10.853809260627084"><ele>809.0</ele><time>2026-04-12T09:27:54Z</time></trkpt><trkpt lat="45.67510035226906" lon="10.85377588592911"><ele>809.0</ele><time>2026-04-12T09:27:55Z</time></trkpt><trkpt lat="45.675187870387546" lon="10.853751247509715"><ele>809.0</ele><time>2026-04-12T09:27:56Z</time></trkpt><trkpt lat="45.67527342114291" lon="10.853729229150666"><ele>809.0</ele><time>2026-04-12T09:27:57Z</time></trkpt><trkpt lat="45.67536268577426" lon="10.853721526518154"><ele>809.0</ele><time>2026-04-12T09:27:58Z</time></trkpt><trkpt lat="45.67546472176903" lon="10.853723010946409"><ele>809.0</ele><time>2026-04-12T09:27:59Z</time></trkpt><trkpt lat="45.67556699569096" lon="10.853714621649482"><ele>810.6</ele><time>2026-04-12T09:28:00Z</time></trkpt><trkpt lat="45.67566684440186" lon="10.853693924727425"><ele>812.2</ele><time>2026-04-12T09:28:01Z</time></trkpt><trkpt lat="45.67575984244757" lon="10.853639356208634"><ele>813.8000000000001</ele><time>2026-04-12T09:28:02Z</time></trkpt><trkpt lat="45.67584351611556" lon="10.853567133757158"><ele>815.4000000000001</ele><time>2026-04-12T09:28:03Z</time></trkpt><trkpt lat="45.675922632177894" lon="10.853499753101241"><ele>817.0</ele><time>2026-04-12T09:28:04Z</time></trkpt><trkpt lat="45.67599708880699" lon="10.853442255662813"><ele>816.9999999999999</ele><time>2026-04-12T09:28:05Z</time></trkpt><trkpt lat="45.676069940202105" lon="10.853397307248958"><ele>817.0</ele><time>2026-04-12T09:28:06Z</time></trkpt><trkpt lat="45.6761429488868" lon="10.853339692782612"><ele>817.0</ele><time>2026-04-12T09:28:07Z</time></trkpt><trkpt lat="45.67621558847746" lon="10.853285540678575"><ele>817.0</ele><time>2026-04-12T09:28:08Z</time></trkpt><trkpt lat="45.67629478739967" lon="10.853247469605638"><ele>816.9999999999999</ele><time>2026-04-12T09:28:09Z</time></trkpt><trkpt lat="45.676375624871" lon="10.853232404614626"><ele>817.0</ele><time>2026-04-12T09:28:10Z</time></trkpt><trkpt lat="45.67645340003077" lon="10.853228924397909"><ele>818.4999999999999</ele><time>2026-04-12T09:28:11Z</time></trkpt><trkpt lat="45.676527122180076" lon="10.85324045093417"><ele>820.0</ele><time>2026-04-12T09:28:12Z</time></trkpt><trkpt lat="45.67659060512811" lon="10.853267439681725"><ele>821.5</ele><time>2026-04-12T09:28:13Z</time></trkpt><trkpt lat="45.676686265815725" lon="10.853358367660762"><ele>823.0</ele><time>2026-04-12T09:28:15Z</time></trkpt><trkpt lat="45.67671527143092" lon="10.853451384545243"><ele>824.4999999999999</ele><time>2026-04-12T09:28:16Z</time></trkpt><trkpt lat="45.67672025282423" lon="10.853556789417922"><ele>826.0</ele><time>2026-04-12T09:28:17Z</time></trkpt><trkpt lat="45.6766745837453" lon="10.853664448424832"><ele>827.0</ele><time>2026-04-12T09:28:18Z</time></trkpt><trkpt lat="45.676640919387886" lon="10.85381408884577"><ele>828.0</ele><time>2026-04-12T09:28:19Z</time></trkpt><trkpt lat="45.67660624622139" lon="10.853967313615323"><ele>829.0</ele><time>2026-04-12T09:28:20Z</time></trkpt><trkpt lat="45.67659474500268" lon="10.854088342564276"><ele>830.0</ele><time>2026-04-12T09:28:21Z</time></trkpt><trkpt lat="45.67656563920609" lon="10.854180550477567"><ele>831.0</ele><time>2026-04-12T09:28:22Z</time></trkpt><trkpt lat="45.676605954105426" lon="10.854339249067774"><ele>831.5</ele><time>2026-04-12T09:28:24Z</time></trkpt><trkpt lat="45.67665874232943" lon="10.854436879794267"><ele>832.0</ele><time>2026-04-12T09:28:25Z</time></trkpt><trkpt lat="45.676747021285216" lon="10.854533465009839"><ele>832.5</ele><time>2026-04-12T09:28:26Z</time></trkpt><trkpt lat="45.67687007755625" lon="10.854612888221801"><ele>833.0</ele><time>2026-04-12T09:28:27Z</time></trkpt><trkpt lat="45.67700960138394" lon="10.854680705515172"><ele>836.0</ele><time>2026-04-12T09:28:28Z</time></trkpt><trkpt lat="45.677133226904104" lon="10.854778140934886"><ele>839.0</ele><time>2026-04-12T09:28:29Z</time></trkpt><trkpt lat="45.67721368189654" lon="10.854971611079282"><ele>842.0</ele><time>2026-04-12T09:28:30Z</time></trkpt><trkpt lat="45.67732079989162" lon="10.855176777637418"><ele>842.0</ele><time>2026-04-12T09:28:31Z</time></trkpt><trkpt lat="45.67743440436175" lon="10.855352516689388"><ele>842.0</ele><time>2026-04-12T09:28:32Z</time></trkpt><trkpt lat="45.677526215486324" lon="10.855513073694135"><ele>842.0</ele><time>2026-04-12T09:28:33Z</time></trkpt><trkpt lat="45.67763519865995" lon="10.855660415457187"><ele>846.0</ele><time>2026-04-12T09:28:34Z</time></trkpt><trkpt lat="45.67778479356696" lon="10.855800143095447"><ele>850.0</ele><time>2026-04-12T09:28:35Z</time></trkpt><trkpt lat="45.677964188363575" lon="10.855942467569177"><ele>854.0</ele><time>2026-04-12T09:28:36Z</time></trkpt><trkpt lat="45.67815921154346" lon="10.85610322270095"><ele>859.0</ele><time>2026-04-12T09:28:37Z</time></trkpt><trkpt lat="45.67834647018457" lon="10.856288963614597"><ele>864.0</ele><time>2026-04-12T09:28:38Z</time></trkpt><trkpt lat="45.6785551033699" lon="10.856448914942284"><ele>863.3333333333333</ele><time>2026-04-12T09:28:39Z</time></trkpt><trkpt lat="45.67874223864542" lon="10.85662245127005"><ele>862.6666666666666</ele><time>2026-04-12T09:28:40Z</time></trkpt><trkpt lat="45.67891620472657" lon="10.856787658216987"><ele>862.0</ele><time>2026-04-12T09:28:41Z</time></trkpt><trkpt lat="45.67907387538639" lon="10.856932025388469"><ele>872.6666666666666</ele><time>2026-04-12T09:28:42Z</time></trkpt><trkpt lat="45.67921929812322" lon="10.857050653413856"><ele>883.3333333333333</ele><time>2026-04-12T09:28:43Z</time></trkpt><trkpt lat="45.67937496985891" lon="10.857142920411425"><ele>894.0</ele><time>2026-04-12T09:28:44Z</time></trkpt><trkpt lat="45.679553447122856" lon="10.857196897575841"><ele>894.0</ele><time>2026-04-12T09:28:45Z</time></trkpt><trkpt lat="45.67973544109785" lon="10.857212495516965"><ele>894.0</ele><time>2026-04-12T09:28:46Z</time></trkpt><trkpt lat="45.67991515661571" lon="10.857262437784424"><ele>894.0</ele><time>2026-04-12T09:28:47Z</time></trkpt><trkpt lat="45.68008942510499" lon="10.857310985716296"><ele>894.0</ele><time>2026-04-12T09:28:48Z</time></trkpt><trkpt lat="45.68023755887427" lon="10.857366467507797"><ele>894.0</ele><time>2026-04-12T09:28:49Z</time></trkpt><trkpt lat="45.68039556173501" lon="10.85742669780296"><ele>894.0</ele><time>2026-04-12T09:28:50Z</time></trkpt><trkpt lat="45.68057539654832" lon="10.857493316495445"><ele>894.3333333333333</ele><time>2026-04-12T09:28:51Z</time></trkpt><trkpt lat="45.68075976229546" lon="10.857561115534967"><ele>894.6666666666666</ele><time>2026-04-12T09:28:52Z</time></trkpt><trkpt lat="45.68095491155697" lon="10.857628451558131"><ele>895.0</ele><time>2026-04-12T09:28:53Z</time></trkpt><trkpt lat="45.681157788508074" lon="10.857692478909863"><ele>906.0</ele><time>2026-04-12T09:28:54Z</time></trkpt><trkpt lat="45.68136515042612" lon="10.857736644455"><ele>917.0</ele><time>2026-04-12T09:28:55Z</time></trkpt><trkpt lat="45.68157735451711" lon="10.857793856567254"><ele>928.0</ele><time>2026-04-12T09:28:56Z</time></trkpt><trkpt lat="45.681790777467434" lon="10.857844960414228"><ele>926.0</ele><time>2026-04-12T09:28:57Z</time></trkpt><trkpt lat="45.68199764785462" lon="10.85788734559422"><ele>924.0</ele><time>2026-04-12T09:28:58Z</time></trkpt><trkpt lat="45.682178735918086" lon="10.857930691818165"><ele>922.0</ele><time>2026-04-12T09:28:59Z</time></trkpt><trkpt lat="45.68231544936033" lon="10.857957081323447"><ele>921.9999999999999</ele><time>2026-04-12T09:29:00Z</time></trkpt><trkpt lat="45.68242101952544" lon="10.857976344906122"><ele>922.0</ele><time>2026-04-12T09:29:01Z</time></trkpt><trkpt lat="45.6825005167386" lon="10.858031690493648"><ele>922.0</ele><time>2026-04-12T09:29:02Z</time></trkpt><trkpt lat="45.682566315391426" lon="10.858062428314897"><ele>922.0</ele><time>2026-04-12T09:29:03Z</time></trkpt><trkpt lat="45.68259153893414" lon="10.858165004879721"><ele>921.9999999999999</ele><time>2026-04-12T09:29:04Z</time></trkpt><trkpt lat="45.68257274988685" lon="10.85828503793529"><ele>922.0</ele><time>2026-04-12T09:29:05Z</time></trkpt><trkpt lat="45.68250778705144" lon="10.85837374720485"><ele>922.0</ele><time>2026-04-12T09:29:06Z</time></trkpt><trkpt lat="45.682400399963676" lon="10.85837251826196"><ele>922.0</ele><time>2026-04-12T09:29:07Z</time></trkpt><trkpt lat="45.68228116370992" lon="10.858295531000383"><ele>922.0</ele><time>2026-04-12T09:29:08Z</time></trkpt><trkpt lat="45.68213754117435" lon="10.85828228915086"><ele>922.0</ele><time>2026-04-12T09:29:09Z</time></trkpt><trkpt lat="45.6819579344199" lon="10.858278173872725"><ele>924.0</ele><time>2026-04-12T09:29:10Z</time></trkpt><trkpt lat="45.68175426703506" lon="10.858310550739262"><ele>926.0</ele><time>2026-04-12T09:29:11Z</time></trkpt><trkpt lat="45.681543673583846" lon="10.858355153281735"><ele>928.0</ele><time>2026-04-12T09:29:12Z</time></trkpt><trkpt lat="45.68132676426017" lon="10.858367103107453"><ele>928.0</ele><time>2026-04-12T09:29:13Z</time></trkpt><trkpt lat="45.68110861232949" lon="10.8583618538868"><ele>928.0</ele><time>2026-04-12T09:29:14Z</time></trkpt><trkpt lat="45.6808809559797" lon="10.858353580203845"><ele>928.0</ele><time>2026-04-12T09:29:15Z</time></trkpt><trkpt lat="45.68064538529112" lon="10.858309717419091"><ele>931.0</ele><time>2026-04-12T09:29:16Z</time></trkpt><trkpt lat="45.68039687365288" lon="10.858272335909632"><ele>934.0</ele><time>2026-04-12T09:29:17Z</time></trkpt><trkpt lat="45.68014424450072" lon="10.858263528462164"><ele>936.0</ele><time>2026-04-12T09:29:18Z</time></trkpt><trkpt lat="45.67989017582466" lon="10.858273668328543"><ele>938.0</ele><time>2026-04-12T09:29:19Z</time></trkpt><trkpt lat="45.679645098820004" lon="10.858266650063175"><ele>940.6666666666667</ele><time>2026-04-12T09:29:20Z</time></trkpt><trkpt lat="45.6794174453099" lon="10.85824166513783"><ele>943.3333333333333</ele><time>2026-04-12T09:29:21Z</time></trkpt><trkpt lat="45.67922345481933" lon="10.858226242899404"><ele>946.0</ele><time>2026-04-12T09:29:22Z</time></trkpt><trkpt lat="45.679049638452504" lon="10.858211160467677"><ele>946.0</ele><time>2026-04-12T09:29:23Z</time></trkpt><trkpt lat="45.67888506591847" lon="10.858211816867867"><ele>946.0</ele><time>2026-04-12T09:29:24Z</time></trkpt><trkpt lat="45.678733727452546" lon="10.858249894885555"><ele>946.0</ele><time>2026-04-12T09:29:25Z</time></trkpt><trkpt lat="45.678584331551804" lon="10.858275135257742"><ele>949.3333333333333</ele><time>2026-04-12T09:29:26Z</time></trkpt><trkpt lat="45.67843424850776" lon="10.858245816741675"><ele>952.6666666666667</ele><time>2026-04-12T09:29:27Z</time></trkpt><trkpt lat="45.67827435449909" lon="10.858196979882205"><ele>956.0</ele><time>2026-04-12T09:29:28Z</time></trkpt><trkpt lat="45.67813483452747" lon="10.858103316952079"><ele>956.0</ele><time>2026-04-12T09:29:29Z</time></trkpt><trkpt lat="45.67800610835855" lon="10.858029566422857"><ele>956.0</ele><time>2026-04-12T09:29:30Z</time></trkpt><trkpt lat="45.67786654181145" lon="10.857981682549461"><ele>956.0</ele><time>2026-04-12T09:29:31Z</time></trkpt><trkpt lat="45.67769689670196" lon="10.85797345278304"><ele>959.6666666666667</ele><time>2026-04-12T09:29:32Z</time></trkpt><trkpt lat="45.677507814565466" lon="10.858007302583694"><ele>963.3333333333333</ele><time>2026-04-12T09:29:33Z</time></trkpt><trkpt lat="45.677296151266646" lon="10.858022074236665"><ele>967.0</ele><time>2026-04-12T09:29:34Z</time></trkpt><trkpt lat="45.677070650218894" lon="10.85804383345151"><ele>967.0</ele><time>2026-04-12T09:29:35Z</time></trkpt><trkpt lat="45.67686437789023" lon="10.858065915938033"><ele>967.0</ele><time>2026-04-12T09:29:36Z</time></trkpt><trkpt lat="45.67668359970555" lon="10.858143743164765"><ele>967.0</ele><time>2026-04-12T09:29:37Z</time></trkpt><trkpt lat="45.676519062504006" lon="10.858214906637675"><ele>967.0</ele><time>2026-04-12T09:29:38Z</time></trkpt><trkpt lat="45.676368634942904" lon="10.858306034248447"><ele>967.0</ele><time>2026-04-12T09:29:39Z</time></trkpt><trkpt lat="45.67623309444451" lon="10.858401808768773"><ele>967.0</ele><time>2026-04-12T09:29:40Z</time></trkpt><trkpt lat="45.6761106376523" lon="10.858508871810551"><ele>969.3333333333333</ele><time>2026-04-12T09:29:41Z</time></trkpt><trkpt lat="45.67600278021219" lon="10.85867011263523"><ele>971.6666666666667</ele><time>2026-04-12T09:29:42Z</time></trkpt><trkpt lat="45.67589569120486" lon="10.85885757196568"><ele>974.0</ele><time>2026-04-12T09:29:43Z</time></trkpt><trkpt lat="45.67579208458002" lon="10.85903656248602"><ele>974.0</ele><time>2026-04-12T09:29:44Z</time></trkpt><trkpt lat="45.67569412969028" lon="10.859156190120595"><ele>974.0000000000001</ele><time>2026-04-12T09:29:45Z</time></trkpt><trkpt lat="45.67562148221021" lon="10.859254312512487"><ele>974.0000000000001</ele><time>2026-04-12T09:29:46Z</time></trkpt><trkpt lat="45.675561470813626" lon="10.85933685893246"><ele>974.0</ele><time>2026-04-12T09:29:47Z</time></trkpt><trkpt lat="45.675463515039894" lon="10.85931802566821"><ele>974.0</ele><time>2026-04-12T09:29:48Z</time></trkpt><trkpt lat="45.67537117851488" lon="10.859191100691765"><ele>971.75</ele><time>2026-04-12T09:29:49Z</time></trkpt><trkpt lat="45.675247744276675" lon="10.859075273843324"><ele>969.5</ele><time>2026-04-12T09:29:50Z</time></trkpt><trkpt lat="45.67515746585322" lon="10.858929213316234"><ele>967.25</ele><time>2026-04-12T09:29:51Z</time></trkpt><trkpt lat="45.67505713092436" lon="10.858844233605806"><ele>965.0</ele><time>2026-04-12T09:29:52Z</time></trkpt><trkpt lat="45.67493847498216" lon="10.858828427752789"><ele>965.0</ele><time>2026-04-12T09:29:53Z</time></trkpt><trkpt lat="45.674805821177806" lon="10.858906410372366"><ele>965.0</ele><time>2026-04-12T09:29:54Z</time></trkpt><trkpt lat="45.674656985960745" lon="10.858967492687821"><ele>965.0</ele><time>2026-04-12T09:29:55Z</time></trkpt><trkpt lat="45.67460111038724" lon="10.859240320110938"><ele>966.0</ele><time>2026-04-12T09:29:56Z</time></trkpt><trkpt lat="45.67456605516034" lon="10.859418259680197"><ele>967.0</ele><time>2026-04-12T09:29:57Z</time></trkpt><trkpt lat="45.674602738115446" lon="10.859577479724228"><ele>968.0</ele><time>2026-04-12T09:29:58Z</time></trkpt><trkpt lat="45.674690182831746" lon="10.859738895290924"><ele>969.0</ele><time>2026-04-12T09:29:59Z</time></trkpt><trkpt lat="45.67482008508257" lon="10.859896678276504"><ele>969.0</ele><time>2026-04-12T09:30:00Z</time></trkpt><trkpt lat="45.67498783218966" lon="10.86005184495007"><ele>969.0</ele><time>2026-04-12T09:30:01Z</time></trkpt><trkpt lat="45.67513597306177" lon="10.860177981601515"><ele>969.0</ele><time>2026-04-12T09:30:02Z</time></trkpt><trkpt lat="45.67522192054244" lon="10.86029264156679"><ele>969.6</ele><time>2026-04-12T09:30:03Z</time></trkpt><trkpt lat="45.67528334311643" lon="10.860353652542551"><ele>970.2</ele><time>2026-04-12T09:30:04Z</time></trkpt><trkpt lat="45.67526817258142" lon="10.86046039511095"><ele>970.8000000000001</ele><time>2026-04-12T09:30:05Z</time></trkpt><trkpt lat="45.675178621883205" lon="10.860537266323815"><ele>971.4000000000001</ele><time>2026-04-12T09:30:06Z</time></trkpt><trkpt lat="45.675061525060464" lon="10.860630567953791"><ele>972.0</ele><time>2026-04-12T09:30:07Z</time></trkpt><trkpt lat="45.67493527360753" lon="10.860779931650464"><ele>977.3333333333333</ele><time>2026-04-12T09:30:08Z</time></trkpt><trkpt lat="45.67479867826969" lon="10.860956284961633"><ele>982.6666666666666</ele><time>2026-04-12T09:30:09Z</time></trkpt><trkpt lat="45.67466361759332" lon="10.861164724962688"><ele>988.0</ele><time>2026-04-12T09:30:10Z</time></trkpt><trkpt lat="45.67453626209206" lon="10.86134661264307"><ele>985.0</ele><time>2026-04-12T09:30:11Z</time></trkpt><trkpt lat="45.67442969337514" lon="10.861496169888222"><ele>982.0</ele><time>2026-04-12T09:30:12Z</time></trkpt><trkpt lat="45.67431582849777" lon="10.861583591530941"><ele>979.0</ele><time>2026-04-12T09:30:13Z</time></trkpt><trkpt lat="45.67418586706481" lon="10.861607883042371"><ele>976.0</ele><time>2026-04-12T09:30:14Z</time></trkpt><trkpt lat="45.67403610036678" lon="10.861665449607317"><ele>976.0</ele><time>2026-04-12T09:30:15Z</time></trkpt><trkpt lat="45.67390520367315" lon="10.861721976746344"><ele>976.0</ele><time>2026-04-12T09:30:16Z</time></trkpt><trkpt lat="45.67379984512614" lon="10.861819505306508"><ele>976.0</ele><time>2026-04-12T09:30:17Z</time></trkpt><trkpt lat="45.673715344991116" lon="10.861993652899034"><ele>976.0</ele><time>2026-04-12T09:30:18Z</time></trkpt><trkpt lat="45.67361448361065" lon="10.862218907342045"><ele>976.6666666666666</ele><time>2026-04-12T09:30:19Z</time></trkpt><trkpt lat="45.67347782681905" lon="10.862427678254745"><ele>977.3333333333333</ele><time>2026-04-12T09:30:20Z</time></trkpt><trkpt lat="45.67337339999325" lon="10.862681258716066"><ele>978.0</ele><time>2026-04-12T09:30:21Z</time></trkpt><trkpt lat="45.67326834091504" lon="10.862886176664908"><ele>980.4</ele><time>2026-04-12T09:30:22Z</time></trkpt><trkpt lat="45.67319588991992" lon="10.863053654203116"><ele>982.8</ele><time>2026-04-12T09:30:23Z</time></trkpt><trkpt lat="45.67315446664329" lon="10.863191022038764"><ele>985.2</ele><time>2026-04-12T09:30:24Z</time></trkpt><trkpt lat="45.67311152370794" lon="10.863284540529618"><ele>987.6</ele><time>2026-04-12T09:30:25Z</time></trkpt><trkpt lat="45.67307677360162" lon="10.863361788944479"><ele>990.0</ele><time>2026-04-12T09:30:26Z</time></trkpt><trkpt lat="45.67310479459483" lon="10.863464685607811"><ele>990.0</ele><time>2026-04-12T09:30:27Z</time></trkpt><trkpt lat="45.67317980671212" lon="10.863517087680103"><ele>990.0</ele><time>2026-04-12T09:30:28Z</time></trkpt><trkpt lat="45.673279091593095" lon="10.863446663349754"><ele>990.0</ele><time>2026-04-12T09:30:29Z</time></trkpt><trkpt lat="45.67339628758565" lon="10.863373845645121"><ele>990.0</ele><time>2026-04-12T09:30:30Z</time></trkpt><trkpt lat="45.67351798961136" lon="10.863278912150266"><ele>993.0</ele><time>2026-04-12T09:30:31Z</time></trkpt><trkpt lat="45.673667609015915" lon="10.863192996618741"><ele>996.0</ele><time>2026-04-12T09:30:32Z</time></trkpt><trkpt lat="45.67384297651106" lon="10.863115619221219"><ele>999.0</ele><time>2026-04-12T09:30:33Z</time></trkpt><trkpt lat="45.67402859830762" lon="10.863031131108372"><ele>999.0</ele><time>2026-04-12T09:30:34Z</time></trkpt><trkpt lat="45.67421707317491" lon="10.862981938801619"><ele>999.0</ele><time>2026-04-12T09:30:35Z</time></trkpt><trkpt lat="45.674420460904145" lon="10.862962070292697"><ele>999.0</ele><time>2026-04-12T09:30:36Z</time></trkpt><trkpt lat="45.674631661618584" lon="10.86296745179285"><ele>1002.3333333333333</ele><time>2026-04-12T09:30:37Z</time></trkpt><trkpt lat="45.67484472650464" lon="10.862982684602624"><ele>1005.6666666666666</ele><time>2026-04-12T09:30:38Z</time></trkpt><trkpt lat="45.675047892140554" lon="10.862985521658379"><ele>1009.0</ele><time>2026-04-12T09:30:39Z</time></trkpt><trkpt lat="45.675228292178296" lon="10.862950488947405"><ele>1015.5</ele><time>2026-04-12T09:30:40Z</time></trkpt><trkpt lat="45.6753859294532" lon="10.862871553963467"><ele>1022.0</ele><time>2026-04-12T09:30:41Z</time></trkpt><trkpt lat="45.67566579224334" lon="10.862697241963719"><ele>1022.0</ele><time>2026-04-12T09:30:43Z</time></trkpt><trkpt lat="45.675823177307585" lon="10.862651354255402"><ele>1022.0</ele><time>2026-04-12T09:30:44Z</time></trkpt><trkpt lat="45.676006523567246" lon="10.862606093566495"><ele>1022.0</ele><time>2026-04-12T09:30:45Z</time></trkpt><trkpt lat="45.676213166816574" lon="10.862560969000246"><ele>1019.6666666666667</ele><time>2026-04-12T09:30:46Z</time></trkpt><trkpt lat="45.676418259173346" lon="10.862497044469139"><ele>1017.3333333333333</ele><time>2026-04-12T09:30:47Z</time></trkpt><trkpt lat="45.67661349745592" lon="10.862425816949559"><ele>1015.0</ele><time>2026-04-12T09:30:48Z</time></trkpt><trkpt lat="45.676794346649025" lon="10.862321849678583"><ele>1018.6666666666666</ele><time>2026-04-12T09:30:49Z</time></trkpt><trkpt lat="45.67695740914488" lon="10.86218858065658"><ele>1022.3333333333333</ele><time>2026-04-12T09:30:50Z</time></trkpt><trkpt lat="45.677113261389174" lon="10.862078066365585"><ele>1026.0</ele><time>2026-04-12T09:30:51Z</time></trkpt><trkpt lat="45.67728002078531" lon="10.862007817334794"><ele>1026.0</ele><time>2026-04-12T09:30:52Z</time></trkpt><trkpt lat="45.67746114134365" lon="10.861968419474673"><ele>1026.0</ele><time>2026-04-12T09:30:53Z</time></trkpt><trkpt lat="45.67763856760252" lon="10.86196778385907"><ele>1026.0</ele><time>2026-04-12T09:30:54Z</time></trkpt><trkpt lat="45.6778098663139" lon="10.862003124804284"><ele>1026.0</ele><time>2026-04-12T09:30:55Z</time></trkpt><trkpt lat="45.67795848902704" lon="10.862039033661805"><ele>1026.0</ele><time>2026-04-12T09:30:56Z</time></trkpt><trkpt lat="45.678075576394264" lon="10.862062111961281"><ele>1026.0</ele><time>2026-04-12T09:30:57Z</time></trkpt><trkpt lat="45.678162204591885" lon="10.862082725898244"><ele>1026.0</ele><time>2026-04-12T09:30:58Z</time></trkpt><trkpt lat="45.678230754755454" lon="10.862073503868492"><ele>1026.0</ele><time>2026-04-12T09:30:59Z</time></trkpt><trkpt lat="45.67828357694664" lon="10.862001652646677"><ele>1026.0</ele><time>2026-04-12T09:31:00Z</time></trkpt><trkpt lat="45.678318459604114" lon="10.861878342550684"><ele>1026.0</ele><time>2026-04-12T09:31:01Z</time></trkpt><trkpt lat="45.67831386798903" lon="10.861722672413268"><ele>1026.0</ele><time>2026-04-12T09:31:02Z</time></trkpt><trkpt lat="45.678258970523885" lon="10.861590467862099"><ele>1026.0</ele><time>2026-04-12T09:31:03Z</time></trkpt><trkpt lat="45.67814779946378" lon="10.861502015221395"><ele>1026.0</ele><time>2026-04-12T09:31:04Z</time></trkpt><trkpt lat="45.67799964214559" lon="10.86145239727553"><ele>1024.3333333333333</ele><time>2026-04-12T09:31:05Z</time></trkpt><trkpt lat="45.67785941821104" lon="10.861340515294696"><ele>1022.6666666666666</ele><time>2026-04-12T09:31:06Z</time></trkpt><trkpt lat="45.677725765406116" lon="10.861208935660295"><ele>1021.0</ele><time>2026-04-12T09:31:07Z</time></trkpt><trkpt lat="45.67760490965727" lon="10.861088190384418"><ele>1020.4</ele><time>2026-04-12T09:31:08Z</time></trkpt><trkpt lat="45.67754424919822" lon="10.86093625931764"><ele>1019.8</ele><time>2026-04-12T09:31:09Z</time></trkpt><trkpt lat="45.677496215066704" lon="10.860812862419317"><ele>1019.1999999999999</ele><time>2026-04-12T09:31:10Z</time></trkpt><trkpt lat="45.677493973001745" lon="10.860668892209887"><ele>1018.5999999999999</ele><time>2026-04-12T09:31:11Z</time></trkpt><trkpt lat="45.67753890566204" lon="10.860541380745513"><ele>1018.0</ele><time>2026-04-12T09:31:12Z</time></trkpt><trkpt lat="45.67763499635167" lon="10.860460027172458"><ele>1020.3333333333333</ele><time>2026-04-12T09:31:13Z</time></trkpt><trkpt lat="45.67776923584473" lon="10.860423177048794"><ele>1022.6666666666667</ele><time>2026-04-12T09:31:14Z</time></trkpt><trkpt lat="45.677934090460646" lon="10.860409244283248"><ele>1025.0</ele><time>2026-04-12T09:31:15Z</time></trkpt><trkpt lat="45.67812349558559" lon="10.8604286567723"><ele>1025.0</ele><time>2026-04-12T09:31:16Z</time></trkpt><trkpt lat="45.678309520422665" lon="10.860459902591908"><ele>1025.0</ele><time>2026-04-12T09:31:17Z</time></trkpt><trkpt lat="45.6784755554691" lon="10.860528560373993"><ele>1025.0</ele><time>2026-04-12T09:31:18Z</time></trkpt><trkpt lat="45.6786480182308" lon="10.860654001138046"><ele>1026.0</ele><time>2026-04-12T09:31:19Z</time></trkpt><trkpt lat="45.678837858375964" lon="10.860780089267037"><ele>1027.0</ele><time>2026-04-12T09:31:20Z</time></trkpt><trkpt lat="45.67905026019686" lon="10.860899746694773"><ele>1028.0</ele><time>2026-04-12T09:31:21Z</time></trkpt><trkpt lat="45.67928124086329" lon="10.860961903958973"><ele>1032.0</ele><time>2026-04-12T09:31:22Z</time></trkpt><trkpt lat="45.679516647485165" lon="10.861012962458021"><ele>1036.0</ele><time>2026-04-12T09:31:23Z</time></trkpt><trkpt lat="45.67974413405658" lon="10.86111899518481"><ele>1036.0</ele><time>2026-04-12T09:31:24Z</time></trkpt><trkpt lat="45.67996955943247" lon="10.861232692460737"><ele>1036.0</ele><time>2026-04-12T09:31:25Z</time></trkpt><trkpt lat="45.680174484141844" lon="10.861369774592886"><ele>1038.3333333333333</ele><time>2026-04-12T09:31:26Z</time></trkpt><trkpt lat="45.680367107204376" lon="10.861517840731901"><ele>1040.6666666666667</ele><time>2026-04-12T09:31:27Z</time></trkpt><trkpt lat="45.680563848803374" lon="10.86166728923607"><ele>1043.0</ele><time>2026-04-12T09:31:28Z</time></trkpt><trkpt lat="45.680760454290564" lon="10.861843842649506"><ele>1047.0</ele><time>2026-04-12T09:31:29Z</time></trkpt><trkpt lat="45.6809565603678" lon="10.862015040060907"><ele>1051.0</ele><time>2026-04-12T09:31:30Z</time></trkpt><trkpt lat="45.681157363329945" lon="10.862170952346826"><ele>1053.6666666666665</ele><time>2026-04-12T09:31:31Z</time></trkpt><trkpt lat="45.68136134072886" lon="10.862305372923636"><ele>1056.3333333333333</ele><time>2026-04-12T09:31:32Z</time></trkpt><trkpt lat="45.681549271723135" lon="10.862420751896323"><ele>1059.0</ele><time>2026-04-12T09:31:33Z</time></trkpt><trkpt lat="45.68171008904048" lon="10.862513997813705"><ele>1059.0</ele><time>2026-04-12T09:31:34Z</time></trkpt><trkpt lat="45.68186633970131" lon="10.862575407884938"><ele>1059.0</ele><time>2026-04-12T09:31:35Z</time></trkpt><trkpt lat="45.68202577505545" lon="10.8626088398059"><ele>1059.0</ele><time>2026-04-12T09:31:36Z</time></trkpt><trkpt lat="45.682186281196905" lon="10.862624513672479"><ele>1059.0</ele><time>2026-04-12T09:31:37Z</time></trkpt><trkpt lat="45.68235862735458" lon="10.862636710165088"><ele>1059.0</ele><time>2026-04-12T09:31:38Z</time></trkpt><trkpt lat="45.68253362993448" lon="10.862628277211051"><ele>1059.0</ele><time>2026-04-12T09:31:39Z</time></trkpt><trkpt lat="45.682698004973844" lon="10.862625411996376"><ele>1058.6666666666667</ele><time>2026-04-12T09:31:40Z</time></trkpt><trkpt lat="45.68285183527459" lon="10.86265218715258"><ele>1058.3333333333335</ele><time>2026-04-12T09:31:41Z</time></trkpt><trkpt lat="45.68300113819964" lon="10.862691037536058"><ele>1058.0</ele><time>2026-04-12T09:31:42Z</time></trkpt><trkpt lat="45.6831428565875" lon="10.862737050137989"><ele>1058.0</ele><time>2026-04-12T09:31:43Z</time></trkpt><trkpt lat="45.683280966255545" lon="10.862772465860099"><ele>1058.0</ele><time>2026-04-12T09:31:44Z</time></trkpt><trkpt lat="45.68343000965774" lon="10.862764081294943"><ele>1058.0</ele><time>2026-04-12T09:31:45Z</time></trkpt><trkpt lat="45.683593936646844" lon="10.862712434669481"><ele>1060.0</ele><time>2026-04-12T09:31:46Z</time></trkpt><trkpt lat="45.683758986482864" lon="10.862643270619984"><ele>1062.0</ele><time>2026-04-12T09:31:47Z</time></trkpt><trkpt lat="45.683944430390135" lon="10.86259814332273"><ele>1064.0</ele><time>2026-04-12T09:31:48Z</time></trkpt><trkpt lat="45.68414034409463" lon="10.86261479727564"><ele>1063.3333333333335</ele><time>2026-04-12T09:31:49Z</time></trkpt><trkpt lat="45.68434531044207" lon="10.862599475334475"><ele>1062.6666666666667</ele><time>2026-04-12T09:31:50Z</time></trkpt><trkpt lat="45.684544282785595" lon="10.862616851473588"><ele>1062.0</ele><time>2026-04-12T09:31:51Z</time></trkpt><trkpt lat="45.684722996752114" lon="10.862633393707844"><ele>1062.0</ele><time>2026-04-12T09:31:52Z</time></trkpt><trkpt lat="45.68488713849426" lon="10.862634100999859"><ele>1062.0</ele><time>2026-04-12T09:31:53Z</time></trkpt><trkpt lat="45.685046197900775" lon="10.862595121510086"><ele>1062.0</ele><time>2026-04-12T09:31:54Z</time></trkpt><trkpt lat="45.68519800012448" lon="10.862492258739511"><ele>1059.6666666666667</ele><time>2026-04-12T09:31:55Z</time></trkpt><trkpt lat="45.68533732742378" lon="10.86233237478297"><ele>1057.3333333333335</ele><time>2026-04-12T09:31:56Z</time></trkpt><trkpt lat="45.685484141337575" lon="10.862189363871696"><ele>1055.0</ele><time>2026-04-12T09:31:57Z</time></trkpt><trkpt lat="45.68564414392741" lon="10.862074147233914"><ele>1055.0</ele><time>2026-04-12T09:31:58Z</time></trkpt><trkpt lat="45.68581536084464" lon="10.862018748032996"><ele>1055.0</ele><time>2026-04-12T09:31:59Z</time></trkpt><trkpt lat="45.685992110647284" lon="10.86197896216751"><ele>1055.0</ele><time>2026-04-12T09:32:00Z</time></trkpt><trkpt lat="45.6861468457048" lon="10.861952197411403"><ele>1057.6</ele><time>2026-04-12T09:32:01Z</time></trkpt><trkpt lat="45.68626640011126" lon="10.861913302568476"><ele>1060.2</ele><time>2026-04-12T09:32:02Z</time></trkpt><trkpt lat="45.686374691609956" lon="10.861920387571788"><ele>1062.8</ele><time>2026-04-12T09:32:03Z</time></trkpt><trkpt lat="45.6864721771119" lon="10.86187738899637"><ele>1065.4</ele><time>2026-04-12T09:32:04Z</time></trkpt><trkpt lat="45.686564284216" lon="10.861828363744138"><ele>1068.0</ele><time>2026-04-12T09:32:05Z</time></trkpt><trkpt lat="45.68662933345089" lon="10.861702051853753"><ele>1068.0</ele><time>2026-04-12T09:32:06Z</time></trkpt><trkpt lat="45.68666925798825" lon="10.861521798336296"><ele>1068.0</ele><time>2026-04-12T09:32:07Z</time></trkpt><trkpt lat="45.686704407466976" lon="10.86130330550807"><ele>1068.0</ele><time>2026-04-12T09:32:08Z</time></trkpt><trkpt lat="45.68677261618223" lon="10.86107982558791"><ele>1064.0</ele><time>2026-04-12T09:32:09Z</time></trkpt><trkpt lat="45.686891144041574" lon="10.8608530847886"><ele>1060.0</ele><time>2026-04-12T09:32:10Z</time></trkpt><trkpt lat="45.68703040269346" lon="10.86062463517949"><ele>1056.0</ele><time>2026-04-12T09:32:11Z</time></trkpt><trkpt lat="45.68717787472137" lon="10.860366671100294"><ele>1062.3333333333333</ele><time>2026-04-12T09:32:12Z</time></trkpt><trkpt lat="45.687297329782076" lon="10.860091967923708"><ele>1068.6666666666665</ele><time>2026-04-12T09:32:13Z</time></trkpt><trkpt lat="45.687388911772004" lon="10.859856473072744"><ele>1075.0</ele><time>2026-04-12T09:32:14Z</time></trkpt><trkpt lat="45.6874686523172" lon="10.859678181794095"><ele>1075.0</ele><time>2026-04-12T09:32:15Z</time></trkpt><trkpt lat="45.68755775712646" lon="10.859540518843335"><ele>1075.0</ele><time>2026-04-12T09:32:16Z</time></trkpt><trkpt lat="45.68767494915592" lon="10.859423523521478"><ele>1075.0</ele><time>2026-04-12T09:32:17Z</time></trkpt><trkpt lat="45.68781419570971" lon="10.859319096549095"><ele>1075.0</ele><time>2026-04-12T09:32:18Z</time></trkpt><trkpt lat="45.68797559567327" lon="10.859253813220148"><ele>1076.3333333333333</ele><time>2026-04-12T09:32:19Z</time></trkpt><trkpt lat="45.68814717806451" lon="10.859174265100512"><ele>1077.6666666666667</ele><time>2026-04-12T09:32:20Z</time></trkpt><trkpt lat="45.68831670171552" lon="10.85906686598499"><ele>1079.0</ele><time>2026-04-12T09:32:21Z</time></trkpt><trkpt lat="45.68849246215722" lon="10.858972003758517"><ele>1082.3333333333335</ele><time>2026-04-12T09:32:22Z</time></trkpt><trkpt lat="45.6886660303345" lon="10.85883344705542"><ele>1085.6666666666667</ele><time>2026-04-12T09:32:23Z</time></trkpt><trkpt lat="45.68882657031191" lon="10.85868664773984"><ele>1089.0</ele><time>2026-04-12T09:32:24Z</time></trkpt><trkpt lat="45.68897965495992" lon="10.85856529376926"><ele>1079.3333333333333</ele><time>2026-04-12T09:32:25Z</time></trkpt><trkpt lat="45.689110566591275" lon="10.858443985228737"><ele>1069.6666666666665</ele><time>2026-04-12T09:32:26Z</time></trkpt><trkpt lat="45.689223031875734" lon="10.858295967464134"><ele>1060.0</ele><time>2026-04-12T09:32:27Z</time></trkpt><trkpt lat="45.68935022927921" lon="10.858172051148038"><ele>1062.3333333333333</ele><time>2026-04-12T09:32:28Z</time></trkpt><trkpt lat="45.68952311179243" lon="10.858095496448682"><ele>1064.6666666666667</ele><time>2026-04-12T09:32:29Z</time></trkpt><trkpt lat="45.6896996714957" lon="10.8580091530853"><ele>1067.0</ele><time>2026-04-12T09:32:30Z</time></trkpt><trkpt lat="45.68984863743781" lon="10.857913940538255"><ele>1067.0</ele><time>2026-04-12T09:32:31Z</time></trkpt><trkpt lat="45.68997578405502" lon="10.857840774415445"><ele>1067.0</ele><time>2026-04-12T09:32:32Z</time></trkpt><trkpt lat="45.69008122747111" lon="10.857766448864025"><ele>1067.0</ele><time>2026-04-12T09:32:33Z</time></trkpt><trkpt lat="45.69016123497498" lon="10.857683248017882"><ele>1067.0</ele><time>2026-04-12T09:32:34Z</time></trkpt><trkpt lat="45.690200455620165" lon="10.857554633229809"><ele>1064.0</ele><time>2026-04-12T09:32:35Z</time></trkpt><trkpt lat="45.6902068333072" lon="10.857418612009177"><ele>1061.0</ele><time>2026-04-12T09:32:36Z</time></trkpt><trkpt lat="45.69014175191597" lon="10.857286181445412"><ele>1058.0</ele><time>2026-04-12T09:32:37Z</time></trkpt><trkpt lat="45.69003790751539" lon="10.857192063802488"><ele>1055.0</ele><time>2026-04-12T09:32:38Z</time></trkpt><trkpt lat="45.68992115671281" lon="10.85710426590049"><ele>1055.0</ele><time>2026-04-12T09:32:39Z</time></trkpt><trkpt lat="45.68986789599993" lon="10.856963924379158"><ele>1055.0</ele><time>2026-04-12T09:32:40Z</time></trkpt><trkpt lat="45.68987977073715" lon="10.856808558249242"><ele>1055.0</ele><time>2026-04-12T09:32:41Z</time></trkpt><trkpt lat="45.68989096743379" lon="10.856623365909629"><ele>1055.0</ele><time>2026-04-12T09:32:42Z</time></trkpt><trkpt lat="45.689913355502405" lon="10.856459737825242"><ele>1055.0</ele><time>2026-04-12T09:32:43Z</time></trkpt><trkpt lat="45.68996502743145" lon="10.856330009754187"><ele>1055.0</ele><time>2026-04-12T09:32:44Z</time></trkpt><trkpt lat="45.69004759218838" lon="10.856212983140287"><ele>1055.0</ele><time>2026-04-12T09:32:45Z</time></trkpt><trkpt lat="45.69016676308139" lon="10.856144804150652"><ele>1055.0</ele><time>2026-04-12T09:32:46Z</time></trkpt><trkpt lat="45.690311303866544" lon="10.85608937376983"><ele>1058.0</ele><time>2026-04-12T09:32:47Z</time></trkpt><trkpt lat="45.69044898818633" lon="10.85604346727305"><ele>1061.0</ele><time>2026-04-12T09:32:48Z</time></trkpt><trkpt lat="45.69056690696756" lon="10.855998315742385"><ele>1064.0</ele><time>2026-04-12T09:32:49Z</time></trkpt><trkpt lat="45.690645934368476" lon="10.855939519993203"><ele>1067.0</ele><time>2026-04-12T09:32:50Z</time></trkpt><trkpt lat="45.690706416079635" lon="10.855852777593778"><ele>1070.0</ele><time>2026-04-12T09:32:51Z</time></trkpt><trkpt lat="45.69068954774772" lon="10.855703777004141"><ele>1070.0</ele><time>2026-04-12T09:32:52Z</time></trkpt><trkpt lat="45.69063502373131" lon="10.855594004436472"><ele>1070.0</ele><time>2026-04-12T09:32:53Z</time></trkpt><trkpt lat="45.69053235465218" lon="10.855512740206285"><ele>1070.0</ele><time>2026-04-12T09:32:54Z</time></trkpt><trkpt lat="45.6903925805231" lon="10.855478126357436"><ele>1070.0</ele><time>2026-04-12T09:32:55Z</time></trkpt><trkpt lat="45.69022292187876" lon="10.855460275583923"><ele>1063.6666666666667</ele><time>2026-04-12T09:32:56Z</time></trkpt><trkpt lat="45.69003283958577" lon="10.85540905635847"><ele>1057.3333333333333</ele><time>2026-04-12T09:32:57Z</time></trkpt><trkpt lat="45.689832478763414" lon="10.855313531528497"><ele>1051.0</ele><time>2026-04-12T09:32:58Z</time></trkpt><trkpt lat="45.68961039763318" lon="10.855212302379412"><ele>1054.3333333333333</ele><time>2026-04-12T09:32:59Z</time></trkpt><trkpt lat="45.68939917842059" lon="10.855130085661783"><ele>1057.6666666666667</ele><time>2026-04-12T09:33:00Z</time></trkpt><trkpt lat="45.68921847991444" lon="10.855061274724866"><ele>1061.0</ele><time>2026-04-12T09:33:01Z</time></trkpt><trkpt lat="45.68908160691813" lon="10.855008569006658"><ele>1061.0</ele><time>2026-04-12T09:33:02Z</time></trkpt><trkpt lat="45.68895313428479" lon="10.854968141842113"><ele>1061.0</ele><time>2026-04-12T09:33:03Z</time></trkpt><trkpt lat="45.68886349729327" lon="10.854928687655919"><ele>1061.0</ele><time>2026-04-12T09:33:04Z</time></trkpt><trkpt lat="45.688822351879494" lon="10.854811477322011"><ele>1061.0</ele><time>2026-04-12T09:33:06Z</time></trkpt><trkpt lat="45.68901312871365" lon="10.854763995542793"><ele>1061.0</ele><time>2026-04-12T09:33:09Z</time></trkpt><trkpt lat="45.689115719778265" lon="10.85479681768222"><ele>1061.0</ele><time>2026-04-12T09:33:10Z</time></trkpt><trkpt lat="45.68925271452464" lon="10.854787637519886"><ele>1061.0</ele><time>2026-04-12T09:33:11Z</time></trkpt><trkpt lat="45.68941149948642" lon="10.854756620228523"><ele>1061.0</ele><time>2026-04-12T09:33:12Z</time></trkpt><trkpt lat="45.689596849313425" lon="10.854726120138373"><ele>1061.6666666666667</ele><time>2026-04-12T09:33:13Z</time></trkpt><trkpt lat="45.68978232591388" lon="10.85470630834544"><ele>1062.3333333333333</ele><time>2026-04-12T09:33:14Z</time></trkpt><trkpt lat="45.68995013702801" lon="10.85468442956398"><ele>1063.0</ele><time>2026-04-12T09:33:15Z</time></trkpt><trkpt lat="45.69008434185459" lon="10.85465786409003"><ele>1063.0</ele><time>2026-04-12T09:33:16Z</time></trkpt><trkpt lat="45.69021674559764" lon="10.854605652362874"><ele>1063.0</ele><time>2026-04-12T09:33:17Z</time></trkpt><trkpt lat="45.69034476831293" lon="10.854502331582278"><ele>1063.0</ele><time>2026-04-12T09:33:18Z</time></trkpt><trkpt lat="45.69046999753517" lon="10.85438964171513"><ele>1063.0</ele><time>2026-04-12T09:33:19Z</time></trkpt><trkpt lat="45.6905762346503" lon="10.85431233814975"><ele>1068.4</ele><time>2026-04-12T09:33:20Z</time></trkpt><trkpt lat="45.69065254138147" lon="10.8542580024325"><ele>1073.8</ele><time>2026-04-12T09:33:21Z</time></trkpt><trkpt lat="45.69071817383403" lon="10.854199711444243"><ele>1079.2</ele><time>2026-04-12T09:33:22Z</time></trkpt><trkpt lat="45.69074703379049" lon="10.854030643293841"><ele>1084.6</ele><time>2026-04-12T09:33:24Z</time></trkpt><trkpt lat="45.69071378846504" lon="10.853923455160952"><ele>1090.0</ele><time>2026-04-12T09:33:25Z</time></trkpt><trkpt lat="45.69060564023454" lon="10.853865253482333"><ele>1090.0</ele><time>2026-04-12T09:33:26Z</time></trkpt><trkpt lat="45.69047270285932" lon="10.853850988181051"><ele>1090.0</ele><time>2026-04-12T09:33:27Z</time></trkpt><trkpt lat="45.69030891914386" lon="10.85384773764186"><ele>1090.0</ele><time>2026-04-12T09:33:28Z</time></trkpt><trkpt lat="45.69015239831791" lon="10.853832785135797"><ele>1089.5</ele><time>2026-04-12T09:33:29Z</time></trkpt><trkpt lat="45.69002667804524" lon="10.853758614063933"><ele>1089.0</ele><time>2026-04-12T09:33:30Z</time></trkpt><trkpt lat="45.68990627879381" lon="10.853660804211238"><ele>1088.5</ele><time>2026-04-12T09:33:31Z</time></trkpt><trkpt lat="45.689792981395335" lon="10.853560778011651"><ele>1088.0</ele><time>2026-04-12T09:33:32Z</time></trkpt><trkpt lat="45.68969141690907" lon="10.853428518740285"><ele>1089.75</ele><time>2026-04-12T09:33:33Z</time></trkpt><trkpt lat="45.68959824446306" lon="10.853288394183616"><ele>1091.5</ele><time>2026-04-12T09:33:34Z</time></trkpt><trkpt lat="45.68951339049498" lon="10.853130308054176"><ele>1093.25</ele><time>2026-04-12T09:33:35Z</time></trkpt><trkpt lat="45.68943300840053" lon="10.852938956998619"><ele>1095.0</ele><time>2026-04-12T09:33:36Z</time></trkpt><trkpt lat="45.689352167535006" lon="10.852707045728321"><ele>1099.25</ele><time>2026-04-12T09:33:37Z</time></trkpt><trkpt lat="45.689300084637026" lon="10.852510373007737"><ele>1103.5</ele><time>2026-04-12T09:33:38Z</time></trkpt><trkpt lat="45.689237920550326" lon="10.852337747834715"><ele>1107.75</ele><time>2026-04-12T09:33:39Z</time></trkpt><trkpt lat="45.68917818596887" lon="10.852182188340104"><ele>1112.0</ele><time>2026-04-12T09:33:40Z</time></trkpt><trkpt lat="45.68913499714603" lon="10.852047662455842"><ele>1112.0</ele><time>2026-04-12T09:33:41Z</time></trkpt><trkpt lat="45.689101686478374" lon="10.851942235535594"><ele>1112.0</ele><time>2026-04-12T09:33:42Z</time></trkpt><trkpt lat="45.68910296093192" lon="10.851785815608212"><ele>1112.0</ele><time>2026-04-12T09:33:44Z</time></trkpt><trkpt lat="45.68915467661008" lon="10.851724339523528"><ele>1112.0</ele><time>2026-04-12T09:33:45Z</time></trkpt><trkpt lat="45.689288793252814" lon="10.851739745355642"><ele>1112.0</ele><time>2026-04-12T09:33:47Z</time></trkpt><trkpt lat="45.68937344188892" lon="10.851832370705573"><ele>1114.0</ele><time>2026-04-12T09:33:49Z</time></trkpt><trkpt lat="45.68946404957152" lon="10.851924031905641"><ele>1116.0</ele><time>2026-04-12T09:33:51Z</time></trkpt><trkpt lat="45.68958476495788" lon="10.851982738318767"><ele>1118.0</ele><time>2026-04-12T09:33:53Z</time></trkpt><trkpt lat="45.68964616752511" lon="10.852029135149463"><ele>1120.0</ele><time>2026-04-12T09:33:54Z</time></trkpt><trkpt lat="45.68970668535483" lon="10.852078902253753"><ele>1122.0</ele><time>2026-04-12T09:33:55Z</time></trkpt><trkpt lat="45.689765217916275" lon="10.852127855876274"><ele>1124.0</ele><time>2026-04-12T09:33:56Z</time></trkpt><trkpt lat="45.689831341286364" lon="10.852170698739098"><ele>1124.0</ele><time>2026-04-12T09:33:57Z</time></trkpt><trkpt lat="45.68990035409606" lon="10.852203207014982"><ele>1124.0</ele><time>2026-04-12T09:33:58Z</time></trkpt><trkpt lat="45.68998203081799" lon="10.852239829503821"><ele>1124.0</ele><time>2026-04-12T09:33:59Z</time></trkpt><trkpt lat="45.69009004948916" lon="10.852275832141565"><ele>1124.0</ele><time>2026-04-12T09:34:00Z</time></trkpt><trkpt lat="45.69020665362798" lon="10.852298209462289"><ele>1124.0</ele><time>2026-04-12T09:34:01Z</time></trkpt><trkpt lat="45.69033925770543" lon="10.852326052922015"><ele>1125.75</ele><time>2026-04-12T09:34:02Z</time></trkpt><trkpt lat="45.69047915410605" lon="10.852334200669773"><ele>1127.5</ele><time>2026-04-12T09:34:03Z</time></trkpt><trkpt lat="45.69062492083035" lon="10.852344028174262"><ele>1129.25</ele><time>2026-04-12T09:34:04Z</time></trkpt><trkpt lat="45.6907708435057" lon="10.85234186404374"><ele>1131.0</ele><time>2026-04-12T09:34:05Z</time></trkpt><trkpt lat="45.690915384282555" lon="10.852302994141102"><ele>1131.0</ele><time>2026-04-12T09:34:06Z</time></trkpt><trkpt lat="45.691055956772075" lon="10.852235625302647"><ele>1131.0</ele><time>2026-04-12T09:34:07Z</time></trkpt><trkpt lat="45.69120298228889" lon="10.852173358314325"><ele>1131.0</ele><time>2026-04-12T09:34:08Z</time></trkpt><trkpt lat="45.69134909086073" lon="10.852113277343204"><ele>1133.0</ele><time>2026-04-12T09:34:09Z</time></trkpt><trkpt lat="45.69149258839564" lon="10.852049064443497"><ele>1135.0</ele><time>2026-04-12T09:34:10Z</time></trkpt><trkpt lat="45.69162601079586" lon="10.851996528980905"><ele>1137.0</ele><time>2026-04-12T09:34:11Z</time></trkpt><trkpt lat="45.69175827450581" lon="10.851941728069034"><ele>1139.0</ele><time>2026-04-12T09:34:12Z</time></trkpt><trkpt lat="45.691877012537205" lon="10.851856972881574"><ele>1144.25</ele><time>2026-04-12T09:34:13Z</time></trkpt><trkpt lat="45.69198492651504" lon="10.85174844457305"><ele>1149.5</ele><time>2026-04-12T09:34:14Z</time></trkpt><trkpt lat="45.69209354906788" lon="10.85164559105299"><ele>1154.75</ele><time>2026-04-12T09:34:15Z</time></trkpt><trkpt lat="45.69220059748134" lon="10.851588428106066"><ele>1160.0</ele><time>2026-04-12T09:34:16Z</time></trkpt><trkpt lat="45.69232650613232" lon="10.851598415069752"><ele>1160.0</ele><time>2026-04-12T09:34:17Z</time></trkpt><trkpt lat="45.69246787206616" lon="10.851608560631945"><ele>1160.0</ele><time>2026-04-12T09:34:18Z</time></trkpt><trkpt lat="45.69259438494699" lon="10.851546590180284"><ele>1160.0</ele><time>2026-04-12T09:34:19Z</time></trkpt><trkpt lat="45.692726013685714" lon="10.851499919154197"><ele>1160.0</ele><time>2026-04-12T09:34:20Z</time></trkpt><trkpt lat="45.69286567094972" lon="10.851494187633012"><ele>1161.0</ele><time>2026-04-12T09:34:21Z</time></trkpt><trkpt lat="45.69298115785207" lon="10.851495938220395"><ele>1162.0</ele><time>2026-04-12T09:34:22Z</time></trkpt><trkpt lat="45.693087099849485" lon="10.851505129631192"><ele>1163.0</ele><time>2026-04-12T09:34:23Z</time></trkpt><trkpt lat="45.693207318198674" lon="10.851466375356674"><ele>1164.0</ele><time>2026-04-12T09:34:24Z</time></trkpt><trkpt lat="45.69333279698849" lon="10.851413146169795"><ele>1164.0</ele><time>2026-04-12T09:34:25Z</time></trkpt><trkpt lat="45.69345109886555" lon="10.851349248926962"><ele>1164.0</ele><time>2026-04-12T09:34:26Z</time></trkpt><trkpt lat="45.69355292427504" lon="10.851285177365325"><ele>1164.0</ele><time>2026-04-12T09:34:27Z</time></trkpt><trkpt lat="45.693647471132834" lon="10.851283297086653"><ele>1164.0</ele><time>2026-04-12T09:34:28Z</time></trkpt><trkpt lat="45.69373896512561" lon="10.851337622117635"><ele>1164.0</ele><time>2026-04-12T09:34:29Z</time></trkpt><trkpt lat="45.693825935850434" lon="10.8514382059418"><ele>1167.4</ele><time>2026-04-12T09:34:30Z</time></trkpt><trkpt lat="45.69388636101836" lon="10.851573592681115"><ele>1170.8000000000002</ele><time>2026-04-12T09:34:31Z</time></trkpt><trkpt lat="45.69393863464987" lon="10.851714458667665"><ele>1174.1999999999998</ele><time>2026-04-12T09:34:32Z</time></trkpt><trkpt lat="45.69395343446414" lon="10.851847668096891"><ele>1177.6</ele><time>2026-04-12T09:34:33Z</time></trkpt><trkpt lat="45.69392669377739" lon="10.851982814126108"><ele>1181.0</ele><time>2026-04-12T09:34:34Z</time></trkpt><trkpt lat="45.69393566145707" lon="10.852120954147424"><ele>1181.0</ele><time>2026-04-12T09:34:35Z</time></trkpt><trkpt lat="45.69396812102818" lon="10.852274060663408"><ele>1181.0</ele><time>2026-04-12T09:34:36Z</time></trkpt><trkpt lat="45.69403147007319" lon="10.85245295646198"><ele>1181.0</ele><time>2026-04-12T09:34:37Z</time></trkpt><trkpt lat="45.69411379674887" lon="10.852603314560731"><ele>1181.0</ele><time>2026-04-12T09:34:38Z</time></trkpt><trkpt lat="45.694188863976784" lon="10.85272665009502"><ele>1183.25</ele><time>2026-04-12T09:34:39Z</time></trkpt><trkpt lat="45.694310121689185" lon="10.852821860164251"><ele>1185.5</ele><time>2026-04-12T09:34:40Z</time></trkpt><trkpt lat="45.694433117674485" lon="10.852916619945294"><ele>1187.75</ele><time>2026-04-12T09:34:41Z</time></trkpt><trkpt lat="45.69453111583283" lon="10.853040965355635"><ele>1190.0</ele><time>2026-04-12T09:34:42Z</time></trkpt><trkpt lat="45.69460960525142" lon="10.85316488235859"><ele>1190.0</ele><time>2026-04-12T09:34:43Z</time></trkpt><trkpt lat="45.69459881496032" lon="10.853332634550076"><ele>1190.0</ele><time>2026-04-12T09:34:44Z</time></trkpt><trkpt lat="45.694591711670796" lon="10.85350616136314"><ele>1190.0</ele><time>2026-04-12T09:34:45Z</time></trkpt><trkpt lat="45.694591408951936" lon="10.853680094732725"><ele>1190.0</ele><time>2026-04-12T09:34:46Z</time></trkpt><trkpt lat="45.6945806392167" lon="10.853822926592864"><ele>1189.0</ele><time>2026-04-12T09:34:47Z</time></trkpt><trkpt lat="45.69460120731096" lon="10.853952034976498"><ele>1188.0</ele><time>2026-04-12T09:34:48Z</time></trkpt><trkpt lat="45.69465462308722" lon="10.85406080791375"><ele>1187.0</ele><time>2026-04-12T09:34:49Z</time></trkpt><trkpt lat="45.694744650491316" lon="10.854142932393074"><ele>1186.0</ele><time>2026-04-12T09:34:50Z</time></trkpt><trkpt lat="45.69487106971194" lon="10.854181792303333"><ele>1185.0</ele><time>2026-04-12T09:34:51Z</time></trkpt><trkpt lat="45.695010448422344" lon="10.85420316268041"><ele>1185.0</ele><time>2026-04-12T09:34:52Z</time></trkpt><trkpt lat="45.695135249478966" lon="10.854246610044141"><ele>1185.0</ele><time>2026-04-12T09:34:53Z</time></trkpt><trkpt lat="45.69521676337713" lon="10.854314180835663"><ele>1185.0</ele><time>2026-04-12T09:34:54Z</time></trkpt><trkpt lat="45.69524957351029" lon="10.854403073439961"><ele>1185.0</ele><time>2026-04-12T09:34:55Z</time></trkpt><trkpt lat="45.69515904098753" lon="10.854573594952377"><ele>1185.0</ele><time>2026-04-12T09:34:57Z</time></trkpt><trkpt lat="45.69513005660413" lon="10.854683394076705"><ele>1183.6666666666667</ele><time>2026-04-12T09:34:58Z</time></trkpt><trkpt lat="45.69509970623888" lon="10.854781246711541"><ele>1182.3333333333335</ele><time>2026-04-12T09:34:59Z</time></trkpt><trkpt lat="45.695279575533036" lon="10.855192916254005"><ele>1181.0</ele><time>2026-04-12T09:35:02Z</time></trkpt><trkpt lat="45.69536220931616" lon="10.855325188500851"><ele>1184.75</ele><time>2026-04-12T09:35:03Z</time></trkpt><trkpt lat="45.69544916754215" lon="10.855456643102185"><ele>1188.5</ele><time>2026-04-12T09:35:04Z</time></trkpt><trkpt lat="45.69552561012258" lon="10.855593813480773"><ele>1192.25</ele><time>2026-04-12T09:35:05Z</time></trkpt><trkpt lat="45.69560126662451" lon="10.855718459746033"><ele>1196.0</ele><time>2026-04-12T09:35:06Z</time></trkpt><trkpt lat="45.69568932652181" lon="10.855812306145438"><ele>1196.0</ele><time>2026-04-12T09:35:07Z</time></trkpt><trkpt lat="45.69579170412592" lon="10.855879375851012"><ele>1196.0</ele><time>2026-04-12T09:35:08Z</time></trkpt><trkpt lat="45.69588767231819" lon="10.85595391457181"><ele>1196.0</ele><time>2026-04-12T09:35:09Z</time></trkpt><trkpt lat="45.69596400672327" lon="10.85602361009179"><ele>1196.0</ele><time>2026-04-12T09:35:10Z</time></trkpt><trkpt lat="45.69603357971773" lon="10.856087874662759"><ele>1196.0</ele><time>2026-04-12T09:35:11Z</time></trkpt><trkpt lat="45.69611228318342" lon="10.856138507476784"><ele>1198.0</ele><time>2026-04-12T09:35:12Z</time></trkpt><trkpt lat="45.69619334482463" lon="10.856182561948344"><ele>1200.0</ele><time>2026-04-12T09:35:13Z</time></trkpt><trkpt lat="45.69627681180693" lon="10.85622849091439"><ele>1202.0</ele><time>2026-04-12T09:35:14Z</time></trkpt><trkpt lat="45.6963680522321" lon="10.856275476347793"><ele>1204.0</ele><time>2026-04-12T09:35:15Z</time></trkpt><trkpt lat="45.696461369546704" lon="10.856321711053663"><ele>1206.0</ele><time>2026-04-12T09:35:16Z</time></trkpt><trkpt lat="45.696559875125224" lon="10.856379211211463"><ele>1206.0</ele><time>2026-04-12T09:35:17Z</time></trkpt><trkpt lat="45.69666528135012" lon="10.856446356372391"><ele>1206.0</ele><time>2026-04-12T09:35:18Z</time></trkpt><trkpt lat="45.69677441906112" lon="10.85652271317627"><ele>1206.0</ele><time>2026-04-12T09:35:19Z</time></trkpt><trkpt lat="45.696883211115356" lon="10.856608077210874"><ele>1206.0</ele><time>2026-04-12T09:35:20Z</time></trkpt><trkpt lat="45.69699372815656" lon="10.856700280008779"><ele>1207.25</ele><time>2026-04-12T09:35:21Z</time></trkpt><trkpt lat="45.69710472249287" lon="10.856787648896521"><ele>1208.5</ele><time>2026-04-12T09:35:22Z</time></trkpt><trkpt lat="45.69721744622728" lon="10.856877734439674"><ele>1209.75</ele><time>2026-04-12T09:35:23Z</time></trkpt><trkpt lat="45.69732724157207" lon="10.856970029823879"><ele>1211.0</ele><time>2026-04-12T09:35:24Z</time></trkpt><trkpt lat="45.697429668101236" lon="10.857083169779775"><ele>1211.0</ele><time>2026-04-12T09:35:25Z</time></trkpt><trkpt lat="45.69750645562086" lon="10.857164820770903"><ele>1211.0</ele><time>2026-04-12T09:35:26Z</time></trkpt><trkpt lat="45.6975772631625" lon="10.857264040315593"><ele>1211.0</ele><time>2026-04-12T09:35:27Z</time></trkpt><trkpt lat="45.697644507888626" lon="10.85731272940896"><ele>1211.0</ele><time>2026-04-12T09:35:28Z</time></trkpt><trkpt lat="45.69776159413207" lon="10.857419771177907"><ele>1211.0</ele><time>2026-04-12T09:35:29Z</time></trkpt><trkpt lat="45.697831850324874" lon="10.85747730430471"><ele>1214.8</ele><time>2026-04-12T09:35:30Z</time></trkpt><trkpt lat="45.69792595606559" lon="10.85749919615125"><ele>1218.6</ele><time>2026-04-12T09:35:32Z</time></trkpt><trkpt lat="45.6980140971534" lon="10.857410643584304"><ele>1222.4</ele><time>2026-04-12T09:35:34Z</time></trkpt><trkpt lat="45.69795886012888" lon="10.857276756238015"><ele>1226.2</ele><time>2026-04-12T09:35:35Z</time></trkpt><trkpt lat="45.69790152847632" lon="10.857164972180898"><ele>1230.0</ele><time>2026-04-12T09:35:36Z</time></trkpt><trkpt lat="45.697842551832714" lon="10.857047105897696"><ele>1230.0</ele><time>2026-04-12T09:35:37Z</time></trkpt><trkpt lat="45.69779705829862" lon="10.856928310640722"><ele>1230.0</ele><time>2026-04-12T09:35:38Z</time></trkpt><trkpt lat="45.69777810290435" lon="10.856825190118656"><ele>1230.0</ele><time>2026-04-12T09:35:39Z</time></trkpt><trkpt lat="45.6977581079777" lon="10.856694324980833"><ele>1230.0</ele><time>2026-04-12T09:35:41Z</time></trkpt><trkpt lat="45.69782234814065" lon="10.856675362220217"><ele>1230.0</ele><time>2026-04-12T09:35:43Z</time></trkpt><trkpt lat="45.69791220916998" lon="10.85676057480906"><ele>1230.0</ele><time>2026-04-12T09:35:44Z</time></trkpt><trkpt lat="45.69797384309213" lon="10.856816959342238"><ele>1230.0</ele><time>2026-04-12T09:35:45Z</time></trkpt><trkpt lat="45.698025624116475" lon="10.85689745774391"><ele>1230.0</ele><time>2026-04-12T09:35:46Z</time></trkpt><trkpt lat="45.698093493282514" lon="10.856961014607945"><ele>1230.0</ele><time>2026-04-12T09:35:47Z</time></trkpt><trkpt lat="45.69817323915978" lon="10.857010816881957"><ele>1230.0</ele><time>2026-04-12T09:35:48Z</time></trkpt><trkpt lat="45.698261684153195" lon="10.857055976670143"><ele>1230.0</ele><time>2026-04-12T09:35:49Z</time></trkpt><trkpt lat="45.69835234629644" lon="10.857091271821528"><ele>1230.0</ele><time>2026-04-12T09:35:50Z</time></trkpt><trkpt lat="45.698437336164226" lon="10.857125038555644"><ele>1230.0</ele><time>2026-04-12T09:35:51Z</time></trkpt><trkpt lat="45.69850680741308" lon="10.857165077949626"><ele>1230.0</ele><time>2026-04-12T09:35:52Z</time></trkpt><trkpt lat="45.698561308629415" lon="10.857233327582593"><ele>1230.0</ele><time>2026-04-12T09:35:53Z</time></trkpt><trkpt lat="45.698593150307964" lon="10.857349341038919"><ele>1230.0</ele><time>2026-04-12T09:35:54Z</time></trkpt><trkpt lat="45.69860241162979" lon="10.857503025317257"><ele>1230.0</ele><time>2026-04-12T09:35:55Z</time></trkpt><trkpt lat="45.698616802493916" lon="10.85765311894145"><ele>1230.0</ele><time>2026-04-12T09:35:56Z</time></trkpt><trkpt lat="45.698675672296524" lon="10.857792110799505"><ele>1231.8</ele><time>2026-04-12T09:35:57Z</time></trkpt><trkpt lat="45.6987686360864" lon="10.857907504470164"><ele>1233.6</ele><time>2026-04-12T09:35:58Z</time></trkpt><trkpt lat="45.69886142452795" lon="10.858019479834047"><ele>1235.4</ele><time>2026-04-12T09:35:59Z</time></trkpt><trkpt lat="45.69894983521477" lon="10.858100045554236"><ele>1237.2</ele><time>2026-04-12T09:36:00Z</time></trkpt><trkpt lat="45.69901746045429" lon="10.858181011345716"><ele>1239.0</ele><time>2026-04-12T09:36:01Z</time></trkpt><trkpt lat="45.69907623784464" lon="10.85826007693925"><ele>1239.0</ele><time>2026-04-12T09:36:02Z</time></trkpt><trkpt lat="45.69912930441263" lon="10.858332129293952"><ele>1239.0</ele><time>2026-04-12T09:36:03Z</time></trkpt><trkpt lat="45.699180450875005" lon="10.85839963071271"><ele>1239.0</ele><time>2026-04-12T09:36:04Z</time></trkpt><trkpt lat="45.69923253954613" lon="10.858466614638845"><ele>1239.0</ele><time>2026-04-12T09:36:05Z</time></trkpt><trkpt lat="45.69933339907371" lon="10.858537775643446"><ele>1239.0</ele><time>2026-04-12T09:36:07Z</time></trkpt><trkpt lat="45.699437653235414" lon="10.858456920560283"><ele>1239.0</ele><time>2026-04-12T09:36:09Z</time></trkpt><trkpt lat="45.699422343315845" lon="10.858306729206422"><ele>1239.0</ele><time>2026-04-12T09:36:10Z</time></trkpt><trkpt lat="45.69940016320731" lon="10.858170495546599"><ele>1239.0</ele><time>2026-04-12T09:36:11Z</time></trkpt><trkpt lat="45.699360359648644" lon="10.858017272265517"><ele>1239.0</ele><time>2026-04-12T09:36:12Z</time></trkpt><trkpt lat="45.699304446115384" lon="10.857856056958353"><ele>1239.0</ele><time>2026-04-12T09:36:13Z</time></trkpt><trkpt lat="45.699228116911556" lon="10.857683320235113"><ele>1241.0</ele><time>2026-04-12T09:36:14Z</time></trkpt><trkpt lat="45.699142880295845" lon="10.857519276782684"><ele>1243.0</ele><time>2026-04-12T09:36:15Z</time></trkpt><trkpt lat="45.69905872371161" lon="10.857351372979455"><ele>1245.0</ele><time>2026-04-12T09:36:16Z</time></trkpt><trkpt lat="45.69898788908511" lon="10.857158129429072"><ele>1247.0</ele><time>2026-04-12T09:36:17Z</time></trkpt><trkpt lat="45.698935994868584" lon="10.856957487376537"><ele>1248.3333333333335</ele><time>2026-04-12T09:36:18Z</time></trkpt><trkpt lat="45.69886332549248" lon="10.856761036018469"><ele>1249.6666666666667</ele><time>2026-04-12T09:36:19Z</time></trkpt><trkpt lat="45.69876726004539" lon="10.8565915677715"><ele>1251.0</ele><time>2026-04-12T09:36:20Z</time></trkpt><trkpt lat="45.69867152513384" lon="10.856421619131927"><ele>1251.0</ele><time>2026-04-12T09:36:21Z</time></trkpt><trkpt lat="45.698586106896464" lon="10.85624361160667"><ele>1251.0</ele><time>2026-04-12T09:36:22Z</time></trkpt><trkpt lat="45.69850823613296" lon="10.856067552265785"><ele>1251.0</ele><time>2026-04-12T09:36:23Z</time></trkpt><trkpt lat="45.69843085598217" lon="10.855893149024812"><ele>1251.0</ele><time>2026-04-12T09:36:24Z</time></trkpt><trkpt lat="45.69835727989933" lon="10.855731901853257"><ele>1250.0</ele><time>2026-04-12T09:36:25Z</time></trkpt><trkpt lat="45.698282801137054" lon="10.855572925003202"><ele>1249.0</ele><time>2026-04-12T09:36:26Z</time></trkpt><trkpt lat="45.69820961190985" lon="10.85541904773519"><ele>1248.0</ele><time>2026-04-12T09:36:27Z</time></trkpt><trkpt lat="45.698134736994135" lon="10.85527740460716"><ele>1247.0</ele><time>2026-04-12T09:36:28Z</time></trkpt><trkpt lat="45.69805297722676" lon="10.855161414773013"><ele>1249.1666666666667</ele><time>2026-04-12T09:36:29Z</time></trkpt><trkpt lat="45.69797908417805" lon="10.855075187742946"><ele>1251.3333333333335</ele><time>2026-04-12T09:36:30Z</time></trkpt><trkpt lat="45.69791710082662" lon="10.855004745917705"><ele>1253.5</ele><time>2026-04-12T09:36:31Z</time></trkpt><trkpt lat="45.69787730708515" lon="10.854866435685306"><ele>1255.6666666666667</ele><time>2026-04-12T09:36:33Z</time></trkpt><trkpt lat="45.69793314773101" lon="10.854807405925056"><ele>1257.8333333333333</ele><time>2026-04-12T09:36:34Z</time></trkpt><trkpt lat="45.698000787474776" lon="10.854793946001696"><ele>1260.0</ele><time>2026-04-12T09:36:35Z</time></trkpt><trkpt lat="45.698073787935165" lon="10.854842252756557"><ele>1260.0</ele><time>2026-04-12T09:36:36Z</time></trkpt><trkpt lat="45.698135534091406" lon="10.854932568947508"><ele>1260.0</ele><time>2026-04-12T09:36:37Z</time></trkpt><trkpt lat="45.69822786672447" lon="10.854990199827235"><ele>1260.0</ele><time>2026-04-12T09:36:38Z</time></trkpt><trkpt lat="45.698323844257104" lon="10.855071859491925"><ele>1260.0</ele><time>2026-04-12T09:36:39Z</time></trkpt><trkpt lat="45.69843634254676" lon="10.855142984758075"><ele>1260.0</ele><time>2026-04-12T09:36:40Z</time></trkpt><trkpt lat="45.69855269941981" lon="10.855209225845476"><ele>1260.5</ele><time>2026-04-12T09:36:41Z</time></trkpt><trkpt lat="45.69867926187753" lon="10.855273043178439"><ele>1261.0</ele><time>2026-04-12T09:36:42Z</time></trkpt><trkpt lat="45.698809114035996" lon="10.855320512392026"><ele>1261.5</ele><time>2026-04-12T09:36:43Z</time></trkpt><trkpt lat="45.69894069505369" lon="10.855371249786497"><ele>1262.0</ele><time>2026-04-12T09:36:44Z</time></trkpt><trkpt lat="45.69907892001071" lon="10.85541807464418"><ele>1262.0</ele><time>2026-04-12T09:36:45Z</time></trkpt><trkpt lat="45.69921359916599" lon="10.855465318087575"><ele>1262.0</ele><time>2026-04-12T09:36:46Z</time></trkpt><trkpt lat="45.69935184094449" lon="10.855523430307777"><ele>1262.0</ele><time>2026-04-12T09:36:47Z</time></trkpt><trkpt lat="45.69948399855414" lon="10.855577355384789"><ele>1262.0</ele><time>2026-04-12T09:36:48Z</time></trkpt><trkpt lat="45.69961628808992" lon="10.855628931737673"><ele>1266.75</ele><time>2026-04-12T09:36:49Z</time></trkpt><trkpt lat="45.6997362898139" lon="10.855676319016489"><ele>1271.5</ele><time>2026-04-12T09:36:50Z</time></trkpt><trkpt lat="45.69985819471539" lon="10.855724949264722"><ele>1276.25</ele><time>2026-04-12T09:36:51Z</time></trkpt><trkpt lat="45.699972172069415" lon="10.8557742916445"><ele>1281.0</ele><time>2026-04-12T09:36:52Z</time></trkpt><trkpt lat="45.700086724185" lon="10.855825838152889"><ele>1281.0</ele><time>2026-04-12T09:36:53Z</time></trkpt><trkpt lat="45.700191907487635" lon="10.855887990843284"><ele>1281.0</ele><time>2026-04-12T09:36:54Z</time></trkpt><trkpt lat="45.7002864332199" lon="10.85595389832123"><ele>1281.0</ele><time>2026-04-12T09:36:55Z</time></trkpt><trkpt lat="45.70037671469552" lon="10.856035662997153"><ele>1281.0</ele><time>2026-04-12T09:36:56Z</time></trkpt><trkpt lat="45.70044889670723" lon="10.856131165656247"><ele>1281.0</ele><time>2026-04-12T09:36:57Z</time></trkpt><trkpt lat="45.70052332000416" lon="10.856226371592106"><ele>1283.1999999999998</ele><time>2026-04-12T09:36:58Z</time></trkpt><trkpt lat="45.70059338449109" lon="10.856321987212855"><ele>1285.3999999999999</ele><time>2026-04-12T09:36:59Z</time></trkpt><trkpt lat="45.700664567716856" lon="10.856416390874001"><ele>1287.6</ele><time>2026-04-12T09:37:00Z</time></trkpt><trkpt lat="45.70073341999564" lon="10.856509777041401"><ele>1289.8</ele><time>2026-04-12T09:37:01Z</time></trkpt><trkpt lat="45.70080973092502" lon="10.856606744578269"><ele>1292.0</ele><time>2026-04-12T09:37:02Z</time></trkpt><trkpt lat="45.70088018970317" lon="10.856701508182928"><ele>1292.1999999999998</ele><time>2026-04-12T09:37:03Z</time></trkpt><trkpt lat="45.70095858606576" lon="10.856794917137673"><ele>1292.4</ele><time>2026-04-12T09:37:04Z</time></trkpt><trkpt lat="45.70103337435762" lon="10.856888000585414"><ele>1292.6</ele><time>2026-04-12T09:37:05Z</time></trkpt><trkpt lat="45.70111158201197" lon="10.85697673507399"><ele>1292.8000000000002</ele><time>2026-04-12T09:37:06Z</time></trkpt><trkpt lat="45.70119107451604" lon="10.857058891592152"><ele>1293.0</ele><time>2026-04-12T09:37:07Z</time></trkpt><trkpt lat="45.70127549010818" lon="10.857131017987243"><ele>1295.0</ele><time>2026-04-12T09:37:08Z</time></trkpt><trkpt lat="45.701362985912745" lon="10.857197924972377"><ele>1297.0</ele><time>2026-04-12T09:37:09Z</time></trkpt><trkpt lat="45.70145124446658" lon="10.857257548992775"><ele>1299.0</ele><time>2026-04-12T09:37:10Z</time></trkpt><trkpt lat="45.701543540949636" lon="10.85732166340965"><ele>1301.0</ele><time>2026-04-12T09:37:11Z</time></trkpt><trkpt lat="45.7016324423148" lon="10.857390778603987"><ele>1303.0</ele><time>2026-04-12T09:37:12Z</time></trkpt><trkpt lat="45.70171961011901" lon="10.857461681836929"><ele>1303.0</ele><time>2026-04-12T09:37:13Z</time></trkpt><trkpt lat="45.70180368677728" lon="10.857529143779555"><ele>1303.0</ele><time>2026-04-12T09:37:14Z</time></trkpt><trkpt lat="45.70188618509838" lon="10.85759511722463"><ele>1303.0</ele><time>2026-04-12T09:37:15Z</time></trkpt><trkpt lat="45.70196973933862" lon="10.857657965873214"><ele>1303.0</ele><time>2026-04-12T09:37:16Z</time></trkpt><trkpt lat="45.702052876969965" lon="10.857720208537636"><ele>1303.0</ele><time>2026-04-12T09:37:17Z</time></trkpt><trkpt lat="45.70213302738226" lon="10.857787396823268"><ele>1306.0</ele><time>2026-04-12T09:37:18Z</time></trkpt><trkpt lat="45.702214318996184" lon="10.857857277810643"><ele>1309.0</ele><time>2026-04-12T09:37:19Z</time></trkpt><trkpt lat="45.70229663859691" lon="10.857930079752236"><ele>1312.0</ele><time>2026-04-12T09:37:20Z</time></trkpt><trkpt lat="45.702383814815114" lon="10.857999815151622"><ele>1315.0</ele><time>2026-04-12T09:37:21Z</time></trkpt><trkpt lat="45.70247229231334" lon="10.858066911740917"><ele>1318.0</ele><time>2026-04-12T09:37:22Z</time></trkpt><trkpt lat="45.70256334700527" lon="10.858130784347207"><ele>1318.0</ele><time>2026-04-12T09:37:23Z</time></trkpt><trkpt lat="45.70265148156623" lon="10.858190959430003"><ele>1318.0</ele><time>2026-04-12T09:37:24Z</time></trkpt><trkpt lat="45.70274146665166" lon="10.8582567961027"><ele>1318.0</ele><time>2026-04-12T09:37:25Z</time></trkpt><trkpt lat="45.70282767151455" lon="10.858328787058824"><ele>1318.0</ele><time>2026-04-12T09:37:26Z</time></trkpt><trkpt lat="45.7029181742388" lon="10.858401636749258"><ele>1318.0</ele><time>2026-04-12T09:37:27Z</time></trkpt><trkpt lat="45.703010593971335" lon="10.85847048746223"><ele>1321.6000000000001</ele><time>2026-04-12T09:37:28Z</time></trkpt><trkpt lat="45.70310741013678" lon="10.85853866846766"><ele>1325.2</ele><time>2026-04-12T09:37:29Z</time></trkpt><trkpt lat="45.70320310058421" lon="10.858607778507702"><ele>1328.8</ele><time>2026-04-12T09:37:30Z</time></trkpt><trkpt lat="45.703299716804764" lon="10.85868344108687"><ele>1332.4</ele><time>2026-04-12T09:37:31Z</time></trkpt><trkpt lat="45.703400470180746" lon="10.858764817957962"><ele>1336.0</ele><time>2026-04-12T09:37:32Z</time></trkpt><trkpt lat="45.703497275189285" lon="10.858838479235693"><ele>1335.8</ele><time>2026-04-12T09:37:33Z</time></trkpt><trkpt lat="45.703598475339234" lon="10.85891081934943"><ele>1335.6</ele><time>2026-04-12T09:37:34Z</time></trkpt><trkpt lat="45.703700864747105" lon="10.858967079765106"><ele>1335.4</ele><time>2026-04-12T09:37:35Z</time></trkpt><trkpt lat="45.70380935373432" lon="10.858994186296403"><ele>1335.2</ele><time>2026-04-12T09:37:36Z</time></trkpt><trkpt lat="45.703916900078355" lon="10.859018036327388"><ele>1335.0</ele><time>2026-04-12T09:37:37Z</time></trkpt><trkpt lat="45.70402098780811" lon="10.859037186002185"><ele>1335.0</ele><time>2026-04-12T09:37:38Z</time></trkpt><trkpt lat="45.70412325401007" lon="10.85906035050358"><ele>1335.0</ele><time>2026-04-12T09:37:39Z</time></trkpt><trkpt lat="45.70422490485716" lon="10.859088972370218"><ele>1335.0</ele><time>2026-04-12T09:37:40Z</time></trkpt><trkpt lat="45.70432593684967" lon="10.85911609635312"><ele>1335.0</ele><time>2026-04-12T09:37:41Z</time></trkpt><trkpt lat="45.704428682108016" lon="10.859134147956924"><ele>1335.0</ele><time>2026-04-12T09:37:42Z</time></trkpt><trkpt lat="45.70453261745474" lon="10.859154022176165"><ele>1336.8</ele><time>2026-04-12T09:37:43Z</time></trkpt><trkpt lat="45.70463591018626" lon="10.859181191323458"><ele>1338.6</ele><time>2026-04-12T09:37:44Z</time></trkpt><trkpt lat="45.70473925253786" lon="10.85921101866883"><ele>1340.4</ele><time>2026-04-12T09:37:45Z</time></trkpt><trkpt lat="45.70484155688387" lon="10.859247404317246"><ele>1342.2</ele><time>2026-04-12T09:37:46Z</time></trkpt><trkpt lat="45.7049431185395" lon="10.859289966209177"><ele>1344.0</ele><time>2026-04-12T09:37:47Z</time></trkpt><trkpt lat="45.705044028225636" lon="10.8593370214818"><ele>1344.6</ele><time>2026-04-12T09:37:48Z</time></trkpt><trkpt lat="45.7051455627747" lon="10.859384388231904"><ele>1345.2</ele><time>2026-04-12T09:37:49Z</time></trkpt><trkpt lat="45.705249933237816" lon="10.859428364562433"><ele>1345.8</ele><time>2026-04-12T09:37:50Z</time></trkpt><trkpt lat="45.70535137344689" lon="10.859471289647065"><ele>1346.3999999999999</ele><time>2026-04-12T09:37:51Z</time></trkpt><trkpt lat="45.70545382429017" lon="10.859517805076571"><ele>1347.0</ele><time>2026-04-12T09:37:52Z</time></trkpt><trkpt lat="45.70555812469709" lon="10.859569031324078"><ele>1348.3999999999999</ele><time>2026-04-12T09:37:53Z</time></trkpt><trkpt lat="45.70565559235172" lon="10.859624349573764"><ele>1349.8</ele><time>2026-04-12T09:37:54Z</time></trkpt><trkpt lat="45.70575969685795" lon="10.859681131624397"><ele>1351.2</ele><time>2026-04-12T09:37:55Z</time></trkpt><trkpt lat="45.70586448513371" lon="10.859732684083147"><ele>1352.6</ele><time>2026-04-12T09:37:56Z</time></trkpt><trkpt lat="45.705971296750604" lon="10.859775109813901"><ele>1354.0</ele><time>2026-04-12T09:37:57Z</time></trkpt><trkpt lat="45.706077932477804" lon="10.859817470863137"><ele>1355.4</ele><time>2026-04-12T09:37:58Z</time></trkpt><trkpt lat="45.706181864365874" lon="10.859863746043336"><ele>1356.8000000000002</ele><time>2026-04-12T09:37:59Z</time></trkpt><trkpt lat="45.70628520743979" lon="10.859911019546761"><ele>1358.1999999999998</ele><time>2026-04-12T09:38:00Z</time></trkpt><trkpt lat="45.70638613527256" lon="10.859955736915923"><ele>1359.6</ele><time>2026-04-12T09:38:01Z</time></trkpt><trkpt lat="45.70648305843255" lon="10.859996534527047"><ele>1361.0</ele><time>2026-04-12T09:38:02Z</time></trkpt><trkpt lat="45.7065770383398" lon="10.860039766992795"><ele>1361.0</ele><time>2026-04-12T09:38:03Z</time></trkpt><trkpt lat="45.706668731358526" lon="10.860079449460828"><ele>1361.0</ele><time>2026-04-12T09:38:04Z</time></trkpt><trkpt lat="45.70675792945257" lon="10.860119073506743"><ele>1361.0</ele><time>2026-04-12T09:38:05Z</time></trkpt><trkpt lat="45.706843490808716" lon="10.860161166542541"><ele>1361.0</ele><time>2026-04-12T09:38:06Z</time></trkpt><trkpt lat="45.70692669302475" lon="10.860200892502828"><ele>1361.0</ele><time>2026-04-12T09:38:07Z</time></trkpt><trkpt lat="45.707008600049626" lon="10.860239008879155"><ele>1363.1666666666667</ele><time>2026-04-12T09:38:08Z</time></trkpt><trkpt lat="45.70709068335503" lon="10.860275021195589"><ele>1365.3333333333335</ele><time>2026-04-12T09:38:09Z</time></trkpt><trkpt lat="45.70717294941545" lon="10.860310825019475"><ele>1367.5</ele><time>2026-04-12T09:38:10Z</time></trkpt><trkpt lat="45.70725479243152" lon="10.860350938913744"><ele>1369.6666666666667</ele><time>2026-04-12T09:38:11Z</time></trkpt><trkpt lat="45.70733639879449" lon="10.860389056264177"><ele>1371.8333333333333</ele><time>2026-04-12T09:38:12Z</time></trkpt><trkpt lat="45.707419426601156" lon="10.860420146185833"><ele>1374.0</ele><time>2026-04-12T09:38:13Z</time></trkpt><trkpt lat="45.70750425885689" lon="10.860446587263493"><ele>1374.0</ele><time>2026-04-12T09:38:14Z</time></trkpt><trkpt lat="45.70758959585461" lon="10.860463739697952"><ele>1374.0</ele><time>2026-04-12T09:38:15Z</time></trkpt><trkpt lat="45.70767869825657" lon="10.860478224404389"><ele>1374.0</ele><time>2026-04-12T09:38:16Z</time></trkpt><trkpt lat="45.70776688232688" lon="10.860498050885642"><ele>1374.0</ele><time>2026-04-12T09:38:17Z</time></trkpt><trkpt lat="45.70785496812487" lon="10.86051627439577"><ele>1374.0</ele><time>2026-04-12T09:38:18Z</time></trkpt><trkpt lat="45.70794213375265" lon="10.860529241906992"><ele>1374.0</ele><time>2026-04-12T09:38:19Z</time></trkpt><trkpt lat="45.7080284869063" lon="10.86054080900648"><ele>1375.8333333333333</ele><time>2026-04-12T09:38:20Z</time></trkpt><trkpt lat="45.70811107031974" lon="10.860557788867398"><ele>1377.6666666666667</ele><time>2026-04-12T09:38:21Z</time></trkpt><trkpt lat="45.70819264142137" lon="10.860576126035927"><ele>1379.5</ele><time>2026-04-12T09:38:22Z</time></trkpt><trkpt lat="45.708274406754256" lon="10.860596087745101"><ele>1381.3333333333335</ele><time>2026-04-12T09:38:23Z</time></trkpt><trkpt lat="45.708357553462925" lon="10.860617789741543"><ele>1383.1666666666667</ele><time>2026-04-12T09:38:24Z</time></trkpt><trkpt lat="45.70843869993095" lon="10.860635696862497"><ele>1385.0</ele><time>2026-04-12T09:38:25Z</time></trkpt><trkpt lat="45.70851954200324" lon="10.860648757125318"><ele>1386.1666666666667</ele><time>2026-04-12T09:38:26Z</time></trkpt><trkpt lat="45.70860253485323" lon="10.860656703167006"><ele>1387.3333333333335</ele><time>2026-04-12T09:38:27Z</time></trkpt><trkpt lat="45.70868358498447" lon="10.860665089993818"><ele>1388.5</ele><time>2026-04-12T09:38:28Z</time></trkpt><trkpt lat="45.70875742112863" lon="10.860676231715658"><ele>1389.6666666666667</ele><time>2026-04-12T09:38:29Z</time></trkpt><trkpt lat="45.70882690835459" lon="10.860688102992762"><ele>1390.8333333333333</ele><time>2026-04-12T09:38:30Z</time></trkpt><trkpt lat="45.70889775098974" lon="10.860695954796993"><ele>1392.0</ele><time>2026-04-12T09:38:31Z</time></trkpt><trkpt lat="45.708974347901275" lon="10.860703660151119"><ele>1392.0</ele><time>2026-04-12T09:38:32Z</time></trkpt><trkpt lat="45.70905373665854" lon="10.860709756889557"><ele>1392.0</ele><time>2026-04-12T09:38:33Z</time></trkpt><trkpt lat="45.70913533842415" lon="10.86071570623886"><ele>1392.0</ele><time>2026-04-12T09:38:34Z</time></trkpt><trkpt lat="45.70921468038788" lon="10.860716724635415"><ele>1392.0</ele><time>2026-04-12T09:38:35Z</time></trkpt><trkpt lat="45.70929903050114" lon="10.860715943726062"><ele>1392.0</ele><time>2026-04-12T09:38:36Z</time></trkpt><trkpt lat="45.70938051293704" lon="10.86072062241048"><ele>1392.0</ele><time>2026-04-12T09:38:37Z</time></trkpt><trkpt lat="45.70946177208346" lon="10.860731216710624"><ele>1394.0</ele><time>2026-04-12T09:38:38Z</time></trkpt><trkpt lat="45.70954342924285" lon="10.860736017568724"><ele>1396.0</ele><time>2026-04-12T09:38:39Z</time></trkpt><trkpt lat="45.70962672612346" lon="10.860738867586072"><ele>1398.0</ele><time>2026-04-12T09:38:40Z</time></trkpt><trkpt lat="45.70970869065293" lon="10.860744493402825"><ele>1400.0</ele><time>2026-04-12T09:38:41Z</time></trkpt><trkpt lat="45.70978849684869" lon="10.860745365580971"><ele>1402.0</ele><time>2026-04-12T09:38:42Z</time></trkpt><trkpt lat="45.70986885743168" lon="10.860745302142892"><ele>1404.0</ele><time>2026-04-12T09:38:43Z</time></trkpt><trkpt lat="45.70995144435163" lon="10.860745413952847"><ele>1404.0</ele><time>2026-04-12T09:38:44Z</time></trkpt><trkpt lat="45.71003143247147" lon="10.860745240716238"><ele>1404.0</ele><time>2026-04-12T09:38:45Z</time></trkpt><trkpt lat="45.710114277405445" lon="10.860742215987283"><ele>1404.0</ele><time>2026-04-12T09:38:46Z</time></trkpt><trkpt lat="45.71020119837038" lon="10.860735512470432"><ele>1404.0</ele><time>2026-04-12T09:38:47Z</time></trkpt><trkpt lat="45.71029751067112" lon="10.860738027936234"><ele>1404.0</ele><time>2026-04-12T09:38:48Z</time></trkpt><trkpt lat="45.71039430894475" lon="10.86074504428825"><ele>1404.0</ele><time>2026-04-12T09:38:49Z</time></trkpt><trkpt lat="45.71048988716217" lon="10.860752902619469"><ele>1406.0</ele><time>2026-04-12T09:38:50Z</time></trkpt><trkpt lat="45.710585360008636" lon="10.860760549624583"><ele>1408.0</ele><time>2026-04-12T09:38:51Z</time></trkpt><trkpt lat="45.71068156279992" lon="10.860768063452173"><ele>1410.0</ele><time>2026-04-12T09:38:52Z</time></trkpt><trkpt lat="45.71077940311107" lon="10.860776484337856"><ele>1412.0</ele><time>2026-04-12T09:38:53Z</time></trkpt><trkpt lat="45.71087895299038" lon="10.860782226253445"><ele>1414.0</ele><time>2026-04-12T09:38:54Z</time></trkpt><trkpt lat="45.710981956325206" lon="10.860784576579679"><ele>1416.0</ele><time>2026-04-12T09:38:55Z</time></trkpt><trkpt lat="45.71108655583579" lon="10.860787949252353"><ele>1418.0</ele><time>2026-04-12T09:38:56Z</time></trkpt><trkpt lat="45.71119116961788" lon="10.860794396400685"><ele>1420.0</ele><time>2026-04-12T09:38:57Z</time></trkpt><trkpt lat="45.71129961904988" lon="10.860800876311496"><ele>1422.0</ele><time>2026-04-12T09:38:58Z</time></trkpt><trkpt lat="45.71140562456977" lon="10.860802366779607"><ele>1424.0</ele><time>2026-04-12T09:38:59Z</time></trkpt><trkpt lat="45.71151285606919" lon="10.86080583816992"><ele>1424.0</ele><time>2026-04-12T09:39:00Z</time></trkpt><trkpt lat="45.711619781333624" lon="10.860811736147664"><ele>1424.0</ele><time>2026-04-12T09:39:01Z</time></trkpt><trkpt lat="45.71172617236419" lon="10.860821789549618"><ele>1424.0</ele><time>2026-04-12T09:39:02Z</time></trkpt><trkpt lat="45.71183182048843" lon="10.860843032655875"><ele>1424.0</ele><time>2026-04-12T09:39:03Z</time></trkpt><trkpt lat="45.71193702902306" lon="10.860883351250791"><ele>1424.0</ele><time>2026-04-12T09:39:04Z</time></trkpt><trkpt lat="45.712035897313335" lon="10.860933469455832"><ele>1424.5</ele><time>2026-04-12T09:39:05Z</time></trkpt><trkpt lat="45.71212651797318" lon="10.860986915858966"><ele>1425.0</ele><time>2026-04-12T09:39:06Z</time></trkpt><trkpt lat="45.712210345117015" lon="10.861042345247498"><ele>1425.5</ele><time>2026-04-12T09:39:07Z</time></trkpt><trkpt lat="45.71229300329588" lon="10.8610867171532"><ele>1426.0</ele><time>2026-04-12T09:39:08Z</time></trkpt><trkpt lat="45.712374460581756" lon="10.861126374758264"><ele>1426.5</ele><time>2026-04-12T09:39:09Z</time></trkpt><trkpt lat="45.71245489764346" lon="10.86116359507186"><ele>1427.0</ele><time>2026-04-12T09:39:10Z</time></trkpt><trkpt lat="45.712529706223286" lon="10.861182361350597"><ele>1427.0</ele><time>2026-04-12T09:39:11Z</time></trkpt><trkpt lat="45.71259755642382" lon="10.861192334160144"><ele>1427.0</ele><time>2026-04-12T09:39:12Z</time></trkpt><trkpt lat="45.712696449973635" lon="10.861198343739058"><ele>1427.0</ele><time>2026-04-12T09:39:14Z</time></trkpt><trkpt lat="45.712768684634085" lon="10.861218866377998"><ele>1427.0</ele><time>2026-04-12T09:39:18Z</time></trkpt><trkpt lat="45.71278023192474" lon="10.861109249025834"><ele>1427.0</ele><time>2026-04-12T09:45:33Z</time></trkpt><trkpt lat="45.71276009015622" lon="10.86098752302129"><ele>1427.0</ele><time>2026-04-12T09:45:36Z</time></trkpt><trkpt lat="45.71271842212844" lon="10.860888827323222"><ele>1428.0</ele><time>2026-04-12T09:45:39Z</time></trkpt><trkpt lat="45.71271233513309" lon="10.860747512880565"><ele>1429.0</ele><time>2026-04-12T09:45:41Z</time></trkpt><trkpt lat="45.71272556542379" lon="10.860648441191007"><ele>1430.0</ele><time>2026-04-12T09:45:42Z</time></trkpt><trkpt lat="45.71273703411706" lon="10.86054629129904"><ele>1431.0</ele><time>2026-04-12T09:45:43Z</time></trkpt><trkpt lat="45.712695966124336" lon="10.860354960420912"><ele>1432.0</ele><time>2026-04-12T09:45:45Z</time></trkpt><trkpt lat="45.71265764616788" lon="10.860253630599923"><ele>1434.3999999999999</ele><time>2026-04-12T09:45:46Z</time></trkpt><trkpt lat="45.71261673182226" lon="10.860094706744686"><ele>1436.8</ele><time>2026-04-12T09:45:48Z</time></trkpt><trkpt lat="45.71262576854161" lon="10.8599327033959"><ele>1439.2</ele><time>2026-04-12T09:45:50Z</time></trkpt><trkpt lat="45.71267358055563" lon="10.859788012047781"><ele>1441.6</ele><time>2026-04-12T09:45:52Z</time></trkpt><trkpt lat="45.712696698217094" lon="10.859677759159302"><ele>1444.0</ele><time>2026-04-12T09:45:53Z</time></trkpt><trkpt lat="45.71271920046095" lon="10.859561396854353"><ele>1444.0</ele><time>2026-04-12T09:45:54Z</time></trkpt><trkpt lat="45.71273706866179" lon="10.859433807895137"><ele>1444.0</ele><time>2026-04-12T09:45:55Z</time></trkpt><trkpt lat="45.71276099324167" lon="10.859315338014465"><ele>1444.0</ele><time>2026-04-12T09:45:56Z</time></trkpt><trkpt lat="45.71278705188157" lon="10.85917791910047"><ele>1444.0</ele><time>2026-04-12T09:45:57Z</time></trkpt><trkpt lat="45.7128131353219" lon="10.859067562813612"><ele>1444.0</ele><time>2026-04-12T09:45:58Z</time></trkpt><trkpt lat="45.712839682016906" lon="10.85893968385431"><ele>1448.6</ele><time>2026-04-12T09:45:59Z</time></trkpt><trkpt lat="45.71286772519217" lon="10.858845970416791"><ele>1453.2</ele><time>2026-04-12T09:46:00Z</time></trkpt><trkpt lat="45.712910518772176" lon="10.85868893946211"><ele>1457.8</ele><time>2026-04-12T09:46:02Z</time></trkpt><trkpt lat="45.71295177750446" lon="10.858515665779926"><ele>1462.3999999999999</ele><time>2026-04-12T09:46:04Z</time></trkpt><trkpt lat="45.7129780821481" lon="10.858365428411913"><ele>1467.0</ele><time>2026-04-12T09:46:06Z</time></trkpt><trkpt lat="45.712998509138714" lon="10.85820470530849"><ele>1471.3999999999999</ele><time>2026-04-12T09:46:08Z</time></trkpt><trkpt lat="45.71300087461993" lon="10.85808280236134"><ele>1475.8</ele><time>2026-04-12T09:46:10Z</time></trkpt><trkpt lat="45.713006024085104" lon="10.857924081573632"><ele>1480.2</ele><time>2026-04-12T09:46:12Z</time></trkpt><trkpt lat="45.71299879880455" lon="10.857734061932259"><ele>1484.6</ele><time>2026-04-12T09:46:14Z</time></trkpt><trkpt lat="45.71298944553951" lon="10.857621384943656"><ele>1489.0</ele><time>2026-04-12T09:46:15Z</time></trkpt><trkpt lat="45.7129815140375" lon="10.857520119277627"><ele>1492.6666666666665</ele><time>2026-04-12T09:46:16Z</time></trkpt><trkpt lat="45.712975736044555" lon="10.857429549746914"><ele>1496.3333333333333</ele><time>2026-04-12T09:46:17Z</time></trkpt><trkpt lat="45.71297223059773" lon="10.857332538219513"><ele>1500.0</ele><time>2026-04-12T09:46:18Z</time></trkpt><trkpt lat="45.71298090529922" lon="10.857145327683224"><ele>1503.6666666666667</ele><time>2026-04-12T09:46:20Z</time></trkpt><trkpt lat="45.71298392832049" lon="10.857024540319177"><ele>1507.3333333333335</ele><time>2026-04-12T09:46:21Z</time></trkpt><trkpt lat="45.712986746419496" lon="10.856932113399173"><ele>1511.0</ele><time>2026-04-12T09:46:22Z</time></trkpt><trkpt lat="45.7129923645911" lon="10.856755806631424"><ele>1514.6666666666667</ele><time>2026-04-12T09:46:24Z</time></trkpt><trkpt lat="45.71301284955393" lon="10.856600532861746"><ele>1518.3333333333335</ele><time>2026-04-12T09:46:26Z</time></trkpt><trkpt lat="45.71302146741955" lon="10.856498920026013"><ele>1522.0</ele><time>2026-04-12T09:46:27Z</time></trkpt><trkpt lat="45.713026939816594" lon="10.856403765996037"><ele>1525.6666666666667</ele><time>2026-04-12T09:46:28Z</time></trkpt><trkpt lat="45.71302661300205" lon="10.856311619279355"><ele>1529.3333333333333</ele><time>2026-04-12T09:46:30Z</time></trkpt><trkpt lat="45.71305030732185" lon="10.856202125765327"><ele>1533.0</ele><time>2026-04-12T09:46:32Z</time></trkpt><trkpt lat="45.71311443027001" lon="10.856167782002757"><ele>1533.0</ele><time>2026-04-12T09:46:34Z</time></trkpt><trkpt lat="45.71315956490437" lon="10.856253600450827"><ele>1533.0</ele><time>2026-04-12T09:46:37Z</time></trkpt><trkpt lat="45.71317423860205" lon="10.856344858126189"><ele>1533.0</ele><time>2026-04-12T09:46:55Z</time></trkpt><trkpt lat="45.71315817741692" lon="10.856449437482368"><ele>1533.0</ele><time>2026-04-12T09:47:01Z</time></trkpt><trkpt lat="45.713141179007266" lon="10.856542993757863"><ele>1533.0</ele><time>2026-04-12T09:47:05Z</time></trkpt><trkpt lat="45.713121640234306" lon="10.856638277350925"><ele>1533.0</ele><time>2026-04-12T09:47:09Z</time></trkpt><trkpt lat="45.71310953958719" lon="10.856738149508306"><ele>1533.0</ele><time>2026-04-12T09:47:13Z</time></trkpt><trkpt lat="45.71308120637841" lon="10.856819057169512"><ele>1529.857142857143</ele><time>2026-04-12T09:47:16Z</time></trkpt><trkpt lat="45.71306240687106" lon="10.856924736323855"><ele>1526.7142857142858</ele><time>2026-04-12T09:47:20Z</time></trkpt><trkpt lat="45.71304054295424" lon="10.857037527683397"><ele>1523.5714285714284</ele><time>2026-04-12T09:47:24Z</time></trkpt><trkpt lat="45.71302262089739" lon="10.857129369763733"><ele>1520.4285714285716</ele><time>2026-04-12T09:47:27Z</time></trkpt><trkpt lat="45.71300487319549" lon="10.857236479667238"><ele>1517.2857142857142</ele><time>2026-04-12T09:47:30Z</time></trkpt><trkpt lat="45.712992055857704" lon="10.857335348503032"><ele>1514.142857142857</ele><time>2026-04-12T09:47:33Z</time></trkpt><trkpt lat="45.712976655780814" lon="10.857443128006938"><ele>1511.0</ele><time>2026-04-12T09:47:36Z</time></trkpt><trkpt lat="45.71295883074504" lon="10.85756324990679"><ele>1507.857142857143</ele><time>2026-04-12T09:47:39Z</time></trkpt><trkpt lat="45.712948351688915" lon="10.857677204332843"><ele>1504.7142857142858</ele><time>2026-04-12T09:47:42Z</time></trkpt><trkpt lat="45.71292575213598" lon="10.857777539467788"><ele>1501.5714285714284</ele><time>2026-04-12T09:47:45Z</time></trkpt><trkpt lat="45.7129154595398" lon="10.857877481212032"><ele>1498.4285714285716</ele><time>2026-04-12T09:47:48Z</time></trkpt><trkpt lat="45.71288278761342" lon="10.857984376995368"><ele>1495.2857142857144</ele><time>2026-04-12T09:47:51Z</time></trkpt><trkpt lat="45.7128814095016" lon="10.858074780380099"><ele>1492.142857142857</ele><time>2026-04-12T09:47:55Z</time></trkpt><trkpt lat="45.71291918337908" lon="10.85817143226347"><ele>1489.0</ele><time>2026-04-12T09:47:58Z</time></trkpt><trkpt lat="45.71294208633723" lon="10.858272836927018"><ele>1489.0</ele><time>2026-04-12T09:48:02Z</time></trkpt><trkpt lat="45.71292803112529" lon="10.858377120621329"><ele>1489.0</ele><time>2026-04-12T09:48:06Z</time></trkpt><trkpt lat="45.71287960603541" lon="10.858457387165497"><ele>1489.0</ele><time>2026-04-12T09:48:09Z</time></trkpt><trkpt lat="45.71285379722249" lon="10.858548547223313"><ele>1489.0</ele><time>2026-04-12T09:48:12Z</time></trkpt><trkpt lat="45.71281907470496" lon="10.858634530285958"><ele>1489.0</ele><time>2026-04-12T09:48:15Z</time></trkpt><trkpt lat="45.712777749975345" lon="10.858711730098948"><ele>1489.0</ele><time>2026-04-12T09:48:18Z</time></trkpt><trkpt lat="45.71273893068351" lon="10.858795844165613"><ele>1489.0</ele><time>2026-04-12T09:48:21Z</time></trkpt><trkpt lat="45.71271870852842" lon="10.858892041811975"><ele>1484.3333333333333</ele><time>2026-04-12T09:48:24Z</time></trkpt><trkpt lat="45.712699493543894" lon="10.858994367051872"><ele>1479.6666666666665</ele><time>2026-04-12T09:48:28Z</time></trkpt><trkpt lat="45.71268741398402" lon="10.859087602178597"><ele>1475.0</ele><time>2026-04-12T09:48:31Z</time></trkpt><trkpt lat="45.71266106232703" lon="10.85920919729416"><ele>1470.3333333333333</ele><time>2026-04-12T09:48:35Z</time></trkpt><trkpt lat="45.712634353929815" lon="10.859321352797197"><ele>1465.6666666666667</ele><time>2026-04-12T09:48:39Z</time></trkpt><trkpt lat="45.7126322861676" lon="10.859412269812712"><ele>1461.0</ele><time>2026-04-12T09:48:42Z</time></trkpt><trkpt lat="45.71262427908119" lon="10.85953055106485"><ele>1458.5714285714284</ele><time>2026-04-12T09:48:47Z</time></trkpt><trkpt lat="45.71262507179164" lon="10.859623999691761"><ele>1456.1428571428573</ele><time>2026-04-12T09:48:51Z</time></trkpt><trkpt lat="45.71262035637644" lon="10.859719163883378"><ele>1453.7142857142858</ele><time>2026-04-12T09:48:54Z</time></trkpt><trkpt lat="45.71259721535591" lon="10.859814811443362"><ele>1451.2857142857142</ele><time>2026-04-12T09:48:57Z</time></trkpt><trkpt lat="45.71258278045265" lon="10.859904232624324"><ele>1448.8571428571427</ele><time>2026-04-12T09:49:00Z</time></trkpt><trkpt lat="45.71258649910116" lon="10.860021458491653"><ele>1446.4285714285716</ele><time>2026-04-12T09:49:04Z</time></trkpt><trkpt lat="45.71262721174205" lon="10.86011446756757"><ele>1444.0</ele><time>2026-04-12T09:49:07Z</time></trkpt><trkpt lat="45.71264531109337" lon="10.86022805267339"><ele>1442.0</ele><time>2026-04-12T09:49:10Z</time></trkpt><trkpt lat="45.712679259456635" lon="10.860329169358689"><ele>1440.0</ele><time>2026-04-12T09:49:14Z</time></trkpt><trkpt lat="45.712714059113274" lon="10.860404830309701"><ele>1438.0</ele><time>2026-04-12T09:49:17Z</time></trkpt><trkpt lat="45.71273563617455" lon="10.860490101675328"><ele>1436.0</ele><time>2026-04-12T09:49:19Z</time></trkpt><trkpt lat="45.712735724221865" lon="10.860647627676101"><ele>1434.0</ele><time>2026-04-12T09:49:22Z</time></trkpt><trkpt lat="45.71272169612031" lon="10.86074370787552"><ele>1432.0</ele><time>2026-04-12T09:49:23Z</time></trkpt><trkpt lat="45.71272243979352" lon="10.860853569278728"><ele>1432.0</ele><time>2026-04-12T09:49:25Z</time></trkpt><trkpt lat="45.7127489904832" lon="10.860958774629067"><ele>1432.0</ele><time>2026-04-12T09:49:27Z</time></trkpt><trkpt lat="45.712788041984425" lon="10.861062805731079"><ele>1432.0</ele><time>2026-04-12T09:49:29Z</time></trkpt><trkpt lat="45.71282664483822" lon="10.861144652792124"><ele>1432.0</ele><time>2026-04-12T09:49:32Z</time></trkpt><trkpt lat="45.71275594868865" lon="10.861119284541942"><ele>1432.0</ele><time>2026-04-12T09:50:08.999Z</time></trkpt><trkpt lat="45.71274572350103" lon="10.861014351074099"><ele>1432.0</ele><time>2026-04-12T09:50:10.999Z</time></trkpt><trkpt lat="45.7127329485746" lon="10.860845486257784"><ele>1432.0</ele><time>2026-04-12T09:50:12.999Z</time></trkpt><trkpt lat="45.7127208804597" lon="10.860736374406875"><ele>1432.0</ele><time>2026-04-12T09:50:13.999Z</time></trkpt><trkpt lat="45.71271414764096" lon="10.86064658913715"><ele>1432.0</ele><time>2026-04-12T09:50:14.999Z</time></trkpt><trkpt lat="45.71273618828388" lon="10.86047852395715"><ele>1432.0</ele><time>2026-04-12T09:50:16.999Z</time></trkpt><trkpt lat="45.712676830740556" lon="10.860285108138658"><ele>1432.0</ele><time>2026-04-12T09:50:18.999Z</time></trkpt><trkpt lat="45.71262668850943" lon="10.860188128734107"><ele>1434.3999999999999</ele><time>2026-04-12T09:50:19.999Z</time></trkpt><trkpt lat="45.71259568398676" lon="10.860096396189045"><ele>1436.8</ele><time>2026-04-12T09:50:20.999Z</time></trkpt><trkpt lat="45.71259905814107" lon="10.859954700709226"><ele>1439.2</ele><time>2026-04-12T09:50:22.999Z</time></trkpt><trkpt lat="45.712647288663014" lon="10.859820974453083"><ele>1441.6</ele><time>2026-04-12T09:50:24.999Z</time></trkpt><trkpt lat="45.71268536878097" lon="10.859651420705998"><ele>1444.0</ele><time>2026-04-12T09:50:26.999Z</time></trkpt><trkpt lat="45.71269691234525" lon="10.85954314517296"><ele>1444.0</ele><time>2026-04-12T09:50:27.999Z</time></trkpt><trkpt lat="45.71271155516535" lon="10.859425346646628"><ele>1444.0</ele><time>2026-04-12T09:50:28.999Z</time></trkpt><trkpt lat="45.71273238897628" lon="10.859299623924048"><ele>1444.0</ele><time>2026-04-12T09:50:29.999Z</time></trkpt><trkpt lat="45.712748796326586" lon="10.859177432586934"><ele>1444.0</ele><time>2026-04-12T09:50:30.999Z</time></trkpt><trkpt lat="45.71276493535611" lon="10.859051422075956"><ele>1444.0</ele><time>2026-04-12T09:50:31.999Z</time></trkpt><trkpt lat="45.7127796486989" lon="10.85894211528716"><ele>1444.0</ele><time>2026-04-12T09:50:32.999Z</time></trkpt><trkpt lat="45.71279394246606" lon="10.858822588749979"><ele>1448.6</ele><time>2026-04-12T09:50:33.999Z</time></trkpt><trkpt lat="45.71280445876632" lon="10.858684040493634"><ele>1453.2</ele><time>2026-04-12T09:50:34.999Z</time></trkpt><trkpt lat="45.71281626177516" lon="10.858547522799718"><ele>1457.8</ele><time>2026-04-12T09:50:35.999Z</time></trkpt><trkpt lat="45.712827982298144" lon="10.85841137869861"><ele>1462.3999999999999</ele><time>2026-04-12T09:50:36.999Z</time></trkpt><trkpt lat="45.71283656093187" lon="10.858282606817166"><ele>1467.0</ele><time>2026-04-12T09:50:37.999Z</time></trkpt><trkpt lat="45.71283541556723" lon="10.858161411870332"><ele>1470.6666666666667</ele><time>2026-04-12T09:50:38.999Z</time></trkpt><trkpt lat="45.71283403455875" lon="10.858029409681578"><ele>1474.3333333333333</ele><time>2026-04-12T09:50:39.999Z</time></trkpt><trkpt lat="45.71283278369456" lon="10.857921378295712"><ele>1478.0</ele><time>2026-04-12T09:50:40.999Z</time></trkpt><trkpt lat="45.712832962925496" lon="10.857798593599815"><ele>1481.6666666666665</ele><time>2026-04-12T09:50:41.999Z</time></trkpt><trkpt lat="45.71283970677242" lon="10.857700859158424"><ele>1485.3333333333333</ele><time>2026-04-12T09:50:42.999Z</time></trkpt><trkpt lat="45.712852999430375" lon="10.857599208257552"><ele>1489.0</ele><time>2026-04-12T09:50:43.999Z</time></trkpt><trkpt lat="45.712871006344145" lon="10.85748658343716"><ele>1492.6666666666665</ele><time>2026-04-12T09:50:44.999Z</time></trkpt><trkpt lat="45.7129103686933" lon="10.85731681095964"><ele>1496.3333333333333</ele><time>2026-04-12T09:50:46.999Z</time></trkpt><trkpt lat="45.712934134027" lon="10.857223237695118"><ele>1500.0</ele><time>2026-04-12T09:50:47.999Z</time></trkpt><trkpt lat="45.71296193323041" lon="10.857125392180674"><ele>1503.6666666666667</ele><time>2026-04-12T09:50:48.999Z</time></trkpt><trkpt lat="45.71298294343259" lon="10.857029400776472"><ele>1507.3333333333335</ele><time>2026-04-12T09:50:49.999Z</time></trkpt><trkpt lat="45.71300345036065" lon="10.856914630442647"><ele>1511.0</ele><time>2026-04-12T09:50:50.999Z</time></trkpt><trkpt lat="45.71301161293155" lon="10.856817830719748"><ele>1514.6666666666667</ele><time>2026-04-12T09:50:51.999Z</time></trkpt><trkpt lat="45.7130119973051" lon="10.85670978808051"><ele>1518.3333333333335</ele><time>2026-04-12T09:50:52.999Z</time></trkpt><trkpt lat="45.71300934994188" lon="10.856588748233381"><ele>1522.0</ele><time>2026-04-12T09:50:53.999Z</time></trkpt><trkpt lat="45.71300169393924" lon="10.856475605962807"><ele>1525.6666666666667</ele><time>2026-04-12T09:50:54.999Z</time></trkpt><trkpt lat="45.71300372537542" lon="10.85635817459015"><ele>1529.3333333333333</ele><time>2026-04-12T09:50:57Z</time></trkpt><trkpt lat="45.713003421058005" lon="10.856246193403752"><ele>1533.0</ele><time>2026-04-12T09:50:59Z</time></trkpt><trkpt lat="45.713071114114356" lon="10.856248795396965"><ele>1533.0</ele><time>2026-04-12T09:51:04Z</time></trkpt><trkpt lat="45.71306763182919" lon="10.856367866079141"><ele>1533.0</ele><time>2026-04-12T09:51:09Z</time></trkpt><trkpt lat="45.71305917006707" lon="10.85647186476046"><ele>1533.0</ele><time>2026-04-12T09:51:12Z</time></trkpt><trkpt lat="45.71303902293491" lon="10.85659004997026"><ele>1533.0</ele><time>2026-04-12T09:51:15Z</time></trkpt><trkpt lat="45.71302397984292" lon="10.856680519354516"><ele>1533.0</ele><time>2026-04-12T09:51:17Z</time></trkpt><trkpt lat="45.71300858489378" lon="10.856805900170933"><ele>1533.0</ele><time>2026-04-12T09:51:20Z</time></trkpt><trkpt lat="45.71299188489321" lon="10.856933257629377"><ele>1529.3333333333333</ele><time>2026-04-12T09:51:23Z</time></trkpt><trkpt lat="45.71298578517375" lon="10.857038960712906"><ele>1525.6666666666667</ele><time>2026-04-12T09:51:25Z</time></trkpt><trkpt lat="45.71297600904066" lon="10.857145002741449"><ele>1522.0</ele><time>2026-04-12T09:51:27Z</time></trkpt><trkpt lat="45.712978800813154" lon="10.857272286356277"><ele>1518.3333333333335</ele><time>2026-04-12T09:51:30Z</time></trkpt><trkpt lat="45.712987949480386" lon="10.857373877798173"><ele>1514.6666666666667</ele><time>2026-04-12T09:51:32Z</time></trkpt><trkpt lat="45.712989047375984" lon="10.857469509284973"><ele>1511.0</ele><time>2026-04-12T09:51:34Z</time></trkpt><trkpt lat="45.71299153854541" lon="10.857577327943392"><ele>1507.857142857143</ele><time>2026-04-12T09:51:36Z</time></trkpt><trkpt lat="45.7129929843533" lon="10.85767687221995"><ele>1504.7142857142858</ele><time>2026-04-12T09:51:38Z</time></trkpt><trkpt lat="45.71299620344722" lon="10.857782718444067"><ele>1501.5714285714284</ele><time>2026-04-12T09:51:40Z</time></trkpt><trkpt lat="45.71299732573388" lon="10.857887547209158"><ele>1498.4285714285716</ele><time>2026-04-12T09:51:42Z</time></trkpt><trkpt lat="45.712980284380265" lon="10.858018858952038"><ele>1495.2857142857144</ele><time>2026-04-12T09:51:45Z</time></trkpt><trkpt lat="45.71296277097629" lon="10.858106518066512"><ele>1492.142857142857</ele><time>2026-04-12T09:51:47Z</time></trkpt><trkpt lat="45.712940365893196" lon="10.858194308893212"><ele>1489.0</ele><time>2026-04-12T09:51:49Z</time></trkpt><trkpt lat="45.71291813372324" lon="10.858323490784693"><ele>1489.0</ele><time>2026-04-12T09:51:52Z</time></trkpt><trkpt lat="45.71288283730085" lon="10.858450033207301"><ele>1489.0</ele><time>2026-04-12T09:51:55Z</time></trkpt><trkpt lat="45.71284319293804" lon="10.858556034774681"><ele>1489.0</ele><time>2026-04-12T09:51:57Z</time></trkpt><trkpt lat="45.712811952451155" lon="10.858665170873188"><ele>1489.0</ele><time>2026-04-12T09:51:59Z</time></trkpt><trkpt lat="45.712787019557766" lon="10.858793592095044"><ele>1489.0</ele><time>2026-04-12T09:52:01Z</time></trkpt><trkpt lat="45.712777433899085" lon="10.85893061557533"><ele>1485.3333333333333</ele><time>2026-04-12T09:52:03Z</time></trkpt><trkpt lat="45.71276465783434" lon="10.859056402161816"><ele>1481.6666666666665</ele><time>2026-04-12T09:52:05Z</time></trkpt><trkpt lat="45.71275144533965" lon="10.859186745427689"><ele>1478.0</ele><time>2026-04-12T09:52:07Z</time></trkpt><trkpt lat="45.712737998580025" lon="10.859319136562387"><ele>1474.3333333333333</ele><time>2026-04-12T09:52:09Z</time></trkpt><trkpt lat="45.71273149215757" lon="10.859442330979034"><ele>1470.6666666666667</ele><time>2026-04-12T09:52:11Z</time></trkpt><trkpt lat="45.71271886867475" lon="10.859554046346407"><ele>1467.0</ele><time>2026-04-12T09:52:13Z</time></trkpt><trkpt lat="45.71270077036263" lon="10.859680679418775"><ele>1463.1666666666667</ele><time>2026-04-12T09:52:15Z</time></trkpt><trkpt lat="45.71267553976872" lon="10.859814174792366"><ele>1459.3333333333333</ele><time>2026-04-12T09:52:17Z</time></trkpt><trkpt lat="45.712643403121696" lon="10.859948678147708"><ele>1455.5</ele><time>2026-04-12T09:52:19Z</time></trkpt><trkpt lat="45.71262029905971" lon="10.860043447186236"><ele>1451.6666666666665</ele><time>2026-04-12T09:52:21Z</time></trkpt><trkpt lat="45.712627687575875" lon="10.860135549144394"><ele>1447.8333333333333</ele><time>2026-04-12T09:52:23Z</time></trkpt><trkpt lat="45.71264947964108" lon="10.86024820995944"><ele>1444.0</ele><time>2026-04-12T09:52:25Z</time></trkpt><trkpt lat="45.71268601401989" lon="10.86035296329412"><ele>1441.6</ele><time>2026-04-12T09:52:27Z</time></trkpt><trkpt lat="45.712733815853" lon="10.860490651710766"><ele>1439.2</ele><time>2026-04-12T09:52:29Z</time></trkpt><trkpt lat="45.71273092588238" lon="10.860639806689464"><ele>1436.8</ele><time>2026-04-12T09:52:31Z</time></trkpt><trkpt lat="45.71270928085321" lon="10.860797913355984"><ele>1434.3999999999999</ele><time>2026-04-12T09:52:33Z</time></trkpt><trkpt lat="45.71273436159618" lon="10.860925849808098"><ele>1432.0</ele><time>2026-04-12T09:52:35Z</time></trkpt><trkpt lat="45.7127691433004" lon="10.861033296472103"><ele>1431.3333333333333</ele><time>2026-04-12T09:52:37Z</time></trkpt><trkpt lat="45.71281576925254" lon="10.86111496889277"><ele>1430.6666666666665</ele><time>2026-04-12T09:52:39Z</time></trkpt><trkpt lat="45.71282872902416" lon="10.861229650229008"><ele>1430.0</ele><time>2026-04-12T09:52:42Z</time></trkpt><trkpt lat="45.712744066826374" lon="10.861219481362923"><ele>1429.3333333333333</ele><time>2026-04-12T10:06:21Z</time></trkpt><trkpt lat="45.71266006769175" lon="10.861198412858972"><ele>1428.6666666666667</ele><time>2026-04-12T10:06:24Z</time></trkpt><trkpt lat="45.71257623492295" lon="10.861189458306285"><ele>1428.0</ele><time>2026-04-12T10:06:27Z</time></trkpt><trkpt lat="45.71249222349944" lon="10.861178191379755"><ele>1427.8333333333333</ele><time>2026-04-12T10:06:29Z</time></trkpt><trkpt lat="45.71239239582442" lon="10.861139117080107"><ele>1427.6666666666667</ele><time>2026-04-12T10:06:31Z</time></trkpt><trkpt lat="45.712332686497945" lon="10.861110085263418"><ele>1427.5</ele><time>2026-04-12T10:06:32Z</time></trkpt><trkpt lat="45.71226693871209" lon="10.861077431505928"><ele>1427.3333333333335</ele><time>2026-04-12T10:06:33Z</time></trkpt><trkpt lat="45.71219309183908" lon="10.861035949669011"><ele>1427.1666666666667</ele><time>2026-04-12T10:06:34Z</time></trkpt><trkpt lat="45.71212818601821" lon="10.860952494426577"><ele>1427.0</ele><time>2026-04-12T10:06:35Z</time></trkpt><trkpt lat="45.712047419296155" lon="10.860907997526233"><ele>1426.3999999999999</ele><time>2026-04-12T10:06:36Z</time></trkpt><trkpt lat="45.71196025679678" lon="10.860863126012696"><ele>1425.8</ele><time>2026-04-12T10:06:37Z</time></trkpt><trkpt lat="45.711869691556124" lon="10.860822919499629"><ele>1425.2</ele><time>2026-04-12T10:06:38Z</time></trkpt><trkpt lat="45.71177265702757" lon="10.860796530196254"><ele>1424.6</ele><time>2026-04-12T10:06:39Z</time></trkpt><trkpt lat="45.711670796840814" lon="10.860783570505498"><ele>1424.0</ele><time>2026-04-12T10:06:40Z</time></trkpt><trkpt lat="45.7115694982127" lon="10.860775316329196"><ele>1424.0</ele><time>2026-04-12T10:06:41Z</time></trkpt><trkpt lat="45.71146420445786" lon="10.860769724859086"><ele>1424.0</ele><time>2026-04-12T10:06:42Z</time></trkpt><trkpt lat="45.71135938153506" lon="10.860766253369988"><ele>1424.0</ele><time>2026-04-12T10:06:43Z</time></trkpt><trkpt lat="45.71125456075175" lon="10.860762781952678"><ele>1424.0</ele><time>2026-04-12T10:06:44Z</time></trkpt><trkpt lat="45.71115106597255" lon="10.86075935444705"><ele>1424.0</ele><time>2026-04-12T10:06:45Z</time></trkpt><trkpt lat="45.71104783129482" lon="10.860755935556192"><ele>1422.0</ele><time>2026-04-12T10:06:46Z</time></trkpt><trkpt lat="45.71094824788273" lon="10.86075199857947"><ele>1420.0</ele><time>2026-04-12T10:06:47Z</time></trkpt><trkpt lat="45.71085104324346" lon="10.860746760006998"><ele>1418.0</ele><time>2026-04-12T10:06:48Z</time></trkpt><trkpt lat="45.71075207391226" lon="10.860741121939837"><ele>1416.0</ele><time>2026-04-12T10:06:49Z</time></trkpt><trkpt lat="45.71065169022218" lon="10.860758016618664"><ele>1414.0</ele><time>2026-04-12T10:06:50Z</time></trkpt><trkpt lat="45.71054882039822" lon="10.860752199786013"><ele>1414.0</ele><time>2026-04-12T10:06:51Z</time></trkpt><trkpt lat="45.71044392552917" lon="10.86073964452207"><ele>1414.0</ele><time>2026-04-12T10:06:52Z</time></trkpt><trkpt lat="45.71033429891705" lon="10.860736632629912"><ele>1414.0</ele><time>2026-04-12T10:06:53Z</time></trkpt><trkpt lat="45.71022163573745" lon="10.860733082258793"><ele>1414.0</ele><time>2026-04-12T10:06:54Z</time></trkpt><trkpt lat="45.71010653093118" lon="10.860726289812918"><ele>1414.0</ele><time>2026-04-12T10:06:55Z</time></trkpt><trkpt lat="45.70998982552818" lon="10.860722728265978"><ele>1411.5</ele><time>2026-04-12T10:06:56Z</time></trkpt><trkpt lat="45.70987437497383" lon="10.860719510395683"><ele>1409.0</ele><time>2026-04-12T10:06:57Z</time></trkpt><trkpt lat="45.70976160471732" lon="10.86071394167795"><ele>1406.5</ele><time>2026-04-12T10:06:58Z</time></trkpt><trkpt lat="45.70964811157734" lon="10.860714802772547"><ele>1404.0</ele><time>2026-04-12T10:06:59Z</time></trkpt><trkpt lat="45.70953236163913" lon="10.860710064798528"><ele>1404.0</ele><time>2026-04-12T10:07:00Z</time></trkpt><trkpt lat="45.709415494096525" lon="10.860706439910661"><ele>1404.0</ele><time>2026-04-12T10:07:01Z</time></trkpt><trkpt lat="45.70930216395366" lon="10.86069694876659"><ele>1404.0</ele><time>2026-04-12T10:07:02Z</time></trkpt><trkpt lat="45.70918675659863" lon="10.8606931718384"><ele>1404.0</ele><time>2026-04-12T10:07:03Z</time></trkpt><trkpt lat="45.70907134617379" lon="10.860681740128971"><ele>1401.0</ele><time>2026-04-12T10:07:04Z</time></trkpt><trkpt lat="45.70895495114147" lon="10.860669074771266"><ele>1398.0</ele><time>2026-04-12T10:07:05Z</time></trkpt><trkpt lat="45.70884055737713" lon="10.860655681032034"><ele>1395.0</ele><time>2026-04-12T10:07:06Z</time></trkpt><trkpt lat="45.70872451549047" lon="10.860641588253133"><ele>1392.0</ele><time>2026-04-12T10:07:07Z</time></trkpt><trkpt lat="45.708609807301194" lon="10.860625049544169"><ele>1390.25</ele><time>2026-04-12T10:07:08Z</time></trkpt><trkpt lat="45.70849585635861" lon="10.86060369012294"><ele>1388.5</ele><time>2026-04-12T10:07:09Z</time></trkpt><trkpt lat="45.70837957295658" lon="10.860583708164286"><ele>1386.75</ele><time>2026-04-12T10:07:10Z</time></trkpt><trkpt lat="45.70826394762992" lon="10.860561620505743"><ele>1385.0</ele><time>2026-04-12T10:07:11Z</time></trkpt><trkpt lat="45.70814854213341" lon="10.860533324179235"><ele>1385.0</ele><time>2026-04-12T10:07:12Z</time></trkpt><trkpt lat="45.708030459805414" lon="10.860507584792774"><ele>1385.0</ele><time>2026-04-12T10:07:13Z</time></trkpt><trkpt lat="45.70791391464229" lon="10.860476738723538"><ele>1385.0</ele><time>2026-04-12T10:07:14Z</time></trkpt><trkpt lat="45.707796887720384" lon="10.860447638536712"><ele>1385.0</ele><time>2026-04-12T10:07:15Z</time></trkpt><trkpt lat="45.707677714787046" lon="10.860416870287017"><ele>1382.25</ele><time>2026-04-12T10:07:16Z</time></trkpt><trkpt lat="45.707560824607114" lon="10.860386274714765"><ele>1379.5</ele><time>2026-04-12T10:07:17Z</time></trkpt><trkpt lat="45.70744250368007" lon="10.860358610037407"><ele>1376.75</ele><time>2026-04-12T10:07:18Z</time></trkpt><trkpt lat="45.70732501379156" lon="10.860326955451972"><ele>1374.0</ele><time>2026-04-12T10:07:19Z</time></trkpt><trkpt lat="45.70720842594529" lon="10.860286968231488"><ele>1374.0</ele><time>2026-04-12T10:07:20Z</time></trkpt><trkpt lat="45.707092376647374" lon="10.860243568688507"><ele>1374.0</ele><time>2026-04-12T10:07:21Z</time></trkpt><trkpt lat="45.706974519229334" lon="10.860202268364564"><ele>1374.0</ele><time>2026-04-12T10:07:22Z</time></trkpt><trkpt lat="45.70686210407393" lon="10.860146367948538"><ele>1374.0</ele><time>2026-04-12T10:07:23Z</time></trkpt><trkpt lat="45.706748502750706" lon="10.860091497390812"><ele>1370.75</ele><time>2026-04-12T10:07:24Z</time></trkpt><trkpt lat="45.70663410395884" lon="10.860039918581244"><ele>1367.5</ele><time>2026-04-12T10:07:25Z</time></trkpt><trkpt lat="45.70652016410521" lon="10.859988368110459"><ele>1364.25</ele><time>2026-04-12T10:07:26Z</time></trkpt><trkpt lat="45.70640482220172" lon="10.859936219988098"><ele>1361.0</ele><time>2026-04-12T10:07:27Z</time></trkpt><trkpt lat="45.70629111826243" lon="10.859883431631038"><ele>1361.0</ele><time>2026-04-12T10:07:28Z</time></trkpt><trkpt lat="45.706176643124955" lon="10.859830216204202"><ele>1361.0</ele><time>2026-04-12T10:07:29Z</time></trkpt><trkpt lat="45.706062378266445" lon="10.85977946171356"><ele>1361.0</ele><time>2026-04-12T10:07:30Z</time></trkpt><trkpt lat="45.70595058601429" lon="10.85972516907044"><ele>1361.0</ele><time>2026-04-12T10:07:31Z</time></trkpt><trkpt lat="45.70584039478241" lon="10.859675862701383"><ele>1359.25</ele><time>2026-04-12T10:07:32Z</time></trkpt><trkpt lat="45.70572418307376" lon="10.85962347288099"><ele>1357.5</ele><time>2026-04-12T10:07:33Z</time></trkpt><trkpt lat="45.70560717223156" lon="10.859546141173716"><ele>1355.75</ele><time>2026-04-12T10:07:34Z</time></trkpt><trkpt lat="45.70547750971372" lon="10.859484499346324"><ele>1354.0</ele><time>2026-04-12T10:07:35Z</time></trkpt><trkpt lat="45.70534533163317" lon="10.859425016999102"><ele>1352.25</ele><time>2026-04-12T10:07:36Z</time></trkpt><trkpt lat="45.705212636306264" lon="10.859365301841047"><ele>1350.5</ele><time>2026-04-12T10:07:37Z</time></trkpt><trkpt lat="45.705079728562175" lon="10.859329804535827"><ele>1348.75</ele><time>2026-04-12T10:07:38Z</time></trkpt><trkpt lat="45.70494967301658" lon="10.859274635905402"><ele>1347.0</ele><time>2026-04-12T10:07:39Z</time></trkpt><trkpt lat="45.70482594123648" lon="10.859200440895231"><ele>1346.0</ele><time>2026-04-12T10:07:40Z</time></trkpt><trkpt lat="45.704697932674996" lon="10.859150867679036"><ele>1345.0</ele><time>2026-04-12T10:07:41Z</time></trkpt><trkpt lat="45.70442996386223" lon="10.859108295495123"><ele>1344.0</ele><time>2026-04-12T10:07:43Z</time></trkpt><trkpt lat="45.70430112515072" lon="10.859057159709161"><ele>1341.75</ele><time>2026-04-12T10:07:44Z</time></trkpt><trkpt lat="45.704168860647734" lon="10.859029170885938"><ele>1339.5</ele><time>2026-04-12T10:07:45Z</time></trkpt><trkpt lat="45.70403694089621" lon="10.859023192031987"><ele>1337.25</ele><time>2026-04-12T10:07:46Z</time></trkpt><trkpt lat="45.703905336446525" lon="10.858981837421233"><ele>1335.0</ele><time>2026-04-12T10:07:47Z</time></trkpt><trkpt lat="45.703773450123705" lon="10.85894080404441"><ele>1335.0</ele><time>2026-04-12T10:07:48Z</time></trkpt><trkpt lat="45.70364359841484" lon="10.858887684892055"><ele>1335.0</ele><time>2026-04-12T10:07:49Z</time></trkpt><trkpt lat="45.70351789995019" lon="10.858815597979122"><ele>1335.0</ele><time>2026-04-12T10:07:50Z</time></trkpt><trkpt lat="45.703401317087405" lon="10.85871601314324"><ele>1335.0</ele><time>2026-04-12T10:07:51Z</time></trkpt><trkpt lat="45.70328149846155" lon="10.85862398806605"><ele>1335.25</ele><time>2026-04-12T10:07:52Z</time></trkpt><trkpt lat="45.70315352653585" lon="10.858546437233988"><ele>1335.5</ele><time>2026-04-12T10:07:53Z</time></trkpt><trkpt lat="45.70303277065986" lon="10.858451369534917"><ele>1335.75</ele><time>2026-04-12T10:07:54Z</time></trkpt><trkpt lat="45.70291140569982" lon="10.858357942050835"><ele>1336.0</ele><time>2026-04-12T10:07:55Z</time></trkpt><trkpt lat="45.7027899393802" lon="10.858264533195078"><ele>1331.5</ele><time>2026-04-12T10:07:56Z</time></trkpt><trkpt lat="45.70266692053139" lon="10.85817365070386"><ele>1327.0</ele><time>2026-04-12T10:07:57Z</time></trkpt><trkpt lat="45.70254657076813" lon="10.85808370820083"><ele>1322.5</ele><time>2026-04-12T10:07:58Z</time></trkpt><trkpt lat="45.70242115469049" lon="10.857990468308735"><ele>1318.0</ele><time>2026-04-12T10:07:59Z</time></trkpt><trkpt lat="45.70229822373342" lon="10.85789824231283"><ele>1318.0</ele><time>2026-04-12T10:08:00Z</time></trkpt><trkpt lat="45.702175657358055" lon="10.85779979101498"><ele>1318.0</ele><time>2026-04-12T10:08:01Z</time></trkpt><trkpt lat="45.70205320157931" lon="10.857706096382257"><ele>1318.0</ele><time>2026-04-12T10:08:02Z</time></trkpt><trkpt lat="45.70192861874503" lon="10.857610065671066"><ele>1318.0</ele><time>2026-04-12T10:08:03Z</time></trkpt><trkpt lat="45.7018020935975" lon="10.857515897250947"><ele>1314.25</ele><time>2026-04-12T10:08:04Z</time></trkpt><trkpt lat="45.701678270981716" lon="10.857414888515184"><ele>1310.5</ele><time>2026-04-12T10:08:05Z</time></trkpt><trkpt lat="45.7015468868341" lon="10.857311010915229"><ele>1306.75</ele><time>2026-04-12T10:08:06Z</time></trkpt><trkpt lat="45.701417397654055" lon="10.857202491754098"><ele>1303.0</ele><time>2026-04-12T10:08:07Z</time></trkpt><trkpt lat="45.7012850991843" lon="10.857101217915544"><ele>1303.0</ele><time>2026-04-12T10:08:08Z</time></trkpt><trkpt lat="45.70115968663796" lon="10.856989962198693"><ele>1303.0</ele><time>2026-04-12T10:08:09Z</time></trkpt><trkpt lat="45.701036778446266" lon="10.856864609879846"><ele>1303.0</ele><time>2026-04-12T10:08:10Z</time></trkpt><trkpt lat="45.7009210935878" lon="10.856720171051746"><ele>1299.3333333333333</ele><time>2026-04-12T10:08:11Z</time></trkpt><trkpt lat="45.70081166630724" lon="10.856565784908195"><ele>1295.6666666666667</ele><time>2026-04-12T10:08:12Z</time></trkpt><trkpt lat="45.70070226562232" lon="10.85640900217243"><ele>1292.0</ele><time>2026-04-12T10:08:13Z</time></trkpt><trkpt lat="45.7005912252048" lon="10.856259943575223"><ele>1292.0</ele><time>2026-04-12T10:08:14Z</time></trkpt><trkpt lat="45.70048132565143" lon="10.856117338788797"><ele>1292.0</ele><time>2026-04-12T10:08:15Z</time></trkpt><trkpt lat="45.70036713361791" lon="10.855988386208221"><ele>1292.0</ele><time>2026-04-12T10:08:16Z</time></trkpt><trkpt lat="45.70024342163757" lon="10.855877015574592"><ele>1292.0</ele><time>2026-04-12T10:08:17Z</time></trkpt><trkpt lat="45.70010558616177" lon="10.855801533533226"><ele>1288.3333333333335</ele><time>2026-04-12T10:08:18Z</time></trkpt><trkpt lat="45.69995771534887" lon="10.85574084634459"><ele>1284.6666666666667</ele><time>2026-04-12T10:08:19Z</time></trkpt><trkpt lat="45.69980983058979" lon="10.855685058073384"><ele>1281.0</ele><time>2026-04-12T10:08:20Z</time></trkpt><trkpt lat="45.699661160946505" lon="10.855620046481464"><ele>1281.0</ele><time>2026-04-12T10:08:21Z</time></trkpt><trkpt lat="45.69951279247005" lon="10.855558355582282"><ele>1281.0</ele><time>2026-04-12T10:08:22Z</time></trkpt><trkpt lat="45.69936144044339" lon="10.855502021863668"><ele>1281.0</ele><time>2026-04-12T10:08:23Z</time></trkpt><trkpt lat="45.69921017130897" lon="10.855442818741773"><ele>1274.6666666666667</ele><time>2026-04-12T10:08:24Z</time></trkpt><trkpt lat="45.69906202854102" lon="10.855385463650702"><ele>1268.3333333333335</ele><time>2026-04-12T10:08:25Z</time></trkpt><trkpt lat="45.69891316478735" lon="10.85532577128417"><ele>1262.0</ele><time>2026-04-12T10:08:26Z</time></trkpt><trkpt lat="45.6987642841029" lon="10.85526565384094"><ele>1262.0</ele><time>2026-04-12T10:08:27Z</time></trkpt><trkpt lat="45.69861610281121" lon="10.855203922999225"><ele>1262.0</ele><time>2026-04-12T10:08:28Z</time></trkpt><trkpt lat="45.69847330633228" lon="10.855132462537746"><ele>1262.0</ele><time>2026-04-12T10:08:29Z</time></trkpt><trkpt lat="45.6983369362149" lon="10.85504401390257"><ele>1261.6</ele><time>2026-04-12T10:08:30Z</time></trkpt><trkpt lat="45.69821665362834" lon="10.854957600090403"><ele>1261.2</ele><time>2026-04-12T10:08:31Z</time></trkpt><trkpt lat="45.698120848007086" lon="10.854876587379785"><ele>1260.8</ele><time>2026-04-12T10:08:32Z</time></trkpt><trkpt lat="45.69804307872232" lon="10.854807603117566"><ele>1260.4</ele><time>2026-04-12T10:08:33Z</time></trkpt><trkpt lat="45.69798040659321" lon="10.854760302131611"><ele>1260.0</ele><time>2026-04-12T10:08:34Z</time></trkpt><trkpt lat="45.69791442392522" lon="10.854758348172233"><ele>1260.0</ele><time>2026-04-12T10:08:35Z</time></trkpt><trkpt lat="45.697864028632075" lon="10.854815606165985"><ele>1260.0</ele><time>2026-04-12T10:08:36Z</time></trkpt><trkpt lat="45.69788710266417" lon="10.85501357918602"><ele>1260.0</ele><time>2026-04-12T10:08:38Z</time></trkpt><trkpt lat="45.697973125389595" lon="10.855105821949628"><ele>1260.0</ele><time>2026-04-12T10:08:39Z</time></trkpt><trkpt lat="45.69806700446086" lon="10.85521160854146"><ele>1260.0</ele><time>2026-04-12T10:08:40Z</time></trkpt><trkpt lat="45.69815856454178" lon="10.855349872452646"><ele>1255.6666666666667</ele><time>2026-04-12T10:08:41Z</time></trkpt><trkpt lat="45.69825145321997" lon="10.855525752564688"><ele>1251.3333333333335</ele><time>2026-04-12T10:08:42Z</time></trkpt><trkpt lat="45.698345050712" lon="10.855734609638526"><ele>1247.0</ele><time>2026-04-12T10:08:43Z</time></trkpt><trkpt lat="45.698449483979346" lon="10.855966569012306"><ele>1248.3333333333335</ele><time>2026-04-12T10:08:44Z</time></trkpt><trkpt lat="45.69856042981834" lon="10.856199524867314"><ele>1249.6666666666667</ele><time>2026-04-12T10:08:45Z</time></trkpt><trkpt lat="45.69864727507476" lon="10.8564333660839"><ele>1251.0</ele><time>2026-04-12T10:08:46Z</time></trkpt><trkpt lat="45.69874633390707" lon="10.856639217700009"><ele>1250.0</ele><time>2026-04-12T10:08:47Z</time></trkpt><trkpt lat="45.698861633230955" lon="10.85680568503249"><ele>1249.0</ele><time>2026-04-12T10:08:48Z</time></trkpt><trkpt lat="45.698937129472746" lon="10.856982527298507"><ele>1248.0</ele><time>2026-04-12T10:08:49Z</time></trkpt><trkpt lat="45.69896206906302" lon="10.85716937582096"><ele>1247.0</ele><time>2026-04-12T10:08:50Z</time></trkpt><trkpt lat="45.69901117280144" lon="10.857344208895793"><ele>1247.0</ele><time>2026-04-12T10:08:51Z</time></trkpt><trkpt lat="45.69909157846696" lon="10.857469380775184"><ele>1247.0</ele><time>2026-04-12T10:08:52Z</time></trkpt><trkpt lat="45.69915411014012" lon="10.857589882912977"><ele>1247.0</ele><time>2026-04-12T10:08:53Z</time></trkpt><trkpt lat="45.69919683686032" lon="10.857713075392347"><ele>1247.0</ele><time>2026-04-12T10:08:54Z</time></trkpt><trkpt lat="45.69924015798337" lon="10.857814463775677"><ele>1247.0</ele><time>2026-04-12T10:08:55Z</time></trkpt><trkpt lat="45.699270357721836" lon="10.85791026770778"><ele>1246.3333333333335</ele><time>2026-04-12T10:08:56Z</time></trkpt><trkpt lat="45.699294362555264" lon="10.858006191368728"><ele>1245.6666666666667</ele><time>2026-04-12T10:08:57Z</time></trkpt><trkpt lat="45.699328593967905" lon="10.858087118752719"><ele>1245.0</ele><time>2026-04-12T10:08:58Z</time></trkpt><trkpt lat="45.69936028938394" lon="10.85824087332826"><ele>1244.3333333333333</ele><time>2026-04-12T10:09:00Z</time></trkpt><trkpt lat="45.69936729426787" lon="10.858376448042604"><ele>1243.6666666666665</ele><time>2026-04-12T10:09:02Z</time></trkpt><trkpt lat="45.69936536772164" lon="10.858492218647955"><ele>1243.0</ele><time>2026-04-12T10:09:04Z</time></trkpt><trkpt lat="45.69927244692463" lon="10.858497121207696"><ele>1242.0</ele><time>2026-04-12T10:09:06Z</time></trkpt><trkpt lat="45.6991956270415" lon="10.858374749714754"><ele>1241.0</ele><time>2026-04-12T10:09:08Z</time></trkpt><trkpt lat="45.69910162052976" lon="10.858255325129269"><ele>1240.0</ele><time>2026-04-12T10:09:10Z</time></trkpt><trkpt lat="45.699008472700896" lon="10.858141198971028"><ele>1239.0</ele><time>2026-04-12T10:09:12Z</time></trkpt><trkpt lat="45.698928264760575" lon="10.858024647482939"><ele>1239.0</ele><time>2026-04-12T10:09:14Z</time></trkpt><trkpt lat="45.698837062907565" lon="10.85791051272117"><ele>1239.0</ele><time>2026-04-12T10:09:16Z</time></trkpt><trkpt lat="45.698741404851766" lon="10.85780537432077"><ele>1239.0</ele><time>2026-04-12T10:09:18Z</time></trkpt><trkpt lat="45.698657684847376" lon="10.857692364802306"><ele>1239.0</ele><time>2026-04-12T10:09:20Z</time></trkpt><trkpt lat="45.69861585916047" lon="10.857532552884283"><ele>1240.142857142857</ele><time>2026-04-12T10:09:22Z</time></trkpt><trkpt lat="45.69860453358468" lon="10.8574412934007"><ele>1241.2857142857142</ele><time>2026-04-12T10:09:23Z</time></trkpt><trkpt lat="45.69859610605196" lon="10.857349904343366"><ele>1242.4285714285716</ele><time>2026-04-12T10:09:24Z</time></trkpt><trkpt lat="45.698581413142925" lon="10.857261772704605"><ele>1243.5714285714284</ele><time>2026-04-12T10:09:25Z</time></trkpt><trkpt lat="45.698563175283496" lon="10.857170655439672"><ele>1244.7142857142858</ele><time>2026-04-12T10:09:26Z</time></trkpt><trkpt lat="45.698495573095435" lon="10.857130979067355"><ele>1245.857142857143</ele><time>2026-04-12T10:09:27Z</time></trkpt><trkpt lat="45.69842663972028" lon="10.857103689191884"><ele>1247.0</ele><time>2026-04-12T10:09:28Z</time></trkpt><trkpt lat="45.69836128170289" lon="10.857075097579937"><ele>1243.6</ele><time>2026-04-12T10:09:29Z</time></trkpt><trkpt lat="45.69829732123914" lon="10.857041658398751"><ele>1240.2</ele><time>2026-04-12T10:09:30Z</time></trkpt><trkpt lat="45.698240247545776" lon="10.85699854949605"><ele>1236.8</ele><time>2026-04-12T10:09:31Z</time></trkpt><trkpt lat="45.69814980504554" lon="10.856935409880933"><ele>1233.4</ele><time>2026-04-12T10:09:33Z</time></trkpt><trkpt lat="45.69809223104813" lon="10.856888699536267"><ele>1230.0</ele><time>2026-04-12T10:09:37Z</time></trkpt><trkpt lat="45.697889458347944" lon="10.857217671880719"><ele>1230.0</ele><time>2026-04-12T10:10:54Z</time></trkpt><trkpt lat="45.69794527313897" lon="10.85726324110873"><ele>1230.0</ele><time>2026-04-12T10:10:57Z</time></trkpt><trkpt lat="45.698311633188595" lon="10.857079166651163"><ele>1230.0</ele><time>2026-04-12T10:11:00Z</time></trkpt><trkpt lat="45.69841992929206" lon="10.857124924816153"><ele>1230.0</ele><time>2026-04-12T10:11:02Z</time></trkpt><trkpt lat="45.698482376562424" lon="10.857157124972263"><ele>1230.0</ele><time>2026-04-12T10:11:03Z</time></trkpt><trkpt lat="45.69857624707297" lon="10.857283576787072"><ele>1230.0</ele><time>2026-04-12T10:11:05Z</time></trkpt><trkpt lat="45.698585259138724" lon="10.857400592987636"><ele>1230.0</ele><time>2026-04-12T10:11:06Z</time></trkpt><trkpt lat="45.698593672693924" lon="10.857519640136058"><ele>1231.5</ele><time>2026-04-12T10:11:07Z</time></trkpt><trkpt lat="45.698611730353456" lon="10.857638982105499"><ele>1233.0</ele><time>2026-04-12T10:11:08Z</time></trkpt><trkpt lat="45.698661921210196" lon="10.857740759852318"><ele>1234.5</ele><time>2026-04-12T10:11:09Z</time></trkpt><trkpt lat="45.698719942185896" lon="10.857832728899"><ele>1236.0</ele><time>2026-04-12T10:11:10Z</time></trkpt><trkpt lat="45.698777965378696" lon="10.857905654221778"><ele>1237.5</ele><time>2026-04-12T10:11:11Z</time></trkpt><trkpt lat="45.69883491775246" lon="10.857963768315363"><ele>1239.0</ele><time>2026-04-12T10:11:12Z</time></trkpt><trkpt lat="45.6989128159837" lon="10.858064189555595"><ele>1239.0</ele><time>2026-04-12T10:11:14Z</time></trkpt><trkpt lat="45.69896581103463" lon="10.858142783111393"><ele>1239.0</ele><time>2026-04-12T10:11:16Z</time></trkpt><trkpt lat="45.69901651981662" lon="10.858221053128952"><ele>1239.0</ele><time>2026-04-12T10:11:18Z</time></trkpt><trkpt lat="45.699090954755405" lon="10.858295308204017"><ele>1239.0</ele><time>2026-04-12T10:11:20Z</time></trkpt><trkpt lat="45.69915937276093" lon="10.858383020565416"><ele>1239.0</ele><time>2026-04-12T10:11:22Z</time></trkpt><trkpt lat="45.69923107166529" lon="10.85847695660563"><ele>1239.0</ele><time>2026-04-12T10:11:24Z</time></trkpt><trkpt lat="45.699302508930685" lon="10.858557127655498"><ele>1239.0</ele><time>2026-04-12T10:11:26Z</time></trkpt><trkpt lat="45.699369585772466" lon="10.85860506955501"><ele>1239.0</ele><time>2026-04-12T10:11:29Z</time></trkpt><trkpt lat="45.699389995391215" lon="10.858509809959829"><ele>1239.0</ele><time>2026-04-12T10:11:32Z</time></trkpt><trkpt lat="45.69939044102267" lon="10.858414114107575"><ele>1239.0</ele><time>2026-04-12T10:11:37Z</time></trkpt><trkpt lat="45.69939342655242" lon="10.85832087303823"><ele>1239.0</ele><time>2026-04-12T10:11:40Z</time></trkpt><trkpt lat="45.6991625119829" lon="10.858359229315798"><ele>1239.0</ele><time>2026-04-12T10:13:47Z</time></trkpt><trkpt lat="45.69911519959445" lon="10.858285431582381"><ele>1239.0</ele><time>2026-04-12T10:14:43Z</time></trkpt><trkpt lat="45.699065957956655" lon="10.858226418317265"><ele>1239.0</ele><time>2026-04-12T10:14:49Z</time></trkpt><trkpt lat="45.69900737201241" lon="10.858187671763243"><ele>1239.0</ele><time>2026-04-12T10:14:57Z</time></trkpt><trkpt lat="45.698995375040866" lon="10.858277735706258"><ele>1239.0</ele><time>2026-04-12T10:15:02Z</time></trkpt><trkpt lat="45.698995865827705" lon="10.858371847154906"><ele>1239.0</ele><time>2026-04-12T10:15:08Z</time></trkpt><trkpt lat="45.699019662062916" lon="10.858463377397824"><ele>1239.0</ele><time>2026-04-12T10:15:23Z</time></trkpt><trkpt lat="45.699027672089365" lon="10.858557085805671"><ele>1239.0</ele><time>2026-04-12T10:15:43Z</time></trkpt><trkpt lat="45.6990419553995" lon="10.858648866044668"><ele>1239.0</ele><time>2026-04-12T10:15:53Z</time></trkpt><trkpt lat="45.69902192608837" lon="10.858745760868755"><ele>1239.0</ele><time>2026-04-12T10:16:01Z</time></trkpt><trkpt lat="45.69883152154971" lon="10.858310379650947"><ele>1239.0</ele><time>2026-04-12T10:17:02.529Z</time></trkpt><trkpt lat="45.69881099966536" lon="10.858431684374901"><ele>1239.0</ele><time>2026-04-12T10:20:48Z</time></trkpt><trkpt lat="45.698854821348554" lon="10.858545012209406"><ele>1243.0</ele><time>2026-04-12T10:21:05Z</time></trkpt><trkpt lat="45.69890553189017" lon="10.858648561623658"><ele>1243.0</ele><time>2026-04-12T10:21:13Z</time></trkpt><trkpt lat="45.699038487413034" lon="10.858755098857312"><ele>1243.0</ele><time>2026-04-12T10:21:15Z</time></trkpt></trkseg><trkseg><trkpt lat="45.69899503467804" lon="10.858897664087134"><ele>1243.0000000000002</ele><time>2026-04-12T10:58:45.001Z</time></trkpt><trkpt lat="45.698931227864875" lon="10.858914289625506"><ele>1243.0</ele><time>2026-04-12T10:59:31.001Z</time></trkpt><trkpt lat="45.6989888534271" lon="10.858951647742408"><ele>1243.0</ele><time>2026-04-12T11:06:52Z</time></trkpt><trkpt lat="45.69899586744347" lon="10.859043420416393"><ele>1243.0</ele><time>2026-04-12T11:30:37Z</time></trkpt><trkpt lat="45.69905998457757" lon="10.85902434831429"><ele>1243.0</ele><time>2026-04-12T12:04:30Z</time></trkpt><trkpt lat="45.698957984717566" lon="10.859013755746911"><ele>1243.0000000000002</ele><time>2026-04-12T12:05:18Z</time></trkpt><trkpt lat="45.699017814508736" lon="10.85898377468596"><ele>1243.0</ele><time>2026-04-12T12:07:05Z</time></trkpt><trkpt lat="45.69908048030549" lon="10.858937948952299"><ele>1243.0</ele><time>2026-04-12T12:08:17Z</time></trkpt><trkpt lat="45.69900616397868" lon="10.859029909823581"><ele>1243.0</ele><time>2026-04-12T12:10:40Z</time></trkpt><trkpt lat="45.69898631636903" lon="10.858774259962361"><ele>1243.0</ele><time>2026-04-12T12:13:48Z</time></trkpt><trkpt lat="45.69900208801009" lon="10.858675247387087"><ele>1243.0</ele><time>2026-04-12T12:14:14Z</time></trkpt><trkpt lat="45.699067748542305" lon="10.858601299130246"><ele>1243.0</ele><time>2026-04-12T12:15:11.001Z</time></trkpt><trkpt lat="45.69906562401499" lon="10.858510219379081"><ele>1242.3333333333333</ele><time>2026-04-12T12:15:19.001Z</time></trkpt><trkpt lat="45.69900697723965" lon="10.858338943472097"><ele>1241.6666666666665</ele><time>2026-04-12T12:15:33.001Z</time></trkpt><trkpt lat="45.6990141324388" lon="10.85823890609761"><ele>1241.0</ele><time>2026-04-12T12:15:38Z</time></trkpt><trkpt lat="45.69907741973524" lon="10.858202514662928"><ele>1240.3333333333333</ele><time>2026-04-12T12:15:45Z</time></trkpt><trkpt lat="45.69913279046021" lon="10.858267097054886"><ele>1239.6666666666667</ele><time>2026-04-12T12:15:51Z</time></trkpt><trkpt lat="45.69918814555109" lon="10.858317197743508"><ele>1239.0</ele><time>2026-04-12T12:15:57Z</time></trkpt><trkpt lat="45.69912793539665" lon="10.858280301780816"><ele>1239.0</ele><time>2026-04-12T12:26:45Z</time></trkpt><trkpt lat="45.699050164416796" lon="10.858235166251468"><ele>1239.0</ele><time>2026-04-12T12:28:52Z</time></trkpt><trkpt lat="45.698994773249126" lon="10.85818999740138"><ele>1239.0</ele><time>2026-04-12T12:28:54Z</time></trkpt><trkpt lat="45.69893538692253" lon="10.858132768024154"><ele>1239.0</ele><time>2026-04-12T12:28:56Z</time></trkpt><trkpt lat="45.69882142591658" lon="10.85800108168883"><ele>1239.0</ele><time>2026-04-12T12:28:58Z</time></trkpt><trkpt lat="45.69877296073995" lon="10.857920354004317"><ele>1239.0</ele><time>2026-04-12T12:28:59Z</time></trkpt><trkpt lat="45.69874232824997" lon="10.8578014327467"><ele>1239.0</ele><time>2026-04-12T12:29:00Z</time></trkpt><trkpt lat="45.69868083193384" lon="10.85771441957095"><ele>1239.0</ele><time>2026-04-12T12:29:01Z</time></trkpt><trkpt lat="45.69863836772199" lon="10.857605206405431"><ele>1239.0</ele><time>2026-04-12T12:29:02Z</time></trkpt><trkpt lat="45.69860150721557" lon="10.857485491440602"><ele>1239.0</ele><time>2026-04-12T12:29:03Z</time></trkpt><trkpt lat="45.69860530450777" lon="10.857351464984268"><ele>1239.0</ele><time>2026-04-12T12:29:04Z</time></trkpt><trkpt lat="45.69858675284836" lon="10.857231222628476"><ele>1239.0</ele><time>2026-04-12T12:29:05Z</time></trkpt><trkpt lat="45.698543547522945" lon="10.857127542893695"><ele>1237.2</ele><time>2026-04-12T12:29:06Z</time></trkpt><trkpt lat="45.69842702894212" lon="10.85708738892638"><ele>1235.4</ele><time>2026-04-12T12:29:07Z</time></trkpt><trkpt lat="45.69832813440622" lon="10.857038451880614"><ele>1233.6</ele><time>2026-04-12T12:29:08Z</time></trkpt><trkpt lat="45.698225031055344" lon="10.856983742051213"><ele>1231.8</ele><time>2026-04-12T12:29:09Z</time></trkpt><trkpt lat="45.698128441843316" lon="10.856919017473702"><ele>1230.0</ele><time>2026-04-12T12:29:10Z</time></trkpt><trkpt lat="45.69803383777732" lon="10.85686517500902"><ele>1230.0</ele><time>2026-04-12T12:29:11Z</time></trkpt><trkpt lat="45.697966896110756" lon="10.856762351336139"><ele>1230.0</ele><time>2026-04-12T12:29:12Z</time></trkpt><trkpt lat="45.697895631715866" lon="10.856684762806188"><ele>1230.0</ele><time>2026-04-12T12:29:13Z</time></trkpt><trkpt lat="45.69783348575851" lon="10.856651109468286"><ele>1230.0</ele><time>2026-04-12T12:29:14Z</time></trkpt><trkpt lat="45.69773646838292" lon="10.856690666395252"><ele>1230.0</ele><time>2026-04-12T12:29:16Z</time></trkpt><trkpt lat="45.69775520620937" lon="10.856877173135395"><ele>1230.0</ele><time>2026-04-12T12:29:18Z</time></trkpt><trkpt lat="45.697806855557644" lon="10.85699529093898"><ele>1230.0</ele><time>2026-04-12T12:29:19Z</time></trkpt><trkpt lat="45.697865093157084" lon="10.857128165689666"><ele>1230.0</ele><time>2026-04-12T12:29:20Z</time></trkpt><trkpt lat="45.69791653584868" lon="10.857238035843526"><ele>1230.0</ele><time>2026-04-12T12:29:21Z</time></trkpt><trkpt lat="45.6979416165582" lon="10.857346026580535"><ele>1230.0</ele><time>2026-04-12T12:29:22Z</time></trkpt><trkpt lat="45.697951522710355" lon="10.857474346497051"><ele>1230.0</ele><time>2026-04-12T12:29:24Z</time></trkpt><trkpt lat="45.697770252582515" lon="10.857377753017657"><ele>1230.0</ele><time>2026-04-12T12:29:27Z</time></trkpt><trkpt lat="45.69767475518449" lon="10.85729151891677"><ele>1230.0</ele><time>2026-04-12T12:29:28Z</time></trkpt><trkpt lat="45.697573938288166" lon="10.857188522463154"><ele>1230.0</ele><time>2026-04-12T12:29:29Z</time></trkpt><trkpt lat="45.697471044047035" lon="10.857071912438295"><ele>1227.0</ele><time>2026-04-12T12:29:30Z</time></trkpt><trkpt lat="45.69736152484759" lon="10.85695489003893"><ele>1224.0</ele><time>2026-04-12T12:29:31Z</time></trkpt><trkpt lat="45.69724679758345" lon="10.856851375642421"><ele>1221.0</ele><time>2026-04-12T12:29:32Z</time></trkpt><trkpt lat="45.6971227969235" lon="10.856776114995228"><ele>1218.0</ele><time>2026-04-12T12:29:33Z</time></trkpt><trkpt lat="45.69701185115558" lon="10.85666402660798"><ele>1215.0</ele><time>2026-04-12T12:29:34Z</time></trkpt><trkpt lat="45.6968909438389" lon="10.85657292894857"><ele>1212.0</ele><time>2026-04-12T12:29:35Z</time></trkpt><trkpt lat="45.69677016176099" lon="10.85648319509704"><ele>1209.0</ele><time>2026-04-12T12:29:36Z</time></trkpt><trkpt lat="45.69664950024297" lon="10.856395014889692"><ele>1206.0</ele><time>2026-04-12T12:29:37Z</time></trkpt><trkpt lat="45.696522840662844" lon="10.856313236944668"><ele>1206.0</ele><time>2026-04-12T12:29:38Z</time></trkpt><trkpt lat="45.696393182615274" lon="10.856241271133703"><ele>1206.0</ele><time>2026-04-12T12:29:39Z</time></trkpt><trkpt lat="45.69626924223381" lon="10.856170078852315"><ele>1206.0</ele><time>2026-04-12T12:29:40Z</time></trkpt><trkpt lat="45.696151441659275" lon="10.856099859727266"><ele>1206.0</ele><time>2026-04-12T12:29:41Z</time></trkpt><trkpt lat="45.696039422416504" lon="10.856025346363648"><ele>1203.5</ele><time>2026-04-12T12:29:42Z</time></trkpt><trkpt lat="45.695921845479276" lon="10.85596207459851"><ele>1201.0</ele><time>2026-04-12T12:29:43Z</time></trkpt><trkpt lat="45.695815875728556" lon="10.855878763113664"><ele>1198.5</ele><time>2026-04-12T12:29:44Z</time></trkpt><trkpt lat="45.6957222649956" lon="10.855772888303076"><ele>1196.0</ele><time>2026-04-12T12:29:45Z</time></trkpt><trkpt lat="45.69562508261397" lon="10.855678237694592"><ele>1196.0</ele><time>2026-04-12T12:29:46Z</time></trkpt><trkpt lat="45.69553220852908" lon="10.855562443028884"><ele>1196.0</ele><time>2026-04-12T12:29:47Z</time></trkpt><trkpt lat="45.69545499670073" lon="10.855418413996844"><ele>1196.0</ele><time>2026-04-12T12:29:48Z</time></trkpt><trkpt lat="45.69537165625308" lon="10.855277765727248"><ele>1196.0</ele><time>2026-04-12T12:29:49Z</time></trkpt><trkpt lat="45.695299988238155" lon="10.855152178392837"><ele>1193.0</ele><time>2026-04-12T12:29:50Z</time></trkpt><trkpt lat="45.69523679821903" lon="10.85503795443032"><ele>1190.0</ele><time>2026-04-12T12:29:51Z</time></trkpt><trkpt lat="45.69517865825774" lon="10.854939599213127"><ele>1187.0</ele><time>2026-04-12T12:29:52Z</time></trkpt><trkpt lat="45.695150465791585" lon="10.854814605669043"><ele>1184.0</ele><time>2026-04-12T12:29:53Z</time></trkpt><trkpt lat="45.69516023424005" lon="10.854683126515377"><ele>1181.0</ele><time>2026-04-12T12:29:54Z</time></trkpt><trkpt lat="45.69520229564877" lon="10.854569781682775"><ele>1181.0</ele><time>2026-04-12T12:29:55Z</time></trkpt><trkpt lat="45.69524930289761" lon="10.85448711852351"><ele>1181.0</ele><time>2026-04-12T12:29:56Z</time></trkpt><trkpt lat="45.695232320213194" lon="10.854311008192232"><ele>1181.0</ele><time>2026-04-12T12:29:58Z</time></trkpt><trkpt lat="45.69517489765552" lon="10.854217455825236"><ele>1181.0</ele><time>2026-04-12T12:29:59Z</time></trkpt><trkpt lat="45.69505819515284" lon="10.854182068238073"><ele>1181.0</ele><time>2026-04-12T12:30:00Z</time></trkpt><trkpt lat="45.69494081349107" lon="10.854143302193313"><ele>1181.8</ele><time>2026-04-12T12:30:01Z</time></trkpt><trkpt lat="45.69481882149777" lon="10.85412719663765"><ele>1182.6</ele><time>2026-04-12T12:30:02Z</time></trkpt><trkpt lat="45.69472342510499" lon="10.854083104064719"><ele>1183.4</ele><time>2026-04-12T12:30:03Z</time></trkpt><trkpt lat="45.69465522056761" lon="10.854010544849901"><ele>1184.2</ele><time>2026-04-12T12:30:04Z</time></trkpt><trkpt lat="45.694611495151904" lon="10.85390206604787"><ele>1185.0</ele><time>2026-04-12T12:30:05Z</time></trkpt><trkpt lat="45.69459883884308" lon="10.853766657991349"><ele>1185.0</ele><time>2026-04-12T12:30:06Z</time></trkpt><trkpt lat="45.69460768199694" lon="10.853605843823766"><ele>1185.0</ele><time>2026-04-12T12:30:07Z</time></trkpt><trkpt lat="45.69462222675234" lon="10.853445305041868"><ele>1185.0</ele><time>2026-04-12T12:30:08Z</time></trkpt><trkpt lat="45.69462871744506" lon="10.853297618400763"><ele>1185.0</ele><time>2026-04-12T12:30:09Z</time></trkpt><trkpt lat="45.694607070051745" lon="10.853159884203738"><ele>1185.0</ele><time>2026-04-12T12:30:10Z</time></trkpt><trkpt lat="45.69455623498045" lon="10.853032892410335"><ele>1186.25</ele><time>2026-04-12T12:30:11Z</time></trkpt><trkpt lat="45.694466577707814" lon="10.852917567002368"><ele>1187.5</ele><time>2026-04-12T12:30:12Z</time></trkpt><trkpt lat="45.69435799031088" lon="10.852825831041024"><ele>1188.75</ele><time>2026-04-12T12:30:13Z</time></trkpt><trkpt lat="45.6942586014939" lon="10.852752683230182"><ele>1190.0</ele><time>2026-04-12T12:30:14Z</time></trkpt><trkpt lat="45.694173030264864" lon="10.852672733422239"><ele>1188.2</ele><time>2026-04-12T12:30:15Z</time></trkpt><trkpt lat="45.69411472506827" lon="10.852545381749216"><ele>1186.4</ele><time>2026-04-12T12:30:16Z</time></trkpt><trkpt lat="45.69405229358875" lon="10.852408957947285"><ele>1184.6</ele><time>2026-04-12T12:30:17Z</time></trkpt><trkpt lat="45.69398933845974" lon="10.85227376549335"><ele>1182.8</ele><time>2026-04-12T12:30:18Z</time></trkpt><trkpt lat="45.69395703829726" lon="10.852125455981135"><ele>1181.0</ele><time>2026-04-12T12:30:19Z</time></trkpt><trkpt lat="45.69395319495259" lon="10.851969137502774"><ele>1181.0</ele><time>2026-04-12T12:30:19.999Z</time></trkpt><trkpt lat="45.693977159121474" lon="10.85181026816086"><ele>1181.0</ele><time>2026-04-12T12:30:20.999Z</time></trkpt><trkpt lat="45.6939688880613" lon="10.851652769332569"><ele>1181.0</ele><time>2026-04-12T12:30:21.999Z</time></trkpt><trkpt lat="45.693902649196914" lon="10.851517003273338"><ele>1181.0</ele><time>2026-04-12T12:30:22.999Z</time></trkpt><trkpt lat="45.69381728711987" lon="10.851393081439175"><ele>1182.25</ele><time>2026-04-12T12:30:23.999Z</time></trkpt><trkpt lat="45.69371870749892" lon="10.851298713655265"><ele>1183.5</ele><time>2026-04-12T12:30:24.999Z</time></trkpt><trkpt lat="45.693612843489504" lon="10.851233398795166"><ele>1184.75</ele><time>2026-04-12T12:30:25.999Z</time></trkpt><trkpt lat="45.69348906138842" lon="10.85129464530195"><ele>1186.0</ele><time>2026-04-12T12:30:26.999Z</time></trkpt><trkpt lat="45.69336241984201" lon="10.851380842593011"><ele>1180.5</ele><time>2026-04-12T12:30:27.999Z</time></trkpt><trkpt lat="45.69323075033661" lon="10.851450082830441"><ele>1175.0</ele><time>2026-04-12T12:30:28.999Z</time></trkpt><trkpt lat="45.6930910994561" lon="10.851490290873574"><ele>1169.5</ele><time>2026-04-12T12:30:29.999Z</time></trkpt><trkpt lat="45.692955434354005" lon="10.85146274238136"><ele>1164.0</ele><time>2026-04-12T12:30:30.999Z</time></trkpt><trkpt lat="45.69281803730253" lon="10.85146435737567"><ele>1163.0</ele><time>2026-04-12T12:30:31.999Z</time></trkpt><trkpt lat="45.692685459381764" lon="10.851463330809352"><ele>1162.0</ele><time>2026-04-12T12:30:33Z</time></trkpt><trkpt lat="45.69254172312535" lon="10.851522985278075"><ele>1161.0</ele><time>2026-04-12T12:30:34Z</time></trkpt><trkpt lat="45.692408996730265" lon="10.851573877788715"><ele>1160.0</ele><time>2026-04-12T12:30:35Z</time></trkpt><trkpt lat="45.692276526040686" lon="10.851573612635246"><ele>1160.0</ele><time>2026-04-12T12:30:36Z</time></trkpt><trkpt lat="45.69215178544823" lon="10.851569614916851"><ele>1160.0</ele><time>2026-04-12T12:30:37Z</time></trkpt><trkpt lat="45.692029919696154" lon="10.851622784632644"><ele>1160.0</ele><time>2026-04-12T12:30:38Z</time></trkpt><trkpt lat="45.69193867448582" lon="10.851762100304725"><ele>1160.0</ele><time>2026-04-12T12:30:39Z</time></trkpt><trkpt lat="45.69182948169593" lon="10.851844579734248"><ele>1154.75</ele><time>2026-04-12T12:30:40Z</time></trkpt><trkpt lat="45.69170819683269" lon="10.851918509184259"><ele>1149.5</ele><time>2026-04-12T12:30:41Z</time></trkpt><trkpt lat="45.69156222407657" lon="10.851977713074834"><ele>1144.25</ele><time>2026-04-12T12:30:42Z</time></trkpt><trkpt lat="45.691403284800074" lon="10.852043809751148"><ele>1139.0</ele><time>2026-04-12T12:30:43Z</time></trkpt><trkpt lat="45.69125235297932" lon="10.852115124161589"><ele>1139.0</ele><time>2026-04-12T12:30:44Z</time></trkpt><trkpt lat="45.691106312585696" lon="10.852182126425218"><ele>1139.0</ele><time>2026-04-12T12:30:45Z</time></trkpt><trkpt lat="45.69096832763685" lon="10.852238641003291"><ele>1139.0</ele><time>2026-04-12T12:30:46Z</time></trkpt><trkpt lat="45.690835253928384" lon="10.852283496939407"><ele>1139.0</ele><time>2026-04-12T12:30:47Z</time></trkpt><trkpt lat="45.690706303796446" lon="10.852296033728075"><ele>1137.0</ele><time>2026-04-12T12:30:48Z</time></trkpt><trkpt lat="45.690577000848975" lon="10.85229423465849"><ele>1135.0</ele><time>2026-04-12T12:30:49Z</time></trkpt><trkpt lat="45.69045045786746" lon="10.852288087428038"><ele>1133.0</ele><time>2026-04-12T12:30:50Z</time></trkpt><trkpt lat="45.69032592550372" lon="10.85229267849156"><ele>1131.0</ele><time>2026-04-12T12:30:51Z</time></trkpt><trkpt lat="45.690208252921536" lon="10.852277677963484"><ele>1129.25</ele><time>2026-04-12T12:30:52Z</time></trkpt><trkpt lat="45.69008974652226" lon="10.852258160757913"><ele>1127.5</ele><time>2026-04-12T12:30:53Z</time></trkpt><trkpt lat="45.68997483065978" lon="10.852221911761113"><ele>1125.75</ele><time>2026-04-12T12:30:54Z</time></trkpt><trkpt lat="45.68986867137011" lon="10.852172085267421"><ele>1124.0</ele><time>2026-04-12T12:30:55Z</time></trkpt><trkpt lat="45.68976748777908" lon="10.852101658591875"><ele>1124.0</ele><time>2026-04-12T12:30:56Z</time></trkpt><trkpt lat="45.6896671216664" lon="10.852019437571636"><ele>1124.0</ele><time>2026-04-12T12:30:57Z</time></trkpt><trkpt lat="45.689563929517156" lon="10.85193681763495"><ele>1124.0</ele><time>2026-04-12T12:30:58Z</time></trkpt><trkpt lat="45.6894675333461" lon="10.851861427336882"><ele>1124.0</ele><time>2026-04-12T12:30:59Z</time></trkpt><trkpt lat="45.68938391677552" lon="10.851799349574438"><ele>1124.0</ele><time>2026-04-12T12:31:00Z</time></trkpt><trkpt lat="45.68930980523368" lon="10.851736623996098"><ele>1124.0</ele><time>2026-04-12T12:31:01Z</time></trkpt><trkpt lat="45.68923427405304" lon="10.851674303528444"><ele>1124.0</ele><time>2026-04-12T12:31:02Z</time></trkpt><trkpt lat="45.68915330546941" lon="10.851611782217839"><ele>1124.0</ele><time>2026-04-12T12:31:03Z</time></trkpt><trkpt lat="45.68906249566333" lon="10.851544468551634"><ele>1124.0</ele><time>2026-04-12T12:31:04Z</time></trkpt><trkpt lat="45.68896609449716" lon="10.851458027293084"><ele>1124.0</ele><time>2026-04-12T12:31:05Z</time></trkpt><trkpt lat="45.68886885308302" lon="10.851359041641285"><ele>1124.0</ele><time>2026-04-12T12:31:06Z</time></trkpt><trkpt lat="45.6887870557552" lon="10.851231263758171"><ele>1124.0</ele><time>2026-04-12T12:31:07Z</time></trkpt><trkpt lat="45.68869458223606" lon="10.851154641170119"><ele>1124.0</ele><time>2026-04-12T12:31:08Z</time></trkpt><trkpt lat="45.688635445217436" lon="10.851057614010537"><ele>1124.0</ele><time>2026-04-12T12:31:09Z</time></trkpt><trkpt lat="45.6886120801988" lon="10.850950259590338"><ele>1124.0</ele><time>2026-04-12T12:31:10Z</time></trkpt><trkpt lat="45.68862969593207" lon="10.850821599280462"><ele>1125.25</ele><time>2026-04-12T12:31:11Z</time></trkpt><trkpt lat="45.68866816399748" lon="10.850675219541259"><ele>1126.5</ele><time>2026-04-12T12:31:12Z</time></trkpt><trkpt lat="45.688696476611064" lon="10.850522259210381"><ele>1127.75</ele><time>2026-04-12T12:31:13Z</time></trkpt><trkpt lat="45.688693958105716" lon="10.850333774479093"><ele>1129.0</ele><time>2026-04-12T12:31:14Z</time></trkpt><trkpt lat="45.688595092886466" lon="10.850173071115265"><ele>1123.5</ele><time>2026-04-12T12:31:15Z</time></trkpt><trkpt lat="45.68850924674812" lon="10.850038382057711"><ele>1118.0</ele><time>2026-04-12T12:31:16Z</time></trkpt><trkpt lat="45.6884118467701" lon="10.849853116725171"><ele>1112.5</ele><time>2026-04-12T12:31:17Z</time></trkpt><trkpt lat="45.68831724826515" lon="10.849696939406881"><ele>1107.0</ele><time>2026-04-12T12:31:18Z</time></trkpt><trkpt lat="45.68822566239604" lon="10.849582977001685"><ele>1107.0</ele><time>2026-04-12T12:31:19Z</time></trkpt><trkpt lat="45.68816381341059" lon="10.849480898963023"><ele>1107.0</ele><time>2026-04-12T12:31:20Z</time></trkpt><trkpt lat="45.68810328022656" lon="10.849416138856588"><ele>1107.0</ele><time>2026-04-12T12:31:21Z</time></trkpt><trkpt lat="45.68803359434601" lon="10.849381920101596"><ele>1107.0</ele><time>2026-04-12T12:31:22Z</time></trkpt><trkpt lat="45.68792836415865" lon="10.849502258244417"><ele>1107.0</ele><time>2026-04-12T12:31:23Z</time></trkpt><trkpt lat="45.6878076271142" lon="10.849630359237588"><ele>1105.0</ele><time>2026-04-12T12:31:24Z</time></trkpt><trkpt lat="45.68767217843584" lon="10.849770387738335"><ele>1103.0</ele><time>2026-04-12T12:31:25Z</time></trkpt><trkpt lat="45.68753083004896" lon="10.84991444647648"><ele>1101.0</ele><time>2026-04-12T12:31:26Z</time></trkpt><trkpt lat="45.687415179089285" lon="10.850039224100641"><ele>1097.2</ele><time>2026-04-12T12:31:27Z</time></trkpt><trkpt lat="45.68732209633667" lon="10.85015742925719"><ele>1093.3999999999999</ele><time>2026-04-12T12:31:28Z</time></trkpt><trkpt lat="45.68723605726695" lon="10.850258522955942"><ele>1089.6</ele><time>2026-04-12T12:31:29Z</time></trkpt><trkpt lat="45.68714793119354" lon="10.850331484777852"><ele>1085.8</ele><time>2026-04-12T12:31:30Z</time></trkpt><trkpt lat="45.687047903419504" lon="10.850377668583514"><ele>1082.0</ele><time>2026-04-12T12:31:31Z</time></trkpt><trkpt lat="45.68694103306313" lon="10.850360926357146"><ele>1080.0</ele><time>2026-04-12T12:31:32Z</time></trkpt><trkpt lat="45.686837975531205" lon="10.850333577619523"><ele>1078.0</ele><time>2026-04-12T12:31:33Z</time></trkpt><trkpt lat="45.686744998414476" lon="10.850256347041938"><ele>1076.0</ele><time>2026-04-12T12:31:34Z</time></trkpt><trkpt lat="45.686662151857334" lon="10.850132889879728"><ele>1074.0</ele><time>2026-04-12T12:31:35Z</time></trkpt><trkpt lat="45.68654800137755" lon="10.850019730265675"><ele>1080.3333333333333</ele><time>2026-04-12T12:31:36Z</time></trkpt><trkpt lat="45.68641470915462" lon="10.84991721504207"><ele>1086.6666666666665</ele><time>2026-04-12T12:31:37Z</time></trkpt><trkpt lat="45.68625628848032" lon="10.849841387357966"><ele>1093.0</ele><time>2026-04-12T12:31:38Z</time></trkpt><trkpt lat="45.68610252444538" lon="10.849719748212047"><ele>1086.0</ele><time>2026-04-12T12:31:39Z</time></trkpt><trkpt lat="45.68596472176664" lon="10.849608476799693"><ele>1079.0</ele><time>2026-04-12T12:31:40Z</time></trkpt><trkpt lat="45.685849999881775" lon="10.849478978278196"><ele>1072.0</ele><time>2026-04-12T12:31:41Z</time></trkpt><trkpt lat="45.68574379235691" lon="10.849336041812293"><ele>1075.0</ele><time>2026-04-12T12:31:42Z</time></trkpt><trkpt lat="45.68564749028186" lon="10.849167761405127"><ele>1078.0</ele><time>2026-04-12T12:31:43Z</time></trkpt><trkpt lat="45.685550844231884" lon="10.848983825834287"><ele>1081.0</ele><time>2026-04-12T12:31:44Z</time></trkpt><trkpt lat="45.6854494254479" lon="10.84879215842594"><ele>1081.0</ele><time>2026-04-12T12:31:45Z</time></trkpt><trkpt lat="45.685327019117715" lon="10.848627374547572"><ele>1081.0</ele><time>2026-04-12T12:31:46Z</time></trkpt><trkpt lat="45.68519671402194" lon="10.848474878875491"><ele>1081.0</ele><time>2026-04-12T12:31:47Z</time></trkpt><trkpt lat="45.68508124590231" lon="10.848323932765007"><ele>1078.6</ele><time>2026-04-12T12:31:48Z</time></trkpt><trkpt lat="45.684975328648974" lon="10.848217486727783"><ele>1076.1999999999998</ele><time>2026-04-12T12:31:49Z</time></trkpt><trkpt lat="45.684889274375244" lon="10.84812601647136"><ele>1073.8000000000002</ele><time>2026-04-12T12:31:50Z</time></trkpt><trkpt lat="45.68482148446281" lon="10.848040287767686"><ele>1071.4</ele><time>2026-04-12T12:31:51Z</time></trkpt><trkpt lat="45.684754492610544" lon="10.847962655669486"><ele>1069.0</ele><time>2026-04-12T12:31:52Z</time></trkpt><trkpt lat="45.684762458891335" lon="10.847823791695687"><ele>1069.0</ele><time>2026-04-12T12:31:53Z</time></trkpt><trkpt lat="45.68475271108602" lon="10.84769469237822"><ele>1069.0</ele><time>2026-04-12T12:31:54Z</time></trkpt><trkpt lat="45.68473244775946" lon="10.847552762339085"><ele>1069.0</ele><time>2026-04-12T12:31:55Z</time></trkpt><trkpt lat="45.68469699764163" lon="10.84739961706756"><ele>1069.0</ele><time>2026-04-12T12:31:56Z</time></trkpt><trkpt lat="45.68462818699603" lon="10.847257639702635"><ele>1069.0</ele><time>2026-04-12T12:31:57Z</time></trkpt><trkpt lat="45.68453642333957" lon="10.847140492578353"><ele>1070.5</ele><time>2026-04-12T12:31:58Z</time></trkpt><trkpt lat="45.68444288400364" lon="10.847027639890797"><ele>1072.0</ele><time>2026-04-12T12:31:59Z</time></trkpt><trkpt lat="45.684327420927204" lon="10.846932250309635"><ele>1073.5</ele><time>2026-04-12T12:32:00Z</time></trkpt><trkpt lat="45.68419742078587" lon="10.846858126742582"><ele>1075.0</ele><time>2026-04-12T12:32:01Z</time></trkpt><trkpt lat="45.68405322224378" lon="10.846798005178734"><ele>1072.75</ele><time>2026-04-12T12:32:02Z</time></trkpt><trkpt lat="45.68389896901088" lon="10.84674821209083"><ele>1070.5</ele><time>2026-04-12T12:32:03Z</time></trkpt><trkpt lat="45.683755269734384" lon="10.846683807142128"><ele>1068.25</ele><time>2026-04-12T12:32:04Z</time></trkpt><trkpt lat="45.6836201345561" lon="10.846635208673888"><ele>1066.0</ele><time>2026-04-12T12:32:05Z</time></trkpt><trkpt lat="45.68349963944059" lon="10.846566111048524"><ele>1062.0</ele><time>2026-04-12T12:32:06Z</time></trkpt><trkpt lat="45.68339813152755" lon="10.846465985128662"><ele>1058.0</ele><time>2026-04-12T12:32:07Z</time></trkpt><trkpt lat="45.68330250519583" lon="10.846358792212394"><ele>1054.0</ele><time>2026-04-12T12:32:08Z</time></trkpt><trkpt lat="45.68321543725672" lon="10.846221308357098"><ele>1050.0</ele><time>2026-04-12T12:32:09Z</time></trkpt><trkpt lat="45.68312371332543" lon="10.846070252066085"><ele>1054.25</ele><time>2026-04-12T12:32:10Z</time></trkpt><trkpt lat="45.68304381686564" lon="10.84590249412567"><ele>1058.5</ele><time>2026-04-12T12:32:11Z</time></trkpt><trkpt lat="45.682969030692355" lon="10.845731998412106"><ele>1062.75</ele><time>2026-04-12T12:32:12Z</time></trkpt><trkpt lat="45.682901612467035" lon="10.845578299853083"><ele>1067.0</ele><time>2026-04-12T12:32:13Z</time></trkpt><trkpt lat="45.68284673641851" lon="10.845442726951582"><ele>1067.0</ele><time>2026-04-12T12:32:14Z</time></trkpt><trkpt lat="45.68279913476737" lon="10.84530990375004"><ele>1067.0</ele><time>2026-04-12T12:32:15Z</time></trkpt><trkpt lat="45.68277467735652" lon="10.845182835556342"><ele>1067.0</ele><time>2026-04-12T12:32:16Z</time></trkpt><trkpt lat="45.68275754282163" lon="10.845055688314574"><ele>1067.0</ele><time>2026-04-12T12:32:17Z</time></trkpt><trkpt lat="45.68278395307009" lon="10.844913860282421"><ele>1067.0</ele><time>2026-04-12T12:32:18Z</time></trkpt><trkpt lat="45.68282310935205" lon="10.84474488043643"><ele>1067.25</ele><time>2026-04-12T12:32:19Z</time></trkpt><trkpt lat="45.68286605830135" lon="10.844557070620668"><ele>1067.5</ele><time>2026-04-12T12:32:20Z</time></trkpt><trkpt lat="45.6829042115079" lon="10.844384222624317"><ele>1067.75</ele><time>2026-04-12T12:32:21Z</time></trkpt><trkpt lat="45.682932411699" lon="10.844213019984617"><ele>1068.0</ele><time>2026-04-12T12:32:22Z</time></trkpt><trkpt lat="45.682958883751766" lon="10.84404403459632"><ele>1066.75</ele><time>2026-04-12T12:32:23Z</time></trkpt><trkpt lat="45.682931986232035" lon="10.843857408355477"><ele>1065.5</ele><time>2026-04-12T12:32:24Z</time></trkpt><trkpt lat="45.682850201364936" lon="10.843678057808926"><ele>1064.25</ele><time>2026-04-12T12:32:25Z</time></trkpt><trkpt lat="45.682782807851254" lon="10.843465669495039"><ele>1063.0</ele><time>2026-04-12T12:32:26Z</time></trkpt><trkpt lat="45.68269825062772" lon="10.843249766806077"><ele>1058.5</ele><time>2026-04-12T12:32:27Z</time></trkpt><trkpt lat="45.68261943148779" lon="10.843048039257635"><ele>1054.0</ele><time>2026-04-12T12:32:28Z</time></trkpt><trkpt lat="45.68254869270758" lon="10.84286656978862"><ele>1049.5</ele><time>2026-04-12T12:32:29Z</time></trkpt><trkpt lat="45.68247255890256" lon="10.842717422674495"><ele>1045.0</ele><time>2026-04-12T12:32:30Z</time></trkpt><trkpt lat="45.68241530070894" lon="10.842574177966185"><ele>1045.0</ele><time>2026-04-12T12:32:31Z</time></trkpt><trkpt lat="45.68236515343077" lon="10.842472287737241"><ele>1045.0</ele><time>2026-04-12T12:32:32Z</time></trkpt><trkpt lat="45.68230660495105" lon="10.84242041670678"><ele>1045.0</ele><time>2026-04-12T12:32:33Z</time></trkpt><trkpt lat="45.68223716480293" lon="10.842432955747249"><ele>1045.0</ele><time>2026-04-12T12:32:34Z</time></trkpt><trkpt lat="45.6821709084201" lon="10.842499164807188"><ele>1045.0</ele><time>2026-04-12T12:32:35Z</time></trkpt><trkpt lat="45.68213440447066" lon="10.84260107331262"><ele>1045.0</ele><time>2026-04-12T12:32:36Z</time></trkpt><trkpt lat="45.68217442879549" lon="10.84276816720885"><ele>1043.0</ele><time>2026-04-12T12:32:37Z</time></trkpt><trkpt lat="45.68222282759843" lon="10.842930473035407"><ele>1041.0</ele><time>2026-04-12T12:32:38Z</time></trkpt><trkpt lat="45.68225448630884" lon="10.843124341997548"><ele>1039.0</ele><time>2026-04-12T12:32:39Z</time></trkpt><trkpt lat="45.68221787335462" lon="10.843335035541903"><ele>1037.0</ele><time>2026-04-12T12:32:40Z</time></trkpt><trkpt lat="45.68218441134434" lon="10.843569964213032"><ele>1037.0</ele><time>2026-04-12T12:32:41Z</time></trkpt><trkpt lat="45.68215398575778" lon="10.84377969605237"><ele>1037.0</ele><time>2026-04-12T12:32:42Z</time></trkpt><trkpt lat="45.6821289088327" lon="10.843944143320341"><ele>1037.0</ele><time>2026-04-12T12:32:43Z</time></trkpt><trkpt lat="45.68210375956344" lon="10.844062944642511"><ele>1037.0</ele><time>2026-04-12T12:32:44Z</time></trkpt><trkpt lat="45.68208484428053" lon="10.844158531513276"><ele>1037.0</ele><time>2026-04-12T12:32:45Z</time></trkpt><trkpt lat="45.68202655151402" lon="10.844199150666483"><ele>1037.0</ele><time>2026-04-12T12:32:46Z</time></trkpt><trkpt lat="45.68195286954489" lon="10.844168137859542"><ele>1037.0</ele><time>2026-04-12T12:32:47Z</time></trkpt><trkpt lat="45.681912554857696" lon="10.844045762374238"><ele>1037.0</ele><time>2026-04-12T12:32:48Z</time></trkpt><trkpt lat="45.68191349753287" lon="10.843876020790313"><ele>1037.0</ele><time>2026-04-12T12:32:49Z</time></trkpt><trkpt lat="45.68188697929108" lon="10.843636457775697"><ele>1031.75</ele><time>2026-04-12T12:32:50Z</time></trkpt><trkpt lat="45.681859453731704" lon="10.843458570082417"><ele>1026.5</ele><time>2026-04-12T12:32:51Z</time></trkpt><trkpt lat="45.68184084135038" lon="10.843277902372177"><ele>1021.25</ele><time>2026-04-12T12:32:52Z</time></trkpt><trkpt lat="45.68181009329986" lon="10.843105196064254"><ele>1016.0</ele><time>2026-04-12T12:32:53Z</time></trkpt><trkpt lat="45.6817561036638" lon="10.842951037829677"><ele>1016.0</ele><time>2026-04-12T12:32:54Z</time></trkpt><trkpt lat="45.6816820734507" lon="10.84281452078611"><ele>1016.0</ele><time>2026-04-12T12:32:55Z</time></trkpt><trkpt lat="45.6815762199517" lon="10.842703166500016"><ele>1016.0</ele><time>2026-04-12T12:32:56Z</time></trkpt><trkpt lat="45.68144288303613" lon="10.842619455089844"><ele>1016.0</ele><time>2026-04-12T12:32:57Z</time></trkpt><trkpt lat="45.68128948738194" lon="10.842540562159915"><ele>1018.6666666666667</ele><time>2026-04-12T12:32:58Z</time></trkpt><trkpt lat="45.68111483351768" lon="10.842507342493603"><ele>1021.3333333333333</ele><time>2026-04-12T12:32:59Z</time></trkpt><trkpt lat="45.680950847761366" lon="10.842472063816691"><ele>1024.0</ele><time>2026-04-12T12:33:00Z</time></trkpt><trkpt lat="45.680808055882615" lon="10.842438532508718"><ele>1019.0</ele><time>2026-04-12T12:33:01Z</time></trkpt><trkpt lat="45.68068122376086" lon="10.84239940640793"><ele>1014.0</ele><time>2026-04-12T12:33:02Z</time></trkpt><trkpt lat="45.68056550518844" lon="10.842337748330577"><ele>1009.0</ele><time>2026-04-12T12:33:03Z</time></trkpt><trkpt lat="45.68047088032781" lon="10.84224023929459"><ele>1004.0</ele><time>2026-04-12T12:33:04Z</time></trkpt><trkpt lat="45.68039062118365" lon="10.842107843962049"><ele>1004.0</ele><time>2026-04-12T12:33:05Z</time></trkpt><trkpt lat="45.68031583942268" lon="10.841950798786584"><ele>1004.0000000000001</ele><time>2026-04-12T12:33:06Z</time></trkpt><trkpt lat="45.68025772651508" lon="10.841801401824458"><ele>1004.0000000000001</ele><time>2026-04-12T12:33:07Z</time></trkpt><trkpt lat="45.68022731926703" lon="10.841667445533911"><ele>1004.0</ele><time>2026-04-12T12:33:08Z</time></trkpt><trkpt lat="45.680226085043074" lon="10.841533923888173"><ele>1004.0</ele><time>2026-04-12T12:33:09Z</time></trkpt><trkpt lat="45.6802392237233" lon="10.84137285083997"><ele>1003.0</ele><time>2026-04-12T12:33:10Z</time></trkpt><trkpt lat="45.680233862341034" lon="10.841176645773592"><ele>1002.0</ele><time>2026-04-12T12:33:11Z</time></trkpt><trkpt lat="45.68022045814879" lon="10.840980424939062"><ele>1001.0</ele><time>2026-04-12T12:33:12Z</time></trkpt><trkpt lat="45.68017521005092" lon="10.840811228989867"><ele>1000.0</ele><time>2026-04-12T12:33:13Z</time></trkpt><trkpt lat="45.68010361176829" lon="10.840670954023922"><ele>1000.0</ele><time>2026-04-12T12:33:14Z</time></trkpt><trkpt lat="45.680009291076175" lon="10.8405514231512"><ele>1000.0</ele><time>2026-04-12T12:33:15Z</time></trkpt><trkpt lat="45.679890636505206" lon="10.84044386436992"><ele>1000.0</ele><time>2026-04-12T12:33:16Z</time></trkpt><trkpt lat="45.679757370075386" lon="10.840378759842007"><ele>1000.0</ele><time>2026-04-12T12:33:17Z</time></trkpt><trkpt lat="45.679608825074816" lon="10.840387999707499"><ele>1000.0</ele><time>2026-04-12T12:33:18Z</time></trkpt><trkpt lat="45.67945185362822" lon="10.840419165254751"><ele>1000.0</ele><time>2026-04-12T12:33:19Z</time></trkpt><trkpt lat="45.67928533150652" lon="10.840495995856417"><ele>1000.0</ele><time>2026-04-12T12:33:20Z</time></trkpt><trkpt lat="45.679108003439616" lon="10.840602130232318"><ele>996.6666666666666</ele><time>2026-04-12T12:33:21Z</time></trkpt><trkpt lat="45.67893450640235" lon="10.84071598713598"><ele>993.3333333333333</ele><time>2026-04-12T12:33:22Z</time></trkpt><trkpt lat="45.67876006449033" lon="10.84081169195557"><ele>990.0</ele><time>2026-04-12T12:33:23Z</time></trkpt><trkpt lat="45.6786220944141" lon="10.840900770560333"><ele>988.5</ele><time>2026-04-12T12:33:24Z</time></trkpt><trkpt lat="45.67848845911633" lon="10.840978561622146"><ele>987.0</ele><time>2026-04-12T12:33:25Z</time></trkpt><trkpt lat="45.678362767858" lon="10.841066337250567"><ele>985.5</ele><time>2026-04-12T12:33:26Z</time></trkpt><trkpt lat="45.678247050364575" lon="10.841197987358191"><ele>984.0</ele><time>2026-04-12T12:33:27Z</time></trkpt><trkpt lat="45.678147598928476" lon="10.841384131923691"><ele>984.0</ele><time>2026-04-12T12:33:28Z</time></trkpt><trkpt lat="45.67804035526838" lon="10.841586754335708"><ele>984.0</ele><time>2026-04-12T12:33:29Z</time></trkpt><trkpt lat="45.677938162031296" lon="10.841781970474798"><ele>984.0</ele><time>2026-04-12T12:33:30Z</time></trkpt><trkpt lat="45.67784519405516" lon="10.841944778818247"><ele>984.5</ele><time>2026-04-12T12:33:31Z</time></trkpt><trkpt lat="45.6777581323303" lon="10.842085194481133"><ele>985.0</ele><time>2026-04-12T12:33:32Z</time></trkpt><trkpt lat="45.67766988676931" lon="10.842201267987775"><ele>985.5</ele><time>2026-04-12T12:33:33Z</time></trkpt><trkpt lat="45.67755566226648" lon="10.842250347894838"><ele>986.0</ele><time>2026-04-12T12:33:34Z</time></trkpt><trkpt lat="45.67741965891862" lon="10.842328639068723"><ele>986.0</ele><time>2026-04-12T12:33:35Z</time></trkpt><trkpt lat="45.677264678165095" lon="10.84241270706981"><ele>986.0</ele><time>2026-04-12T12:33:36Z</time></trkpt><trkpt lat="45.67710259828907" lon="10.84250327572662"><ele>986.0</ele><time>2026-04-12T12:33:37Z</time></trkpt><trkpt lat="45.67694073674092" lon="10.842594330025097"><ele>983.75</ele><time>2026-04-12T12:33:38Z</time></trkpt><trkpt lat="45.67678517583447" lon="10.84267101259887"><ele>981.5</ele><time>2026-04-12T12:33:39Z</time></trkpt><trkpt lat="45.67664377739348" lon="10.842701151585059"><ele>979.25</ele><time>2026-04-12T12:33:40Z</time></trkpt><trkpt lat="45.6765287546592" lon="10.842743438319912"><ele>977.0</ele><time>2026-04-12T12:33:41Z</time></trkpt><trkpt lat="45.676419749613515" lon="10.842824539907598"><ele>977.0</ele><time>2026-04-12T12:33:42Z</time></trkpt><trkpt lat="45.6763174758321" lon="10.842935404504528"><ele>977.0</ele><time>2026-04-12T12:33:43Z</time></trkpt><trkpt lat="45.67620863180024" lon="10.843076468386757"><ele>977.0</ele><time>2026-04-12T12:33:44Z</time></trkpt><trkpt lat="45.67609237094525" lon="10.843226769988894"><ele>977.0</ele><time>2026-04-12T12:33:45Z</time></trkpt><trkpt lat="45.67598128793994" lon="10.843401522039512"><ele>983.6666666666667</ele><time>2026-04-12T12:33:46Z</time></trkpt><trkpt lat="45.675857101988214" lon="10.84358542218809"><ele>990.3333333333333</ele><time>2026-04-12T12:33:47Z</time></trkpt><trkpt lat="45.675755933561724" lon="10.843779123410659"><ele>997.0</ele><time>2026-04-12T12:33:48Z</time></trkpt><trkpt lat="45.67568938070741" lon="10.843982561672735"><ele>997.0</ele><time>2026-04-12T12:33:49Z</time></trkpt><trkpt lat="45.67563775863181" lon="10.844156678051476"><ele>997.0</ele><time>2026-04-12T12:33:50Z</time></trkpt><trkpt lat="45.675612133135374" lon="10.844339244807514"><ele>997.0</ele><time>2026-04-12T12:33:51Z</time></trkpt><trkpt lat="45.67558583743975" lon="10.844508057439224"><ele>997.0</ele><time>2026-04-12T12:33:52Z</time></trkpt><trkpt lat="45.67555505626867" lon="10.844669594247085"><ele>998.6666666666666</ele><time>2026-04-12T12:33:53Z</time></trkpt><trkpt lat="45.67552174676" lon="10.844805691957008"><ele>1000.3333333333333</ele><time>2026-04-12T12:33:54Z</time></trkpt><trkpt lat="45.67548647803501" lon="10.844907015485195"><ele>1002.0</ele><time>2026-04-12T12:33:55Z</time></trkpt><trkpt lat="45.67542987460446" lon="10.844964895503844"><ele>1003.6666666666667</ele><time>2026-04-12T12:33:56Z</time></trkpt><trkpt lat="45.675352553488715" lon="10.844978074761105"><ele>1005.3333333333334</ele><time>2026-04-12T12:33:57Z</time></trkpt><trkpt lat="45.67524469538378" lon="10.84500622618603"><ele>1007.0</ele><time>2026-04-12T12:33:58Z</time></trkpt><trkpt lat="45.67511901642953" lon="10.845004634107116"><ele>1007.0</ele><time>2026-04-12T12:33:59Z</time></trkpt><trkpt lat="45.674971764867365" lon="10.844990671975287"><ele>1007.0</ele><time>2026-04-12T12:34:00Z</time></trkpt><trkpt lat="45.67480740209899" lon="10.84500042586178"><ele>1007.0</ele><time>2026-04-12T12:34:01Z</time></trkpt><trkpt lat="45.67463258970585" lon="10.844994941363618"><ele>1007.0</ele><time>2026-04-12T12:34:02Z</time></trkpt><trkpt lat="45.674477543087335" lon="10.84503325080515"><ele>1007.0</ele><time>2026-04-12T12:34:03Z</time></trkpt><trkpt lat="45.674349947514834" lon="10.845084308284191"><ele>1007.0</ele><time>2026-04-12T12:34:04Z</time></trkpt><trkpt lat="45.674246909125415" lon="10.84514414810281"><ele>1007.0</ele><time>2026-04-12T12:34:05Z</time></trkpt><trkpt lat="45.67415737736361" lon="10.845210733671973"><ele>1005.1666666666667</ele><time>2026-04-12T12:34:06Z</time></trkpt><trkpt lat="45.67407878472829" lon="10.845262644774186"><ele>1003.3333333333334</ele><time>2026-04-12T12:34:07Z</time></trkpt><trkpt lat="45.67397878773976" lon="10.84531481427794"><ele>1001.5</ele><time>2026-04-12T12:34:09Z</time></trkpt><trkpt lat="45.67391927512486" lon="10.845354160294796"><ele>999.6666666666667</ele><time>2026-04-12T12:34:11Z</time></trkpt><trkpt lat="45.67386776409718" lon="10.84541251909263"><ele>997.8333333333334</ele><time>2026-04-12T12:34:17Z</time></trkpt><trkpt lat="45.6738287911986" lon="10.845486045564156"><ele>996.0</ele><time>2026-04-12T12:34:31.001Z</time></trkpt><trkpt lat="45.67375146038072" lon="10.84561161854322"><ele>996.0</ele><time>2026-04-12T12:35:17Z</time></trkpt><trkpt lat="45.67369655031343" lon="10.845711036229906"><ele>996.0</ele><time>2026-04-12T12:35:18Z</time></trkpt><trkpt lat="45.673622730216444" lon="10.845844691903771"><ele>996.0</ele><time>2026-04-12T12:35:19Z</time></trkpt><trkpt lat="45.67353569030829" lon="10.846002959976015"><ele>996.0</ele><time>2026-04-12T12:35:20Z</time></trkpt><trkpt lat="45.67343357489078" lon="10.846189754569005"><ele>996.6666666666667</ele><time>2026-04-12T12:35:21Z</time></trkpt><trkpt lat="45.673310897581565" lon="10.846409731186801"><ele>997.3333333333334</ele><time>2026-04-12T12:35:22Z</time></trkpt><trkpt lat="45.673190795320565" lon="10.846652951392628"><ele>998.0</ele><time>2026-04-12T12:35:23Z</time></trkpt><trkpt lat="45.673061982305754" lon="10.846888782889982"><ele>998.0</ele><time>2026-04-12T12:35:24Z</time></trkpt><trkpt lat="45.67292996128131" lon="10.847124725548115"><ele>998.0</ele><time>2026-04-12T12:35:25Z</time></trkpt><trkpt lat="45.67279413416472" lon="10.847360388143926"><ele>998.0</ele><time>2026-04-12T12:35:26Z</time></trkpt><trkpt lat="45.67266680982593" lon="10.847581040481272"><ele>998.6666666666667</ele><time>2026-04-12T12:35:27Z</time></trkpt><trkpt lat="45.672555593484475" lon="10.847780491747544"><ele>999.3333333333333</ele><time>2026-04-12T12:35:28Z</time></trkpt><trkpt lat="45.67245445905265" lon="10.847962918820802"><ele>1000.0</ele><time>2026-04-12T12:35:29Z</time></trkpt><trkpt lat="45.6723633679832" lon="10.848130802789202"><ele>1000.0</ele><time>2026-04-12T12:35:30Z</time></trkpt><trkpt lat="45.67228096039064" lon="10.848278553087424"><ele>1000.0</ele><time>2026-04-12T12:35:31Z</time></trkpt><trkpt lat="45.67220877190357" lon="10.848422756283993"><ele>1000.0</ele><time>2026-04-12T12:35:32Z</time></trkpt><trkpt lat="45.67214138311172" lon="10.84854534844678"><ele>1000.0</ele><time>2026-04-12T12:35:33Z</time></trkpt><trkpt lat="45.67208154176613" lon="10.848656766393812"><ele>998.1666666666666</ele><time>2026-04-12T12:35:34Z</time></trkpt><trkpt lat="45.672022191032696" lon="10.848759687476432"><ele>996.3333333333333</ele><time>2026-04-12T12:35:35Z</time></trkpt><trkpt lat="45.67195579394941" lon="10.848822104363258"><ele>994.5</ele><time>2026-04-12T12:35:36Z</time></trkpt><trkpt lat="45.671901595891676" lon="10.848887216532601"><ele>992.6666666666667</ele><time>2026-04-12T12:35:37Z</time></trkpt><trkpt lat="45.67182559635953" lon="10.848897066758951"><ele>990.8333333333334</ele><time>2026-04-12T12:35:38Z</time></trkpt><trkpt lat="45.67175005269207" lon="10.848810444055728"><ele>989.0</ele><time>2026-04-12T12:35:39Z</time></trkpt><trkpt lat="45.67166387759472" lon="10.848743572507171"><ele>989.0</ele><time>2026-04-12T12:35:40Z</time></trkpt><trkpt lat="45.671571073168046" lon="10.848679304388"><ele>989.0000000000001</ele><time>2026-04-12T12:35:41Z</time></trkpt><trkpt lat="45.671473306132384" lon="10.848616031579445"><ele>989.0000000000001</ele><time>2026-04-12T12:35:42Z</time></trkpt><trkpt lat="45.67137023881231" lon="10.848549328595075"><ele>989.0</ele><time>2026-04-12T12:35:43Z</time></trkpt><trkpt lat="45.67126914184076" lon="10.848480498213798"><ele>989.0</ele><time>2026-04-12T12:35:44Z</time></trkpt><trkpt lat="45.67116806412952" lon="10.848409980342753"><ele>994.8333333333334</ele><time>2026-04-12T12:35:45Z</time></trkpt><trkpt lat="45.67107356242662" lon="10.848369923654408"><ele>1000.6666666666667</ele><time>2026-04-12T12:35:46Z</time></trkpt><trkpt lat="45.67097279655291" lon="10.848334213431745"><ele>1006.5</ele><time>2026-04-12T12:35:47Z</time></trkpt><trkpt lat="45.67090401077921" lon="10.848295201845334"><ele>1012.3333333333333</ele><time>2026-04-12T12:35:48Z</time></trkpt><trkpt lat="45.67083302565383" lon="10.84834938181526"><ele>1018.1666666666666</ele><time>2026-04-12T12:35:49.001Z</time></trkpt><trkpt lat="45.67074587195858" lon="10.848394415136225"><ele>1024.0</ele><time>2026-04-12T12:35:50.001Z</time></trkpt><trkpt lat="45.670668824433896" lon="10.848457707365665"><ele>1018.6</ele><time>2026-04-12T12:35:51.001Z</time></trkpt><trkpt lat="45.670571638002755" lon="10.848522015751307"><ele>1013.2</ele><time>2026-04-12T12:35:52.001Z</time></trkpt><trkpt lat="45.67049174569486" lon="10.848612535916805"><ele>1007.8000000000001</ele><time>2026-04-12T12:35:53.001Z</time></trkpt><trkpt lat="45.67040782252297" lon="10.848709505313359"><ele>1002.4000000000001</ele><time>2026-04-12T12:35:54.001Z</time></trkpt><trkpt lat="45.67032474567094" lon="10.848810230279977"><ele>997.0</ele><time>2026-04-12T12:35:55.001Z</time></trkpt><trkpt lat="45.670228377050954" lon="10.848855784670793"><ele>997.0</ele><time>2026-04-12T12:35:56.001Z</time></trkpt><trkpt lat="45.67013404877765" lon="10.848893766628835"><ele>997.0</ele><time>2026-04-12T12:35:57.001Z</time></trkpt><trkpt lat="45.67004569919473" lon="10.848927380081317"><ele>997.0</ele><time>2026-04-12T12:35:58.001Z</time></trkpt><trkpt lat="45.66994888667571" lon="10.848960756010795"><ele>997.0</ele><time>2026-04-12T12:35:59.001Z</time></trkpt><trkpt lat="45.66985767487928" lon="10.84899245618591"><ele>997.0</ele><time>2026-04-12T12:36:00.001Z</time></trkpt><trkpt lat="45.669769637126635" lon="10.849047628207002"><ele>996.9999999999999</ele><time>2026-04-12T12:36:01.001Z</time></trkpt><trkpt lat="45.6696838154606" lon="10.849054879749959"><ele>997.0</ele><time>2026-04-12T12:36:02.001Z</time></trkpt><trkpt lat="45.66960516802978" lon="10.84908311774736"><ele>997.0</ele><time>2026-04-12T12:36:03.001Z</time></trkpt><trkpt lat="45.66953049033322" lon="10.84910993040873"><ele>997.0</ele><time>2026-04-12T12:36:04.001Z</time></trkpt><trkpt lat="45.669448234809124" lon="10.84913946389393"><ele>996.9999999999999</ele><time>2026-04-12T12:36:05.001Z</time></trkpt><trkpt lat="45.66937262854409" lon="10.849166609971805"><ele>997.0</ele><time>2026-04-12T12:36:06.001Z</time></trkpt><trkpt lat="45.66930294208623" lon="10.84919163253871"><ele>998.8333333333333</ele><time>2026-04-12T12:36:07.001Z</time></trkpt><trkpt lat="45.669220313893106" lon="10.849221299816435"><ele>1000.6666666666666</ele><time>2026-04-12T12:36:08.001Z</time></trkpt><trkpt lat="45.66913600417066" lon="10.849264284128134"><ele>1002.5</ele><time>2026-04-12T12:36:09.001Z</time></trkpt><trkpt lat="45.66904659451782" lon="10.849297241141576"><ele>1004.3333333333333</ele><time>2026-04-12T12:36:10.001Z</time></trkpt><trkpt lat="45.6689710228261" lon="10.849329038796798"><ele>1006.1666666666666</ele><time>2026-04-12T12:36:11.001Z</time></trkpt><trkpt lat="45.668885168574384" lon="10.84935373522028"><ele>1008.0</ele><time>2026-04-12T12:36:12.001Z</time></trkpt><trkpt lat="45.66880836548709" lon="10.849383558568109"><ele>1005.0</ele><time>2026-04-12T12:36:13.001Z</time></trkpt><trkpt lat="45.66872493726692" lon="10.849415850669109"><ele>1002.0</ele><time>2026-04-12T12:36:14.001Z</time></trkpt><trkpt lat="45.66863807484053" lon="10.84944029893974"><ele>999.0</ele><time>2026-04-12T12:36:15.001Z</time></trkpt><trkpt lat="45.66855613890876" lon="10.849481086505618"><ele>996.0</ele><time>2026-04-12T12:36:16.001Z</time></trkpt><trkpt lat="45.6684592793546" lon="10.84951206882564"><ele>993.0</ele><time>2026-04-12T12:36:17.001Z</time></trkpt><trkpt lat="45.66836016594951" lon="10.849547983312988"><ele>993.0</ele><time>2026-04-12T12:36:18.001Z</time></trkpt><trkpt lat="45.668251302298096" lon="10.849586994889801"><ele>993.0</ele><time>2026-04-12T12:36:19.001Z</time></trkpt><trkpt lat="45.66815133913899" lon="10.849626847638346"><ele>993.0</ele><time>2026-04-12T12:36:20.001Z</time></trkpt><trkpt lat="45.668029812895874" lon="10.84966021547049"><ele>993.0</ele><time>2026-04-12T12:36:21.001Z</time></trkpt><trkpt lat="45.66792136829195" lon="10.849690060717439"><ele>993.0</ele><time>2026-04-12T12:36:22.001Z</time></trkpt><trkpt lat="45.667809205946654" lon="10.849657674865695"><ele>993.0</ele><time>2026-04-12T12:36:23.001Z</time></trkpt><trkpt lat="45.66769299326351" lon="10.849637086270281"><ele>993.0</ele><time>2026-04-12T12:36:24.001Z</time></trkpt><trkpt lat="45.667576808633115" lon="10.849600306308297"><ele>993.0</ele><time>2026-04-12T12:36:25.001Z</time></trkpt><trkpt lat="45.66745470401019" lon="10.849551547612068"><ele>995.25</ele><time>2026-04-12T12:36:26.001Z</time></trkpt><trkpt lat="45.66733130353591" lon="10.849481181923919"><ele>997.5</ele><time>2026-04-12T12:36:27.001Z</time></trkpt><trkpt lat="45.66720475265258" lon="10.849409480002832"><ele>999.75</ele><time>2026-04-12T12:36:28.001Z</time></trkpt><trkpt lat="45.66710144357542" lon="10.84935171628986"><ele>1002.0</ele><time>2026-04-12T12:36:29.001Z</time></trkpt><trkpt lat="45.666983544196" lon="10.849316433011971"><ele>1003.5</ele><time>2026-04-12T12:36:30.001Z</time></trkpt><trkpt lat="45.66686389791177" lon="10.849268905420791"><ele>1005.0</ele><time>2026-04-12T12:36:31.001Z</time></trkpt><trkpt lat="45.66673842208166" lon="10.84925872829689"><ele>1006.5</ele><time>2026-04-12T12:36:32.001Z</time></trkpt><trkpt lat="45.66660710402609" lon="10.849268917629406"><ele>1008.0</ele><time>2026-04-12T12:36:33.001Z</time></trkpt><trkpt lat="45.66648322929035" lon="10.849282238598558"><ele>1008.0</ele><time>2026-04-12T12:36:34.001Z</time></trkpt><trkpt lat="45.66636242663674" lon="10.849290700327293"><ele>1008.0</ele><time>2026-04-12T12:36:35.001Z</time></trkpt><trkpt lat="45.666229628304535" lon="10.849275822982566"><ele>1008.0</ele><time>2026-04-12T12:36:36.001Z</time></trkpt><trkpt lat="45.666094913315675" lon="10.849200609144242"><ele>1008.0</ele><time>2026-04-12T12:36:37.001Z</time></trkpt><trkpt lat="45.665947707285035" lon="10.849169668955046"><ele>1007.3333333333333</ele><time>2026-04-12T12:36:38.001Z</time></trkpt><trkpt lat="45.665801788383455" lon="10.849157851852715"><ele>1006.6666666666666</ele><time>2026-04-12T12:36:39.001Z</time></trkpt><trkpt lat="45.66563613318959" lon="10.849193108520645"><ele>1006.0</ele><time>2026-04-12T12:36:40.001Z</time></trkpt><trkpt lat="45.66546200552831" lon="10.849255567140236"><ele>1004.6666666666666</ele><time>2026-04-12T12:36:41.001Z</time></trkpt><trkpt lat="45.66528650852066" lon="10.84929809889056"><ele>1003.3333333333333</ele><time>2026-04-12T12:36:42.001Z</time></trkpt><trkpt lat="45.66510646136308" lon="10.849286365794669"><ele>1002.0</ele><time>2026-04-12T12:36:43.001Z</time></trkpt><trkpt lat="45.66492678772375" lon="10.849224913319116"><ele>1002.0</ele><time>2026-04-12T12:36:44.001Z</time></trkpt><trkpt lat="45.66475289145124" lon="10.8491567265588"><ele>1002.0</ele><time>2026-04-12T12:36:45.001Z</time></trkpt><trkpt lat="45.66458849349225" lon="10.849121216434545"><ele>1002.0</ele><time>2026-04-12T12:36:46.001Z</time></trkpt><trkpt lat="45.664424699047636" lon="10.849134090820241"><ele>1001.6666666666667</ele><time>2026-04-12T12:36:47.001Z</time></trkpt><trkpt lat="45.66424853787494" lon="10.849186995700771"><ele>1001.3333333333334</ele><time>2026-04-12T12:36:48.001Z</time></trkpt><trkpt lat="45.66406735237011" lon="10.84924030802933"><ele>1001.0</ele><time>2026-04-12T12:36:49.001Z</time></trkpt><trkpt lat="45.66388106100857" lon="10.8492653443578"><ele>1003.6666666666667</ele><time>2026-04-12T12:36:50.001Z</time></trkpt><trkpt lat="45.66371009881763" lon="10.849348356220606"><ele>1006.3333333333333</ele><time>2026-04-12T12:36:51.001Z</time></trkpt><trkpt lat="45.66355694386719" lon="10.849389333577452"><ele>1009.0</ele><time>2026-04-12T12:36:52.001Z</time></trkpt><trkpt lat="45.66343368406362" lon="10.849418602986438"><ele>1009.0</ele><time>2026-04-12T12:36:53.001Z</time></trkpt><trkpt lat="45.66331933680242" lon="10.849380173425393"><ele>1009.0</ele><time>2026-04-12T12:36:54.001Z</time></trkpt><trkpt lat="45.6632064098788" lon="10.849291831717562"><ele>1009.0</ele><time>2026-04-12T12:36:55.001Z</time></trkpt><trkpt lat="45.66307596583701" lon="10.849239622492172"><ele>1009.0</ele><time>2026-04-12T12:36:56.001Z</time></trkpt><trkpt lat="45.662941174067754" lon="10.849199905229414"><ele>1005.0</ele><time>2026-04-12T12:36:57.001Z</time></trkpt><trkpt lat="45.66278353900532" lon="10.849202543223177"><ele>1001.0</ele><time>2026-04-12T12:36:58.001Z</time></trkpt><trkpt lat="45.66263132831712" lon="10.849209662857032"><ele>997.0</ele><time>2026-04-12T12:36:59.001Z</time></trkpt><trkpt lat="45.66248164955643" lon="10.849252995173677"><ele>1001.6666666666666</ele><time>2026-04-12T12:37:00.001Z</time></trkpt><trkpt lat="45.662326276820195" lon="10.849321352230767"><ele>1006.3333333333333</ele><time>2026-04-12T12:37:01.001Z</time></trkpt><trkpt lat="45.66216189335664" lon="10.849349456848277"><ele>1011.0</ele><time>2026-04-12T12:37:02.001Z</time></trkpt><trkpt lat="45.66199357449652" lon="10.849370236169845"><ele>1009.0</ele><time>2026-04-12T12:37:03.001Z</time></trkpt><trkpt lat="45.66183677046053" lon="10.84940444719175"><ele>1007.0</ele><time>2026-04-12T12:37:04.001Z</time></trkpt><trkpt lat="45.66169498231754" lon="10.849418128617435"><ele>1005.0</ele><time>2026-04-12T12:37:05.001Z</time></trkpt><trkpt lat="45.66156047089899" lon="10.849456095362827"><ele>1003.0</ele><time>2026-04-12T12:37:06.001Z</time></trkpt><trkpt lat="45.66143730278383" lon="10.84953475222843"><ele>1003.0</ele><time>2026-04-12T12:37:07.001Z</time></trkpt><trkpt lat="45.661319220902435" lon="10.849668380069975"><ele>1003.0</ele><time>2026-04-12T12:37:08.001Z</time></trkpt><trkpt lat="45.661204974959766" lon="10.84983659413488"><ele>1003.0</ele><time>2026-04-12T12:37:09.001Z</time></trkpt><trkpt lat="45.66107024298041" lon="10.84993618253804"><ele>1000.3333333333333</ele><time>2026-04-12T12:37:10.001Z</time></trkpt><trkpt lat="45.66092706562258" lon="10.849967289055677"><ele>997.6666666666667</ele><time>2026-04-12T12:37:11.001Z</time></trkpt><trkpt lat="45.660753136846914" lon="10.849974988539346"><ele>995.0</ele><time>2026-04-12T12:37:12.001Z</time></trkpt><trkpt lat="45.66055910907975" lon="10.8499878376538"><ele>995.0</ele><time>2026-04-12T12:37:13.001Z</time></trkpt><trkpt lat="45.66038842582443" lon="10.849999140770393"><ele>995.0</ele><time>2026-04-12T12:37:14.001Z</time></trkpt><trkpt lat="45.66025619343249" lon="10.850004664553321"><ele>995.0</ele><time>2026-04-12T12:37:15.001Z</time></trkpt><trkpt lat="45.66014463847559" lon="10.84998163758018"><ele>995.0</ele><time>2026-04-12T12:37:16.001Z</time></trkpt><trkpt lat="45.66004055866836" lon="10.84989513403631"><ele>996.0</ele><time>2026-04-12T12:37:17.001Z</time></trkpt><trkpt lat="45.65995248080441" lon="10.84973119709398"><ele>997.0</ele><time>2026-04-12T12:37:18.001Z</time></trkpt><trkpt lat="45.65985794364676" lon="10.849500240637564"><ele>998.0</ele><time>2026-04-12T12:37:19.001Z</time></trkpt><trkpt lat="45.65976894343463" lon="10.849270962211051"><ele>995.0</ele><time>2026-04-12T12:37:20Z</time></trkpt><trkpt lat="45.659705542746906" lon="10.849081942063671"><ele>992.0</ele><time>2026-04-12T12:37:21Z</time></trkpt><trkpt lat="45.6596754679065" lon="10.8489098445377"><ele>989.0</ele><time>2026-04-12T12:37:22Z</time></trkpt><trkpt lat="45.65968423494768" lon="10.848731469388328"><ele>986.0</ele><time>2026-04-12T12:37:23Z</time></trkpt><trkpt lat="45.65972713241783" lon="10.848575294338533"><ele>984.8</ele><time>2026-04-12T12:37:24Z</time></trkpt><trkpt lat="45.65972834967888" lon="10.848443079606163"><ele>983.5999999999999</ele><time>2026-04-12T12:37:25Z</time></trkpt><trkpt lat="45.659708754519" lon="10.848326889168785"><ele>982.4</ele><time>2026-04-12T12:37:26Z</time></trkpt><trkpt lat="45.65965850710935" lon="10.848215270187673"><ele>981.2</ele><time>2026-04-12T12:37:27Z</time></trkpt><trkpt lat="45.659578102822486" lon="10.848123369207668"><ele>980.0</ele><time>2026-04-12T12:37:28Z</time></trkpt><trkpt lat="45.6594703028349" lon="10.84804157556604"><ele>983.6666666666667</ele><time>2026-04-12T12:37:29Z</time></trkpt><trkpt lat="45.65933842329026" lon="10.847964340586632"><ele>987.3333333333333</ele><time>2026-04-12T12:37:30Z</time></trkpt><trkpt lat="45.659186750701856" lon="10.847881407182633"><ele>991.0</ele><time>2026-04-12T12:37:31Z</time></trkpt><trkpt lat="45.659020527644316" lon="10.847804694881644"><ele>991.0</ele><time>2026-04-12T12:37:32Z</time></trkpt><trkpt lat="45.658835064473685" lon="10.847688008578087"><ele>991.0</ele><time>2026-04-12T12:37:33Z</time></trkpt><trkpt lat="45.65863329388615" lon="10.847593569427943"><ele>991.0</ele><time>2026-04-12T12:37:34Z</time></trkpt><trkpt lat="45.658432331184606" lon="10.847460732460219"><ele>985.0</ele><time>2026-04-12T12:37:35Z</time></trkpt><trkpt lat="45.65822429118571" lon="10.84732595028274"><ele>979.0</ele><time>2026-04-12T12:37:36Z</time></trkpt><trkpt lat="45.65801187851826" lon="10.847207543454456"><ele>979.0</ele><time>2026-04-12T12:37:37Z</time></trkpt><trkpt lat="45.65780771837369" lon="10.84711034193959"><ele>979.0</ele><time>2026-04-12T12:37:38Z</time></trkpt><trkpt lat="45.657612036848974" lon="10.847017345176004"><ele>979.0</ele><time>2026-04-12T12:37:39Z</time></trkpt><trkpt lat="45.657424211135314" lon="10.84692345417096"><ele>979.6666666666666</ele><time>2026-04-12T12:37:40Z</time></trkpt><trkpt lat="45.65724042606945" lon="10.846842835241489"><ele>980.3333333333333</ele><time>2026-04-12T12:37:41Z</time></trkpt><trkpt lat="45.657054701841865" lon="10.84677621307156"><ele>981.0</ele><time>2026-04-12T12:37:42Z</time></trkpt><trkpt lat="45.656871408405664" lon="10.84671399204953"><ele>977.0</ele><time>2026-04-12T12:37:43Z</time></trkpt><trkpt lat="45.656703092431655" lon="10.84663053880727"><ele>973.0</ele><time>2026-04-12T12:37:44Z</time></trkpt><trkpt lat="45.6565476915461" lon="10.84660119317564"><ele>969.0</ele><time>2026-04-12T12:37:45Z</time></trkpt><trkpt lat="45.656410062019866" lon="10.846523078632542"><ele>969.0</ele><time>2026-04-12T12:37:46Z</time></trkpt><trkpt lat="45.65627225946959" lon="10.846425512637772"><ele>969.0</ele><time>2026-04-12T12:37:47Z</time></trkpt><trkpt lat="45.65611865101955" lon="10.84630655869712"><ele>969.0</ele><time>2026-04-12T12:37:48Z</time></trkpt><trkpt lat="45.655954032133025" lon="10.846196160483169"><ele>969.0</ele><time>2026-04-12T12:37:49Z</time></trkpt><trkpt lat="45.65581360256104" lon="10.846083148538028"><ele>969.0</ele><time>2026-04-12T12:37:50Z</time></trkpt><trkpt lat="45.655685074477184" lon="10.84598530868336"><ele>969.0</ele><time>2026-04-12T12:37:51Z</time></trkpt><trkpt lat="45.65556643592503" lon="10.845907622106159"><ele>969.0</ele><time>2026-04-12T12:37:52Z</time></trkpt><trkpt lat="45.65544060556085" lon="10.845853760814835"><ele>964.3333333333333</ele><time>2026-04-12T12:37:53Z</time></trkpt><trkpt lat="45.655293711186964" lon="10.845810020164324"><ele>959.6666666666666</ele><time>2026-04-12T12:37:54Z</time></trkpt><trkpt lat="45.65513287207254" lon="10.84578216197248"><ele>955.0</ele><time>2026-04-12T12:37:55Z</time></trkpt><trkpt lat="45.65498647989291" lon="10.845773715836406"><ele>955.0</ele><time>2026-04-12T12:37:56Z</time></trkpt><trkpt lat="45.654859145218005" lon="10.84575876049765"><ele>955.0</ele><time>2026-04-12T12:37:57Z</time></trkpt><trkpt lat="45.65473679717512" lon="10.845695933077529"><ele>955.0</ele><time>2026-04-12T12:37:58Z</time></trkpt><trkpt lat="45.65465193140543" lon="10.84552505954202"><ele>955.0</ele><time>2026-04-12T12:37:59Z</time></trkpt><trkpt lat="45.65452574294616" lon="10.845407570691831"><ele>955.0</ele><time>2026-04-12T12:38:00Z</time></trkpt><trkpt lat="45.654387710942" lon="10.845291366357474"><ele>955.0</ele><time>2026-04-12T12:38:01Z</time></trkpt><trkpt lat="45.6542112332356" lon="10.845204007572885"><ele>955.0</ele><time>2026-04-12T12:38:02Z</time></trkpt><trkpt lat="45.65402716478121" lon="10.845074187507299"><ele>951.6666666666666</ele><time>2026-04-12T12:38:03Z</time></trkpt><trkpt lat="45.6538364679654" lon="10.844954053246978"><ele>948.3333333333333</ele><time>2026-04-12T12:38:04Z</time></trkpt><trkpt lat="45.65365124494736" lon="10.844867497967977"><ele>945.0</ele><time>2026-04-12T12:38:05Z</time></trkpt><trkpt lat="45.653501537972474" lon="10.844777661675286"><ele>943.0</ele><time>2026-04-12T12:38:06Z</time></trkpt><trkpt lat="45.65337861586321" lon="10.844663675911807"><ele>941.0</ele><time>2026-04-12T12:38:07Z</time></trkpt><trkpt lat="45.65326289275796" lon="10.844534066311823"><ele>939.0</ele><time>2026-04-12T12:38:08Z</time></trkpt><trkpt lat="45.653136798800325" lon="10.84438427888747"><ele>937.5</ele><time>2026-04-12T12:38:09Z</time></trkpt><trkpt lat="45.653022522477485" lon="10.844248609587073"><ele>936.0</ele><time>2026-04-12T12:38:10Z</time></trkpt><trkpt lat="45.652929294873616" lon="10.844124137480952"><ele>934.5</ele><time>2026-04-12T12:38:11Z</time></trkpt><trkpt lat="45.652867060990694" lon="10.843995367466569"><ele>933.0</ele><time>2026-04-12T12:38:12Z</time></trkpt><trkpt lat="45.65284010507801" lon="10.843856659020256"><ele>933.0</ele><time>2026-04-12T12:38:13Z</time></trkpt><trkpt lat="45.65280018578903" lon="10.843749838111446"><ele>933.0</ele><time>2026-04-12T12:38:14Z</time></trkpt><trkpt lat="45.652692857474726" lon="10.843639556322216"><ele>933.0</ele><time>2026-04-12T12:38:16Z</time></trkpt><trkpt lat="45.65259999198175" lon="10.843734062437214"><ele>933.0</ele><time>2026-04-12T12:38:17Z</time></trkpt><trkpt lat="45.65255011075877" lon="10.843853474780033"><ele>933.0</ele><time>2026-04-12T12:38:18Z</time></trkpt><trkpt lat="45.65254756843782" lon="10.84401217081061"><ele>931.25</ele><time>2026-04-12T12:38:19Z</time></trkpt><trkpt lat="45.65257784107035" lon="10.84419205090921"><ele>929.5</ele><time>2026-04-12T12:38:20Z</time></trkpt><trkpt lat="45.65260918709866" lon="10.844383629704462"><ele>927.75</ele><time>2026-04-12T12:38:21Z</time></trkpt><trkpt lat="45.652643384335725" lon="10.844553550113345"><ele>926.0</ele><time>2026-04-12T12:38:22Z</time></trkpt><trkpt lat="45.65270883632308" lon="10.844731459866154"><ele>929.0</ele><time>2026-04-12T12:38:23Z</time></trkpt><trkpt lat="45.65280563426574" lon="10.84493300259221"><ele>932.0</ele><time>2026-04-12T12:38:24Z</time></trkpt><trkpt lat="45.65291949525046" lon="10.845153851966638"><ele>935.0</ele><time>2026-04-12T12:38:25Z</time></trkpt><trkpt lat="45.653025797805014" lon="10.84538901147857"><ele>935.0</ele><time>2026-04-12T12:38:26Z</time></trkpt><trkpt lat="45.65309967622744" lon="10.845668644343059"><ele>935.0</ele><time>2026-04-12T12:38:27Z</time></trkpt><trkpt lat="45.65318258140227" lon="10.845953775711669"><ele>935.0</ele><time>2026-04-12T12:38:28Z</time></trkpt><trkpt lat="45.65325923286366" lon="10.846233440956802"><ele>935.3333333333334</ele><time>2026-04-12T12:38:29Z</time></trkpt><trkpt lat="45.653342325425186" lon="10.846476101120281"><ele>935.6666666666667</ele><time>2026-04-12T12:38:30Z</time></trkpt><trkpt lat="45.65339597116101" lon="10.846691951586298"><ele>936.0</ele><time>2026-04-12T12:38:31Z</time></trkpt><trkpt lat="45.65345569422701" lon="10.846875402616652"><ele>936.0</ele><time>2026-04-12T12:38:32Z</time></trkpt><trkpt lat="45.65348007243623" lon="10.846996739457083"><ele>935.9999999999999</ele><time>2026-04-12T12:38:33Z</time></trkpt><trkpt lat="45.65350216624284" lon="10.84713206733782"><ele>935.9999999999999</ele><time>2026-04-12T12:38:34Z</time></trkpt><trkpt lat="45.653447531719536" lon="10.847260913683883"><ele>936.0</ele><time>2026-04-12T12:38:35Z</time></trkpt><trkpt lat="45.653388060079735" lon="10.8473739184707"><ele>936.0</ele><time>2026-04-12T12:38:36Z</time></trkpt><trkpt lat="45.6532403265389" lon="10.847411537488215"><ele>936.0</ele><time>2026-04-12T12:38:37Z</time></trkpt><trkpt lat="45.65310182476293" lon="10.847477376345344"><ele>936.0</ele><time>2026-04-12T12:38:38Z</time></trkpt><trkpt lat="45.65296436711792" lon="10.8474970731058"><ele>936.0</ele><time>2026-04-12T12:38:39Z</time></trkpt><trkpt lat="45.65284587436406" lon="10.847462203070883"><ele>936.0</ele><time>2026-04-12T12:38:40Z</time></trkpt><trkpt lat="45.652739364396474" lon="10.847378062805712"><ele>933.1999999999999</ele><time>2026-04-12T12:38:41Z</time></trkpt><trkpt lat="45.65263350087816" lon="10.847275956901811"><ele>930.3999999999999</ele><time>2026-04-12T12:38:42Z</time></trkpt><trkpt lat="45.65253261895809" lon="10.847217832626518"><ele>927.6</ele><time>2026-04-12T12:38:43Z</time></trkpt><trkpt lat="45.65245102526199" lon="10.847184496882388"><ele>924.8</ele><time>2026-04-12T12:38:44.001Z</time></trkpt><trkpt lat="45.65237111676889" lon="10.847218302779686"><ele>922.0</ele><time>2026-04-12T12:38:45.001Z</time></trkpt><trkpt lat="45.65230328261308" lon="10.84731871396195"><ele>922.0</ele><time>2026-04-12T12:38:46.001Z</time></trkpt><trkpt lat="45.65227828993832" lon="10.847462284547357"><ele>922.0</ele><time>2026-04-12T12:38:47.001Z</time></trkpt><trkpt lat="45.6523063107286" lon="10.847630173995162"><ele>922.0</ele><time>2026-04-12T12:38:48.001Z</time></trkpt><trkpt lat="45.65237453369693" lon="10.847800174452585"><ele>922.0</ele><time>2026-04-12T12:38:49.001Z</time></trkpt><trkpt lat="45.65241495776633" lon="10.84794464650509"><ele>922.6</ele><time>2026-04-12T12:38:50.001Z</time></trkpt><trkpt lat="45.65243161790368" lon="10.848061516460369"><ele>923.2</ele><time>2026-04-12T12:38:51.001Z</time></trkpt><trkpt lat="45.6523967569463" lon="10.848161467057091"><ele>923.8</ele><time>2026-04-12T12:38:52.001Z</time></trkpt><trkpt lat="45.65229932863512" lon="10.848192108846845"><ele>924.4</ele><time>2026-04-12T12:38:53.001Z</time></trkpt><trkpt lat="45.65221162482776" lon="10.84816241645987"><ele>925.0</ele><time>2026-04-12T12:38:54.001Z</time></trkpt><trkpt lat="45.6521222626044" lon="10.848092075579379"><ele>925.0</ele><time>2026-04-12T12:38:55.001Z</time></trkpt><trkpt lat="45.651996757331936" lon="10.848004208660726"><ele>925.0</ele><time>2026-04-12T12:38:56.001Z</time></trkpt><trkpt lat="45.65185448224021" lon="10.847900949250864"><ele>925.0</ele><time>2026-04-12T12:38:57.001Z</time></trkpt><trkpt lat="45.65170250830224" lon="10.847788918952777"><ele>924.75</ele><time>2026-04-12T12:38:58.001Z</time></trkpt><trkpt lat="45.65155960366179" lon="10.847683175923141"><ele>924.5</ele><time>2026-04-12T12:38:59.001Z</time></trkpt><trkpt lat="45.651450899767134" lon="10.847601689408405"><ele>924.25</ele><time>2026-04-12T12:39:00.001Z</time></trkpt><trkpt lat="45.6513492288019" lon="10.8475297446971"><ele>924.0</ele><time>2026-04-12T12:39:01.001Z</time></trkpt><trkpt lat="45.651247637796246" lon="10.84748834447498"><ele>921.4000000000001</ele><time>2026-04-12T12:39:02.001Z</time></trkpt><trkpt lat="45.651179919076434" lon="10.847502852027835"><ele>918.8000000000001</ele><time>2026-04-12T12:39:03.001Z</time></trkpt><trkpt lat="45.651105901332976" lon="10.847573332324231"><ele>916.1999999999999</ele><time>2026-04-12T12:39:04.001Z</time></trkpt><trkpt lat="45.651061376183186" lon="10.847716908510147"><ele>913.5999999999999</ele><time>2026-04-12T12:39:05.001Z</time></trkpt><trkpt lat="45.65099427179966" lon="10.847845602738435"><ele>911.0</ele><time>2026-04-12T12:39:06.001Z</time></trkpt><trkpt lat="45.650911474213835" lon="10.847977775517148"><ele>909.75</ele><time>2026-04-12T12:39:07.001Z</time></trkpt><trkpt lat="45.65080980759918" lon="10.848076733808623"><ele>908.5</ele><time>2026-04-12T12:39:08.001Z</time></trkpt><trkpt lat="45.65069424220056" lon="10.848204873057925"><ele>907.25</ele><time>2026-04-12T12:39:09Z</time></trkpt><trkpt lat="45.65058842831539" lon="10.848310963256086"><ele>906.0</ele><time>2026-04-12T12:39:10Z</time></trkpt><trkpt lat="45.65047954882718" lon="10.84840397485633"><ele>909.75</ele><time>2026-04-12T12:39:11Z</time></trkpt><trkpt lat="45.65039927642608" lon="10.848511519256027"><ele>913.5</ele><time>2026-04-12T12:39:12Z</time></trkpt><trkpt lat="45.65033980853146" lon="10.84863916679593"><ele>917.25</ele><time>2026-04-12T12:39:13Z</time></trkpt><trkpt lat="45.65029234757028" lon="10.848808752064388"><ele>921.0</ele><time>2026-04-12T12:39:14Z</time></trkpt><trkpt lat="45.6502290965621" lon="10.848986618999112"><ele>916.1999999999999</ele><time>2026-04-12T12:39:15Z</time></trkpt><trkpt lat="45.65017447383829" lon="10.849148964757601"><ele>911.3999999999999</ele><time>2026-04-12T12:39:16Z</time></trkpt><trkpt lat="45.65012141960751" lon="10.849284118462874"><ele>906.6</ele><time>2026-04-12T12:39:17Z</time></trkpt><trkpt lat="45.65005676299086" lon="10.849353923955618"><ele>901.8</ele><time>2026-04-12T12:39:18Z</time></trkpt><trkpt lat="45.64999366780705" lon="10.849403787063125"><ele>897.0</ele><time>2026-04-12T12:39:19Z</time></trkpt><trkpt lat="45.64989284426682" lon="10.849378370305011"><ele>897.0</ele><time>2026-04-12T12:39:20Z</time></trkpt><trkpt lat="45.64981313013569" lon="10.849310114001444"><ele>897.0</ele><time>2026-04-12T12:39:21Z</time></trkpt><trkpt lat="45.649728858825405" lon="10.849291780706581"><ele>897.0</ele><time>2026-04-12T12:39:22Z</time></trkpt><trkpt lat="45.64965190477979" lon="10.84928556984293"><ele>897.0</ele><time>2026-04-12T12:39:23Z</time></trkpt><trkpt lat="45.64956452976364" lon="10.849336355574458"><ele>897.0</ele><time>2026-04-12T12:39:24Z</time></trkpt><trkpt lat="45.64946623422265" lon="10.849404030843909"><ele>893.4000000000001</ele><time>2026-04-12T12:39:25Z</time></trkpt><trkpt lat="45.649372412611044" lon="10.849462575439912"><ele>889.8000000000001</ele><time>2026-04-12T12:39:26Z</time></trkpt><trkpt lat="45.64928606186394" lon="10.8495380872175"><ele>886.2</ele><time>2026-04-12T12:39:27Z</time></trkpt><trkpt lat="45.64921080283626" lon="10.84966057710718"><ele>882.6</ele><time>2026-04-12T12:39:28Z</time></trkpt><trkpt lat="45.64914276135445" lon="10.84981242218253"><ele>879.0</ele><time>2026-04-12T12:39:29Z</time></trkpt><trkpt lat="45.64907344382202" lon="10.849996711532926"><ele>880.8000000000001</ele><time>2026-04-12T12:39:30Z</time></trkpt><trkpt lat="45.648993108790386" lon="10.850157588419632"><ele>882.6000000000001</ele><time>2026-04-12T12:39:31Z</time></trkpt><trkpt lat="45.648916134435254" lon="10.85029087760769"><ele>884.4</ele><time>2026-04-12T12:39:32Z</time></trkpt><trkpt lat="45.64884261175307" lon="10.850376409775125"><ele>886.2</ele><time>2026-04-12T12:39:33Z</time></trkpt><trkpt lat="45.64879137110508" lon="10.850451553484469"><ele>888.0</ele><time>2026-04-12T12:39:34Z</time></trkpt><trkpt lat="45.64868681538266" lon="10.850529990792321"><ele>884.3333333333334</ele><time>2026-04-12T12:39:36Z</time></trkpt><trkpt lat="45.64861719685295" lon="10.85051286095209"><ele>880.6666666666667</ele><time>2026-04-12T12:39:37Z</time></trkpt><trkpt lat="45.64853829832168" lon="10.850487570253827"><ele>877.0</ele><time>2026-04-12T12:39:38Z</time></trkpt><trkpt lat="45.64846126286753" lon="10.850487570251254"><ele>873.3333333333334</ele><time>2026-04-12T12:39:39Z</time></trkpt><trkpt lat="45.648384118826066" lon="10.85051698567387"><ele>869.6666666666667</ele><time>2026-04-12T12:39:40Z</time></trkpt><trkpt lat="45.6483354562966" lon="10.850625909499646"><ele>866.0</ele><time>2026-04-12T12:39:41Z</time></trkpt><trkpt lat="45.648288137971065" lon="10.850720348393168"><ele>866.0</ele><time>2026-04-12T12:39:42Z</time></trkpt><trkpt lat="45.64825923797647" lon="10.850836728640152"><ele>865.9999999999999</ele><time>2026-04-12T12:39:43Z</time></trkpt><trkpt lat="45.648248002407044" lon="10.850976848516913"><ele>865.9999999999999</ele><time>2026-04-12T12:39:44Z</time></trkpt><trkpt lat="45.64822161869786" lon="10.851079010012064"><ele>866.0</ele><time>2026-04-12T12:39:45Z</time></trkpt><trkpt lat="45.64816722749998" lon="10.85117786230063"><ele>866.0</ele><time>2026-04-12T12:39:46Z</time></trkpt><trkpt lat="45.64807650441854" lon="10.851274494225823"><ele>867.1999999999999</ele><time>2026-04-12T12:39:47Z</time></trkpt><trkpt lat="45.64798507825457" lon="10.851365429926206"><ele>868.3999999999999</ele><time>2026-04-12T12:39:48Z</time></trkpt><trkpt lat="45.64790055674416" lon="10.851453290095703"><ele>869.6</ele><time>2026-04-12T12:39:49Z</time></trkpt><trkpt lat="45.6478161395856" lon="10.851540620462423"><ele>870.8</ele><time>2026-04-12T12:39:50Z</time></trkpt><trkpt lat="45.64773336645398" lon="10.851618512622583"><ele>872.0</ele><time>2026-04-12T12:39:51Z</time></trkpt><trkpt lat="45.64764695690566" lon="10.851674281220506"><ele>870.4000000000001</ele><time>2026-04-12T12:39:52Z</time></trkpt><trkpt lat="45.6475521837112" lon="10.851729823433192"><ele>868.8000000000001</ele><time>2026-04-12T12:39:53Z</time></trkpt><trkpt lat="45.64746314100993" lon="10.851780633578947"><ele>867.2</ele><time>2026-04-12T12:39:54Z</time></trkpt><trkpt lat="45.64736951586224" lon="10.851834451467909"><ele>865.6</ele><time>2026-04-12T12:39:55Z</time></trkpt><trkpt lat="45.64727953460838" lon="10.851888483067693"><ele>864.0</ele><time>2026-04-12T12:39:56Z</time></trkpt><trkpt lat="45.64719629810811" lon="10.851938464597925"><ele>864.0</ele><time>2026-04-12T12:39:57Z</time></trkpt><trkpt lat="45.647114754122875" lon="10.851982984713414"><ele>864.0</ele><time>2026-04-12T12:39:58Z</time></trkpt><trkpt lat="45.647027171453956" lon="10.852026205599593"><ele>864.0</ele><time>2026-04-12T12:39:59Z</time></trkpt><trkpt lat="45.64694314225132" lon="10.85205895731418"><ele>864.0</ele><time>2026-04-12T12:40:00Z</time></trkpt><trkpt lat="45.646858835163755" lon="10.852083532342775"><ele>864.0</ele><time>2026-04-12T12:40:01Z</time></trkpt><trkpt lat="45.64677079362283" lon="10.852097180514354"><ele>864.0</ele><time>2026-04-12T12:40:02Z</time></trkpt><trkpt lat="45.646680217251685" lon="10.852108211533901"><ele>863.6666666666666</ele><time>2026-04-12T12:40:03Z</time></trkpt><trkpt lat="45.64659141183767" lon="10.852116129182942"><ele>863.3333333333333</ele><time>2026-04-12T12:40:04Z</time></trkpt><trkpt lat="45.64650985460554" lon="10.85212115381374"><ele>863.0</ele><time>2026-04-12T12:40:05Z</time></trkpt><trkpt lat="45.64644784720442" lon="10.852146432092278"><ele>862.6666666666666</ele><time>2026-04-12T12:40:06Z</time></trkpt><trkpt lat="45.646381254690965" lon="10.852154510445228"><ele>862.3333333333333</ele><time>2026-04-12T12:40:08Z</time></trkpt><trkpt lat="45.64629048425907" lon="10.852148466362138"><ele>862.0</ele><time>2026-04-12T12:40:12Z</time></trkpt><trkpt lat="45.646224597865846" lon="10.852134027038579"><ele>862.0</ele><time>2026-04-12T12:40:14Z</time></trkpt><trkpt lat="45.64613418157009" lon="10.852147278253112"><ele>862.0</ele><time>2026-04-12T12:40:16Z</time></trkpt><trkpt lat="45.646012532855515" lon="10.852107034774455"><ele>862.0</ele><time>2026-04-12T12:40:18Z</time></trkpt><trkpt lat="45.64593565127053" lon="10.852097580418805"><ele>862.0</ele><time>2026-04-12T12:40:19Z</time></trkpt><trkpt lat="45.64585335941984" lon="10.852094159069246"><ele>862.0</ele><time>2026-04-12T12:40:20Z</time></trkpt><trkpt lat="45.64576404058052" lon="10.852092823285757"><ele>860.6</ele><time>2026-04-12T12:40:21Z</time></trkpt><trkpt lat="45.64567797730652" lon="10.852078247868873"><ele>859.2</ele><time>2026-04-12T12:40:22Z</time></trkpt><trkpt lat="45.64557998376129" lon="10.852021311101417"><ele>857.8</ele><time>2026-04-12T12:40:23Z</time></trkpt><trkpt lat="45.645478959764326" lon="10.851997391396997"><ele>856.4</ele><time>2026-04-12T12:40:24Z</time></trkpt><trkpt lat="45.645372784811315" lon="10.851953211357321"><ele>855.0</ele><time>2026-04-12T12:40:25Z</time></trkpt><trkpt lat="45.64526708392553" lon="10.851884390072467"><ele>854.25</ele><time>2026-04-12T12:40:26Z</time></trkpt><trkpt lat="45.64516239048968" lon="10.851801243271064"><ele>853.5</ele><time>2026-04-12T12:40:27Z</time></trkpt><trkpt lat="45.6450638525326" lon="10.851724868879005"><ele>852.75</ele><time>2026-04-12T12:40:28Z</time></trkpt><trkpt lat="45.644963582798205" lon="10.851651431263466"><ele>852.0</ele><time>2026-04-12T12:40:29Z</time></trkpt><trkpt lat="45.6448630553086" lon="10.8515854885619"><ele>849.6666666666666</ele><time>2026-04-12T12:40:30Z</time></trkpt><trkpt lat="45.64476620276526" lon="10.851558502535388"><ele>847.3333333333333</ele><time>2026-04-12T12:40:31Z</time></trkpt><trkpt lat="45.644693789226515" lon="10.85153126725082"><ele>845.0</ele><time>2026-04-12T12:40:32Z</time></trkpt><trkpt lat="45.64461128170908" lon="10.851474407179966"><ele>842.6666666666666</ele><time>2026-04-12T12:40:34Z</time></trkpt><trkpt lat="45.64454353225411" lon="10.851445200738535"><ele>840.3333333333333</ele><time>2026-04-12T12:40:36Z</time></trkpt><trkpt lat="45.64445406953561" lon="10.851425049887547"><ele>838.0</ele><time>2026-04-12T12:40:38Z</time></trkpt><trkpt lat="45.6443488281419" lon="10.85144008525784"><ele>836.8</ele><time>2026-04-12T12:40:40Z</time></trkpt><trkpt lat="45.64423874135508" lon="10.851463604166911"><ele>835.5999999999999</ele><time>2026-04-12T12:40:42Z</time></trkpt><trkpt lat="45.64413772402821" lon="10.851479367627428"><ele>834.4000000000001</ele><time>2026-04-12T12:40:44Z</time></trkpt><trkpt lat="45.64408659974992" lon="10.851533203178716"><ele>833.2</ele><time>2026-04-12T12:40:45Z</time></trkpt><trkpt lat="45.644023418964224" lon="10.851665446059465"><ele>832.0</ele><time>2026-04-12T12:40:47Z</time></trkpt><trkpt lat="45.64397236124434" lon="10.851721206580285"><ele>832.0</ele><time>2026-04-12T12:40:49Z</time></trkpt><trkpt lat="45.643946542856185" lon="10.851545787529542"><ele>832.0</ele><time>2026-04-12T12:40:51Z</time></trkpt><trkpt lat="45.64397373780204" lon="10.851432159823718"><ele>832.0</ele><time>2026-04-12T12:40:52Z</time></trkpt><trkpt lat="45.64397863013647" lon="10.851301017887094"><ele>832.0</ele><time>2026-04-12T12:40:53Z</time></trkpt><trkpt lat="45.644007854811264" lon="10.851186343308946"><ele>832.0</ele><time>2026-04-12T12:40:54Z</time></trkpt><trkpt lat="45.644045439527005" lon="10.851082948403395"><ele>832.0</ele><time>2026-04-12T12:40:55Z</time></trkpt><trkpt lat="45.644104949114464" lon="10.850999666182641"><ele>832.0</ele><time>2026-04-12T12:40:56Z</time></trkpt><trkpt lat="45.64418044043561" lon="10.850911376469455"><ele>832.0</ele><time>2026-04-12T12:40:57Z</time></trkpt><trkpt lat="45.6442797831716" lon="10.850840452974587"><ele>832.0</ele><time>2026-04-12T12:40:58Z</time></trkpt><trkpt lat="45.64438913751776" lon="10.850753407373139"><ele>832.0</ele><time>2026-04-12T12:40:59Z</time></trkpt><trkpt lat="45.644500960546296" lon="10.85066089827904"><ele>830.0</ele><time>2026-04-12T12:41:00Z</time></trkpt><trkpt lat="45.64459137411206" lon="10.850554772259818"><ele>828.0</ele><time>2026-04-12T12:41:01Z</time></trkpt><trkpt lat="45.64467692358819" lon="10.850485030733928"><ele>826.0</ele><time>2026-04-12T12:41:02Z</time></trkpt><trkpt lat="45.64475055644697" lon="10.850425471149322"><ele>824.0</ele><time>2026-04-12T12:41:03Z</time></trkpt><trkpt lat="45.644818924769396" lon="10.850383758424082"><ele>822.0</ele><time>2026-04-12T12:41:04Z</time></trkpt><trkpt lat="45.64490521946682" lon="10.850302593320986"><ele>822.0</ele><time>2026-04-12T12:41:06Z</time></trkpt><trkpt lat="45.64484867459119" lon="10.850175125941835"><ele>822.0</ele><time>2026-04-12T12:41:08Z</time></trkpt><trkpt lat="45.64468145894049" lon="10.850118245395242"><ele>822.0</ele><time>2026-04-12T12:41:10Z</time></trkpt><trkpt lat="45.644572535977495" lon="10.850088330469642"><ele>822.0</ele><time>2026-04-12T12:41:11Z</time></trkpt><trkpt lat="45.6444672073961" lon="10.850043233468027"><ele>818.4000000000001</ele><time>2026-04-12T12:41:12Z</time></trkpt><trkpt lat="45.64436620089648" lon="10.849978860243603"><ele>814.8000000000001</ele><time>2026-04-12T12:41:13Z</time></trkpt><trkpt lat="45.64427977968305" lon="10.849923454569076"><ele>811.2</ele><time>2026-04-12T12:41:14Z</time></trkpt><trkpt lat="45.64419231488008" lon="10.849876369494703"><ele>807.6</ele><time>2026-04-12T12:41:15Z</time></trkpt><trkpt lat="45.64408565250518" lon="10.849906239107467"><ele>804.0</ele><time>2026-04-12T12:41:16Z</time></trkpt><trkpt lat="45.64397160410159" lon="10.84992898476979"><ele>804.0</ele><time>2026-04-12T12:41:17Z</time></trkpt><trkpt lat="45.64386115267046" lon="10.849915850729094"><ele>804.0</ele><time>2026-04-12T12:41:18Z</time></trkpt><trkpt lat="45.64374131494803" lon="10.849896185150515"><ele>804.0</ele><time>2026-04-12T12:41:19Z</time></trkpt><trkpt lat="45.64361840090778" lon="10.849853567170982"><ele>804.0</ele><time>2026-04-12T12:41:20Z</time></trkpt><trkpt lat="45.64350561013397" lon="10.84982025302617"><ele>802.8000000000001</ele><time>2026-04-12T12:41:21Z</time></trkpt><trkpt lat="45.64340828299829" lon="10.849804701225805"><ele>801.6</ele><time>2026-04-12T12:41:22Z</time></trkpt><trkpt lat="45.64333089544625" lon="10.849804871986844"><ele>800.4</ele><time>2026-04-12T12:41:23Z</time></trkpt><trkpt lat="45.64326350330297" lon="10.849806146233483"><ele>799.2</ele><time>2026-04-12T12:41:24Z</time></trkpt><trkpt lat="45.64317012317883" lon="10.849805028707062"><ele>798.0</ele><time>2026-04-12T12:41:26Z</time></trkpt><trkpt lat="45.6431977962957" lon="10.849646088782999"><ele>798.0</ele><time>2026-04-12T12:41:28Z</time></trkpt><trkpt lat="45.64328980886224" lon="10.849590450279686"><ele>798.0</ele><time>2026-04-12T12:41:29Z</time></trkpt><trkpt lat="45.64338934427019" lon="10.84949817419215"><ele>798.0</ele><time>2026-04-12T12:41:30Z</time></trkpt><trkpt lat="45.643492429133815" lon="10.849422272355426"><ele>798.0</ele><time>2026-04-12T12:41:31Z</time></trkpt><trkpt lat="45.64358254448631" lon="10.84933940481039"><ele>798.0</ele><time>2026-04-12T12:41:32Z</time></trkpt><trkpt lat="45.64366089386594" lon="10.84923686655771"><ele>796.2</ele><time>2026-04-12T12:41:33Z</time></trkpt><trkpt lat="45.643720510992736" lon="10.84912220408442"><ele>794.4</ele><time>2026-04-12T12:41:34Z</time></trkpt><trkpt lat="45.643770553778786" lon="10.849013580562001"><ele>792.6</ele><time>2026-04-12T12:41:35Z</time></trkpt><trkpt lat="45.643823950395934" lon="10.848924318724807"><ele>790.8000000000001</ele><time>2026-04-12T12:41:36Z</time></trkpt><trkpt lat="45.64383941248685" lon="10.848798754434373"><ele>789.0</ele><time>2026-04-12T12:41:37Z</time></trkpt><trkpt lat="45.643782421485696" lon="10.848664224950609"><ele>789.0</ele><time>2026-04-12T12:41:38Z</time></trkpt><trkpt lat="45.643728111382345" lon="10.848552429958305"><ele>789.0</ele><time>2026-04-12T12:41:39Z</time></trkpt><trkpt lat="45.643690550219375" lon="10.848429919491988"><ele>789.0</ele><time>2026-04-12T12:41:40Z</time></trkpt><trkpt lat="45.643630290951265" lon="10.848332208151385"><ele>789.0</ele><time>2026-04-12T12:41:41Z</time></trkpt><trkpt lat="45.643578153934364" lon="10.848220692158344"><ele>789.0</ele><time>2026-04-12T12:41:42Z</time></trkpt><trkpt lat="45.643521221698336" lon="10.848106941541754"><ele>785.8000000000001</ele><time>2026-04-12T12:41:43Z</time></trkpt><trkpt lat="45.643468678215136" lon="10.847986021988431"><ele>782.6</ele><time>2026-04-12T12:41:44Z</time></trkpt><trkpt lat="45.64341226396585" lon="10.847864339861028"><ele>779.4</ele><time>2026-04-12T12:41:45Z</time></trkpt><trkpt lat="45.643358976996474" lon="10.847736903390734"><ele>776.2</ele><time>2026-04-12T12:41:46Z</time></trkpt><trkpt lat="45.643306137641396" lon="10.847604368727907"><ele>773.0</ele><time>2026-04-12T12:41:47Z</time></trkpt><trkpt lat="45.64325181723403" lon="10.84747177068056"><ele>771.5999999999999</ele><time>2026-04-12T12:41:48Z</time></trkpt><trkpt lat="45.64319783437318" lon="10.847333943910044"><ele>770.1999999999999</ele><time>2026-04-12T12:41:49Z</time></trkpt><trkpt lat="45.64314419058164" lon="10.84719752978893"><ele>768.8</ele><time>2026-04-12T12:41:50Z</time></trkpt><trkpt lat="45.64309089898646" lon="10.847066379964197"><ele>767.4</ele><time>2026-04-12T12:41:51Z</time></trkpt><trkpt lat="45.64302947879143" lon="10.846951727523116"><ele>766.0</ele><time>2026-04-12T12:41:52Z</time></trkpt><trkpt lat="45.642959363479754" lon="10.84685064465492"><ele>763.75</ele><time>2026-04-12T12:41:53Z</time></trkpt><trkpt lat="45.64288403052088" lon="10.846746058090204"><ele>761.5</ele><time>2026-04-12T12:41:54Z</time></trkpt><trkpt lat="45.642784797742685" lon="10.846653093758412"><ele>759.25</ele><time>2026-04-12T12:41:55Z</time></trkpt><trkpt lat="45.64267098579341" lon="10.846575006556739"><ele>757.0</ele><time>2026-04-12T12:41:56Z</time></trkpt><trkpt lat="45.64256691097246" lon="10.84646538183867"><ele>756.75</ele><time>2026-04-12T12:41:57Z</time></trkpt><trkpt lat="45.642471108353135" lon="10.846335152030326"><ele>756.5</ele><time>2026-04-12T12:41:58Z</time></trkpt><trkpt lat="45.64236870605124" lon="10.846207407316143"><ele>756.25</ele><time>2026-04-12T12:41:59Z</time></trkpt><trkpt lat="45.64225664071359" lon="10.846086777414651"><ele>756.0</ele><time>2026-04-12T12:42:00Z</time></trkpt><trkpt lat="45.642159596391885" lon="10.845948475062153"><ele>754.0</ele><time>2026-04-12T12:42:01Z</time></trkpt><trkpt lat="45.642049933347785" lon="10.845829415638546"><ele>752.0</ele><time>2026-04-12T12:42:02Z</time></trkpt><trkpt lat="45.64193463317794" lon="10.845724846686588"><ele>750.0</ele><time>2026-04-12T12:42:03Z</time></trkpt><trkpt lat="45.64181423900549" lon="10.845629707603337"><ele>748.0</ele><time>2026-04-12T12:42:04Z</time></trkpt><trkpt lat="45.64169635559687" lon="10.845544608491727"><ele>748.0</ele><time>2026-04-12T12:42:05Z</time></trkpt><trkpt lat="45.6415817659584" lon="10.845459273340246"><ele>748.0</ele><time>2026-04-12T12:42:06Z</time></trkpt><trkpt lat="45.641476760796856" lon="10.845372860725345"><ele>748.0</ele><time>2026-04-12T12:42:07Z</time></trkpt><trkpt lat="45.64137149140862" lon="10.845305435250358"><ele>748.0</ele><time>2026-04-12T12:42:08Z</time></trkpt><trkpt lat="45.64125988839736" lon="10.845254363310426"><ele>746.0</ele><time>2026-04-12T12:42:09Z</time></trkpt><trkpt lat="45.641131308251296" lon="10.8452289506162"><ele>744.0</ele><time>2026-04-12T12:42:10Z</time></trkpt><trkpt lat="45.640982693389155" lon="10.845217242565798"><ele>742.0</ele><time>2026-04-12T12:42:11Z</time></trkpt><trkpt lat="45.640835807841896" lon="10.845209910615857"><ele>740.0</ele><time>2026-04-12T12:42:12Z</time></trkpt><trkpt lat="45.640693740622055" lon="10.845195394981344"><ele>740.0</ele><time>2026-04-12T12:42:13Z</time></trkpt><trkpt lat="45.64056418344638" lon="10.845172606073524"><ele>740.0</ele><time>2026-04-12T12:42:14Z</time></trkpt><trkpt lat="45.64043805298422" lon="10.845142157501442"><ele>740.0</ele><time>2026-04-12T12:42:15Z</time></trkpt><trkpt lat="45.640315917559754" lon="10.845067674199417"><ele>740.0</ele><time>2026-04-12T12:42:16Z</time></trkpt><trkpt lat="45.64018688755752" lon="10.845022789236042"><ele>736.8</ele><time>2026-04-12T12:42:17Z</time></trkpt><trkpt lat="45.64006592506662" lon="10.844955778166248"><ele>733.6</ele><time>2026-04-12T12:42:18Z</time></trkpt><trkpt lat="45.63995657116002" lon="10.844895327121154"><ele>730.4000000000001</ele><time>2026-04-12T12:42:19Z</time></trkpt><trkpt lat="45.63986317443946" lon="10.844847064812775"><ele>727.2</ele><time>2026-04-12T12:42:20Z</time></trkpt><trkpt lat="45.63976189527232" lon="10.84482287849584"><ele>724.0</ele><time>2026-04-12T12:42:21Z</time></trkpt><trkpt lat="45.63965928920265" lon="10.84482609076821"><ele>724.0</ele><time>2026-04-12T12:42:22Z</time></trkpt><trkpt lat="45.639560652990326" lon="10.84483927457935"><ele>724.0</ele><time>2026-04-12T12:42:23Z</time></trkpt><trkpt lat="45.63948085002665" lon="10.84486596052558"><ele>724.0</ele><time>2026-04-12T12:42:24Z</time></trkpt><trkpt lat="45.63941801922062" lon="10.84491049227695"><ele>724.0</ele><time>2026-04-12T12:42:25Z</time></trkpt><trkpt lat="45.63931219438531" lon="10.8449630653171"><ele>724.0</ele><time>2026-04-12T12:42:27Z</time></trkpt><trkpt lat="45.639241706028805" lon="10.844831351181991"><ele>724.0</ele><time>2026-04-12T12:42:29Z</time></trkpt><trkpt lat="45.639268849311684" lon="10.844729873663717"><ele>724.0</ele><time>2026-04-12T12:42:30Z</time></trkpt><trkpt lat="45.63932318134694" lon="10.844636592298956"><ele>724.0</ele><time>2026-04-12T12:42:31Z</time></trkpt><trkpt lat="45.63941244470325" lon="10.844574161667095"><ele>724.0</ele><time>2026-04-12T12:42:32Z</time></trkpt><trkpt lat="45.63948483870705" lon="10.844508659612655"><ele>724.0</ele><time>2026-04-12T12:42:33Z</time></trkpt><trkpt lat="45.63955560332265" lon="10.844486126746311"><ele>724.0</ele><time>2026-04-12T12:42:34Z</time></trkpt><trkpt lat="45.63962108434009" lon="10.844373563453743"><ele>722.1666666666667</ele><time>2026-04-12T12:42:36Z</time></trkpt><trkpt lat="45.639589078701896" lon="10.844267936312269"><ele>720.3333333333334</ele><time>2026-04-12T12:42:37Z</time></trkpt><trkpt lat="45.63949820380132" lon="10.844231884952189"><ele>718.5</ele><time>2026-04-12T12:42:38Z</time></trkpt><trkpt lat="45.639429863763986" lon="10.84421942856742"><ele>716.6666666666666</ele><time>2026-04-12T12:42:39Z</time></trkpt><trkpt lat="45.63935477357296" lon="10.844202948017076"><ele>714.8333333333333</ele><time>2026-04-12T12:42:40Z</time></trkpt><trkpt lat="45.639279942809814" lon="10.844188208959578"><ele>713.0</ele><time>2026-04-12T12:42:41Z</time></trkpt><trkpt lat="45.63919681187917" lon="10.844159770342989"><ele>711.4</ele><time>2026-04-12T12:42:42Z</time></trkpt><trkpt lat="45.63910206549981" lon="10.844134107881654"><ele>709.8</ele><time>2026-04-12T12:42:43Z</time></trkpt><trkpt lat="45.638996731080056" lon="10.844112762446382"><ele>708.2</ele><time>2026-04-12T12:42:44Z</time></trkpt><trkpt lat="45.63888803572697" lon="10.844085421139996"><ele>706.6</ele><time>2026-04-12T12:42:45Z</time></trkpt><trkpt lat="45.63877427675717" lon="10.844051847329588"><ele>705.0</ele><time>2026-04-12T12:42:46Z</time></trkpt><trkpt lat="45.638667410078845" lon="10.844011415945017"><ele>702.75</ele><time>2026-04-12T12:42:47Z</time></trkpt><trkpt lat="45.63855426938456" lon="10.843968923047859"><ele>700.5</ele><time>2026-04-12T12:42:48Z</time></trkpt><trkpt lat="45.63844116370668" lon="10.843921163478614"><ele>698.25</ele><time>2026-04-12T12:42:49Z</time></trkpt><trkpt lat="45.638326284429596" lon="10.843889093533278"><ele>696.0</ele><time>2026-04-12T12:42:50Z</time></trkpt><trkpt lat="45.6382088355355" lon="10.843849056475614"><ele>696.0</ele><time>2026-04-12T12:42:51Z</time></trkpt><trkpt lat="45.63808884520855" lon="10.843825271133872"><ele>696.0</ele><time>2026-04-12T12:42:52Z</time></trkpt><trkpt lat="45.63797307194435" lon="10.84379194863513"><ele>696.0</ele><time>2026-04-12T12:42:53Z</time></trkpt><trkpt lat="45.63786072035634" lon="10.84373623434097"><ele>696.0</ele><time>2026-04-12T12:42:54Z</time></trkpt><trkpt lat="45.637750489755476" lon="10.84366024365205"><ele>692.5</ele><time>2026-04-12T12:42:55Z</time></trkpt><trkpt lat="45.63763955061793" lon="10.843577714572135"><ele>689.0</ele><time>2026-04-12T12:42:56Z</time></trkpt><trkpt lat="45.63752609330714" lon="10.843491889169561"><ele>685.5</ele><time>2026-04-12T12:42:57Z</time></trkpt><trkpt lat="45.63740818553011" lon="10.843408918110608"><ele>682.0</ele><time>2026-04-12T12:42:58Z</time></trkpt><trkpt lat="45.63728463159165" lon="10.843346748909385"><ele>682.0</ele><time>2026-04-12T12:42:59Z</time></trkpt><trkpt lat="45.63715807082456" lon="10.843303496707119"><ele>682.0</ele><time>2026-04-12T12:43:00Z</time></trkpt><trkpt lat="45.63703619202414" lon="10.843244487374282"><ele>682.0</ele><time>2026-04-12T12:43:01Z</time></trkpt><trkpt lat="45.63691485295965" lon="10.843166923338078"><ele>682.0</ele><time>2026-04-12T12:43:02Z</time></trkpt><trkpt lat="45.63680368440917" lon="10.843081618721055"><ele>680.5</ele><time>2026-04-12T12:43:03Z</time></trkpt><trkpt lat="45.636688722677015" lon="10.842986909376474"><ele>679.0</ele><time>2026-04-12T12:43:04Z</time></trkpt><trkpt lat="45.6365712295902" lon="10.842889365692463"><ele>677.5</ele><time>2026-04-12T12:43:05Z</time></trkpt><trkpt lat="45.63645582218801" lon="10.842798070186324"><ele>676.0</ele><time>2026-04-12T12:43:06Z</time></trkpt><trkpt lat="45.63633770622187" lon="10.842707575555707"><ele>674.25</ele><time>2026-04-12T12:43:07Z</time></trkpt><trkpt lat="45.63621814692105" lon="10.842623180906855"><ele>672.5</ele><time>2026-04-12T12:43:08Z</time></trkpt><trkpt lat="45.63610676602362" lon="10.842532720991287"><ele>670.75</ele><time>2026-04-12T12:43:09Z</time></trkpt><trkpt lat="45.63599309141513" lon="10.842458307126181"><ele>669.0</ele><time>2026-04-12T12:43:10Z</time></trkpt><trkpt lat="45.63588737793321" lon="10.842382352917403"><ele>668.6666666666666</ele><time>2026-04-12T12:43:11Z</time></trkpt><trkpt lat="45.63578816285153" lon="10.842324267860558"><ele>668.3333333333334</ele><time>2026-04-12T12:43:12Z</time></trkpt><trkpt lat="45.63570030543071" lon="10.842277743972554"><ele>668.0</ele><time>2026-04-12T12:43:13Z</time></trkpt><trkpt lat="45.63563363173083" lon="10.842231816924862"><ele>667.6666666666667</ele><time>2026-04-12T12:43:14Z</time></trkpt><trkpt lat="45.6355835940442" lon="10.8421771334563"><ele>667.3333333333334</ele><time>2026-04-12T12:43:15Z</time></trkpt><trkpt lat="45.63554907273735" lon="10.842087174771514"><ele>667.0</ele><time>2026-04-12T12:43:16Z</time></trkpt><trkpt lat="45.635541225122914" lon="10.841968208625353"><ele>667.0</ele><time>2026-04-12T12:43:17Z</time></trkpt><trkpt lat="45.63556422402808" lon="10.84183829126311"><ele>667.0</ele><time>2026-04-12T12:43:18Z</time></trkpt><trkpt lat="45.635628008478314" lon="10.841735523610224"><ele>667.0</ele><time>2026-04-12T12:43:19Z</time></trkpt><trkpt lat="45.635690510650846" lon="10.841628545648007"><ele>667.0</ele><time>2026-04-12T12:43:20Z</time></trkpt><trkpt lat="45.63575770101953" lon="10.841535134969023"><ele>667.0</ele><time>2026-04-12T12:43:21Z</time></trkpt><trkpt lat="45.63583380389785" lon="10.84148588146417"><ele>664.75</ele><time>2026-04-12T12:43:22Z</time></trkpt><trkpt lat="45.63590632412034" lon="10.841372737455103"><ele>662.5</ele><time>2026-04-12T12:43:24Z</time></trkpt><trkpt lat="45.635821729829786" lon="10.841204434519097"><ele>660.25</ele><time>2026-04-12T12:43:26Z</time></trkpt><trkpt lat="45.6357008696536" lon="10.841206007218723"><ele>658.0</ele><time>2026-04-12T12:43:27Z</time></trkpt><trkpt lat="45.635578142331646" lon="10.841180344834074"><ele>658.0</ele><time>2026-04-12T12:43:28Z</time></trkpt><trkpt lat="45.635452267674545" lon="10.841118407833822"><ele>658.0</ele><time>2026-04-12T12:43:29Z</time></trkpt><trkpt lat="45.63531585341415" lon="10.841083303095614"><ele>658.0</ele><time>2026-04-12T12:43:30Z</time></trkpt><trkpt lat="45.635185615237084" lon="10.841051156324761"><ele>658.0</ele><time>2026-04-12T12:43:31Z</time></trkpt><trkpt lat="45.63505462471502" lon="10.84104636843418"><ele>657.75</ele><time>2026-04-12T12:43:32Z</time></trkpt><trkpt lat="45.63492917282442" lon="10.84099988405997"><ele>657.5</ele><time>2026-04-12T12:43:33Z</time></trkpt><trkpt lat="45.63480238477714" lon="10.84098313281621"><ele>657.25</ele><time>2026-04-12T12:43:34Z</time></trkpt><trkpt lat="45.6346730292125" lon="10.840989341901663"><ele>657.0</ele><time>2026-04-12T12:43:35Z</time></trkpt><trkpt lat="45.634547038754285" lon="10.840967912422656"><ele>652.0</ele><time>2026-04-12T12:43:36Z</time></trkpt><trkpt lat="45.634417320594714" lon="10.840980610766884"><ele>647.0</ele><time>2026-04-12T12:43:37Z</time></trkpt><trkpt lat="45.634295213788704" lon="10.840993505101668"><ele>642.0</ele><time>2026-04-12T12:43:38Z</time></trkpt><trkpt lat="45.63418373629225" lon="10.841002985190626"><ele>637.0</ele><time>2026-04-12T12:43:39Z</time></trkpt><trkpt lat="45.634077674073836" lon="10.841007365252265"><ele>637.0</ele><time>2026-04-12T12:43:40Z</time></trkpt><trkpt lat="45.63398178182802" lon="10.841052464603894"><ele>637.0</ele><time>2026-04-12T12:43:41Z</time></trkpt><trkpt lat="45.63389106503856" lon="10.84110736488965"><ele>637.0</ele><time>2026-04-12T12:43:42Z</time></trkpt><trkpt lat="45.63381595808053" lon="10.84116938175742"><ele>637.0</ele><time>2026-04-12T12:43:43Z</time></trkpt><trkpt lat="45.63374739120962" lon="10.841193446741023"><ele>637.0</ele><time>2026-04-12T12:43:44Z</time></trkpt><trkpt lat="45.633683170348434" lon="10.841205692187136"><ele>637.0</ele><time>2026-04-12T12:43:45Z</time></trkpt><trkpt lat="45.63361538154672" lon="10.841168830606927"><ele>633.0</ele><time>2026-04-12T12:43:46Z</time></trkpt><trkpt lat="45.63357167217441" lon="10.841076606964112"><ele>629.0</ele><time>2026-04-12T12:43:47Z</time></trkpt><trkpt lat="45.633568490811996" lon="10.840957891197094"><ele>625.0</ele><time>2026-04-12T12:43:48Z</time></trkpt><trkpt lat="45.63358971896634" lon="10.840847528159344"><ele>621.0</ele><time>2026-04-12T12:43:49Z</time></trkpt><trkpt lat="45.63359603826734" lon="10.840756329898632"><ele>617.0</ele><time>2026-04-12T12:43:50Z</time></trkpt><trkpt lat="45.63354924282985" lon="10.840677871273023"><ele>613.0</ele><time>2026-04-12T12:43:51Z</time></trkpt><trkpt lat="45.63348162599122" lon="10.840631723231592"><ele>613.0</ele><time>2026-04-12T12:43:52Z</time></trkpt><trkpt lat="45.63340354330209" lon="10.840664607264342"><ele>613.0</ele><time>2026-04-12T12:43:53Z</time></trkpt><trkpt lat="45.63332890792396" lon="10.840730669325074"><ele>613.0</ele><time>2026-04-12T12:43:54Z</time></trkpt><trkpt lat="45.63326702413499" lon="10.84081802184739"><ele>613.0</ele><time>2026-04-12T12:43:55Z</time></trkpt><trkpt lat="45.63322856993636" lon="10.840932297352152"><ele>613.0</ele><time>2026-04-12T12:43:56Z</time></trkpt><trkpt lat="45.63323284034312" lon="10.841082449105354"><ele>612.1999999999999</ele><time>2026-04-12T12:43:57Z</time></trkpt><trkpt lat="45.63324551058707" lon="10.841219641673872"><ele>611.4</ele><time>2026-04-12T12:43:58Z</time></trkpt><trkpt lat="45.63326097078533" lon="10.84134253326943"><ele>610.5999999999999</ele><time>2026-04-12T12:43:59Z</time></trkpt><trkpt lat="45.633294423895485" lon="10.841461496840985"><ele>609.8</ele><time>2026-04-12T12:44:00Z</time></trkpt><trkpt lat="45.63335715616177" lon="10.841589638278169"><ele>609.0</ele><time>2026-04-12T12:44:01Z</time></trkpt><trkpt lat="45.633415960859125" lon="10.841728797433175"><ele>607.6666666666666</ele><time>2026-04-12T12:44:02Z</time></trkpt><trkpt lat="45.633471198213975" lon="10.841864039713434"><ele>606.3333333333334</ele><time>2026-04-12T12:44:03Z</time></trkpt><trkpt lat="45.6335179472377" lon="10.841968895642252"><ele>605.0</ele><time>2026-04-12T12:44:04Z</time></trkpt><trkpt lat="45.63355413258352" lon="10.842054645442952"><ele>603.6666666666667</ele><time>2026-04-12T12:44:05Z</time></trkpt><trkpt lat="45.63363057051998" lon="10.842157415259472"><ele>602.3333333333334</ele><time>2026-04-12T12:44:07Z</time></trkpt><trkpt lat="45.633674528071055" lon="10.842238365391044"><ele>601.0</ele><time>2026-04-12T12:44:10Z</time></trkpt><trkpt lat="45.63356567858174" lon="10.842203442969124"><ele>601.0</ele><time>2026-04-12T12:44:17Z</time></trkpt><trkpt lat="45.633500094355895" lon="10.842110909856547"><ele>601.0</ele><time>2026-04-12T12:44:18Z</time></trkpt><trkpt lat="45.633434978820894" lon="10.842023030471932"><ele>601.0</ele><time>2026-04-12T12:44:19Z</time></trkpt><trkpt lat="45.63336923803048" lon="10.841920455249582"><ele>601.0</ele><time>2026-04-12T12:44:20Z</time></trkpt><trkpt lat="45.63330247432901" lon="10.841803514574654"><ele>601.0</ele><time>2026-04-12T12:44:21Z</time></trkpt><trkpt lat="45.633228580365476" lon="10.841676682437202"><ele>602.6</ele><time>2026-04-12T12:44:22Z</time></trkpt><trkpt lat="45.63315404650151" lon="10.841544751058946"><ele>604.2</ele><time>2026-04-12T12:44:23Z</time></trkpt><trkpt lat="45.633076942976636" lon="10.841419138208957"><ele>605.8</ele><time>2026-04-12T12:44:24Z</time></trkpt><trkpt lat="45.63300770554946" lon="10.841301843212186"><ele>607.4</ele><time>2026-04-12T12:44:25Z</time></trkpt><trkpt lat="45.632944252653395" lon="10.841185258005645"><ele>609.0</ele><time>2026-04-12T12:44:26Z</time></trkpt><trkpt lat="45.63288493170869" lon="10.841070796167285"><ele>609.6666666666666</ele><time>2026-04-12T12:44:27Z</time></trkpt><trkpt lat="45.632832508892434" lon="10.840958989127174"><ele>610.3333333333334</ele><time>2026-04-12T12:44:28Z</time></trkpt><trkpt lat="45.63278497447554" lon="10.840850710401027"><ele>611.0</ele><time>2026-04-12T12:44:29Z</time></trkpt><trkpt lat="45.632752879946054" lon="10.840741652915282"><ele>611.6666666666667</ele><time>2026-04-12T12:44:30Z</time></trkpt><trkpt lat="45.632733690357" lon="10.840630376432246"><ele>612.3333333333334</ele><time>2026-04-12T12:44:31Z</time></trkpt><trkpt lat="45.63272903464621" lon="10.840517092616722"><ele>613.0</ele><time>2026-04-12T12:44:32Z</time></trkpt><trkpt lat="45.6327404747457" lon="10.84041242113156"><ele>613.0</ele><time>2026-04-12T12:44:33Z</time></trkpt><trkpt lat="45.632762415561054" lon="10.840316775825283"><ele>613.0</ele><time>2026-04-12T12:44:34Z</time></trkpt><trkpt lat="45.63278990103353" lon="10.840225006230558"><ele>613.0</ele><time>2026-04-12T12:44:35Z</time></trkpt><trkpt lat="45.6328314076361" lon="10.840143763913082"><ele>613.0</ele><time>2026-04-12T12:44:36Z</time></trkpt><trkpt lat="45.6328817258946" lon="10.840072404477405"><ele>613.0</ele><time>2026-04-12T12:44:37Z</time></trkpt><trkpt lat="45.632938205933165" lon="10.840008338366822"><ele>613.0</ele><time>2026-04-12T12:44:38Z</time></trkpt><trkpt lat="45.63299692009858" lon="10.839942105333849"><ele>613.0</ele><time>2026-04-12T12:44:39Z</time></trkpt><trkpt lat="45.6330567566292" lon="10.839877467598365"><ele>611.0</ele><time>2026-04-12T12:44:40Z</time></trkpt><trkpt lat="45.633117215198" lon="10.839811151548034"><ele>609.0</ele><time>2026-04-12T12:44:41Z</time></trkpt><trkpt lat="45.63317519832784" lon="10.839739812809697"><ele>607.0</ele><time>2026-04-12T12:44:42Z</time></trkpt><trkpt lat="45.633232092886566" lon="10.839668399944355"><ele>605.0</ele><time>2026-04-12T12:44:43Z</time></trkpt><trkpt lat="45.63329155971012" lon="10.83959820612024"><ele>603.0</ele><time>2026-04-12T12:44:44Z</time></trkpt><trkpt lat="45.6333512978555" lon="10.839530903580195"><ele>601.0</ele><time>2026-04-12T12:44:45Z</time></trkpt><trkpt lat="45.63341393196653" lon="10.839468018863016"><ele>601.0</ele><time>2026-04-12T12:44:46Z</time></trkpt><trkpt lat="45.63347958722906" lon="10.839415795879745"><ele>601.0</ele><time>2026-04-12T12:44:47Z</time></trkpt><trkpt lat="45.63354552992463" lon="10.839371181781207"><ele>601.0</ele><time>2026-04-12T12:44:48Z</time></trkpt><trkpt lat="45.63361392937103" lon="10.83933372804002"><ele>601.0</ele><time>2026-04-12T12:44:49Z</time></trkpt><trkpt lat="45.63368284940034" lon="10.839305624749384"><ele>601.0</ele><time>2026-04-12T12:44:50Z</time></trkpt><trkpt lat="45.633749881591974" lon="10.839277928158356"><ele>601.0</ele><time>2026-04-12T12:44:51Z</time></trkpt><trkpt lat="45.633818982597184" lon="10.839251235976798"><ele>601.0</ele><time>2026-04-12T12:44:52Z</time></trkpt><trkpt lat="45.63388951131883" lon="10.839228674454926"><ele>599.0</ele><time>2026-04-12T12:44:53Z</time></trkpt><trkpt lat="45.63395971745299" lon="10.839211290726995"><ele>597.0</ele><time>2026-04-12T12:44:54Z</time></trkpt><trkpt lat="45.63403213662703" lon="10.839195922727114"><ele>595.0</ele><time>2026-04-12T12:44:55Z</time></trkpt><trkpt lat="45.634119386957636" lon="10.83917904251105"><ele>593.0</ele><time>2026-04-12T12:44:56Z</time></trkpt><trkpt lat="45.63420998834008" lon="10.839165692732943"><ele>591.0</ele><time>2026-04-12T12:44:57Z</time></trkpt><trkpt lat="45.6343030349136" lon="10.839152942536016"><ele>589.0</ele><time>2026-04-12T12:44:58Z</time></trkpt><trkpt lat="45.634400581595614" lon="10.839146714799782"><ele>588.6</ele><time>2026-04-12T12:44:59Z</time></trkpt><trkpt lat="45.63450231494342" lon="10.839143043929646"><ele>588.2</ele><time>2026-04-12T12:45:00Z</time></trkpt><trkpt lat="45.63461231087885" lon="10.839142497462833"><ele>587.8000000000001</ele><time>2026-04-12T12:45:01Z</time></trkpt><trkpt lat="45.634729178731185" lon="10.839142150595059"><ele>587.4</ele><time>2026-04-12T12:45:02Z</time></trkpt><trkpt lat="45.63485001627219" lon="10.839146281919597"><ele>587.0</ele><time>2026-04-12T12:45:03Z</time></trkpt><trkpt lat="45.63497339730697" lon="10.839151075908442"><ele>587.0</ele><time>2026-04-12T12:45:04Z</time></trkpt><trkpt lat="45.63510059263225" lon="10.839145303582383"><ele>587.0</ele><time>2026-04-12T12:45:05Z</time></trkpt><trkpt lat="45.635233553857525" lon="10.839111043019331"><ele>587.0</ele><time>2026-04-12T12:45:06Z</time></trkpt><trkpt lat="45.63537525658868" lon="10.839074895428157"><ele>587.0</ele><time>2026-04-12T12:45:07Z</time></trkpt><trkpt lat="45.635509292563334" lon="10.838985190472778"><ele>588.0</ele><time>2026-04-12T12:45:08Z</time></trkpt><trkpt lat="45.63565193470463" lon="10.838915235532246"><ele>589.0</ele><time>2026-04-12T12:45:09Z</time></trkpt><trkpt lat="45.63579447056688" lon="10.838862022445255"><ele>590.0</ele><time>2026-04-12T12:45:10Z</time></trkpt><trkpt lat="45.635933610625024" lon="10.838838876138439"><ele>591.0</ele><time>2026-04-12T12:45:11Z</time></trkpt><trkpt lat="45.63607225232849" lon="10.838827462949554"><ele>593.0</ele><time>2026-04-12T12:45:12Z</time></trkpt><trkpt lat="45.63620950227553" lon="10.838817017452108"><ele>595.0</ele><time>2026-04-12T12:45:13Z</time></trkpt><trkpt lat="45.63633926819799" lon="10.838804942490986"><ele>597.0</ele><time>2026-04-12T12:45:14Z</time></trkpt><trkpt lat="45.63646638318669" lon="10.83878021511135"><ele>599.0</ele><time>2026-04-12T12:45:15Z</time></trkpt><trkpt lat="45.63658537025088" lon="10.838740109548223"><ele>599.0</ele><time>2026-04-12T12:45:16Z</time></trkpt><trkpt lat="45.63669156543483" lon="10.838663529739863"><ele>599.0</ele><time>2026-04-12T12:45:17Z</time></trkpt><trkpt lat="45.636768563720565" lon="10.838540241581585"><ele>599.0</ele><time>2026-04-12T12:45:18Z</time></trkpt><trkpt lat="45.63680843218136" lon="10.838387450512757"><ele>599.0</ele><time>2026-04-12T12:45:19Z</time></trkpt><trkpt lat="45.63680353140739" lon="10.838215316309672"><ele>593.0</ele><time>2026-04-12T12:45:20Z</time></trkpt><trkpt lat="45.63676094733707" lon="10.838041748047377"><ele>587.0</ele><time>2026-04-12T12:45:21Z</time></trkpt><trkpt lat="45.636684348061785" lon="10.837883370447335"><ele>581.0</ele><time>2026-04-12T12:45:22Z</time></trkpt><trkpt lat="45.63656829671595" lon="10.83775724567639"><ele>575.0</ele><time>2026-04-12T12:45:23Z</time></trkpt><trkpt lat="45.636437329438614" lon="10.837662017798003"><ele>575.5</ele><time>2026-04-12T12:45:24Z</time></trkpt><trkpt lat="45.63631074180133" lon="10.837585486416451"><ele>576.0</ele><time>2026-04-12T12:45:25Z</time></trkpt><trkpt lat="45.63617677493077" lon="10.837521479172871"><ele>576.5</ele><time>2026-04-12T12:45:26Z</time></trkpt><trkpt lat="45.63602214393165" lon="10.837534669375552"><ele>577.0</ele><time>2026-04-12T12:45:27Z</time></trkpt><trkpt lat="45.63587158446947" lon="10.837596915559809"><ele>577.0</ele><time>2026-04-12T12:45:28Z</time></trkpt><trkpt lat="45.63574453634895" lon="10.837649087641271"><ele>577.0</ele><time>2026-04-12T12:45:29Z</time></trkpt><trkpt lat="45.63560886639691" lon="10.83766576101319"><ele>577.0</ele><time>2026-04-12T12:45:30Z</time></trkpt><trkpt lat="45.63547318602559" lon="10.837655606261299"><ele>577.0</ele><time>2026-04-12T12:45:31Z</time></trkpt><trkpt lat="45.6353468245754" lon="10.837632282651287"><ele>571.6666666666667</ele><time>2026-04-12T12:45:32Z</time></trkpt><trkpt lat="45.63523373220606" lon="10.837609021877096"><ele>566.3333333333334</ele><time>2026-04-12T12:45:33Z</time></trkpt><trkpt lat="45.635028523192894" lon="10.837505758633327"><ele>561.0</ele><time>2026-04-12T12:45:34Z</time></trkpt><trkpt lat="45.63489184521338" lon="10.837372099948222"><ele>561.0</ele><time>2026-04-12T12:45:35Z</time></trkpt><trkpt lat="45.634752651357104" lon="10.837242785696285"><ele>561.0</ele><time>2026-04-12T12:45:36Z</time></trkpt><trkpt lat="45.634608228349016" lon="10.83710773127659"><ele>561.0</ele><time>2026-04-12T12:45:37Z</time></trkpt><trkpt lat="45.634462426620814" lon="10.836966388391248"><ele>561.3333333333334</ele><time>2026-04-12T12:45:38Z</time></trkpt><trkpt lat="45.63431850625142" lon="10.836823631889938"><ele>561.6666666666667</ele><time>2026-04-12T12:45:39Z</time></trkpt><trkpt lat="45.63417543285702" lon="10.836683747166052"><ele>562.0</ele><time>2026-04-12T12:45:40Z</time></trkpt><trkpt lat="45.63402915942606" lon="10.836546918170685"><ele>562.0</ele><time>2026-04-12T12:45:41Z</time></trkpt><trkpt lat="45.63387481089943" lon="10.836421181494886"><ele>562.0</ele><time>2026-04-12T12:45:42Z</time></trkpt><trkpt lat="45.63370063604931" lon="10.836345544386285"><ele>562.0</ele><time>2026-04-12T12:45:43Z</time></trkpt><trkpt lat="45.63352213336265" lon="10.836273084636769"><ele>555.0</ele><time>2026-04-12T12:45:44Z</time></trkpt><trkpt lat="45.63334536992642" lon="10.83623032381722"><ele>548.0</ele><time>2026-04-12T12:45:45Z</time></trkpt><trkpt lat="45.633178072238074" lon="10.836173745506349"><ele>541.0</ele><time>2026-04-12T12:45:46Z</time></trkpt><trkpt lat="45.63301293143524" lon="10.836067994008964"><ele>539.0</ele><time>2026-04-12T12:45:47Z</time></trkpt><trkpt lat="45.63284651025741" lon="10.835928546424398"><ele>537.0</ele><time>2026-04-12T12:45:48Z</time></trkpt><trkpt lat="45.63266711537541" lon="10.835800113882678"><ele>535.0</ele><time>2026-04-12T12:45:49Z</time></trkpt><trkpt lat="45.6325000853726" lon="10.835655054621077"><ele>535.0</ele><time>2026-04-12T12:45:50Z</time></trkpt><trkpt lat="45.63234597801917" lon="10.835525497828527"><ele>535.0</ele><time>2026-04-12T12:45:51Z</time></trkpt><trkpt lat="45.6322041140024" lon="10.835411864726842"><ele>535.0</ele><time>2026-04-12T12:45:52Z</time></trkpt><trkpt lat="45.632077701584905" lon="10.835311980745393"><ele>534.5</ele><time>2026-04-12T12:45:53Z</time></trkpt><trkpt lat="45.6319678748845" lon="10.83521060013697"><ele>534.0</ele><time>2026-04-12T12:45:54Z</time></trkpt><trkpt lat="45.631877387642696" lon="10.835094624991775"><ele>533.5</ele><time>2026-04-12T12:45:55Z</time></trkpt><trkpt lat="45.63181581204557" lon="10.83494158351744"><ele>533.0</ele><time>2026-04-12T12:45:56Z</time></trkpt><trkpt lat="45.6317801692203" lon="10.834754581704138"><ele>533.0</ele><time>2026-04-12T12:45:57Z</time></trkpt><trkpt lat="45.63179737021826" lon="10.834532507337176"><ele>533.0</ele><time>2026-04-12T12:45:58Z</time></trkpt><trkpt lat="45.631790358911395" lon="10.834297729564684"><ele>533.0</ele><time>2026-04-12T12:45:59Z</time></trkpt><trkpt lat="45.631804573618346" lon="10.834044402352033"><ele>532.3333333333333</ele><time>2026-04-12T12:46:00Z</time></trkpt><trkpt lat="45.63180640809339" lon="10.833780655378753"><ele>531.6666666666666</ele><time>2026-04-12T12:46:01Z</time></trkpt><trkpt lat="45.63180763745832" lon="10.833503144365512"><ele>531.0</ele><time>2026-04-12T12:46:02Z</time></trkpt><trkpt lat="45.63181003671941" lon="10.833217314115947"><ele>530.0</ele><time>2026-04-12T12:46:03Z</time></trkpt><trkpt lat="45.63181509854542" lon="10.832923175727103"><ele>529.0</ele><time>2026-04-12T12:46:04Z</time></trkpt><trkpt lat="45.631823389714384" lon="10.83263780507804"><ele>528.0</ele><time>2026-04-12T12:46:05Z</time></trkpt><trkpt lat="45.63183176300785" lon="10.832357494969994"><ele>526.0</ele><time>2026-04-12T12:46:06Z</time></trkpt><trkpt lat="45.631835959656776" lon="10.832088584408478"><ele>524.0</ele><time>2026-04-12T12:46:07Z</time></trkpt><trkpt lat="45.63184071901929" lon="10.831843814268721"><ele>522.0</ele><time>2026-04-12T12:46:08Z</time></trkpt><trkpt lat="45.631849969776866" lon="10.83161744889362"><ele>522.25</ele><time>2026-04-12T12:46:09Z</time></trkpt><trkpt lat="45.63185964096465" lon="10.831408339553288"><ele>522.5</ele><time>2026-04-12T12:46:10Z</time></trkpt><trkpt lat="45.6318562724476" lon="10.83121721452722"><ele>522.75</ele><time>2026-04-12T12:46:11Z</time></trkpt><trkpt lat="45.63181870544788" lon="10.831030008970064"><ele>523.0</ele><time>2026-04-12T12:46:12Z</time></trkpt><trkpt lat="45.63173210188564" lon="10.830856689865945"><ele>523.0</ele><time>2026-04-12T12:46:13Z</time></trkpt><trkpt lat="45.63159947106035" lon="10.83070369225217"><ele>523.0</ele><time>2026-04-12T12:46:14Z</time></trkpt><trkpt lat="45.63144216313104" lon="10.830566004500717"><ele>523.0</ele><time>2026-04-12T12:46:15Z</time></trkpt><trkpt lat="45.63126841582516" lon="10.830437094742619"><ele>521.6666666666667</ele><time>2026-04-12T12:46:16Z</time></trkpt><trkpt lat="45.63109924370138" lon="10.8302933543343"><ele>520.3333333333334</ele><time>2026-04-12T12:46:17Z</time></trkpt><trkpt lat="45.63094149021294" lon="10.83015094838992"><ele>519.0</ele><time>2026-04-12T12:46:18Z</time></trkpt><trkpt lat="45.63078767842552" lon="10.830010151365148"><ele>519.0</ele><time>2026-04-12T12:46:19Z</time></trkpt><trkpt lat="45.630637485158786" lon="10.82987823970272"><ele>519.0</ele><time>2026-04-12T12:46:20Z</time></trkpt><trkpt lat="45.63048506106034" lon="10.829747892867932"><ele>519.0</ele><time>2026-04-12T12:46:21Z</time></trkpt><trkpt lat="45.630337047411246" lon="10.82962030469697"><ele>516.0</ele><time>2026-04-12T12:46:22Z</time></trkpt><trkpt lat="45.63019142095937" lon="10.829494387172213"><ele>513.0</ele><time>2026-04-12T12:46:23Z</time></trkpt><trkpt lat="45.63004732119163" lon="10.829372886245773"><ele>510.0</ele><time>2026-04-12T12:46:24Z</time></trkpt><trkpt lat="45.62990399620092" lon="10.829253259619618"><ele>509.66666666666663</ele><time>2026-04-12T12:46:25Z</time></trkpt><trkpt lat="45.629762169097" lon="10.829136398858536"><ele>509.3333333333333</ele><time>2026-04-12T12:46:26Z</time></trkpt><trkpt lat="45.629621842325044" lon="10.829020432735808"><ele>509.0</ele><time>2026-04-12T12:46:27Z</time></trkpt><trkpt lat="45.62948359762687" lon="10.828903603538244"><ele>505.3333333333333</ele><time>2026-04-12T12:46:28Z</time></trkpt><trkpt lat="45.62935098927104" lon="10.828789747088113"><ele>501.66666666666663</ele><time>2026-04-12T12:46:29Z</time></trkpt><trkpt lat="45.62921242376557" lon="10.82868872051512"><ele>498.0</ele><time>2026-04-12T12:46:30Z</time></trkpt><trkpt lat="45.62908691323567" lon="10.828601600182566"><ele>498.0</ele><time>2026-04-12T12:46:31Z</time></trkpt><trkpt lat="45.62897352704448" lon="10.828534093740117"><ele>498.0</ele><time>2026-04-12T12:46:32Z</time></trkpt><trkpt lat="45.628867778062876" lon="10.828472079282223"><ele>498.0</ele><time>2026-04-12T12:46:33Z</time></trkpt><trkpt lat="45.62877005589232" lon="10.82841346475752"><ele>498.0</ele><time>2026-04-12T12:46:34Z</time></trkpt><trkpt lat="45.62868555423061" lon="10.828302530589108"><ele>499.75</ele><time>2026-04-12T12:46:35Z</time></trkpt><trkpt lat="45.628573369498596" lon="10.828291231774447"><ele>501.5</ele><time>2026-04-12T12:46:36Z</time></trkpt><trkpt lat="45.628466134157144" lon="10.828296460608419"><ele>503.25</ele><time>2026-04-12T12:46:37Z</time></trkpt><trkpt lat="45.62835037334646" lon="10.82827232842254"><ele>505.0</ele><time>2026-04-12T12:46:38Z</time></trkpt><trkpt lat="45.62823533221618" lon="10.828244180093469"><ele>505.0</ele><time>2026-04-12T12:46:39Z</time></trkpt><trkpt lat="45.62812664887857" lon="10.828199504610938"><ele>505.0</ele><time>2026-04-12T12:46:40Z</time></trkpt><trkpt lat="45.62804601481711" lon="10.828097296736724"><ele>505.0</ele><time>2026-04-12T12:46:41Z</time></trkpt><trkpt lat="45.62796220431567" lon="10.828004497906303"><ele>505.0</ele><time>2026-04-12T12:46:42Z</time></trkpt><trkpt lat="45.62787615259445" lon="10.82788077176666"><ele>505.0</ele><time>2026-04-12T12:46:43Z</time></trkpt><trkpt lat="45.627786061547475" lon="10.827754617564961"><ele>507.5</ele><time>2026-04-12T12:46:44Z</time></trkpt><trkpt lat="45.627685286257105" lon="10.827637862740193"><ele>510.0</ele><time>2026-04-12T12:46:45Z</time></trkpt><trkpt lat="45.62758291193723" lon="10.827523418122349"><ele>512.5</ele><time>2026-04-12T12:46:46Z</time></trkpt><trkpt lat="45.62745967394088" lon="10.82741228704088"><ele>515.0</ele><time>2026-04-12T12:46:47Z</time></trkpt><trkpt lat="45.62732453928514" lon="10.82733585078896"><ele>515.0</ele><time>2026-04-12T12:46:48Z</time></trkpt><trkpt lat="45.62720286333663" lon="10.827226827904143"><ele>515.0</ele><time>2026-04-12T12:46:49Z</time></trkpt><trkpt lat="45.62708178738809" lon="10.827127993187892"><ele>515.0</ele><time>2026-04-12T12:46:50Z</time></trkpt><trkpt lat="45.62696847783102" lon="10.827058184717972"><ele>515.0</ele><time>2026-04-12T12:46:51Z</time></trkpt><trkpt lat="45.626880661010766" lon="10.826958162343189"><ele>516.75</ele><time>2026-04-12T12:46:52Z</time></trkpt><trkpt lat="45.62681478460103" lon="10.826819295203567"><ele>518.5</ele><time>2026-04-12T12:46:53Z</time></trkpt><trkpt lat="45.6267357762612" lon="10.826667781893123"><ele>520.25</ele><time>2026-04-12T12:46:54Z</time></trkpt><trkpt lat="45.62665707441682" lon="10.826508723901826"><ele>522.0</ele><time>2026-04-12T12:46:55Z</time></trkpt><trkpt lat="45.626570439951685" lon="10.826351027549723"><ele>522.0</ele><time>2026-04-12T12:46:56Z</time></trkpt><trkpt lat="45.626486804859965" lon="10.826185709649875"><ele>522.0</ele><time>2026-04-12T12:46:57Z</time></trkpt><trkpt lat="45.62641051585089" lon="10.82601805484999"><ele>522.0</ele><time>2026-04-12T12:46:58Z</time></trkpt><trkpt lat="45.62634469272206" lon="10.825870031032228"><ele>522.0</ele><time>2026-04-12T12:46:59Z</time></trkpt><trkpt lat="45.626304609300156" lon="10.825751834984864"><ele>522.3333333333334</ele><time>2026-04-12T12:47:00Z</time></trkpt><trkpt lat="45.62629630545156" lon="10.825643613854757"><ele>522.6666666666666</ele><time>2026-04-12T12:47:01Z</time></trkpt><trkpt lat="45.626310178243514" lon="10.825532788724681"><ele>523.0</ele><time>2026-04-12T12:47:02Z</time></trkpt><trkpt lat="45.626333362692186" lon="10.825430528313282"><ele>523.3333333333333</ele><time>2026-04-12T12:47:03Z</time></trkpt><trkpt lat="45.62637403315322" lon="10.825341460753672"><ele>523.6666666666666</ele><time>2026-04-12T12:47:04Z</time></trkpt><trkpt lat="45.626431323513614" lon="10.825263746935189"><ele>524.0</ele><time>2026-04-12T12:47:05Z</time></trkpt><trkpt lat="45.62649677554148" lon="10.825203780460145"><ele>524.0</ele><time>2026-04-12T12:47:06Z</time></trkpt><trkpt lat="45.62656021798732" lon="10.825150366696098"><ele>524.0</ele><time>2026-04-12T12:47:07Z</time></trkpt><trkpt lat="45.626625328010824" lon="10.82510086000314"><ele>524.0</ele><time>2026-04-12T12:47:08Z</time></trkpt><trkpt lat="45.626694066023994" lon="10.82505862948269"><ele>524.0</ele><time>2026-04-12T12:47:09Z</time></trkpt><trkpt lat="45.626757668798724" lon="10.825027167527498"><ele>524.0</ele><time>2026-04-12T12:47:10Z</time></trkpt><trkpt lat="45.62682236694515" lon="10.82502247111188"><ele>524.0</ele><time>2026-04-12T12:47:11Z</time></trkpt><trkpt lat="45.626881170463996" lon="10.825089298967113"><ele>524.0</ele><time>2026-04-12T12:47:12Z</time></trkpt><trkpt lat="45.62694624899888" lon="10.82512469220979"><ele>526.6666666666666</ele><time>2026-04-12T12:47:13Z</time></trkpt><trkpt lat="45.62701357204811" lon="10.825183853075071"><ele>529.3333333333333</ele><time>2026-04-12T12:47:14Z</time></trkpt><trkpt lat="45.627084086373756" lon="10.825236843351284"><ele>532.0</ele><time>2026-04-12T12:47:15Z</time></trkpt><trkpt lat="45.627151028247425" lon="10.825285432058958"><ele>534.6666666666666</ele><time>2026-04-12T12:47:16Z</time></trkpt><trkpt lat="45.62724484420118" lon="10.825351216236678"><ele>537.3333333333334</ele><time>2026-04-12T12:47:18Z</time></trkpt><trkpt lat="45.62731462740133" lon="10.825396773468144"><ele>540.0</ele><time>2026-04-12T12:47:21Z</time></trkpt><trkpt lat="45.6274065857983" lon="10.825380758953017"><ele>540.0</ele><time>2026-04-12T12:47:26Z</time></trkpt><trkpt lat="45.62755143880247" lon="10.82511026448675"><ele>540.0</ele><time>2026-04-12T12:47:27Z</time></trkpt><trkpt lat="45.62713484512204" lon="10.825262422415857"><ele>540.0</ele><time>2026-04-12T12:47:28Z</time></trkpt><trkpt lat="45.62704319558407" lon="10.825184019992895"><ele>540.0</ele><time>2026-04-12T12:47:30Z</time></trkpt><trkpt lat="45.62694216374601" lon="10.8251048255896"><ele>540.0</ele><time>2026-04-12T12:47:32Z</time></trkpt><trkpt lat="45.62688634956572" lon="10.825062949259904"><ele>540.0</ele><time>2026-04-12T12:47:33Z</time></trkpt><trkpt lat="45.62682440600097" lon="10.825035528025406"><ele>540.0</ele><time>2026-04-12T12:47:34Z</time></trkpt><trkpt lat="45.626759696987456" lon="10.825022160197372"><ele>540.0</ele><time>2026-04-12T12:47:35Z</time></trkpt><trkpt lat="45.62668820351458" lon="10.825036829657156"><ele>537.3333333333334</ele><time>2026-04-12T12:47:36Z</time></trkpt><trkpt lat="45.62662232558189" lon="10.825074525393473"><ele>534.6666666666666</ele><time>2026-04-12T12:47:37Z</time></trkpt><trkpt lat="45.62654986255832" lon="10.825133129908963"><ele>532.0</ele><time>2026-04-12T12:47:38Z</time></trkpt><trkpt lat="45.626486528873116" lon="10.825198482945229"><ele>529.3333333333333</ele><time>2026-04-12T12:47:39Z</time></trkpt><trkpt lat="45.62642860012378" lon="10.825273469136675"><ele>526.6666666666666</ele><time>2026-04-12T12:47:40Z</time></trkpt><trkpt lat="45.62637739101081" lon="10.825338800633785"><ele>524.0</ele><time>2026-04-12T12:47:41Z</time></trkpt><trkpt lat="45.62627810386318" lon="10.825380230515135"><ele>524.0</ele><time>2026-04-12T12:47:43Z</time></trkpt><trkpt lat="45.62621691281392" lon="10.825425991123582"><ele>524.0</ele><time>2026-04-12T12:47:47Z</time></trkpt><trkpt lat="45.626192700815906" lon="10.825151623089619"><ele>524.0</ele><time>2026-04-12T12:48:03Z</time></trkpt><trkpt lat="45.62613890687703" lon="10.825062615175817"><ele>524.0</ele><time>2026-04-12T12:48:04Z</time></trkpt><trkpt lat="45.626094956650945" lon="10.82495813883692"><ele>524.0</ele><time>2026-04-12T12:48:05Z</time></trkpt><trkpt lat="45.626038908439774" lon="10.824839938066106"><ele>522.6</ele><time>2026-04-12T12:48:06Z</time></trkpt><trkpt lat="45.625983165577935" lon="10.824716502857287"><ele>521.2</ele><time>2026-04-12T12:48:07Z</time></trkpt><trkpt lat="45.625938714705384" lon="10.82459277761205"><ele>519.8000000000001</ele><time>2026-04-12T12:48:08Z</time></trkpt><trkpt lat="45.62588513832592" lon="10.824468448287499"><ele>518.4</ele><time>2026-04-12T12:48:09Z</time></trkpt><trkpt lat="45.625839060893476" lon="10.824339290847083"><ele>517.0</ele><time>2026-04-12T12:48:10Z</time></trkpt><trkpt lat="45.625798625923316" lon="10.824208328986314"><ele>517.0</ele><time>2026-04-12T12:48:11Z</time></trkpt><trkpt lat="45.62575773244563" lon="10.824079436571509"><ele>517.0</ele><time>2026-04-12T12:48:12Z</time></trkpt><trkpt lat="45.62570377924815" lon="10.823963820783895"><ele>517.0</ele><time>2026-04-12T12:48:13Z</time></trkpt><trkpt lat="45.62562183349194" lon="10.823876978976424"><ele>517.0</ele><time>2026-04-12T12:48:14Z</time></trkpt><trkpt lat="45.6255218835918" lon="10.823803151423288"><ele>517.0</ele><time>2026-04-12T12:48:15Z</time></trkpt><trkpt lat="45.62541488612396" lon="10.823741068073089"><ele>516.5</ele><time>2026-04-12T12:48:16Z</time></trkpt><trkpt lat="45.62531112284952" lon="10.823666101585276"><ele>516.0</ele><time>2026-04-12T12:48:17Z</time></trkpt><trkpt lat="45.62521401519689" lon="10.823568002254598"><ele>515.5</ele><time>2026-04-12T12:48:18Z</time></trkpt><trkpt lat="45.625113735530604" lon="10.823490904530427"><ele>515.0</ele><time>2026-04-12T12:48:19Z</time></trkpt><trkpt lat="45.62501356532887" lon="10.823433545451122"><ele>515.0</ele><time>2026-04-12T12:48:20Z</time></trkpt><trkpt lat="45.62492826976949" lon="10.823353783985159"><ele>515.0</ele><time>2026-04-12T12:48:21Z</time></trkpt><trkpt lat="45.6248477806001" lon="10.823265103271005"><ele>515.0</ele><time>2026-04-12T12:48:22Z</time></trkpt><trkpt lat="45.624761214752056" lon="10.823195438450265"><ele>515.0</ele><time>2026-04-12T12:48:23Z</time></trkpt><trkpt lat="45.62466470049936" lon="10.823145972210815"><ele>515.0</ele><time>2026-04-12T12:48:24Z</time></trkpt><trkpt lat="45.624581400403095" lon="10.823064795712854"><ele>515.0</ele><time>2026-04-12T12:48:25Z</time></trkpt><trkpt lat="45.62449362791083" lon="10.822995619228816"><ele>515.0</ele><time>2026-04-12T12:48:26Z</time></trkpt><trkpt lat="45.624402257337884" lon="10.82293681223597"><ele>515.0</ele><time>2026-04-12T12:48:27Z</time></trkpt><trkpt lat="45.6243232934459" lon="10.822847529812517"><ele>515.0</ele><time>2026-04-12T12:48:28Z</time></trkpt><trkpt lat="45.624240374604135" lon="10.822778622645544"><ele>515.0</ele><time>2026-04-12T12:48:29Z</time></trkpt><trkpt lat="45.62416230587021" lon="10.822728041848757"><ele>512.8333333333333</ele><time>2026-04-12T12:48:30Z</time></trkpt><trkpt lat="45.624111166473" lon="10.822663103089525"><ele>510.66666666666663</ele><time>2026-04-12T12:48:31Z</time></trkpt><trkpt lat="45.62404339687234" lon="10.822523623911836"><ele>508.5</ele><time>2026-04-12T12:48:33Z</time></trkpt><trkpt lat="45.62401450725853" lon="10.822426070868572"><ele>506.33333333333337</ele><time>2026-04-12T12:48:34Z</time></trkpt><trkpt lat="45.623984480872984" lon="10.8223236678792"><ele>504.1666666666667</ele><time>2026-04-12T12:48:35Z</time></trkpt><trkpt lat="45.62395438965888" lon="10.822239680219987"><ele>502.0</ele><time>2026-04-12T12:48:36Z</time></trkpt><trkpt lat="45.623854565189575" lon="10.822115829879943"><ele>502.0</ele><time>2026-04-12T12:48:38Z</time></trkpt><trkpt lat="45.623810320279595" lon="10.822028271458631"><ele>502.00000000000006</ele><time>2026-04-12T12:48:39Z</time></trkpt><trkpt lat="45.623743859715184" lon="10.82195476921581"><ele>502.00000000000006</ele><time>2026-04-12T12:48:40Z</time></trkpt><trkpt lat="45.62371236886118" lon="10.821830335111633"><ele>502.0</ele><time>2026-04-12T12:48:41Z</time></trkpt><trkpt lat="45.6236672218645" lon="10.821706844537408"><ele>502.0</ele><time>2026-04-12T12:48:42Z</time></trkpt><trkpt lat="45.62361522424752" lon="10.821584473235166"><ele>498.40000000000003</ele><time>2026-04-12T12:48:43Z</time></trkpt><trkpt lat="45.6235675185929" lon="10.821457097078849"><ele>494.80000000000007</ele><time>2026-04-12T12:48:44Z</time></trkpt><trkpt lat="45.623529288475304" lon="10.82132820230967"><ele>491.2</ele><time>2026-04-12T12:48:45Z</time></trkpt><trkpt lat="45.62348192707574" lon="10.821205022454446"><ele>487.6</ele><time>2026-04-12T12:48:46Z</time></trkpt><trkpt lat="45.62343981660349" lon="10.821087640848315"><ele>484.0</ele><time>2026-04-12T12:48:47Z</time></trkpt><trkpt lat="45.62340335888213" lon="10.820963293288791"><ele>484.00000000000006</ele><time>2026-04-12T12:48:48Z</time></trkpt><trkpt lat="45.62337943054132" lon="10.820842765480329"><ele>484.0</ele><time>2026-04-12T12:48:49Z</time></trkpt><trkpt lat="45.623363849406864" lon="10.820733628196741"><ele>484.0</ele><time>2026-04-12T12:48:50Z</time></trkpt><trkpt lat="45.623358974576945" lon="10.820622937105359"><ele>484.0</ele><time>2026-04-12T12:48:51Z</time></trkpt><trkpt lat="45.623370789718535" lon="10.82051404496573"><ele>484.00000000000006</ele><time>2026-04-12T12:48:52Z</time></trkpt><trkpt lat="45.62339083566459" lon="10.820393166317523"><ele>484.0</ele><time>2026-04-12T12:48:53Z</time></trkpt><trkpt lat="45.623424561383835" lon="10.820264472107493"><ele>483.2</ele><time>2026-04-12T12:48:54Z</time></trkpt><trkpt lat="45.623460679917606" lon="10.820125941755688"><ele>482.4</ele><time>2026-04-12T12:48:55Z</time></trkpt><trkpt lat="45.62348916983558" lon="10.819979761710096"><ele>481.6</ele><time>2026-04-12T12:48:56Z</time></trkpt><trkpt lat="45.62352124295657" lon="10.81983056419179"><ele>480.8</ele><time>2026-04-12T12:48:57Z</time></trkpt><trkpt lat="45.62352927831315" lon="10.819670413281008"><ele>480.0</ele><time>2026-04-12T12:48:58Z</time></trkpt><trkpt lat="45.623524546655794" lon="10.819509404025577"><ele>480.0</ele><time>2026-04-12T12:48:59Z</time></trkpt><trkpt lat="45.62352048988587" lon="10.819369425399694"><ele>480.0</ele><time>2026-04-12T12:49:00Z</time></trkpt><trkpt lat="45.62350033823132" lon="10.81924751390236"><ele>480.0</ele><time>2026-04-12T12:49:01Z</time></trkpt><trkpt lat="45.623503053425786" lon="10.819130786666339"><ele>480.0</ele><time>2026-04-12T12:49:02Z</time></trkpt><trkpt lat="45.623505999152975" lon="10.819016614867229"><ele>480.0</ele><time>2026-04-12T12:49:03Z</time></trkpt><trkpt lat="45.62351404426504" lon="10.818913667257346"><ele>480.0</ele><time>2026-04-12T12:49:04Z</time></trkpt><trkpt lat="45.62352036396912" lon="10.818805095747791"><ele>479.6</ele><time>2026-04-12T12:49:05Z</time></trkpt><trkpt lat="45.623540660655415" lon="10.818715071302407"><ele>479.2</ele><time>2026-04-12T12:49:06Z</time></trkpt><trkpt lat="45.623584576939905" lon="10.818565925177078"><ele>478.79999999999995</ele><time>2026-04-12T12:49:08Z</time></trkpt><trkpt lat="45.6236442043306" lon="10.818450720781682"><ele>478.4</ele><time>2026-04-12T12:49:10Z</time></trkpt><trkpt lat="45.623769736489194" lon="10.818446218053069"><ele>478.0</ele><time>2026-04-12T12:49:12Z</time></trkpt><trkpt lat="45.62384313595045" lon="10.818428356247793"><ele>478.00000000000006</ele><time>2026-04-12T12:49:13Z</time></trkpt><trkpt lat="45.623916346390835" lon="10.818434703943796"><ele>478.0</ele><time>2026-04-12T12:49:14Z</time></trkpt><trkpt lat="45.62401203428908" lon="10.818399253613576"><ele>478.0</ele><time>2026-04-12T12:49:16Z</time></trkpt><trkpt lat="45.624064095469855" lon="10.818275320181533"><ele>478.0</ele><time>2026-04-12T12:49:18Z</time></trkpt><trkpt lat="45.62407236229954" lon="10.818148246921158"><ele>478.00000000000006</ele><time>2026-04-12T12:49:20Z</time></trkpt><trkpt lat="45.62399973733961" lon="10.818093936177467"><ele>478.0</ele><time>2026-04-12T12:49:21Z</time></trkpt><trkpt lat="45.62392917129777" lon="10.818060425257206"><ele>478.0</ele><time>2026-04-12T12:49:22Z</time></trkpt><trkpt lat="45.62385291682342" lon="10.817995368774369"><ele>477.99999999999994</ele><time>2026-04-12T12:49:23Z</time></trkpt><trkpt lat="45.623761163547385" lon="10.817937819134823"><ele>477.99999999999994</ele><time>2026-04-12T12:49:24Z</time></trkpt><trkpt lat="45.62367923020837" lon="10.817841308001448"><ele>478.0</ele><time>2026-04-12T12:49:25Z</time></trkpt><trkpt lat="45.6235801950057" lon="10.817755635007652"><ele>478.0</ele><time>2026-04-12T12:49:26Z</time></trkpt><trkpt lat="45.623489558943575" lon="10.817675810881587"><ele>475.2</ele><time>2026-04-12T12:49:27Z</time></trkpt><trkpt lat="45.623385702444956" lon="10.817599413311433"><ele>472.4</ele><time>2026-04-12T12:49:28Z</time></trkpt><trkpt lat="45.62329712680645" lon="10.817516885136103"><ele>469.59999999999997</ele><time>2026-04-12T12:49:29Z</time></trkpt><trkpt lat="45.623212378811985" lon="10.817433622724508"><ele>466.79999999999995</ele><time>2026-04-12T12:49:30Z</time></trkpt><trkpt lat="45.62312823144647" lon="10.817355175353537"><ele>464.0</ele><time>2026-04-12T12:49:31Z</time></trkpt><trkpt lat="45.6230435460046" lon="10.817305078228186"><ele>463.99999999999994</ele><time>2026-04-12T12:49:32Z</time></trkpt><trkpt lat="45.62295953473855" lon="10.817285962047423"><ele>464.0</ele><time>2026-04-12T12:49:33Z</time></trkpt><trkpt lat="45.62288079505541" lon="10.817254354067181"><ele>464.0</ele><time>2026-04-12T12:49:34Z</time></trkpt><trkpt lat="45.622806666770494" lon="10.81722094393966"><ele>464.0</ele><time>2026-04-12T12:49:35Z</time></trkpt><trkpt lat="45.6227346796351" lon="10.817191896063632"><ele>463.99999999999994</ele><time>2026-04-12T12:49:36Z</time></trkpt><trkpt lat="45.62265926775842" lon="10.817186449472183"><ele>464.0</ele><time>2026-04-12T12:49:37Z</time></trkpt><trkpt lat="45.62259935520114" lon="10.817127529882416"><ele>461.99999999999994</ele><time>2026-04-12T12:49:38Z</time></trkpt><trkpt lat="45.62254026374159" lon="10.817083574916644"><ele>460.0</ele><time>2026-04-12T12:49:39Z</time></trkpt><trkpt lat="45.6224790783705" lon="10.817040915766656"><ele>458.0</ele><time>2026-04-12T12:49:40Z</time></trkpt><trkpt lat="45.622372058032234" lon="10.816961196633018"><ele>456.0</ele><time>2026-04-12T12:49:42Z</time></trkpt><trkpt lat="45.622315103026814" lon="10.816906427225874"><ele>453.99999999999994</ele><time>2026-04-12T12:49:43Z</time></trkpt><trkpt lat="45.62226392126492" lon="10.816836053799037"><ele>452.0</ele><time>2026-04-12T12:49:44Z</time></trkpt><trkpt lat="45.62219578064493" lon="10.816790275022813"><ele>451.99999999999994</ele><time>2026-04-12T12:49:45Z</time></trkpt><trkpt lat="45.622131868008175" lon="10.816741439060205"><ele>452.0</ele><time>2026-04-12T12:49:46Z</time></trkpt><trkpt lat="45.62207649263673" lon="10.816695612513561"><ele>452.0</ele><time>2026-04-12T12:49:47Z</time></trkpt><trkpt lat="45.62197576492122" lon="10.816587706857671"><ele>452.0</ele><time>2026-04-12T12:49:49Z</time></trkpt><trkpt lat="45.62193359659174" lon="10.816511025842418"><ele>451.99999999999994</ele><time>2026-04-12T12:49:50Z</time></trkpt><trkpt lat="45.621890883581756" lon="10.816437074022456"><ele>452.0</ele><time>2026-04-12T12:49:51Z</time></trkpt><trkpt lat="45.621842627894736" lon="10.816353492537566"><ele>451.3333333333333</ele><time>2026-04-12T12:49:52Z</time></trkpt><trkpt lat="45.621801532290434" lon="10.816268642221711"><ele>450.66666666666663</ele><time>2026-04-12T12:49:53Z</time></trkpt><trkpt lat="45.621765259393435" lon="10.816175305334847"><ele>450.0</ele><time>2026-04-12T12:49:54Z</time></trkpt><trkpt lat="45.62172796699147" lon="10.816078858384994"><ele>449.33333333333337</ele><time>2026-04-12T12:49:55Z</time></trkpt><trkpt lat="45.62169700592188" lon="10.815979139687146"><ele>448.6666666666667</ele><time>2026-04-12T12:49:56Z</time></trkpt><trkpt lat="45.62164862789365" lon="10.815876173256143"><ele>448.0</ele><time>2026-04-12T12:49:57Z</time></trkpt><trkpt lat="45.62162320736927" lon="10.815750801039991"><ele>446.25</ele><time>2026-04-12T12:49:58Z</time></trkpt><trkpt lat="45.62158385830023" lon="10.815614790211168"><ele>444.5</ele><time>2026-04-12T12:49:59Z</time></trkpt><trkpt lat="45.62154894324968" lon="10.815459166058298"><ele>442.75</ele><time>2026-04-12T12:50:00Z</time></trkpt><trkpt lat="45.62151331394336" lon="10.81528863480854"><ele>441.0</ele><time>2026-04-12T12:50:01Z</time></trkpt><trkpt lat="45.621475534895424" lon="10.81511653475812"><ele>439.75</ele><time>2026-04-12T12:50:02Z</time></trkpt><trkpt lat="45.62143867811179" lon="10.814947868095418"><ele>438.5</ele><time>2026-04-12T12:50:03Z</time></trkpt><trkpt lat="45.62141311850832" lon="10.814784085995175"><ele>437.25</ele><time>2026-04-12T12:50:04Z</time></trkpt><trkpt lat="45.62141077924731" lon="10.81462555050829"><ele>436.0</ele><time>2026-04-12T12:50:05Z</time></trkpt><trkpt lat="45.6214256399577" lon="10.814479852614605"><ele>436.00000000000006</ele><time>2026-04-12T12:50:06Z</time></trkpt><trkpt lat="45.62143767970541" lon="10.81435266314263"><ele>436.0</ele><time>2026-04-12T12:50:07Z</time></trkpt><trkpt lat="45.62145039809968" lon="10.814244043074865"><ele>436.0</ele><time>2026-04-12T12:50:08Z</time></trkpt><trkpt lat="45.621465528947745" lon="10.81414621355754"><ele>436.0</ele><time>2026-04-12T12:50:09Z</time></trkpt><trkpt lat="45.62144911237833" lon="10.814044517282875"><ele>436.00000000000006</ele><time>2026-04-12T12:50:10Z</time></trkpt><trkpt lat="45.621387204444865" lon="10.813972986664167"><ele>436.0</ele><time>2026-04-12T12:50:11Z</time></trkpt><trkpt lat="45.621299898812715" lon="10.813919945962045"><ele>436.0</ele><time>2026-04-12T12:50:12Z</time></trkpt><trkpt lat="45.62119553218965" lon="10.813869299664525"><ele>436.0</ele><time>2026-04-12T12:50:13Z</time></trkpt><trkpt lat="45.62108433655646" lon="10.813792192036466"><ele>436.0</ele><time>2026-04-12T12:50:14Z</time></trkpt><trkpt lat="45.62096655468706" lon="10.81378257467167"><ele>436.0</ele><time>2026-04-12T12:50:15Z</time></trkpt><trkpt lat="45.62086723396337" lon="10.813733095846224"><ele>434.4</ele><time>2026-04-12T12:50:16Z</time></trkpt><trkpt lat="45.62077432072071" lon="10.813692322097856"><ele>432.8</ele><time>2026-04-12T12:50:17Z</time></trkpt><trkpt lat="45.62068300970666" lon="10.813639129388596"><ele>431.19999999999993</ele><time>2026-04-12T12:50:18Z</time></trkpt><trkpt lat="45.620599424772266" lon="10.81356474704606"><ele>429.59999999999997</ele><time>2026-04-12T12:50:19Z</time></trkpt><trkpt lat="45.62051982024421" lon="10.813481374536163"><ele>428.0</ele><time>2026-04-12T12:50:20Z</time></trkpt><trkpt lat="45.62045303310762" lon="10.813381809120674"><ele>427.25</ele><time>2026-04-12T12:50:21Z</time></trkpt><trkpt lat="45.620388712027456" lon="10.813259425928017"><ele>426.5</ele><time>2026-04-12T12:50:22Z</time></trkpt><trkpt lat="45.62031064552374" lon="10.81311778413105"><ele>425.75</ele><time>2026-04-12T12:50:23Z</time></trkpt><trkpt lat="45.620240685815965" lon="10.812954952306052"><ele>425.0</ele><time>2026-04-12T12:50:24Z</time></trkpt><trkpt lat="45.62016413403598" lon="10.81279463653844"><ele>421.75</ele><time>2026-04-12T12:50:25Z</time></trkpt><trkpt lat="45.6200792132684" lon="10.812652379031375"><ele>418.5</ele><time>2026-04-12T12:50:26Z</time></trkpt><trkpt lat="45.61998602082595" lon="10.812518952448592"><ele>415.25</ele><time>2026-04-12T12:50:27Z</time></trkpt><trkpt lat="45.61989071217387" lon="10.812384068046073"><ele>412.0</ele><time>2026-04-12T12:50:28Z</time></trkpt><trkpt lat="45.61980609945348" lon="10.812248740608391"><ele>412.0</ele><time>2026-04-12T12:50:29Z</time></trkpt><trkpt lat="45.61972990211996" lon="10.812119344665742"><ele>412.0</ele><time>2026-04-12T12:50:30Z</time></trkpt><trkpt lat="45.61965890218248" lon="10.811992001369818"><ele>412.0</ele><time>2026-04-12T12:50:31Z</time></trkpt><trkpt lat="45.61959431764498" lon="10.811863646539113"><ele>412.0</ele><time>2026-04-12T12:50:32Z</time></trkpt><trkpt lat="45.61953689585833" lon="10.811727000911565"><ele>411.6</ele><time>2026-04-12T12:50:33Z</time></trkpt><trkpt lat="45.61948688071615" lon="10.811591373340976"><ele>411.20000000000005</ele><time>2026-04-12T12:50:34Z</time></trkpt><trkpt lat="45.61942887644824" lon="10.811459499873308"><ele>410.8</ele><time>2026-04-12T12:50:35Z</time></trkpt><trkpt lat="45.61935839316663" lon="10.811334064380251"><ele>410.4</ele><time>2026-04-12T12:50:36Z</time></trkpt><trkpt lat="45.6192704559203" lon="10.811223536113774"><ele>410.0</ele><time>2026-04-12T12:50:37Z</time></trkpt><trkpt lat="45.61917256535491" lon="10.811115480571404"><ele>407.5</ele><time>2026-04-12T12:50:38Z</time></trkpt><trkpt lat="45.619083153099545" lon="10.81101003550814"><ele>405.0</ele><time>2026-04-12T12:50:39Z</time></trkpt><trkpt lat="45.618995717236714" lon="10.810897966159395"><ele>402.5</ele><time>2026-04-12T12:50:40Z</time></trkpt><trkpt lat="45.61889541033032" lon="10.810805965516813"><ele>400.0</ele><time>2026-04-12T12:50:41Z</time></trkpt><trkpt lat="45.61879777810306" lon="10.8107160995739"><ele>400.0</ele><time>2026-04-12T12:50:42Z</time></trkpt><trkpt lat="45.61869623818563" lon="10.810629038786287"><ele>400.0</ele><time>2026-04-12T12:50:43Z</time></trkpt><trkpt lat="45.61860131157363" lon="10.810556012712526"><ele>400.0</ele><time>2026-04-12T12:50:44Z</time></trkpt><trkpt lat="45.618515641315184" lon="10.810490852432984"><ele>400.0</ele><time>2026-04-12T12:50:45Z</time></trkpt><trkpt lat="45.618434229776184" lon="10.810421807741147"><ele>400.0</ele><time>2026-04-12T12:50:46Z</time></trkpt><trkpt lat="45.61836775697933" lon="10.810337572044258"><ele>396.75</ele><time>2026-04-12T12:50:47Z</time></trkpt><trkpt lat="45.61830844319796" lon="10.810214020140458"><ele>393.5</ele><time>2026-04-12T12:50:48Z</time></trkpt><trkpt lat="45.61824842684206" lon="10.810069379443442"><ele>390.25</ele><time>2026-04-12T12:50:49Z</time></trkpt><trkpt lat="45.61818158957977" lon="10.80992516772438"><ele>387.0</ele><time>2026-04-12T12:50:50Z</time></trkpt><trkpt lat="45.618105903537995" lon="10.809791825189889"><ele>387.0</ele><time>2026-04-12T12:50:51Z</time></trkpt><trkpt lat="45.61801809711479" lon="10.809661381769608"><ele>387.0</ele><time>2026-04-12T12:50:52Z</time></trkpt><trkpt lat="45.61789656754504" lon="10.80957627123779"><ele>387.0</ele><time>2026-04-12T12:50:53Z</time></trkpt><trkpt lat="45.6177764900343" lon="10.809488917074482"><ele>387.0</ele><time>2026-04-12T12:50:54Z</time></trkpt><trkpt lat="45.61766653152773" lon="10.809386298659724"><ele>383.5</ele><time>2026-04-12T12:50:55Z</time></trkpt><trkpt lat="45.617557289014925" lon="10.809275039889021"><ele>380.0</ele><time>2026-04-12T12:50:56Z</time></trkpt><trkpt lat="45.61744229605747" lon="10.809174105331595"><ele>376.5</ele><time>2026-04-12T12:50:57Z</time></trkpt><trkpt lat="45.61731859371878" lon="10.809126268805175"><ele>373.0</ele><time>2026-04-12T12:50:58Z</time></trkpt><trkpt lat="45.617216241134585" lon="10.809078643884336"><ele>373.0</ele><time>2026-04-12T12:50:59Z</time></trkpt><trkpt lat="45.61713990743743" lon="10.809015664862923"><ele>373.0</ele><time>2026-04-12T12:51:00Z</time></trkpt><trkpt lat="45.61706604597818" lon="10.808966964667075"><ele>373.0</ele><time>2026-04-12T12:51:01Z</time></trkpt><trkpt lat="45.61699892897181" lon="10.808891566661156"><ele>373.0</ele><time>2026-04-12T12:51:02Z</time></trkpt><trkpt lat="45.616921869524276" lon="10.80879797368178"><ele>373.0</ele><time>2026-04-12T12:51:03Z</time></trkpt><trkpt lat="45.61683090557326" lon="10.808684749854331"><ele>372.25</ele><time>2026-04-12T12:51:04Z</time></trkpt><trkpt lat="45.616722316607756" lon="10.808583697960248"><ele>371.5</ele><time>2026-04-12T12:51:05Z</time></trkpt><trkpt lat="45.616610297240854" lon="10.808455209570761"><ele>370.75</ele><time>2026-04-12T12:51:06Z</time></trkpt><trkpt lat="45.61650951283148" lon="10.808362207627502"><ele>370.0</ele><time>2026-04-12T12:51:07Z</time></trkpt><trkpt lat="45.616394364144135" lon="10.808263458467598"><ele>368.25</ele><time>2026-04-12T12:51:08Z</time></trkpt><trkpt lat="45.61628900151031" lon="10.808180435112714"><ele>366.5</ele><time>2026-04-12T12:51:09Z</time></trkpt><trkpt lat="45.61618930404334" lon="10.80809731210558"><ele>364.75</ele><time>2026-04-12T12:51:10Z</time></trkpt><trkpt lat="45.616085983709084" lon="10.808037714575544"><ele>363.0</ele><time>2026-04-12T12:51:11Z</time></trkpt><trkpt lat="45.615970725800224" lon="10.808007422892075"><ele>360.25</ele><time>2026-04-12T12:51:12Z</time></trkpt><trkpt lat="45.61585408447494" lon="10.807997209374436"><ele>357.5</ele><time>2026-04-12T12:51:13Z</time></trkpt><trkpt lat="45.61574356521899" lon="10.80796099177627"><ele>354.75</ele><time>2026-04-12T12:51:14Z</time></trkpt><trkpt lat="45.615632926745086" lon="10.807920095367521"><ele>352.0</ele><time>2026-04-12T12:51:15Z</time></trkpt><trkpt lat="45.6155198373908" lon="10.807865867599265"><ele>352.0</ele><time>2026-04-12T12:51:16Z</time></trkpt><trkpt lat="45.61540038208152" lon="10.807825993409422"><ele>352.0</ele><time>2026-04-12T12:51:17Z</time></trkpt><trkpt lat="45.61530412068333" lon="10.807717901806168"><ele>352.0</ele><time>2026-04-12T12:51:18Z</time></trkpt><trkpt lat="45.61520903808286" lon="10.807623518991376"><ele>352.0</ele><time>2026-04-12T12:51:19Z</time></trkpt><trkpt lat="45.61511354891364" lon="10.807546653317768"><ele>350.0</ele><time>2026-04-12T12:51:20Z</time></trkpt><trkpt lat="45.61501527216521" lon="10.807501184318474"><ele>348.0</ele><time>2026-04-12T12:51:21Z</time></trkpt><trkpt lat="45.61491382846938" lon="10.807457335155059"><ele>346.0</ele><time>2026-04-12T12:51:22Z</time></trkpt><trkpt lat="45.61480301004473" lon="10.807423818032122"><ele>344.0</ele><time>2026-04-12T12:51:23Z</time></trkpt><trkpt lat="45.614698580349625" lon="10.807361951395277"><ele>342.0</ele><time>2026-04-12T12:51:24Z</time></trkpt><trkpt lat="45.61460169258159" lon="10.807324025620698"><ele>342.0</ele><time>2026-04-12T12:51:25Z</time></trkpt><trkpt lat="45.614520254214014" lon="10.807304791110706"><ele>342.0</ele><time>2026-04-12T12:51:26Z</time></trkpt><trkpt lat="45.614451872793566" lon="10.807278262087477"><ele>342.0</ele><time>2026-04-12T12:51:27Z</time></trkpt><trkpt lat="45.614319629386884" lon="10.807310462805448"><ele>342.0</ele><time>2026-04-12T12:51:29Z</time></trkpt><trkpt lat="45.61425471568153" lon="10.807387002819041"><ele>342.0</ele><time>2026-04-12T12:51:30Z</time></trkpt><trkpt lat="45.61418418768252" lon="10.807454086829347"><ele>342.8333333333333</ele><time>2026-04-12T12:51:31Z</time></trkpt><trkpt lat="45.61411827214547" lon="10.807540142017931"><ele>343.6666666666667</ele><time>2026-04-12T12:51:32Z</time></trkpt><trkpt lat="45.61406060942411" lon="10.80761116344196"><ele>344.5</ele><time>2026-04-12T12:51:33Z</time></trkpt><trkpt lat="45.613961093282626" lon="10.807702045331085"><ele>345.33333333333337</ele><time>2026-04-12T12:51:35Z</time></trkpt><trkpt lat="45.61389959845903" lon="10.807627704891008"><ele>346.1666666666667</ele><time>2026-04-12T12:51:36Z</time></trkpt><trkpt lat="45.613829016193016" lon="10.807604096016687"><ele>347.0</ele><time>2026-04-12T12:51:37Z</time></trkpt><trkpt lat="45.61375990668331" lon="10.807541295762523"><ele>344.1666666666667</ele><time>2026-04-12T12:51:38Z</time></trkpt><trkpt lat="45.613686561670264" lon="10.807483083031396"><ele>341.33333333333337</ele><time>2026-04-12T12:51:39Z</time></trkpt><trkpt lat="45.61361176128294" lon="10.80743934453633"><ele>338.5</ele><time>2026-04-12T12:51:40Z</time></trkpt><trkpt lat="45.613526959405725" lon="10.80741426256615"><ele>335.6666666666667</ele><time>2026-04-12T12:51:41Z</time></trkpt><trkpt lat="45.613438592827706" lon="10.807400016947343"><ele>332.8333333333333</ele><time>2026-04-12T12:51:42Z</time></trkpt><trkpt lat="45.61334402771964" lon="10.807400703737652"><ele>330.0</ele><time>2026-04-12T12:51:43Z</time></trkpt><trkpt lat="45.61325159463805" lon="10.807409224359223"><ele>329.4</ele><time>2026-04-12T12:51:44Z</time></trkpt><trkpt lat="45.61315253897228" lon="10.80742304007661"><ele>328.8</ele><time>2026-04-12T12:51:45Z</time></trkpt><trkpt lat="45.61305029054016" lon="10.807450412098358"><ele>328.20000000000005</ele><time>2026-04-12T12:51:46Z</time></trkpt><trkpt lat="45.61294957668047" lon="10.807465322989149"><ele>327.6</ele><time>2026-04-12T12:51:47Z</time></trkpt><trkpt lat="45.61284916799012" lon="10.80748854273771"><ele>327.0</ele><time>2026-04-12T12:51:48Z</time></trkpt><trkpt lat="45.6127501386109" lon="10.807504286748092"><ele>325.40000000000003</ele><time>2026-04-12T12:51:49Z</time></trkpt><trkpt lat="45.61264992033376" lon="10.807504700474981"><ele>323.8</ele><time>2026-04-12T12:51:50Z</time></trkpt><trkpt lat="45.612551713501816" lon="10.80750585241454"><ele>322.2</ele><time>2026-04-12T12:51:51Z</time></trkpt><trkpt lat="45.612449509943026" lon="10.80752417790747"><ele>320.6</ele><time>2026-04-12T12:51:52Z</time></trkpt><trkpt lat="45.61235293658764" lon="10.807527916138223"><ele>319.0</ele><time>2026-04-12T12:51:53Z</time></trkpt><trkpt lat="45.61226593906596" lon="10.8075480358176"><ele>319.0</ele><time>2026-04-12T12:51:54Z</time></trkpt><trkpt lat="45.61218482846134" lon="10.807559690618008"><ele>319.0</ele><time>2026-04-12T12:51:55Z</time></trkpt><trkpt lat="45.612108523556834" lon="10.807579846080014"><ele>319.0</ele><time>2026-04-12T12:51:56Z</time></trkpt><trkpt lat="45.612037359032534" lon="10.807592033154439"><ele>319.0</ele><time>2026-04-12T12:51:57Z</time></trkpt><trkpt lat="45.61197065908317" lon="10.80760424092071"><ele>319.0</ele><time>2026-04-12T12:51:58Z</time></trkpt><trkpt lat="45.61190872505198" lon="10.807586344849154"><ele>319.0</ele><time>2026-04-12T12:51:59Z</time></trkpt><trkpt lat="45.611858445804664" lon="10.807518884509607"><ele>319.0</ele><time>2026-04-12T12:52:00Z</time></trkpt><trkpt lat="45.61183163293949" lon="10.807412717270656"><ele>317.3333333333333</ele><time>2026-04-12T12:52:01Z</time></trkpt><trkpt lat="45.61183649401428" lon="10.807289574438506"><ele>315.66666666666663</ele><time>2026-04-12T12:52:02Z</time></trkpt><trkpt lat="45.61180151517515" lon="10.807181684846984"><ele>314.0</ele><time>2026-04-12T12:52:03Z</time></trkpt><trkpt lat="45.611776967366" lon="10.807062060418831"><ele>312.3333333333333</ele><time>2026-04-12T12:52:04Z</time></trkpt><trkpt lat="45.61175646092255" lon="10.806946994004198"><ele>310.6666666666667</ele><time>2026-04-12T12:52:05Z</time></trkpt><trkpt lat="45.61173619633886" lon="10.806836413501191"><ele>309.0</ele><time>2026-04-12T12:52:06Z</time></trkpt><trkpt lat="45.61171775366025" lon="10.806734692982412"><ele>308.8333333333333</ele><time>2026-04-12T12:52:07Z</time></trkpt><trkpt lat="45.61169980014144" lon="10.806642068069126"><ele>308.6666666666667</ele><time>2026-04-12T12:52:08Z</time></trkpt><trkpt lat="45.611670601587726" lon="10.806560651903716"><ele>308.5</ele><time>2026-04-12T12:52:09Z</time></trkpt><trkpt lat="45.61162200895534" lon="10.806502586731366"><ele>308.33333333333337</ele><time>2026-04-12T12:52:10Z</time></trkpt><trkpt lat="45.61155790756533" lon="10.80644533065035"><ele>308.1666666666667</ele><time>2026-04-12T12:52:11Z</time></trkpt><trkpt lat="45.611485998434794" lon="10.8063835227776"><ele>308.0</ele><time>2026-04-12T12:52:12Z</time></trkpt><trkpt lat="45.61139236228078" lon="10.806307582075814"><ele>308.0</ele><time>2026-04-12T12:52:13Z</time></trkpt><trkpt lat="45.611290168583395" lon="10.806232929683954"><ele>308.0</ele><time>2026-04-12T12:52:14Z</time></trkpt><trkpt lat="45.61118247271158" lon="10.806185336420109"><ele>308.0</ele><time>2026-04-12T12:52:15Z</time></trkpt><trkpt lat="45.61108562682953" lon="10.806115365903729"><ele>308.0</ele><time>2026-04-12T12:52:16Z</time></trkpt><trkpt lat="45.61098443027585" lon="10.806060924119796"><ele>308.0</ele><time>2026-04-12T12:52:17Z</time></trkpt><trkpt lat="45.61088153209054" lon="10.806002022240396"><ele>305.75</ele><time>2026-04-12T12:52:18Z</time></trkpt><trkpt lat="45.61077538792945" lon="10.805942551548323"><ele>303.5</ele><time>2026-04-12T12:52:19Z</time></trkpt><trkpt lat="45.61066438937424" lon="10.80587526037327"><ele>301.25</ele><time>2026-04-12T12:52:20Z</time></trkpt><trkpt lat="45.61055505806119" lon="10.805805415908816"><ele>299.0</ele><time>2026-04-12T12:52:21Z</time></trkpt><trkpt lat="45.61044244804624" lon="10.805733515003656"><ele>297.75</ele><time>2026-04-12T12:52:22Z</time></trkpt><trkpt lat="45.610324761469734" lon="10.805672466783767"><ele>296.5</ele><time>2026-04-12T12:52:23Z</time></trkpt><trkpt lat="45.610213633275976" lon="10.805588951596684"><ele>295.25</ele><time>2026-04-12T12:52:24Z</time></trkpt><trkpt lat="45.61010261491084" lon="10.805520367875701"><ele>294.0</ele><time>2026-04-12T12:52:25Z</time></trkpt><trkpt lat="45.609999300170394" lon="10.805456555181719"><ele>294.0</ele><time>2026-04-12T12:52:26Z</time></trkpt><trkpt lat="45.60991504664387" lon="10.805394249842013"><ele>294.0</ele><time>2026-04-12T12:52:27Z</time></trkpt><trkpt lat="45.60984251093598" lon="10.805316310256561"><ele>294.0</ele><time>2026-04-12T12:52:28Z</time></trkpt><trkpt lat="45.609772511423806" lon="10.805229646516393"><ele>294.0</ele><time>2026-04-12T12:52:29Z</time></trkpt><trkpt lat="45.60969773092902" lon="10.80512860911366"><ele>294.0</ele><time>2026-04-12T12:52:30Z</time></trkpt><trkpt lat="45.609611961489776" lon="10.805039219735018"><ele>294.0</ele><time>2026-04-12T12:52:31Z</time></trkpt><trkpt lat="45.60953906440996" lon="10.804927161210987"><ele>294.0</ele><time>2026-04-12T12:52:32Z</time></trkpt><trkpt lat="45.60946595595135" lon="10.804811386069693"><ele>294.0</ele><time>2026-04-12T12:52:33Z</time></trkpt><trkpt lat="45.609412474181866" lon="10.804679255549768"><ele>294.0</ele><time>2026-04-12T12:52:34Z</time></trkpt><trkpt lat="45.60934287047312" lon="10.804567555444889"><ele>294.0</ele><time>2026-04-12T12:52:35Z</time></trkpt><trkpt lat="45.60926916458431" lon="10.804464897497835"><ele>292.8</ele><time>2026-04-12T12:52:36Z</time></trkpt><trkpt lat="45.60919579812657" lon="10.80437001496477"><ele>291.59999999999997</ele><time>2026-04-12T12:52:37Z</time></trkpt><trkpt lat="45.609122321225335" lon="10.804277312889"><ele>290.4</ele><time>2026-04-12T12:52:38Z</time></trkpt><trkpt lat="45.60904505905159" lon="10.804187757580266"><ele>289.2</ele><time>2026-04-12T12:52:39Z</time></trkpt><trkpt lat="45.6089745153332" lon="10.804106574120892"><ele>288.0</ele><time>2026-04-12T12:52:40Z</time></trkpt><trkpt lat="45.608905619542476" lon="10.804050776566074"><ele>288.0</ele><time>2026-04-12T12:52:41Z</time></trkpt><trkpt lat="45.60886183184885" lon="10.803980877550174"><ele>288.0</ele><time>2026-04-12T12:52:42Z</time></trkpt><trkpt lat="45.60880636399728" lon="10.8038680749232"><ele>288.0</ele><time>2026-04-12T12:52:44Z</time></trkpt><trkpt lat="45.608772124734244" lon="10.803766950864123"><ele>288.0</ele><time>2026-04-12T12:52:47Z</time></trkpt><trkpt lat="45.60871325948196" lon="10.803635353268353"><ele>288.0</ele><time>2026-04-12T12:52:49Z</time></trkpt><trkpt lat="45.60867527636758" lon="10.803541862595008"><ele>288.0</ele><time>2026-04-12T12:52:50Z</time></trkpt><trkpt lat="45.60863418010936" lon="10.803443733191495"><ele>287.1666666666667</ele><time>2026-04-12T12:52:51Z</time></trkpt><trkpt lat="45.60859143736806" lon="10.803344819321058"><ele>286.3333333333333</ele><time>2026-04-12T12:52:52Z</time></trkpt><trkpt lat="45.608548328726286" lon="10.803232493740037"><ele>285.5</ele><time>2026-04-12T12:52:53Z</time></trkpt><trkpt lat="45.60849857170023" lon="10.803112261458203"><ele>284.66666666666663</ele><time>2026-04-12T12:52:54Z</time></trkpt><trkpt lat="45.608464168635635" lon="10.803002945997944"><ele>283.8333333333333</ele><time>2026-04-12T12:52:55Z</time></trkpt><trkpt lat="45.6084286525403" lon="10.802903570131807"><ele>283.0</ele><time>2026-04-12T12:52:56Z</time></trkpt><trkpt lat="45.608388330489525" lon="10.802792932163037"><ele>283.0</ele><time>2026-04-12T12:52:57Z</time></trkpt><trkpt lat="45.60834654183915" lon="10.8026759002668"><ele>283.0</ele><time>2026-04-12T12:52:58Z</time></trkpt><trkpt lat="45.60830719548661" lon="10.80257048877988"><ele>283.0</ele><time>2026-04-12T12:52:59Z</time></trkpt><trkpt lat="45.608272711810045" lon="10.802479988431916"><ele>283.0</ele><time>2026-04-12T12:53:00Z</time></trkpt><trkpt lat="45.60822615943807" lon="10.80234423321278"><ele>283.0</ele><time>2026-04-12T12:53:02Z</time></trkpt><trkpt lat="45.608257501856315" lon="10.802239218800297"><ele>283.0</ele><time>2026-04-12T12:53:04Z</time></trkpt><trkpt lat="45.608324942758685" lon="10.802215774061773"><ele>283.0</ele><time>2026-04-12T12:53:05Z</time></trkpt><trkpt lat="45.60839518420646" lon="10.80221309627962"><ele>283.0</ele><time>2026-04-12T12:53:06Z</time></trkpt><trkpt lat="45.608473748688134" lon="10.802210101218407"><ele>283.0</ele><time>2026-04-12T12:53:07Z</time></trkpt><trkpt lat="45.60856200404028" lon="10.8022067367378"><ele>283.0</ele><time>2026-04-12T12:53:08Z</time></trkpt><trkpt lat="45.60865255848102" lon="10.802192061452152"><ele>283.0</ele><time>2026-04-12T12:53:09Z</time></trkpt><trkpt lat="45.608745570783995" lon="10.80218885824827"><ele>283.0</ele><time>2026-04-12T12:53:10Z</time></trkpt><trkpt lat="45.60885296137184" lon="10.802194301803457"><ele>284.4</ele><time>2026-04-12T12:53:11Z</time></trkpt><trkpt lat="45.6089568426726" lon="10.802205043140876"><ele>285.8</ele><time>2026-04-12T12:53:12Z</time></trkpt><trkpt lat="45.609050011995336" lon="10.802226825026644"><ele>287.2</ele><time>2026-04-12T12:53:13Z</time></trkpt><trkpt lat="45.60913494728611" lon="10.802249112540647"><ele>288.6</ele><time>2026-04-12T12:53:14Z</time></trkpt><trkpt lat="45.609206987230934" lon="10.802260437211983"><ele>290.0</ele><time>2026-04-12T12:53:15Z</time></trkpt><trkpt lat="45.60931593022915" lon="10.802223363842334"><ele>290.0</ele><time>2026-04-12T12:53:17Z</time></trkpt><trkpt lat="45.60940195054379" lon="10.802205619919024"><ele>290.0</ele><time>2026-04-12T12:53:19Z</time></trkpt><trkpt lat="45.60943500653462" lon="10.802298507279906"><ele>290.0</ele><time>2026-04-12T12:53:20Z</time></trkpt><trkpt lat="45.60949908697391" lon="10.802350266109903"><ele>290.0</ele><time>2026-04-12T12:53:21Z</time></trkpt><trkpt lat="45.60957977794364" lon="10.802397471303617"><ele>290.0</ele><time>2026-04-12T12:53:22Z</time></trkpt><trkpt lat="45.609668820855624" lon="10.802424833041007"><ele>290.0</ele><time>2026-04-12T12:53:23Z</time></trkpt><trkpt lat="45.6097591476447" lon="10.802438730260164"><ele>291.1666666666667</ele><time>2026-04-12T12:53:24Z</time></trkpt><trkpt lat="45.6098467012396" lon="10.80245178454829"><ele>292.33333333333337</ele><time>2026-04-12T12:53:25Z</time></trkpt><trkpt lat="45.60992586404049" lon="10.802462630850956"><ele>293.5</ele><time>2026-04-12T12:53:26Z</time></trkpt><trkpt lat="45.61000516243944" lon="10.80245158794976"><ele>294.6666666666667</ele><time>2026-04-12T12:53:27Z</time></trkpt><trkpt lat="45.610099288607906" lon="10.80242875569666"><ele>295.8333333333333</ele><time>2026-04-12T12:53:28Z</time></trkpt><trkpt lat="45.610186157756864" lon="10.802370381989663"><ele>297.0</ele><time>2026-04-12T12:53:29Z</time></trkpt><trkpt lat="45.61028478513593" lon="10.80229636635808"><ele>299.5</ele><time>2026-04-12T12:53:30Z</time></trkpt><trkpt lat="45.61038499620781" lon="10.802192705416662"><ele>302.0</ele><time>2026-04-12T12:53:31Z</time></trkpt><trkpt lat="45.61048299874335" lon="10.802070173570923"><ele>304.5</ele><time>2026-04-12T12:53:32Z</time></trkpt><trkpt lat="45.61057180383841" lon="10.801949497154549"><ele>307.0</ele><time>2026-04-12T12:53:33Z</time></trkpt><trkpt lat="45.61065425634702" lon="10.801853336796192"><ele>308.0</ele><time>2026-04-12T12:53:34Z</time></trkpt><trkpt lat="45.610732020325315" lon="10.801776080886565"><ele>309.0</ele><time>2026-04-12T12:53:35Z</time></trkpt><trkpt lat="45.610802191659644" lon="10.801706558467723"><ele>310.0</ele><time>2026-04-12T12:53:36Z</time></trkpt><trkpt lat="45.61086768546661" lon="10.80164020084851"><ele>311.0</ele><time>2026-04-12T12:53:37Z</time></trkpt><trkpt lat="45.61092043379703" lon="10.801569844884686"><ele>312.0</ele><time>2026-04-12T12:53:38Z</time></trkpt><trkpt lat="45.61096127659753" lon="10.80150072682447"><ele>313.0</ele><time>2026-04-12T12:53:39Z</time></trkpt><trkpt lat="45.61100166824027" lon="10.80137148590257"><ele>313.0</ele><time>2026-04-12T12:53:41Z</time></trkpt><trkpt lat="45.611020725328544" lon="10.801233374848378"><ele>313.0</ele><time>2026-04-12T12:53:43Z</time></trkpt><trkpt lat="45.61105503327022" lon="10.801105330934687"><ele>313.0</ele><time>2026-04-12T12:53:45Z</time></trkpt><trkpt lat="45.61109893628594" lon="10.800987014020421"><ele>313.0</ele><time>2026-04-12T12:53:47Z</time></trkpt><trkpt lat="45.611190064643786" lon="10.80088328510344"><ele>313.0</ele><time>2026-04-12T12:53:49Z</time></trkpt><trkpt lat="45.61130321077395" lon="10.80082642338721"><ele>314.8333333333333</ele><time>2026-04-12T12:53:51Z</time></trkpt><trkpt lat="45.61135390303056" lon="10.800742923657994"><ele>316.66666666666663</ele><time>2026-04-12T12:53:52Z</time></trkpt><trkpt lat="45.61140981115596" lon="10.800671904949267"><ele>318.5</ele><time>2026-04-12T12:53:53Z</time></trkpt><trkpt lat="45.61142832991755" lon="10.80056385609249"><ele>320.3333333333333</ele><time>2026-04-12T12:53:54Z</time></trkpt><trkpt lat="45.611480957221445" lon="10.800486312989724"><ele>322.1666666666667</ele><time>2026-04-12T12:53:55Z</time></trkpt><trkpt lat="45.611534092732285" lon="10.800389326747762"><ele>324.0</ele><time>2026-04-12T12:53:56Z</time></trkpt><trkpt lat="45.611600099967625" lon="10.800302284518517"><ele>324.0</ele><time>2026-04-12T12:53:57Z</time></trkpt><trkpt lat="45.61167785275983" lon="10.800217855220119"><ele>324.0</ele><time>2026-04-12T12:53:58Z</time></trkpt><trkpt lat="45.61176243133218" lon="10.800134411572552"><ele>324.0</ele><time>2026-04-12T12:53:59Z</time></trkpt><trkpt lat="45.61185019939874" lon="10.80005039134751"><ele>324.0</ele><time>2026-04-12T12:54:00Z</time></trkpt><trkpt lat="45.61194478294974" lon="10.799982677646533"><ele>324.0</ele><time>2026-04-12T12:54:01Z</time></trkpt><trkpt lat="45.612047899920434" lon="10.799933059046472"><ele>329.25</ele><time>2026-04-12T12:54:02Z</time></trkpt><trkpt lat="45.61213585189407" lon="10.799817635803414"><ele>334.5</ele><time>2026-04-12T12:54:03Z</time></trkpt><trkpt lat="45.61222935448801" lon="10.799690223462525"><ele>339.75</ele><time>2026-04-12T12:54:04Z</time></trkpt><trkpt lat="45.6123236934124" lon="10.799556317245852"><ele>345.0</ele><time>2026-04-12T12:54:05Z</time></trkpt><trkpt lat="45.61240201865198" lon="10.799428893745374"><ele>343.5</ele><time>2026-04-12T12:54:06Z</time></trkpt><trkpt lat="45.61245906702683" lon="10.799317318559506"><ele>342.0</ele><time>2026-04-12T12:54:07Z</time></trkpt><trkpt lat="45.61248553546577" lon="10.799206325109129"><ele>340.5</ele><time>2026-04-12T12:54:08Z</time></trkpt><trkpt lat="45.61253122573409" lon="10.799136205616348"><ele>339.0</ele><time>2026-04-12T12:54:09Z</time></trkpt><trkpt lat="45.61260034517513" lon="10.799095416641894"><ele>337.5</ele><time>2026-04-12T12:54:10Z</time></trkpt><trkpt lat="45.612663106132935" lon="10.79904643420278"><ele>336.0</ele><time>2026-04-12T12:54:11Z</time></trkpt><trkpt lat="45.61271292110871" lon="10.798967476274738"><ele>336.0</ele><time>2026-04-12T12:54:12Z</time></trkpt><trkpt lat="45.61275216296158" lon="10.798844769409653"><ele>336.0</ele><time>2026-04-12T12:54:13Z</time></trkpt><trkpt lat="45.612765029254405" lon="10.798704740228978"><ele>336.0</ele><time>2026-04-12T12:54:14Z</time></trkpt><trkpt lat="45.612763764437446" lon="10.79857419114068"><ele>336.0</ele><time>2026-04-12T12:54:15Z</time></trkpt><trkpt lat="45.61274099687234" lon="10.798464241177586"><ele>336.0</ele><time>2026-04-12T12:54:16Z</time></trkpt><trkpt lat="45.61269751864265" lon="10.798358693868686"><ele>336.6666666666667</ele><time>2026-04-12T12:54:17Z</time></trkpt><trkpt lat="45.61264593688111" lon="10.798262183448447"><ele>337.3333333333333</ele><time>2026-04-12T12:54:18Z</time></trkpt><trkpt lat="45.6125929332894" lon="10.798162377299441"><ele>338.0</ele><time>2026-04-12T12:54:19Z</time></trkpt><trkpt lat="45.61254620315841" lon="10.798050390293122"><ele>338.66666666666663</ele><time>2026-04-12T12:54:20Z</time></trkpt><trkpt lat="45.61252220383204" lon="10.797936185376392"><ele>339.3333333333333</ele><time>2026-04-12T12:54:21Z</time></trkpt><trkpt lat="45.612514137580455" lon="10.797827135131145"><ele>340.0</ele><time>2026-04-12T12:54:22Z</time></trkpt><trkpt lat="45.612525252787705" lon="10.797721142101144"><ele>340.8</ele><time>2026-04-12T12:54:23Z</time></trkpt><trkpt lat="45.61256036135009" lon="10.797612043645719"><ele>341.6</ele><time>2026-04-12T12:54:24Z</time></trkpt><trkpt lat="45.61261708629453" lon="10.797505715628958"><ele>342.4</ele><time>2026-04-12T12:54:25Z</time></trkpt><trkpt lat="45.612679110533755" lon="10.797407560090358"><ele>343.2</ele><time>2026-04-12T12:54:26Z</time></trkpt><trkpt lat="45.61276487638197" lon="10.797355011045807"><ele>344.0</ele><time>2026-04-12T12:54:27Z</time></trkpt><trkpt lat="45.612836159206395" lon="10.797280966640077"><ele>347.1666666666667</ele><time>2026-04-12T12:54:28Z</time></trkpt><trkpt lat="45.61290340908068" lon="10.797200615892661"><ele>350.33333333333337</ele><time>2026-04-12T12:54:29Z</time></trkpt><trkpt lat="45.61295033413444" lon="10.797107892946311"><ele>353.5</ele><time>2026-04-12T12:54:30Z</time></trkpt><trkpt lat="45.61300562445271" lon="10.797021766984772"><ele>356.6666666666667</ele><time>2026-04-12T12:54:31Z</time></trkpt><trkpt lat="45.61306902072545" lon="10.796936542210835"><ele>359.8333333333333</ele><time>2026-04-12T12:54:32Z</time></trkpt><trkpt lat="45.61309641392075" lon="10.796813280166392"><ele>363.0</ele><time>2026-04-12T12:54:33Z</time></trkpt><trkpt lat="45.61312817484236" lon="10.79672204571978"><ele>363.0</ele><time>2026-04-12T12:54:34Z</time></trkpt><trkpt lat="45.6131458728386" lon="10.796556454149759"><ele>363.0</ele><time>2026-04-12T12:54:36Z</time></trkpt><trkpt lat="45.613139125043816" lon="10.796461583171487"><ele>363.0</ele><time>2026-04-12T12:54:37Z</time></trkpt><trkpt lat="45.61307513669425" lon="10.796389588300222"><ele>363.0</ele><time>2026-04-12T12:54:38Z</time></trkpt><trkpt lat="45.61302058962961" lon="10.796331330076423"><ele>363.0</ele><time>2026-04-12T12:54:39Z</time></trkpt><trkpt lat="45.61295277591839" lon="10.796298342059883"><ele>363.0</ele><time>2026-04-12T12:54:40Z</time></trkpt><trkpt lat="45.61287267126548" lon="10.796218341219607"><ele>363.0</ele><time>2026-04-12T12:54:42Z</time></trkpt><trkpt lat="45.61289603390438" lon="10.796045564794767"><ele>363.0</ele><time>2026-04-12T12:54:44Z</time></trkpt><trkpt lat="45.61295897831382" lon="10.796005228306363"><ele>363.0</ele><time>2026-04-12T12:54:45Z</time></trkpt><trkpt lat="45.613034027895964" lon="10.795997227726529"><ele>363.0</ele><time>2026-04-12T12:54:46Z</time></trkpt><trkpt lat="45.613101162435576" lon="10.796025050159573"><ele>363.0</ele><time>2026-04-12T12:54:47Z</time></trkpt><trkpt lat="45.61317378776237" lon="10.796065800950894"><ele>363.0</ele><time>2026-04-12T12:54:48Z</time></trkpt><trkpt lat="45.61325030001791" lon="10.796096519925632"><ele>362.99999999999994</ele><time>2026-04-12T12:54:49Z</time></trkpt><trkpt lat="45.613330541786695" lon="10.7961105056805"><ele>363.0</ele><time>2026-04-12T12:54:50Z</time></trkpt><trkpt lat="45.61341100126298" lon="10.796125051717276"><ele>363.0</ele><time>2026-04-12T12:54:51Z</time></trkpt><trkpt lat="45.613482126136745" lon="10.796147684028888"><ele>363.0</ele><time>2026-04-12T12:54:52Z</time></trkpt><trkpt lat="45.61353918390808" lon="10.796208834678648"><ele>363.0</ele><time>2026-04-12T12:54:53Z</time></trkpt><trkpt lat="45.613600587216965" lon="10.796256626494825"><ele>362.99999999999994</ele><time>2026-04-12T12:54:54Z</time></trkpt><trkpt lat="45.613666468014884" lon="10.796302897112739"><ele>363.0</ele><time>2026-04-12T12:54:55Z</time></trkpt><trkpt lat="45.61371369796499" lon="10.79638400125427"><ele>366.4</ele><time>2026-04-12T12:54:56Z</time></trkpt><trkpt lat="45.61381325091309" lon="10.796475586172981"><ele>369.79999999999995</ele><time>2026-04-12T12:54:58Z</time></trkpt><trkpt lat="45.613923057519756" lon="10.796482310213738"><ele>373.2</ele><time>2026-04-12T12:55:00Z</time></trkpt><trkpt lat="45.61400894956405" lon="10.796487314348465"><ele>376.6</ele><time>2026-04-12T12:55:03Z</time></trkpt><trkpt lat="45.6140119428233" lon="10.79635015388308"><ele>380.0</ele><time>2026-04-12T12:55:06Z</time></trkpt><trkpt lat="45.61397209912572" lon="10.796188817391144"><ele>380.0</ele><time>2026-04-12T12:55:08Z</time></trkpt><trkpt lat="45.61393257438239" lon="10.796058474182846"><ele>380.0</ele><time>2026-04-12T12:55:10Z</time></trkpt><trkpt lat="45.61390308166369" lon="10.795935297945748"><ele>380.0</ele><time>2026-04-12T12:55:12Z</time></trkpt><trkpt lat="45.61389483677443" lon="10.795799599610493"><ele>380.0</ele><time>2026-04-12T12:55:14Z</time></trkpt><trkpt lat="45.61384830361137" lon="10.795721628607296"><ele>380.0</ele><time>2026-04-12T12:55:15Z</time></trkpt><trkpt lat="45.61382933800622" lon="10.795560522859809"><ele>380.8</ele><time>2026-04-12T12:55:17Z</time></trkpt><trkpt lat="45.613795671690546" lon="10.795415939795387"><ele>381.6</ele><time>2026-04-12T12:55:19Z</time></trkpt><trkpt lat="45.6137590253803" lon="10.795268184989515"><ele>382.4</ele><time>2026-04-12T12:55:21Z</time></trkpt><trkpt lat="45.61371858885994" lon="10.79512854013084"><ele>383.2</ele><time>2026-04-12T12:55:23Z</time></trkpt><trkpt lat="45.61367354701953" lon="10.795011020515227"><ele>384.0</ele><time>2026-04-12T12:55:25Z</time></trkpt><trkpt lat="45.61363468148365" lon="10.794863185435595"><ele>383.4</ele><time>2026-04-12T12:55:27Z</time></trkpt><trkpt lat="45.61360352387555" lon="10.794719356017682"><ele>382.79999999999995</ele><time>2026-04-12T12:55:29Z</time></trkpt><trkpt lat="45.61356653596861" lon="10.794606920385283"><ele>382.20000000000005</ele><time>2026-04-12T12:55:31Z</time></trkpt><trkpt lat="45.613544979071385" lon="10.794490951348498"><ele>381.6</ele><time>2026-04-12T12:55:33Z</time></trkpt><trkpt lat="45.61353180585596" lon="10.794343745245712"><ele>381.0</ele><time>2026-04-12T12:55:35Z</time></trkpt><trkpt lat="45.61349344034207" lon="10.794204316552026"><ele>381.0</ele><time>2026-04-12T12:55:37Z</time></trkpt><trkpt lat="45.61347049443625" lon="10.79407971533455"><ele>381.0</ele><time>2026-04-12T12:55:39Z</time></trkpt><trkpt lat="45.61342990147705" lon="10.79397031353279"><ele>381.0</ele><time>2026-04-12T12:55:41Z</time></trkpt><trkpt lat="45.61337988907109" lon="10.793857638810772"><ele>381.0</ele><time>2026-04-12T12:55:43Z</time></trkpt><trkpt lat="45.613326292751616" lon="10.79374344878387"><ele>381.0</ele><time>2026-04-12T12:55:45Z</time></trkpt><trkpt lat="45.61326284434398" lon="10.793634317744832"><ele>381.0</ele><time>2026-04-12T12:55:47Z</time></trkpt><trkpt lat="45.613201444144636" lon="10.793541167421802"><ele>381.0</ele><time>2026-04-12T12:55:49Z</time></trkpt><trkpt lat="45.613150757072155" lon="10.793460185862344"><ele>381.0</ele><time>2026-04-12T12:55:51Z</time></trkpt><trkpt lat="45.61309267375874" lon="10.793394283563405"><ele>381.0</ele><time>2026-04-12T12:55:53Z</time></trkpt><trkpt lat="45.61301222138913" lon="10.79333239370544"><ele>381.0</ele><time>2026-04-12T12:55:55Z</time></trkpt><trkpt lat="45.612934676601405" lon="10.79327078791261"><ele>381.0</ele><time>2026-04-12T12:55:57Z</time></trkpt><trkpt lat="45.612859881437714" lon="10.793196579742391"><ele>380.1666666666667</ele><time>2026-04-12T12:55:59Z</time></trkpt><trkpt lat="45.61279930542989" lon="10.793115718457884"><ele>379.3333333333333</ele><time>2026-04-12T12:56:01Z</time></trkpt><trkpt lat="45.61274194241128" lon="10.793020131765148"><ele>378.5</ele><time>2026-04-12T12:56:03Z</time></trkpt><trkpt lat="45.61269567186679" lon="10.792913788239451"><ele>377.66666666666663</ele><time>2026-04-12T12:56:05Z</time></trkpt><trkpt lat="45.61263994261218" lon="10.7928028511893"><ele>376.8333333333333</ele><time>2026-04-12T12:56:07Z</time></trkpt><trkpt lat="45.61260169058908" lon="10.792687102112746"><ele>376.0</ele><time>2026-04-12T12:56:09Z</time></trkpt><trkpt lat="45.61257704545517" lon="10.792570378215695"><ele>376.0</ele><time>2026-04-12T12:56:11Z</time></trkpt><trkpt lat="45.612560668955155" lon="10.792453396818253"><ele>376.0</ele><time>2026-04-12T12:56:13Z</time></trkpt><trkpt lat="45.6125533664438" lon="10.792326195823353"><ele>376.0</ele><time>2026-04-12T12:56:15Z</time></trkpt><trkpt lat="45.612544682206625" lon="10.792186749174723"><ele>376.0</ele><time>2026-04-12T12:56:17Z</time></trkpt><trkpt lat="45.61257900806101" lon="10.792061005749593"><ele>376.0</ele><time>2026-04-12T12:56:19Z</time></trkpt><trkpt lat="45.61264351337171" lon="10.791958958239006"><ele>376.0</ele><time>2026-04-12T12:56:21Z</time></trkpt><trkpt lat="45.612684956688646" lon="10.791860250830618"><ele>376.0</ele><time>2026-04-12T12:56:23Z</time></trkpt><trkpt lat="45.61269269253484" lon="10.79173071261003"><ele>376.0</ele><time>2026-04-12T12:56:26Z</time></trkpt><trkpt lat="45.612680354749756" lon="10.791601002720332"><ele>376.0</ele><time>2026-04-12T12:56:28Z</time></trkpt><trkpt lat="45.612665230434715" lon="10.791439435380378"><ele>376.0</ele><time>2026-04-12T12:56:30Z</time></trkpt><trkpt lat="45.612642472413135" lon="10.791268715186023"><ele>375.4</ele><time>2026-04-12T12:56:32Z</time></trkpt><trkpt lat="45.6126364821465" lon="10.791086156249122"><ele>374.8</ele><time>2026-04-12T12:56:34Z</time></trkpt><trkpt lat="45.61262402268947" lon="10.790993488917556"><ele>374.2</ele><time>2026-04-12T12:56:35Z</time></trkpt><trkpt lat="45.612614815529554" lon="10.790826487335668"><ele>373.59999999999997</ele><time>2026-04-12T12:56:37Z</time></trkpt><trkpt lat="45.61260423861383" lon="10.790694495381814"><ele>373.0</ele><time>2026-04-12T12:56:39Z</time></trkpt><trkpt lat="45.61259716410325" lon="10.790540089604864"><ele>372.59999999999997</ele><time>2026-04-12T12:56:41Z</time></trkpt><trkpt lat="45.61256707633405" lon="10.790386185437681"><ele>372.2</ele><time>2026-04-12T12:56:43Z</time></trkpt><trkpt lat="45.612515735315036" lon="10.790244275317132"><ele>371.8</ele><time>2026-04-12T12:56:45Z</time></trkpt><trkpt lat="45.61246237684943" lon="10.790106390083745"><ele>371.4</ele><time>2026-04-12T12:56:47Z</time></trkpt><trkpt lat="45.61241281610143" lon="10.789979185560053"><ele>371.0</ele><time>2026-04-12T12:56:49Z</time></trkpt><trkpt lat="45.61235451929109" lon="10.789857375987665"><ele>371.0</ele><time>2026-04-12T12:56:51Z</time></trkpt><trkpt lat="45.61228479493051" lon="10.789752128180018"><ele>371.0</ele><time>2026-04-12T12:56:53Z</time></trkpt><trkpt lat="45.61221605790235" lon="10.78962924961872"><ele>371.0</ele><time>2026-04-12T12:56:55Z</time></trkpt><trkpt lat="45.61212579813943" lon="10.789534536434235"><ele>371.0</ele><time>2026-04-12T12:56:57Z</time></trkpt><trkpt lat="45.612043819163674" lon="10.789433374903199"><ele>371.0</ele><time>2026-04-12T12:56:59Z</time></trkpt><trkpt lat="45.61196429129709" lon="10.78932338061244"><ele>368.20000000000005</ele><time>2026-04-12T12:57:01Z</time></trkpt><trkpt lat="45.6118907866651" lon="10.78921423379625"><ele>365.40000000000003</ele><time>2026-04-12T12:57:03Z</time></trkpt><trkpt lat="45.611816827799665" lon="10.789093929599073"><ele>362.6</ele><time>2026-04-12T12:57:05Z</time></trkpt><trkpt lat="45.611732801019876" lon="10.788987029873983"><ele>359.8</ele><time>2026-04-12T12:57:07Z</time></trkpt><trkpt lat="45.61169239394097" lon="10.788830724823432"><ele>357.0</ele><time>2026-04-12T12:57:09Z</time></trkpt><trkpt lat="45.61166854456171" lon="10.788663872631394"><ele>357.0</ele><time>2026-04-12T12:57:11Z</time></trkpt><trkpt lat="45.61167289591769" lon="10.788493829482569"><ele>357.0</ele><time>2026-04-12T12:57:13Z</time></trkpt><trkpt lat="45.61168661101738" lon="10.788398530267365"><ele>357.0</ele><time>2026-04-12T12:57:14Z</time></trkpt><trkpt lat="45.611696622781224" lon="10.78829606235233"><ele>357.0</ele><time>2026-04-12T12:57:15Z</time></trkpt><trkpt lat="45.61170269588255" lon="10.788197586498546"><ele>357.0</ele><time>2026-04-12T12:57:16Z</time></trkpt><trkpt lat="45.61171137223128" lon="10.788106167711941"><ele>357.0</ele><time>2026-04-12T12:57:17Z</time></trkpt><trkpt lat="45.61173475141015" lon="10.788017201816386"><ele>357.0</ele><time>2026-04-12T12:57:18Z</time></trkpt><trkpt lat="45.61176937060016" lon="10.787938136154333"><ele>357.0</ele><time>2026-04-12T12:57:19Z</time></trkpt><trkpt lat="45.611814073435035" lon="10.78786203080475"><ele>357.0</ele><time>2026-04-12T12:57:20Z</time></trkpt><trkpt lat="45.611862522886405" lon="10.787789214017629"><ele>357.0</ele><time>2026-04-12T12:57:21Z</time></trkpt><trkpt lat="45.6119073914641" lon="10.787725663915827"><ele>357.0</ele><time>2026-04-12T12:57:22Z</time></trkpt><trkpt lat="45.61194735688204" lon="10.787648066222443"><ele>357.0</ele><time>2026-04-12T12:57:23Z</time></trkpt><trkpt lat="45.611976128783965" lon="10.787552336826916"><ele>357.0</ele><time>2026-04-12T12:57:24Z</time></trkpt><trkpt lat="45.61198303881002" lon="10.787446527653598"><ele>356.1666666666667</ele><time>2026-04-12T12:57:25Z</time></trkpt><trkpt lat="45.611996399886706" lon="10.787351291759501"><ele>355.3333333333333</ele><time>2026-04-12T12:57:26Z</time></trkpt><trkpt lat="45.611971419346496" lon="10.787252684807964"><ele>354.5</ele><time>2026-04-12T12:57:27Z</time></trkpt><trkpt lat="45.61196493609474" lon="10.78715504980308"><ele>353.66666666666663</ele><time>2026-04-12T12:57:28Z</time></trkpt><trkpt lat="45.611958846669474" lon="10.78706522817528"><ele>352.8333333333333</ele><time>2026-04-12T12:57:29Z</time></trkpt><trkpt lat="45.61190906114247" lon="10.786910633829073"><ele>352.0</ele><time>2026-04-12T12:57:31Z</time></trkpt><trkpt lat="45.6118055443493" lon="10.786784840227853"><ele>352.0</ele><time>2026-04-12T12:57:33Z</time></trkpt><trkpt lat="45.61173865620523" lon="10.786734029431617"><ele>352.0</ele><time>2026-04-12T12:57:34Z</time></trkpt><trkpt lat="45.61166852155627" lon="10.786683455713684"><ele>352.0</ele><time>2026-04-12T12:57:35Z</time></trkpt><trkpt lat="45.61159812130726" lon="10.7866268480928"><ele>352.0</ele><time>2026-04-12T12:57:36Z</time></trkpt><trkpt lat="45.61153113640736" lon="10.786553815966245"><ele>352.0</ele><time>2026-04-12T12:57:37Z</time></trkpt><trkpt lat="45.61147054334128" lon="10.786477442280415"><ele>352.0</ele><time>2026-04-12T12:57:38Z</time></trkpt><trkpt lat="45.6114081873953" lon="10.786393846926341"><ele>352.0</ele><time>2026-04-12T12:57:39Z</time></trkpt><trkpt lat="45.611348621705304" lon="10.78630972870691"><ele>352.0</ele><time>2026-04-12T12:57:40Z</time></trkpt><trkpt lat="45.61128908054552" lon="10.786222905157343"><ele>352.0</ele><time>2026-04-12T12:57:41Z</time></trkpt><trkpt lat="45.611219829761104" lon="10.786150816140797"><ele>352.0</ele><time>2026-04-12T12:57:42Z</time></trkpt><trkpt lat="45.61116725986616" lon="10.786067517219564"><ele>352.0</ele><time>2026-04-12T12:57:43Z</time></trkpt><trkpt lat="45.61112875176704" lon="10.785973833639108"><ele>352.0</ele><time>2026-04-12T12:57:44Z</time></trkpt><trkpt lat="45.61111322743288" lon="10.785877356767273"><ele>349.8</ele><time>2026-04-12T12:57:45Z</time></trkpt><trkpt lat="45.611093264175146" lon="10.785790397739703"><ele>347.6</ele><time>2026-04-12T12:57:46Z</time></trkpt><trkpt lat="45.611059322581205" lon="10.785637689247993"><ele>345.40000000000003</ele><time>2026-04-12T12:57:48Z</time></trkpt><trkpt lat="45.61101927818425" lon="10.785523308741892"><ele>343.20000000000005</ele><time>2026-04-12T12:57:50Z</time></trkpt><trkpt lat="45.61096657241858" lon="10.78541867356402"><ele>341.0</ele><time>2026-04-12T12:57:53Z</time></trkpt><trkpt lat="45.610923416988875" lon="10.785295284248706"><ele>341.0</ele><time>2026-04-12T12:57:55Z</time></trkpt><trkpt lat="45.6108213641248" lon="10.785312383118235"><ele>341.0</ele><time>2026-04-12T12:57:56Z</time></trkpt><trkpt lat="45.6107541889546" lon="10.785302316649561"><ele>341.0</ele><time>2026-04-12T12:57:57Z</time></trkpt><trkpt lat="45.610688632983084" lon="10.785310502131022"><ele>341.0</ele><time>2026-04-12T12:57:58Z</time></trkpt><trkpt lat="45.61061956107903" lon="10.785310567630145"><ele>341.0</ele><time>2026-04-12T12:57:59Z</time></trkpt><trkpt lat="45.61055278766697" lon="10.785344271796703"><ele>341.0</ele><time>2026-04-12T12:58:00Z</time></trkpt><trkpt lat="45.61048808119847" lon="10.785382105368328"><ele>341.0</ele><time>2026-04-12T12:58:01Z</time></trkpt><trkpt lat="45.610435178033285" lon="10.78546582917005"><ele>341.0</ele><time>2026-04-12T12:58:02Z</time></trkpt><trkpt lat="45.61038312385768" lon="10.785539179903667"><ele>341.0</ele><time>2026-04-12T12:58:03Z</time></trkpt><trkpt lat="45.61033537612366" lon="10.785621208443501"><ele>341.0</ele><time>2026-04-12T12:58:04Z</time></trkpt><trkpt lat="45.61028640712139" lon="10.785702300220546"><ele>341.0</ele><time>2026-04-12T12:58:05Z</time></trkpt><trkpt lat="45.61023551828433" lon="10.7857838467509"><ele>341.0</ele><time>2026-04-12T12:58:06Z</time></trkpt><trkpt lat="45.610182632544685" lon="10.785870728569243"><ele>341.0</ele><time>2026-04-12T12:58:07Z</time></trkpt><trkpt lat="45.61012272818665" lon="10.785958139428338"><ele>338.6</ele><time>2026-04-12T12:58:08Z</time></trkpt><trkpt lat="45.61006074870231" lon="10.786048678989484"><ele>336.20000000000005</ele><time>2026-04-12T12:58:09Z</time></trkpt><trkpt lat="45.609996479655244" lon="10.786144536724924"><ele>333.79999999999995</ele><time>2026-04-12T12:58:10Z</time></trkpt><trkpt lat="45.609923817693385" lon="10.786242431015221"><ele>331.4</ele><time>2026-04-12T12:58:11Z</time></trkpt><trkpt lat="45.60984316146777" lon="10.786333729215336"><ele>329.0</ele><time>2026-04-12T12:58:12Z</time></trkpt><trkpt lat="45.609758428816335" lon="10.786420348756959"><ele>329.0</ele><time>2026-04-12T12:58:13Z</time></trkpt><trkpt lat="45.609653017936445" lon="10.786479615081104"><ele>329.0</ele><time>2026-04-12T12:58:14Z</time></trkpt><trkpt lat="45.60955443885377" lon="10.786581035013203"><ele>329.0</ele><time>2026-04-12T12:58:15Z</time></trkpt><trkpt lat="45.609443817029785" lon="10.786649136065126"><ele>329.0</ele><time>2026-04-12T12:58:16Z</time></trkpt><trkpt lat="45.60932548173117" lon="10.786723855377465"><ele>328.75</ele><time>2026-04-12T12:58:17Z</time></trkpt><trkpt lat="45.60921183168823" lon="10.786798160257936"><ele>328.5</ele><time>2026-04-12T12:58:18Z</time></trkpt><trkpt lat="45.60909723368921" lon="10.786875241656878"><ele>328.25</ele><time>2026-04-12T12:58:19Z</time></trkpt><trkpt lat="45.60897531742092" lon="10.786920904760526"><ele>328.0</ele><time>2026-04-12T12:58:20Z</time></trkpt><trkpt lat="45.608860858624965" lon="10.786993587842213"><ele>327.0</ele><time>2026-04-12T12:58:21Z</time></trkpt><trkpt lat="45.608727710680206" lon="10.787022911073832"><ele>326.0</ele><time>2026-04-12T12:58:22Z</time></trkpt><trkpt lat="45.60860517230661" lon="10.787069988800734"><ele>325.0</ele><time>2026-04-12T12:58:23Z</time></trkpt><trkpt lat="45.60848581037739" lon="10.787142526000837"><ele>324.0</ele><time>2026-04-12T12:58:24Z</time></trkpt><trkpt lat="45.60836078098777" lon="10.787198646800103"><ele>322.0</ele><time>2026-04-12T12:58:25Z</time></trkpt><trkpt lat="45.608242756952464" lon="10.78725233701997"><ele>320.0</ele><time>2026-04-12T12:58:26Z</time></trkpt><trkpt lat="45.608126369763525" lon="10.787296156439355"><ele>318.0</ele><time>2026-04-12T12:58:27Z</time></trkpt><trkpt lat="45.60801114021643" lon="10.787342518392624"><ele>316.0</ele><time>2026-04-12T12:58:28Z</time></trkpt><trkpt lat="45.60789570310105" lon="10.787393385763494"><ele>314.25</ele><time>2026-04-12T12:58:29Z</time></trkpt><trkpt lat="45.607784671463385" lon="10.787437929918154"><ele>312.5</ele><time>2026-04-12T12:58:30Z</time></trkpt><trkpt lat="45.60767245839229" lon="10.78748708562098"><ele>310.75</ele><time>2026-04-12T12:58:31Z</time></trkpt><trkpt lat="45.60756753996567" lon="10.7875523331877"><ele>309.0</ele><time>2026-04-12T12:58:32Z</time></trkpt><trkpt lat="45.607474891892835" lon="10.78763249807097"><ele>308.4</ele><time>2026-04-12T12:58:33Z</time></trkpt><trkpt lat="45.60739307717331" lon="10.787713573204542"><ele>307.79999999999995</ele><time>2026-04-12T12:58:34Z</time></trkpt><trkpt lat="45.60734635094995" lon="10.787859215037225"><ele>307.20000000000005</ele><time>2026-04-12T12:58:35Z</time></trkpt><trkpt lat="45.60736068012287" lon="10.788018523499371"><ele>306.6</ele><time>2026-04-12T12:58:36Z</time></trkpt><trkpt lat="45.60737914220815" lon="10.788187554567196"><ele>306.0</ele><time>2026-04-12T12:58:37Z</time></trkpt><trkpt lat="45.60740912561092" lon="10.788365121821696"><ele>305.0</ele><time>2026-04-12T12:58:38Z</time></trkpt><trkpt lat="45.60742817797196" lon="10.788555200249325"><ele>304.0</ele><time>2026-04-12T12:58:39Z</time></trkpt><trkpt lat="45.60745570909246" lon="10.788750112716976"><ele>303.0</ele><time>2026-04-12T12:58:40Z</time></trkpt><trkpt lat="45.60747898298687" lon="10.788948799209638"><ele>302.0</ele><time>2026-04-12T12:58:41Z</time></trkpt><trkpt lat="45.60750352845066" lon="10.789144136961733"><ele>302.0</ele><time>2026-04-12T12:58:42Z</time></trkpt><trkpt lat="45.60752861118365" lon="10.789338079033394"><ele>302.0</ele><time>2026-04-12T12:58:43Z</time></trkpt><trkpt lat="45.60755878500798" lon="10.789525167917532"><ele>302.0</ele><time>2026-04-12T12:58:44Z</time></trkpt><trkpt lat="45.607588905237584" lon="10.789706990863188"><ele>302.0</ele><time>2026-04-12T12:58:45Z</time></trkpt><trkpt lat="45.607612449443906" lon="10.789887444590143"><ele>300.8</ele><time>2026-04-12T12:58:46Z</time></trkpt><trkpt lat="45.607637382477314" lon="10.79005026864956"><ele>299.6</ele><time>2026-04-12T12:58:47Z</time></trkpt><trkpt lat="45.60765910618037" lon="10.790206667830061"><ele>298.40000000000003</ele><time>2026-04-12T12:58:48Z</time></trkpt><trkpt lat="45.60767920655982" lon="10.790345440122094"><ele>297.2</ele><time>2026-04-12T12:58:49Z</time></trkpt><trkpt lat="45.607695035808604" lon="10.790468253914675"><ele>296.0</ele><time>2026-04-12T12:58:50Z</time></trkpt><trkpt lat="45.60769608948347" lon="10.790583432725619"><ele>294.40000000000003</ele><time>2026-04-12T12:58:51Z</time></trkpt><trkpt lat="45.60766407766257" lon="10.790700143718237"><ele>292.8</ele><time>2026-04-12T12:58:52Z</time></trkpt><trkpt lat="45.60758906887034" lon="10.790779979444022"><ele>291.20000000000005</ele><time>2026-04-12T12:58:53Z</time></trkpt><trkpt lat="45.60751399958022" lon="10.79085253106453"><ele>289.6</ele><time>2026-04-12T12:58:54Z</time></trkpt><trkpt lat="45.60741670394696" lon="10.790867241502122"><ele>288.0</ele><time>2026-04-12T12:58:55Z</time></trkpt><trkpt lat="45.6073217073947" lon="10.790822539427289"><ele>288.0</ele><time>2026-04-12T12:58:56Z</time></trkpt><trkpt lat="45.607239813562316" lon="10.790731045121259"><ele>288.0</ele><time>2026-04-12T12:58:57Z</time></trkpt><trkpt lat="45.60716770560256" lon="10.790605894688778"><ele>288.0</ele><time>2026-04-12T12:58:58Z</time></trkpt><trkpt lat="45.60711277549619" lon="10.790451027531027"><ele>288.0</ele><time>2026-04-12T12:58:59Z</time></trkpt><trkpt lat="45.607068599734916" lon="10.79028557719331"><ele>290.0</ele><time>2026-04-12T12:59:00Z</time></trkpt><trkpt lat="45.60702683614491" lon="10.790117656761772"><ele>292.0</ele><time>2026-04-12T12:59:01Z</time></trkpt><trkpt lat="45.60698460706545" lon="10.789953944146292"><ele>294.0</ele><time>2026-04-12T12:59:02Z</time></trkpt><trkpt lat="45.60694282553141" lon="10.789810676599402"><ele>296.0</ele><time>2026-04-12T12:59:03Z</time></trkpt><trkpt lat="45.60690383707206" lon="10.789681406226247"><ele>292.8</ele><time>2026-04-12T12:59:04Z</time></trkpt><trkpt lat="45.606860467740375" lon="10.789567102844096"><ele>289.6</ele><time>2026-04-12T12:59:05Z</time></trkpt><trkpt lat="45.60680942167908" lon="10.789476078930866"><ele>286.4</ele><time>2026-04-12T12:59:06Z</time></trkpt><trkpt lat="45.606732897007035" lon="10.789418060512297"><ele>283.2</ele><time>2026-04-12T12:59:07Z</time></trkpt><trkpt lat="45.60663772460404" lon="10.789413155129688"><ele>280.0</ele><time>2026-04-12T12:59:08Z</time></trkpt><trkpt lat="45.60654386631493" lon="10.789466458197982"><ele>280.0</ele><time>2026-04-12T12:59:09Z</time></trkpt><trkpt lat="45.606466560163085" lon="10.78956950429842"><ele>280.0</ele><time>2026-04-12T12:59:10Z</time></trkpt><trkpt lat="45.60641069925077" lon="10.789712604607095"><ele>280.0</ele><time>2026-04-12T12:59:11Z</time></trkpt><trkpt lat="45.60637171489664" lon="10.78988401840156"><ele>280.0</ele><time>2026-04-12T12:59:12Z</time></trkpt><trkpt lat="45.606332884206026" lon="10.790067630351379"><ele>279.0</ele><time>2026-04-12T12:59:13Z</time></trkpt><trkpt lat="45.60629702259665" lon="10.790249337674835"><ele>278.0</ele><time>2026-04-12T12:59:14Z</time></trkpt><trkpt lat="45.606265886903664" lon="10.79042626025006"><ele>277.0</ele><time>2026-04-12T12:59:15Z</time></trkpt><trkpt lat="45.606238185894625" lon="10.790579768435187"><ele>276.0</ele><time>2026-04-12T12:59:16Z</time></trkpt><trkpt lat="45.60621379887455" lon="10.79071688458448"><ele>276.0</ele><time>2026-04-12T12:59:17Z</time></trkpt><trkpt lat="45.60618574233037" lon="10.79084361881137"><ele>276.0</ele><time>2026-04-12T12:59:18Z</time></trkpt><trkpt lat="45.60614080311376" lon="10.7909506329995"><ele>276.0</ele><time>2026-04-12T12:59:19Z</time></trkpt><trkpt lat="45.60607782180154" lon="10.791031902214332"><ele>276.0</ele><time>2026-04-12T12:59:20Z</time></trkpt><trkpt lat="45.606006372525876" lon="10.791093848754052"><ele>276.0</ele><time>2026-04-12T12:59:21Z</time></trkpt><trkpt lat="45.605946372779194" lon="10.791145723639495"><ele>276.0</ele><time>2026-04-12T12:59:22Z</time></trkpt><trkpt lat="45.60583895001712" lon="10.791211730122654"><ele>274.2</ele><time>2026-04-12T12:59:24Z</time></trkpt><trkpt lat="45.605708486398285" lon="10.79120118251604"><ele>272.40000000000003</ele><time>2026-04-12T12:59:26Z</time></trkpt><trkpt lat="45.60563628576261" lon="10.791184142658095"><ele>270.6</ele><time>2026-04-12T12:59:27Z</time></trkpt><trkpt lat="45.60557573887222" lon="10.79108726207083"><ele>268.8</ele><time>2026-04-12T12:59:28Z</time></trkpt><trkpt lat="45.60551629042276" lon="10.791005752381558"><ele>267.0</ele><time>2026-04-12T12:59:29Z</time></trkpt><trkpt lat="45.60546014067044" lon="10.790916172456642"><ele>267.0</ele><time>2026-04-12T12:59:30Z</time></trkpt><trkpt lat="45.60538941311706" lon="10.79083142741204"><ele>267.0</ele><time>2026-04-12T12:59:31Z</time></trkpt><trkpt lat="45.605313529689056" lon="10.790740886596803"><ele>267.0</ele><time>2026-04-12T12:59:32Z</time></trkpt><trkpt lat="45.60523485823786" lon="10.790656716966264"><ele>267.0</ele><time>2026-04-12T12:59:33Z</time></trkpt><trkpt lat="45.60515915848086" lon="10.790564547806023"><ele>267.0</ele><time>2026-04-12T12:59:34Z</time></trkpt><trkpt lat="45.605083980509896" lon="10.790464549109425"><ele>266.4</ele><time>2026-04-12T12:59:35Z</time></trkpt><trkpt lat="45.605012689515384" lon="10.790345176282182"><ele>265.79999999999995</ele><time>2026-04-12T12:59:36Z</time></trkpt><trkpt lat="45.6049523950591" lon="10.790222921482371"><ele>265.2</ele><time>2026-04-12T12:59:37Z</time></trkpt><trkpt lat="45.604904178540004" lon="10.790086290075232"><ele>264.59999999999997</ele><time>2026-04-12T12:59:38Z</time></trkpt><trkpt lat="45.604854239622085" lon="10.789960732231576"><ele>264.0</ele><time>2026-04-12T12:59:39Z</time></trkpt><trkpt lat="45.60481746106636" lon="10.78982006553283"><ele>264.0</ele><time>2026-04-12T12:59:40Z</time></trkpt><trkpt lat="45.60477652273901" lon="10.789686762430499"><ele>264.0</ele><time>2026-04-12T12:59:41Z</time></trkpt><trkpt lat="45.60474702798935" lon="10.789556448426065"><ele>264.0</ele><time>2026-04-12T12:59:42Z</time></trkpt><trkpt lat="45.60472042833307" lon="10.789412392843918"><ele>264.0</ele><time>2026-04-12T12:59:43Z</time></trkpt><trkpt lat="45.60469585894024" lon="10.78926076115408"><ele>264.0</ele><time>2026-04-12T12:59:44Z</time></trkpt><trkpt lat="45.60467088503121" lon="10.789098770738393"><ele>264.5</ele><time>2026-04-12T12:59:45Z</time></trkpt><trkpt lat="45.604646292406855" lon="10.7889456566325"><ele>265.0</ele><time>2026-04-12T12:59:46Z</time></trkpt><trkpt lat="45.60462678446493" lon="10.788789733514692"><ele>265.5</ele><time>2026-04-12T12:59:47Z</time></trkpt><trkpt lat="45.60460460346754" lon="10.788628752126762"><ele>266.0</ele><time>2026-04-12T12:59:48Z</time></trkpt><trkpt lat="45.604585705519085" lon="10.788461474557007"><ele>266.75</ele><time>2026-04-12T12:59:49Z</time></trkpt><trkpt lat="45.60456296772068" lon="10.788288235943446"><ele>267.5</ele><time>2026-04-12T12:59:50Z</time></trkpt><trkpt lat="45.60454461339526" lon="10.788119860433813"><ele>268.25</ele><time>2026-04-12T12:59:51Z</time></trkpt><trkpt lat="45.604531967463046" lon="10.787962361759242"><ele>269.0</ele><time>2026-04-12T12:59:52Z</time></trkpt><trkpt lat="45.604524982258546" lon="10.787822008652158"><ele>269.0</ele><time>2026-04-12T12:59:53Z</time></trkpt><trkpt lat="45.60452434392002" lon="10.7876931878427"><ele>269.0</ele><time>2026-04-12T12:59:54Z</time></trkpt><trkpt lat="45.604519704634704" lon="10.787563850005947"><ele>269.0</ele><time>2026-04-12T12:59:55Z</time></trkpt><trkpt lat="45.60450498181071" lon="10.787429989583298"><ele>269.0</ele><time>2026-04-12T12:59:56Z</time></trkpt><trkpt lat="45.604495413413865" lon="10.787284588698"><ele>269.0</ele><time>2026-04-12T12:59:57Z</time></trkpt><trkpt lat="45.60448130729948" lon="10.787134159961823"><ele>266.25</ele><time>2026-04-12T12:59:58Z</time></trkpt><trkpt lat="45.60445907428939" lon="10.786975480237585"><ele>263.5</ele><time>2026-04-12T12:59:59Z</time></trkpt><trkpt lat="45.60443510520832" lon="10.786812862002225"><ele>260.75</ele><time>2026-04-12T13:00:00Z</time></trkpt><trkpt lat="45.60440102846216" lon="10.78665171605407"><ele>258.0</ele><time>2026-04-12T13:00:01Z</time></trkpt><trkpt lat="45.6043691462146" lon="10.786486822178004"><ele>258.0</ele><time>2026-04-12T13:00:02Z</time></trkpt><trkpt lat="45.604344200565514" lon="10.786323053137927"><ele>258.0</ele><time>2026-04-12T13:00:03Z</time></trkpt><trkpt lat="45.60431545989723" lon="10.786153411807723"><ele>258.0</ele><time>2026-04-12T13:00:04Z</time></trkpt><trkpt lat="45.60428347818734" lon="10.785985039672452"><ele>258.0</ele><time>2026-04-12T13:00:05Z</time></trkpt><trkpt lat="45.60425279076226" lon="10.785817648451074"><ele>258.0</ele><time>2026-04-12T13:00:06Z</time></trkpt><trkpt lat="45.604238727188246" lon="10.78566188825236"><ele>258.0</ele><time>2026-04-12T13:00:07Z</time></trkpt><trkpt lat="45.60421688894042" lon="10.785490240813356"><ele>258.0</ele><time>2026-04-12T13:00:08Z</time></trkpt><trkpt lat="45.60419899136753" lon="10.785314836738461"><ele>258.0</ele><time>2026-04-12T13:00:09Z</time></trkpt><trkpt lat="45.604185593064706" lon="10.78513906561297"><ele>257.5</ele><time>2026-04-12T13:00:10Z</time></trkpt><trkpt lat="45.60417438489254" lon="10.784958021437566"><ele>257.0</ele><time>2026-04-12T13:00:11Z</time></trkpt><trkpt lat="45.604156985852235" lon="10.784778051266729"><ele>256.5</ele><time>2026-04-12T13:00:12Z</time></trkpt><trkpt lat="45.60414792152753" lon="10.784597269114318"><ele>256.0</ele><time>2026-04-12T13:00:13Z</time></trkpt><trkpt lat="45.60412881502017" lon="10.78441247961002"><ele>256.25</ele><time>2026-04-12T13:00:14Z</time></trkpt><trkpt lat="45.60410881950722" lon="10.78422778287559"><ele>256.5</ele><time>2026-04-12T13:00:15Z</time></trkpt><trkpt lat="45.60409186045997" lon="10.784043827187809"><ele>256.75</ele><time>2026-04-12T13:00:16Z</time></trkpt><trkpt lat="45.60407838267626" lon="10.783862246994872"><ele>257.0</ele><time>2026-04-12T13:00:17Z</time></trkpt><trkpt lat="45.604062524211336" lon="10.783680147826443"><ele>257.75</ele><time>2026-04-12T13:00:18Z</time></trkpt><trkpt lat="45.60404811057916" lon="10.783502038964421"><ele>258.5</ele><time>2026-04-12T13:00:19Z</time></trkpt><trkpt lat="45.6040321241018" lon="10.783329805016333"><ele>259.25</ele><time>2026-04-12T13:00:20Z</time></trkpt><trkpt lat="45.60401819722711" lon="10.783155641693234"><ele>260.0</ele><time>2026-04-12T13:00:21Z</time></trkpt><trkpt lat="45.604002975726175" lon="10.782978756550893"><ele>260.0</ele><time>2026-04-12T13:00:22Z</time></trkpt><trkpt lat="45.6039851305767" lon="10.782800921177712"><ele>260.0</ele><time>2026-04-12T13:00:23Z</time></trkpt><trkpt lat="45.6039674427291" lon="10.782626224052748"><ele>260.0</ele><time>2026-04-12T13:00:24Z</time></trkpt><trkpt lat="45.60395100502664" lon="10.782448255142416"><ele>260.0</ele><time>2026-04-12T13:00:25Z</time></trkpt><trkpt lat="45.60392787999226" lon="10.78227278487598"><ele>260.0</ele><time>2026-04-12T13:00:26Z</time></trkpt><trkpt lat="45.60390320618538" lon="10.782100495492157"><ele>260.0</ele><time>2026-04-12T13:00:27Z</time></trkpt><trkpt lat="45.603878929433336" lon="10.781925213110211"><ele>260.0</ele><time>2026-04-12T13:00:28Z</time></trkpt><trkpt lat="45.6038516914718" lon="10.78174530157102"><ele>260.0</ele><time>2026-04-12T13:00:29Z</time></trkpt><trkpt lat="45.60382263632206" lon="10.781563854862156"><ele>258.75</ele><time>2026-04-12T13:00:30Z</time></trkpt><trkpt lat="45.603796643469074" lon="10.781382940226308"><ele>257.5</ele><time>2026-04-12T13:00:31Z</time></trkpt><trkpt lat="45.603771103864155" lon="10.781202198510952"><ele>256.25</ele><time>2026-04-12T13:00:32Z</time></trkpt><trkpt lat="45.60374147627167" lon="10.78102425939916"><ele>255.0</ele><time>2026-04-12T13:00:33Z</time></trkpt><trkpt lat="45.60370969566599" lon="10.780845876694364"><ele>254.75</ele><time>2026-04-12T13:00:34Z</time></trkpt><trkpt lat="45.60367922034815" lon="10.780663417472887"><ele>254.5</ele><time>2026-04-12T13:00:35Z</time></trkpt><trkpt lat="45.603651904209265" lon="10.780478788252708"><ele>254.25</ele><time>2026-04-12T13:00:36Z</time></trkpt><trkpt lat="45.6036237300568" lon="10.78029772391395"><ele>254.0</ele><time>2026-04-12T13:00:37Z</time></trkpt><trkpt lat="45.603596060204325" lon="10.7801170463155"><ele>251.75</ele><time>2026-04-12T13:00:38Z</time></trkpt><trkpt lat="45.60356684469749" lon="10.779932374233146"><ele>249.5</ele><time>2026-04-12T13:00:39Z</time></trkpt><trkpt lat="45.60353635296087" lon="10.779742788754115"><ele>247.25</ele><time>2026-04-12T13:00:40Z</time></trkpt><trkpt lat="45.603503627075085" lon="10.779547578745873"><ele>245.0</ele><time>2026-04-12T13:00:41Z</time></trkpt><trkpt lat="45.603469071651624" lon="10.779352891108893"><ele>245.75</ele><time>2026-04-12T13:00:42Z</time></trkpt><trkpt lat="45.603430274159884" lon="10.779161995561992"><ele>246.5</ele><time>2026-04-12T13:00:43Z</time></trkpt><trkpt lat="45.60338431477174" lon="10.778965303009617"><ele>247.25</ele><time>2026-04-12T13:00:44Z</time></trkpt><trkpt lat="45.603328428190224" lon="10.778772500213789"><ele>248.0</ele><time>2026-04-12T13:00:45Z</time></trkpt><trkpt lat="45.60327146623499" lon="10.778589324447582"><ele>248.75</ele><time>2026-04-12T13:00:46Z</time></trkpt><trkpt lat="45.60322190088072" lon="10.778414745948607"><ele>249.5</ele><time>2026-04-12T13:00:47Z</time></trkpt><trkpt lat="45.60317517717508" lon="10.778241317669908"><ele>250.25</ele><time>2026-04-12T13:00:48Z</time></trkpt><trkpt lat="45.603123473612804" lon="10.778073535982287"><ele>251.0</ele><time>2026-04-12T13:00:49Z</time></trkpt><trkpt lat="45.60306371579532" lon="10.777903647203166"><ele>251.0</ele><time>2026-04-12T13:00:50Z</time></trkpt><trkpt lat="45.602998379557114" lon="10.777730228954935"><ele>251.0</ele><time>2026-04-12T13:00:51Z</time></trkpt><trkpt lat="45.602931401299" lon="10.77755552511965"><ele>251.0</ele><time>2026-04-12T13:00:52Z</time></trkpt><trkpt lat="45.60287235117289" lon="10.777400394756613"><ele>251.0</ele><time>2026-04-12T13:00:53Z</time></trkpt><trkpt lat="45.60282017273086" lon="10.77726432652568"><ele>250.20000000000002</ele><time>2026-04-12T13:00:54Z</time></trkpt><trkpt lat="45.60277068998856" lon="10.777135618470167"><ele>249.40000000000003</ele><time>2026-04-12T13:00:55Z</time></trkpt><trkpt lat="45.60273051237927" lon="10.777011371151685"><ele>248.6</ele><time>2026-04-12T13:00:56Z</time></trkpt><trkpt lat="45.60268741386796" lon="10.776896647538603"><ele>247.8</ele><time>2026-04-12T13:00:57Z</time></trkpt><trkpt lat="45.602647155998206" lon="10.776786552077573"><ele>247.0</ele><time>2026-04-12T13:00:58Z</time></trkpt><trkpt lat="45.60261263679241" lon="10.776681947690365"><ele>246.99999999999997</ele><time>2026-04-12T13:00:59Z</time></trkpt><trkpt lat="45.60258546667772" lon="10.77657784533493"><ele>247.0</ele><time>2026-04-12T13:01:00Z</time></trkpt><trkpt lat="45.60256335129844" lon="10.776465406340758"><ele>247.0</ele><time>2026-04-12T13:01:01Z</time></trkpt><trkpt lat="45.60254634999612" lon="10.776345141010728"><ele>247.0</ele><time>2026-04-12T13:01:02Z</time></trkpt><trkpt lat="45.60254525240019" lon="10.776235086588139"><ele>246.99999999999997</ele><time>2026-04-12T13:01:03Z</time></trkpt><trkpt lat="45.602545618450414" lon="10.776119968359156"><ele>247.0</ele><time>2026-04-12T13:01:04Z</time></trkpt><trkpt lat="45.60255478264799" lon="10.776015105878763"><ele>247.33333333333331</ele><time>2026-04-12T13:01:05Z</time></trkpt><trkpt lat="45.60255953604066" lon="10.77590810244213"><ele>247.66666666666666</ele><time>2026-04-12T13:01:06Z</time></trkpt><trkpt lat="45.60256297932246" lon="10.775798809651382"><ele>248.0</ele><time>2026-04-12T13:01:07Z</time></trkpt><trkpt lat="45.60256535490323" lon="10.7756877619715"><ele>248.33333333333331</ele><time>2026-04-12T13:01:08Z</time></trkpt><trkpt lat="45.60257418292905" lon="10.775579945053895"><ele>248.66666666666666</ele><time>2026-04-12T13:01:09Z</time></trkpt><trkpt lat="45.602586591016696" lon="10.775469915877746"><ele>249.0</ele><time>2026-04-12T13:01:10Z</time></trkpt><trkpt lat="45.602596205776" lon="10.775356133984175"><ele>249.0</ele><time>2026-04-12T13:01:11Z</time></trkpt><trkpt lat="45.60260177702557" lon="10.775240877290042"><ele>248.99999999999997</ele><time>2026-04-12T13:01:12Z</time></trkpt><trkpt lat="45.60261036311894" lon="10.775123038837473"><ele>249.0</ele><time>2026-04-12T13:01:13Z</time></trkpt><trkpt lat="45.60262456065329" lon="10.775015015349878"><ele>249.0</ele><time>2026-04-12T13:01:14Z</time></trkpt><trkpt lat="45.60263522693822" lon="10.774911889049388"><ele>248.99999999999997</ele><time>2026-04-12T13:01:15Z</time></trkpt><trkpt lat="45.60264085933596" lon="10.774818583705132"><ele>249.0</ele><time>2026-04-12T13:01:16Z</time></trkpt><trkpt lat="45.60265131741867" lon="10.77472080867551"><ele>249.0</ele><time>2026-04-12T13:01:17Z</time></trkpt><trkpt lat="45.60266248898484" lon="10.774619200201068"><ele>249.5</ele><time>2026-04-12T13:01:18Z</time></trkpt><trkpt lat="45.6026727955655" lon="10.774521042504157"><ele>250.0</ele><time>2026-04-12T13:01:19Z</time></trkpt><trkpt lat="45.60267895888902" lon="10.774418862193532"><ele>250.5</ele><time>2026-04-12T13:01:20Z</time></trkpt><trkpt lat="45.6026880721047" lon="10.77431582124975"><ele>251.0</ele><time>2026-04-12T13:01:21Z</time></trkpt><trkpt lat="45.60269851882221" lon="10.774208371080757"><ele>251.5</ele><time>2026-04-12T13:01:22Z</time></trkpt><trkpt lat="45.602708437041066" lon="10.774092910382471"><ele>252.0</ele><time>2026-04-12T13:01:23Z</time></trkpt><trkpt lat="45.602717811580874" lon="10.773979583422069"><ele>252.66666666666666</ele><time>2026-04-12T13:01:24Z</time></trkpt><trkpt lat="45.602727445834674" lon="10.77386733803737"><ele>253.33333333333331</ele><time>2026-04-12T13:01:25Z</time></trkpt><trkpt lat="45.60273737057129" lon="10.773753152936532"><ele>254.0</ele><time>2026-04-12T13:01:26Z</time></trkpt><trkpt lat="45.60274913228198" lon="10.773641905892653"><ele>254.66666666666666</ele><time>2026-04-12T13:01:27Z</time></trkpt><trkpt lat="45.6027589479728" lon="10.773519462752196"><ele>255.33333333333331</ele><time>2026-04-12T13:01:28Z</time></trkpt><trkpt lat="45.60276569709169" lon="10.77339723135029"><ele>256.0</ele><time>2026-04-12T13:01:29Z</time></trkpt><trkpt lat="45.60277448521923" lon="10.773280303671916"><ele>256.16666666666663</ele><time>2026-04-12T13:01:30Z</time></trkpt><trkpt lat="45.602782266813385" lon="10.77315862317416"><ele>256.3333333333333</ele><time>2026-04-12T13:01:31Z</time></trkpt><trkpt lat="45.60278977905337" lon="10.773033953837668"><ele>256.5</ele><time>2026-04-12T13:01:32Z</time></trkpt><trkpt lat="45.602791418642234" lon="10.772906788157023"><ele>256.6666666666667</ele><time>2026-04-12T13:01:33Z</time></trkpt><trkpt lat="45.602780572809884" lon="10.772780034056492"><ele>256.83333333333337</ele><time>2026-04-12T13:01:34Z</time></trkpt><trkpt lat="45.60275880721915" lon="10.772659662886953"><ele>257.0</ele><time>2026-04-12T13:01:35Z</time></trkpt><trkpt lat="45.602727546513705" lon="10.772536159089885"><ele>256.2</ele><time>2026-04-12T13:01:36Z</time></trkpt><trkpt lat="45.60269045926677" lon="10.77242269059712"><ele>255.39999999999998</ele><time>2026-04-12T13:01:37Z</time></trkpt><trkpt lat="45.602645774000486" lon="10.772307410596827"><ele>254.60000000000002</ele><time>2026-04-12T13:01:38Z</time></trkpt><trkpt lat="45.60259848032761" lon="10.772193436700666"><ele>253.8</ele><time>2026-04-12T13:01:39Z</time></trkpt><trkpt lat="45.602542968904" lon="10.772085449595403"><ele>253.0</ele><time>2026-04-12T13:01:40Z</time></trkpt><trkpt lat="45.60247721000328" lon="10.771983039807516"><ele>253.0</ele><time>2026-04-12T13:01:41Z</time></trkpt><trkpt lat="45.602408126413074" lon="10.771890662649287"><ele>253.0</ele><time>2026-04-12T13:01:42Z</time></trkpt><trkpt lat="45.60233626854397" lon="10.77179871072632"><ele>253.0</ele><time>2026-04-12T13:01:43Z</time></trkpt><trkpt lat="45.60226655357059" lon="10.771695214824062"><ele>253.0</ele><time>2026-04-12T13:01:44Z</time></trkpt><trkpt lat="45.60220569884653" lon="10.771585083559662"><ele>253.0</ele><time>2026-04-12T13:01:45Z</time></trkpt><trkpt lat="45.60213174350367" lon="10.771491891184692"><ele>252.60000000000002</ele><time>2026-04-12T13:01:46Z</time></trkpt><trkpt lat="45.60207354715738" lon="10.771383991065742"><ele>252.20000000000002</ele><time>2026-04-12T13:01:47Z</time></trkpt><trkpt lat="45.601992830393044" lon="10.771283282304262"><ele>251.8</ele><time>2026-04-12T13:01:48Z</time></trkpt><trkpt lat="45.60192987783845" lon="10.771163072357048"><ele>251.4</ele><time>2026-04-12T13:01:49Z</time></trkpt><trkpt lat="45.60186878745701" lon="10.771032367853056"><ele>251.0</ele><time>2026-04-12T13:01:50Z</time></trkpt><trkpt lat="45.60180888976336" lon="10.77089384970732"><ele>249.5</ele><time>2026-04-12T13:01:51Z</time></trkpt><trkpt lat="45.601750627416074" lon="10.770734652729871"><ele>248.0</ele><time>2026-04-12T13:01:52Z</time></trkpt><trkpt lat="45.601695071883775" lon="10.77057024325029"><ele>246.5</ele><time>2026-04-12T13:01:53Z</time></trkpt><trkpt lat="45.60164636128169" lon="10.770417127311582"><ele>245.0</ele><time>2026-04-12T13:01:54Z</time></trkpt><trkpt lat="45.60160074864475" lon="10.770267073716003"><ele>245.25</ele><time>2026-04-12T13:01:55Z</time></trkpt><trkpt lat="45.601557469857525" lon="10.770122791943727"><ele>245.5</ele><time>2026-04-12T13:01:56Z</time></trkpt><trkpt lat="45.60151481289107" lon="10.769977000983205"><ele>245.75</ele><time>2026-04-12T13:01:57Z</time></trkpt><trkpt lat="45.601470640900196" lon="10.76981934206694"><ele>246.0</ele><time>2026-04-12T13:01:58Z</time></trkpt><trkpt lat="45.60142310945304" lon="10.769648490484578"><ele>246.0</ele><time>2026-04-12T13:01:59Z</time></trkpt><trkpt lat="45.60137812347381" lon="10.769460745086423"><ele>246.0</ele><time>2026-04-12T13:02:00Z</time></trkpt><trkpt lat="45.60134850999986" lon="10.769258820424385"><ele>246.0</ele><time>2026-04-12T13:02:01Z</time></trkpt><trkpt lat="45.60133315544139" lon="10.76905028672056"><ele>246.0</ele><time>2026-04-12T13:02:02Z</time></trkpt><trkpt lat="45.60130787931156" lon="10.768835702475434"><ele>246.66666666666669</ele><time>2026-04-12T13:02:03Z</time></trkpt><trkpt lat="45.60128584737044" lon="10.768619281865028"><ele>247.33333333333334</ele><time>2026-04-12T13:02:04Z</time></trkpt><trkpt lat="45.60126744275469" lon="10.768393417932996"><ele>248.0</ele><time>2026-04-12T13:02:05Z</time></trkpt><trkpt lat="45.601245115163984" lon="10.768166987989664"><ele>247.33333333333334</ele><time>2026-04-12T13:02:06Z</time></trkpt><trkpt lat="45.60121581042562" lon="10.76794181338374"><ele>246.66666666666669</ele><time>2026-04-12T13:02:07Z</time></trkpt><trkpt lat="45.60118770134441" lon="10.767707011719775"><ele>246.0</ele><time>2026-04-12T13:02:08Z</time></trkpt><trkpt lat="45.60116351950757" lon="10.76747787796492"><ele>246.0</ele><time>2026-04-12T13:02:09Z</time></trkpt><trkpt lat="45.60113763972037" lon="10.767238238832823"><ele>246.0</ele><time>2026-04-12T13:02:10Z</time></trkpt><trkpt lat="45.601112380970235" lon="10.767006597655872"><ele>246.0</ele><time>2026-04-12T13:02:11Z</time></trkpt><trkpt lat="45.601086962095835" lon="10.766771705255996"><ele>245.66666666666669</ele><time>2026-04-12T13:02:12Z</time></trkpt><trkpt lat="45.60106030894635" lon="10.766537309541368"><ele>245.33333333333334</ele><time>2026-04-12T13:02:13Z</time></trkpt><trkpt lat="45.60103102372099" lon="10.766303845199857"><ele>245.0</ele><time>2026-04-12T13:02:14Z</time></trkpt><trkpt lat="45.600997044945224" lon="10.766078978459047"><ele>246.0</ele><time>2026-04-12T13:02:15Z</time></trkpt><trkpt lat="45.60095789766713" lon="10.765856833345977"><ele>247.0</ele><time>2026-04-12T13:02:16Z</time></trkpt><trkpt lat="45.60091611505145" lon="10.765641263745518"><ele>248.0</ele><time>2026-04-12T13:02:17Z</time></trkpt><trkpt lat="45.60087135982672" lon="10.765420528928466"><ele>248.0</ele><time>2026-04-12T13:02:18Z</time></trkpt><trkpt lat="45.600824194116036" lon="10.765207886716214"><ele>248.0</ele><time>2026-04-12T13:02:19Z</time></trkpt><trkpt lat="45.600783691946766" lon="10.764998876063839"><ele>248.0</ele><time>2026-04-12T13:02:20Z</time></trkpt><trkpt lat="45.60073951385449" lon="10.764795945683618"><ele>248.5</ele><time>2026-04-12T13:02:21Z</time></trkpt><trkpt lat="45.60070463891424" lon="10.76460892735737"><ele>249.0</ele><time>2026-04-12T13:02:22Z</time></trkpt><trkpt lat="45.60067366528015" lon="10.764420888076154"><ele>249.5</ele><time>2026-04-12T13:02:23Z</time></trkpt><trkpt lat="45.60065038555186" lon="10.76422195301312"><ele>250.0</ele><time>2026-04-12T13:02:24Z</time></trkpt><trkpt lat="45.600635923938384" lon="10.764005035061873"><ele>251.0</ele><time>2026-04-12T13:02:25Z</time></trkpt><trkpt lat="45.600631876887356" lon="10.763781088369576"><ele>252.0</ele><time>2026-04-12T13:02:26Z</time></trkpt><trkpt lat="45.60064015686554" lon="10.76354753504357"><ele>253.0</ele><time>2026-04-12T13:02:27Z</time></trkpt><trkpt lat="45.60063698471785" lon="10.763317636556149"><ele>253.33333333333331</ele><time>2026-04-12T13:02:28Z</time></trkpt><trkpt lat="45.6006328832075" lon="10.763081075940315"><ele>253.66666666666669</ele><time>2026-04-12T13:02:29Z</time></trkpt><trkpt lat="45.60062712749326" lon="10.762845589766357"><ele>254.0</ele><time>2026-04-12T13:02:30Z</time></trkpt><trkpt lat="45.600617213105544" lon="10.762611274828082"><ele>253.0</ele><time>2026-04-12T13:02:31Z</time></trkpt><trkpt lat="45.60060389830543" lon="10.762386247218199"><ele>252.0</ele><time>2026-04-12T13:02:32Z</time></trkpt><trkpt lat="45.600583926168525" lon="10.762162963489638"><ele>251.0</ele><time>2026-04-12T13:02:33Z</time></trkpt><trkpt lat="45.60055505830627" lon="10.76194809950483"><ele>252.25</ele><time>2026-04-12T13:02:34Z</time></trkpt><trkpt lat="45.600525683037546" lon="10.761737181236047"><ele>253.5</ele><time>2026-04-12T13:02:35Z</time></trkpt><trkpt lat="45.60049781033181" lon="10.761533801193908"><ele>254.75</ele><time>2026-04-12T13:02:36Z</time></trkpt><trkpt lat="45.60046782923916" lon="10.761339275216788"><ele>256.0</ele><time>2026-04-12T13:02:37Z</time></trkpt><trkpt lat="45.60043817512233" lon="10.761142516498017"><ele>255.0</ele><time>2026-04-12T13:02:38Z</time></trkpt><trkpt lat="45.60040796557156" lon="10.760945028004794"><ele>254.0</ele><time>2026-04-12T13:02:39Z</time></trkpt><trkpt lat="45.60037510691804" lon="10.760744665467305"><ele>253.0</ele><time>2026-04-12T13:02:40Z</time></trkpt><trkpt lat="45.60033275479546" lon="10.760548620283"><ele>252.0</ele><time>2026-04-12T13:02:41Z</time></trkpt><trkpt lat="45.60028231159592" lon="10.760351501062456"><ele>252.33333333333331</ele><time>2026-04-12T13:02:42Z</time></trkpt><trkpt lat="45.600230653204186" lon="10.760154777103446"><ele>252.66666666666666</ele><time>2026-04-12T13:02:43Z</time></trkpt><trkpt lat="45.600177341458256" lon="10.759953355296595"><ele>253.0</ele><time>2026-04-12T13:02:44Z</time></trkpt><trkpt lat="45.600122091225245" lon="10.759747708852553"><ele>253.0</ele><time>2026-04-12T13:02:45Z</time></trkpt><trkpt lat="45.60006720790648" lon="10.75954737614469"><ele>253.0</ele><time>2026-04-12T13:02:46Z</time></trkpt><trkpt lat="45.60001247806951" lon="10.75934663593092"><ele>253.0</ele><time>2026-04-12T13:02:47Z</time></trkpt><trkpt lat="45.59995920546985" lon="10.759153033461857"><ele>253.0</ele><time>2026-04-12T13:02:48Z</time></trkpt><trkpt lat="45.59991214678558" lon="10.758971150314093"><ele>254.0</ele><time>2026-04-12T13:02:49Z</time></trkpt><trkpt lat="45.59986438011106" lon="10.758793763202762"><ele>255.0</ele><time>2026-04-12T13:02:50Z</time></trkpt><trkpt lat="45.599821219777056" lon="10.758633800443526"><ele>256.0</ele><time>2026-04-12T13:02:51Z</time></trkpt><trkpt lat="45.599783343528685" lon="10.758485601417298"><ele>257.0</ele><time>2026-04-12T13:02:52Z</time></trkpt><trkpt lat="45.59974965982365" lon="10.758344388319985"><ele>257.25</ele><time>2026-04-12T13:02:53Z</time></trkpt><trkpt lat="45.59971461178518" lon="10.758205829236461"><ele>257.5</ele><time>2026-04-12T13:02:54Z</time></trkpt><trkpt lat="45.599674893175795" lon="10.75805830567513"><ele>257.75</ele><time>2026-04-12T13:02:55Z</time></trkpt><trkpt lat="45.599637001519255" lon="10.757903149925836"><ele>258.0</ele><time>2026-04-12T13:02:56Z</time></trkpt><trkpt lat="45.59959675415544" lon="10.75773996944373"><ele>259.0</ele><time>2026-04-12T13:02:57Z</time></trkpt><trkpt lat="45.599552042790634" lon="10.757567702880396"><ele>260.0</ele><time>2026-04-12T13:02:58Z</time></trkpt><trkpt lat="45.59950274987761" lon="10.757392701326022"><ele>261.0</ele><time>2026-04-12T13:02:59Z</time></trkpt><trkpt lat="45.599453956187176" lon="10.757211668442483"><ele>262.0</ele><time>2026-04-12T13:03:00Z</time></trkpt><trkpt lat="45.59940448484898" lon="10.757026638331771"><ele>259.75</ele><time>2026-04-12T13:03:01Z</time></trkpt><trkpt lat="45.59935751143175" lon="10.756843999305216"><ele>257.5</ele><time>2026-04-12T13:03:02Z</time></trkpt><trkpt lat="45.599317111569114" lon="10.756669617518622"><ele>255.25</ele><time>2026-04-12T13:03:03Z</time></trkpt><trkpt lat="45.59928388527149" lon="10.75651064239752"><ele>253.0</ele><time>2026-04-12T13:03:04Z</time></trkpt><trkpt lat="45.59925621476951" lon="10.756362998561253"><ele>253.0</ele><time>2026-04-12T13:03:05Z</time></trkpt><trkpt lat="45.59923198112742" lon="10.756227081603349"><ele>253.0</ele><time>2026-04-12T13:03:06Z</time></trkpt><trkpt lat="45.59920935339577" lon="10.756097217514384"><ele>253.0</ele><time>2026-04-12T13:03:07Z</time></trkpt><trkpt lat="45.59918615924041" lon="10.7559692438811"><ele>253.0</ele><time>2026-04-12T13:03:08Z</time></trkpt><trkpt lat="45.59916363231674" lon="10.755844904488823"><ele>253.0</ele><time>2026-04-12T13:03:09Z</time></trkpt><trkpt lat="45.599141909884004" lon="10.755722473615972"><ele>253.16666666666666</ele><time>2026-04-12T13:03:10Z</time></trkpt><trkpt lat="45.599118780950405" lon="10.75560765611028"><ele>253.33333333333331</ele><time>2026-04-12T13:03:11Z</time></trkpt><trkpt lat="45.59909987024322" lon="10.755491681663713"><ele>253.5</ele><time>2026-04-12T13:03:12Z</time></trkpt><trkpt lat="45.59908284502125" lon="10.755377002977198"><ele>253.66666666666669</ele><time>2026-04-12T13:03:13Z</time></trkpt><trkpt lat="45.599066067576686" lon="10.755263129792294"><ele>253.83333333333334</ele><time>2026-04-12T13:03:14Z</time></trkpt><trkpt lat="45.59905170646097" lon="10.755146738124843"><ele>254.0</ele><time>2026-04-12T13:03:15Z</time></trkpt><trkpt lat="45.59903767001942" lon="10.755042990008386"><ele>254.00000000000003</ele><time>2026-04-12T13:03:16Z</time></trkpt><trkpt lat="45.599014423754795" lon="10.754948822007126"><ele>254.0</ele><time>2026-04-12T13:03:17Z</time></trkpt><trkpt lat="45.59896624057466" lon="10.754885196493719"><ele>254.0</ele><time>2026-04-12T13:03:18Z</time></trkpt><trkpt lat="45.598889725566416" lon="10.754857021244034"><ele>254.0</ele><time>2026-04-12T13:03:19Z</time></trkpt><trkpt lat="45.59879326024651" lon="10.754831785960423"><ele>254.00000000000003</ele><time>2026-04-12T13:03:20Z</time></trkpt><trkpt lat="45.59869000931349" lon="10.754806393107536"><ele>254.0</ele><time>2026-04-12T13:03:21Z</time></trkpt><trkpt lat="45.59858325425847" lon="10.75474644845877"><ele>252.5</ele><time>2026-04-12T13:03:22Z</time></trkpt><trkpt lat="45.598472056929545" lon="10.754706151605895"><ele>251.0</ele><time>2026-04-12T13:03:23Z</time></trkpt><trkpt lat="45.59835389627726" lon="10.754679913845361"><ele>249.5</ele><time>2026-04-12T13:03:24Z</time></trkpt><trkpt lat="45.598233795152346" lon="10.754626508577282"><ele>248.0</ele><time>2026-04-12T13:03:25Z</time></trkpt><trkpt lat="45.5981139071951" lon="10.754572056393108"><ele>248.0</ele><time>2026-04-12T13:03:26Z</time></trkpt><trkpt lat="45.59799127944244" lon="10.754538053480886"><ele>248.0</ele><time>2026-04-12T13:03:27Z</time></trkpt><trkpt lat="45.5978768985152" lon="10.754471073026478"><ele>248.0</ele><time>2026-04-12T13:03:28Z</time></trkpt><trkpt lat="45.597757131891804" lon="10.754394588547825"><ele>248.0</ele><time>2026-04-12T13:03:29Z</time></trkpt><trkpt lat="45.59763435702731" lon="10.75429807528093"><ele>247.0</ele><time>2026-04-12T13:03:30Z</time></trkpt><trkpt lat="45.597518410748755" lon="10.754185954430163"><ele>246.0</ele><time>2026-04-12T13:03:31Z</time></trkpt><trkpt lat="45.59739320252734" lon="10.754097426729032"><ele>245.0</ele><time>2026-04-12T13:03:32Z</time></trkpt><trkpt lat="45.59727039609112" lon="10.754002286010842"><ele>244.0</ele><time>2026-04-12T13:03:33Z</time></trkpt><trkpt lat="45.597141656953994" lon="10.753905369567468"><ele>244.0</ele><time>2026-04-12T13:03:34Z</time></trkpt><trkpt lat="45.59701689824441" lon="10.753799277949783"><ele>244.0</ele><time>2026-04-12T13:03:35Z</time></trkpt><trkpt lat="45.59689050394358" lon="10.753697650872931"><ele>244.0</ele><time>2026-04-12T13:03:36Z</time></trkpt><trkpt lat="45.596758712289414" lon="10.75359793457599"><ele>244.0</ele><time>2026-04-12T13:03:37Z</time></trkpt><trkpt lat="45.59663137525958" lon="10.753496737094473"><ele>242.5</ele><time>2026-04-12T13:03:38Z</time></trkpt><trkpt lat="45.5965064780335" lon="10.75339109001104"><ele>241.0</ele><time>2026-04-12T13:03:39Z</time></trkpt><trkpt lat="45.596371880054114" lon="10.753296055448768"><ele>239.5</ele><time>2026-04-12T13:03:40Z</time></trkpt><trkpt lat="45.59623540635229" lon="10.753196635556739"><ele>238.0</ele><time>2026-04-12T13:03:41Z</time></trkpt><trkpt lat="45.596101118984734" lon="10.753092285229092"><ele>237.0</ele><time>2026-04-12T13:03:42Z</time></trkpt><trkpt lat="45.59597242109113" lon="10.75299042495689"><ele>236.0</ele><time>2026-04-12T13:03:43Z</time></trkpt><trkpt lat="45.59583987913473" lon="10.752885529318558"><ele>235.0</ele><time>2026-04-12T13:03:44Z</time></trkpt><trkpt lat="45.59571002977268" lon="10.752782485969728"><ele>234.0</ele><time>2026-04-12T13:03:45Z</time></trkpt><trkpt lat="45.595579355342814" lon="10.752674814157364"><ele>233.33333333333331</ele><time>2026-04-12T13:03:46Z</time></trkpt><trkpt lat="45.59544259591242" lon="10.752564884584475"><ele>232.66666666666666</ele><time>2026-04-12T13:03:47Z</time></trkpt><trkpt lat="45.59530275871863" lon="10.752447837583782"><ele>232.0</ele><time>2026-04-12T13:03:48Z</time></trkpt><trkpt lat="45.59516358142388" lon="10.752325053052155"><ele>231.0</ele><time>2026-04-12T13:03:49Z</time></trkpt><trkpt lat="45.59502437672649" lon="10.752195198730963"><ele>230.0</ele><time>2026-04-12T13:03:50Z</time></trkpt><trkpt lat="45.59489064154716" lon="10.752061232700974"><ele>229.0</ele><time>2026-04-12T13:03:51Z</time></trkpt><trkpt lat="45.59475939911194" lon="10.751926115103638"><ele>229.0</ele><time>2026-04-12T13:03:52Z</time></trkpt><trkpt lat="45.594631874752395" lon="10.751792252736738"><ele>229.0</ele><time>2026-04-12T13:03:53Z</time></trkpt><trkpt lat="45.59450318315848" lon="10.751660716464624"><ele>229.0</ele><time>2026-04-12T13:03:54.001Z</time></trkpt><trkpt lat="45.594373203310866" lon="10.751535594239867"><ele>227.33333333333331</ele><time>2026-04-12T13:03:55.001Z</time></trkpt><trkpt lat="45.59424600794175" lon="10.751407508589319"><ele>225.66666666666669</ele><time>2026-04-12T13:03:56Z</time></trkpt><trkpt lat="45.59412115903992" lon="10.751279413226426"><ele>224.0</ele><time>2026-04-12T13:03:57Z</time></trkpt><trkpt lat="45.593995254587966" lon="10.751152134864938"><ele>224.0</ele><time>2026-04-12T13:03:58Z</time></trkpt><trkpt lat="45.59386940647615" lon="10.751024487400015"><ele>224.0</ele><time>2026-04-12T13:03:59Z</time></trkpt><trkpt lat="45.593747147729026" lon="10.750899060638966"><ele>224.0</ele><time>2026-04-12T13:04:00Z</time></trkpt><trkpt lat="45.593625305632386" lon="10.750777673887477"><ele>224.0</ele><time>2026-04-12T13:04:01Z</time></trkpt><trkpt lat="45.59350757544538" lon="10.75063698973966"><ele>224.0</ele><time>2026-04-12T13:04:02Z</time></trkpt><trkpt lat="45.59336671005757" lon="10.750542877698857"><ele>224.0</ele><time>2026-04-12T13:04:03Z</time></trkpt><trkpt lat="45.59323781329155" lon="10.75041476573748"><ele>224.0</ele><time>2026-04-12T13:04:04Z</time></trkpt><trkpt lat="45.59309841473988" lon="10.75031102447601"><ele>224.0</ele><time>2026-04-12T13:04:05Z</time></trkpt><trkpt lat="45.592957372967355" lon="10.750212776917738"><ele>224.0</ele><time>2026-04-12T13:04:06Z</time></trkpt><trkpt lat="45.59281029006649" lon="10.750133546691265"><ele>223.33333333333334</ele><time>2026-04-12T13:04:07Z</time></trkpt><trkpt lat="45.59267211854213" lon="10.750033092544706"><ele>222.66666666666669</ele><time>2026-04-12T13:04:08Z</time></trkpt><trkpt lat="45.59252835919543" lon="10.749930557986463"><ele>222.0</ele><time>2026-04-12T13:04:09Z</time></trkpt><trkpt lat="45.59238368207489" lon="10.74982871855377"><ele>222.0</ele><time>2026-04-12T13:04:10Z</time></trkpt><trkpt lat="45.59224218090802" lon="10.74972607847821"><ele>222.0</ele><time>2026-04-12T13:04:11Z</time></trkpt><trkpt lat="45.59209921906672" lon="10.749621881059124"><ele>222.0</ele><time>2026-04-12T13:04:12Z</time></trkpt><trkpt lat="45.59196417624398" lon="10.74951356053024"><ele>222.0</ele><time>2026-04-12T13:04:13Z</time></trkpt><trkpt lat="45.59182309085088" lon="10.749392799110721"><ele>222.0</ele><time>2026-04-12T13:04:14Z</time></trkpt><trkpt lat="45.59167629292678" lon="10.749269419945893"><ele>222.0</ele><time>2026-04-12T13:04:15Z</time></trkpt><trkpt lat="45.591524773556486" lon="10.749147585118894"><ele>222.0</ele><time>2026-04-12T13:04:16Z</time></trkpt><trkpt lat="45.59136098860355" lon="10.749016281493757"><ele>222.0</ele><time>2026-04-12T13:04:17Z</time></trkpt><trkpt lat="45.59120841954087" lon="10.748862158625753"><ele>222.0</ele><time>2026-04-12T13:04:18Z</time></trkpt><trkpt lat="45.59105756248069" lon="10.748735915430563"><ele>222.0</ele><time>2026-04-12T13:04:19Z</time></trkpt><trkpt lat="45.59091925634067" lon="10.748620172073322"><ele>222.0</ele><time>2026-04-12T13:04:20Z</time></trkpt><trkpt lat="45.59078363571474" lon="10.748506672366894"><ele>222.0</ele><time>2026-04-12T13:04:21Z</time></trkpt><trkpt lat="45.59063657983943" lon="10.748383602601207"><ele>222.0</ele><time>2026-04-12T13:04:22Z</time></trkpt><trkpt lat="45.59046428819257" lon="10.748265647678654"><ele>222.0</ele><time>2026-04-12T13:04:23Z</time></trkpt><trkpt lat="45.59029266272956" lon="10.748127744573132"><ele>222.0</ele><time>2026-04-12T13:04:24Z</time></trkpt><trkpt lat="45.59011336495758" lon="10.748007619482152"><ele>222.0</ele><time>2026-04-12T13:04:25Z</time></trkpt><trkpt lat="45.589935739978785" lon="10.747898947900989"><ele>222.0</ele><time>2026-04-12T13:04:26Z</time></trkpt><trkpt lat="45.589763178186836" lon="10.74779062460948"><ele>222.0</ele><time>2026-04-12T13:04:27Z</time></trkpt><trkpt lat="45.589600218056695" lon="10.747687370208913"><ele>221.66666666666669</ele><time>2026-04-12T13:04:28Z</time></trkpt><trkpt lat="45.58944460585367" lon="10.747593924933863"><ele>221.33333333333334</ele><time>2026-04-12T13:04:29Z</time></trkpt><trkpt lat="45.58929998675888" lon="10.747506557198891"><ele>221.0</ele><time>2026-04-12T13:04:30Z</time></trkpt><trkpt lat="45.589169317727155" lon="10.747427794365668"><ele>221.0</ele><time>2026-04-12T13:04:31Z</time></trkpt><trkpt lat="45.58905520752297" lon="10.747359279967588"><ele>221.0</ele><time>2026-04-12T13:04:32Z</time></trkpt><trkpt lat="45.58894013103883" lon="10.747289593721918"><ele>221.0</ele><time>2026-04-12T13:04:33Z</time></trkpt><trkpt lat="45.58883323976971" lon="10.747216376268359"><ele>221.0</ele><time>2026-04-12T13:04:34Z</time></trkpt><trkpt lat="45.588725702205174" lon="10.747154793527463"><ele>221.0</ele><time>2026-04-12T13:04:35Z</time></trkpt><trkpt lat="45.58862332866395" lon="10.747092641269786"><ele>221.00000000000003</ele><time>2026-04-12T13:04:36Z</time></trkpt><trkpt lat="45.58852503306945" lon="10.747037630072079"><ele>221.00000000000003</ele><time>2026-04-12T13:04:37Z</time></trkpt><trkpt lat="45.58843265794506" lon="10.746986353402795"><ele>221.0</ele><time>2026-04-12T13:04:38Z</time></trkpt><trkpt lat="45.588354441601744" lon="10.746941716311646"><ele>221.0</ele><time>2026-04-12T13:04:39Z</time></trkpt><trkpt lat="45.5882972482378" lon="10.746897334936351"><ele>221.42857142857144</ele><time>2026-04-12T13:04:40Z</time></trkpt><trkpt lat="45.58824644316864" lon="10.74683340014637"><ele>221.85714285714286</ele><time>2026-04-12T13:04:41Z</time></trkpt><trkpt lat="45.58819927837135" lon="10.746753893571096"><ele>222.28571428571428</ele><time>2026-04-12T13:04:42Z</time></trkpt><trkpt lat="45.58815005218719" lon="10.746671748323172"><ele>222.71428571428572</ele><time>2026-04-12T13:04:43Z</time></trkpt><trkpt lat="45.58809824970009" lon="10.746608468278612"><ele>223.14285714285714</ele><time>2026-04-12T13:04:44Z</time></trkpt><trkpt lat="45.58803338117109" lon="10.74655499488048"><ele>223.57142857142858</ele><time>2026-04-12T13:04:45Z</time></trkpt><trkpt lat="45.58796370789542" lon="10.746493185846271"><ele>224.0</ele><time>2026-04-12T13:04:46Z</time></trkpt><trkpt lat="45.58787806703802" lon="10.746527665544262"><ele>224.14285714285714</ele><time>2026-04-12T13:04:47Z</time></trkpt><trkpt lat="45.587803956397366" lon="10.746539688527067"><ele>224.28571428571428</ele><time>2026-04-12T13:04:48Z</time></trkpt><trkpt lat="45.58773441720868" lon="10.746528624343574"><ele>224.42857142857144</ele><time>2026-04-12T13:04:49Z</time></trkpt><trkpt lat="45.58767056405461" lon="10.746497301095111"><ele>224.57142857142858</ele><time>2026-04-12T13:04:50Z</time></trkpt><trkpt lat="45.587606965550115" lon="10.746457225016707"><ele>224.71428571428572</ele><time>2026-04-12T13:04:51Z</time></trkpt><trkpt lat="45.58754318476491" lon="10.746412590173476"><ele>224.8571428571429</ele><time>2026-04-12T13:04:52Z</time></trkpt><trkpt lat="45.58747411128656" lon="10.746371019582266"><ele>225.00000000000003</ele><time>2026-04-12T13:04:53Z</time></trkpt><trkpt lat="45.58740594672453" lon="10.74632981696887"><ele>225.0</ele><time>2026-04-12T13:04:54Z</time></trkpt><trkpt lat="45.58733641177846" lon="10.746289487185892"><ele>225.0</ele><time>2026-04-12T13:04:55Z</time></trkpt><trkpt lat="45.58726051145835" lon="10.746250827625921"><ele>225.0</ele><time>2026-04-12T13:04:56Z</time></trkpt><trkpt lat="45.58718792191775" lon="10.746208749255612"><ele>225.0</ele><time>2026-04-12T13:04:57Z</time></trkpt><trkpt lat="45.587116089959785" lon="10.74616925026356"><ele>225.0</ele><time>2026-04-12T13:04:58Z</time></trkpt><trkpt lat="45.5870446167887" lon="10.746126707420979"><ele>225.0</ele><time>2026-04-12T13:04:59Z</time></trkpt><trkpt lat="45.58697366250538" lon="10.746078077418966"><ele>227.2</ele><time>2026-04-12T13:05:00Z</time></trkpt><trkpt lat="45.586897357414166" lon="10.746027326795307"><ele>229.4</ele><time>2026-04-12T13:05:01Z</time></trkpt><trkpt lat="45.58681467237088" lon="10.745980122305584"><ele>231.60000000000002</ele><time>2026-04-12T13:05:02Z</time></trkpt><trkpt lat="45.58673080126181" lon="10.745931070403977"><ele>233.8</ele><time>2026-04-12T13:05:03Z</time></trkpt><trkpt lat="45.58664354264827" lon="10.74587464602709"><ele>236.0</ele><time>2026-04-12T13:05:04Z</time></trkpt><trkpt lat="45.586554934339226" lon="10.745812754892652"><ele>236.00000000000003</ele><time>2026-04-12T13:05:05Z</time></trkpt><trkpt lat="45.586466705092704" lon="10.745753593292319"><ele>236.0</ele><time>2026-04-12T13:05:06Z</time></trkpt><trkpt lat="45.58637363458646" lon="10.745705082438262"><ele>236.0</ele><time>2026-04-12T13:05:07Z</time></trkpt><trkpt lat="45.58629431244686" lon="10.745652593785476"><ele>236.0</ele><time>2026-04-12T13:05:08Z</time></trkpt><trkpt lat="45.58622552628612" lon="10.745603049105481"><ele>236.00000000000003</ele><time>2026-04-12T13:05:09Z</time></trkpt><trkpt lat="45.586168434667" lon="10.745564753330235"><ele>236.0</ele><time>2026-04-12T13:05:10Z</time></trkpt><trkpt lat="45.586101819943444" lon="10.745532454266678"><ele>236.20000000000002</ele><time>2026-04-12T13:05:12Z</time></trkpt><trkpt lat="45.58609514820246" lon="10.745784642693845"><ele>236.40000000000003</ele><time>2026-04-12T13:06:09Z</time></trkpt><trkpt lat="45.58611638305472" lon="10.745880986397987"><ele>236.6</ele><time>2026-04-12T13:06:10Z</time></trkpt><trkpt lat="45.586146277118644" lon="10.745979000633776"><ele>236.8</ele><time>2026-04-12T13:06:11Z</time></trkpt><trkpt lat="45.58618038398322" lon="10.74608828869646"><ele>237.0</ele><time>2026-04-12T13:06:12Z</time></trkpt><trkpt lat="45.58621864556814" lon="10.74620545545226"><ele>235.0</ele><time>2026-04-12T13:06:13Z</time></trkpt><trkpt lat="45.58625993822016" lon="10.74632869195509"><ele>233.0</ele><time>2026-04-12T13:06:14Z</time></trkpt><trkpt lat="45.586303890543" lon="10.746446581481129"><ele>231.0</ele><time>2026-04-12T13:06:15Z</time></trkpt><trkpt lat="45.58634931100898" lon="10.74656484377841"><ele>229.0</ele><time>2026-04-12T13:06:16Z</time></trkpt><trkpt lat="45.5863965173347" lon="10.746683772195821"><ele>227.0</ele><time>2026-04-12T13:06:17Z</time></trkpt><trkpt lat="45.58644129290525" lon="10.746801978688605"><ele>227.0</ele><time>2026-04-12T13:06:18Z</time></trkpt><trkpt lat="45.58649209022709" lon="10.746922155877709"><ele>227.0</ele><time>2026-04-12T13:06:19Z</time></trkpt><trkpt lat="45.58653386361812" lon="10.747036570565202"><ele>227.0</ele><time>2026-04-12T13:06:20Z</time></trkpt><trkpt lat="45.586577263320684" lon="10.747148047279326"><ele>227.0</ele><time>2026-04-12T13:06:21Z</time></trkpt><trkpt lat="45.58662584018668" lon="10.747258783611239"><ele>227.0</ele><time>2026-04-12T13:06:22Z</time></trkpt><trkpt lat="45.586664583375104" lon="10.747367451700255"><ele>227.00000000000003</ele><time>2026-04-12T13:06:23Z</time></trkpt><trkpt lat="45.58671174162492" lon="10.747462729038935"><ele>227.0</ele><time>2026-04-12T13:06:24Z</time></trkpt><trkpt lat="45.586741908726495" lon="10.747565454223874"><ele>227.0</ele><time>2026-04-12T13:06:25Z</time></trkpt><trkpt lat="45.58676713962471" lon="10.747662502555137"><ele>227.0</ele><time>2026-04-12T13:06:26Z</time></trkpt><trkpt lat="45.58679731070626" lon="10.747758421413105"><ele>227.00000000000003</ele><time>2026-04-12T13:06:27Z</time></trkpt><trkpt lat="45.58682237661668" lon="10.747891146479413"><ele>227.0</ele><time>2026-04-12T13:06:29Z</time></trkpt><trkpt lat="45.586833629111474" lon="10.74807044236876"><ele>226.2</ele><time>2026-04-12T13:06:33Z</time></trkpt><trkpt lat="45.58697698497552" lon="10.748150139883213"><ele>225.39999999999998</ele><time>2026-04-12T13:06:36Z</time></trkpt><trkpt lat="45.587024259449095" lon="10.748074021309105"><ele>224.60000000000002</ele><time>2026-04-12T13:06:37Z</time></trkpt><trkpt lat="45.58706709750052" lon="10.747952437374284"><ele>223.8</ele><time>2026-04-12T13:06:38Z</time></trkpt><trkpt lat="45.58712419685153" lon="10.747844464785599"><ele>223.0</ele><time>2026-04-12T13:06:39Z</time></trkpt><trkpt lat="45.58719986696008" lon="10.747745307208923"><ele>223.2</ele><time>2026-04-12T13:06:40Z</time></trkpt><trkpt lat="45.58728401527365" lon="10.747652041591225"><ele>223.4</ele><time>2026-04-12T13:06:41Z</time></trkpt><trkpt lat="45.58735692129081" lon="10.747570005276053"><ele>223.59999999999997</ele><time>2026-04-12T13:06:42Z</time></trkpt><trkpt lat="45.58742749076039" lon="10.747492443192824"><ele>223.79999999999998</ele><time>2026-04-12T13:06:43Z</time></trkpt><trkpt lat="45.58749882131076" lon="10.747416560317802"><ele>224.0</ele><time>2026-04-12T13:06:44Z</time></trkpt><trkpt lat="45.58756766005333" lon="10.747344340506116"><ele>224.00000000000003</ele><time>2026-04-12T13:06:45Z</time></trkpt><trkpt lat="45.58763915772236" lon="10.74726892396672"><ele>224.0</ele><time>2026-04-12T13:06:46Z</time></trkpt><trkpt lat="45.587708566129294" lon="10.747202207656803"><ele>224.0</ele><time>2026-04-12T13:06:47Z</time></trkpt><trkpt lat="45.587773830212186" lon="10.747147869195311"><ele>224.0</ele><time>2026-04-12T13:06:48Z</time></trkpt><trkpt lat="45.58783388539727" lon="10.74710348124218"><ele>224.00000000000003</ele><time>2026-04-12T13:06:49Z</time></trkpt><trkpt lat="45.58795864107861" lon="10.747036203733563"><ele>224.0</ele><time>2026-04-12T13:06:51Z</time></trkpt><trkpt lat="45.58803059819507" lon="10.7469885626001"><ele>224.0</ele><time>2026-04-12T13:06:52Z</time></trkpt><trkpt lat="45.58809321611962" lon="10.746932123271018"><ele>224.0</ele><time>2026-04-12T13:06:53Z</time></trkpt><trkpt lat="45.588135598104515" lon="10.746851076165202"><ele>224.0</ele><time>2026-04-12T13:06:54Z</time></trkpt><trkpt lat="45.58815130146326" lon="10.746751536192967"><ele>224.0</ele><time>2026-04-12T13:06:55Z</time></trkpt><trkpt lat="45.588138365435086" lon="10.746651435388396"><ele>224.0</ele><time>2026-04-12T13:06:56Z</time></trkpt><trkpt lat="45.58809609766102" lon="10.74656614626512"><ele>224.0</ele><time>2026-04-12T13:06:57Z</time></trkpt><trkpt lat="45.58802079804391" lon="10.74651000763547"><ele>224.0</ele><time>2026-04-12T13:06:58Z</time></trkpt><trkpt lat="45.5879302053114" lon="10.746497887770365"><ele>224.2</ele><time>2026-04-12T13:06:59Z</time></trkpt><trkpt lat="45.5878259135911" lon="10.746532173399235"><ele>224.39999999999998</ele><time>2026-04-12T13:07:00Z</time></trkpt><trkpt lat="45.58772757972398" lon="10.746519761360432"><ele>224.6</ele><time>2026-04-12T13:07:01Z</time></trkpt><trkpt lat="45.587628252899556" lon="10.746471284907676"><ele>224.8</ele><time>2026-04-12T13:07:02Z</time></trkpt><trkpt lat="45.587524369031115" lon="10.746413321470637"><ele>225.0</ele><time>2026-04-12T13:07:03Z</time></trkpt><trkpt lat="45.58741812413482" lon="10.746350951279236"><ele>225.0</ele><time>2026-04-12T13:07:04Z</time></trkpt><trkpt lat="45.58730820596287" lon="10.746282108586309"><ele>225.0</ele><time>2026-04-12T13:07:05Z</time></trkpt><trkpt lat="45.58720128779232" lon="10.746214184669189"><ele>225.0</ele><time>2026-04-12T13:07:06Z</time></trkpt><trkpt lat="45.587084934595154" lon="10.746143634196459"><ele>225.0</ele><time>2026-04-12T13:07:07Z</time></trkpt><trkpt lat="45.58696259299546" lon="10.746071038145137"><ele>227.75</ele><time>2026-04-12T13:07:08Z</time></trkpt><trkpt lat="45.58683783748511" lon="10.745997056817686"><ele>230.5</ele><time>2026-04-12T13:07:09Z</time></trkpt><trkpt lat="45.58671043505888" lon="10.745917828827203"><ele>233.25</ele><time>2026-04-12T13:07:10Z</time></trkpt><trkpt lat="45.5865854344741" lon="10.745838312006587"><ele>236.0</ele><time>2026-04-12T13:07:11Z</time></trkpt><trkpt lat="45.58646557847749" lon="10.745761929951671"><ele>236.0</ele><time>2026-04-12T13:07:12Z</time></trkpt><trkpt lat="45.58634985464296" lon="10.745688087707762"><ele>236.00000000000003</ele><time>2026-04-12T13:07:13Z</time></trkpt><trkpt lat="45.586244646980504" lon="10.745617035750094"><ele>236.00000000000003</ele><time>2026-04-12T13:07:14Z</time></trkpt><trkpt lat="45.58615018970852" lon="10.745541262428164"><ele>236.0</ele><time>2026-04-12T13:07:15Z</time></trkpt><trkpt lat="45.58607414644313" lon="10.745470585057445"><ele>236.0</ele><time>2026-04-12T13:07:16Z</time></trkpt><trkpt lat="45.585993938170866" lon="10.745440424761753"><ele>236.20000000000002</ele><time>2026-04-12T13:07:17Z</time></trkpt><trkpt lat="45.5860119196631" lon="10.74524223342233"><ele>236.40000000000003</ele><time>2026-04-12T13:07:18Z</time></trkpt><trkpt lat="45.58600803480985" lon="10.745083835164735"><ele>236.6</ele><time>2026-04-12T13:07:19Z</time></trkpt><trkpt lat="45.58598851045349" lon="10.74494267837139"><ele>236.8</ele><time>2026-04-12T13:07:20Z</time></trkpt><trkpt lat="45.5859899212273" lon="10.744824694972253"><ele>237.0</ele><time>2026-04-12T13:07:21Z</time></trkpt><trkpt lat="45.58598282388953" lon="10.744706505441561"><ele>238.2</ele><time>2026-04-12T13:07:22Z</time></trkpt><trkpt lat="45.58597447368475" lon="10.744573931591768"><ele>239.39999999999998</ele><time>2026-04-12T13:07:23Z</time></trkpt><trkpt lat="45.585978086768904" lon="10.744442054934325"><ele>240.60000000000002</ele><time>2026-04-12T13:07:24Z</time></trkpt><trkpt lat="45.58596493156163" lon="10.744303500001283"><ele>241.8</ele><time>2026-04-12T13:07:25Z</time></trkpt><trkpt lat="45.585948218112996" lon="10.744166300031894"><ele>243.0</ele><time>2026-04-12T13:07:26Z</time></trkpt><trkpt lat="45.58593004009636" lon="10.744017077489973"><ele>243.2</ele><time>2026-04-12T13:07:27.001Z</time></trkpt><trkpt lat="45.58589757897134" lon="10.743868681534885"><ele>243.4</ele><time>2026-04-12T13:07:28.001Z</time></trkpt><trkpt lat="45.585886191331454" lon="10.743718694890564"><ele>243.59999999999997</ele><time>2026-04-12T13:07:29.001Z</time></trkpt><trkpt lat="45.58587466472174" lon="10.74357576656963"><ele>243.79999999999998</ele><time>2026-04-12T13:07:30.001Z</time></trkpt><trkpt lat="45.58585341894578" lon="10.743428418448959"><ele>244.0</ele><time>2026-04-12T13:07:31.001Z</time></trkpt><trkpt lat="45.58584286829895" lon="10.743278389769616"><ele>243.0</ele><time>2026-04-12T13:07:32.001Z</time></trkpt><trkpt lat="45.585828622572265" lon="10.743135515903948"><ele>241.99999999999997</ele><time>2026-04-12T13:07:33.001Z</time></trkpt><trkpt lat="45.58582758644464" lon="10.74298833986934"><ele>240.99999999999997</ele><time>2026-04-12T13:07:34.001Z</time></trkpt><trkpt lat="45.58583837748223" lon="10.742841126698947"><ele>240.0</ele><time>2026-04-12T13:07:35.001Z</time></trkpt><trkpt lat="45.585850157344865" lon="10.742691276715929"><ele>239.0</ele><time>2026-04-12T13:07:36.001Z</time></trkpt><trkpt lat="45.585857342474945" lon="10.742547653605236"><ele>238.16666666666669</ele><time>2026-04-12T13:07:37.001Z</time></trkpt><trkpt lat="45.585866483466425" lon="10.742411424167212"><ele>237.33333333333334</ele><time>2026-04-12T13:07:38.001Z</time></trkpt><trkpt lat="45.58586944949452" lon="10.742295426986948"><ele>236.5</ele><time>2026-04-12T13:07:39.001Z</time></trkpt><trkpt lat="45.585869997538516" lon="10.742182635071842"><ele>235.66666666666669</ele><time>2026-04-12T13:07:40.001Z</time></trkpt><trkpt lat="45.58585976483496" lon="10.742077339415747"><ele>234.83333333333334</ele><time>2026-04-12T13:07:41.001Z</time></trkpt><trkpt lat="45.585848654320365" lon="10.741965109112702"><ele>234.0</ele><time>2026-04-12T13:07:42.001Z</time></trkpt><trkpt lat="45.58584290582355" lon="10.741837290196735"><ele>232.79999999999998</ele><time>2026-04-12T13:07:43.001Z</time></trkpt><trkpt lat="45.585838634586494" lon="10.741696193769867"><ele>231.59999999999997</ele><time>2026-04-12T13:07:44.001Z</time></trkpt><trkpt lat="45.58583721257106" lon="10.741544150315134"><ele>230.4</ele><time>2026-04-12T13:07:45.001Z</time></trkpt><trkpt lat="45.58583650039357" lon="10.74138828641634"><ele>229.2</ele><time>2026-04-12T13:07:46.001Z</time></trkpt><trkpt lat="45.58583170184473" lon="10.741233345111391"><ele>228.0</ele><time>2026-04-12T13:07:47.001Z</time></trkpt><trkpt lat="45.58582100372983" lon="10.741082090586952"><ele>227.60000000000002</ele><time>2026-04-12T13:07:48.001Z</time></trkpt><trkpt lat="45.58580422641275" lon="10.740935219183589"><ele>227.20000000000002</ele><time>2026-04-12T13:07:49.001Z</time></trkpt><trkpt lat="45.58579494657491" lon="10.74078910330685"><ele>226.8</ele><time>2026-04-12T13:07:50.001Z</time></trkpt><trkpt lat="45.585779869278824" lon="10.740640693597369"><ele>226.4</ele><time>2026-04-12T13:07:51.001Z</time></trkpt><trkpt lat="45.585767676020986" lon="10.740501515986953"><ele>226.0</ele><time>2026-04-12T13:07:52.001Z</time></trkpt><trkpt lat="45.5857565573641" lon="10.740372227011374"><ele>226.0</ele><time>2026-04-12T13:07:53.001Z</time></trkpt><trkpt lat="45.58575100997626" lon="10.740253407531762"><ele>226.0</ele><time>2026-04-12T13:07:54.001Z</time></trkpt><trkpt lat="45.585762157867585" lon="10.740149972134319"><ele>226.0</ele><time>2026-04-12T13:07:55.001Z</time></trkpt><trkpt lat="45.585787779834604" lon="10.740061058887052"><ele>226.0</ele><time>2026-04-12T13:07:56.001Z</time></trkpt><trkpt lat="45.58580711837511" lon="10.739975357765825"><ele>226.0</ele><time>2026-04-12T13:07:57.001Z</time></trkpt><trkpt lat="45.58579029007758" lon="10.73987543020267"><ele>226.0</ele><time>2026-04-12T13:07:58.001Z</time></trkpt><trkpt lat="45.58574958624628" lon="10.739781893111427"><ele>226.0</ele><time>2026-04-12T13:07:59.001Z</time></trkpt><trkpt lat="45.58570991185399" lon="10.73967939115599"><ele>226.16666666666666</ele><time>2026-04-12T13:08:00.001Z</time></trkpt><trkpt lat="45.58569967320754" lon="10.739564472526316"><ele>226.33333333333331</ele><time>2026-04-12T13:08:01.001Z</time></trkpt><trkpt lat="45.585697035588474" lon="10.739439450473952"><ele>226.5</ele><time>2026-04-12T13:08:02.001Z</time></trkpt><trkpt lat="45.58568453169199" lon="10.739312769492503"><ele>226.66666666666669</ele><time>2026-04-12T13:08:03.001Z</time></trkpt><trkpt lat="45.585660572693484" lon="10.739188880607598"><ele>226.83333333333334</ele><time>2026-04-12T13:08:04.001Z</time></trkpt><trkpt lat="45.5856213764" lon="10.739056748330263"><ele>227.0</ele><time>2026-04-12T13:08:05.001Z</time></trkpt><trkpt lat="45.5855716282605" lon="10.738917175581365"><ele>227.0</ele><time>2026-04-12T13:08:06.001Z</time></trkpt><trkpt lat="45.585526090868825" lon="10.738769919175551"><ele>227.0</ele><time>2026-04-12T13:08:07.001Z</time></trkpt><trkpt lat="45.58548651825127" lon="10.738623511362968"><ele>227.0</ele><time>2026-04-12T13:08:08Z</time></trkpt><trkpt lat="45.58544555214647" lon="10.738470211843891"><ele>227.0</ele><time>2026-04-12T13:08:09Z</time></trkpt><trkpt lat="45.585406669535104" lon="10.738320908456032"><ele>227.0</ele><time>2026-04-12T13:08:10Z</time></trkpt><trkpt lat="45.58536317363135" lon="10.738149329760308"><ele>223.75</ele><time>2026-04-12T13:08:11Z</time></trkpt><trkpt lat="45.58531576185365" lon="10.737964238853815"><ele>220.5</ele><time>2026-04-12T13:08:12Z</time></trkpt><trkpt lat="45.585268486630625" lon="10.737780760699644"><ele>217.25</ele><time>2026-04-12T13:08:13Z</time></trkpt><trkpt lat="45.58525081768589" lon="10.737591120184884"><ele>214.0</ele><time>2026-04-12T13:08:14Z</time></trkpt><trkpt lat="45.58521399738149" lon="10.737404079808718"><ele>213.0</ele><time>2026-04-12T13:08:15Z</time></trkpt><trkpt lat="45.58520652190112" lon="10.73720750709425"><ele>212.0</ele><time>2026-04-12T13:08:16Z</time></trkpt><trkpt lat="45.585215509872896" lon="10.73700532760905"><ele>211.0</ele><time>2026-04-12T13:08:17Z</time></trkpt><trkpt lat="45.58523337388752" lon="10.736800340243246"><ele>210.0</ele><time>2026-04-12T13:08:18Z</time></trkpt><trkpt lat="45.5852764357527" lon="10.736586405560352"><ele>211.0</ele><time>2026-04-12T13:08:19Z</time></trkpt><trkpt lat="45.58533473160824" lon="10.736367119130989"><ele>212.0</ele><time>2026-04-12T13:08:20Z</time></trkpt><trkpt lat="45.58539993613797" lon="10.736158207431725"><ele>213.0</ele><time>2026-04-12T13:08:21Z</time></trkpt><trkpt lat="45.585470040017775" lon="10.735947824962224"><ele>213.0</ele><time>2026-04-12T13:08:22Z</time></trkpt><trkpt lat="45.58553076607556" lon="10.73574317597859"><ele>213.0</ele><time>2026-04-12T13:08:23Z</time></trkpt><trkpt lat="45.58558797626789" lon="10.73554455902164"><ele>213.0</ele><time>2026-04-12T13:08:24Z</time></trkpt><trkpt lat="45.58563530518033" lon="10.735338036033808"><ele>211.5</ele><time>2026-04-12T13:08:25Z</time></trkpt><trkpt lat="45.58566542822103" lon="10.735129801139658"><ele>210.0</ele><time>2026-04-12T13:08:26Z</time></trkpt><trkpt lat="45.58568808514578" lon="10.734923629303795"><ele>208.5</ele><time>2026-04-12T13:08:27Z</time></trkpt><trkpt lat="45.58570428686163" lon="10.73472061551156"><ele>207.0</ele><time>2026-04-12T13:08:28Z</time></trkpt><trkpt lat="45.585714153087004" lon="10.734515303135721"><ele>205.25</ele><time>2026-04-12T13:08:29Z</time></trkpt><trkpt lat="45.58572438967734" lon="10.734323764256706"><ele>203.5</ele><time>2026-04-12T13:08:30Z</time></trkpt><trkpt lat="45.58573085539141" lon="10.734136014363191"><ele>201.75</ele><time>2026-04-12T13:08:31Z</time></trkpt><trkpt lat="45.585739158520795" lon="10.73395444680506"><ele>200.0</ele><time>2026-04-12T13:08:32Z</time></trkpt><trkpt lat="45.58575426053422" lon="10.733782470090063"><ele>200.0</ele><time>2026-04-12T13:08:33Z</time></trkpt><trkpt lat="45.58575529781356" lon="10.733628758027464"><ele>200.0</ele><time>2026-04-12T13:08:34Z</time></trkpt><trkpt lat="45.58574228947705" lon="10.733486470939376"><ele>200.0</ele><time>2026-04-12T13:08:35Z</time></trkpt><trkpt lat="45.58572045411001" lon="10.733345333695747"><ele>200.0</ele><time>2026-04-12T13:08:36Z</time></trkpt><trkpt lat="45.585763338192876" lon="10.733106981300228"><ele>199.66666666666669</ele><time>2026-04-12T13:08:37Z</time></trkpt><trkpt lat="45.585513022485756" lon="10.733130067900609"><ele>199.33333333333331</ele><time>2026-04-12T13:08:38Z</time></trkpt><trkpt lat="45.58539015417077" lon="10.73306256580606"><ele>199.0</ele><time>2026-04-12T13:08:39Z</time></trkpt><trkpt lat="45.58527309709714" lon="10.732992118514941"><ele>195.5</ele><time>2026-04-12T13:08:40Z</time></trkpt><trkpt lat="45.585175734406825" lon="10.732892454587477"><ele>192.0</ele><time>2026-04-12T13:08:41Z</time></trkpt><trkpt lat="45.58510762244195" lon="10.732737669294718"><ele>188.5</ele><time>2026-04-12T13:08:42Z</time></trkpt><trkpt lat="45.58503641060767" lon="10.732598122836691"><ele>185.0</ele><time>2026-04-12T13:08:43Z</time></trkpt><trkpt lat="45.584981771331606" lon="10.732443989191452"><ele>185.0</ele><time>2026-04-12T13:08:44Z</time></trkpt><trkpt lat="45.58494101271931" lon="10.732296631802134"><ele>185.0</ele><time>2026-04-12T13:08:45Z</time></trkpt><trkpt lat="45.58492051893635" lon="10.73216654181864"><ele>185.0</ele><time>2026-04-12T13:08:46Z</time></trkpt><trkpt lat="45.58490765970339" lon="10.73203441327057"><ele>185.0</ele><time>2026-04-12T13:08:47Z</time></trkpt><trkpt lat="45.584881596630396" lon="10.731922884803497"><ele>185.0</ele><time>2026-04-12T13:08:48Z</time></trkpt><trkpt lat="45.584844336970534" lon="10.731845929262317"><ele>185.0</ele><time>2026-04-12T13:08:49Z</time></trkpt><trkpt lat="45.58472471450832" lon="10.731825594498664"><ele>185.0</ele><time>2026-04-12T13:08:51Z</time></trkpt><trkpt lat="45.58468293818731" lon="10.731932000175085"><ele>185.0</ele><time>2026-04-12T13:08:52Z</time></trkpt><trkpt lat="45.584660261286444" lon="10.7320216674876"><ele>185.0</ele><time>2026-04-12T13:08:53Z</time></trkpt><trkpt lat="45.58464801553375" lon="10.732128291478015"><ele>185.0</ele><time>2026-04-12T13:08:54Z</time></trkpt><trkpt lat="45.58464167813387" lon="10.732233094223046"><ele>185.0</ele><time>2026-04-12T13:08:55Z</time></trkpt><trkpt lat="45.584634144757224" lon="10.732353174291442"><ele>185.0</ele><time>2026-04-12T13:08:56Z</time></trkpt><trkpt lat="45.58462645586916" lon="10.732470774003444"><ele>185.0</ele><time>2026-04-12T13:08:57Z</time></trkpt><trkpt lat="45.58462190600873" lon="10.732571689935114"><ele>185.0</ele><time>2026-04-12T13:08:58Z</time></trkpt><trkpt lat="45.58460938417741" lon="10.73271175429624"><ele>185.0</ele><time>2026-04-12T13:09:00Z</time></trkpt><trkpt lat="45.58452964205107" lon="10.732764358763127"><ele>185.0</ele><time>2026-04-12T13:09:02Z</time></trkpt><trkpt lat="45.584441218342256" lon="10.732623547227819"><ele>185.0</ele><time>2026-04-12T13:09:04Z</time></trkpt><trkpt lat="45.58446988836198" lon="10.732502692731087"><ele>179.4</ele><time>2026-04-12T13:09:05Z</time></trkpt><trkpt lat="45.58446780076196" lon="10.73236762049916"><ele>173.8</ele><time>2026-04-12T13:09:06Z</time></trkpt><trkpt lat="45.584478436392374" lon="10.732222829754658"><ele>168.2</ele><time>2026-04-12T13:09:07Z</time></trkpt><trkpt lat="45.58448522957507" lon="10.732070413239443"><ele>162.6</ele><time>2026-04-12T13:09:08Z</time></trkpt><trkpt lat="45.58449003665231" lon="10.731898553176462"><ele>157.0</ele><time>2026-04-12T13:09:09Z</time></trkpt><trkpt lat="45.58449427869867" lon="10.731714436777558"><ele>157.0</ele><time>2026-04-12T13:09:10Z</time></trkpt><trkpt lat="45.58448951387691" lon="10.731527476004167"><ele>157.0</ele><time>2026-04-12T13:09:11Z</time></trkpt><trkpt lat="45.58447250281759" lon="10.731331282733167"><ele>157.0</ele><time>2026-04-12T13:09:12Z</time></trkpt><trkpt lat="45.58444595183138" lon="10.731131186003724"><ele>157.0</ele><time>2026-04-12T13:09:13Z</time></trkpt><trkpt lat="45.58441370278332" lon="10.730938857528022"><ele>157.0</ele><time>2026-04-12T13:09:14Z</time></trkpt><trkpt lat="45.58438840387625" lon="10.730748421963803"><ele>157.0</ele><time>2026-04-12T13:09:15Z</time></trkpt><trkpt lat="45.584365469724155" lon="10.73054822698054"><ele>157.0</ele><time>2026-04-12T13:09:16Z</time></trkpt><trkpt lat="45.58435033811392" lon="10.730348731015273"><ele>157.0</ele><time>2026-04-12T13:09:17Z</time></trkpt><trkpt lat="45.584331582365735" lon="10.730156088215889"><ele>156.5</ele><time>2026-04-12T13:09:18Z</time></trkpt><trkpt lat="45.58430844516892" lon="10.729960146574246"><ele>156.0</ele><time>2026-04-12T13:09:19Z</time></trkpt><trkpt lat="45.584283056717084" lon="10.729760537989051"><ele>155.5</ele><time>2026-04-12T13:09:20Z</time></trkpt><trkpt lat="45.584253057995966" lon="10.729562537150617"><ele>155.0</ele><time>2026-04-12T13:09:21Z</time></trkpt><trkpt lat="45.58422510807407" lon="10.729366559735992"><ele>154.25</ele><time>2026-04-12T13:09:22Z</time></trkpt><trkpt lat="45.58419740646821" lon="10.729183026957656"><ele>153.5</ele><time>2026-04-12T13:09:23Z</time></trkpt><trkpt lat="45.58416452854636" lon="10.72901346573929"><ele>152.75</ele><time>2026-04-12T13:09:24Z</time></trkpt><trkpt lat="45.5841185500696" lon="10.728850384873729"><ele>152.0</ele><time>2026-04-12T13:09:25Z</time></trkpt><trkpt lat="45.584043560964794" lon="10.728700382978476"><ele>152.0</ele><time>2026-04-12T13:09:26Z</time></trkpt><trkpt lat="45.583943011502186" lon="10.728570655027964"><ele>152.0</ele><time>2026-04-12T13:09:27Z</time></trkpt><trkpt lat="45.58384337383472" lon="10.72846337201761"><ele>152.0</ele><time>2026-04-12T13:09:28Z</time></trkpt><trkpt lat="45.583772312848424" lon="10.728345203153141"><ele>152.0</ele><time>2026-04-12T13:09:29Z</time></trkpt><trkpt lat="45.583698378207565" lon="10.728235829580782"><ele>147.5</ele><time>2026-04-12T13:09:30Z</time></trkpt><trkpt lat="45.58364476652513" lon="10.728099993553718"><ele>143.0</ele><time>2026-04-12T13:09:31Z</time></trkpt><trkpt lat="45.58361518237874" lon="10.727936211423206"><ele>138.5</ele><time>2026-04-12T13:09:32Z</time></trkpt><trkpt lat="45.583586996620255" lon="10.727753076636365"><ele>134.0</ele><time>2026-04-12T13:09:33Z</time></trkpt><trkpt lat="45.583561025876264" lon="10.727562662925289"><ele>133.25</ele><time>2026-04-12T13:09:34Z</time></trkpt><trkpt lat="45.58352720405802" lon="10.727386183108152"><ele>132.5</ele><time>2026-04-12T13:09:35Z</time></trkpt><trkpt lat="45.58350424223158" lon="10.727215119320038"><ele>131.75</ele><time>2026-04-12T13:09:36Z</time></trkpt><trkpt lat="45.5834830764198" lon="10.727048062523988"><ele>131.0</ele><time>2026-04-12T13:09:37Z</time></trkpt><trkpt lat="45.58346117692397" lon="10.726881638947678"><ele>130.6</ele><time>2026-04-12T13:09:38Z</time></trkpt><trkpt lat="45.5834420957199" lon="10.726723909453288"><ele>130.2</ele><time>2026-04-12T13:09:39Z</time></trkpt><trkpt lat="45.58342190558764" lon="10.726583209085796"><ele>129.8</ele><time>2026-04-12T13:09:40Z</time></trkpt><trkpt lat="45.5834024081002" lon="10.726451345330231"><ele>129.4</ele><time>2026-04-12T13:09:41Z</time></trkpt><trkpt lat="45.58338756711848" lon="10.726332550964871"><ele>129.0</ele><time>2026-04-12T13:09:42Z</time></trkpt><trkpt lat="45.58337516743339" lon="10.72622266257139"><ele>129.0</ele><time>2026-04-12T13:09:43Z</time></trkpt><trkpt lat="45.58335322473227" lon="10.72611136165418"><ele>129.0</ele><time>2026-04-12T13:09:44Z</time></trkpt><trkpt lat="45.58332231306603" lon="10.725988959911344"><ele>129.0</ele><time>2026-04-12T13:09:45Z</time></trkpt><trkpt lat="45.5832732248" lon="10.72586960282325"><ele>129.0</ele><time>2026-04-12T13:09:46Z</time></trkpt><trkpt lat="45.58321494366557" lon="10.725758466625681"><ele>129.0</ele><time>2026-04-12T13:09:47Z</time></trkpt><trkpt lat="45.58315008174224" lon="10.725655165991679"><ele>128.8</ele><time>2026-04-12T13:09:48Z</time></trkpt><trkpt lat="45.58309930250256" lon="10.72553471710368"><ele>128.60000000000002</ele><time>2026-04-12T13:09:49Z</time></trkpt><trkpt lat="45.58303415461099" lon="10.725421676032207"><ele>128.4</ele><time>2026-04-12T13:09:50Z</time></trkpt><trkpt lat="45.582962359431946" lon="10.725297211646218"><ele>128.20000000000002</ele><time>2026-04-12T13:09:51Z</time></trkpt><trkpt lat="45.582886710341896" lon="10.72516622262531"><ele>128.0</ele><time>2026-04-12T13:09:52Z</time></trkpt><trkpt lat="45.58280775639119" lon="10.725029549249538"><ele>126.80000000000001</ele><time>2026-04-12T13:09:53Z</time></trkpt><trkpt lat="45.58273398084883" lon="10.724901839868805"><ele>125.60000000000001</ele><time>2026-04-12T13:09:54Z</time></trkpt><trkpt lat="45.58266576251304" lon="10.72478391755731"><ele>124.39999999999999</ele><time>2026-04-12T13:09:55Z</time></trkpt><trkpt lat="45.5826059426954" lon="10.724680551874519"><ele>123.19999999999999</ele><time>2026-04-12T13:09:56Z</time></trkpt><trkpt lat="45.582557893090744" lon="10.72459752461767"><ele>122.0</ele><time>2026-04-12T13:09:57Z</time></trkpt><trkpt lat="45.582483976326664" lon="10.724472186662721"><ele>121.99999999999999</ele><time>2026-04-12T13:09:59Z</time></trkpt><trkpt lat="45.58244265189645" lon="10.724402396687703"><ele>122.0</ele><time>2026-04-12T13:10:00Z</time></trkpt><trkpt lat="45.58239737810428" lon="10.72432593687151"><ele>122.0</ele><time>2026-04-12T13:10:01Z</time></trkpt><trkpt lat="45.582323610505185" lon="10.724242498882433"><ele>122.0</ele><time>2026-04-12T13:10:02Z</time></trkpt><trkpt lat="45.58226710654255" lon="10.724122025895342"><ele>121.99999999999999</ele><time>2026-04-12T13:10:03Z</time></trkpt><trkpt lat="45.58219101784462" lon="10.72401600932762"><ele>122.0</ele><time>2026-04-12T13:10:04Z</time></trkpt><trkpt lat="45.58211701427869" lon="10.723918092315872"><ele>121.39999999999999</ele><time>2026-04-12T13:10:05Z</time></trkpt><trkpt lat="45.58203240556688" lon="10.723818918767332"><ele>120.79999999999998</ele><time>2026-04-12T13:10:06Z</time></trkpt><trkpt lat="45.58194419200245" lon="10.723720173494048"><ele>120.2</ele><time>2026-04-12T13:10:07Z</time></trkpt><trkpt lat="45.581858663950854" lon="10.72362872823034"><ele>119.6</ele><time>2026-04-12T13:10:08Z</time></trkpt><trkpt lat="45.58176791806343" lon="10.723533183094624"><ele>119.0</ele><time>2026-04-12T13:10:09Z</time></trkpt><trkpt lat="45.58167276626619" lon="10.723436477211473"><ele>118.25</ele><time>2026-04-12T13:10:10Z</time></trkpt><trkpt lat="45.58157423003021" lon="10.723337040359631"><ele>117.5</ele><time>2026-04-12T13:10:11Z</time></trkpt><trkpt lat="45.58147579987888" lon="10.723237530633662"><ele>116.75</ele><time>2026-04-12T13:10:12Z</time></trkpt><trkpt lat="45.58137397906849" lon="10.723131138651125"><ele>116.0</ele><time>2026-04-12T13:10:13Z</time></trkpt><trkpt lat="45.58127247173239" lon="10.723025074191387"><ele>115.25</ele><time>2026-04-12T13:10:14Z</time></trkpt><trkpt lat="45.58117419313453" lon="10.722921242675607"><ele>114.5</ele><time>2026-04-12T13:10:15Z</time></trkpt><trkpt lat="45.58107935586598" lon="10.722819239347556"><ele>113.75</ele><time>2026-04-12T13:10:16Z</time></trkpt><trkpt lat="45.580982358392" lon="10.722712932530976"><ele>113.0</ele><time>2026-04-12T13:10:17Z</time></trkpt><trkpt lat="45.58089056365866" lon="10.722607538096511"><ele>112.60000000000001</ele><time>2026-04-12T13:10:18Z</time></trkpt><trkpt lat="45.58081061046822" lon="10.722511042022905"><ele>112.20000000000002</ele><time>2026-04-12T13:10:19Z</time></trkpt><trkpt lat="45.580751093521435" lon="10.722435649552198"><ele>111.8</ele><time>2026-04-12T13:10:20Z</time></trkpt><trkpt lat="45.580660382500994" lon="10.72231029513269"><ele>111.4</ele><time>2026-04-12T13:10:22Z</time></trkpt><trkpt lat="45.58060315010229" lon="10.722223678380944"><ele>111.0</ele><time>2026-04-12T13:10:23Z</time></trkpt><trkpt lat="45.58054755722161" lon="10.722137211657415"><ele>111.0</ele><time>2026-04-12T13:10:24Z</time></trkpt><trkpt lat="45.58049013439782" lon="10.722043141222496"><ele>111.0</ele><time>2026-04-12T13:10:25Z</time></trkpt><trkpt lat="45.58042845616711" lon="10.721940892045916"><ele>111.0</ele><time>2026-04-12T13:10:26Z</time></trkpt><trkpt lat="45.58037296042011" lon="10.721829894056734"><ele>111.0</ele><time>2026-04-12T13:10:27Z</time></trkpt><trkpt lat="45.58031424108444" lon="10.721717656439207"><ele>111.0</ele><time>2026-04-12T13:10:28Z</time></trkpt><trkpt lat="45.58025780760108" lon="10.721602376376547"><ele>110.0</ele><time>2026-04-12T13:10:29Z</time></trkpt><trkpt lat="45.58020140183998" lon="10.721481249348486"><ele>109.0</ele><time>2026-04-12T13:10:30Z</time></trkpt><trkpt lat="45.58014159482371" lon="10.721352719094073"><ele>108.0</ele><time>2026-04-12T13:10:31Z</time></trkpt><trkpt lat="45.580085481713496" lon="10.721221151697499"><ele>107.0</ele><time>2026-04-12T13:10:32Z</time></trkpt><trkpt lat="45.58003020673365" lon="10.721082341663177"><ele>106.0</ele><time>2026-04-12T13:10:33Z</time></trkpt><trkpt lat="45.579977786458194" lon="10.720941111953058"><ele>105.8</ele><time>2026-04-12T13:10:34Z</time></trkpt><trkpt lat="45.579927576758855" lon="10.7208049834665"><ele>105.6</ele><time>2026-04-12T13:10:35Z</time></trkpt><trkpt lat="45.57987766774757" lon="10.720669680975476"><ele>105.4</ele><time>2026-04-12T13:10:36Z</time></trkpt><trkpt lat="45.57983262298331" lon="10.720541143659963"><ele>105.2</ele><time>2026-04-12T13:10:37Z</time></trkpt><trkpt lat="45.57979080126464" lon="10.720415885997772"><ele>105.0</ele><time>2026-04-12T13:10:38Z</time></trkpt><trkpt lat="45.57975797023809" lon="10.720310978448962"><ele>104.42857142857143</ele><time>2026-04-12T13:10:39Z</time></trkpt><trkpt lat="45.57973294311038" lon="10.720225708422811"><ele>103.85714285714286</ele><time>2026-04-12T13:10:40Z</time></trkpt><trkpt lat="45.579703921176005" lon="10.72010990720049"><ele>103.28571428571428</ele><time>2026-04-12T13:10:43Z</time></trkpt><trkpt lat="45.57967685459345" lon="10.71999847663595"><ele>102.71428571428572</ele><time>2026-04-12T13:10:47Z</time></trkpt><trkpt lat="45.57964722190513" lon="10.719908622726846"><ele>102.14285714285714</ele><time>2026-04-12T13:10:50Z</time></trkpt><trkpt lat="45.57963202540259" lon="10.71981941040559"><ele>101.57142857142857</ele><time>2026-04-12T13:10:52Z</time></trkpt><trkpt lat="45.579617975569" lon="10.719720774319663"><ele>101.0</ele><time>2026-04-12T13:10:55Z</time></trkpt><trkpt lat="45.5796060590556" lon="10.719608103477244"><ele>101.0</ele><time>2026-04-12T13:10:58Z</time></trkpt><trkpt lat="45.57962467820928" lon="10.719489905097559"><ele>101.0</ele><time>2026-04-12T13:11:06Z</time></trkpt><trkpt lat="45.57956259144431" lon="10.71941004890351"><ele>101.0</ele><time>2026-04-12T13:11:08Z</time></trkpt><trkpt lat="45.579486031408166" lon="10.71932782207442"><ele>101.0</ele><time>2026-04-12T13:11:10Z</time></trkpt><trkpt lat="45.57942073298881" lon="10.719239928319894"><ele>101.0</ele><time>2026-04-12T13:11:12Z</time></trkpt><trkpt lat="45.57938498808381" lon="10.719107939464958"><ele>100.28571428571428</ele><time>2026-04-12T13:11:14Z</time></trkpt><trkpt lat="45.579389409216475" lon="10.71901115293143"><ele>99.57142857142857</ele><time>2026-04-12T13:11:15Z</time></trkpt><trkpt lat="45.579364300705755" lon="10.71892225107976"><ele>98.85714285714286</ele><time>2026-04-12T13:11:16Z</time></trkpt><trkpt lat="45.579339225031546" lon="10.718833465421705"><ele>98.14285714285714</ele><time>2026-04-12T13:11:17Z</time></trkpt><trkpt lat="45.57931442020475" lon="10.718745638812642"><ele>97.42857142857143</ele><time>2026-04-12T13:11:18Z</time></trkpt><trkpt lat="45.579289086870936" lon="10.718655940891557"><ele>96.71428571428571</ele><time>2026-04-12T13:11:19Z</time></trkpt><trkpt lat="45.57925813078649" lon="10.71854633442848"><ele>96.0</ele><time>2026-04-12T13:11:20Z</time></trkpt><trkpt lat="45.57922235553862" lon="10.718419664754984"><ele>96.0</ele><time>2026-04-12T13:11:21Z</time></trkpt><trkpt lat="45.579182797213164" lon="10.718279600298638"><ele>96.0</ele><time>2026-04-12T13:11:22Z</time></trkpt><trkpt lat="45.57914170124104" lon="10.718135369807792"><ele>96.0</ele><time>2026-04-12T13:11:23Z</time></trkpt><trkpt lat="45.57909831468448" lon="10.717983343004992"><ele>96.0</ele><time>2026-04-12T13:11:24Z</time></trkpt><trkpt lat="45.57905294289804" lon="10.717824359972106"><ele>95.0</ele><time>2026-04-12T13:11:25Z</time></trkpt><trkpt lat="45.57900659977816" lon="10.717659004142671"><ele>94.0</ele><time>2026-04-12T13:11:26Z</time></trkpt><trkpt lat="45.57895907134301" lon="10.717487133588783"><ele>93.0</ele><time>2026-04-12T13:11:27Z</time></trkpt><trkpt lat="45.57891058226533" lon="10.717311946131032"><ele>92.0</ele><time>2026-04-12T13:11:28Z</time></trkpt><trkpt lat="45.57885879335874" lon="10.717128626830895"><ele>92.0</ele><time>2026-04-12T13:11:29Z</time></trkpt><trkpt lat="45.57880865619715" lon="10.716951154307711"><ele>92.0</ele><time>2026-04-12T13:11:30Z</time></trkpt><trkpt lat="45.57875815507601" lon="10.71677239345412"><ele>92.0</ele><time>2026-04-12T13:11:31Z</time></trkpt><trkpt lat="45.57870922909981" lon="10.716595247739164"><ele>92.0</ele><time>2026-04-12T13:11:32Z</time></trkpt><trkpt lat="45.578661270299904" lon="10.716418926479061"><ele>90.75</ele><time>2026-04-12T13:11:33Z</time></trkpt><trkpt lat="45.57861890066752" lon="10.716234548838028"><ele>89.5</ele><time>2026-04-12T13:11:34Z</time></trkpt><trkpt lat="45.578577272195645" lon="10.71604732813061"><ele>88.25</ele><time>2026-04-12T13:11:35Z</time></trkpt><trkpt lat="45.57854184638611" lon="10.715867677847458"><ele>87.0</ele><time>2026-04-12T13:11:36Z</time></trkpt><trkpt lat="45.57851021235316" lon="10.715691077128021"><ele>87.0</ele><time>2026-04-12T13:11:37Z</time></trkpt><trkpt lat="45.578480189004466" lon="10.7155238415299"><ele>87.0</ele><time>2026-04-12T13:11:38Z</time></trkpt><trkpt lat="45.57845044931471" lon="10.715358185984343"><ele>87.0</ele><time>2026-04-12T13:11:39Z</time></trkpt><trkpt lat="45.57842235440306" lon="10.715201692829092"><ele>87.0</ele><time>2026-04-12T13:11:40Z</time></trkpt><trkpt lat="45.57839699773639" lon="10.715051780271335"><ele>86.8</ele><time>2026-04-12T13:11:41Z</time></trkpt><trkpt lat="45.57837173839784" lon="10.714908033609348"><ele>86.6</ele><time>2026-04-12T13:11:42Z</time></trkpt><trkpt lat="45.57834681771237" lon="10.714766214767296"><ele>86.39999999999999</ele><time>2026-04-12T13:11:43Z</time></trkpt><trkpt lat="45.57832086122788" lon="10.714616307703881"><ele>86.19999999999999</ele><time>2026-04-12T13:11:44Z</time></trkpt><trkpt lat="45.57829267842846" lon="10.714455180593784"><ele>86.0</ele><time>2026-04-12T13:11:45Z</time></trkpt><trkpt lat="45.578247966669934" lon="10.714300222743304"><ele>85.25</ele><time>2026-04-12T13:11:46Z</time></trkpt><trkpt lat="45.57821635856246" lon="10.714133988420091"><ele>84.5</ele><time>2026-04-12T13:11:47Z</time></trkpt><trkpt lat="45.57819187737055" lon="10.713955378559287"><ele>83.75</ele><time>2026-04-12T13:11:48Z</time></trkpt><trkpt lat="45.57814675394112" lon="10.713788811388865"><ele>83.0</ele><time>2026-04-12T13:11:49Z</time></trkpt><trkpt lat="45.57807455753254" lon="10.713643867851347"><ele>82.5</ele><time>2026-04-12T13:11:50Z</time></trkpt><trkpt lat="45.57802698010899" lon="10.71348902741115"><ele>82.0</ele><time>2026-04-12T13:11:51Z</time></trkpt><trkpt lat="45.57796649323096" lon="10.713352861932862"><ele>81.5</ele><time>2026-04-12T13:11:52Z</time></trkpt><trkpt lat="45.577900692114646" lon="10.713214713164898"><ele>81.0</ele><time>2026-04-12T13:11:53Z</time></trkpt><trkpt lat="45.577835956031116" lon="10.713078733649898"><ele>81.0</ele><time>2026-04-12T13:11:54Z</time></trkpt><trkpt lat="45.57778248219822" lon="10.712966406736225"><ele>81.0</ele><time>2026-04-12T13:11:55Z</time></trkpt><trkpt lat="45.5777397790307" lon="10.712876704739534"><ele>81.0</ele><time>2026-04-12T13:11:56Z</time></trkpt><trkpt lat="45.57767443822087" lon="10.712739450341061"><ele>81.0</ele><time>2026-04-12T13:11:58Z</time></trkpt><trkpt lat="45.577631758298175" lon="10.712649329328178"><ele>81.0</ele><time>2026-04-12T13:12:00Z</time></trkpt><trkpt lat="45.57758872878776" lon="10.712558564422986"><ele>81.0</ele><time>2026-04-12T13:12:04Z</time></trkpt><trkpt lat="45.57753274145356" lon="10.712440466963482"><ele>80.5</ele><time>2026-04-12T13:12:06Z</time></trkpt><trkpt lat="45.57746944544892" lon="10.712306392395755"><ele>80.0</ele><time>2026-04-12T13:12:08Z</time></trkpt><trkpt lat="45.57743206154755" lon="10.712227259751817"><ele>79.5</ele><time>2026-04-12T13:12:09Z</time></trkpt><trkpt lat="45.57739170011826" lon="10.712141824437866"><ele>79.0</ele><time>2026-04-12T13:12:10Z</time></trkpt><trkpt lat="45.577348588909004" lon="10.712050615154277"><ele>78.5</ele><time>2026-04-12T13:12:11Z</time></trkpt><trkpt lat="45.577299355192935" lon="10.711946597047529"><ele>78.0</ele><time>2026-04-12T13:12:12Z</time></trkpt><trkpt lat="45.57724906173749" lon="10.711840339973953"><ele>77.83333333333333</ele><time>2026-04-12T13:12:13Z</time></trkpt><trkpt lat="45.577198628912754" lon="10.711733788926825"><ele>77.66666666666667</ele><time>2026-04-12T13:12:14.001Z</time></trkpt><trkpt lat="45.577147011761355" lon="10.711624776530487"><ele>77.5</ele><time>2026-04-12T13:12:15.001Z</time></trkpt><trkpt lat="45.57710224796571" lon="10.71152859186068"><ele>77.33333333333334</ele><time>2026-04-12T13:12:16.001Z</time></trkpt><trkpt lat="45.577063737946986" lon="10.711447127530567"><ele>77.16666666666667</ele><time>2026-04-12T13:12:17.001Z</time></trkpt><trkpt lat="45.57702642069874" lon="10.711369138941212"><ele>77.0</ele><time>2026-04-12T13:12:18.001Z</time></trkpt><trkpt lat="45.57698662068039" lon="10.711285961671074"><ele>76.6</ele><time>2026-04-12T13:12:19.001Z</time></trkpt><trkpt lat="45.57694525488982" lon="10.711199512131763"><ele>76.2</ele><time>2026-04-12T13:12:20Z</time></trkpt><trkpt lat="45.57689527733059" lon="10.711095059659886"><ele>75.8</ele><time>2026-04-12T13:12:21Z</time></trkpt><trkpt lat="45.57683890154689" lon="10.7109827314569"><ele>75.4</ele><time>2026-04-12T13:12:22Z</time></trkpt><trkpt lat="45.576774542541244" lon="10.710864928484545"><ele>75.0</ele><time>2026-04-12T13:12:23Z</time></trkpt><trkpt lat="45.57670957448678" lon="10.710751058743908"><ele>75.0</ele><time>2026-04-12T13:12:24Z</time></trkpt><trkpt lat="45.57664225225192" lon="10.710633055837594"><ele>75.0</ele><time>2026-04-12T13:12:25Z</time></trkpt><trkpt lat="45.576567714816335" lon="10.710524266040908"><ele>75.0</ele><time>2026-04-12T13:12:26Z</time></trkpt><trkpt lat="45.57649096416656" lon="10.710414808087195"><ele>75.0</ele><time>2026-04-12T13:12:27Z</time></trkpt><trkpt lat="45.57641646349479" lon="10.71030509990342"><ele>75.0</ele><time>2026-04-12T13:12:28Z</time></trkpt><trkpt lat="45.57634473111427" lon="10.7101980250084"><ele>74.8</ele><time>2026-04-12T13:12:29Z</time></trkpt><trkpt lat="45.57627453388055" lon="10.710092777067638"><ele>74.6</ele><time>2026-04-12T13:12:30Z</time></trkpt><trkpt lat="45.57620650592149" lon="10.709981191433334"><ele>74.4</ele><time>2026-04-12T13:12:31Z</time></trkpt><trkpt lat="45.576141081566256" lon="10.709870876226187"><ele>74.2</ele><time>2026-04-12T13:12:32Z</time></trkpt><trkpt lat="45.576077258417236" lon="10.709760576780868"><ele>74.0</ele><time>2026-04-12T13:12:33Z</time></trkpt><trkpt lat="45.57601736149196" lon="10.709648977176931"><ele>73.4</ele><time>2026-04-12T13:12:34Z</time></trkpt><trkpt lat="45.57596406720102" lon="10.709536634695436"><ele>72.80000000000001</ele><time>2026-04-12T13:12:35Z</time></trkpt><trkpt lat="45.57591613812402" lon="10.709427008030309"><ele>72.19999999999999</ele><time>2026-04-12T13:12:36Z</time></trkpt><trkpt lat="45.57587001675778" lon="10.709313797928953"><ele>71.6</ele><time>2026-04-12T13:12:37Z</time></trkpt><trkpt lat="45.575826577793364" lon="10.709202774558468"><ele>71.0</ele><time>2026-04-12T13:12:38Z</time></trkpt><trkpt lat="45.57578550987677" lon="10.709097811488851"><ele>71.0</ele><time>2026-04-12T13:12:39Z</time></trkpt><trkpt lat="45.57575094975663" lon="10.709004958871523"><ele>71.0</ele><time>2026-04-12T13:12:40Z</time></trkpt><trkpt lat="45.57571827431049" lon="10.708921322200409"><ele>71.0</ele><time>2026-04-12T13:12:41Z</time></trkpt><trkpt lat="45.57567353003213" lon="10.708811022443982"><ele>71.0</ele><time>2026-04-12T13:12:43Z</time></trkpt><trkpt lat="45.575637985627274" lon="10.708729158962806"><ele>71.0</ele><time>2026-04-12T13:12:49Z</time></trkpt><trkpt lat="45.57558463789821" lon="10.70866440567554"><ele>71.0</ele><time>2026-04-12T13:12:51Z</time></trkpt><trkpt lat="45.575464390314046" lon="10.708728373882186"><ele>71.0</ele><time>2026-04-12T13:12:54Z</time></trkpt><trkpt lat="45.5754097367452" lon="10.708823575589502"><ele>71.0</ele><time>2026-04-12T13:12:57Z</time></trkpt><trkpt lat="45.57532590474391" lon="10.708963182640076"><ele>71.0</ele><time>2026-04-12T13:12:59Z</time></trkpt><trkpt lat="45.57526686895744" lon="10.709059853667082"><ele>71.0</ele><time>2026-04-12T13:13:00Z</time></trkpt><trkpt lat="45.57521027670965" lon="10.70915448325033"><ele>71.0</ele><time>2026-04-12T13:13:01Z</time></trkpt><trkpt lat="45.575154614562905" lon="10.70923221572682"><ele>70.5</ele><time>2026-04-12T13:13:02Z</time></trkpt><trkpt lat="45.575096403612896" lon="10.70930578936476"><ele>70.0</ele><time>2026-04-12T13:13:03Z</time></trkpt><trkpt lat="45.575040938371835" lon="10.709368285636641"><ele>69.5</ele><time>2026-04-12T13:13:04Z</time></trkpt><trkpt lat="45.57495230822421" lon="10.709457604667799"><ele>69.0</ele><time>2026-04-12T13:13:06Z</time></trkpt><trkpt lat="45.57487369347227" lon="10.709524495825152"><ele>68.5</ele><time>2026-04-12T13:13:09Z</time></trkpt><trkpt lat="45.57479924771377" lon="10.709571133255789"><ele>68.0</ele><time>2026-04-12T13:13:13Z</time></trkpt><trkpt lat="45.57472143402473" lon="10.709616708090365"><ele>68.0</ele><time>2026-04-12T13:13:17Z</time></trkpt><trkpt lat="45.57464807993901" lon="10.709669732950289"><ele>68.0</ele><time>2026-04-12T13:13:19Z</time></trkpt><trkpt lat="45.574565375383955" lon="10.70969905250393"><ele>68.0</ele><time>2026-04-12T13:13:21Z</time></trkpt><trkpt lat="45.57445093772237" lon="10.709691595490145"><ele>68.0</ele><time>2026-04-12T13:13:23Z</time></trkpt><trkpt lat="45.57432518964349" lon="10.709704535420553"><ele>68.0</ele><time>2026-04-12T13:13:25Z</time></trkpt><trkpt lat="45.57426096495077" lon="10.709712258566134"><ele>68.16666666666667</ele><time>2026-04-12T13:13:26Z</time></trkpt><trkpt lat="45.5741969715263" lon="10.709719956157814"><ele>68.33333333333334</ele><time>2026-04-12T13:13:27Z</time></trkpt><trkpt lat="45.57413176786268" lon="10.709728638662474"><ele>68.5</ele><time>2026-04-12T13:13:28Z</time></trkpt><trkpt lat="45.57401658703478" lon="10.709749818005381"><ele>68.66666666666667</ele><time>2026-04-12T13:13:30Z</time></trkpt><trkpt lat="45.5738988635313" lon="10.709779291893614"><ele>68.83333333333333</ele><time>2026-04-12T13:13:32Z</time></trkpt><trkpt lat="45.573827562107276" lon="10.709802950926433"><ele>69.0</ele><time>2026-04-12T13:13:33Z</time></trkpt><trkpt lat="45.57375865951958" lon="10.709837770223057"><ele>69.0</ele><time>2026-04-12T13:13:34Z</time></trkpt><trkpt lat="45.57369002610873" lon="10.70987507459513"><ele>69.0</ele><time>2026-04-12T13:13:35Z</time></trkpt><trkpt lat="45.57362195746439" lon="10.709916589525935"><ele>69.0</ele><time>2026-04-12T13:13:36Z</time></trkpt><trkpt lat="45.5735570461487" lon="10.70996418055036"><ele>69.0</ele><time>2026-04-12T13:13:37Z</time></trkpt><trkpt lat="45.573494846699056" lon="10.71001582043779"><ele>69.0</ele><time>2026-04-12T13:13:38Z</time></trkpt><trkpt lat="45.57343511364553" lon="10.710075146682511"><ele>69.0</ele><time>2026-04-12T13:13:39Z</time></trkpt><trkpt lat="45.57337716122507" lon="10.71013713831896"><ele>69.0</ele><time>2026-04-12T13:13:40Z</time></trkpt><trkpt lat="45.57332049838928" lon="10.710199700621558"><ele>69.5</ele><time>2026-04-12T13:13:41Z</time></trkpt><trkpt lat="45.57326600300255" lon="10.710253091620942"><ele>70.0</ele><time>2026-04-12T13:13:42Z</time></trkpt><trkpt lat="45.57321057115038" lon="10.710302704831124"><ele>70.5</ele><time>2026-04-12T13:13:43Z</time></trkpt><trkpt lat="45.573074886469534" lon="10.710363973863997"><ele>71.0</ele><time>2026-04-12T13:13:45Z</time></trkpt><trkpt lat="45.5730079066171" lon="10.710366086161773"><ele>71.5</ele><time>2026-04-12T13:13:46Z</time></trkpt><trkpt lat="45.57293034522818" lon="10.710369386745514"><ele>72.0</ele><time>2026-04-12T13:13:47Z</time></trkpt><trkpt lat="45.572850299639526" lon="10.710369298195989"><ele>72.4</ele><time>2026-04-12T13:13:48Z</time></trkpt><trkpt lat="45.57276261039228" lon="10.710367803127252"><ele>72.80000000000001</ele><time>2026-04-12T13:13:49Z</time></trkpt><trkpt lat="45.572671685079975" lon="10.710364100030711"><ele>73.2</ele><time>2026-04-12T13:13:50Z</time></trkpt><trkpt lat="45.57257951294329" lon="10.710357532239767"><ele>73.60000000000001</ele><time>2026-04-12T13:13:51Z</time></trkpt><trkpt lat="45.57248779785742" lon="10.710343472008008"><ele>74.0</ele><time>2026-04-12T13:13:52Z</time></trkpt><trkpt lat="45.57239787284691" lon="10.710316630116656"><ele>74.0</ele><time>2026-04-12T13:13:53Z</time></trkpt><trkpt lat="45.57230836241599" lon="10.710260976802465"><ele>74.0</ele><time>2026-04-12T13:13:54Z</time></trkpt><trkpt lat="45.57222382889349" lon="10.710192932445716"><ele>74.0</ele><time>2026-04-12T13:13:55Z</time></trkpt><trkpt lat="45.57214136463492" lon="10.710122140945531"><ele>74.0</ele><time>2026-04-12T13:13:56Z</time></trkpt><trkpt lat="45.572056705327" lon="10.710047333518931"><ele>74.0</ele><time>2026-04-12T13:13:57Z</time></trkpt><trkpt lat="45.57197419709687" lon="10.709974426690621"><ele>75.0</ele><time>2026-04-12T13:13:58Z</time></trkpt><trkpt lat="45.57188801876681" lon="10.7098983825807"><ele>76.0</ele><time>2026-04-12T13:13:59Z</time></trkpt><trkpt lat="45.571804113395764" lon="10.709824931347228"><ele>77.0</ele><time>2026-04-12T13:14:00Z</time></trkpt><trkpt lat="45.571721037989434" lon="10.709753635296513"><ele>78.0</ele><time>2026-04-12T13:14:01Z</time></trkpt><trkpt lat="45.57163067229797" lon="10.709687233182917"><ele>79.0</ele><time>2026-04-12T13:14:02Z</time></trkpt><trkpt lat="45.571531909545534" lon="10.709625717748809"><ele>79.0</ele><time>2026-04-12T13:14:03Z</time></trkpt><trkpt lat="45.5714280788095" lon="10.709569026082857"><ele>79.0</ele><time>2026-04-12T13:14:04Z</time></trkpt><trkpt lat="45.571319718519256" lon="10.709512680380438"><ele>79.0</ele><time>2026-04-12T13:14:05.001Z</time></trkpt><trkpt lat="45.5712102517204" lon="10.709456780668742"><ele>79.0</ele><time>2026-04-12T13:14:06.001Z</time></trkpt><trkpt lat="45.57110074571391" lon="10.70940139874029"><ele>76.75</ele><time>2026-04-12T13:14:07.001Z</time></trkpt><trkpt lat="45.57098971959435" lon="10.709345284456399"><ele>74.5</ele><time>2026-04-12T13:14:08.001Z</time></trkpt><trkpt lat="45.570879281682295" lon="10.709289467463828"><ele>72.25</ele><time>2026-04-12T13:14:09.001Z</time></trkpt><trkpt lat="45.5707640259999" lon="10.709231215494015"><ele>70.0</ele><time>2026-04-12T13:14:10.001Z</time></trkpt><trkpt lat="45.57064479136862" lon="10.709172717614257"><ele>70.0</ele><time>2026-04-12T13:14:11.001Z</time></trkpt><trkpt lat="45.570516516246535" lon="10.709115243745632"><ele>70.0</ele><time>2026-04-12T13:14:12.001Z</time></trkpt><trkpt lat="45.57039137238609" lon="10.709063432676027"><ele>70.0</ele><time>2026-04-12T13:14:13.001Z</time></trkpt><trkpt lat="45.570267140518446" lon="10.70901552258894"><ele>70.0</ele><time>2026-04-12T13:14:14.001Z</time></trkpt><trkpt lat="45.57014339093383" lon="10.708971156502825"><ele>76.0</ele><time>2026-04-12T13:14:15.001Z</time></trkpt><trkpt lat="45.57001970144119" lon="10.708929137890447"><ele>82.0</ele><time>2026-04-12T13:14:16.001Z</time></trkpt><trkpt lat="45.569892543643746" lon="10.708887096350026"><ele>88.0</ele><time>2026-04-12T13:14:17.001Z</time></trkpt><trkpt lat="45.56976615557139" lon="10.708845558814334"><ele>94.0</ele><time>2026-04-12T13:14:18.001Z</time></trkpt><trkpt lat="45.56963778573674" lon="10.708804826557108"><ele>97.0</ele><time>2026-04-12T13:14:19.001Z</time></trkpt><trkpt lat="45.56951145925386" lon="10.708768706790055"><ele>100.0</ele><time>2026-04-12T13:14:20.001Z</time></trkpt><trkpt lat="45.56937982396321" lon="10.708738213866347"><ele>103.0</ele><time>2026-04-12T13:14:21.001Z</time></trkpt><trkpt lat="45.56925008410529" lon="10.70871674686809"><ele>106.0</ele><time>2026-04-12T13:14:22.001Z</time></trkpt><trkpt lat="45.56911400929128" lon="10.70870561686185"><ele>106.0</ele><time>2026-04-12T13:14:23.001Z</time></trkpt><trkpt lat="45.568982859273305" lon="10.70870402199622"><ele>106.0</ele><time>2026-04-12T13:14:24.001Z</time></trkpt><trkpt lat="45.5688495568682" lon="10.708713395327536"><ele>106.0</ele><time>2026-04-12T13:14:25.001Z</time></trkpt><trkpt lat="45.568718160231434" lon="10.708737357362592"><ele>106.0</ele><time>2026-04-12T13:14:26Z</time></trkpt><trkpt lat="45.56858805375265" lon="10.708781018510695"><ele>102.75</ele><time>2026-04-12T13:14:27Z</time></trkpt><trkpt lat="45.5684588771411" lon="10.708837457479872"><ele>99.5</ele><time>2026-04-12T13:14:28Z</time></trkpt><trkpt lat="45.56833279854253" lon="10.708893528543243"><ele>96.25</ele><time>2026-04-12T13:14:29Z</time></trkpt><trkpt lat="45.5682037268172" lon="10.708951625766211"><ele>93.0</ele><time>2026-04-12T13:14:30Z</time></trkpt><trkpt lat="45.56807131509468" lon="10.709011540801853"><ele>93.0</ele><time>2026-04-12T13:14:31Z</time></trkpt><trkpt lat="45.567938919020705" lon="10.709075253621178"><ele>93.0</ele><time>2026-04-12T13:14:32Z</time></trkpt><trkpt lat="45.56780157945613" lon="10.709143042167103"><ele>93.0</ele><time>2026-04-12T13:14:33Z</time></trkpt><trkpt lat="45.56766739833892" lon="10.709217329548727"><ele>93.0</ele><time>2026-04-12T13:14:34Z</time></trkpt><trkpt lat="45.56753210021905" lon="10.709309512927465"><ele>95.25</ele><time>2026-04-12T13:14:35Z</time></trkpt><trkpt lat="45.56740451879176" lon="10.709405238906461"><ele>97.5</ele><time>2026-04-12T13:14:36Z</time></trkpt><trkpt lat="45.567277202701916" lon="10.709502633418019"><ele>99.75</ele><time>2026-04-12T13:14:37Z</time></trkpt><trkpt lat="45.56715300809701" lon="10.709597976022906"><ele>102.0</ele><time>2026-04-12T13:14:38Z</time></trkpt><trkpt lat="45.5670351811416" lon="10.70968977778641"><ele>96.0</ele><time>2026-04-12T13:14:39Z</time></trkpt><trkpt lat="45.566912425107084" lon="10.7097854199141"><ele>90.0</ele><time>2026-04-12T13:14:40Z</time></trkpt><trkpt lat="45.566802434329794" lon="10.709873122525092"><ele>84.0</ele><time>2026-04-12T13:14:41Z</time></trkpt><trkpt lat="45.56669006653842" lon="10.709963592410615"><ele>78.0</ele><time>2026-04-12T13:14:42Z</time></trkpt><trkpt lat="45.566578129546635" lon="10.710056496806743"><ele>78.0</ele><time>2026-04-12T13:14:43Z</time></trkpt><trkpt lat="45.56647028790578" lon="10.710153255948692"><ele>78.0</ele><time>2026-04-12T13:14:44Z</time></trkpt><trkpt lat="45.56636263376584" lon="10.710256860228442"><ele>78.0</ele><time>2026-04-12T13:14:45Z</time></trkpt><trkpt lat="45.56625745807459" lon="10.710356898968088"><ele>78.0</ele><time>2026-04-12T13:14:46Z</time></trkpt><trkpt lat="45.566156954988074" lon="10.710472897303664"><ele>78.0</ele><time>2026-04-12T13:14:47Z</time></trkpt><trkpt lat="45.5660601744371" lon="10.710589510768413"><ele>78.0</ele><time>2026-04-12T13:14:48Z</time></trkpt><trkpt lat="45.565963166052356" lon="10.710715131723992"><ele>78.0</ele><time>2026-04-12T13:14:49Z</time></trkpt><trkpt lat="45.56587232962605" lon="10.710841224380326"><ele>78.0</ele><time>2026-04-12T13:14:50Z</time></trkpt><trkpt lat="45.56578247672314" lon="10.710974709061952"><ele>79.5</ele><time>2026-04-12T13:14:51Z</time></trkpt><trkpt lat="45.56569531823564" lon="10.711113692331242"><ele>81.0</ele><time>2026-04-12T13:14:52Z</time></trkpt><trkpt lat="45.56560636984414" lon="10.711261984019693"><ele>82.5</ele><time>2026-04-12T13:14:53Z</time></trkpt><trkpt lat="45.56551439298315" lon="10.711420335971898"><ele>84.0</ele><time>2026-04-12T13:14:54Z</time></trkpt><trkpt lat="45.565426517758965" lon="10.711572930697196"><ele>83.0</ele><time>2026-04-12T13:14:55Z</time></trkpt><trkpt lat="45.56534173361613" lon="10.71172021068805"><ele>82.0</ele><time>2026-04-12T13:14:56Z</time></trkpt><trkpt lat="45.56525472630628" lon="10.711871420715017"><ele>81.0</ele><time>2026-04-12T13:14:57Z</time></trkpt><trkpt lat="45.565174163946516" lon="10.712011430061017"><ele>80.0</ele><time>2026-04-12T13:14:58Z</time></trkpt><trkpt lat="45.565090878527876" lon="10.712156785479333"><ele>80.0</ele><time>2026-04-12T13:14:59Z</time></trkpt><trkpt lat="45.56500963843968" lon="10.712300490586145"><ele>80.0</ele><time>2026-04-12T13:15:00Z</time></trkpt><trkpt lat="45.56492730771431" lon="10.712446124903446"><ele>80.0</ele><time>2026-04-12T13:15:01Z</time></trkpt><trkpt lat="45.564843813591764" lon="10.712593817175266"><ele>80.0</ele><time>2026-04-12T13:15:02Z</time></trkpt><trkpt lat="45.564758161680224" lon="10.712744936766226"><ele>78.75</ele><time>2026-04-12T13:15:03Z</time></trkpt><trkpt lat="45.56467316130964" lon="10.712891924516596"><ele>77.5</ele><time>2026-04-12T13:15:04Z</time></trkpt><trkpt lat="45.564585134606084" lon="10.713044145613766"><ele>76.25</ele><time>2026-04-12T13:15:05Z</time></trkpt><trkpt lat="45.56449964630024" lon="10.713186250903433"><ele>75.0</ele><time>2026-04-12T13:15:06Z</time></trkpt><trkpt lat="45.564406194709925" lon="10.713329692526857"><ele>75.0</ele><time>2026-04-12T13:15:07Z</time></trkpt><trkpt lat="45.56430520638623" lon="10.713470824189145"><ele>75.0</ele><time>2026-04-12T13:15:08Z</time></trkpt><trkpt lat="45.56420041017051" lon="10.713601248535301"><ele>75.0</ele><time>2026-04-12T13:15:09Z</time></trkpt><trkpt lat="45.564110810707895" lon="10.713764380756585"><ele>75.0</ele><time>2026-04-12T13:15:10Z</time></trkpt><trkpt lat="45.56399472600814" lon="10.713885860104284"><ele>74.33333333333333</ele><time>2026-04-12T13:15:11Z</time></trkpt><trkpt lat="45.563872159399935" lon="10.71400905899079"><ele>73.66666666666666</ele><time>2026-04-12T13:15:12Z</time></trkpt><trkpt lat="45.56374402033499" lon="10.714122501804152"><ele>73.0</ele><time>2026-04-12T13:15:13Z</time></trkpt><trkpt lat="45.56361404310154" lon="10.714229162570565"><ele>73.0</ele><time>2026-04-12T13:15:14Z</time></trkpt><trkpt lat="45.563476772944774" lon="10.714328000131891"><ele>73.0</ele><time>2026-04-12T13:15:15Z</time></trkpt><trkpt lat="45.563340948335735" lon="10.714414706231778"><ele>73.0</ele><time>2026-04-12T13:15:16Z</time></trkpt><trkpt lat="45.56320197385652" lon="10.71449177014542"><ele>73.75</ele><time>2026-04-12T13:15:17Z</time></trkpt><trkpt lat="45.56305717833798" lon="10.714531342566548"><ele>74.5</ele><time>2026-04-12T13:15:18Z</time></trkpt><trkpt lat="45.56291523243595" lon="10.714599230300218"><ele>75.25</ele><time>2026-04-12T13:15:19Z</time></trkpt><trkpt lat="45.562769563408" lon="10.71466284953758"><ele>76.0</ele><time>2026-04-12T13:15:20Z</time></trkpt><trkpt lat="45.56262342189365" lon="10.714725146350917"><ele>76.0</ele><time>2026-04-12T13:15:21Z</time></trkpt><trkpt lat="45.56247647282499" lon="10.714790398633774"><ele>76.0</ele><time>2026-04-12T13:15:22Z</time></trkpt><trkpt lat="45.562337204925996" lon="10.714876095069199"><ele>76.0</ele><time>2026-04-12T13:15:23Z</time></trkpt><trkpt lat="45.56218579559217" lon="10.714920436908518"><ele>76.0</ele><time>2026-04-12T13:15:24Z</time></trkpt><trkpt lat="45.56204055437986" lon="10.714985096506473"><ele>76.0</ele><time>2026-04-12T13:15:25Z</time></trkpt><trkpt lat="45.561893887323144" lon="10.715049030204197"><ele>76.0</ele><time>2026-04-12T13:15:26Z</time></trkpt><trkpt lat="45.56174547894377" lon="10.71511330283035"><ele>76.33333333333333</ele><time>2026-04-12T13:15:27Z</time></trkpt><trkpt lat="45.56159528333023" lon="10.715183114707049"><ele>76.66666666666667</ele><time>2026-04-12T13:15:28Z</time></trkpt><trkpt lat="45.561450524826036" lon="10.715251969175771"><ele>77.0</ele><time>2026-04-12T13:15:29Z</time></trkpt><trkpt lat="45.56130372321469" lon="10.715323036795075"><ele>76.66666666666667</ele><time>2026-04-12T13:15:30Z</time></trkpt><trkpt lat="45.56115467253603" lon="10.715399968832644"><ele>76.33333333333333</ele><time>2026-04-12T13:15:31Z</time></trkpt><trkpt lat="45.56101023248307" lon="10.715479116394395"><ele>76.0</ele><time>2026-04-12T13:15:32Z</time></trkpt><trkpt lat="45.56087346661024" lon="10.7155588402762"><ele>76.0</ele><time>2026-04-12T13:15:33Z</time></trkpt><trkpt lat="45.56073318568755" lon="10.715649455258777"><ele>76.0</ele><time>2026-04-12T13:15:34Z</time></trkpt><trkpt lat="45.56059502987494" lon="10.715743570132675"><ele>76.0</ele><time>2026-04-12T13:15:35Z</time></trkpt><trkpt lat="45.56045633311321" lon="10.715844671644168"><ele>74.66666666666666</ele><time>2026-04-12T13:15:36Z</time></trkpt><trkpt lat="45.56032399802743" lon="10.715954672066996"><ele>73.33333333333333</ele><time>2026-04-12T13:15:37Z</time></trkpt><trkpt lat="45.560205204747746" lon="10.716096683387523"><ele>72.0</ele><time>2026-04-12T13:15:38Z</time></trkpt><trkpt lat="45.56006707048969" lon="10.716197745287044"><ele>74.66666666666667</ele><time>2026-04-12T13:15:39Z</time></trkpt><trkpt lat="45.55993933666553" lon="10.716316794190057"><ele>77.33333333333334</ele><time>2026-04-12T13:15:40Z</time></trkpt><trkpt lat="45.55980624204051" lon="10.71644083941486"><ele>80.0</ele><time>2026-04-12T13:15:41Z</time></trkpt><trkpt lat="45.55967668870992" lon="10.716562631686665"><ele>80.0</ele><time>2026-04-12T13:15:42Z</time></trkpt><trkpt lat="45.55955661695321" lon="10.716699725310919"><ele>80.0</ele><time>2026-04-12T13:15:43Z</time></trkpt><trkpt lat="45.55942960608617" lon="10.71681398637782"><ele>80.0</ele><time>2026-04-12T13:15:44Z</time></trkpt><trkpt lat="45.55930599427258" lon="10.716931106968806"><ele>80.25</ele><time>2026-04-12T13:15:45Z</time></trkpt><trkpt lat="45.55918299282013" lon="10.717046495526079"><ele>80.5</ele><time>2026-04-12T13:15:46Z</time></trkpt><trkpt lat="45.55906200180485" lon="10.717164530192415"><ele>80.75</ele><time>2026-04-12T13:15:47Z</time></trkpt><trkpt lat="45.558941928532754" lon="10.717276232815074"><ele>81.0</ele><time>2026-04-12T13:15:48Z</time></trkpt><trkpt lat="45.55882100639443" lon="10.717385303598768"><ele>80.25</ele><time>2026-04-12T13:15:49Z</time></trkpt><trkpt lat="45.55869871475868" lon="10.717492755341262"><ele>79.5</ele><time>2026-04-12T13:15:50Z</time></trkpt><trkpt lat="45.55856926904856" lon="10.717592350403592"><ele>78.75</ele><time>2026-04-12T13:15:51Z</time></trkpt><trkpt lat="45.558442947503295" lon="10.717676773271025"><ele>78.0</ele><time>2026-04-12T13:15:52Z</time></trkpt><trkpt lat="45.55831308240553" lon="10.717752340975629"><ele>79.0</ele><time>2026-04-12T13:15:53Z</time></trkpt><trkpt lat="45.55818646660229" lon="10.717807771718991"><ele>80.0</ele><time>2026-04-12T13:15:54Z</time></trkpt><trkpt lat="45.55805523225111" lon="10.717866343570353"><ele>81.0</ele><time>2026-04-12T13:15:55Z</time></trkpt><trkpt lat="45.55792497057261" lon="10.717919152074595"><ele>82.0</ele><time>2026-04-12T13:15:56Z</time></trkpt><trkpt lat="45.557796505829685" lon="10.717968838921179"><ele>82.0</ele><time>2026-04-12T13:15:57Z</time></trkpt><trkpt lat="45.55766601997231" lon="10.718011475354706"><ele>82.0</ele><time>2026-04-12T13:15:58Z</time></trkpt><trkpt lat="45.55753654646586" lon="10.718090809219795"><ele>82.0</ele><time>2026-04-12T13:15:59Z</time></trkpt><trkpt lat="45.55741687326816" lon="10.718196438984295"><ele>82.0</ele><time>2026-04-12T13:16:00Z</time></trkpt><trkpt lat="45.55730303330289" lon="10.718283637857974"><ele>82.0</ele><time>2026-04-12T13:16:01.001Z</time></trkpt><trkpt lat="45.55718122011739" lon="10.718348220890556"><ele>82.0</ele><time>2026-04-12T13:16:02.001Z</time></trkpt><trkpt lat="45.5570656033433" lon="10.718435497060876"><ele>82.0</ele><time>2026-04-12T13:16:03.001Z</time></trkpt><trkpt lat="45.55695687767713" lon="10.718517958466242"><ele>82.0</ele><time>2026-04-12T13:16:04.001Z</time></trkpt><trkpt lat="45.556845237803195" lon="10.718602679047676"><ele>82.0</ele><time>2026-04-12T13:16:05.001Z</time></trkpt><trkpt lat="45.556728754497726" lon="10.718691073264313"><ele>82.0</ele><time>2026-04-12T13:16:06.001Z</time></trkpt><trkpt lat="45.55660243330052" lon="10.718786933036265"><ele>82.0</ele><time>2026-04-12T13:16:07.001Z</time></trkpt><trkpt lat="45.55647769817109" lon="10.71888086882933"><ele>82.0</ele><time>2026-04-12T13:16:08.001Z</time></trkpt><trkpt lat="45.55634729999571" lon="10.71897354423072"><ele>82.0</ele><time>2026-04-12T13:16:09.001Z</time></trkpt><trkpt lat="45.556211060627774" lon="10.719060844973567"><ele>82.0</ele><time>2026-04-12T13:16:10.001Z</time></trkpt><trkpt lat="45.55607896988359" lon="10.719140500896009"><ele>82.0</ele><time>2026-04-12T13:16:11.001Z</time></trkpt><trkpt lat="45.55594945252328" lon="10.719216313654918"><ele>82.0</ele><time>2026-04-12T13:16:12.001Z</time></trkpt><trkpt lat="45.55581455909538" lon="10.71929499480976"><ele>82.25</ele><time>2026-04-12T13:16:13.001Z</time></trkpt><trkpt lat="45.555677831881184" lon="10.719372505660903"><ele>82.5</ele><time>2026-04-12T13:16:14.001Z</time></trkpt><trkpt lat="45.55553988206006" lon="10.71945110115001"><ele>82.75</ele><time>2026-04-12T13:16:15.001Z</time></trkpt><trkpt lat="45.55541685993682" lon="10.71952161165609"><ele>83.0</ele><time>2026-04-12T13:16:16.001Z</time></trkpt><trkpt lat="45.55529769951622" lon="10.71958990881711"><ele>82.25</ele><time>2026-04-12T13:16:17.001Z</time></trkpt><trkpt lat="45.555185755778645" lon="10.719654101789185"><ele>81.5</ele><time>2026-04-12T13:16:18.001Z</time></trkpt><trkpt lat="45.55507893099794" lon="10.7197167180566"><ele>80.75</ele><time>2026-04-12T13:16:19.001Z</time></trkpt><trkpt lat="45.554978420231386" lon="10.719775633300287"><ele>80.0</ele><time>2026-04-12T13:16:20.001Z</time></trkpt><trkpt lat="45.554878236933796" lon="10.719834356606606"><ele>80.0</ele><time>2026-04-12T13:16:21.001Z</time></trkpt><trkpt lat="45.554792365080885" lon="10.719883258477658"><ele>80.0</ele><time>2026-04-12T13:16:22.001Z</time></trkpt><trkpt lat="45.55470932121184" lon="10.71992889009123"><ele>80.0</ele><time>2026-04-12T13:16:23.001Z</time></trkpt><trkpt lat="45.554641493992726" lon="10.719965269943241"><ele>80.0</ele><time>2026-04-12T13:16:24.001Z</time></trkpt><trkpt lat="45.55458037250212" lon="10.719997610371632"><ele>80.0</ele><time>2026-04-12T13:16:27.001Z</time></trkpt><trkpt lat="45.55450911076035" lon="10.720002948631022"><ele>80.0</ele><time>2026-04-12T13:16:31.001Z</time></trkpt><trkpt lat="45.554428435411864" lon="10.719985424814293"><ele>80.6</ele><time>2026-04-12T13:16:33Z</time></trkpt><trkpt lat="45.55433638972476" lon="10.720073767628088"><ele>81.2</ele><time>2026-04-12T13:16:35Z</time></trkpt><trkpt lat="45.55423971349068" lon="10.720181067094261"><ele>81.80000000000001</ele><time>2026-04-12T13:16:37Z</time></trkpt><trkpt lat="45.554180307905035" lon="10.720228838702445"><ele>82.4</ele><time>2026-04-12T13:16:38Z</time></trkpt><trkpt lat="45.55410928255728" lon="10.720233809630692"><ele>83.0</ele><time>2026-04-12T13:16:39Z</time></trkpt><trkpt lat="45.553978799563325" lon="10.720293992926885"><ele>83.0</ele><time>2026-04-12T13:16:41Z</time></trkpt><trkpt lat="45.55389864302366" lon="10.72033002598909"><ele>83.0</ele><time>2026-04-12T13:16:42Z</time></trkpt><trkpt lat="45.553813604078016" lon="10.720367821173761"><ele>83.0</ele><time>2026-04-12T13:16:43Z</time></trkpt><trkpt lat="45.553729073373454" lon="10.720405400253826"><ele>83.0</ele><time>2026-04-12T13:16:44Z</time></trkpt><trkpt lat="45.55363888862793" lon="10.720445488877077"><ele>83.0</ele><time>2026-04-12T13:16:45Z</time></trkpt><trkpt lat="45.553546085406225" lon="10.720492872423744"><ele>82.0</ele><time>2026-04-12T13:16:46Z</time></trkpt><trkpt lat="45.553447463226924" lon="10.720543036228634"><ele>81.0</ele><time>2026-04-12T13:16:47Z</time></trkpt><trkpt lat="45.55333756245861" lon="10.720603547331638"><ele>80.0</ele><time>2026-04-12T13:16:48Z</time></trkpt><trkpt lat="45.55321055711278" lon="10.72067586934012"><ele>79.0</ele><time>2026-04-12T13:16:49Z</time></trkpt><trkpt lat="45.55306408870707" lon="10.720759469382909"><ele>79.0</ele><time>2026-04-12T13:16:50Z</time></trkpt><trkpt lat="45.55294846599484" lon="10.720876165682384"><ele>79.0</ele><time>2026-04-12T13:16:51Z</time></trkpt><trkpt lat="45.55283775509607" lon="10.720933975540659"><ele>79.0</ele><time>2026-04-12T13:16:52Z</time></trkpt><trkpt lat="45.55273652933588" lon="10.720989313892456"><ele>79.0</ele><time>2026-04-12T13:16:53Z</time></trkpt><trkpt lat="45.55264418161407" lon="10.721047742731535"><ele>79.4</ele><time>2026-04-12T13:16:54Z</time></trkpt><trkpt lat="45.55257467223987" lon="10.721082941555327"><ele>79.80000000000001</ele><time>2026-04-12T13:16:55Z</time></trkpt><trkpt lat="45.552459593466935" lon="10.721110206848158"><ele>80.19999999999999</ele><time>2026-04-12T13:16:56Z</time></trkpt><trkpt lat="45.55237444995391" lon="10.721159798556153"><ele>80.6</ele><time>2026-04-12T13:16:57Z</time></trkpt><trkpt lat="45.55229614106582" lon="10.721205322605119"><ele>81.0</ele><time>2026-04-12T13:16:58Z</time></trkpt><trkpt lat="45.55220458622148" lon="10.721258544993828"><ele>81.0</ele><time>2026-04-12T13:16:59Z</time></trkpt><trkpt lat="45.552077283137876" lon="10.721332548554713"><ele>81.0</ele><time>2026-04-12T13:17:00Z</time></trkpt><trkpt lat="45.551923056449915" lon="10.721421554351572"><ele>81.0</ele><time>2026-04-12T13:17:01Z</time></trkpt><trkpt lat="45.5517378108674" lon="10.72152824380707"><ele>79.66666666666667</ele><time>2026-04-12T13:17:02Z</time></trkpt><trkpt lat="45.55157085243048" lon="10.721624395534779"><ele>78.33333333333334</ele><time>2026-04-12T13:17:03Z</time></trkpt><trkpt lat="45.55141971504607" lon="10.721711435966933"><ele>77.0</ele><time>2026-04-12T13:17:04Z</time></trkpt><trkpt lat="45.55128443837541" lon="10.721789523230813"><ele>77.0</ele><time>2026-04-12T13:17:05Z</time></trkpt><trkpt lat="45.551164333024" lon="10.72185884521772"><ele>77.0</ele><time>2026-04-12T13:17:06Z</time></trkpt><trkpt lat="45.55106712965471" lon="10.721915693197602"><ele>77.0</ele><time>2026-04-12T13:17:07Z</time></trkpt><trkpt lat="45.55099144341559" lon="10.721960798768428"><ele>77.0</ele><time>2026-04-12T13:17:08Z</time></trkpt><trkpt lat="45.55093530033491" lon="10.722019256194981"><ele>77.0</ele><time>2026-04-12T13:17:09Z</time></trkpt><trkpt lat="45.550844673246985" lon="10.722076591936187"><ele>77.0</ele><time>2026-04-12T13:17:11Z</time></trkpt><trkpt lat="45.55077506373183" lon="10.722120522911796"><ele>77.0</ele><time>2026-04-12T13:17:15Z</time></trkpt><trkpt lat="45.55070591054019" lon="10.722166043723787"><ele>77.0</ele><time>2026-04-12T13:17:16Z</time></trkpt><trkpt lat="45.550628717398354" lon="10.722184656673157"><ele>77.0</ele><time>2026-04-12T13:17:17Z</time></trkpt><trkpt lat="45.550569962931" lon="10.722298989947548"><ele>77.0</ele><time>2026-04-12T13:17:18Z</time></trkpt><trkpt lat="45.550478531335685" lon="10.72235632790909"><ele>77.0</ele><time>2026-04-12T13:17:19Z</time></trkpt><trkpt lat="45.55038979707826" lon="10.722438699587023"><ele>76.5</ele><time>2026-04-12T13:17:20Z</time></trkpt><trkpt lat="45.55028941306979" lon="10.722525506753698"><ele>76.0</ele><time>2026-04-12T13:17:21Z</time></trkpt><trkpt lat="45.55018205179928" lon="10.72260539765019"><ele>75.5</ele><time>2026-04-12T13:17:22Z</time></trkpt><trkpt lat="45.55007410095631" lon="10.722680538935855"><ele>75.0</ele><time>2026-04-12T13:17:23Z</time></trkpt><trkpt lat="45.54995739400807" lon="10.722748820917126"><ele>75.0</ele><time>2026-04-12T13:17:24Z</time></trkpt><trkpt lat="45.54985193174931" lon="10.722826703584547"><ele>75.0</ele><time>2026-04-12T13:17:25Z</time></trkpt><trkpt lat="45.54973363333137" lon="10.722874979058025"><ele>75.0</ele><time>2026-04-12T13:17:26Z</time></trkpt><trkpt lat="45.549626893061394" lon="10.72292723475647"><ele>75.0</ele><time>2026-04-12T13:17:27Z</time></trkpt><trkpt lat="45.549530010169875" lon="10.722976348854447"><ele>74.83333333333333</ele><time>2026-04-12T13:17:28Z</time></trkpt><trkpt lat="45.54944313206028" lon="10.723017596304981"><ele>74.66666666666667</ele><time>2026-04-12T13:17:29Z</time></trkpt><trkpt lat="45.54936188178284" lon="10.723054382684735"><ele>74.5</ele><time>2026-04-12T13:17:30Z</time></trkpt><trkpt lat="45.54927599230209" lon="10.723089332825541"><ele>74.33333333333334</ele><time>2026-04-12T13:17:31Z</time></trkpt><trkpt lat="45.54918632881296" lon="10.723124422159374"><ele>74.16666666666667</ele><time>2026-04-12T13:17:32Z</time></trkpt><trkpt lat="45.54911144016905" lon="10.723158667324096"><ele>74.0</ele><time>2026-04-12T13:17:33Z</time></trkpt><trkpt lat="45.54904693983455" lon="10.723194327311433"><ele>74.0</ele><time>2026-04-12T13:17:34Z</time></trkpt><trkpt lat="45.54898708738815" lon="10.723226329828943"><ele>74.0</ele><time>2026-04-12T13:17:35Z</time></trkpt><trkpt lat="45.54892782388252" lon="10.723258833778253"><ele>74.0</ele><time>2026-04-12T13:17:36Z</time></trkpt><trkpt lat="45.548860805348355" lon="10.723291684748402"><ele>74.0</ele><time>2026-04-12T13:17:37Z</time></trkpt><trkpt lat="45.54874228458717" lon="10.723354130986213"><ele>74.0</ele><time>2026-04-12T13:17:39Z</time></trkpt><trkpt lat="45.548674041434715" lon="10.72338799676311"><ele>74.0</ele><time>2026-04-12T13:17:40Z</time></trkpt><trkpt lat="45.54859079594049" lon="10.72342840951579"><ele>74.16666666666667</ele><time>2026-04-12T13:17:41Z</time></trkpt><trkpt lat="45.5485109353951" lon="10.723466888038145"><ele>74.33333333333334</ele><time>2026-04-12T13:17:42Z</time></trkpt><trkpt lat="45.54842925125482" lon="10.723513036383629"><ele>74.5</ele><time>2026-04-12T13:17:43Z</time></trkpt><trkpt lat="45.54835122769316" lon="10.723564183978327"><ele>74.66666666666667</ele><time>2026-04-12T13:17:44Z</time></trkpt><trkpt lat="45.54825998115672" lon="10.723596343921487"><ele>74.83333333333333</ele><time>2026-04-12T13:17:45Z</time></trkpt><trkpt lat="45.54818014508068" lon="10.723658602812558"><ele>75.0</ele><time>2026-04-12T13:17:46Z</time></trkpt><trkpt lat="45.548111974394345" lon="10.723739647871922"><ele>75.0</ele><time>2026-04-12T13:17:47Z</time></trkpt><trkpt lat="45.54803714413611" lon="10.723773145856576"><ele>75.0</ele><time>2026-04-12T13:17:48Z</time></trkpt><trkpt lat="45.54797946658209" lon="10.723819345524994"><ele>75.0</ele><time>2026-04-12T13:17:49Z</time></trkpt><trkpt lat="45.54790715389971" lon="10.723866689189284"><ele>75.0</ele><time>2026-04-12T13:17:51Z</time></trkpt><trkpt lat="45.54784959155339" lon="10.72391005240066"><ele>75.0</ele><time>2026-04-12T13:17:53Z</time></trkpt><trkpt lat="45.54775662237527" lon="10.723979127703586"><ele>75.0</ele><time>2026-04-12T13:17:55.001Z</time></trkpt><trkpt lat="45.54768198562139" lon="10.724043512620844"><ele>74.66666666666667</ele><time>2026-04-12T13:17:58.001Z</time></trkpt><trkpt lat="45.547607993073576" lon="10.724087474304687"><ele>74.33333333333333</ele><time>2026-04-12T13:18:00.001Z</time></trkpt><trkpt lat="45.54754578501763" lon="10.724119450055603"><ele>74.0</ele><time>2026-04-12T13:18:01.001Z</time></trkpt><trkpt lat="45.54745046753821" lon="10.724236945785456"><ele>73.66666666666666</ele><time>2026-04-12T13:18:03.001Z</time></trkpt><trkpt lat="45.547396019682544" lon="10.724308464903906"><ele>73.33333333333333</ele><time>2026-04-12T13:18:04.001Z</time></trkpt><trkpt lat="45.54731955719141" lon="10.724372480874084"><ele>73.0</ele><time>2026-04-12T13:18:05.001Z</time></trkpt><trkpt lat="45.547231876603064" lon="10.724387923758906"><ele>73.16666666666666</ele><time>2026-04-12T13:18:06.001Z</time></trkpt><trkpt lat="45.54714162348583" lon="10.724425864361963"><ele>73.33333333333333</ele><time>2026-04-12T13:18:07.001Z</time></trkpt><trkpt lat="45.54704919696609" lon="10.724463893819864"><ele>73.5</ele><time>2026-04-12T13:18:08.001Z</time></trkpt><trkpt lat="45.54698209061277" lon="10.72451005100703"><ele>73.66666666666667</ele><time>2026-04-12T13:18:09.001Z</time></trkpt><trkpt lat="45.54690501958939" lon="10.724531205789246"><ele>73.83333333333334</ele><time>2026-04-12T13:18:11.001Z</time></trkpt><trkpt lat="45.54680109104619" lon="10.724535455194763"><ele>74.0</ele><time>2026-04-12T13:18:13.001Z</time></trkpt><trkpt lat="45.54672387182464" lon="10.724539750133154"><ele>74.0</ele><time>2026-04-12T13:18:14.001Z</time></trkpt><trkpt lat="45.54662844302607" lon="10.724540847192344"><ele>74.0</ele><time>2026-04-12T13:18:15.001Z</time></trkpt><trkpt lat="45.54650576235383" lon="10.724535905759112"><ele>74.0</ele><time>2026-04-12T13:18:16.001Z</time></trkpt><trkpt lat="45.546371506636376" lon="10.724488816873313"><ele>74.0</ele><time>2026-04-12T13:18:17.001Z</time></trkpt><trkpt lat="45.546229948489184" lon="10.724482257452026"><ele>74.5</ele><time>2026-04-12T13:18:18.001Z</time></trkpt><trkpt lat="45.546092971734225" lon="10.72448004494543"><ele>75.0</ele><time>2026-04-12T13:18:19.001Z</time></trkpt><trkpt lat="45.545961666579" lon="10.72447269217065"><ele>75.5</ele><time>2026-04-12T13:18:20.001Z</time></trkpt><trkpt lat="45.5458353304995" lon="10.724462073945448"><ele>76.0</ele><time>2026-04-12T13:18:21.001Z</time></trkpt><trkpt lat="45.54570281668185" lon="10.724451198029895"><ele>76.0</ele><time>2026-04-12T13:18:22.001Z</time></trkpt><trkpt lat="45.54555351480793" lon="10.724439704275268"><ele>76.0</ele><time>2026-04-12T13:18:23.001Z</time></trkpt><trkpt lat="45.54540950376783" lon="10.724428617830485"><ele>76.0</ele><time>2026-04-12T13:18:24.001Z</time></trkpt><trkpt lat="45.5453057125536" lon="10.724420506718069"><ele>76.0</ele><time>2026-04-12T13:18:25.001Z</time></trkpt><trkpt lat="45.54517081554434" lon="10.724409801427221"><ele>75.75</ele><time>2026-04-12T13:18:26.001Z</time></trkpt><trkpt lat="45.545039915059434" lon="10.724399413291083"><ele>75.5</ele><time>2026-04-12T13:18:27.001Z</time></trkpt><trkpt lat="45.54491320880948" lon="10.724389358006867"><ele>75.25</ele><time>2026-04-12T13:18:28.001Z</time></trkpt><trkpt lat="45.54478475957543" lon="10.724377581152694"><ele>75.0</ele><time>2026-04-12T13:18:29.001Z</time></trkpt><trkpt lat="45.544654857837614" lon="10.724368235934591"><ele>74.0</ele><time>2026-04-12T13:18:30.001Z</time></trkpt><trkpt lat="45.544525358521554" lon="10.724361192743393"><ele>73.0</ele><time>2026-04-12T13:18:31.001Z</time></trkpt><trkpt lat="45.544402635610794" lon="10.724379896353444"><ele>72.0</ele><time>2026-04-12T13:18:32.001Z</time></trkpt><trkpt lat="45.54427874350631" lon="10.724384790794545"><ele>71.0</ele><time>2026-04-12T13:18:33.001Z</time></trkpt><trkpt lat="45.54415929193411" lon="10.72440240276656"><ele>70.6</ele><time>2026-04-12T13:18:34.001Z</time></trkpt><trkpt lat="45.54404193759269" lon="10.724431418067365"><ele>70.19999999999999</ele><time>2026-04-12T13:18:35.001Z</time></trkpt><trkpt lat="45.54393781215111" lon="10.724465519852327"><ele>69.80000000000001</ele><time>2026-04-12T13:18:36.001Z</time></trkpt><trkpt lat="45.5438356788682" lon="10.724505791843967"><ele>69.4</ele><time>2026-04-12T13:18:37.001Z</time></trkpt><trkpt lat="45.54374166657144" lon="10.724551797817636"><ele>69.0</ele><time>2026-04-12T13:18:38Z</time></trkpt><trkpt lat="45.54365396319641" lon="10.724605618099774"><ele>68.83333333333333</ele><time>2026-04-12T13:18:39Z</time></trkpt><trkpt lat="45.5435750522055" lon="10.72466563662989"><ele>68.66666666666667</ele><time>2026-04-12T13:18:40Z</time></trkpt><trkpt lat="45.5434937010172" lon="10.724701895777137"><ele>68.5</ele><time>2026-04-12T13:18:41Z</time></trkpt><trkpt lat="45.54342842018249" lon="10.724745608359056"><ele>68.33333333333334</ele><time>2026-04-12T13:18:42Z</time></trkpt><trkpt lat="45.543315457530845" lon="10.724821249095694"><ele>68.16666666666667</ele><time>2026-04-12T13:18:44Z</time></trkpt><trkpt lat="45.5432512477103" lon="10.724864244540111"><ele>68.0</ele><time>2026-04-12T13:18:45Z</time></trkpt><trkpt lat="45.543174134701104" lon="10.724949112542484"><ele>68.0</ele><time>2026-04-12T13:18:46Z</time></trkpt><trkpt lat="45.54306508974491" lon="10.725031113813756"><ele>68.0</ele><time>2026-04-12T13:18:47Z</time></trkpt><trkpt lat="45.54293162422039" lon="10.725130624288242"><ele>68.0</ele><time>2026-04-12T13:18:48Z</time></trkpt><trkpt lat="45.542778624149626" lon="10.725235384036885"><ele>68.0</ele><time>2026-04-12T13:18:49Z</time></trkpt><trkpt lat="45.54262034166728" lon="10.72533669186317"><ele>68.0</ele><time>2026-04-12T13:18:50Z</time></trkpt><trkpt lat="45.54246010730898" lon="10.725401640568567"><ele>68.0</ele><time>2026-04-12T13:18:51Z</time></trkpt><trkpt lat="45.542315586260486" lon="10.725497579326271"><ele>68.0</ele><time>2026-04-12T13:18:52Z</time></trkpt><trkpt lat="45.54218056687404" lon="10.725585765562935"><ele>68.0</ele><time>2026-04-12T13:18:53Z</time></trkpt><trkpt lat="45.5420511825071" lon="10.72566619000956"><ele>68.0</ele><time>2026-04-12T13:18:54Z</time></trkpt><trkpt lat="45.54191515994238" lon="10.725733235966494"><ele>68.0</ele><time>2026-04-12T13:18:55Z</time></trkpt><trkpt lat="45.54176145755072" lon="10.725792931422157"><ele>68.0</ele><time>2026-04-12T13:18:56Z</time></trkpt><trkpt lat="45.54159813160864" lon="10.725847912629664"><ele>67.33333333333334</ele><time>2026-04-12T13:18:57Z</time></trkpt><trkpt lat="45.54143651808671" lon="10.725900386337365"><ele>66.66666666666667</ele><time>2026-04-12T13:18:58Z</time></trkpt><trkpt lat="45.54128762390431" lon="10.725947442605595"><ele>66.0</ele><time>2026-04-12T13:18:59Z</time></trkpt><trkpt lat="45.541147879481386" lon="10.72598895401141"><ele>66.0</ele><time>2026-04-12T13:19:00Z</time></trkpt><trkpt lat="45.5410177531757" lon="10.726061348346807"><ele>66.0</ele><time>2026-04-12T13:19:01Z</time></trkpt><trkpt lat="45.540887944285096" lon="10.726097185459825"><ele>66.0</ele><time>2026-04-12T13:19:02Z</time></trkpt><trkpt lat="45.54076196159642" lon="10.726135704812341"><ele>66.0</ele><time>2026-04-12T13:19:03Z</time></trkpt><trkpt lat="45.540635822213204" lon="10.726176373220529"><ele>66.25</ele><time>2026-04-12T13:19:04Z</time></trkpt><trkpt lat="45.540517745396144" lon="10.726226374751853"><ele>66.5</ele><time>2026-04-12T13:19:05Z</time></trkpt><trkpt lat="45.5403982571594" lon="10.726274833019765"><ele>66.75</ele><time>2026-04-12T13:19:06Z</time></trkpt><trkpt lat="45.540277603380936" lon="10.726324533847722"><ele>67.0</ele><time>2026-04-12T13:19:07Z</time></trkpt><trkpt lat="45.5401597027275" lon="10.726371139450405"><ele>67.0</ele><time>2026-04-12T13:19:08Z</time></trkpt><trkpt lat="45.540045469092654" lon="10.726417940983794"><ele>67.0</ele><time>2026-04-12T13:19:09Z</time></trkpt><trkpt lat="45.53993073547244" lon="10.72646334224113"><ele>67.0</ele><time>2026-04-12T13:19:10Z</time></trkpt><trkpt lat="45.539816592547304" lon="10.726508325359173"><ele>67.0</ele><time>2026-04-12T13:19:11Z</time></trkpt><trkpt lat="45.5396977809271" lon="10.726558373542103"><ele>67.0</ele><time>2026-04-12T13:19:12Z</time></trkpt><trkpt lat="45.5395799861544" lon="10.726607377307436"><ele>67.0</ele><time>2026-04-12T13:19:13Z</time></trkpt><trkpt lat="45.53946466932465" lon="10.726660835908735"><ele>67.0</ele><time>2026-04-12T13:19:14Z</time></trkpt><trkpt lat="45.539342117120206" lon="10.726683929981222"><ele>67.0</ele><time>2026-04-12T13:19:15Z</time></trkpt><trkpt lat="45.539221372941334" lon="10.726733554775866"><ele>67.0</ele><time>2026-04-12T13:19:16Z</time></trkpt><trkpt lat="45.53908267441279" lon="10.726790558675901"><ele>67.0</ele><time>2026-04-12T13:19:17Z</time></trkpt><trkpt lat="45.538935723377485" lon="10.7268509542404"><ele>67.0</ele><time>2026-04-12T13:19:18Z</time></trkpt><trkpt lat="45.53877954379595" lon="10.726915142675164"><ele>67.33333333333333</ele><time>2026-04-12T13:19:19Z</time></trkpt><trkpt lat="45.53861853796359" lon="10.726981314801119"><ele>67.66666666666667</ele><time>2026-04-12T13:19:20Z</time></trkpt><trkpt lat="45.53845428515611" lon="10.7270498577307"><ele>68.0</ele><time>2026-04-12T13:19:21Z</time></trkpt><trkpt lat="45.53830273478995" lon="10.72711227359083"><ele>68.0</ele><time>2026-04-12T13:19:22Z</time></trkpt><trkpt lat="45.538158204674225" lon="10.727170672657234"><ele>68.0</ele><time>2026-04-12T13:19:23Z</time></trkpt><trkpt lat="45.53803439722732" lon="10.727219296179268"><ele>68.0</ele><time>2026-04-12T13:19:24Z</time></trkpt><trkpt lat="45.53791636689021" lon="10.727257813544448"><ele>68.0</ele><time>2026-04-12T13:19:25Z</time></trkpt><trkpt lat="45.537811315949995" lon="10.727305659015167"><ele>68.0</ele><time>2026-04-12T13:19:26Z</time></trkpt><trkpt lat="45.537721118658055" lon="10.727296394777806"><ele>68.0</ele><time>2026-04-12T13:19:27Z</time></trkpt><trkpt lat="45.53763826722543" lon="10.727306482169489"><ele>68.0</ele><time>2026-04-12T13:19:28Z</time></trkpt><trkpt lat="45.53755756414489" lon="10.727316577996696"><ele>68.0</ele><time>2026-04-12T13:19:29Z</time></trkpt><trkpt lat="45.537479611467916" lon="10.727325181931398"><ele>68.0</ele><time>2026-04-12T13:19:30Z</time></trkpt><trkpt lat="45.53739002583598" lon="10.727333626072936"><ele>68.0</ele><time>2026-04-12T13:19:31Z</time></trkpt><trkpt lat="45.53729160852585" lon="10.727343323390048"><ele>68.0</ele><time>2026-04-12T13:19:32Z</time></trkpt><trkpt lat="45.537185237858935" lon="10.727379291271273"><ele>68.0</ele><time>2026-04-12T13:19:33Z</time></trkpt><trkpt lat="45.53707114740649" lon="10.727388566782537"><ele>68.0</ele><time>2026-04-12T13:19:34Z</time></trkpt><trkpt lat="45.53694592790121" lon="10.727401373840447"><ele>68.0</ele><time>2026-04-12T13:19:35Z</time></trkpt><trkpt lat="45.53682108925968" lon="10.727417316321036"><ele>68.0</ele><time>2026-04-12T13:19:36Z</time></trkpt><trkpt lat="45.53669715359448" lon="10.727431100347204"><ele>68.0</ele><time>2026-04-12T13:19:37Z</time></trkpt><trkpt lat="45.53658038810476" lon="10.7274395311008"><ele>68.0</ele><time>2026-04-12T13:19:38Z</time></trkpt><trkpt lat="45.536461458929345" lon="10.727451167040103"><ele>68.0</ele><time>2026-04-12T13:19:39Z</time></trkpt><trkpt lat="45.536340030346175" lon="10.72746321070985"><ele>67.75</ele><time>2026-04-12T13:19:40Z</time></trkpt><trkpt lat="45.53621806105551" lon="10.727477607886216"><ele>67.5</ele><time>2026-04-12T13:19:41Z</time></trkpt><trkpt lat="45.5360906457044" lon="10.727487768115825"><ele>67.25</ele><time>2026-04-12T13:19:42Z</time></trkpt><trkpt lat="45.535964603746855" lon="10.727500381802118"><ele>67.0</ele><time>2026-04-12T13:19:43Z</time></trkpt><trkpt lat="45.535832880046144" lon="10.72751361005236"><ele>67.0</ele><time>2026-04-12T13:19:44Z</time></trkpt><trkpt lat="45.5356954596631" lon="10.727520261686445"><ele>67.0</ele><time>2026-04-12T13:19:45Z</time></trkpt><trkpt lat="45.53554406967947" lon="10.727523910788697"><ele>67.0</ele><time>2026-04-12T13:19:46Z</time></trkpt><trkpt lat="45.53538202792208" lon="10.727517902903848"><ele>67.0</ele><time>2026-04-12T13:19:47Z</time></trkpt><trkpt lat="45.5352247195406" lon="10.727503656192663"><ele>67.0</ele><time>2026-04-12T13:19:48Z</time></trkpt><trkpt lat="45.535073089204786" lon="10.72749344389041"><ele>67.0</ele><time>2026-04-12T13:19:49Z</time></trkpt><trkpt lat="45.5349359447143" lon="10.727458938070173"><ele>67.0</ele><time>2026-04-12T13:19:50Z</time></trkpt><trkpt lat="45.53480693519447" lon="10.727472445890987"><ele>67.0</ele><time>2026-04-12T13:19:51Z</time></trkpt><trkpt lat="45.5346741215297" lon="10.727456749278323"><ele>67.0</ele><time>2026-04-12T13:19:52Z</time></trkpt><trkpt lat="45.53453951766228" lon="10.72743518040429"><ele>67.0</ele><time>2026-04-12T13:19:53Z</time></trkpt><trkpt lat="45.534401297684084" lon="10.727395887686257"><ele>67.0</ele><time>2026-04-12T13:19:54Z</time></trkpt><trkpt lat="45.53426724159138" lon="10.727342920670722"><ele>67.0</ele><time>2026-04-12T13:19:55Z</time></trkpt><trkpt lat="45.53413194888463" lon="10.727293626591184"><ele>67.0</ele><time>2026-04-12T13:19:56Z</time></trkpt><trkpt lat="45.534003301943564" lon="10.727243920082628"><ele>67.0</ele><time>2026-04-12T13:19:57Z</time></trkpt><trkpt lat="45.533872811802645" lon="10.727197567291178"><ele>67.0</ele><time>2026-04-12T13:19:58.001Z</time></trkpt><trkpt lat="45.53373900098622" lon="10.72715515659813"><ele>67.75</ele><time>2026-04-12T13:19:59.001Z</time></trkpt><trkpt lat="45.53361362947769" lon="10.72711388090141"><ele>68.5</ele><time>2026-04-12T13:20:00.001Z</time></trkpt><trkpt lat="45.53348717388854" lon="10.727073831837252"><ele>69.25</ele><time>2026-04-12T13:20:01.001Z</time></trkpt><trkpt lat="45.53335527966189" lon="10.727033134732773"><ele>70.0</ele><time>2026-04-12T13:20:02.001Z</time></trkpt><trkpt lat="45.53323155357091" lon="10.726996955234702"><ele>70.0</ele><time>2026-04-12T13:20:03.001Z</time></trkpt><trkpt lat="45.53311862036666" lon="10.72695675165642"><ele>70.0</ele><time>2026-04-12T13:20:04.001Z</time></trkpt><trkpt lat="45.53301051005465" lon="10.726921790249534"><ele>70.0</ele><time>2026-04-12T13:20:05.001Z</time></trkpt><trkpt lat="45.53289940131607" lon="10.72687924714654"><ele>70.0</ele><time>2026-04-12T13:20:06.001Z</time></trkpt><trkpt lat="45.53278756814139" lon="10.726838919493403"><ele>68.75</ele><time>2026-04-12T13:20:07.001Z</time></trkpt><trkpt lat="45.53267467838158" lon="10.726800277609074"><ele>67.5</ele><time>2026-04-12T13:20:08.001Z</time></trkpt><trkpt lat="45.53255897621321" lon="10.726767135767647"><ele>66.25</ele><time>2026-04-12T13:20:09.001Z</time></trkpt><trkpt lat="45.53244366047226" lon="10.726729276782164"><ele>65.0</ele><time>2026-04-12T13:20:10.001Z</time></trkpt><trkpt lat="45.53232824073922" lon="10.726713263306866"><ele>65.0</ele><time>2026-04-12T13:20:11.001Z</time></trkpt><trkpt lat="45.53221821550929" lon="10.72666185648684"><ele>65.0</ele><time>2026-04-12T13:20:12.001Z</time></trkpt><trkpt lat="45.53210636453922" lon="10.726634771253872"><ele>65.0</ele><time>2026-04-12T13:20:13.001Z</time></trkpt><trkpt lat="45.53199568012689" lon="10.726607968477019"><ele>65.0</ele><time>2026-04-12T13:20:14.001Z</time></trkpt><trkpt lat="45.531883567707936" lon="10.726580847608412"><ele>65.75</ele><time>2026-04-12T13:20:15.001Z</time></trkpt><trkpt lat="45.53176951543148" lon="10.72655429156469"><ele>66.5</ele><time>2026-04-12T13:20:16.001Z</time></trkpt><trkpt lat="45.53165566632996" lon="10.726527794584134"><ele>67.25</ele><time>2026-04-12T13:20:17.001Z</time></trkpt><trkpt lat="45.53153931001224" lon="10.726503521805144"><ele>68.0</ele><time>2026-04-12T13:20:18.001Z</time></trkpt><trkpt lat="45.5314241940153" lon="10.726481635276585"><ele>68.0</ele><time>2026-04-12T13:20:19.001Z</time></trkpt><trkpt lat="45.531306838305014" lon="10.72646256796798"><ele>68.0</ele><time>2026-04-12T13:20:20.001Z</time></trkpt><trkpt lat="45.53119413012416" lon="10.726447777599551"><ele>68.0</ele><time>2026-04-12T13:20:21.001Z</time></trkpt><trkpt lat="45.53108478397126" lon="10.726434017690767"><ele>68.0</ele><time>2026-04-12T13:20:22.001Z</time></trkpt><trkpt lat="45.530976477195225" lon="10.726422925723467"><ele>68.2</ele><time>2026-04-12T13:20:23.001Z</time></trkpt><trkpt lat="45.530872549690784" lon="10.726412089678691"><ele>68.4</ele><time>2026-04-12T13:20:24.001Z</time></trkpt><trkpt lat="45.530764937673965" lon="10.726402675296237"><ele>68.60000000000001</ele><time>2026-04-12T13:20:25.001Z</time></trkpt><trkpt lat="45.53064736754085" lon="10.726396832180013"><ele>68.8</ele><time>2026-04-12T13:20:26.001Z</time></trkpt><trkpt lat="45.530538459151" lon="10.726396116722222"><ele>69.0</ele><time>2026-04-12T13:20:27.001Z</time></trkpt><trkpt lat="45.53043870358723" lon="10.726428463240268"><ele>69.0</ele><time>2026-04-12T13:20:28.001Z</time></trkpt><trkpt lat="45.530337838972194" lon="10.726419043043776"><ele>69.0</ele><time>2026-04-12T13:20:29.001Z</time></trkpt><trkpt lat="45.530250471929236" lon="10.726434368403694"><ele>69.0</ele><time>2026-04-12T13:20:30.001Z</time></trkpt><trkpt lat="45.530161952535586" lon="10.726462446816138"><ele>69.0</ele><time>2026-04-12T13:20:31.001Z</time></trkpt><trkpt lat="45.53007947380211" lon="10.726488572826273"><ele>69.0</ele><time>2026-04-12T13:20:32.001Z</time></trkpt><trkpt lat="45.53000111167597" lon="10.7265159524601"><ele>69.0</ele><time>2026-04-12T13:20:33.001Z</time></trkpt><trkpt lat="45.52992304648104" lon="10.726545773465118"><ele>69.0</ele><time>2026-04-12T13:20:34.001Z</time></trkpt><trkpt lat="45.52984541458528" lon="10.726580196488671"><ele>69.0</ele><time>2026-04-12T13:20:35.001Z</time></trkpt><trkpt lat="45.52977583027753" lon="10.726613287405334"><ele>69.0</ele><time>2026-04-12T13:20:36.001Z</time></trkpt><trkpt lat="45.52970810593883" lon="10.726649467636342"><ele>69.0</ele><time>2026-04-12T13:20:37.001Z</time></trkpt><trkpt lat="45.52963430633842" lon="10.726689871392454"><ele>69.0</ele><time>2026-04-12T13:20:38.001Z</time></trkpt><trkpt lat="45.52955510749296" lon="10.726734914832639"><ele>69.0</ele><time>2026-04-12T13:20:39.001Z</time></trkpt><trkpt lat="45.52947948593061" lon="10.726779288223248"><ele>69.0</ele><time>2026-04-12T13:20:40.001Z</time></trkpt><trkpt lat="45.52936040545776" lon="10.72684818946828"><ele>69.0</ele><time>2026-04-12T13:20:42.001Z</time></trkpt><trkpt lat="45.52929809033589" lon="10.726883942276912"><ele>69.0</ele><time>2026-04-12T13:20:43.001Z</time></trkpt><trkpt lat="45.52922442089032" lon="10.726926283038965"><ele>69.0</ele><time>2026-04-12T13:20:44Z</time></trkpt><trkpt lat="45.52914566170942" lon="10.726971625876153"><ele>69.0</ele><time>2026-04-12T13:20:45Z</time></trkpt><trkpt lat="45.52906208993241" lon="10.727019739443762"><ele>69.5</ele><time>2026-04-12T13:20:46Z</time></trkpt><trkpt lat="45.52895699425957" lon="10.727080474591563"><ele>70.0</ele><time>2026-04-12T13:20:47Z</time></trkpt><trkpt lat="45.52884240516366" lon="10.727148228150998"><ele>70.5</ele><time>2026-04-12T13:20:48Z</time></trkpt><trkpt lat="45.52871954902563" lon="10.727208605057964"><ele>71.0</ele><time>2026-04-12T13:20:49Z</time></trkpt><trkpt lat="45.5286066887666" lon="10.727248617784968"><ele>71.0</ele><time>2026-04-12T13:20:50Z</time></trkpt><trkpt lat="45.52848459347735" lon="10.727286302474571"><ele>71.0</ele><time>2026-04-12T13:20:51Z</time></trkpt><trkpt lat="45.528360315807035" lon="10.727319666254589"><ele>71.0</ele><time>2026-04-12T13:20:52Z</time></trkpt><trkpt lat="45.52823114198434" lon="10.727374973387631"><ele>71.0</ele><time>2026-04-12T13:20:53Z</time></trkpt><trkpt lat="45.52808841680939" lon="10.727396539354691"><ele>71.0</ele><time>2026-04-12T13:20:54Z</time></trkpt><trkpt lat="45.52794556121866" lon="10.727436135388391"><ele>71.0</ele><time>2026-04-12T13:20:55Z</time></trkpt><trkpt lat="45.52780534098217" lon="10.727480623095579"><ele>71.0</ele><time>2026-04-12T13:20:56Z</time></trkpt><trkpt lat="45.52765360853751" lon="10.727537702365751"><ele>71.0</ele><time>2026-04-12T13:20:57Z</time></trkpt><trkpt lat="45.527507683836866" lon="10.727588610125578"><ele>70.66666666666667</ele><time>2026-04-12T13:20:58Z</time></trkpt><trkpt lat="45.527356765928104" lon="10.727640691870413"><ele>70.33333333333333</ele><time>2026-04-12T13:20:59Z</time></trkpt><trkpt lat="45.527206468342975" lon="10.727697468750696"><ele>70.0</ele><time>2026-04-12T13:21:00Z</time></trkpt><trkpt lat="45.5270550469824" lon="10.727767051540562"><ele>71.25</ele><time>2026-04-12T13:21:01Z</time></trkpt><trkpt lat="45.52691403032529" lon="10.727839998248493"><ele>72.5</ele><time>2026-04-12T13:21:02Z</time></trkpt><trkpt lat="45.526777192862646" lon="10.727918941823997"><ele>73.75</ele><time>2026-04-12T13:21:03Z</time></trkpt><trkpt lat="45.52664947948157" lon="10.727994424442842"><ele>75.0</ele><time>2026-04-12T13:21:04Z</time></trkpt><trkpt lat="45.5265187740464" lon="10.72807469849008"><ele>75.0</ele><time>2026-04-12T13:21:05Z</time></trkpt><trkpt lat="45.526393536794856" lon="10.728150935076096"><ele>75.0</ele><time>2026-04-12T13:21:06Z</time></trkpt><trkpt lat="45.52626930320527" lon="10.728230453552687"><ele>75.0</ele><time>2026-04-12T13:21:07Z</time></trkpt><trkpt lat="45.52615322338266" lon="10.728305534822388"><ele>75.0</ele><time>2026-04-12T13:21:08Z</time></trkpt><trkpt lat="45.526040415400004" lon="10.728383074816911"><ele>75.25</ele><time>2026-04-12T13:21:09Z</time></trkpt><trkpt lat="45.52593224693037" lon="10.728460954566318"><ele>75.5</ele><time>2026-04-12T13:21:10Z</time></trkpt><trkpt lat="45.525819140196695" lon="10.728528963781613"><ele>75.75</ele><time>2026-04-12T13:21:11Z</time></trkpt><trkpt lat="45.525714212492275" lon="10.728597760842813"><ele>76.0</ele><time>2026-04-12T13:21:12Z</time></trkpt><trkpt lat="45.5256127384015" lon="10.72865799921529"><ele>76.5</ele><time>2026-04-12T13:21:13Z</time></trkpt><trkpt lat="45.52551302874363" lon="10.72870903609743"><ele>77.0</ele><time>2026-04-12T13:21:14Z</time></trkpt><trkpt lat="45.5254216401438" lon="10.728731110165795"><ele>77.5</ele><time>2026-04-12T13:21:15Z</time></trkpt><trkpt lat="45.52534644831406" lon="10.728765008616545"><ele>78.0</ele><time>2026-04-12T13:21:16Z</time></trkpt><trkpt lat="45.5252832787369" lon="10.72880566232943"><ele>78.5</ele><time>2026-04-12T13:21:17Z</time></trkpt><trkpt lat="45.52521663163843" lon="10.72881233037221"><ele>79.0</ele><time>2026-04-12T13:21:18Z</time></trkpt><trkpt lat="45.525132844045935" lon="10.728819638812663"><ele>79.2</ele><time>2026-04-12T13:21:19Z</time></trkpt><trkpt lat="45.52504533818131" lon="10.728860205700736"><ele>79.4</ele><time>2026-04-12T13:21:20Z</time></trkpt><trkpt lat="45.524953444192434" lon="10.728916714553367"><ele>79.6</ele><time>2026-04-12T13:21:21Z</time></trkpt><trkpt lat="45.52483511738241" lon="10.728935201387033"><ele>79.8</ele><time>2026-04-12T13:21:22Z</time></trkpt><trkpt lat="45.52470053071167" lon="10.728974171628296"><ele>80.0</ele><time>2026-04-12T13:21:23Z</time></trkpt><trkpt lat="45.52453919122688" lon="10.729020888262042"><ele>81.0</ele><time>2026-04-12T13:21:24Z</time></trkpt><trkpt lat="45.524353135335055" lon="10.729075019673983"><ele>82.0</ele><time>2026-04-12T13:21:25Z</time></trkpt><trkpt lat="45.52416859932928" lon="10.729128868627866"><ele>83.0</ele><time>2026-04-12T13:21:26Z</time></trkpt><trkpt lat="45.52397919915315" lon="10.729209529845058"><ele>83.0</ele><time>2026-04-12T13:21:27Z</time></trkpt><trkpt lat="45.52379102408632" lon="10.729252134247483"><ele>83.0</ele><time>2026-04-12T13:21:28Z</time></trkpt><trkpt lat="45.52360149519461" lon="10.729313776225519"><ele>83.0</ele><time>2026-04-12T13:21:29Z</time></trkpt><trkpt lat="45.523400583024994" lon="10.72937146261364"><ele>85.33333333333334</ele><time>2026-04-12T13:21:30Z</time></trkpt><trkpt lat="45.52320634858318" lon="10.729425973386522"><ele>87.66666666666667</ele><time>2026-04-12T13:21:31Z</time></trkpt><trkpt lat="45.52302166731184" lon="10.729482051735342"><ele>90.0</ele><time>2026-04-12T13:21:32Z</time></trkpt><trkpt lat="45.52283674210352" lon="10.729531894452062"><ele>90.0</ele><time>2026-04-12T13:21:33Z</time></trkpt><trkpt lat="45.52265774060881" lon="10.729573684678016"><ele>90.0</ele><time>2026-04-12T13:21:34Z</time></trkpt><trkpt lat="45.52247441449946" lon="10.729604912349108"><ele>90.0</ele><time>2026-04-12T13:21:35Z</time></trkpt><trkpt lat="45.522295612557286" lon="10.729628261319158"><ele>90.0</ele><time>2026-04-12T13:21:36Z</time></trkpt><trkpt lat="45.52212265480192" lon="10.729632969816869"><ele>90.0</ele><time>2026-04-12T13:21:37Z</time></trkpt><trkpt lat="45.52195485338557" lon="10.729626676466909"><ele>90.0</ele><time>2026-04-12T13:21:38Z</time></trkpt><trkpt lat="45.521791608309165" lon="10.729634439067382"><ele>90.33333333333333</ele><time>2026-04-12T13:21:39Z</time></trkpt><trkpt lat="45.52163181364656" lon="10.729642236700734"><ele>90.66666666666666</ele><time>2026-04-12T13:21:40Z</time></trkpt><trkpt lat="45.52146634952595" lon="10.729670944272964"><ele>91.0</ele><time>2026-04-12T13:21:41Z</time></trkpt><trkpt lat="45.521304369309895" lon="10.729681491187012"><ele>90.0</ele><time>2026-04-12T13:21:42Z</time></trkpt><trkpt lat="45.52113718924725" lon="10.729690031321669"><ele>89.0</ele><time>2026-04-12T13:21:43Z</time></trkpt><trkpt lat="45.52097274086906" lon="10.729675231495024"><ele>88.0</ele><time>2026-04-12T13:21:44Z</time></trkpt><trkpt lat="45.52080763680726" lon="10.729683548887417"><ele>88.0</ele><time>2026-04-12T13:21:45Z</time></trkpt><trkpt lat="45.5206361742268" lon="10.72969311008028"><ele>88.0</ele><time>2026-04-12T13:21:46Z</time></trkpt><trkpt lat="45.520460053765206" lon="10.729702703731283"><ele>88.0</ele><time>2026-04-12T13:21:47Z</time></trkpt><trkpt lat="45.520287595446796" lon="10.729713459879687"><ele>86.66666666666666</ele><time>2026-04-12T13:21:48Z</time></trkpt><trkpt lat="45.52011207054144" lon="10.729724407297873"><ele>85.33333333333333</ele><time>2026-04-12T13:21:49Z</time></trkpt><trkpt lat="45.51994453583271" lon="10.729735545553714"><ele>84.0</ele><time>2026-04-12T13:21:50Z</time></trkpt><trkpt lat="45.51978311331355" lon="10.729749105815786"><ele>84.0</ele><time>2026-04-12T13:21:51.001Z</time></trkpt><trkpt lat="45.51963259961717" lon="10.729768971627236"><ele>84.0</ele><time>2026-04-12T13:21:52.001Z</time></trkpt><trkpt lat="45.51948494400065" lon="10.729801190715147"><ele>84.0</ele><time>2026-04-12T13:21:53.001Z</time></trkpt><trkpt lat="45.519341724059366" lon="10.72984408621914"><ele>84.0</ele><time>2026-04-12T13:21:54.001Z</time></trkpt><trkpt lat="45.5191984922356" lon="10.72989308127493"><ele>84.66666666666667</ele><time>2026-04-12T13:21:55.001Z</time></trkpt><trkpt lat="45.51905317215889" lon="10.72994508820424"><ele>85.33333333333334</ele><time>2026-04-12T13:21:56.001Z</time></trkpt><trkpt lat="45.51890448554885" lon="10.730000035061893"><ele>86.0</ele><time>2026-04-12T13:21:57.001Z</time></trkpt><trkpt lat="45.51874920548274" lon="10.730060089471046"><ele>86.33333333333334</ele><time>2026-04-12T13:21:58.001Z</time></trkpt><trkpt lat="45.51859688410909" lon="10.730118999691708"><ele>86.66666666666667</ele><time>2026-04-12T13:21:59.001Z</time></trkpt><trkpt lat="45.51845048328328" lon="10.730175620111154"><ele>87.0</ele><time>2026-04-12T13:22:00.001Z</time></trkpt><trkpt lat="45.51830952242347" lon="10.730230136694132"><ele>87.0</ele><time>2026-04-12T13:22:01.001Z</time></trkpt><trkpt lat="45.51817896684923" lon="10.730303322181676"><ele>87.0</ele><time>2026-04-12T13:22:02.001Z</time></trkpt><trkpt lat="45.51804826626481" lon="10.730350321489645"><ele>87.0</ele><time>2026-04-12T13:22:03.001Z</time></trkpt><trkpt lat="45.51791866392308" lon="10.730401239200663"><ele>87.0</ele><time>2026-04-12T13:22:04.001Z</time></trkpt><trkpt lat="45.517793433081316" lon="10.73042822017112"><ele>87.0</ele><time>2026-04-12T13:22:05.001Z</time></trkpt><trkpt lat="45.517672370262694" lon="10.73047260464819"><ele>87.0</ele><time>2026-04-12T13:22:06.001Z</time></trkpt><trkpt lat="45.517549930150025" lon="10.730517493698303"><ele>87.0</ele><time>2026-04-12T13:22:07.001Z</time></trkpt><trkpt lat="45.5174187525627" lon="10.730565134428277"><ele>87.0</ele><time>2026-04-12T13:22:08.001Z</time></trkpt><trkpt lat="45.51728130733611" lon="10.730615089443363"><ele>87.0</ele><time>2026-04-12T13:22:09.001Z</time></trkpt><trkpt lat="45.517137680972844" lon="10.730664539730093"><ele>87.0</ele><time>2026-04-12T13:22:10.001Z</time></trkpt><trkpt lat="45.516982001046195" lon="10.730717698698546"><ele>87.0</ele><time>2026-04-12T13:22:11.001Z</time></trkpt><trkpt lat="45.51682539970849" lon="10.730768636122072"><ele>85.0</ele><time>2026-04-12T13:22:12.001Z</time></trkpt><trkpt lat="45.516678377400524" lon="10.730816428669682"><ele>83.0</ele><time>2026-04-12T13:22:13.001Z</time></trkpt><trkpt lat="45.51653120310788" lon="10.730863602609526"><ele>81.0</ele><time>2026-04-12T13:22:14.001Z</time></trkpt><trkpt lat="45.5163871485077" lon="10.73090936159646"><ele>79.0</ele><time>2026-04-12T13:22:15.001Z</time></trkpt><trkpt lat="45.516242993739084" lon="10.73095480768171"><ele>78.33333333333333</ele><time>2026-04-12T13:22:16.001Z</time></trkpt><trkpt lat="45.516089853644665" lon="10.73100226928649"><ele>77.66666666666667</ele><time>2026-04-12T13:22:17.001Z</time></trkpt><trkpt lat="45.51592624077937" lon="10.731052976637015"><ele>77.0</ele><time>2026-04-12T13:22:18.001Z</time></trkpt><trkpt lat="45.515752985901905" lon="10.731106672330181"><ele>77.33333333333334</ele><time>2026-04-12T13:22:19.001Z</time></trkpt><trkpt lat="45.51558312920681" lon="10.731159314834777"><ele>77.66666666666667</ele><time>2026-04-12T13:22:20.001Z</time></trkpt><trkpt lat="45.51540566537016" lon="10.731214314947952"><ele>78.0</ele><time>2026-04-12T13:22:21.001Z</time></trkpt><trkpt lat="45.515216491591296" lon="10.73127294429921"><ele>78.0</ele><time>2026-04-12T13:22:22.001Z</time></trkpt><trkpt lat="45.51501179808691" lon="10.731336383472092"><ele>78.0</ele><time>2026-04-12T13:22:23.001Z</time></trkpt><trkpt lat="45.514810774003216" lon="10.731399167397278"><ele>78.0</ele><time>2026-04-12T13:22:24.001Z</time></trkpt><trkpt lat="45.514622624136315" lon="10.73145807331907"><ele>77.33333333333333</ele><time>2026-04-12T13:22:25.001Z</time></trkpt><trkpt lat="45.51443979305711" lon="10.731515314068513"><ele>76.66666666666666</ele><time>2026-04-12T13:22:26.001Z</time></trkpt><trkpt lat="45.514262204650095" lon="10.731571178721207"><ele>76.0</ele><time>2026-04-12T13:22:27.001Z</time></trkpt><trkpt lat="45.51408558419946" lon="10.731629893757916"><ele>76.0</ele><time>2026-04-12T13:22:28.001Z</time></trkpt><trkpt lat="45.51392074021362" lon="10.73168994869036"><ele>76.0</ele><time>2026-04-12T13:22:29.001Z</time></trkpt><trkpt lat="45.513763266978984" lon="10.731752019030026"><ele>76.0</ele><time>2026-04-12T13:22:30.001Z</time></trkpt><trkpt lat="45.51361333043989" lon="10.731813545956701"><ele>76.0</ele><time>2026-04-12T13:22:31.001Z</time></trkpt><trkpt lat="45.513477555705116" lon="10.73186995381417"><ele>76.0</ele><time>2026-04-12T13:22:32.001Z</time></trkpt><trkpt lat="45.51334907730689" lon="10.731925091575722"><ele>76.0</ele><time>2026-04-12T13:22:33.001Z</time></trkpt><trkpt lat="45.513234950002385" lon="10.731974982924248"><ele>76.0</ele><time>2026-04-12T13:22:34.001Z</time></trkpt><trkpt lat="45.513118815692856" lon="10.7320271418511"><ele>76.2</ele><time>2026-04-12T13:22:35.001Z</time></trkpt><trkpt lat="45.513009574136504" lon="10.732076524030663"><ele>76.39999999999999</ele><time>2026-04-12T13:22:36.001Z</time></trkpt><trkpt lat="45.51290635980734" lon="10.73212318153536"><ele>76.6</ele><time>2026-04-12T13:22:37.001Z</time></trkpt><trkpt lat="45.512806950977314" lon="10.732169389730778"><ele>76.8</ele><time>2026-04-12T13:22:38.001Z</time></trkpt><trkpt lat="45.51270304306122" lon="10.732217688589715"><ele>77.0</ele><time>2026-04-12T13:22:39.001Z</time></trkpt><trkpt lat="45.512616600122904" lon="10.732257869364656"><ele>77.0</ele><time>2026-04-12T13:22:40.001Z</time></trkpt><trkpt lat="45.51252446834681" lon="10.732300694504989"><ele>77.0</ele><time>2026-04-12T13:22:41.001Z</time></trkpt><trkpt lat="45.51243099161925" lon="10.7323441447388"><ele>77.0</ele><time>2026-04-12T13:22:42.001Z</time></trkpt><trkpt lat="45.51233338341945" lon="10.732389515407945"><ele>77.0</ele><time>2026-04-12T13:22:43.001Z</time></trkpt><trkpt lat="45.51223595092135" lon="10.732434804440205"><ele>77.0</ele><time>2026-04-12T13:22:44.001Z</time></trkpt><trkpt lat="45.512140915268546" lon="10.73247897930899"><ele>76.0</ele><time>2026-04-12T13:22:45.001Z</time></trkpt><trkpt lat="45.512048794131246" lon="10.73252179948317"><ele>75.0</ele><time>2026-04-12T13:22:46.001Z</time></trkpt><trkpt lat="45.51194946596701" lon="10.732566745387532"><ele>74.0</ele><time>2026-04-12T13:22:47.001Z</time></trkpt><trkpt lat="45.51185317533942" lon="10.732612706967252"><ele>73.0</ele><time>2026-04-12T13:22:48.001Z</time></trkpt><trkpt lat="45.51174657520717" lon="10.732661081655825"><ele>72.0</ele><time>2026-04-12T13:22:49.001Z</time></trkpt><trkpt lat="45.51164919252411" lon="10.732705928929933"><ele>72.25</ele><time>2026-04-12T13:22:50Z</time></trkpt><trkpt lat="45.51154665424148" lon="10.732754324751507"><ele>72.5</ele><time>2026-04-12T13:22:51Z</time></trkpt><trkpt lat="45.51144089908024" lon="10.732804238866954"><ele>72.75</ele><time>2026-04-12T13:22:52Z</time></trkpt><trkpt lat="45.51133204156228" lon="10.732855617174653"><ele>73.0</ele><time>2026-04-12T13:22:53Z</time></trkpt><trkpt lat="45.511222090013" lon="10.732907511882535"><ele>73.0</ele><time>2026-04-12T13:22:54Z</time></trkpt><trkpt lat="45.51111016470851" lon="10.732960338159529"><ele>73.0</ele><time>2026-04-12T13:22:55Z</time></trkpt><trkpt lat="45.510998221167206" lon="10.733013173991827"><ele>73.0</ele><time>2026-04-12T13:22:56Z</time></trkpt><trkpt lat="45.510883917160854" lon="10.7330674380341"><ele>73.0</ele><time>2026-04-12T13:22:57Z</time></trkpt><trkpt lat="45.51077297360916" lon="10.733120010970199"><ele>73.0</ele><time>2026-04-12T13:22:58Z</time></trkpt><trkpt lat="45.51066995583668" lon="10.733168828147887"><ele>73.0</ele><time>2026-04-12T13:22:59Z</time></trkpt><trkpt lat="45.51057245092719" lon="10.733215033149534"><ele>73.0</ele><time>2026-04-12T13:23:00Z</time></trkpt><trkpt lat="45.510475476989065" lon="10.73325897818801"><ele>73.0</ele><time>2026-04-12T13:23:01Z</time></trkpt><trkpt lat="45.510378035917476" lon="10.733303137348932"><ele>73.0</ele><time>2026-04-12T13:23:02Z</time></trkpt><trkpt lat="45.510276794570416" lon="10.733349293763926"><ele>72.8</ele><time>2026-04-12T13:23:03Z</time></trkpt><trkpt lat="45.51017858146485" lon="10.733394037122322"><ele>72.6</ele><time>2026-04-12T13:23:04Z</time></trkpt><trkpt lat="45.5100845081329" lon="10.733436894513614"><ele>72.4</ele><time>2026-04-12T13:23:05Z</time></trkpt><trkpt lat="45.509991235574766" lon="10.733479387931855"><ele>72.2</ele><time>2026-04-12T13:23:06Z</time></trkpt><trkpt lat="45.50989426173179" lon="10.733523775380256"><ele>72.0</ele><time>2026-04-12T13:23:07Z</time></trkpt><trkpt lat="45.509797607018086" lon="10.733567948914912"><ele>72.4</ele><time>2026-04-12T13:23:08Z</time></trkpt><trkpt lat="45.50970261431025" lon="10.733646147281812"><ele>72.80000000000001</ele><time>2026-04-12T13:23:09Z</time></trkpt><trkpt lat="45.50961095619908" lon="10.733689921265633"><ele>73.2</ele><time>2026-04-12T13:23:10Z</time></trkpt><trkpt lat="45.5095204775831" lon="10.733737410676548"><ele>73.60000000000001</ele><time>2026-04-12T13:23:11Z</time></trkpt><trkpt lat="45.50943378307895" lon="10.733777430054767"><ele>74.0</ele><time>2026-04-12T13:23:12Z</time></trkpt><trkpt lat="45.50934885357215" lon="10.733812482669812"><ele>74.0</ele><time>2026-04-12T13:23:13Z</time></trkpt><trkpt lat="45.50926319863826" lon="10.733848392203578"><ele>74.0</ele><time>2026-04-12T13:23:14Z</time></trkpt><trkpt lat="45.50917090343163" lon="10.733891101868876"><ele>74.0</ele><time>2026-04-12T13:23:15Z</time></trkpt><trkpt lat="45.50907524698875" lon="10.733938395649544"><ele>74.0</ele><time>2026-04-12T13:23:16Z</time></trkpt><trkpt lat="45.508982032647594" lon="10.733944129582117"><ele>74.0</ele><time>2026-04-12T13:23:17Z</time></trkpt><trkpt lat="45.50890806533704" lon="10.734019248200548"><ele>74.0</ele><time>2026-04-12T13:23:18Z</time></trkpt><trkpt lat="45.508832213960915" lon="10.734057157104996"><ele>74.0</ele><time>2026-04-12T13:23:19Z</time></trkpt><trkpt lat="45.50875434485561" lon="10.734093208591327"><ele>74.0</ele><time>2026-04-12T13:23:20Z</time></trkpt><trkpt lat="45.50867437224131" lon="10.734128486158605"><ele>74.0</ele><time>2026-04-12T13:23:21Z</time></trkpt><trkpt lat="45.50859307253239" lon="10.734163681886667"><ele>74.0</ele><time>2026-04-12T13:23:22Z</time></trkpt><trkpt lat="45.508504267501166" lon="10.734168390073606"><ele>74.0</ele><time>2026-04-12T13:23:23Z</time></trkpt><trkpt lat="45.50841895255913" lon="10.734208003703824"><ele>73.8</ele><time>2026-04-12T13:23:24Z</time></trkpt><trkpt lat="45.50833038210596" lon="10.73424939653478"><ele>73.60000000000001</ele><time>2026-04-12T13:23:25Z</time></trkpt><trkpt lat="45.50824408891881" lon="10.734314310441256"><ele>73.4</ele><time>2026-04-12T13:23:26Z</time></trkpt><trkpt lat="45.50814864274459" lon="10.734354062578301"><ele>73.2</ele><time>2026-04-12T13:23:27Z</time></trkpt><trkpt lat="45.5080531191274" lon="10.734399170498543"><ele>73.0</ele><time>2026-04-12T13:23:28Z</time></trkpt><trkpt lat="45.50796131530784" lon="10.734441478417727"><ele>73.0</ele><time>2026-04-12T13:23:29Z</time></trkpt><trkpt lat="45.507874789800766" lon="10.734481487446441"><ele>73.0</ele><time>2026-04-12T13:23:30Z</time></trkpt><trkpt lat="45.50779247246642" lon="10.734521608104682"><ele>73.0</ele><time>2026-04-12T13:23:31Z</time></trkpt><trkpt lat="45.5077045489854" lon="10.734541694047456"><ele>73.0</ele><time>2026-04-12T13:23:32Z</time></trkpt><trkpt lat="45.507624270940816" lon="10.734599016990616"><ele>73.0</ele><time>2026-04-12T13:23:33Z</time></trkpt><trkpt lat="45.507534645711296" lon="10.73463392378703"><ele>73.0</ele><time>2026-04-12T13:23:34Z</time></trkpt><trkpt lat="45.50744068153258" lon="10.734687928272281"><ele>73.0</ele><time>2026-04-12T13:23:35Z</time></trkpt><trkpt lat="45.50734244698754" lon="10.734732390910546"><ele>73.0</ele><time>2026-04-12T13:23:36Z</time></trkpt><trkpt lat="45.507243020912476" lon="10.734788496184008"><ele>73.0</ele><time>2026-04-12T13:23:37Z</time></trkpt><trkpt lat="45.507137084536005" lon="10.73483195034095"><ele>73.0</ele><time>2026-04-12T13:23:38Z</time></trkpt><trkpt lat="45.50703386192432" lon="10.734867569810827"><ele>73.0</ele><time>2026-04-12T13:23:39Z</time></trkpt><trkpt lat="45.506927301435496" lon="10.734898723108671"><ele>73.0</ele><time>2026-04-12T13:23:40Z</time></trkpt><trkpt lat="45.50683053939563" lon="10.734924810425472"><ele>73.0</ele><time>2026-04-12T13:23:41Z</time></trkpt><trkpt lat="45.506737333575316" lon="10.734948845470552"><ele>73.0</ele><time>2026-04-12T13:23:42Z</time></trkpt><trkpt lat="45.50665506981813" lon="10.734966763508003"><ele>73.0</ele><time>2026-04-12T13:23:43Z</time></trkpt><trkpt lat="45.506575497237115" lon="10.734978899060437"><ele>73.0</ele><time>2026-04-12T13:23:44Z</time></trkpt><trkpt lat="45.506504486383534" lon="10.73499141168246"><ele>73.0</ele><time>2026-04-12T13:23:45Z</time></trkpt><trkpt lat="45.50643776230843" lon="10.735010909648395"><ele>73.0</ele><time>2026-04-12T13:23:47Z</time></trkpt><trkpt lat="45.506357766473535" lon="10.735020791710475"><ele>73.0</ele><time>2026-04-12T13:23:54Z</time></trkpt><trkpt lat="45.506295486584776" lon="10.735007041899213"><ele>73.0</ele><time>2026-04-12T13:23:58Z</time></trkpt><trkpt lat="45.50621427917357" lon="10.73501926863261"><ele>73.0</ele><time>2026-04-12T13:24:02.001Z</time></trkpt><trkpt lat="45.50614072998935" lon="10.735039259708632"><ele>73.0</ele><time>2026-04-12T13:24:04.001Z</time></trkpt><trkpt lat="45.50606570781982" lon="10.735112948930993"><ele>72.8</ele><time>2026-04-12T13:24:06.001Z</time></trkpt><trkpt lat="45.505952851616364" lon="10.735143701003269"><ele>72.6</ele><time>2026-04-12T13:24:08.001Z</time></trkpt><trkpt lat="45.50587011274612" lon="10.735156421237189"><ele>72.4</ele><time>2026-04-12T13:24:10.001Z</time></trkpt><trkpt lat="45.50579116761491" lon="10.735154481038178"><ele>72.2</ele><time>2026-04-12T13:24:12.001Z</time></trkpt><trkpt lat="45.50570854598863" lon="10.735119043231792"><ele>72.0</ele><time>2026-04-12T13:24:14.001Z</time></trkpt><trkpt lat="45.50562450483483" lon="10.735157715758856"><ele>72.0</ele><time>2026-04-12T13:24:16.001Z</time></trkpt><trkpt lat="45.505548694235316" lon="10.735160757932178"><ele>72.0</ele><time>2026-04-12T13:24:20.001Z</time></trkpt><trkpt lat="45.50548017923744" lon="10.735176064291037"><ele>72.0</ele><time>2026-04-12T13:24:23.001Z</time></trkpt><trkpt lat="45.505361632804465" lon="10.735201289794754"><ele>72.0</ele><time>2026-04-12T13:24:25.001Z</time></trkpt><trkpt lat="45.505297933920325" lon="10.73521484450591"><ele>72.0</ele><time>2026-04-12T13:24:26.001Z</time></trkpt><trkpt lat="45.50522762353022" lon="10.735229531673953"><ele>72.0</ele><time>2026-04-12T13:24:27.001Z</time></trkpt><trkpt lat="45.505156491123984" lon="10.735244472562128"><ele>72.5</ele><time>2026-04-12T13:24:28.001Z</time></trkpt><trkpt lat="45.50508218321914" lon="10.735280057741873"><ele>73.0</ele><time>2026-04-12T13:24:29.001Z</time></trkpt><trkpt lat="45.50500363603331" lon="10.735299859042406"><ele>73.5</ele><time>2026-04-12T13:24:30.001Z</time></trkpt><trkpt lat="45.504925188636534" lon="10.735292993766985"><ele>74.0</ele><time>2026-04-12T13:24:31.001Z</time></trkpt><trkpt lat="45.504860222313674" lon="10.735322548424442"><ele>74.5</ele><time>2026-04-12T13:24:32.001Z</time></trkpt><trkpt lat="45.50475776071995" lon="10.735313203782013"><ele>75.0</ele><time>2026-04-12T13:24:34.001Z</time></trkpt><trkpt lat="45.50469352274062" lon="10.735329980421428"><ele>74.99999999999999</ele><time>2026-04-12T13:24:36.001Z</time></trkpt><trkpt lat="45.50462644729084" lon="10.735347678574916"><ele>75.0</ele><time>2026-04-12T13:25:16Z</time></trkpt><trkpt lat="45.504548471052594" lon="10.73538185557567"><ele>75.0</ele><time>2026-04-12T13:25:24Z</time></trkpt><trkpt lat="45.50447781924151" lon="10.735402553882018"><ele>75.0</ele><time>2026-04-12T13:25:26Z</time></trkpt><trkpt lat="45.50440194897505" lon="10.735406705505259"><ele>75.0</ele><time>2026-04-12T13:25:28Z</time></trkpt><trkpt lat="45.50433681761441" lon="10.735416174168853"><ele>74.99999999999999</ele><time>2026-04-12T13:25:30Z</time></trkpt><trkpt lat="45.50426482617612" lon="10.735422747809455"><ele>75.0</ele><time>2026-04-12T13:25:33Z</time></trkpt><trkpt lat="45.50416625419728" lon="10.735439274099983"><ele>74.85714285714285</ele><time>2026-04-12T13:25:35Z</time></trkpt><trkpt lat="45.504092107775215" lon="10.735440777977825"><ele>74.71428571428571</ele><time>2026-04-12T13:25:36Z</time></trkpt><trkpt lat="45.50402518134667" lon="10.73544778295357"><ele>74.57142857142857</ele><time>2026-04-12T13:25:37Z</time></trkpt><trkpt lat="45.50396258553521" lon="10.735478497075615"><ele>74.42857142857142</ele><time>2026-04-12T13:25:38Z</time></trkpt><trkpt lat="45.503902716343596" lon="10.735515264970536"><ele>74.28571428571428</ele><time>2026-04-12T13:25:39Z</time></trkpt><trkpt lat="45.503842659682235" lon="10.73555459863118"><ele>74.14285714285714</ele><time>2026-04-12T13:25:40Z</time></trkpt><trkpt lat="45.503772048376455" lon="10.735588418212538"><ele>74.0</ele><time>2026-04-12T13:25:41Z</time></trkpt><trkpt lat="45.50368813567473" lon="10.73560699613605"><ele>74.0</ele><time>2026-04-12T13:25:42Z</time></trkpt><trkpt lat="45.50359520511558" lon="10.735628405865745"><ele>74.0</ele><time>2026-04-12T13:25:43Z</time></trkpt><trkpt lat="45.503488126362335" lon="10.735656089562818"><ele>74.0</ele><time>2026-04-12T13:25:44Z</time></trkpt><trkpt lat="45.5033597143143" lon="10.735660046300383"><ele>74.0</ele><time>2026-04-12T13:25:45Z</time></trkpt><trkpt lat="45.50322642208934" lon="10.735697409816163"><ele>74.0</ele><time>2026-04-12T13:25:46Z</time></trkpt><trkpt lat="45.503087996771036" lon="10.735738276587348"><ele>74.0</ele><time>2026-04-12T13:25:47Z</time></trkpt><trkpt lat="45.50295464768362" lon="10.735781562777841"><ele>74.0</ele><time>2026-04-12T13:25:48Z</time></trkpt><trkpt lat="45.5028337106257" lon="10.735831867149727"><ele>74.0</ele><time>2026-04-12T13:25:49Z</time></trkpt><trkpt lat="45.50272455694649" lon="10.735881997233966"><ele>74.25</ele><time>2026-04-12T13:25:50Z</time></trkpt><trkpt lat="45.50261955772087" lon="10.735963786073794"><ele>74.5</ele><time>2026-04-12T13:25:51Z</time></trkpt><trkpt lat="45.50250918942047" lon="10.73602831539026"><ele>74.75</ele><time>2026-04-12T13:25:52Z</time></trkpt><trkpt lat="45.50240241052789" lon="10.736095570321673"><ele>75.0</ele><time>2026-04-12T13:25:53Z</time></trkpt><trkpt lat="45.50229458058638" lon="10.736162540799487"><ele>75.8</ele><time>2026-04-12T13:25:54Z</time></trkpt><trkpt lat="45.502177806446475" lon="10.736191811683247"><ele>76.6</ele><time>2026-04-12T13:25:55Z</time></trkpt><trkpt lat="45.50207086775725" lon="10.736253419218269"><ele>77.4</ele><time>2026-04-12T13:25:56Z</time></trkpt><trkpt lat="45.501969531366534" lon="10.736311799212384"><ele>78.2</ele><time>2026-04-12T13:25:57Z</time></trkpt><trkpt lat="45.501880167320465" lon="10.736363281873109"><ele>79.0</ele><time>2026-04-12T13:25:58Z</time></trkpt><trkpt lat="45.50180077816103" lon="10.736409016990791"><ele>79.5</ele><time>2026-04-12T13:25:59Z</time></trkpt><trkpt lat="45.50172225364114" lon="10.736454668341542"><ele>80.0</ele><time>2026-04-12T13:26:00Z</time></trkpt><trkpt lat="45.50165919792866" lon="10.736517105669538"><ele>80.5</ele><time>2026-04-12T13:26:01Z</time></trkpt><trkpt lat="45.5015823642487" lon="10.736536924350998"><ele>81.0</ele><time>2026-04-12T13:26:02Z</time></trkpt><trkpt lat="45.50151133314405" lon="10.736578691191102"><ele>81.5</ele><time>2026-04-12T13:26:03.001Z</time></trkpt><trkpt lat="45.501443086227354" lon="10.736618655836672"><ele>82.0</ele><time>2026-04-12T13:26:04.001Z</time></trkpt><trkpt lat="45.50136764918678" lon="10.736662569746102"><ele>82.0</ele><time>2026-04-12T13:26:05.001Z</time></trkpt><trkpt lat="45.50127828353447" lon="10.73671191594035"><ele>82.0</ele><time>2026-04-12T13:26:06.001Z</time></trkpt><trkpt lat="45.50119207615099" lon="10.736755764752493"><ele>82.0</ele><time>2026-04-12T13:26:07.001Z</time></trkpt><trkpt lat="45.50110202934078" lon="10.736794670943192"><ele>82.0</ele><time>2026-04-12T13:26:08.001Z</time></trkpt><trkpt lat="45.50100729431766" lon="10.736826751828854"><ele>82.0</ele><time>2026-04-12T13:26:09.001Z</time></trkpt><trkpt lat="45.50090140598452" lon="10.736857825027988"><ele>83.0</ele><time>2026-04-12T13:26:10.001Z</time></trkpt><trkpt lat="45.50078717382948" lon="10.736891346527777"><ele>84.0</ele><time>2026-04-12T13:26:11.001Z</time></trkpt><trkpt lat="45.50067058168978" lon="10.736925560757186"><ele>85.0</ele><time>2026-04-12T13:26:12.001Z</time></trkpt><trkpt lat="45.50054862498391" lon="10.736961349188368"><ele>86.0</ele><time>2026-04-12T13:26:13.001Z</time></trkpt><trkpt lat="45.500424494047245" lon="10.736997775714373"><ele>86.0</ele><time>2026-04-12T13:26:14.001Z</time></trkpt><trkpt lat="45.500298601151556" lon="10.737032753288348"><ele>86.0</ele><time>2026-04-12T13:26:15.001Z</time></trkpt><trkpt lat="45.50017126206514" lon="10.737066773361246"><ele>86.0</ele><time>2026-04-12T13:26:16.001Z</time></trkpt><trkpt lat="45.50004968408602" lon="10.737099254534366"><ele>86.0</ele><time>2026-04-12T13:26:17.001Z</time></trkpt><trkpt lat="45.49994071940796" lon="10.737127180691246"><ele>86.0</ele><time>2026-04-12T13:26:18.001Z</time></trkpt><trkpt lat="45.499851476032006" lon="10.737173525336168"><ele>86.0</ele><time>2026-04-12T13:26:19.001Z</time></trkpt><trkpt lat="45.49976044215476" lon="10.737173338727386"><ele>86.0</ele><time>2026-04-12T13:26:20.001Z</time></trkpt><trkpt lat="45.499655601238686" lon="10.737200456339849"><ele>86.0</ele><time>2026-04-12T13:26:21.001Z</time></trkpt><trkpt lat="45.49954730101416" lon="10.737233723685879"><ele>86.0</ele><time>2026-04-12T13:26:22.001Z</time></trkpt><trkpt lat="45.49944886182379" lon="10.737268379626025"><ele>86.0</ele><time>2026-04-12T13:26:23.001Z</time></trkpt><trkpt lat="45.49937987101387" lon="10.737321021236156"><ele>86.0</ele><time>2026-04-12T13:26:24.001Z</time></trkpt><trkpt lat="45.49927665172599" lon="10.737338962874325"><ele>86.0</ele><time>2026-04-12T13:26:26.001Z</time></trkpt><trkpt lat="45.49921810281599" lon="10.737381604710967"><ele>86.0</ele><time>2026-04-12T13:26:29.001Z</time></trkpt><trkpt lat="45.499146403765465" lon="10.737442876857505"><ele>86.0</ele><time>2026-04-12T13:32:42Z</time></trkpt><trkpt lat="45.49902766830441" lon="10.737517629281761"><ele>86.0</ele><time>2026-04-12T13:32:44Z</time></trkpt><trkpt lat="45.498954422556615" lon="10.73755715419259"><ele>86.0</ele><time>2026-04-12T13:32:45.001Z</time></trkpt><trkpt lat="45.498882237862844" lon="10.737596804638901"><ele>86.0</ele><time>2026-04-12T13:32:46.001Z</time></trkpt><trkpt lat="45.49880073020273" lon="10.73764585196741"><ele>86.0</ele><time>2026-04-12T13:32:47.001Z</time></trkpt><trkpt lat="45.498712084347524" lon="10.737702412154093"><ele>86.0</ele><time>2026-04-12T13:32:48.001Z</time></trkpt><trkpt lat="45.498618009363476" lon="10.737763847172006"><ele>86.0</ele><time>2026-04-12T13:32:49.001Z</time></trkpt><trkpt lat="45.4985257573021" lon="10.737820857639473"><ele>87.0</ele><time>2026-04-12T13:32:50.001Z</time></trkpt><trkpt lat="45.498435324218335" lon="10.737874978772368"><ele>88.0</ele><time>2026-04-12T13:32:51.001Z</time></trkpt><trkpt lat="45.49833732803504" lon="10.737923050315048"><ele>89.0</ele><time>2026-04-12T13:32:52.001Z</time></trkpt><trkpt lat="45.49823740688596" lon="10.737965802218902"><ele>90.0</ele><time>2026-04-12T13:32:53.001Z</time></trkpt><trkpt lat="45.49813286608207" lon="10.738006115168762"><ele>91.0</ele><time>2026-04-12T13:32:54.001Z</time></trkpt><trkpt lat="45.49802035984822" lon="10.738046595146226"><ele>92.0</ele><time>2026-04-12T13:32:55.001Z</time></trkpt><trkpt lat="45.49790035866283" lon="10.738083311640708"><ele>93.0</ele><time>2026-04-12T13:32:56.001Z</time></trkpt><trkpt lat="45.49777547590612" lon="10.738118681586885"><ele>94.0</ele><time>2026-04-12T13:32:57.001Z</time></trkpt><trkpt lat="45.497647042977974" lon="10.738154828090986"><ele>95.0</ele><time>2026-04-12T13:32:58.001Z</time></trkpt><trkpt lat="45.49751542640259" lon="10.738191231160833"><ele>95.0</ele><time>2026-04-12T13:32:59.001Z</time></trkpt><trkpt lat="45.49737840498908" lon="10.738218526794567"><ele>95.0</ele><time>2026-04-12T13:33:00.001Z</time></trkpt><trkpt lat="45.49723895791523" lon="10.738246558745102"><ele>95.0</ele><time>2026-04-12T13:33:01.001Z</time></trkpt><trkpt lat="45.49709670605849" lon="10.738278190015034"><ele>95.0</ele><time>2026-04-12T13:33:02.001Z</time></trkpt><trkpt lat="45.49694590325788" lon="10.738306203110673"><ele>94.66666666666667</ele><time>2026-04-12T13:33:03.001Z</time></trkpt><trkpt lat="45.496791343664164" lon="10.738333052936982"><ele>94.33333333333333</ele><time>2026-04-12T13:33:04.001Z</time></trkpt><trkpt lat="45.49663807250595" lon="10.738361758846224"><ele>94.0</ele><time>2026-04-12T13:33:05.001Z</time></trkpt><trkpt lat="45.49648196808668" lon="10.738396909151822"><ele>94.0</ele><time>2026-04-12T13:33:06.001Z</time></trkpt><trkpt lat="45.49632577236135" lon="10.738430187922946"><ele>94.0</ele><time>2026-04-12T13:33:07.001Z</time></trkpt><trkpt lat="45.49617279905555" lon="10.738459241841655"><ele>94.0</ele><time>2026-04-12T13:33:08.001Z</time></trkpt><trkpt lat="45.49601542607276" lon="10.7384892815122"><ele>95.0</ele><time>2026-04-12T13:33:09.001Z</time></trkpt><trkpt lat="45.49585809725253" lon="10.738520741335972"><ele>96.0</ele><time>2026-04-12T13:33:10.001Z</time></trkpt><trkpt lat="45.49570684451739" lon="10.738550563738642"><ele>97.0</ele><time>2026-04-12T13:33:11.001Z</time></trkpt><trkpt lat="45.49555043389757" lon="10.738581217656694"><ele>98.66666666666667</ele><time>2026-04-12T13:33:12.001Z</time></trkpt><trkpt lat="45.49539438929259" lon="10.738611518017459"><ele>100.33333333333334</ele><time>2026-04-12T13:33:13.001Z</time></trkpt><trkpt lat="45.495242996262455" lon="10.738638071589472"><ele>102.0</ele><time>2026-04-12T13:33:14.001Z</time></trkpt><trkpt lat="45.49508924376162" lon="10.738663795042125"><ele>102.0</ele><time>2026-04-12T13:33:15.001Z</time></trkpt><trkpt lat="45.49493755735174" lon="10.738687214930948"><ele>102.0</ele><time>2026-04-12T13:33:16.001Z</time></trkpt><trkpt lat="45.49478172881203" lon="10.738704219558564"><ele>102.0</ele><time>2026-04-12T13:33:17.001Z</time></trkpt><trkpt lat="45.49463214103394" lon="10.738705915816746"><ele>102.5</ele><time>2026-04-12T13:33:18.001Z</time></trkpt><trkpt lat="45.49448068523012" lon="10.738703528265122"><ele>103.0</ele><time>2026-04-12T13:33:19.001Z</time></trkpt><trkpt lat="45.49433040034495" lon="10.738688236532433"><ele>103.5</ele><time>2026-04-12T13:33:19.999Z</time></trkpt><trkpt lat="45.49418542521047" lon="10.738669300926924"><ele>104.0</ele><time>2026-04-12T13:33:20.999Z</time></trkpt><trkpt lat="45.49404125727161" lon="10.73864098196107"><ele>104.0</ele><time>2026-04-12T13:33:21.999Z</time></trkpt><trkpt lat="45.49389516378504" lon="10.738607045027809"><ele>104.0</ele><time>2026-04-12T13:33:22.999Z</time></trkpt><trkpt lat="45.49375229023988" lon="10.738569565284712"><ele>104.0</ele><time>2026-04-12T13:33:23.999Z</time></trkpt><trkpt lat="45.49361244428233" lon="10.738528619737174"><ele>104.0</ele><time>2026-04-12T13:33:25Z</time></trkpt><trkpt lat="45.49347177205624" lon="10.738481944167674"><ele>104.0</ele><time>2026-04-12T13:33:26Z</time></trkpt><trkpt lat="45.49333617868492" lon="10.738431774928383"><ele>104.0</ele><time>2026-04-12T13:33:27Z</time></trkpt><trkpt lat="45.49320381506821" lon="10.738378094761513"><ele>104.0</ele><time>2026-04-12T13:33:28Z</time></trkpt><trkpt lat="45.49307126708636" lon="10.738326204044029"><ele>104.0</ele><time>2026-04-12T13:33:29Z</time></trkpt><trkpt lat="45.49296228897685" lon="10.738280830446525"><ele>104.33333333333333</ele><time>2026-04-12T13:33:30Z</time></trkpt><trkpt lat="45.49287646653962" lon="10.738243026672787"><ele>104.66666666666666</ele><time>2026-04-12T13:33:31Z</time></trkpt><trkpt lat="45.49281202362378" lon="10.738210430072977"><ele>105.0</ele><time>2026-04-12T13:33:32Z</time></trkpt><trkpt lat="45.49275057876912" lon="10.738179639024402"><ele>105.33333333333334</ele><time>2026-04-12T13:33:33Z</time></trkpt><trkpt lat="45.49268023678947" lon="10.738143165476844"><ele>105.66666666666667</ele><time>2026-04-12T13:33:34Z</time></trkpt><trkpt lat="45.492580133715656" lon="10.738107647264798"><ele>106.0</ele><time>2026-04-12T13:33:35Z</time></trkpt><trkpt lat="45.49245575129958" lon="10.738062309427834"><ele>106.0</ele><time>2026-04-12T13:33:36Z</time></trkpt><trkpt lat="45.492314411428445" lon="10.738008255967939"><ele>106.0</ele><time>2026-04-12T13:33:37Z</time></trkpt><trkpt lat="45.49216175514692" lon="10.737949821699788"><ele>106.0</ele><time>2026-04-12T13:33:38Z</time></trkpt><trkpt lat="45.49199757994947" lon="10.737886691704789"><ele>105.66666666666667</ele><time>2026-04-12T13:33:39Z</time></trkpt><trkpt lat="45.49182397798754" lon="10.737827480122245"><ele>105.33333333333334</ele><time>2026-04-12T13:33:40Z</time></trkpt><trkpt lat="45.49164080523669" lon="10.73776284773497"><ele>105.0</ele><time>2026-04-12T13:33:41Z</time></trkpt><trkpt lat="45.491451992062515" lon="10.73768712621372"><ele>105.0</ele><time>2026-04-12T13:33:42Z</time></trkpt><trkpt lat="45.491260003334006" lon="10.737622298310374"><ele>105.0</ele><time>2026-04-12T13:33:43Z</time></trkpt><trkpt lat="45.491070604011426" lon="10.737525847669987"><ele>105.0</ele><time>2026-04-12T13:33:44Z</time></trkpt><trkpt lat="45.49088307774613" lon="10.737452531574819"><ele>105.0</ele><time>2026-04-12T13:33:45Z</time></trkpt><trkpt lat="45.49069330542013" lon="10.737378789782545"><ele>105.0</ele><time>2026-04-12T13:33:46Z</time></trkpt><trkpt lat="45.49050299936765" lon="10.737304840584608"><ele>105.0</ele><time>2026-04-12T13:33:47Z</time></trkpt><trkpt lat="45.49031057986664" lon="10.737230070141152"><ele>105.33333333333334</ele><time>2026-04-12T13:33:48Z</time></trkpt><trkpt lat="45.49011713208189" lon="10.737154913216694"><ele>105.66666666666667</ele><time>2026-04-12T13:33:49Z</time></trkpt><trkpt lat="45.48992509120772" lon="10.73708084429402"><ele>106.0</ele><time>2026-04-12T13:33:50Z</time></trkpt><trkpt lat="45.48973380656351" lon="10.73700706702485"><ele>106.0</ele><time>2026-04-12T13:33:51Z</time></trkpt><trkpt lat="45.489545781697565" lon="10.736934547022978"><ele>106.0</ele><time>2026-04-12T13:33:52Z</time></trkpt><trkpt lat="45.48935379321139" lon="10.73688361660214"><ele>106.0</ele><time>2026-04-12T13:33:53Z</time></trkpt><trkpt lat="45.489167117468945" lon="10.736810400855124"><ele>106.0</ele><time>2026-04-12T13:33:54Z</time></trkpt><trkpt lat="45.488981506779055" lon="10.736735438814678"><ele>106.0</ele><time>2026-04-12T13:33:55Z</time></trkpt><trkpt lat="45.4887965078128" lon="10.73666125960491"><ele>106.0</ele><time>2026-04-12T13:33:56Z</time></trkpt><trkpt lat="45.48861183678102" lon="10.736588496301765"><ele>107.66666666666667</ele><time>2026-04-12T13:33:57Z</time></trkpt><trkpt lat="45.48843123551032" lon="10.736510891630179"><ele>109.33333333333334</ele><time>2026-04-12T13:33:58Z</time></trkpt><trkpt lat="45.48825326296958" lon="10.73643069809725"><ele>111.0</ele><time>2026-04-12T13:33:59Z</time></trkpt><trkpt lat="45.48808115110779" lon="10.736348130846853"><ele>111.66666666666666</ele><time>2026-04-12T13:34:00Z</time></trkpt><trkpt lat="45.48790810868632" lon="10.736258616466449"><ele>112.33333333333333</ele><time>2026-04-12T13:34:01Z</time></trkpt><trkpt lat="45.487744716785876" lon="10.736136414952762"><ele>113.0</ele><time>2026-04-12T13:34:02Z</time></trkpt><trkpt lat="45.487583740226505" lon="10.736018716162594"><ele>113.0</ele><time>2026-04-12T13:34:03Z</time></trkpt><trkpt lat="45.48741955599477" lon="10.735891070095768"><ele>113.0</ele><time>2026-04-12T13:34:04Z</time></trkpt><trkpt lat="45.48724576889576" lon="10.735777552717064"><ele>113.0</ele><time>2026-04-12T13:34:05Z</time></trkpt><trkpt lat="45.487082992957625" lon="10.735641046738586"><ele>113.66666666666666</ele><time>2026-04-12T13:34:06Z</time></trkpt><trkpt lat="45.4869136314773" lon="10.735506136218847"><ele>114.33333333333334</ele><time>2026-04-12T13:34:07Z</time></trkpt><trkpt lat="45.48674183829452" lon="10.735378785234102"><ele>115.0</ele><time>2026-04-12T13:34:08Z</time></trkpt><trkpt lat="45.486569546705496" lon="10.735242598630087"><ele>115.0</ele><time>2026-04-12T13:34:09Z</time></trkpt><trkpt lat="45.48640817879638" lon="10.735088702800857"><ele>115.0</ele><time>2026-04-12T13:34:10Z</time></trkpt><trkpt lat="45.48624143201824" lon="10.73495032017012"><ele>115.0</ele><time>2026-04-12T13:34:11Z</time></trkpt><trkpt lat="45.48607785442167" lon="10.734797426229967"><ele>115.0</ele><time>2026-04-12T13:34:12Z</time></trkpt><trkpt lat="45.48592009136043" lon="10.734637031077256"><ele>115.0</ele><time>2026-04-12T13:34:13Z</time></trkpt><trkpt lat="45.48577576949024" lon="10.734462984617823"><ele>115.0</ele><time>2026-04-12T13:34:14Z</time></trkpt><trkpt lat="45.48563865952114" lon="10.734271501549713"><ele>114.33333333333334</ele><time>2026-04-12T13:34:15.001Z</time></trkpt><trkpt lat="45.48551358715324" lon="10.734071814262334"><ele>113.66666666666666</ele><time>2026-04-12T13:34:16.001Z</time></trkpt><trkpt lat="45.4853984660563" lon="10.733866760140636"><ele>113.0</ele><time>2026-04-12T13:34:17.001Z</time></trkpt><trkpt lat="45.485291009531366" lon="10.733650617388374"><ele>113.0</ele><time>2026-04-12T13:34:18.001Z</time></trkpt><trkpt lat="45.485195926400884" lon="10.733424480106759"><ele>113.0</ele><time>2026-04-12T13:34:19.001Z</time></trkpt><trkpt lat="45.48510499864686" lon="10.733200111658572"><ele>113.0</ele><time>2026-04-12T13:34:20.001Z</time></trkpt><trkpt lat="45.48501961640843" lon="10.732983063104319"><ele>113.0</ele><time>2026-04-12T13:34:21.001Z</time></trkpt><trkpt lat="45.48492186997226" lon="10.732797495762284"><ele>113.0</ele><time>2026-04-12T13:34:22.001Z</time></trkpt><trkpt lat="45.48484969656266" lon="10.732603011800972"><ele>113.0</ele><time>2026-04-12T13:34:23.001Z</time></trkpt><trkpt lat="45.48473680431432" lon="10.732453722795592"><ele>112.66666666666666</ele><time>2026-04-12T13:34:24.001Z</time></trkpt><trkpt lat="45.48462048892709" lon="10.73229960144311"><ele>112.33333333333334</ele><time>2026-04-12T13:34:25.001Z</time></trkpt><trkpt lat="45.48449146642383" lon="10.732154753967254"><ele>112.0</ele><time>2026-04-12T13:34:26.001Z</time></trkpt><trkpt lat="45.4843701066574" lon="10.731996577683995"><ele>112.0</ele><time>2026-04-12T13:34:27.001Z</time></trkpt><trkpt lat="45.48424321520706" lon="10.731857283789616"><ele>112.0</ele><time>2026-04-12T13:34:28.001Z</time></trkpt><trkpt lat="45.484127525655076" lon="10.731726836980346"><ele>112.0</ele><time>2026-04-12T13:34:29.001Z</time></trkpt><trkpt lat="45.48401734342888" lon="10.731602600126175"><ele>112.0</ele><time>2026-04-12T13:34:30.001Z</time></trkpt><trkpt lat="45.48391124707899" lon="10.73148468822066"><ele>112.0</ele><time>2026-04-12T13:34:31.001Z</time></trkpt><trkpt lat="45.48380961295048" lon="10.731372568135965"><ele>112.0</ele><time>2026-04-12T13:34:32.001Z</time></trkpt><trkpt lat="45.48371667754261" lon="10.731261328980324"><ele>112.0</ele><time>2026-04-12T13:34:33.001Z</time></trkpt><trkpt lat="45.48363181936383" lon="10.73114637489519"><ele>112.0</ele><time>2026-04-12T13:34:34.001Z</time></trkpt><trkpt lat="45.48355687031241" lon="10.731028326511318"><ele>112.0</ele><time>2026-04-12T13:34:35.001Z</time></trkpt><trkpt lat="45.483485112455966" lon="10.73090885152182"><ele>111.99999999999999</ele><time>2026-04-12T13:34:36.001Z</time></trkpt><trkpt lat="45.48341501795163" lon="10.730787899397399"><ele>111.99999999999999</ele><time>2026-04-12T13:34:37.001Z</time></trkpt><trkpt lat="45.4833493226632" lon="10.730674538429069"><ele>112.0</ele><time>2026-04-12T13:34:38.001Z</time></trkpt><trkpt lat="45.48328140173561" lon="10.730555705977272"><ele>112.0</ele><time>2026-04-12T13:34:39.001Z</time></trkpt><trkpt lat="45.48321021351182" lon="10.730430478300281"><ele>112.0</ele><time>2026-04-12T13:34:40.001Z</time></trkpt><trkpt lat="45.48313606444353" lon="10.730299848864162"><ele>112.0</ele><time>2026-04-12T13:34:41.001Z</time></trkpt><trkpt lat="45.483061145051614" lon="10.730167862471395"><ele>112.0</ele><time>2026-04-12T13:34:42.001Z</time></trkpt><trkpt lat="45.4829853589755" lon="10.730034349136197"><ele>112.0</ele><time>2026-04-12T13:34:43.001Z</time></trkpt><trkpt lat="45.4829100075811" lon="10.729901601562227"><ele>112.19999999999999</ele><time>2026-04-12T13:34:44.001Z</time></trkpt><trkpt lat="45.48283722716974" lon="10.729774441282672"><ele>112.39999999999999</ele><time>2026-04-12T13:34:45.001Z</time></trkpt><trkpt lat="45.48276848418719" lon="10.729656155643173"><ele>112.60000000000001</ele><time>2026-04-12T13:34:46.001Z</time></trkpt><trkpt lat="45.482703849132605" lon="10.729547323194586"><ele>112.80000000000001</ele><time>2026-04-12T13:34:47.001Z</time></trkpt><trkpt lat="45.48264249052568" lon="10.729453678763047"><ele>113.0</ele><time>2026-04-12T13:34:48.001Z</time></trkpt><trkpt lat="45.482580859011854" lon="10.729369394057219"><ele>113.0</ele><time>2026-04-12T13:34:49.001Z</time></trkpt><trkpt lat="45.48251942885586" lon="10.729292114324021"><ele>113.00000000000001</ele><time>2026-04-12T13:34:50.001Z</time></trkpt><trkpt lat="45.48244627393566" lon="10.72921197513062"><ele>113.00000000000001</ele><time>2026-04-12T13:34:51.001Z</time></trkpt><trkpt lat="45.48236378274353" lon="10.729137379565607"><ele>113.0</ele><time>2026-04-12T13:34:52.001Z</time></trkpt><trkpt lat="45.48227249747766" lon="10.72907429677991"><ele>113.0</ele><time>2026-04-12T13:34:53.001Z</time></trkpt><trkpt lat="45.482174962847864" lon="10.729017758841271"><ele>112.80000000000001</ele><time>2026-04-12T13:34:54.001Z</time></trkpt><trkpt lat="45.4820749246568" lon="10.728965640232683"><ele>112.60000000000001</ele><time>2026-04-12T13:34:55.001Z</time></trkpt><trkpt lat="45.48196160055829" lon="10.72893050037896"><ele>112.39999999999999</ele><time>2026-04-12T13:34:56.001Z</time></trkpt><trkpt lat="45.48185056431359" lon="10.728900876201784"><ele>112.19999999999999</ele><time>2026-04-12T13:34:57.001Z</time></trkpt><trkpt lat="45.48174204600818" lon="10.72887192381853"><ele>112.0</ele><time>2026-04-12T13:34:58.001Z</time></trkpt><trkpt lat="45.48161973047505" lon="10.728840685606968"><ele>112.0</ele><time>2026-04-12T13:34:59.001Z</time></trkpt><trkpt lat="45.48147811254941" lon="10.728805748261934"><ele>112.0</ele><time>2026-04-12T13:35:00.001Z</time></trkpt><trkpt lat="45.481314637762736" lon="10.728767347258056"><ele>112.0</ele><time>2026-04-12T13:35:01.001Z</time></trkpt><trkpt lat="45.481128602148615" lon="10.728724340083797"><ele>111.0</ele><time>2026-04-12T13:35:02.001Z</time></trkpt><trkpt lat="45.48093328209106" lon="10.728677593622386"><ele>110.0</ele><time>2026-04-12T13:35:03.001Z</time></trkpt><trkpt lat="45.48073032852669" lon="10.728628156724588"><ele>109.0</ele><time>2026-04-12T13:35:04.001Z</time></trkpt><trkpt lat="45.48052783011023" lon="10.728578830642126"><ele>109.33333333333334</ele><time>2026-04-12T13:35:05.001Z</time></trkpt><trkpt lat="45.480327333698355" lon="10.728531737948726"><ele>109.66666666666666</ele><time>2026-04-12T13:35:06.001Z</time></trkpt><trkpt lat="45.48013250861995" lon="10.728485979678263"><ele>110.0</ele><time>2026-04-12T13:35:07.001Z</time></trkpt><trkpt lat="45.479951857310695" lon="10.728443550305338"><ele>110.0</ele><time>2026-04-12T13:35:08.001Z</time></trkpt><trkpt lat="45.4797999638652" lon="10.728407875295284"><ele>110.0</ele><time>2026-04-12T13:35:09.001Z</time></trkpt><trkpt lat="45.479668998379424" lon="10.728376794007227"><ele>110.0</ele><time>2026-04-12T13:35:10.001Z</time></trkpt><trkpt lat="45.47954948434323" lon="10.728348178507737"><ele>110.0</ele><time>2026-04-12T13:35:11.001Z</time></trkpt><trkpt lat="45.47943350845791" lon="10.728320410052932"><ele>109.5</ele><time>2026-04-12T13:35:12.001Z</time></trkpt><trkpt lat="45.47931862740989" lon="10.72829290376547"><ele>109.0</ele><time>2026-04-12T13:35:13.001Z</time></trkpt><trkpt lat="45.47919763073823" lon="10.728263933155912"><ele>108.5</ele><time>2026-04-12T13:35:14.001Z</time></trkpt><trkpt lat="45.47906788627153" lon="10.728232868107204"><ele>108.0</ele><time>2026-04-12T13:35:15.001Z</time></trkpt><trkpt lat="45.47893851972728" lon="10.728201892774436"><ele>108.0</ele><time>2026-04-12T13:35:16.001Z</time></trkpt><trkpt lat="45.478811393085024" lon="10.728172123893176"><ele>108.0</ele><time>2026-04-12T13:35:17.002Z</time></trkpt><trkpt lat="45.4786904534204" lon="10.72814332219481"><ele>108.0</ele><time>2026-04-12T13:35:18.002Z</time></trkpt><trkpt lat="45.478576846290395" lon="10.728117194786126"><ele>108.0</ele><time>2026-04-12T13:35:19.002Z</time></trkpt><trkpt lat="45.47846582552496" lon="10.72809245541405"><ele>108.2</ele><time>2026-04-12T13:35:20.002Z</time></trkpt><trkpt lat="45.478361158453964" lon="10.728068928181402"><ele>108.4</ele><time>2026-04-12T13:35:21.002Z</time></trkpt><trkpt lat="45.4782534986413" lon="10.728041885143845"><ele>108.60000000000001</ele><time>2026-04-12T13:35:22.002Z</time></trkpt><trkpt lat="45.47814077236954" lon="10.728012371018721"><ele>108.80000000000001</ele><time>2026-04-12T13:35:23.002Z</time></trkpt><trkpt lat="45.478032202866856" lon="10.727982580039042"><ele>109.0</ele><time>2026-04-12T13:35:24.002Z</time></trkpt><trkpt lat="45.477928083963654" lon="10.727953046676005"><ele>108.5</ele><time>2026-04-12T13:35:25.002Z</time></trkpt><trkpt lat="45.477816093639056" lon="10.727908695021544"><ele>108.0</ele><time>2026-04-12T13:35:26Z</time></trkpt><trkpt lat="45.47770558081734" lon="10.727846493908189"><ele>107.5</ele><time>2026-04-12T13:35:27Z</time></trkpt><trkpt lat="45.47759825366206" lon="10.727760313633992"><ele>107.0</ele><time>2026-04-12T13:35:28Z</time></trkpt><trkpt lat="45.47749505706171" lon="10.727654975762091"><ele>106.5</ele><time>2026-04-12T13:35:29Z</time></trkpt><trkpt lat="45.47740015010745" lon="10.72754139824541"><ele>106.0</ele><time>2026-04-12T13:35:30Z</time></trkpt><trkpt lat="45.47730333131981" lon="10.727417801808388"><ele>105.5</ele><time>2026-04-12T13:35:31Z</time></trkpt><trkpt lat="45.477213627346224" lon="10.72730328787401"><ele>105.0</ele><time>2026-04-12T13:35:32Z</time></trkpt><trkpt lat="45.477121598112504" lon="10.727185805455902"><ele>105.25</ele><time>2026-04-12T13:35:33Z</time></trkpt><trkpt lat="45.477028658663016" lon="10.727068371549803"><ele>105.5</ele><time>2026-04-12T13:35:34Z</time></trkpt><trkpt lat="45.47693501173133" lon="10.726950090213363"><ele>105.75</ele><time>2026-04-12T13:35:35Z</time></trkpt><trkpt lat="45.47683043347834" lon="10.726839171715426"><ele>106.0</ele><time>2026-04-12T13:35:36Z</time></trkpt><trkpt lat="45.47673390396208" lon="10.726712685719098"><ele>106.0</ele><time>2026-04-12T13:35:37Z</time></trkpt><trkpt lat="45.476630605389765" lon="10.726583534746089"><ele>106.0</ele><time>2026-04-12T13:35:38Z</time></trkpt><trkpt lat="45.47653124144244" lon="10.726455476240261"><ele>106.0</ele><time>2026-04-12T13:35:39Z</time></trkpt><trkpt lat="45.47643041648243" lon="10.726326644995336"><ele>106.0</ele><time>2026-04-12T13:35:40Z</time></trkpt><trkpt lat="45.47633589202306" lon="10.726206599810801"><ele>105.75</ele><time>2026-04-12T13:35:41Z</time></trkpt><trkpt lat="45.4762420075539" lon="10.726086933242517"><ele>105.5</ele><time>2026-04-12T13:35:42Z</time></trkpt><trkpt lat="45.47614337337999" lon="10.725967794271481"><ele>105.25</ele><time>2026-04-12T13:35:43Z</time></trkpt><trkpt lat="45.476046376104" lon="10.725850639538308"><ele>105.0</ele><time>2026-04-12T13:35:44Z</time></trkpt><trkpt lat="45.47594398866209" lon="10.725758176937193"><ele>104.6</ele><time>2026-04-12T13:35:45Z</time></trkpt><trkpt lat="45.475852008187715" lon="10.725682820529709"><ele>104.2</ele><time>2026-04-12T13:35:46Z</time></trkpt><trkpt lat="45.47576115319608" lon="10.725613148282793"><ele>103.80000000000001</ele><time>2026-04-12T13:35:47Z</time></trkpt><trkpt lat="45.47567216995079" lon="10.725542117822426"><ele>103.4</ele><time>2026-04-12T13:35:48Z</time></trkpt><trkpt lat="45.475573228705734" lon="10.725459758708014"><ele>103.0</ele><time>2026-04-12T13:35:49Z</time></trkpt><trkpt lat="45.47546981819889" lon="10.725376694640238"><ele>103.5</ele><time>2026-04-12T13:35:50Z</time></trkpt><trkpt lat="45.47536085858236" lon="10.72528557753797"><ele>104.0</ele><time>2026-04-12T13:35:51Z</time></trkpt><trkpt lat="45.475249563869426" lon="10.72519662722959"><ele>104.5</ele><time>2026-04-12T13:35:52Z</time></trkpt><trkpt lat="45.475134277232065" lon="10.72511831870744"><ele>105.0</ele><time>2026-04-12T13:35:53Z</time></trkpt><trkpt lat="45.475011063444505" lon="10.725045530722195"><ele>105.0</ele><time>2026-04-12T13:35:54Z</time></trkpt><trkpt lat="45.47488552868471" lon="10.724983835723073"><ele>105.0</ele><time>2026-04-12T13:35:55Z</time></trkpt><trkpt lat="45.47475276947693" lon="10.724936217074713"><ele>105.0</ele><time>2026-04-12T13:35:56Z</time></trkpt><trkpt lat="45.47462084630563" lon="10.724897485165624"><ele>105.0</ele><time>2026-04-12T13:35:57Z</time></trkpt><trkpt lat="45.47448951604134" lon="10.724864040045922"><ele>105.25</ele><time>2026-04-12T13:35:58Z</time></trkpt><trkpt lat="45.47435672089716" lon="10.724833966951833"><ele>105.5</ele><time>2026-04-12T13:35:59Z</time></trkpt><trkpt lat="45.4742223704823" lon="10.724799822428107"><ele>105.75</ele><time>2026-04-12T13:36:00.001Z</time></trkpt><trkpt lat="45.47408487034083" lon="10.724761887276964"><ele>106.0</ele><time>2026-04-12T13:36:01.001Z</time></trkpt><trkpt lat="45.473949265249786" lon="10.72472148103687"><ele>106.0</ele><time>2026-04-12T13:36:02.001Z</time></trkpt><trkpt lat="45.47381310128734" lon="10.724683760888963"><ele>106.0</ele><time>2026-04-12T13:36:03.001Z</time></trkpt><trkpt lat="45.473673860881206" lon="10.724648361569848"><ele>106.0</ele><time>2026-04-12T13:36:04.001Z</time></trkpt><trkpt lat="45.47353260760047" lon="10.724610232313813"><ele>106.0</ele><time>2026-04-12T13:36:05.001Z</time></trkpt><trkpt lat="45.47338886542374" lon="10.724571970886826"><ele>106.0</ele><time>2026-04-12T13:36:06.001Z</time></trkpt><trkpt lat="45.47324399921584" lon="10.724531522577973"><ele>106.0</ele><time>2026-04-12T13:36:07.001Z</time></trkpt><trkpt lat="45.47309647388578" lon="10.724486938365205"><ele>106.0</ele><time>2026-04-12T13:36:08.001Z</time></trkpt><trkpt lat="45.47295180905876" lon="10.724444785301943"><ele>106.0</ele><time>2026-04-12T13:36:09.001Z</time></trkpt><trkpt lat="45.472805957809" lon="10.724398010536252"><ele>105.0</ele><time>2026-04-12T13:36:10.001Z</time></trkpt><trkpt lat="45.47266244929478" lon="10.724343446489742"><ele>104.0</ele><time>2026-04-12T13:36:11.001Z</time></trkpt><trkpt lat="45.47252240416397" lon="10.724282411820022"><ele>103.0</ele><time>2026-04-12T13:36:12.001Z</time></trkpt><trkpt lat="45.47238542260041" lon="10.724220179308654"><ele>102.0</ele><time>2026-04-12T13:36:13.001Z</time></trkpt><trkpt lat="45.472262625701234" lon="10.724133871715377"><ele>102.0</ele><time>2026-04-12T13:36:14.001Z</time></trkpt><trkpt lat="45.47213091234049" lon="10.72408668650848"><ele>102.0</ele><time>2026-04-12T13:36:15.001Z</time></trkpt><trkpt lat="45.4720111426043" lon="10.724019704780483"><ele>102.0</ele><time>2026-04-12T13:36:16.001Z</time></trkpt><trkpt lat="45.471893873550115" lon="10.723949910591454"><ele>102.0</ele><time>2026-04-12T13:36:17.001Z</time></trkpt><trkpt lat="45.4717801294987" lon="10.723895066140491"><ele>102.75</ele><time>2026-04-12T13:36:18.001Z</time></trkpt><trkpt lat="45.47166552740696" lon="10.723833414747187"><ele>103.5</ele><time>2026-04-12T13:36:19.001Z</time></trkpt><trkpt lat="45.471547570054355" lon="10.723773431765535"><ele>104.25</ele><time>2026-04-12T13:36:20.001Z</time></trkpt><trkpt lat="45.471428169383515" lon="10.72370470280415"><ele>105.0</ele><time>2026-04-12T13:36:21.001Z</time></trkpt><trkpt lat="45.47130720832326" lon="10.72364129712024"><ele>105.0</ele><time>2026-04-12T13:36:22.001Z</time></trkpt><trkpt lat="45.47118974269115" lon="10.723563942284498"><ele>105.0</ele><time>2026-04-12T13:36:23.001Z</time></trkpt><trkpt lat="45.47107669226555" lon="10.723479096856206"><ele>105.0</ele><time>2026-04-12T13:36:24.001Z</time></trkpt><trkpt lat="45.47099452696718" lon="10.723373218898114"><ele>105.0</ele><time>2026-04-12T13:36:25.001Z</time></trkpt><trkpt lat="45.47091614278916" lon="10.723292193677269"><ele>105.0</ele><time>2026-04-12T13:36:26.001Z</time></trkpt><trkpt lat="45.47083638186587" lon="10.72322685621331"><ele>105.0</ele><time>2026-04-12T13:36:27.001Z</time></trkpt><trkpt lat="45.470774733886884" lon="10.723137130964172"><ele>105.0</ele><time>2026-04-12T13:36:28.001Z</time></trkpt><trkpt lat="45.47071953679714" lon="10.72304814582384"><ele>105.0</ele><time>2026-04-12T13:36:29.001Z</time></trkpt><trkpt lat="45.470666692113255" lon="10.722961388499211"><ele>105.0</ele><time>2026-04-12T13:36:30.001Z</time></trkpt><trkpt lat="45.470621565844944" lon="10.722881482840393"><ele>105.0</ele><time>2026-04-12T13:36:31.001Z</time></trkpt><trkpt lat="45.470582221380056" lon="10.72280278181437"><ele>104.66666666666667</ele><time>2026-04-12T13:36:32.001Z</time></trkpt><trkpt lat="45.470530627309564" lon="10.722687716136925"><ele>104.33333333333334</ele><time>2026-04-12T13:36:34.001Z</time></trkpt><trkpt lat="45.470483684921504" lon="10.722593607788227"><ele>104.0</ele><time>2026-04-12T13:36:36.001Z</time></trkpt><trkpt lat="45.47043673029595" lon="10.722480932360886"><ele>103.66666666666667</ele><time>2026-04-12T13:36:38.001Z</time></trkpt><trkpt lat="45.47040286024149" lon="10.722404234059992"><ele>103.33333333333334</ele><time>2026-04-12T13:36:39.001Z</time></trkpt><trkpt lat="45.47036475820375" lon="10.722309593352247"><ele>103.0</ele><time>2026-04-12T13:36:40.001Z</time></trkpt><trkpt lat="45.470313832647406" lon="10.722198712183737"><ele>102.80000000000001</ele><time>2026-04-12T13:36:41.001Z</time></trkpt><trkpt lat="45.47025374732525" lon="10.722072020621104"><ele>102.6</ele><time>2026-04-12T13:36:42.001Z</time></trkpt><trkpt lat="45.47018814937076" lon="10.721936829601763"><ele>102.4</ele><time>2026-04-12T13:36:43.001Z</time></trkpt><trkpt lat="45.470136714905145" lon="10.721789867499353"><ele>102.19999999999999</ele><time>2026-04-12T13:36:44.001Z</time></trkpt><trkpt lat="45.470061843812324" lon="10.721686436768497"><ele>102.0</ele><time>2026-04-12T13:36:45.001Z</time></trkpt><trkpt lat="45.46999263612741" lon="10.721569278493593"><ele>102.0</ele><time>2026-04-12T13:36:46.001Z</time></trkpt><trkpt lat="45.4699117161278" lon="10.721458050994364"><ele>102.0</ele><time>2026-04-12T13:36:47.001Z</time></trkpt><trkpt lat="45.4698175238003" lon="10.721355040514053"><ele>102.0</ele><time>2026-04-12T13:36:48.001Z</time></trkpt><trkpt lat="45.4697198973609" lon="10.721264905899353"><ele>102.0</ele><time>2026-04-12T13:36:49.001Z</time></trkpt><trkpt lat="45.46961634511643" lon="10.721185518261528"><ele>102.0</ele><time>2026-04-12T13:36:50.001Z</time></trkpt><trkpt lat="45.46951287518535" lon="10.721121233716799"><ele>102.0</ele><time>2026-04-12T13:36:51.001Z</time></trkpt><trkpt lat="45.46940531449651" lon="10.721064672323816"><ele>102.0</ele><time>2026-04-12T13:36:52.001Z</time></trkpt><trkpt lat="45.469295662296986" lon="10.721023486092042"><ele>102.0</ele><time>2026-04-12T13:36:53.001Z</time></trkpt><trkpt lat="45.46918936442126" lon="10.721001369415411"><ele>102.0</ele><time>2026-04-12T13:36:54.001Z</time></trkpt><trkpt lat="45.46908654906442" lon="10.720989133733429"><ele>102.0</ele><time>2026-04-12T13:36:55.001Z</time></trkpt><trkpt lat="45.46898517958648" lon="10.720948747558747"><ele>102.0</ele><time>2026-04-12T13:36:56.001Z</time></trkpt><trkpt lat="45.46888576713342" lon="10.72093289080495"><ele>102.0</ele><time>2026-04-12T13:36:57.001Z</time></trkpt><trkpt lat="45.46878376989205" lon="10.720917331223044"><ele>102.0</ele><time>2026-04-12T13:36:58.001Z</time></trkpt><trkpt lat="45.46868409331365" lon="10.72090191192083"><ele>102.0</ele><time>2026-04-12T13:36:59.001Z</time></trkpt><trkpt lat="45.46859212556982" lon="10.72088618613585"><ele>102.0</ele><time>2026-04-12T13:37:00.001Z</time></trkpt><trkpt lat="45.468502468862006" lon="10.720870809393661"><ele>102.0</ele><time>2026-04-12T13:37:01.001Z</time></trkpt><trkpt lat="45.46842507418316" lon="10.720858671122187"><ele>102.0</ele><time>2026-04-12T13:37:02.001Z</time></trkpt><trkpt lat="45.46835229543508" lon="10.720847256852382"><ele>102.0</ele><time>2026-04-12T13:37:03.001Z</time></trkpt><trkpt lat="45.468282533901814" lon="10.720836265544662"><ele>102.0</ele><time>2026-04-12T13:37:04.001Z</time></trkpt><trkpt lat="45.468215291642544" lon="10.720824624546017"><ele>102.0</ele><time>2026-04-12T13:37:05.001Z</time></trkpt><trkpt lat="45.46811570718287" lon="10.720788598484953"><ele>102.0</ele><time>2026-04-12T13:37:07.001Z</time></trkpt><trkpt lat="45.468047399151985" lon="10.72072594579555"><ele>102.0</ele><time>2026-04-12T13:37:09.002Z</time></trkpt><trkpt lat="45.467929121941474" lon="10.72071171594073"><ele>102.0</ele><time>2026-04-12T13:37:11.002Z</time></trkpt><trkpt lat="45.467860772800925" lon="10.720733678464441"><ele>102.0</ele><time>2026-04-12T13:37:12.002Z</time></trkpt><trkpt lat="45.46779328936456" lon="10.720752470840772"><ele>102.0</ele><time>2026-04-12T13:37:13.002Z</time></trkpt><trkpt lat="45.46772078355371" lon="10.720730931775817"><ele>102.0</ele><time>2026-04-12T13:37:14.002Z</time></trkpt><trkpt lat="45.46764594475203" lon="10.720717173849197"><ele>102.16666666666667</ele><time>2026-04-12T13:37:15.002Z</time></trkpt><trkpt lat="45.46756792210638" lon="10.720707159391514"><ele>102.33333333333334</ele><time>2026-04-12T13:37:16.002Z</time></trkpt><trkpt lat="45.46748007674018" lon="10.720698607581445"><ele>102.5</ele><time>2026-04-12T13:37:17.002Z</time></trkpt><trkpt lat="45.46739064704222" lon="10.720691784123558"><ele>102.66666666666667</ele><time>2026-04-12T13:37:18.002Z</time></trkpt><trkpt lat="45.46730339838266" lon="10.720693142281377"><ele>102.83333333333334</ele><time>2026-04-12T13:37:19.002Z</time></trkpt><trkpt lat="45.46721041654116" lon="10.720693142279261"><ele>103.0</ele><time>2026-04-12T13:37:20.002Z</time></trkpt><trkpt lat="45.46711247071961" lon="10.720693142279474"><ele>103.4</ele><time>2026-04-12T13:37:21.002Z</time></trkpt><trkpt lat="45.46700965823231" lon="10.72067362254268"><ele>103.80000000000001</ele><time>2026-04-12T13:37:22.002Z</time></trkpt><trkpt lat="45.46690243074366" lon="10.720652502797538"><ele>104.2</ele><time>2026-04-12T13:37:23.002Z</time></trkpt><trkpt lat="45.46679777058909" lon="10.72063577838011"><ele>104.6</ele><time>2026-04-12T13:37:24.002Z</time></trkpt><trkpt lat="45.46668647680855" lon="10.72061977074092"><ele>105.0</ele><time>2026-04-12T13:37:25.002Z</time></trkpt><trkpt lat="45.46655559734543" lon="10.720601456608657"><ele>105.0</ele><time>2026-04-12T13:37:26.002Z</time></trkpt><trkpt lat="45.46642457056366" lon="10.720574480628663"><ele>105.0</ele><time>2026-04-12T13:37:27.002Z</time></trkpt><trkpt lat="45.466294595398686" lon="10.720530470592037"><ele>105.0</ele><time>2026-04-12T13:37:28.002Z</time></trkpt><trkpt lat="45.46616610776151" lon="10.720486123164306"><ele>105.0</ele><time>2026-04-12T13:37:29.002Z</time></trkpt><trkpt lat="45.46603555448277" lon="10.720441063578587"><ele>104.75</ele><time>2026-04-12T13:37:30.002Z</time></trkpt><trkpt lat="45.46590028660302" lon="10.720417968072208"><ele>104.5</ele><time>2026-04-12T13:37:31.002Z</time></trkpt><trkpt lat="45.46576742044802" lon="10.720347642467924"><ele>104.25</ele><time>2026-04-12T13:37:32.001Z</time></trkpt><trkpt lat="45.46564523900433" lon="10.720308671592838"><ele>104.0</ele><time>2026-04-12T13:37:33.001Z</time></trkpt><trkpt lat="45.46551735073473" lon="10.72027527149264"><ele>104.25</ele><time>2026-04-12T13:37:34.001Z</time></trkpt><trkpt lat="45.465388533109945" lon="10.720244986734437"><ele>104.5</ele><time>2026-04-12T13:37:35.001Z</time></trkpt><trkpt lat="45.46526063053306" lon="10.720214572509224"><ele>104.75</ele><time>2026-04-12T13:37:36.001Z</time></trkpt><trkpt lat="45.4651373223087" lon="10.720184012579463"><ele>105.0</ele><time>2026-04-12T13:37:37.001Z</time></trkpt><trkpt lat="45.46501252535249" lon="10.720155100030178"><ele>105.0</ele><time>2026-04-12T13:37:38.001Z</time></trkpt><trkpt lat="45.46489259706437" lon="10.72012824709702"><ele>105.0</ele><time>2026-04-12T13:37:39.001Z</time></trkpt><trkpt lat="45.46477096629364" lon="10.720102310553049"><ele>105.0</ele><time>2026-04-12T13:37:40.001Z</time></trkpt><trkpt lat="45.464656528535784" lon="10.72008092134388"><ele>105.0</ele><time>2026-04-12T13:37:41.001Z</time></trkpt><trkpt lat="45.46454768709279" lon="10.72006204215035"><ele>104.6</ele><time>2026-04-12T13:37:42.001Z</time></trkpt><trkpt lat="45.464441242732235" lon="10.720056316215489"><ele>104.2</ele><time>2026-04-12T13:37:43.001Z</time></trkpt><trkpt lat="45.464340827537825" lon="10.720045352133674"><ele>103.80000000000001</ele><time>2026-04-12T13:37:44.001Z</time></trkpt><trkpt lat="45.46422669612467" lon="10.72002355176152"><ele>103.4</ele><time>2026-04-12T13:37:45.001Z</time></trkpt><trkpt lat="45.46411154886716" lon="10.719995291031577"><ele>103.0</ele><time>2026-04-12T13:37:46.001Z</time></trkpt><trkpt lat="45.46399158979472" lon="10.719971179448654"><ele>103.0</ele><time>2026-04-12T13:37:47.001Z</time></trkpt><trkpt lat="45.46387186653407" lon="10.719931254813682"><ele>103.0</ele><time>2026-04-12T13:37:48.001Z</time></trkpt><trkpt lat="45.463753433655214" lon="10.719875900063332"><ele>103.0</ele><time>2026-04-12T13:37:49.001Z</time></trkpt><trkpt lat="45.46363567319009" lon="10.719809231986977"><ele>103.0</ele><time>2026-04-12T13:37:50.001Z</time></trkpt><trkpt lat="45.463527520276806" lon="10.719733788226089"><ele>102.0</ele><time>2026-04-12T13:37:51.001Z</time></trkpt><trkpt lat="45.46341901416838" lon="10.719646785924844"><ele>101.0</ele><time>2026-04-12T13:37:52.001Z</time></trkpt><trkpt lat="45.463315800202565" lon="10.71954978150618"><ele>100.0</ele><time>2026-04-12T13:37:53.001Z</time></trkpt><trkpt lat="45.46322260217703" lon="10.719426147382473"><ele>99.0</ele><time>2026-04-12T13:37:54.001Z</time></trkpt><trkpt lat="45.463124284557026" lon="10.71931506994279"><ele>98.25</ele><time>2026-04-12T13:37:55.001Z</time></trkpt><trkpt lat="45.4630241256423" lon="10.719215013923268"><ele>97.5</ele><time>2026-04-12T13:37:56.001Z</time></trkpt><trkpt lat="45.462954919915475" lon="10.719075437784703"><ele>96.75</ele><time>2026-04-12T13:37:57.001Z</time></trkpt><trkpt lat="45.46287109284482" lon="10.718966558805075"><ele>96.0</ele><time>2026-04-12T13:37:58.001Z</time></trkpt><trkpt lat="45.46281427871274" lon="10.71884662546996"><ele>95.8</ele><time>2026-04-12T13:37:59.001Z</time></trkpt><trkpt lat="45.462764600234024" lon="10.718733969152053"><ele>95.6</ele><time>2026-04-12T13:38:00.001Z</time></trkpt><trkpt lat="45.4627186521936" lon="10.718625529984699"><ele>95.4</ele><time>2026-04-12T13:38:01.001Z</time></trkpt><trkpt lat="45.462678352864195" lon="10.718521194283054"><ele>95.2</ele><time>2026-04-12T13:38:02.001Z</time></trkpt><trkpt lat="45.46263442509876" lon="10.718410762358236"><ele>95.0</ele><time>2026-04-12T13:38:03.001Z</time></trkpt><trkpt lat="45.46258289129678" lon="10.718295990778342"><ele>95.0</ele><time>2026-04-12T13:38:04.001Z</time></trkpt><trkpt lat="45.462531213384615" lon="10.71816894362219"><ele>95.0</ele><time>2026-04-12T13:38:05.001Z</time></trkpt><trkpt lat="45.46243317989069" lon="10.718080672292858"><ele>95.0</ele><time>2026-04-12T13:38:06.001Z</time></trkpt><trkpt lat="45.462322908348916" lon="10.718024567788195"><ele>95.0</ele><time>2026-04-12T13:38:07.001Z</time></trkpt><trkpt lat="45.46221953731909" lon="10.71793799783891"><ele>95.0</ele><time>2026-04-12T13:38:08.001Z</time></trkpt><trkpt lat="45.46211261904102" lon="10.71785453821535"><ele>95.0</ele><time>2026-04-12T13:38:09.001Z</time></trkpt><trkpt lat="45.462009422773306" lon="10.717779573704611"><ele>95.0</ele><time>2026-04-12T13:38:10.001Z</time></trkpt><trkpt lat="45.461901000945204" lon="10.71772011804421"><ele>95.0</ele><time>2026-04-12T13:38:11.001Z</time></trkpt><trkpt lat="45.461788449268276" lon="10.717677691723114"><ele>94.5</ele><time>2026-04-12T13:38:12.001Z</time></trkpt><trkpt lat="45.46166927475837" lon="10.717634508149635"><ele>94.0</ele><time>2026-04-12T13:38:13.001Z</time></trkpt><trkpt lat="45.461547981756134" lon="10.717590136288436"><ele>93.5</ele><time>2026-04-12T13:38:14.001Z</time></trkpt><trkpt lat="45.46142537191647" lon="10.717548299734352"><ele>93.0</ele><time>2026-04-12T13:38:15.001Z</time></trkpt><trkpt lat="45.461300079233375" lon="10.71750426064861"><ele>93.5</ele><time>2026-04-12T13:38:16.001Z</time></trkpt><trkpt lat="45.46117833723438" lon="10.717439045633064"><ele>94.0</ele><time>2026-04-12T13:38:17.001Z</time></trkpt><trkpt lat="45.461049427941745" lon="10.717391650895587"><ele>94.5</ele><time>2026-04-12T13:38:18.001Z</time></trkpt><trkpt lat="45.460922293043396" lon="10.717345424043929"><ele>95.0</ele><time>2026-04-12T13:38:19.001Z</time></trkpt><trkpt lat="45.46079060141492" lon="10.717321692733941"><ele>95.0</ele><time>2026-04-12T13:38:20.001Z</time></trkpt><trkpt lat="45.46066376722728" lon="10.717276751834083"><ele>95.0</ele><time>2026-04-12T13:38:21.001Z</time></trkpt><trkpt lat="45.46053972731604" lon="10.71723084532734"><ele>95.0</ele><time>2026-04-12T13:38:22.001Z</time></trkpt><trkpt lat="45.46041174617709" lon="10.717181419904483"><ele>95.0</ele><time>2026-04-12T13:38:23.001Z</time></trkpt><trkpt lat="45.460278845771725" lon="10.717135367095892"><ele>94.5</ele><time>2026-04-12T13:38:24.001Z</time></trkpt><trkpt lat="45.46014446376265" lon="10.717087494211011"><ele>94.0</ele><time>2026-04-12T13:38:25.001Z</time></trkpt><trkpt lat="45.460017519046865" lon="10.717010852421927"><ele>93.5</ele><time>2026-04-12T13:38:26.001Z</time></trkpt><trkpt lat="45.459886646344515" lon="10.71696235647678"><ele>93.0</ele><time>2026-04-12T13:38:27.001Z</time></trkpt><trkpt lat="45.45974913549538" lon="10.716936309966263"><ele>93.0</ele><time>2026-04-12T13:38:28.001Z</time></trkpt><trkpt lat="45.45961942757586" lon="10.71688009797335"><ele>93.0</ele><time>2026-04-12T13:38:29.001Z</time></trkpt><trkpt lat="45.45949060173883" lon="10.716822235558073"><ele>93.0</ele><time>2026-04-12T13:38:30.001Z</time></trkpt><trkpt lat="45.45936688115928" lon="10.716770808025263"><ele>93.0</ele><time>2026-04-12T13:38:31.001Z</time></trkpt><trkpt lat="45.459235401804406" lon="10.716719876460271"><ele>93.0</ele><time>2026-04-12T13:38:32.001Z</time></trkpt><trkpt lat="45.45910477767697" lon="10.716671167203524"><ele>93.0</ele><time>2026-04-12T13:38:33.001Z</time></trkpt><trkpt lat="45.45897217345326" lon="10.716625377699149"><ele>93.0</ele><time>2026-04-12T13:38:34.001Z</time></trkpt><trkpt lat="45.45883364655337" lon="10.71658336503727"><ele>93.0</ele><time>2026-04-12T13:38:35.001Z</time></trkpt><trkpt lat="45.45869560718844" lon="10.716548901668098"><ele>92.75</ele><time>2026-04-12T13:38:36.001Z</time></trkpt><trkpt lat="45.458553536241865" lon="10.716514384638446"><ele>92.5</ele><time>2026-04-12T13:38:37.001Z</time></trkpt><trkpt lat="45.45840739840063" lon="10.716481316667391"><ele>92.25</ele><time>2026-04-12T13:38:38.001Z</time></trkpt><trkpt lat="45.458265116837325" lon="10.716421125225017"><ele>92.0</ele><time>2026-04-12T13:38:39.001Z</time></trkpt><trkpt lat="45.458106499381095" lon="10.716377772053667"><ele>90.33333333333334</ele><time>2026-04-12T13:38:40.001Z</time></trkpt><trkpt lat="45.45793510522557" lon="10.716328159847773"><ele>88.66666666666667</ele><time>2026-04-12T13:38:41.001Z</time></trkpt><trkpt lat="45.457755955870674" lon="10.716275539862504"><ele>87.0</ele><time>2026-04-12T13:38:42.001Z</time></trkpt><trkpt lat="45.457579624799386" lon="10.716217774876366"><ele>87.0</ele><time>2026-04-12T13:38:43.001Z</time></trkpt><trkpt lat="45.45739953476944" lon="10.716160157607067"><ele>87.0</ele><time>2026-04-12T13:38:44.001Z</time></trkpt><trkpt lat="45.457212932966286" lon="10.716101431875549"><ele>87.0</ele><time>2026-04-12T13:38:45.001Z</time></trkpt><trkpt lat="45.457019850216824" lon="10.716045087731484"><ele>86.33333333333333</ele><time>2026-04-12T13:38:46.001Z</time></trkpt><trkpt lat="45.456826510939095" lon="10.715984540313158"><ele>85.66666666666666</ele><time>2026-04-12T13:38:47.001Z</time></trkpt><trkpt lat="45.45663070371583" lon="10.7159220564518"><ele>85.0</ele><time>2026-04-12T13:38:48.001Z</time></trkpt><trkpt lat="45.45643218554598" lon="10.715856265862131"><ele>84.0</ele><time>2026-04-12T13:38:49.001Z</time></trkpt><trkpt lat="45.45623305709753" lon="10.715787835085475"><ele>83.0</ele><time>2026-04-12T13:38:50.001Z</time></trkpt><trkpt lat="45.456039618749905" lon="10.7157154895374"><ele>82.0</ele><time>2026-04-12T13:38:51.001Z</time></trkpt><trkpt lat="45.45585114949849" lon="10.715641556853175"><ele>82.0</ele><time>2026-04-12T13:38:52.001Z</time></trkpt><trkpt lat="45.45566982151121" lon="10.715568503851369"><ele>82.0</ele><time>2026-04-12T13:38:53.001Z</time></trkpt><trkpt lat="45.455497949186565" lon="10.715499260313564"><ele>82.0</ele><time>2026-04-12T13:38:54.001Z</time></trkpt><trkpt lat="45.45533415107443" lon="10.715433331324036"><ele>83.0</ele><time>2026-04-12T13:38:55.001Z</time></trkpt><trkpt lat="45.45517664955111" lon="10.715370344804938"><ele>84.0</ele><time>2026-04-12T13:38:56.001Z</time></trkpt><trkpt lat="45.4550283338515" lon="10.715311031809906"><ele>85.0</ele><time>2026-04-12T13:38:57.001Z</time></trkpt><trkpt lat="45.45488557114943" lon="10.715253939504644"><ele>85.0</ele><time>2026-04-12T13:38:58.001Z</time></trkpt><trkpt lat="45.45474946955384" lon="10.715199511042076"><ele>85.0</ele><time>2026-04-12T13:38:59.001Z</time></trkpt><trkpt lat="45.45461476753315" lon="10.715145560782833"><ele>85.0</ele><time>2026-04-12T13:39:00.001Z</time></trkpt><trkpt lat="45.45448588323145" lon="10.715093866935675"><ele>85.0</ele><time>2026-04-12T13:39:01.001Z</time></trkpt><trkpt lat="45.454354879392845" lon="10.71504132296435"><ele>86.0</ele><time>2026-04-12T13:39:02.001Z</time></trkpt><trkpt lat="45.45422928781562" lon="10.714990955631619"><ele>87.0</ele><time>2026-04-12T13:39:03.001Z</time></trkpt><trkpt lat="45.45410411826722" lon="10.714940757654084"><ele>88.0</ele><time>2026-04-12T13:39:04.001Z</time></trkpt><trkpt lat="45.45397990188897" lon="10.71489104939819"><ele>89.0</ele><time>2026-04-12T13:39:05.001Z</time></trkpt><trkpt lat="45.45385070565721" lon="10.714862226607721"><ele>89.5</ele><time>2026-04-12T13:39:06.001Z</time></trkpt><trkpt lat="45.453726158619865" lon="10.714802039954522"><ele>90.0</ele><time>2026-04-12T13:39:07.001Z</time></trkpt><trkpt lat="45.453598547851485" lon="10.714751111277643"><ele>90.5</ele><time>2026-04-12T13:39:08.001Z</time></trkpt><trkpt lat="45.45346809625405" lon="10.714704200050903"><ele>91.0</ele><time>2026-04-12T13:39:09.001Z</time></trkpt><trkpt lat="45.45333593533902" lon="10.714651850738086"><ele>91.0</ele><time>2026-04-12T13:39:10.002Z</time></trkpt><trkpt lat="45.45320126912833" lon="10.714610138088847"><ele>91.0</ele><time>2026-04-12T13:39:11.001Z</time></trkpt><trkpt lat="45.45307416452449" lon="10.71454302339748"><ele>91.0</ele><time>2026-04-12T13:39:12.001Z</time></trkpt><trkpt lat="45.452947735402304" lon="10.714500121754455"><ele>91.0</ele><time>2026-04-12T13:39:13.001Z</time></trkpt><trkpt lat="45.452825236417624" lon="10.714459148689775"><ele>91.0</ele><time>2026-04-12T13:39:14.001Z</time></trkpt><trkpt lat="45.45270846567154" lon="10.714420091643138"><ele>91.0</ele><time>2026-04-12T13:39:15.001Z</time></trkpt><trkpt lat="45.45259223580581" lon="10.714377749651872"><ele>91.0</ele><time>2026-04-12T13:39:16.002Z</time></trkpt><trkpt lat="45.45248032546893" lon="10.714320070188322"><ele>91.0</ele><time>2026-04-12T13:39:17.002Z</time></trkpt><trkpt lat="45.452371043739745" lon="10.714246516970942"><ele>91.0</ele><time>2026-04-12T13:39:18.002Z</time></trkpt><trkpt lat="45.452263458570705" lon="10.714165143323264"><ele>91.0</ele><time>2026-04-12T13:39:19.002Z</time></trkpt><trkpt lat="45.452152312207446" lon="10.714077892631694"><ele>91.0</ele><time>2026-04-12T13:39:20.002Z</time></trkpt><trkpt lat="45.4520429040891" lon="10.713987999613545"><ele>91.0</ele><time>2026-04-12T13:39:21.002Z</time></trkpt><trkpt lat="45.45193398334401" lon="10.713896702436973"><ele>91.0</ele><time>2026-04-12T13:39:22.002Z</time></trkpt><trkpt lat="45.45182286690369" lon="10.713803564888666"><ele>91.0</ele><time>2026-04-12T13:39:23.002Z</time></trkpt><trkpt lat="45.451713808364694" lon="10.71371103523994"><ele>91.0</ele><time>2026-04-12T13:39:24.002Z</time></trkpt><trkpt lat="45.45160974528688" lon="10.713622048967146"><ele>91.0</ele><time>2026-04-12T13:39:25.002Z</time></trkpt><trkpt lat="45.45151655273365" lon="10.71354235827613"><ele>91.0</ele><time>2026-04-12T13:39:26.002Z</time></trkpt><trkpt lat="45.451434522443414" lon="10.713474063214214"><ele>91.0</ele><time>2026-04-12T13:39:27.002Z</time></trkpt><trkpt lat="45.45135950617036" lon="10.713413206913978"><ele>91.0</ele><time>2026-04-12T13:39:28.002Z</time></trkpt><trkpt lat="45.45129296391158" lon="10.713360637659255"><ele>91.0</ele><time>2026-04-12T13:39:29.002Z</time></trkpt><trkpt lat="45.45123445430109" lon="10.713314414325838"><ele>91.0</ele><time>2026-04-12T13:39:30.002Z</time></trkpt><trkpt lat="45.45114288078624" lon="10.71318967508406"><ele>90.19999999999999</ele><time>2026-04-12T13:39:32.002Z</time></trkpt><trkpt lat="45.45114311211294" lon="10.713063455373893"><ele>89.39999999999999</ele><time>2026-04-12T13:39:33.002Z</time></trkpt><trkpt lat="45.45109626832152" lon="10.712959981234796"><ele>88.6</ele><time>2026-04-12T13:39:34.002Z</time></trkpt><trkpt lat="45.45104759000702" lon="10.71284894311442"><ele>87.8</ele><time>2026-04-12T13:39:35.002Z</time></trkpt><trkpt lat="45.45095571799738" lon="10.712786109401991"><ele>87.0</ele><time>2026-04-12T13:39:36.002Z</time></trkpt><trkpt lat="45.450835876672606" lon="10.712823807543838"><ele>87.0</ele><time>2026-04-12T13:39:37.002Z</time></trkpt><trkpt lat="45.45073199620001" lon="10.712838707973876"><ele>87.0</ele><time>2026-04-12T13:39:38.001Z</time></trkpt><trkpt lat="45.450626048275254" lon="10.712837779686325"><ele>87.0</ele><time>2026-04-12T13:39:39.001Z</time></trkpt><trkpt lat="45.45052135526" lon="10.712799588933384"><ele>87.0</ele><time>2026-04-12T13:39:40.001Z</time></trkpt><trkpt lat="45.4504257133931" lon="10.712698482594282"><ele>87.0</ele><time>2026-04-12T13:39:41.001Z</time></trkpt><trkpt lat="45.45031124173184" lon="10.712618482251225"><ele>87.0</ele><time>2026-04-12T13:39:42.001Z</time></trkpt><trkpt lat="45.450189273774804" lon="10.712533267018458"><ele>87.0</ele><time>2026-04-12T13:39:43.001Z</time></trkpt><trkpt lat="45.450059279363174" lon="10.712467591737802"><ele>87.0</ele><time>2026-04-12T13:39:44.001Z</time></trkpt><trkpt lat="45.449940455333" lon="10.712387633920942"><ele>87.0</ele><time>2026-04-12T13:39:45.001Z</time></trkpt><trkpt lat="45.44982226918235" lon="10.712282108651435"><ele>87.0</ele><time>2026-04-12T13:39:46.001Z</time></trkpt><trkpt lat="45.44967977857403" lon="10.712210990248876"><ele>87.0</ele><time>2026-04-12T13:39:47.001Z</time></trkpt><trkpt lat="45.44951743592778" lon="10.712077649940698"><ele>87.0</ele><time>2026-04-12T13:39:48.001Z</time></trkpt><trkpt lat="45.44933242403306" lon="10.711953716476424"><ele>87.0</ele><time>2026-04-12T13:39:49.001Z</time></trkpt><trkpt lat="45.449122603088284" lon="10.711813041123518"><ele>87.0</ele><time>2026-04-12T13:39:50.001Z</time></trkpt><trkpt lat="45.44889837441274" lon="10.71166706703322"><ele>89.0</ele><time>2026-04-12T13:39:51.001Z</time></trkpt><trkpt lat="45.44867013293883" lon="10.71151294073087"><ele>91.0</ele><time>2026-04-12T13:39:52.001Z</time></trkpt><trkpt lat="45.44844139910475" lon="10.711360999406743"><ele>91.0</ele><time>2026-04-12T13:39:53.001Z</time></trkpt><trkpt lat="45.44822477941965" lon="10.711217187996608"><ele>91.0</ele><time>2026-04-12T13:39:54.001Z</time></trkpt><trkpt lat="45.44801611890937" lon="10.711086467405973"><ele>89.66666666666666</ele><time>2026-04-12T13:39:55.001Z</time></trkpt><trkpt lat="45.44781479782769" lon="10.710953562913462"><ele>88.33333333333333</ele><time>2026-04-12T13:39:56.001Z</time></trkpt><trkpt lat="45.447620686351065" lon="10.710824490803263"><ele>87.0</ele><time>2026-04-12T13:39:57.001Z</time></trkpt><trkpt lat="45.44743431508805" lon="10.710696653462056"><ele>87.0</ele><time>2026-04-12T13:39:58.001Z</time></trkpt><trkpt lat="45.44724996052189" lon="10.71057079060175"><ele>87.0</ele><time>2026-04-12T13:39:59.001Z</time></trkpt><trkpt lat="45.4470676013448" lon="10.71044197133886"><ele>87.0</ele><time>2026-04-12T13:40:00.001Z</time></trkpt><trkpt lat="45.44688775356431" lon="10.710309102914822"><ele>87.0</ele><time>2026-04-12T13:40:01.001Z</time></trkpt><trkpt lat="45.44671510114017" lon="10.710166868991651"><ele>87.0</ele><time>2026-04-12T13:40:02.001Z</time></trkpt><trkpt lat="45.44655664531548" lon="10.709996934858165"><ele>87.0</ele><time>2026-04-12T13:40:03.001Z</time></trkpt><trkpt lat="45.446430721428115" lon="10.70978814617654"><ele>87.0</ele><time>2026-04-12T13:40:04.001Z</time></trkpt><trkpt lat="45.44629995056901" lon="10.709606201134509"><ele>87.0</ele><time>2026-04-12T13:40:05.001Z</time></trkpt><trkpt lat="45.44620506300237" lon="10.709411369882048"><ele>87.0</ele><time>2026-04-12T13:40:06.001Z</time></trkpt><trkpt lat="45.44612497886806" lon="10.709245300475384"><ele>87.0</ele><time>2026-04-12T13:40:07.001Z</time></trkpt><trkpt lat="45.44605557681564" lon="10.709102491350585"><ele>87.0</ele><time>2026-04-12T13:40:08.001Z</time></trkpt><trkpt lat="45.4459941676256" lon="10.708979641483646"><ele>87.0</ele><time>2026-04-12T13:40:09.001Z</time></trkpt><trkpt lat="45.4459423391166" lon="10.708873222189824"><ele>87.0</ele><time>2026-04-12T13:40:10.001Z</time></trkpt><trkpt lat="45.44590452630113" lon="10.708776714230572"><ele>87.0</ele><time>2026-04-12T13:40:11.001Z</time></trkpt><trkpt lat="45.44588121518786" lon="10.708681392877907"><ele>87.0</ele><time>2026-04-12T13:40:12.001Z</time></trkpt><trkpt lat="45.445871225433834" lon="10.708584203516802"><ele>87.0</ele><time>2026-04-12T13:40:13.001Z</time></trkpt><trkpt lat="45.44587181424039" lon="10.708486768903864"><ele>87.0</ele><time>2026-04-12T13:40:14.001Z</time></trkpt><trkpt lat="45.445874528953496" lon="10.708386142644997"><ele>87.0</ele><time>2026-04-12T13:40:15.001Z</time></trkpt><trkpt lat="45.44586462118844" lon="10.7082732246925"><ele>87.0</ele><time>2026-04-12T13:40:16.001Z</time></trkpt><trkpt lat="45.44582556514137" lon="10.708169226982385"><ele>87.0</ele><time>2026-04-12T13:40:17.001Z</time></trkpt><trkpt lat="45.445755744020055" lon="10.70807936568735"><ele>86.5</ele><time>2026-04-12T13:40:18.001Z</time></trkpt><trkpt lat="45.44565985092805" lon="10.708022254811747"><ele>86.0</ele><time>2026-04-12T13:40:19.001Z</time></trkpt><trkpt lat="45.44555658761463" lon="10.707952001042665"><ele>85.5</ele><time>2026-04-12T13:40:20.001Z</time></trkpt><trkpt lat="45.44546555566005" lon="10.707831953309691"><ele>85.0</ele><time>2026-04-12T13:40:21.001Z</time></trkpt><trkpt lat="45.44537516220359" lon="10.707664252075373"><ele>85.0</ele><time>2026-04-12T13:40:22.001Z</time></trkpt><trkpt lat="45.445282361840185" lon="10.70749254526338"><ele>85.0</ele><time>2026-04-12T13:40:23.001Z</time></trkpt><trkpt lat="45.44518519640518" lon="10.707335752824699"><ele>85.0</ele><time>2026-04-12T13:40:24.001Z</time></trkpt><trkpt lat="45.44507782342621" lon="10.707186039791223"><ele>85.0</ele><time>2026-04-12T13:40:25.001Z</time></trkpt><trkpt lat="45.44495913888698" lon="10.707047430995473"><ele>85.0</ele><time>2026-04-12T13:40:26.001Z</time></trkpt><trkpt lat="45.44484224343075" lon="10.706913050869101"><ele>85.0</ele><time>2026-04-12T13:40:27.001Z</time></trkpt><trkpt lat="45.44472150008969" lon="10.706778054125929"><ele>85.0</ele><time>2026-04-12T13:40:28.001Z</time></trkpt><trkpt lat="45.44460197964839" lon="10.7066510259156"><ele>84.75</ele><time>2026-04-12T13:40:29.001Z</time></trkpt><trkpt lat="45.444482521140884" lon="10.706526963158277"><ele>84.5</ele><time>2026-04-12T13:40:30.001Z</time></trkpt><trkpt lat="45.444373966370335" lon="10.70640374224288"><ele>84.25</ele><time>2026-04-12T13:40:31.001Z</time></trkpt><trkpt lat="45.44426331158483" lon="10.706289427187999"><ele>84.0</ele><time>2026-04-12T13:40:32.001Z</time></trkpt><trkpt lat="45.44416536007759" lon="10.706174440294678"><ele>84.25</ele><time>2026-04-12T13:40:33.001Z</time></trkpt><trkpt lat="45.44406797536338" lon="10.70606089678719"><ele>84.5</ele><time>2026-04-12T13:40:34.001Z</time></trkpt><trkpt lat="45.44396393794316" lon="10.705948246795488"><ele>84.75</ele><time>2026-04-12T13:40:35.001Z</time></trkpt><trkpt lat="45.443855530203855" lon="10.705831647570697"><ele>85.0</ele><time>2026-04-12T13:40:36.001Z</time></trkpt><trkpt lat="45.44375021801746" lon="10.705721815165305"><ele>85.0</ele><time>2026-04-12T13:40:37.001Z</time></trkpt><trkpt lat="45.44364391801211" lon="10.705601366656332"><ele>85.0</ele><time>2026-04-12T13:40:38.001Z</time></trkpt><trkpt lat="45.4435418235534" lon="10.705481980327468"><ele>85.0</ele><time>2026-04-12T13:40:39.001Z</time></trkpt><trkpt lat="45.443436535032006" lon="10.70533228825251"><ele>85.0</ele><time>2026-04-12T13:40:40.001Z</time></trkpt><trkpt lat="45.44332512537968" lon="10.705168807461812"><ele>83.33333333333333</ele><time>2026-04-12T13:40:41.001Z</time></trkpt><trkpt lat="45.443213107233156" lon="10.704988485800087"><ele>81.66666666666667</ele><time>2026-04-12T13:40:42.001Z</time></trkpt><trkpt lat="45.44311008141109" lon="10.704787935108955"><ele>80.0</ele><time>2026-04-12T13:40:43.001Z</time></trkpt><trkpt lat="45.44302534819619" lon="10.704584056853195"><ele>78.25</ele><time>2026-04-12T13:40:44.001Z</time></trkpt><trkpt lat="45.44293820950394" lon="10.704392762574418"><ele>76.5</ele><time>2026-04-12T13:40:45.001Z</time></trkpt><trkpt lat="45.44288188138382" lon="10.704204607413047"><ele>74.75</ele><time>2026-04-12T13:40:46.001Z</time></trkpt><trkpt lat="45.44282893997554" lon="10.70403071173312"><ele>73.0</ele><time>2026-04-12T13:40:47.001Z</time></trkpt><trkpt lat="45.44277379686444" lon="10.70386964745911"><ele>73.0</ele><time>2026-04-12T13:40:48.001Z</time></trkpt><trkpt lat="45.44272474633739" lon="10.703727574066015"><ele>73.0</ele><time>2026-04-12T13:40:49.001Z</time></trkpt><trkpt lat="45.442680644352585" lon="10.703600864846077"><ele>73.0</ele><time>2026-04-12T13:40:50.001Z</time></trkpt><trkpt lat="45.44264277305998" lon="10.7034906174691"><ele>73.0</ele><time>2026-04-12T13:40:51.001Z</time></trkpt><trkpt lat="45.44259488098441" lon="10.703373365775144"><ele>73.0</ele><time>2026-04-12T13:40:52.001Z</time></trkpt><trkpt lat="45.44253769836415" lon="10.703234601167201"><ele>72.75</ele><time>2026-04-12T13:40:53.001Z</time></trkpt><trkpt lat="45.44247686631455" lon="10.703066850561497"><ele>72.5</ele><time>2026-04-12T13:40:54.001Z</time></trkpt><trkpt lat="45.44241510522279" lon="10.702878887972131"><ele>72.25</ele><time>2026-04-12T13:40:55.001Z</time></trkpt><trkpt lat="45.44234737820454" lon="10.70266948562118"><ele>72.0</ele><time>2026-04-12T13:40:56.001Z</time></trkpt><trkpt lat="45.44225843828565" lon="10.702447661003124"><ele>71.66666666666667</ele><time>2026-04-12T13:40:57.001Z</time></trkpt><trkpt lat="45.44216134849857" lon="10.702247114775421"><ele>71.33333333333334</ele><time>2026-04-12T13:40:58.001Z</time></trkpt><trkpt lat="45.44206735145788" lon="10.702069981131933"><ele>71.0</ele><time>2026-04-12T13:40:59.001Z</time></trkpt><trkpt lat="45.441968289665006" lon="10.701915823562544"><ele>70.75</ele><time>2026-04-12T13:41:00.001Z</time></trkpt><trkpt lat="45.44186623635218" lon="10.701782728589388"><ele>70.5</ele><time>2026-04-12T13:41:01.001Z</time></trkpt><trkpt lat="45.44175419455436" lon="10.701659199517213"><ele>70.25</ele><time>2026-04-12T13:41:02.001Z</time></trkpt><trkpt lat="45.44164946795797" lon="10.70154498628666"><ele>70.0</ele><time>2026-04-12T13:41:03.001Z</time></trkpt><trkpt lat="45.44154294010707" lon="10.70142700900838"><ele>70.0</ele><time>2026-04-12T13:41:04.001Z</time></trkpt><trkpt lat="45.44143748914177" lon="10.701308638904798"><ele>70.0</ele><time>2026-04-12T13:41:05.001Z</time></trkpt><trkpt lat="45.441332480488256" lon="10.701194376680425"><ele>70.0</ele><time>2026-04-12T13:41:06.001Z</time></trkpt><trkpt lat="45.44122987623648" lon="10.701080926185385"><ele>70.0</ele><time>2026-04-12T13:41:07.001Z</time></trkpt><trkpt lat="45.441130755673" lon="10.700972920006345"><ele>70.25</ele><time>2026-04-12T13:41:08.001Z</time></trkpt><trkpt lat="45.4410317056138" lon="10.700866192485647"><ele>70.5</ele><time>2026-04-12T13:41:09.001Z</time></trkpt><trkpt lat="45.44093723325107" lon="10.700759236791923"><ele>70.75</ele><time>2026-04-12T13:41:10.001Z</time></trkpt><trkpt lat="45.440844193993875" lon="10.700654387299345"><ele>71.0</ele><time>2026-04-12T13:41:11.001Z</time></trkpt><trkpt lat="45.44075244277517" lon="10.700558070535681"><ele>71.0</ele><time>2026-04-12T13:41:12.001Z</time></trkpt><trkpt lat="45.44066350941171" lon="10.700462153232746"><ele>71.0</ele><time>2026-04-12T13:41:13.001Z</time></trkpt><trkpt lat="45.44057740674244" lon="10.700369462138324"><ele>71.0</ele><time>2026-04-12T13:41:14.001Z</time></trkpt><trkpt lat="45.440498932192725" lon="10.700269404494707"><ele>71.0</ele><time>2026-04-12T13:41:15.001Z</time></trkpt><trkpt lat="45.44042590225802" lon="10.700175978305348"><ele>71.0</ele><time>2026-04-12T13:41:16.001Z</time></trkpt><trkpt lat="45.44036342997312" lon="10.70007128981588"><ele>70.66666666666667</ele><time>2026-04-12T13:41:17.001Z</time></trkpt><trkpt lat="45.440320862429" lon="10.699956091197164"><ele>70.33333333333334</ele><time>2026-04-12T13:41:18.001Z</time></trkpt><trkpt lat="45.44029330445066" lon="10.69985120368072"><ele>70.0</ele><time>2026-04-12T13:41:19.001Z</time></trkpt><trkpt lat="45.44029861709352" lon="10.699761106187621"><ele>69.66666666666667</ele><time>2026-04-12T13:41:20.001Z</time></trkpt><trkpt lat="45.440304433589304" lon="10.699638329313837"><ele>69.33333333333333</ele><time>2026-04-12T13:41:22.001Z</time></trkpt><trkpt lat="45.44030706217049" lon="10.699540498636045"><ele>69.0</ele><time>2026-04-12T13:41:24.001Z</time></trkpt><trkpt lat="45.440326672847455" lon="10.699441149190855"><ele>68.33333333333333</ele><time>2026-04-12T13:41:28.001Z</time></trkpt><trkpt lat="45.44037467300199" lon="10.699304160026013"><ele>67.66666666666667</ele><time>2026-04-12T13:41:30.001Z</time></trkpt><trkpt lat="45.440404740919035" lon="10.699220915464718"><ele>67.0</ele><time>2026-04-12T13:41:31.001Z</time></trkpt><trkpt lat="45.44042437423691" lon="10.699066930928833"><ele>66.33333333333334</ele><time>2026-04-12T13:41:33.001Z</time></trkpt><trkpt lat="45.440428640378045" lon="10.698970446700748"><ele>65.66666666666667</ele><time>2026-04-12T13:41:34.001Z</time></trkpt><trkpt lat="45.44041328666053" lon="10.698872711848734"><ele>65.0</ele><time>2026-04-12T13:41:35.001Z</time></trkpt><trkpt lat="45.440405334124975" lon="10.698773589367544"><ele>65.0</ele><time>2026-04-12T13:41:36.002Z</time></trkpt><trkpt lat="45.440502174238226" lon="10.698666032454573"><ele>65.0</ele><time>2026-04-12T13:41:37.002Z</time></trkpt><trkpt lat="45.44055794804127" lon="10.69856866055656"><ele>65.0</ele><time>2026-04-12T13:41:38.002Z</time></trkpt><trkpt lat="45.44062572471203" lon="10.698457454814196"><ele>65.0</ele><time>2026-04-12T13:41:39.002Z</time></trkpt><trkpt lat="45.44069224014774" lon="10.698326854707554"><ele>65.0</ele><time>2026-04-12T13:41:40.002Z</time></trkpt><trkpt lat="45.44073221250934" lon="10.698171913786387"><ele>65.0</ele><time>2026-04-12T13:41:41.002Z</time></trkpt><trkpt lat="45.44072893926984" lon="10.698009190101649"><ele>65.0</ele><time>2026-04-12T13:41:42.002Z</time></trkpt><trkpt lat="45.440714432452516" lon="10.697835276877974"><ele>65.0</ele><time>2026-04-12T13:41:43.002Z</time></trkpt><trkpt lat="45.44070749375273" lon="10.697665196775894"><ele>65.0</ele><time>2026-04-12T13:41:44Z</time></trkpt><trkpt lat="45.44070341813171" lon="10.69749854020039"><ele>65.0</ele><time>2026-04-12T13:41:45Z</time></trkpt><trkpt lat="45.440700655008534" lon="10.69732975422691"><ele>65.0</ele><time>2026-04-12T13:41:46Z</time></trkpt><trkpt lat="45.44069689072154" lon="10.697166991560685"><ele>65.0</ele><time>2026-04-12T13:41:47Z</time></trkpt><trkpt lat="45.44068811436607" lon="10.697022087323086"><ele>65.0</ele><time>2026-04-12T13:41:48Z</time></trkpt><trkpt lat="45.44066583470827" lon="10.696882325485221"><ele>65.0</ele><time>2026-04-12T13:41:49Z</time></trkpt><trkpt lat="45.440633510902025" lon="10.696754801958253"><ele>65.2</ele><time>2026-04-12T13:41:50Z</time></trkpt><trkpt lat="45.440581288026614" lon="10.696644714688976"><ele>65.4</ele><time>2026-04-12T13:41:51Z</time></trkpt><trkpt lat="45.44050814514037" lon="10.696557047345273"><ele>65.6</ele><time>2026-04-12T13:41:52Z</time></trkpt><trkpt lat="45.44042160470872" lon="10.69648621845129"><ele>65.8</ele><time>2026-04-12T13:41:53Z</time></trkpt><trkpt lat="45.44032871592431" lon="10.69642877220877"><ele>66.0</ele><time>2026-04-12T13:41:54Z</time></trkpt><trkpt lat="45.4402385567512" lon="10.696375401248298"><ele>66.16666666666667</ele><time>2026-04-12T13:41:55Z</time></trkpt><trkpt lat="45.44015755522867" lon="10.696327992262615"><ele>66.33333333333333</ele><time>2026-04-12T13:41:56Z</time></trkpt><trkpt lat="45.44008111631124" lon="10.696272221965888"><ele>66.5</ele><time>2026-04-12T13:41:57Z</time></trkpt><trkpt lat="45.44001045732315" lon="10.696212091707618"><ele>66.66666666666666</ele><time>2026-04-12T13:41:58Z</time></trkpt><trkpt lat="45.439926152647715" lon="10.696175426000972"><ele>66.83333333333333</ele><time>2026-04-12T13:41:59Z</time></trkpt><trkpt lat="45.43986562378513" lon="10.696132449256842"><ele>67.0</ele><time>2026-04-12T13:42:00Z</time></trkpt><trkpt lat="45.439788020174156" lon="10.696091886578834"><ele>67.0</ele><time>2026-04-12T13:42:01Z</time></trkpt><trkpt lat="45.439710420655196" lon="10.696035790624686"><ele>67.0</ele><time>2026-04-12T13:42:02Z</time></trkpt><trkpt lat="45.439632171403815" lon="10.69598271902345"><ele>67.0</ele><time>2026-04-12T13:42:03Z</time></trkpt><trkpt lat="45.43955900696395" lon="10.695922284560766"><ele>67.0</ele><time>2026-04-12T13:42:04Z</time></trkpt><trkpt lat="45.439496191335046" lon="10.695859175994226"><ele>67.0</ele><time>2026-04-12T13:42:05Z</time></trkpt><trkpt lat="45.439453062476055" lon="10.695787023290437"><ele>67.0</ele><time>2026-04-12T13:42:06Z</time></trkpt><trkpt lat="45.43942373242114" lon="10.695704869723466"><ele>67.0</ele><time>2026-04-12T13:42:07Z</time></trkpt><trkpt lat="45.43941062382888" lon="10.695520403911209"><ele>67.0</ele><time>2026-04-12T13:42:09Z</time></trkpt><trkpt lat="45.43941602061297" lon="10.695398569606747"><ele>67.0</ele><time>2026-04-12T13:42:10Z</time></trkpt><trkpt lat="45.439437302758755" lon="10.695255761351312"><ele>67.0</ele><time>2026-04-12T13:42:11Z</time></trkpt><trkpt lat="45.43947554328464" lon="10.695093459554535"><ele>67.0</ele><time>2026-04-12T13:42:12Z</time></trkpt><trkpt lat="45.439527693844255" lon="10.694892569965528"><ele>67.66666666666666</ele><time>2026-04-12T13:42:13Z</time></trkpt><trkpt lat="45.43959255548848" lon="10.694651992754135"><ele>68.33333333333333</ele><time>2026-04-12T13:42:14Z</time></trkpt><trkpt lat="45.439664666605644" lon="10.69439716584361"><ele>69.0</ele><time>2026-04-12T13:42:15Z</time></trkpt><trkpt lat="45.43972288689757" lon="10.694148809219591"><ele>69.0</ele><time>2026-04-12T13:42:16Z</time></trkpt><trkpt lat="45.43976009645172" lon="10.693946602451938"><ele>69.0</ele><time>2026-04-12T13:42:17Z</time></trkpt><trkpt lat="45.43979537092581" lon="10.693766779831803"><ele>69.0</ele><time>2026-04-12T13:42:18Z</time></trkpt><trkpt lat="45.439826075177706" lon="10.693620049107675"><ele>69.0</ele><time>2026-04-12T13:42:19Z</time></trkpt><trkpt lat="45.43980051929128" lon="10.69346632193503"><ele>68.83333333333333</ele><time>2026-04-12T13:42:20Z</time></trkpt><trkpt lat="45.43974247051424" lon="10.693329420405968"><ele>68.66666666666667</ele><time>2026-04-12T13:42:21Z</time></trkpt><trkpt lat="45.439673599520255" lon="10.69323253892901"><ele>68.5</ele><time>2026-04-12T13:42:22Z</time></trkpt><trkpt lat="45.43960612251277" lon="10.693156749956028"><ele>68.33333333333334</ele><time>2026-04-12T13:42:23Z</time></trkpt><trkpt lat="45.43953517039822" lon="10.69311117542653"><ele>68.16666666666667</ele><time>2026-04-12T13:42:24.001Z</time></trkpt><trkpt lat="45.439473510100676" lon="10.693065139022215"><ele>68.0</ele><time>2026-04-12T13:42:25.001Z</time></trkpt><trkpt lat="45.43941475678585" lon="10.693029615242324"><ele>68.4</ele><time>2026-04-12T13:42:26.001Z</time></trkpt><trkpt lat="45.4393176474467" lon="10.692955534626535"><ele>68.8</ele><time>2026-04-12T13:42:28.001Z</time></trkpt><trkpt lat="45.43925430016074" lon="10.692867468151913"><ele>69.2</ele><time>2026-04-12T13:42:30.001Z</time></trkpt><trkpt lat="45.43921300022642" lon="10.692796544969946"><ele>69.6</ele><time>2026-04-12T13:42:32.001Z</time></trkpt><trkpt lat="45.43921938711835" lon="10.692689431019838"><ele>70.0</ele><time>2026-04-12T13:42:34.001Z</time></trkpt><trkpt lat="45.43925154215732" lon="10.692534462034025"><ele>70.0</ele><time>2026-04-12T13:42:36.001Z</time></trkpt><trkpt lat="45.439275456974" lon="10.692451449264874"><ele>70.0</ele><time>2026-04-12T13:42:37.001Z</time></trkpt><trkpt lat="45.439298336345495" lon="10.692367085534237"><ele>70.0</ele><time>2026-04-12T13:42:38.001Z</time></trkpt><trkpt lat="45.439345052132595" lon="10.692218801840538"><ele>70.0</ele><time>2026-04-12T13:42:40.001Z</time></trkpt><trkpt lat="45.439390444959386" lon="10.692078629837289"><ele>70.0</ele><time>2026-04-12T13:42:42.001Z</time></trkpt><trkpt lat="45.43944039903141" lon="10.691923633878712"><ele>69.83333333333333</ele><time>2026-04-12T13:42:44.001Z</time></trkpt><trkpt lat="45.43949349382696" lon="10.69177192262794"><ele>69.66666666666666</ele><time>2026-04-12T13:42:46.001Z</time></trkpt><trkpt lat="45.439523544389914" lon="10.691690774269746"><ele>69.5</ele><time>2026-04-12T13:42:47.001Z</time></trkpt><trkpt lat="45.43955755747198" lon="10.691599116308522"><ele>69.33333333333333</ele><time>2026-04-12T13:42:48.001Z</time></trkpt><trkpt lat="45.43959471065368" lon="10.691502220695394"><ele>69.16666666666667</ele><time>2026-04-12T13:42:49.001Z</time></trkpt><trkpt lat="45.43963282189383" lon="10.691402837303151"><ele>69.0</ele><time>2026-04-12T13:42:50.001Z</time></trkpt><trkpt lat="45.43966806315936" lon="10.69130738739204"><ele>68.33333333333333</ele><time>2026-04-12T13:42:51.001Z</time></trkpt><trkpt lat="45.43970539701241" lon="10.6912215323495"><ele>67.66666666666667</ele><time>2026-04-12T13:42:52.001Z</time></trkpt><trkpt lat="45.43974098518869" lon="10.691142422461347"><ele>67.0</ele><time>2026-04-12T13:42:53.001Z</time></trkpt><trkpt lat="45.439774936249854" lon="10.691066613851742"><ele>66.33333333333334</ele><time>2026-04-12T13:42:54.001Z</time></trkpt><trkpt lat="45.43984101104015" lon="10.690924784947944"><ele>65.66666666666667</ele><time>2026-04-12T13:42:56.001Z</time></trkpt><trkpt lat="45.43991910496713" lon="10.690814592827872"><ele>65.0</ele><time>2026-04-12T13:42:58.001Z</time></trkpt><trkpt lat="45.43996374321324" lon="10.690751025741227"><ele>65.0</ele><time>2026-04-12T13:43:00.001Z</time></trkpt><trkpt lat="45.44000072062013" lon="10.69063021210909"><ele>65.0</ele><time>2026-04-12T13:43:02.001Z</time></trkpt><trkpt lat="45.440030720271004" lon="10.690504343748133"><ele>65.0</ele><time>2026-04-12T13:43:04.001Z</time></trkpt><trkpt lat="45.44005283348274" lon="10.690414773192057"><ele>65.0</ele><time>2026-04-12T13:43:06.001Z</time></trkpt><trkpt lat="45.44007262008712" lon="10.690286085001096"><ele>65.0</ele><time>2026-04-12T13:43:15.001Z</time></trkpt><trkpt lat="45.44010454086599" lon="10.690118800300406"><ele>65.33333333333334</ele><time>2026-04-12T13:43:17.001Z</time></trkpt><trkpt lat="45.44014729164523" lon="10.689948957047644"><ele>65.66666666666667</ele><time>2026-04-12T13:43:19.001Z</time></trkpt><trkpt lat="45.440158868456166" lon="10.689855380324762"><ele>66.0</ele><time>2026-04-12T13:43:20.001Z</time></trkpt><trkpt lat="45.44016845490996" lon="10.689752381409171"><ele>66.33333333333333</ele><time>2026-04-12T13:43:21.001Z</time></trkpt><trkpt lat="45.44015979650049" lon="10.689641917348188"><ele>66.66666666666666</ele><time>2026-04-12T13:43:22.001Z</time></trkpt><trkpt lat="45.44016242083026" lon="10.689524854830031"><ele>67.0</ele><time>2026-04-12T13:43:23.001Z</time></trkpt><trkpt lat="45.44016373289056" lon="10.689407170315645"><ele>67.66666666666666</ele><time>2026-04-12T13:43:24.001Z</time></trkpt><trkpt lat="45.44017617146647" lon="10.689299153008529"><ele>68.33333333333333</ele><time>2026-04-12T13:43:25.001Z</time></trkpt><trkpt lat="45.44016947508584" lon="10.689186889415298"><ele>69.0</ele><time>2026-04-12T13:43:26.001Z</time></trkpt><trkpt lat="45.44014120910057" lon="10.68906221612979"><ele>69.66666666666667</ele><time>2026-04-12T13:43:27.001Z</time></trkpt><trkpt lat="45.440128180503855" lon="10.688931334738152"><ele>70.33333333333334</ele><time>2026-04-12T13:43:28.001Z</time></trkpt><trkpt lat="45.4401056044113" lon="10.6887932723742"><ele>71.0</ele><time>2026-04-12T13:43:29.001Z</time></trkpt><trkpt lat="45.440073997660384" lon="10.68864009623437"><ele>71.5</ele><time>2026-04-12T13:43:30.001Z</time></trkpt><trkpt lat="45.44006461456338" lon="10.688449333698998"><ele>72.0</ele><time>2026-04-12T13:43:31.001Z</time></trkpt><trkpt lat="45.44003313463909" lon="10.68824539915326"><ele>72.5</ele><time>2026-04-12T13:43:32.001Z</time></trkpt><trkpt lat="45.44000053963006" lon="10.68803487555317"><ele>73.0</ele><time>2026-04-12T13:43:33.001Z</time></trkpt><trkpt lat="45.43996812904347" lon="10.687825326246053"><ele>73.0</ele><time>2026-04-12T13:43:34.001Z</time></trkpt><trkpt lat="45.43993517113062" lon="10.687616232242503"><ele>73.0</ele><time>2026-04-12T13:43:35.001Z</time></trkpt><trkpt lat="45.43991149015902" lon="10.687465123085678"><ele>73.0</ele><time>2026-04-12T13:43:36.001Z</time></trkpt><trkpt lat="45.439873957426876" lon="10.687278428955864"><ele>73.0</ele><time>2026-04-12T13:43:37.001Z</time></trkpt><trkpt lat="45.4398510172222" lon="10.68712007745958"><ele>73.0</ele><time>2026-04-12T13:43:38.001Z</time></trkpt><trkpt lat="45.439832450446346" lon="10.686970869581577"><ele>73.0</ele><time>2026-04-12T13:43:39.001Z</time></trkpt><trkpt lat="45.439822661208446" lon="10.68682456499006"><ele>73.0</ele><time>2026-04-12T13:43:40.001Z</time></trkpt><trkpt lat="45.43980659137062" lon="10.686669991580601"><ele>73.0</ele><time>2026-04-12T13:43:41.001Z</time></trkpt><trkpt lat="45.43979462950496" lon="10.68650738262682"><ele>73.0</ele><time>2026-04-12T13:43:42.001Z</time></trkpt><trkpt lat="45.43979505396594" lon="10.68633582974267"><ele>73.75</ele><time>2026-04-12T13:43:43.001Z</time></trkpt><trkpt lat="45.439790315206245" lon="10.686174676515085"><ele>74.5</ele><time>2026-04-12T13:43:44.001Z</time></trkpt><trkpt lat="45.43985240292479" lon="10.685996004520327"><ele>75.25</ele><time>2026-04-12T13:43:45.001Z</time></trkpt><trkpt lat="45.43990067341214" lon="10.6858290577215"><ele>76.0</ele><time>2026-04-12T13:43:46.001Z</time></trkpt><trkpt lat="45.439946880730226" lon="10.685663668126395"><ele>76.25</ele><time>2026-04-12T13:43:47.001Z</time></trkpt><trkpt lat="45.43998938433681" lon="10.685492423049393"><ele>76.5</ele><time>2026-04-12T13:43:48.001Z</time></trkpt><trkpt lat="45.440033657394366" lon="10.6853157809892"><ele>76.75</ele><time>2026-04-12T13:43:49.001Z</time></trkpt><trkpt lat="45.44008038725607" lon="10.685140526768503"><ele>77.0</ele><time>2026-04-12T13:43:50Z</time></trkpt><trkpt lat="45.44012738439481" lon="10.684963330333053"><ele>77.0</ele><time>2026-04-12T13:43:51Z</time></trkpt><trkpt lat="45.44017498336325" lon="10.684777039666491"><ele>77.0</ele><time>2026-04-12T13:43:52Z</time></trkpt><trkpt lat="45.440221670405876" lon="10.684586332324386"><ele>77.0</ele><time>2026-04-12T13:43:53Z</time></trkpt><trkpt lat="45.440269477027854" lon="10.684396805693568"><ele>77.0</ele><time>2026-04-12T13:43:54Z</time></trkpt><trkpt lat="45.44031959581657" lon="10.684203957944124"><ele>77.5</ele><time>2026-04-12T13:43:55Z</time></trkpt><trkpt lat="45.44036864998138" lon="10.684010467460249"><ele>78.0</ele><time>2026-04-12T13:43:56Z</time></trkpt><trkpt lat="45.44041929203913" lon="10.683812999151973"><ele>78.5</ele><time>2026-04-12T13:43:57Z</time></trkpt><trkpt lat="45.44047181304901" lon="10.683613341770261"><ele>79.0</ele><time>2026-04-12T13:43:58Z</time></trkpt><trkpt lat="45.44051602403475" lon="10.6834194148985"><ele>80.0</ele><time>2026-04-12T13:43:59Z</time></trkpt><trkpt lat="45.440565692329336" lon="10.683228985885885"><ele>81.0</ele><time>2026-04-12T13:44:00Z</time></trkpt><trkpt lat="45.44061161469181" lon="10.683043979238759"><ele>82.0</ele><time>2026-04-12T13:44:01Z</time></trkpt><trkpt lat="45.440659245645925" lon="10.682859826886187"><ele>83.0</ele><time>2026-04-12T13:44:02Z</time></trkpt><trkpt lat="45.44070321725946" lon="10.682683952126379"><ele>83.4</ele><time>2026-04-12T13:44:03Z</time></trkpt><trkpt lat="45.44074501253251" lon="10.6825206852008"><ele>83.80000000000001</ele><time>2026-04-12T13:44:04Z</time></trkpt><trkpt lat="45.44078267123501" lon="10.682380384984524"><ele>84.2</ele><time>2026-04-12T13:44:05Z</time></trkpt><trkpt lat="45.44080997473305" lon="10.68227014878358"><ele>84.6</ele><time>2026-04-12T13:44:06Z</time></trkpt><trkpt lat="45.440843311407065" lon="10.682134025289926"><ele>85.0</ele><time>2026-04-12T13:44:08Z</time></trkpt><trkpt lat="45.44086936780974" lon="10.682028594855096"><ele>85.4</ele><time>2026-04-12T13:44:10Z</time></trkpt><trkpt lat="45.44091333977546" lon="10.681845691115099"><ele>85.8</ele><time>2026-04-12T13:44:12Z</time></trkpt><trkpt lat="45.440942496921885" lon="10.681741260754979"><ele>86.19999999999999</ele><time>2026-04-12T13:44:13Z</time></trkpt><trkpt lat="45.440961614917455" lon="10.681636285054104"><ele>86.6</ele><time>2026-04-12T13:44:14Z</time></trkpt><trkpt lat="45.44098123113165" lon="10.681546057383239"><ele>87.0</ele><time>2026-04-12T13:44:15Z</time></trkpt><trkpt lat="45.441020128668015" lon="10.681364544826614"><ele>87.0</ele><time>2026-04-12T13:44:17Z</time></trkpt><trkpt lat="45.44103797333633" lon="10.68127249329244"><ele>87.0</ele><time>2026-04-12T13:44:18Z</time></trkpt><trkpt lat="45.4410602392569" lon="10.681110141869835"><ele>87.0</ele><time>2026-04-12T13:44:20Z</time></trkpt><trkpt lat="45.44106435892838" lon="10.680945194653075"><ele>87.0</ele><time>2026-04-12T13:44:22Z</time></trkpt><trkpt lat="45.44106962813249" lon="10.680789762967793"><ele>87.0</ele><time>2026-04-12T13:44:24Z</time></trkpt><trkpt lat="45.44107851462931" lon="10.680657663622911"><ele>86.75</ele><time>2026-04-12T13:44:26Z</time></trkpt><trkpt lat="45.44109247764442" lon="10.680472854144195"><ele>86.5</ele><time>2026-04-12T13:44:28Z</time></trkpt><trkpt lat="45.44110507036655" lon="10.680344517283045"><ele>86.25</ele><time>2026-04-12T13:44:29Z</time></trkpt><trkpt lat="45.44112388702167" lon="10.680192238883274"><ele>86.0</ele><time>2026-04-12T13:44:30Z</time></trkpt><trkpt lat="45.44114928052926" lon="10.680024918089698"><ele>85.75</ele><time>2026-04-12T13:44:31Z</time></trkpt><trkpt lat="45.44117647384109" lon="10.67984665727294"><ele>85.5</ele><time>2026-04-12T13:44:32Z</time></trkpt><trkpt lat="45.441214370502124" lon="10.679664158600934"><ele>85.25</ele><time>2026-04-12T13:44:33Z</time></trkpt><trkpt lat="45.44125023101147" lon="10.679459459688635"><ele>85.0</ele><time>2026-04-12T13:44:34Z</time></trkpt><trkpt lat="45.44128907567866" lon="10.67924644302816"><ele>85.0</ele><time>2026-04-12T13:44:35Z</time></trkpt><trkpt lat="45.44133570808662" lon="10.679027759367118"><ele>85.0</ele><time>2026-04-12T13:44:36Z</time></trkpt><trkpt lat="45.44137989640099" lon="10.678820967561881"><ele>85.0</ele><time>2026-04-12T13:44:37Z</time></trkpt><trkpt lat="45.44141719030422" lon="10.678625925807976"><ele>85.0</ele><time>2026-04-12T13:44:38Z</time></trkpt><trkpt lat="45.441451592111626" lon="10.67844651996302"><ele>85.0</ele><time>2026-04-12T13:44:39Z</time></trkpt><trkpt lat="45.44147998439304" lon="10.678273312731505"><ele>85.0</ele><time>2026-04-12T13:44:40Z</time></trkpt><trkpt lat="45.44150818454706" lon="10.678120416078658"><ele>85.0</ele><time>2026-04-12T13:44:41Z</time></trkpt><trkpt lat="45.44153523520473" lon="10.677981055867017"><ele>85.0</ele><time>2026-04-12T13:44:42Z</time></trkpt><trkpt lat="45.441560104100496" lon="10.677844825819074"><ele>85.0</ele><time>2026-04-12T13:44:43Z</time></trkpt><trkpt lat="45.44158892387192" lon="10.677708886621815"><ele>85.0</ele><time>2026-04-12T13:44:44.001Z</time></trkpt><trkpt lat="45.44163496796844" lon="10.677556199176353"><ele>85.0</ele><time>2026-04-12T13:44:45.001Z</time></trkpt><trkpt lat="45.441689832699915" lon="10.67739433477104"><ele>85.0</ele><time>2026-04-12T13:44:46.001Z</time></trkpt><trkpt lat="45.44174499965472" lon="10.677225645049512"><ele>85.2</ele><time>2026-04-12T13:44:47.001Z</time></trkpt><trkpt lat="45.441798283235634" lon="10.677068392017851"><ele>85.4</ele><time>2026-04-12T13:44:48.001Z</time></trkpt><trkpt lat="45.44184133120712" lon="10.676921400146316"><ele>85.6</ele><time>2026-04-12T13:44:49.001Z</time></trkpt><trkpt lat="45.441872146936056" lon="10.676807805904184"><ele>85.8</ele><time>2026-04-12T13:44:50.001Z</time></trkpt><trkpt lat="45.44189509584381" lon="10.676715009493575"><ele>86.0</ele><time>2026-04-12T13:44:51.001Z</time></trkpt><trkpt lat="45.4419188312747" lon="10.676618605845679"><ele>85.4</ele><time>2026-04-12T13:44:53.001Z</time></trkpt><trkpt lat="45.44195578711992" lon="10.676455634732891"><ele>84.8</ele><time>2026-04-12T13:44:56.001Z</time></trkpt><trkpt lat="45.44197845433715" lon="10.676357299785979"><ele>84.2</ele><time>2026-04-12T13:44:57.001Z</time></trkpt><trkpt lat="45.442009792264756" lon="10.676250519905809"><ele>83.60000000000001</ele><time>2026-04-12T13:44:58.001Z</time></trkpt><trkpt lat="45.44204662657632" lon="10.67613353661931"><ele>83.0</ele><time>2026-04-12T13:44:59.001Z</time></trkpt><trkpt lat="45.44208747375771" lon="10.675994523868818"><ele>82.75</ele><time>2026-04-12T13:45:00.001Z</time></trkpt><trkpt lat="45.44210689755899" lon="10.675833136386935"><ele>82.5</ele><time>2026-04-12T13:45:01.001Z</time></trkpt><trkpt lat="45.44219038553724" lon="10.675675443477742"><ele>82.25</ele><time>2026-04-12T13:45:02.001Z</time></trkpt><trkpt lat="45.442258724607804" lon="10.675500830105337"><ele>82.0</ele><time>2026-04-12T13:45:03.001Z</time></trkpt><trkpt lat="45.44234027845429" lon="10.675318613949857"><ele>81.66666666666666</ele><time>2026-04-12T13:45:04.001Z</time></trkpt><trkpt lat="45.442427342569296" lon="10.675127564937664"><ele>81.33333333333333</ele><time>2026-04-12T13:45:05.001Z</time></trkpt><trkpt lat="45.442520194893895" lon="10.674934069993348"><ele>81.0</ele><time>2026-04-12T13:45:06.001Z</time></trkpt><trkpt lat="45.442617723224245" lon="10.674750135921284"><ele>81.0</ele><time>2026-04-12T13:45:07.001Z</time></trkpt><trkpt lat="45.44271615236791" lon="10.674567050095865"><ele>81.0</ele><time>2026-04-12T13:45:08.001Z</time></trkpt><trkpt lat="45.442814073639354" lon="10.674403851769126"><ele>81.0</ele><time>2026-04-12T13:45:09.001Z</time></trkpt><trkpt lat="45.44291595348859" lon="10.674249031691012"><ele>81.5</ele><time>2026-04-12T13:45:10.001Z</time></trkpt><trkpt lat="45.44301706970851" lon="10.674094210026682"><ele>82.0</ele><time>2026-04-12T13:45:11.001Z</time></trkpt><trkpt lat="45.443116227131426" lon="10.673941618307309"><ele>82.5</ele><time>2026-04-12T13:45:12.001Z</time></trkpt><trkpt lat="45.443216572483855" lon="10.673781854108626"><ele>83.0</ele><time>2026-04-12T13:45:13.001Z</time></trkpt><trkpt lat="45.44331551804781" lon="10.673629675617905"><ele>82.75</ele><time>2026-04-12T13:45:14.001Z</time></trkpt><trkpt lat="45.443409340704775" lon="10.673481327729528"><ele>82.5</ele><time>2026-04-12T13:45:15.001Z</time></trkpt><trkpt lat="45.44351299762816" lon="10.673325327031982"><ele>82.25</ele><time>2026-04-12T13:45:16.001Z</time></trkpt><trkpt lat="45.44361965758988" lon="10.673172637012499"><ele>82.0</ele><time>2026-04-12T13:45:17.001Z</time></trkpt><trkpt lat="45.44373055006172" lon="10.673021669842036"><ele>82.0</ele><time>2026-04-12T13:45:18.001Z</time></trkpt><trkpt lat="45.44384365103104" lon="10.672872566737716"><ele>82.0</ele><time>2026-04-12T13:45:19.001Z</time></trkpt><trkpt lat="45.44395725841066" lon="10.672723063765272"><ele>82.0</ele><time>2026-04-12T13:45:20.001Z</time></trkpt><trkpt lat="45.44407621817793" lon="10.67257463472888"><ele>83.0</ele><time>2026-04-12T13:45:21.001Z</time></trkpt><trkpt lat="45.44419604069742" lon="10.672423197388166"><ele>84.0</ele><time>2026-04-12T13:45:22.001Z</time></trkpt><trkpt lat="45.444311723782555" lon="10.672272596693814"><ele>85.0</ele><time>2026-04-12T13:45:23.001Z</time></trkpt><trkpt lat="45.44442918230026" lon="10.672121414000541"><ele>85.0</ele><time>2026-04-12T13:45:24.001Z</time></trkpt><trkpt lat="45.444547820318924" lon="10.671966517771816"><ele>85.0</ele><time>2026-04-12T13:45:25.001Z</time></trkpt><trkpt lat="45.44466817909722" lon="10.671811479013034"><ele>85.0</ele><time>2026-04-12T13:45:26.001Z</time></trkpt><trkpt lat="45.444788137152585" lon="10.67165459887244"><ele>84.33333333333333</ele><time>2026-04-12T13:45:27.001Z</time></trkpt><trkpt lat="45.44490800235816" lon="10.671500621256605"><ele>83.66666666666667</ele><time>2026-04-12T13:45:28.001Z</time></trkpt><trkpt lat="45.44502841849305" lon="10.671343300898696"><ele>83.0</ele><time>2026-04-12T13:45:29.001Z</time></trkpt><trkpt lat="45.44514098695796" lon="10.67119077554171"><ele>82.33333333333334</ele><time>2026-04-12T13:45:30.001Z</time></trkpt><trkpt lat="45.44525758187415" lon="10.671042090047672"><ele>81.66666666666667</ele><time>2026-04-12T13:45:31.001Z</time></trkpt><trkpt lat="45.44536958762601" lon="10.670890211789017"><ele>81.0</ele><time>2026-04-12T13:45:32.001Z</time></trkpt><trkpt lat="45.445487222833584" lon="10.670744104434425"><ele>81.0</ele><time>2026-04-12T13:45:33.001Z</time></trkpt><trkpt lat="45.445605766602014" lon="10.670596444004062"><ele>81.0</ele><time>2026-04-12T13:45:34.001Z</time></trkpt><trkpt lat="45.445726596454115" lon="10.670447300009995"><ele>81.0</ele><time>2026-04-12T13:45:35.001Z</time></trkpt><trkpt lat="45.445852325467946" lon="10.670285942542987"><ele>81.33333333333333</ele><time>2026-04-12T13:45:36.001Z</time></trkpt><trkpt lat="45.44599471614537" lon="10.67010410856456"><ele>81.66666666666666</ele><time>2026-04-12T13:45:37.001Z</time></trkpt><trkpt lat="45.44614108921825" lon="10.669915711363391"><ele>82.0</ele><time>2026-04-12T13:45:38.001Z</time></trkpt><trkpt lat="45.44628527323162" lon="10.669737809806152"><ele>82.66666666666666</ele><time>2026-04-12T13:45:39.001Z</time></trkpt><trkpt lat="45.44642738861871" lon="10.669574433592066"><ele>83.33333333333333</ele><time>2026-04-12T13:45:40.001Z</time></trkpt><trkpt lat="45.44655023571219" lon="10.669420690939312"><ele>84.0</ele><time>2026-04-12T13:45:41.001Z</time></trkpt><trkpt lat="45.44665528617379" lon="10.669283734589866"><ele>84.0</ele><time>2026-04-12T13:45:42.001Z</time></trkpt><trkpt lat="45.44674365359191" lon="10.669164940367091"><ele>84.0</ele><time>2026-04-12T13:45:43.001Z</time></trkpt><trkpt lat="45.44682009894953" lon="10.669063619857187"><ele>84.0</ele><time>2026-04-12T13:45:44.001Z</time></trkpt><trkpt lat="45.446889994855205" lon="10.668991377705565"><ele>84.0</ele><time>2026-04-12T13:45:45.001Z</time></trkpt><trkpt lat="45.446966217261675" lon="10.668925303326873"><ele>84.0</ele><time>2026-04-12T13:45:46.001Z</time></trkpt><trkpt lat="45.44703398122906" lon="10.668844106834475"><ele>84.0</ele><time>2026-04-12T13:45:47.001Z</time></trkpt><trkpt lat="45.44709465710216" lon="10.66874538040197"><ele>84.0</ele><time>2026-04-12T13:45:48.001Z</time></trkpt><trkpt lat="45.44716056893982" lon="10.668653198801893"><ele>84.0</ele><time>2026-04-12T13:45:49.001Z</time></trkpt><trkpt lat="45.44723768570132" lon="10.668554427890383"><ele>84.0</ele><time>2026-04-12T13:45:50.001Z</time></trkpt><trkpt lat="45.44732033560297" lon="10.668454957927668"><ele>84.0</ele><time>2026-04-12T13:45:51.001Z</time></trkpt><trkpt lat="45.44739877540614" lon="10.668353127049011"><ele>83.80000000000001</ele><time>2026-04-12T13:45:52.001Z</time></trkpt><trkpt lat="45.447472884063075" lon="10.6682570966959"><ele>83.60000000000001</ele><time>2026-04-12T13:45:53.001Z</time></trkpt><trkpt lat="45.44755498153922" lon="10.668151718469478"><ele>83.4</ele><time>2026-04-12T13:45:54.001Z</time></trkpt><trkpt lat="45.447638449378616" lon="10.668038707762628"><ele>83.2</ele><time>2026-04-12T13:45:55.001Z</time></trkpt><trkpt lat="45.447720490036296" lon="10.667932200807948"><ele>83.0</ele><time>2026-04-12T13:45:56Z</time></trkpt><trkpt lat="45.44779959449088" lon="10.6678276139274"><ele>82.60000000000001</ele><time>2026-04-12T13:45:57Z</time></trkpt><trkpt lat="45.447876894274486" lon="10.667725422463166"><ele>82.2</ele><time>2026-04-12T13:45:58Z</time></trkpt><trkpt lat="45.4479536410792" lon="10.667618001988078"><ele>81.8</ele><time>2026-04-12T13:45:59Z</time></trkpt><trkpt lat="45.448037138740666" lon="10.667503320420163"><ele>81.4</ele><time>2026-04-12T13:46:00Z</time></trkpt><trkpt lat="45.448123993009375" lon="10.66739403263172"><ele>81.0</ele><time>2026-04-12T13:46:01Z</time></trkpt><trkpt lat="45.4482193454919" lon="10.667274553028212"><ele>80.75</ele><time>2026-04-12T13:46:02Z</time></trkpt><trkpt lat="45.44831116469774" lon="10.667163242370284"><ele>80.5</ele><time>2026-04-12T13:46:03Z</time></trkpt><trkpt lat="45.44840291623691" lon="10.667048367833205"><ele>80.25</ele><time>2026-04-12T13:46:04Z</time></trkpt><trkpt lat="45.44848713014665" lon="10.666933942865832"><ele>80.0</ele><time>2026-04-12T13:46:05Z</time></trkpt><trkpt lat="45.44857362689752" lon="10.666823195430663"><ele>80.0</ele><time>2026-04-12T13:46:06Z</time></trkpt><trkpt lat="45.4486600366617" lon="10.666709711186613"><ele>80.0</ele><time>2026-04-12T13:46:07Z</time></trkpt><trkpt lat="45.44874892047966" lon="10.666594387130573"><ele>80.0</ele><time>2026-04-12T13:46:08Z</time></trkpt><trkpt lat="45.44883692734963" lon="10.666480332539086"><ele>80.0</ele><time>2026-04-12T13:46:09Z</time></trkpt><trkpt lat="45.448923040444406" lon="10.666364878414322"><ele>79.5</ele><time>2026-04-12T13:46:10Z</time></trkpt><trkpt lat="45.44900919187781" lon="10.666245285876402"><ele>79.0</ele><time>2026-04-12T13:46:11Z</time></trkpt><trkpt lat="45.44909981335411" lon="10.666126599250914"><ele>78.5</ele><time>2026-04-12T13:46:12Z</time></trkpt><trkpt lat="45.44919139320754" lon="10.666005582657707"><ele>78.0</ele><time>2026-04-12T13:46:13Z</time></trkpt><trkpt lat="45.44928227240161" lon="10.665886889843645"><ele>78.0</ele><time>2026-04-12T13:46:14Z</time></trkpt><trkpt lat="45.449376415353754" lon="10.665770208972104"><ele>78.0</ele><time>2026-04-12T13:46:15Z</time></trkpt><trkpt lat="45.44946626000942" lon="10.66565896233583"><ele>78.0</ele><time>2026-04-12T13:46:16Z</time></trkpt><trkpt lat="45.4495571987949" lon="10.665540399032626"><ele>78.0</ele><time>2026-04-12T13:46:17Z</time></trkpt><trkpt lat="45.44964820763842" lon="10.66542105187996"><ele>77.75</ele><time>2026-04-12T13:46:18Z</time></trkpt><trkpt lat="45.44973982686744" lon="10.665296794758722"><ele>77.5</ele><time>2026-04-12T13:46:19Z</time></trkpt><trkpt lat="45.44983024047042" lon="10.665181656325595"><ele>77.25</ele><time>2026-04-12T13:46:20Z</time></trkpt><trkpt lat="45.44991901628737" lon="10.66506320206957"><ele>77.0</ele><time>2026-04-12T13:46:21Z</time></trkpt><trkpt lat="45.45000683426218" lon="10.664950917737425"><ele>76.5</ele><time>2026-04-12T13:46:22Z</time></trkpt><trkpt lat="45.45009174665469" lon="10.664837172658792"><ele>76.0</ele><time>2026-04-12T13:46:23Z</time></trkpt><trkpt lat="45.450175130622405" lon="10.664727312177112"><ele>75.5</ele><time>2026-04-12T13:46:24Z</time></trkpt><trkpt lat="45.450259984061155" lon="10.664618143371491"><ele>75.0</ele><time>2026-04-12T13:46:25Z</time></trkpt><trkpt lat="45.45034397944635" lon="10.664511163435968"><ele>74.75</ele><time>2026-04-12T13:46:26Z</time></trkpt><trkpt lat="45.45043052068433" lon="10.66440067381835"><ele>74.5</ele><time>2026-04-12T13:46:27Z</time></trkpt><trkpt lat="45.450517097941244" lon="10.664285085364064"><ele>74.25</ele><time>2026-04-12T13:46:28Z</time></trkpt><trkpt lat="45.45060338765657" lon="10.664171271601251"><ele>74.0</ele><time>2026-04-12T13:46:29Z</time></trkpt><trkpt lat="45.450688830571885" lon="10.66406030997015"><ele>73.8</ele><time>2026-04-12T13:46:30Z</time></trkpt><trkpt lat="45.45077227738639" lon="10.663951750397729"><ele>73.60000000000001</ele><time>2026-04-12T13:46:31Z</time></trkpt><trkpt lat="45.45085266717561" lon="10.663847576777695"><ele>73.4</ele><time>2026-04-12T13:46:32Z</time></trkpt><trkpt lat="45.450927813265345" lon="10.663749690214594"><ele>73.2</ele><time>2026-04-12T13:46:33Z</time></trkpt><trkpt lat="45.451000841194805" lon="10.663655244692817"><ele>73.0</ele><time>2026-04-12T13:46:34Z</time></trkpt><trkpt lat="45.45106485611084" lon="10.663573711791473"><ele>73.0</ele><time>2026-04-12T13:46:35Z</time></trkpt><trkpt lat="45.451115298138625" lon="10.663507429786996"><ele>73.0</ele><time>2026-04-12T13:46:36Z</time></trkpt><trkpt lat="45.45118849684559" lon="10.663426752302609"><ele>73.0</ele><time>2026-04-12T13:46:38Z</time></trkpt><trkpt lat="45.45127337446442" lon="10.663379245664807"><ele>73.0</ele><time>2026-04-12T13:46:40Z</time></trkpt><trkpt lat="45.45139941047836" lon="10.6633715100321"><ele>73.0</ele><time>2026-04-12T13:46:42Z</time></trkpt><trkpt lat="45.45146212838232" lon="10.663348105761612"><ele>73.0</ele><time>2026-04-12T13:46:43Z</time></trkpt><trkpt lat="45.451513389519974" lon="10.663290469161565"><ele>72.8</ele><time>2026-04-12T13:46:44Z</time></trkpt><trkpt lat="45.45154845912541" lon="10.663198443783239"><ele>72.6</ele><time>2026-04-12T13:46:45Z</time></trkpt><trkpt lat="45.451568645751834" lon="10.663075275948817"><ele>72.4</ele><time>2026-04-12T13:46:46Z</time></trkpt><trkpt lat="45.45155858754167" lon="10.662942917472034"><ele>72.2</ele><time>2026-04-12T13:46:47Z</time></trkpt><trkpt lat="45.45164495344931" lon="10.66282185335406"><ele>72.0</ele><time>2026-04-12T13:46:48Z</time></trkpt><trkpt lat="45.451723256945755" lon="10.662711735985761"><ele>72.0</ele><time>2026-04-12T13:46:49.001Z</time></trkpt><trkpt lat="45.45180764049228" lon="10.662610540405138"><ele>72.0</ele><time>2026-04-12T13:46:50.001Z</time></trkpt><trkpt lat="45.45188640743923" lon="10.662510516484366"><ele>72.0</ele><time>2026-04-12T13:46:51.001Z</time></trkpt><trkpt lat="45.45196095028126" lon="10.662419667826326"><ele>72.0</ele><time>2026-04-12T13:46:52.001Z</time></trkpt><trkpt lat="45.452036920049586" lon="10.66231974674727"><ele>72.0</ele><time>2026-04-12T13:46:53.001Z</time></trkpt><trkpt lat="45.452120340810296" lon="10.662213192035537"><ele>71.5</ele><time>2026-04-12T13:46:54.001Z</time></trkpt><trkpt lat="45.452209445706686" lon="10.66209574977117"><ele>71.0</ele><time>2026-04-12T13:46:55.001Z</time></trkpt><trkpt lat="45.45230533182035" lon="10.661971693763048"><ele>70.5</ele><time>2026-04-12T13:46:56.001Z</time></trkpt><trkpt lat="45.45240165574762" lon="10.66184735930603"><ele>70.0</ele><time>2026-04-12T13:46:57.001Z</time></trkpt><trkpt lat="45.452498407846264" lon="10.661720829705898"><ele>70.0</ele><time>2026-04-12T13:46:58.001Z</time></trkpt><trkpt lat="45.45259218345914" lon="10.661597039326207"><ele>70.0</ele><time>2026-04-12T13:46:59.001Z</time></trkpt><trkpt lat="45.45268608862985" lon="10.661475517793642"><ele>70.0</ele><time>2026-04-12T13:47:00.001Z</time></trkpt><trkpt lat="45.45277212373808" lon="10.661362391594396"><ele>70.0</ele><time>2026-04-12T13:47:01.001Z</time></trkpt><trkpt lat="45.45285243486646" lon="10.661249449028713"><ele>70.0</ele><time>2026-04-12T13:47:02.001Z</time></trkpt><trkpt lat="45.45292818533225" lon="10.661124033150498"><ele>70.0</ele><time>2026-04-12T13:47:03.001Z</time></trkpt><trkpt lat="45.452989777588776" lon="10.660986058775771"><ele>70.0</ele><time>2026-04-12T13:47:04.001Z</time></trkpt><trkpt lat="45.453035877253264" lon="10.660836413489948"><ele>70.0</ele><time>2026-04-12T13:47:05.001Z</time></trkpt><trkpt lat="45.453078722150906" lon="10.66068252591344"><ele>69.25</ele><time>2026-04-12T13:47:06.001Z</time></trkpt><trkpt lat="45.45311292779034" lon="10.660514243817472"><ele>68.5</ele><time>2026-04-12T13:47:07.001Z</time></trkpt><trkpt lat="45.45314487224175" lon="10.660335133716428"><ele>67.75</ele><time>2026-04-12T13:47:08.001Z</time></trkpt><trkpt lat="45.45317531882569" lon="10.660155403654784"><ele>67.0</ele><time>2026-04-12T13:47:09.001Z</time></trkpt><trkpt lat="45.4531992446778" lon="10.659967384656165"><ele>67.0</ele><time>2026-04-12T13:47:10.001Z</time></trkpt><trkpt lat="45.45322124139428" lon="10.65977695040791"><ele>67.0</ele><time>2026-04-12T13:47:11.001Z</time></trkpt><trkpt lat="45.45324373731086" lon="10.659592776881558"><ele>67.0</ele><time>2026-04-12T13:47:12.001Z</time></trkpt><trkpt lat="45.45326749996846" lon="10.659401468899436"><ele>67.0</ele><time>2026-04-12T13:47:13.001Z</time></trkpt><trkpt lat="45.45329067791746" lon="10.659223657340732"><ele>67.25</ele><time>2026-04-12T13:47:14.001Z</time></trkpt><trkpt lat="45.45331342807669" lon="10.65905256321631"><ele>67.5</ele><time>2026-04-12T13:47:15.001Z</time></trkpt><trkpt lat="45.45333274969542" lon="10.65889013295941"><ele>67.75</ele><time>2026-04-12T13:47:16.001Z</time></trkpt><trkpt lat="45.45335228829601" lon="10.658734455224"><ele>68.0</ele><time>2026-04-12T13:47:17.001Z</time></trkpt><trkpt lat="45.45337051387967" lon="10.658583248434432"><ele>68.25</ele><time>2026-04-12T13:47:18.001Z</time></trkpt><trkpt lat="45.45339197665142" lon="10.658427786715533"><ele>68.5</ele><time>2026-04-12T13:47:19.001Z</time></trkpt><trkpt lat="45.4534131070363" lon="10.658263900848013"><ele>68.75</ele><time>2026-04-12T13:47:20.001Z</time></trkpt><trkpt lat="45.45343432349796" lon="10.65810067358636"><ele>69.0</ele><time>2026-04-12T13:47:21.001Z</time></trkpt><trkpt lat="45.45345466553518" lon="10.657922630361856"><ele>69.25</ele><time>2026-04-12T13:47:22.001Z</time></trkpt><trkpt lat="45.45347637922672" lon="10.65773149057382"><ele>69.5</ele><time>2026-04-12T13:47:23.001Z</time></trkpt><trkpt lat="45.45350232448196" lon="10.65752918983088"><ele>69.75</ele><time>2026-04-12T13:47:24.001Z</time></trkpt><trkpt lat="45.453530250621" lon="10.657320943321295"><ele>70.0</ele><time>2026-04-12T13:47:25.001Z</time></trkpt><trkpt lat="45.45355867852439" lon="10.657100636970014"><ele>70.33333333333333</ele><time>2026-04-12T13:47:26.001Z</time></trkpt><trkpt lat="45.453587075917135" lon="10.65689130411798"><ele>70.66666666666667</ele><time>2026-04-12T13:47:27.001Z</time></trkpt><trkpt lat="45.45360937856844" lon="10.65667251349811"><ele>71.0</ele><time>2026-04-12T13:47:28.001Z</time></trkpt><trkpt lat="45.4536337400612" lon="10.656447842663134"><ele>71.0</ele><time>2026-04-12T13:47:29.001Z</time></trkpt><trkpt lat="45.45366555740614" lon="10.656220527796487"><ele>71.0</ele><time>2026-04-12T13:47:30.001Z</time></trkpt><trkpt lat="45.45369222223136" lon="10.655972343878162"><ele>71.0</ele><time>2026-04-12T13:47:31.001Z</time></trkpt><trkpt lat="45.45374232249936" lon="10.655710596197467"><ele>71.33333333333334</ele><time>2026-04-12T13:47:32.001Z</time></trkpt><trkpt lat="45.453778686338744" lon="10.655428761106858"><ele>71.66666666666667</ele><time>2026-04-12T13:47:33.001Z</time></trkpt><trkpt lat="45.45381702211393" lon="10.655135222655245"><ele>72.0</ele><time>2026-04-12T13:47:34.001Z</time></trkpt><trkpt lat="45.45385553382692" lon="10.654841343431565"><ele>72.33333333333333</ele><time>2026-04-12T13:47:35.001Z</time></trkpt><trkpt lat="45.453893892807" lon="10.654548630170938"><ele>72.66666666666666</ele><time>2026-04-12T13:47:36.001Z</time></trkpt><trkpt lat="45.453931748954275" lon="10.654262237333889"><ele>73.0</ele><time>2026-04-12T13:47:37.001Z</time></trkpt><trkpt lat="45.45396741613023" lon="10.653992121098794"><ele>72.66666666666666</ele><time>2026-04-12T13:47:38.001Z</time></trkpt><trkpt lat="45.45398846849607" lon="10.653728525087551"><ele>72.33333333333333</ele><time>2026-04-12T13:47:39.001Z</time></trkpt><trkpt lat="45.454025192165524" lon="10.653480384451203"><ele>72.0</ele><time>2026-04-12T13:47:40.001Z</time></trkpt><trkpt lat="45.45405562926132" lon="10.65321927680175"><ele>72.0</ele><time>2026-04-12T13:47:41.001Z</time></trkpt><trkpt lat="45.45409154542107" lon="10.652950091553892"><ele>72.0</ele><time>2026-04-12T13:47:42.001Z</time></trkpt><trkpt lat="45.45412410471444" lon="10.652680192424524"><ele>72.0</ele><time>2026-04-12T13:47:43.001Z</time></trkpt><trkpt lat="45.45416350685685" lon="10.652410535242199"><ele>71.33333333333333</ele><time>2026-04-12T13:47:44.001Z</time></trkpt><trkpt lat="45.45420396615759" lon="10.652132257675342"><ele>70.66666666666666</ele><time>2026-04-12T13:47:45.001Z</time></trkpt><trkpt lat="45.454241800042745" lon="10.651850404362724"><ele>70.0</ele><time>2026-04-12T13:47:46.001Z</time></trkpt><trkpt lat="45.45428021894039" lon="10.651567221461374"><ele>69.33333333333333</ele><time>2026-04-12T13:47:47.001Z</time></trkpt><trkpt lat="45.45431932324321" lon="10.651286975177936"><ele>68.66666666666667</ele><time>2026-04-12T13:47:48.001Z</time></trkpt><trkpt lat="45.45436168298318" lon="10.651004379146473"><ele>68.0</ele><time>2026-04-12T13:47:49.001Z</time></trkpt><trkpt lat="45.45440025326322" lon="10.650726880933828"><ele>68.0</ele><time>2026-04-12T13:47:50.001Z</time></trkpt><trkpt lat="45.454435334190414" lon="10.650445422762623"><ele>68.0</ele><time>2026-04-12T13:47:51.001Z</time></trkpt><trkpt lat="45.45447236226751" lon="10.65017720849105"><ele>68.0</ele><time>2026-04-12T13:47:52.001Z</time></trkpt><trkpt lat="45.45450965814666" lon="10.64990166752373"><ele>68.0</ele><time>2026-04-12T13:47:53.001Z</time></trkpt><trkpt lat="45.45454548526871" lon="10.649634767125926"><ele>68.0</ele><time>2026-04-12T13:47:54.001Z</time></trkpt><trkpt lat="45.45458248680156" lon="10.64936345897234"><ele>68.0</ele><time>2026-04-12T13:47:55.001Z</time></trkpt><trkpt lat="45.4546142339122" lon="10.649097364130675"><ele>67.66666666666667</ele><time>2026-04-12T13:47:56.001Z</time></trkpt><trkpt lat="45.4546496990297" lon="10.64883650204111"><ele>67.33333333333333</ele><time>2026-04-12T13:47:57.001Z</time></trkpt><trkpt lat="45.454684946183995" lon="10.648574152280288"><ele>67.0</ele><time>2026-04-12T13:47:58.001Z</time></trkpt><trkpt lat="45.454714214731155" lon="10.648308042509763"><ele>67.0</ele><time>2026-04-12T13:47:59.001Z</time></trkpt><trkpt lat="45.45474817517598" lon="10.648045786680614"><ele>67.0</ele><time>2026-04-12T13:48:00.001Z</time></trkpt><trkpt lat="45.45479234628719" lon="10.647789639166017"><ele>67.0</ele><time>2026-04-12T13:48:01.001Z</time></trkpt><trkpt lat="45.45484739012282" lon="10.647534175089913"><ele>66.66666666666666</ele><time>2026-04-12T13:48:02Z</time></trkpt><trkpt lat="45.45491387838324" lon="10.64727391581712"><ele>66.33333333333333</ele><time>2026-04-12T13:48:03Z</time></trkpt><trkpt lat="45.45498027411788" lon="10.64701168390158"><ele>66.0</ele><time>2026-04-12T13:48:04Z</time></trkpt><trkpt lat="45.45504577756962" lon="10.646748218318686"><ele>65.66666666666667</ele><time>2026-04-12T13:48:05Z</time></trkpt><trkpt lat="45.45511374995795" lon="10.646480622307424"><ele>65.33333333333334</ele><time>2026-04-12T13:48:06Z</time></trkpt><trkpt lat="45.4551795996184" lon="10.64620790680364"><ele>65.0</ele><time>2026-04-12T13:48:07Z</time></trkpt><trkpt lat="45.45524517043597" lon="10.645937000844174"><ele>66.0</ele><time>2026-04-12T13:48:08Z</time></trkpt><trkpt lat="45.45530884907704" lon="10.645662124215681"><ele>67.0</ele><time>2026-04-12T13:48:09Z</time></trkpt><trkpt lat="45.45537374462085" lon="10.645388481737475"><ele>68.0</ele><time>2026-04-12T13:48:10Z</time></trkpt><trkpt lat="45.45543657119625" lon="10.645111587681443"><ele>68.0</ele><time>2026-04-12T13:48:11Z</time></trkpt><trkpt lat="45.45549771163354" lon="10.644834465593245"><ele>68.0</ele><time>2026-04-12T13:48:12Z</time></trkpt><trkpt lat="45.45555557844614" lon="10.644561977607134"><ele>68.0</ele><time>2026-04-12T13:48:13Z</time></trkpt><trkpt lat="45.45561600747558" lon="10.644290672223002"><ele>67.66666666666667</ele><time>2026-04-12T13:48:14Z</time></trkpt><trkpt lat="45.45567570726396" lon="10.644020216382234"><ele>67.33333333333333</ele><time>2026-04-12T13:48:15Z</time></trkpt><trkpt lat="45.45573582861618" lon="10.64375293790633"><ele>67.0</ele><time>2026-04-12T13:48:16Z</time></trkpt><trkpt lat="45.45579633603546" lon="10.643488333423116"><ele>67.0</ele><time>2026-04-12T13:48:17Z</time></trkpt><trkpt lat="45.455858641275505" lon="10.643224155072224"><ele>67.0</ele><time>2026-04-12T13:48:18Z</time></trkpt><trkpt lat="45.45592350869873" lon="10.642962158330935"><ele>67.0</ele><time>2026-04-12T13:48:19Z</time></trkpt><trkpt lat="45.45598611715157" lon="10.64270072769029"><ele>67.0</ele><time>2026-04-12T13:48:20Z</time></trkpt><trkpt lat="45.45604925773611" lon="10.642442276256991"><ele>67.0</ele><time>2026-04-12T13:48:21Z</time></trkpt><trkpt lat="45.45611086798042" lon="10.64219098157681"><ele>67.0</ele><time>2026-04-12T13:48:22Z</time></trkpt><trkpt lat="45.45617885678389" lon="10.641939170843"><ele>67.0</ele><time>2026-04-12T13:48:23Z</time></trkpt><trkpt lat="45.45624567225318" lon="10.641687462923516"><ele>67.0</ele><time>2026-04-12T13:48:24Z</time></trkpt><trkpt lat="45.456313007278084" lon="10.641440346170336"><ele>67.0</ele><time>2026-04-12T13:48:25Z</time></trkpt><trkpt lat="45.45637583165791" lon="10.64121408884238"><ele>67.25</ele><time>2026-04-12T13:48:26Z</time></trkpt><trkpt lat="45.456434468013114" lon="10.641006180859492"><ele>67.5</ele><time>2026-04-12T13:48:27Z</time></trkpt><trkpt lat="45.45649023641203" lon="10.640814261530217"><ele>67.75</ele><time>2026-04-12T13:48:28Z</time></trkpt><trkpt lat="45.456545268248355" lon="10.640640017651489"><ele>68.0</ele><time>2026-04-12T13:48:29Z</time></trkpt><trkpt lat="45.45659602247217" lon="10.6404881601482"><ele>68.0</ele><time>2026-04-12T13:48:30Z</time></trkpt><trkpt lat="45.45665502023645" lon="10.640343171953102"><ele>68.0</ele><time>2026-04-12T13:48:31Z</time></trkpt><trkpt lat="45.456719797868644" lon="10.640213079856856"><ele>68.0</ele><time>2026-04-12T13:48:32Z</time></trkpt><trkpt lat="45.45678093952754" lon="10.640071293538234"><ele>68.0</ele><time>2026-04-12T13:48:33Z</time></trkpt><trkpt lat="45.45680531254789" lon="10.639909913442489"><ele>68.5</ele><time>2026-04-12T13:48:34Z</time></trkpt><trkpt lat="45.456817116676646" lon="10.639734440717923"><ele>69.0</ele><time>2026-04-12T13:48:35Z</time></trkpt><trkpt lat="45.45683082284647" lon="10.639577724317155"><ele>69.5</ele><time>2026-04-12T13:48:36Z</time></trkpt><trkpt lat="45.456865993855146" lon="10.639406769910051"><ele>70.0</ele><time>2026-04-12T13:48:37Z</time></trkpt><trkpt lat="45.456919464473565" lon="10.639204054367639"><ele>70.0</ele><time>2026-04-12T13:48:38Z</time></trkpt><trkpt lat="45.45699101245043" lon="10.638980240388282"><ele>70.0</ele><time>2026-04-12T13:48:39Z</time></trkpt><trkpt lat="45.45707308518273" lon="10.638740463118383"><ele>70.0</ele><time>2026-04-12T13:48:40Z</time></trkpt><trkpt lat="45.457153836513726" lon="10.638481704747566"><ele>70.33333333333333</ele><time>2026-04-12T13:48:41Z</time></trkpt><trkpt lat="45.457231425238646" lon="10.638205487004946"><ele>70.66666666666667</ele><time>2026-04-12T13:48:42Z</time></trkpt><trkpt lat="45.457306349177315" lon="10.637925525501837"><ele>71.0</ele><time>2026-04-12T13:48:43Z</time></trkpt><trkpt lat="45.457378559694895" lon="10.637648625466289"><ele>71.33333333333334</ele><time>2026-04-12T13:48:44Z</time></trkpt><trkpt lat="45.457451473076134" lon="10.637388515953623"><ele>71.66666666666667</ele><time>2026-04-12T13:48:45Z</time></trkpt><trkpt lat="45.4575176359792" lon="10.637149064574238"><ele>72.0</ele><time>2026-04-12T13:48:46Z</time></trkpt><trkpt lat="45.45758048485495" lon="10.636929341514062"><ele>71.6</ele><time>2026-04-12T13:48:47Z</time></trkpt><trkpt lat="45.45763319510973" lon="10.636744409316085"><ele>71.2</ele><time>2026-04-12T13:48:48Z</time></trkpt><trkpt lat="45.45768041672254" lon="10.636585367849374"><ele>70.8</ele><time>2026-04-12T13:48:49.001Z</time></trkpt><trkpt lat="45.45771729303168" lon="10.636462822782343"><ele>70.4</ele><time>2026-04-12T13:48:50.001Z</time></trkpt><trkpt lat="45.45774933014852" lon="10.63636455275921"><ele>70.0</ele><time>2026-04-12T13:48:51.001Z</time></trkpt><trkpt lat="45.457784286216274" lon="10.636258293381626"><ele>70.0</ele><time>2026-04-12T13:48:53.001Z</time></trkpt><trkpt lat="45.457806431471546" lon="10.6361657896337"><ele>70.0</ele><time>2026-04-12T13:49:13.001Z</time></trkpt><trkpt lat="45.45785203746337" lon="10.635988026125325"><ele>70.0</ele><time>2026-04-12T13:49:15.001Z</time></trkpt><trkpt lat="45.45788697264105" lon="10.635857410993207"><ele>70.0</ele><time>2026-04-12T13:49:16.001Z</time></trkpt><trkpt lat="45.45792778296118" lon="10.635702210103744"><ele>70.0</ele><time>2026-04-12T13:49:17.001Z</time></trkpt><trkpt lat="45.45797514795743" lon="10.635523907439154"><ele>69.66666666666666</ele><time>2026-04-12T13:49:18.001Z</time></trkpt><trkpt lat="45.458029918190874" lon="10.635329016132284"><ele>69.33333333333333</ele><time>2026-04-12T13:49:19.001Z</time></trkpt><trkpt lat="45.458088239653655" lon="10.635123454581125"><ele>69.0</ele><time>2026-04-12T13:49:20.001Z</time></trkpt><trkpt lat="45.458150054278946" lon="10.63489072679584"><ele>69.0</ele><time>2026-04-12T13:49:21.001Z</time></trkpt><trkpt lat="45.45821543936305" lon="10.634642024776255"><ele>69.0</ele><time>2026-04-12T13:49:22.001Z</time></trkpt><trkpt lat="45.45828436597766" lon="10.634391721368697"><ele>69.0</ele><time>2026-04-12T13:49:23.001Z</time></trkpt><trkpt lat="45.45835585752963" lon="10.634126499996974"><ele>68.33333333333333</ele><time>2026-04-12T13:49:24.001Z</time></trkpt><trkpt lat="45.458433555435136" lon="10.633865056638628"><ele>67.66666666666666</ele><time>2026-04-12T13:49:25.001Z</time></trkpt><trkpt lat="45.45850692056189" lon="10.633606009838882"><ele>67.0</ele><time>2026-04-12T13:49:26.001Z</time></trkpt><trkpt lat="45.45857846255256" lon="10.633345308226199"><ele>66.66666666666666</ele><time>2026-04-12T13:49:27.001Z</time></trkpt><trkpt lat="45.45864930403372" lon="10.633091882117112"><ele>66.33333333333333</ele><time>2026-04-12T13:49:28.001Z</time></trkpt><trkpt lat="45.45872040636418" lon="10.632845493255891"><ele>66.0</ele><time>2026-04-12T13:49:29.001Z</time></trkpt><trkpt lat="45.458787570995504" lon="10.632602436504648"><ele>66.0</ele><time>2026-04-12T13:49:30.001Z</time></trkpt><trkpt lat="45.4588535511192" lon="10.632361896398953"><ele>66.0</ele><time>2026-04-12T13:49:31.001Z</time></trkpt><trkpt lat="45.458920087426115" lon="10.632121798271294"><ele>66.0</ele><time>2026-04-12T13:49:32.001Z</time></trkpt><trkpt lat="45.45898583547464" lon="10.631890227891738"><ele>66.0</ele><time>2026-04-12T13:49:33.001Z</time></trkpt><trkpt lat="45.45905232303434" lon="10.631661175296575"><ele>66.0</ele><time>2026-04-12T13:49:34.001Z</time></trkpt><trkpt lat="45.459115300943374" lon="10.631428969062911"><ele>66.0</ele><time>2026-04-12T13:49:35.001Z</time></trkpt><trkpt lat="45.45918170930935" lon="10.631201421995005"><ele>66.33333333333333</ele><time>2026-04-12T13:49:36.001Z</time></trkpt><trkpt lat="45.459245894709255" lon="10.630971131679278"><ele>66.66666666666666</ele><time>2026-04-12T13:49:37.001Z</time></trkpt><trkpt lat="45.45930783058075" lon="10.630751538349228"><ele>67.0</ele><time>2026-04-12T13:49:38.001Z</time></trkpt><trkpt lat="45.45937276920209" lon="10.630529188961823"><ele>66.66666666666666</ele><time>2026-04-12T13:49:39.001Z</time></trkpt><trkpt lat="45.45944016389745" lon="10.63029824697764"><ele>66.33333333333333</ele><time>2026-04-12T13:49:40.001Z</time></trkpt><trkpt lat="45.459501417109045" lon="10.630073722057492"><ele>66.0</ele><time>2026-04-12T13:49:41.001Z</time></trkpt><trkpt lat="45.459565891105846" lon="10.629848166502958"><ele>66.0</ele><time>2026-04-12T13:49:42.001Z</time></trkpt><trkpt lat="45.45962849945013" lon="10.629623972765026"><ele>66.0</ele><time>2026-04-12T13:49:43.001Z</time></trkpt><trkpt lat="45.4596894075328" lon="10.62939892991561"><ele>66.0</ele><time>2026-04-12T13:49:44.001Z</time></trkpt><trkpt lat="45.45975223068319" lon="10.629175577755204"><ele>66.5</ele><time>2026-04-12T13:49:45.001Z</time></trkpt><trkpt lat="45.4598127866085" lon="10.628963365974725"><ele>67.0</ele><time>2026-04-12T13:49:46.001Z</time></trkpt><trkpt lat="45.459869664648004" lon="10.628771905505129"><ele>67.5</ele><time>2026-04-12T13:49:47.001Z</time></trkpt><trkpt lat="45.45992132318423" lon="10.62859243104247"><ele>68.0</ele><time>2026-04-12T13:49:48.001Z</time></trkpt><trkpt lat="45.459955338895725" lon="10.628425212573728"><ele>68.0</ele><time>2026-04-12T13:49:49.001Z</time></trkpt><trkpt lat="45.45997864339416" lon="10.62827733336664"><ele>68.0</ele><time>2026-04-12T13:49:50.001Z</time></trkpt><trkpt lat="45.46001287509293" lon="10.62813311151134"><ele>68.0</ele><time>2026-04-12T13:49:51.001Z</time></trkpt><trkpt lat="45.46006319151119" lon="10.627992225799451"><ele>68.0</ele><time>2026-04-12T13:49:52.001Z</time></trkpt><trkpt lat="45.4601024608618" lon="10.627832587874686"><ele>68.0</ele><time>2026-04-12T13:49:53.001Z</time></trkpt><trkpt lat="45.46012673683741" lon="10.627665187013928"><ele>67.5</ele><time>2026-04-12T13:49:54.001Z</time></trkpt><trkpt lat="45.46017604794442" lon="10.627519637302598"><ele>67.0</ele><time>2026-04-12T13:49:55.001Z</time></trkpt><trkpt lat="45.46025518253357" lon="10.627392232199306"><ele>66.5</ele><time>2026-04-12T13:49:56.001Z</time></trkpt><trkpt lat="45.46031271036281" lon="10.62724199609299"><ele>66.0</ele><time>2026-04-12T13:49:57.001Z</time></trkpt><trkpt lat="45.460350735088966" lon="10.627063286016863"><ele>66.25</ele><time>2026-04-12T13:49:58.001Z</time></trkpt><trkpt lat="45.46039771511082" lon="10.62688127194879"><ele>66.5</ele><time>2026-04-12T13:49:59.001Z</time></trkpt><trkpt lat="45.460451042759914" lon="10.626692418467469"><ele>66.75</ele><time>2026-04-12T13:50:00.001Z</time></trkpt><trkpt lat="45.46050609867051" lon="10.626497030674015"><ele>67.0</ele><time>2026-04-12T13:50:01.001Z</time></trkpt><trkpt lat="45.46056058950962" lon="10.626296710993044"><ele>67.0</ele><time>2026-04-12T13:50:02.001Z</time></trkpt><trkpt lat="45.46061915556592" lon="10.62609412971378"><ele>67.0</ele><time>2026-04-12T13:50:03.001Z</time></trkpt><trkpt lat="45.460678049653986" lon="10.625885631481575"><ele>67.0</ele><time>2026-04-12T13:50:04.001Z</time></trkpt><trkpt lat="45.460738631044805" lon="10.625678419002027"><ele>67.0</ele><time>2026-04-12T13:50:05.001Z</time></trkpt><trkpt lat="45.460796370097086" lon="10.625463699626586"><ele>67.0</ele><time>2026-04-12T13:50:06.001Z</time></trkpt><trkpt lat="45.460855904067735" lon="10.625243915034451"><ele>67.0</ele><time>2026-04-12T13:50:07.001Z</time></trkpt><trkpt lat="45.460912143229244" lon="10.625029428547277"><ele>66.75</ele><time>2026-04-12T13:50:08.001Z</time></trkpt><trkpt lat="45.460967968029074" lon="10.62481820875682"><ele>66.5</ele><time>2026-04-12T13:50:09.001Z</time></trkpt><trkpt lat="45.461024118118075" lon="10.624617517365547"><ele>66.25</ele><time>2026-04-12T13:50:10.001Z</time></trkpt><trkpt lat="45.461073912427956" lon="10.624431929120865"><ele>66.0</ele><time>2026-04-12T13:50:11.001Z</time></trkpt><trkpt lat="45.46112016401679" lon="10.624270194345346"><ele>66.0</ele><time>2026-04-12T13:50:12.001Z</time></trkpt><trkpt lat="45.46116410802921" lon="10.624124819341343"><ele>66.0</ele><time>2026-04-12T13:50:13.001Z</time></trkpt><trkpt lat="45.461201087912706" lon="10.623997625520296"><ele>66.0</ele><time>2026-04-12T13:50:14.001Z</time></trkpt><trkpt lat="45.46123246645575" lon="10.623878448634866"><ele>66.0</ele><time>2026-04-12T13:50:15.001Z</time></trkpt><trkpt lat="45.46126454941439" lon="10.623762864982966"><ele>66.0</ele><time>2026-04-12T13:50:16.001Z</time></trkpt><trkpt lat="45.461293105736054" lon="10.623658841635454"><ele>66.16666666666667</ele><time>2026-04-12T13:50:17.001Z</time></trkpt><trkpt lat="45.46131884225234" lon="10.623554452811959"><ele>66.33333333333333</ele><time>2026-04-12T13:50:18.001Z</time></trkpt><trkpt lat="45.46134704589959" lon="10.623459584482948"><ele>66.5</ele><time>2026-04-12T13:50:19.001Z</time></trkpt><trkpt lat="45.46136752528159" lon="10.623359383783388"><ele>66.66666666666666</ele><time>2026-04-12T13:50:20.001Z</time></trkpt><trkpt lat="45.46139726612116" lon="10.623272432811872"><ele>66.83333333333333</ele><time>2026-04-12T13:50:21.001Z</time></trkpt><trkpt lat="45.46142597778864" lon="10.623147908950347"><ele>67.0</ele><time>2026-04-12T13:50:23.001Z</time></trkpt><trkpt lat="45.461453276676004" lon="10.62305118584577"><ele>67.0</ele><time>2026-04-12T13:50:28.001Z</time></trkpt><trkpt lat="45.46149318557774" lon="10.622918838894595"><ele>67.0</ele><time>2026-04-12T13:50:31.001Z</time></trkpt><trkpt lat="45.46154166931661" lon="10.62276082069489"><ele>67.0</ele><time>2026-04-12T13:50:33.001Z</time></trkpt><trkpt lat="45.46156979917576" lon="10.622672658751698"><ele>67.0</ele><time>2026-04-12T13:50:34.001Z</time></trkpt><trkpt lat="45.46159211911539" lon="10.622586377988675"><ele>67.0</ele><time>2026-04-12T13:50:35.001Z</time></trkpt><trkpt lat="45.46161641681078" lon="10.622499267160622"><ele>67.0</ele><time>2026-04-12T13:50:36.001Z</time></trkpt><trkpt lat="45.46163720882926" lon="10.622412814006697"><ele>67.0</ele><time>2026-04-12T13:50:37.001Z</time></trkpt><trkpt lat="45.46165600803573" lon="10.622312577198496"><ele>67.0</ele><time>2026-04-12T13:50:38.001Z</time></trkpt><trkpt lat="45.46167966360026" lon="10.622203043335201"><ele>67.0</ele><time>2026-04-12T13:50:39.001Z</time></trkpt><trkpt lat="45.46169723227707" lon="10.622099194169525"><ele>67.0</ele><time>2026-04-12T13:50:40.001Z</time></trkpt><trkpt lat="45.46171425007576" lon="10.621993303545379"><ele>67.0</ele><time>2026-04-12T13:50:41.001Z</time></trkpt><trkpt lat="45.46172228354358" lon="10.621887386559342"><ele>67.0</ele><time>2026-04-12T13:50:42.001Z</time></trkpt><trkpt lat="45.461731834634925" lon="10.621782081415516"><ele>67.0</ele><time>2026-04-12T13:50:44.001Z</time></trkpt><trkpt lat="45.46173219598725" lon="10.62162629340951"><ele>67.0</ele><time>2026-04-12T13:50:50.001Z</time></trkpt><trkpt lat="45.461772421096356" lon="10.621513278313737"><ele>67.0</ele><time>2026-04-12T13:50:51.001Z</time></trkpt><trkpt lat="45.461765092642" lon="10.621391473999587"><ele>67.0</ele><time>2026-04-12T13:50:52.001Z</time></trkpt><trkpt lat="45.461779945356895" lon="10.621268279474231"><ele>67.0</ele><time>2026-04-12T13:50:53.001Z</time></trkpt><trkpt lat="45.461792564414395" lon="10.621140671219967"><ele>67.0</ele><time>2026-04-12T13:50:54.001Z</time></trkpt><trkpt lat="45.46180722104164" lon="10.621024968643406"><ele>67.0</ele><time>2026-04-12T13:50:55.001Z</time></trkpt><trkpt lat="45.46182423185546" lon="10.620908908271096"><ele>67.0</ele><time>2026-04-12T13:50:56.001Z</time></trkpt><trkpt lat="45.461830992823295" lon="10.620777070292062"><ele>67.0</ele><time>2026-04-12T13:50:57.001Z</time></trkpt><trkpt lat="45.46184577641723" lon="10.620648913801432"><ele>67.0</ele><time>2026-04-12T13:50:58.001Z</time></trkpt><trkpt lat="45.46186610142533" lon="10.620521287741596"><ele>67.0</ele><time>2026-04-12T13:50:59.001Z</time></trkpt><trkpt lat="45.46189024315174" lon="10.620384374434458"><ele>66.8</ele><time>2026-04-12T13:51:00.001Z</time></trkpt><trkpt lat="45.46191770757839" lon="10.620251844769697"><ele>66.6</ele><time>2026-04-12T13:51:01.001Z</time></trkpt><trkpt lat="45.461950828672805" lon="10.6201236946829"><ele>66.39999999999999</ele><time>2026-04-12T13:51:02.001Z</time></trkpt><trkpt lat="45.46198114231247" lon="10.61999078983678"><ele>66.2</ele><time>2026-04-12T13:51:03.001Z</time></trkpt><trkpt lat="45.46201411464664" lon="10.619863628663214"><ele>66.0</ele><time>2026-04-12T13:51:04.001Z</time></trkpt><trkpt lat="45.46204617496816" lon="10.619736640057113"><ele>66.0</ele><time>2026-04-12T13:51:05.001Z</time></trkpt><trkpt lat="45.462072785725184" lon="10.619619080551749"><ele>66.0</ele><time>2026-04-12T13:51:06.001Z</time></trkpt><trkpt lat="45.46210277094363" lon="10.619512299810376"><ele>66.0</ele><time>2026-04-12T13:51:07.001Z</time></trkpt><trkpt lat="45.46212624231034" lon="10.619414188096043"><ele>66.0</ele><time>2026-04-12T13:51:08.001Z</time></trkpt><trkpt lat="45.462146549153516" lon="10.619324930411159"><ele>66.0</ele><time>2026-04-12T13:51:09.001Z</time></trkpt><trkpt lat="45.46217480993095" lon="10.61923607176499"><ele>66.0</ele><time>2026-04-12T13:51:10.001Z</time></trkpt><trkpt lat="45.462197959731874" lon="10.619131708982362"><ele>65.8</ele><time>2026-04-12T13:51:11.001Z</time></trkpt><trkpt lat="45.46222621630125" lon="10.61901319291197"><ele>65.6</ele><time>2026-04-12T13:51:12.001Z</time></trkpt><trkpt lat="45.46226131246886" lon="10.618886659400632"><ele>65.4</ele><time>2026-04-12T13:51:13.001Z</time></trkpt><trkpt lat="45.46229332090357" lon="10.618747791808463"><ele>65.2</ele><time>2026-04-12T13:51:14.001Z</time></trkpt><trkpt lat="45.46232431382944" lon="10.618605895423235"><ele>65.0</ele><time>2026-04-12T13:51:15.001Z</time></trkpt><trkpt lat="45.462356942014374" lon="10.618465936372246"><ele>65.0</ele><time>2026-04-12T13:51:16.001Z</time></trkpt><trkpt lat="45.462392012327676" lon="10.618326725213695"><ele>65.0</ele><time>2026-04-12T13:51:17.001Z</time></trkpt><trkpt lat="45.46242288666101" lon="10.618197708339938"><ele>65.0</ele><time>2026-04-12T13:51:18.001Z</time></trkpt><trkpt lat="45.462454569099236" lon="10.61807957070094"><ele>65.0</ele><time>2026-04-12T13:51:19.001Z</time></trkpt><trkpt lat="45.46248180148955" lon="10.617975214412125"><ele>65.0</ele><time>2026-04-12T13:51:20.001Z</time></trkpt><trkpt lat="45.46250505684196" lon="10.617871796793942"><ele>65.0</ele><time>2026-04-12T13:51:21.001Z</time></trkpt><trkpt lat="45.46252764841875" lon="10.617768018174607"><ele>65.4</ele><time>2026-04-12T13:51:22.001Z</time></trkpt><trkpt lat="45.46255402931538" lon="10.617646416357182"><ele>65.8</ele><time>2026-04-12T13:51:23.001Z</time></trkpt><trkpt lat="45.462591513363755" lon="10.617510430902579"><ele>66.2</ele><time>2026-04-12T13:51:24.001Z</time></trkpt><trkpt lat="45.462629574013036" lon="10.617356820233601"><ele>66.6</ele><time>2026-04-12T13:51:25.001Z</time></trkpt><trkpt lat="45.46267758434948" lon="10.617188882429607"><ele>67.0</ele><time>2026-04-12T13:51:26.001Z</time></trkpt><trkpt lat="45.46271580194814" lon="10.617010129117675"><ele>67.0</ele><time>2026-04-12T13:51:27.001Z</time></trkpt><trkpt lat="45.46276439274285" lon="10.6168557594464"><ele>67.0</ele><time>2026-04-12T13:51:28.001Z</time></trkpt><trkpt lat="45.462805500708264" lon="10.616718772878551"><ele>67.0</ele><time>2026-04-12T13:51:29.001Z</time></trkpt><trkpt lat="45.46284491607649" lon="10.616599401773586"><ele>67.0</ele><time>2026-04-12T13:51:30.001Z</time></trkpt><trkpt lat="45.462881073259766" lon="10.61650835956254"><ele>67.0</ele><time>2026-04-12T13:51:31.001Z</time></trkpt><trkpt lat="45.46295976102444" lon="10.616378143488273"><ele>67.0</ele><time>2026-04-12T13:51:33.001Z</time></trkpt><trkpt lat="45.463039777342416" lon="10.616275429573518"><ele>67.0</ele><time>2026-04-12T13:51:35.001Z</time></trkpt><trkpt lat="45.463097404239655" lon="10.616137967256657"><ele>67.0</ele><time>2026-04-12T13:51:37.001Z</time></trkpt><trkpt lat="45.46313074109155" lon="10.616053321368955"><ele>67.0</ele><time>2026-04-12T13:51:38.001Z</time></trkpt><trkpt lat="45.46317943951545" lon="10.615955431552688"><ele>67.0</ele><time>2026-04-12T13:51:39.001Z</time></trkpt><trkpt lat="45.4632392639787" lon="10.615847887046584"><ele>67.0</ele><time>2026-04-12T13:51:40.001Z</time></trkpt><trkpt lat="45.46329571210921" lon="10.615743667304661"><ele>67.0</ele><time>2026-04-12T13:51:41.001Z</time></trkpt><trkpt lat="45.46334322127201" lon="10.615651676070428"><ele>67.0</ele><time>2026-04-12T13:51:42.001Z</time></trkpt><trkpt lat="45.46338716056297" lon="10.615563744459362"><ele>67.0</ele><time>2026-04-12T13:51:43.001Z</time></trkpt><trkpt lat="45.46343379452889" lon="10.61547346370342"><ele>67.0</ele><time>2026-04-12T13:51:44.001Z</time></trkpt><trkpt lat="45.46347336689403" lon="10.61539009220961"><ele>67.0</ele><time>2026-04-12T13:51:45.001Z</time></trkpt><trkpt lat="45.463518683460954" lon="10.615304326845207"><ele>66.8</ele><time>2026-04-12T13:51:46.001Z</time></trkpt><trkpt lat="45.46356972617224" lon="10.615204824186879"><ele>66.6</ele><time>2026-04-12T13:51:47.001Z</time></trkpt><trkpt lat="45.46362187421711" lon="10.615086546737864"><ele>66.39999999999999</ele><time>2026-04-12T13:51:48.001Z</time></trkpt><trkpt lat="45.463685354215514" lon="10.61495151254644"><ele>66.2</ele><time>2026-04-12T13:51:49.001Z</time></trkpt><trkpt lat="45.46374385838993" lon="10.614836972761172"><ele>66.0</ele><time>2026-04-12T13:51:50.001Z</time></trkpt><trkpt lat="45.46379346414" lon="10.614743941747198"><ele>65.66666666666667</ele><time>2026-04-12T13:51:51.001Z</time></trkpt><trkpt lat="45.4638352243136" lon="10.614669643734695"><ele>65.33333333333333</ele><time>2026-04-12T13:51:52.001Z</time></trkpt><trkpt lat="45.463875619954685" lon="10.614593142190738"><ele>65.0</ele><time>2026-04-12T13:51:53.001Z</time></trkpt><trkpt lat="45.46395382707834" lon="10.614448512507632"><ele>64.66666666666666</ele><time>2026-04-12T13:51:55.001Z</time></trkpt><trkpt lat="45.46399538305141" lon="10.614368637776192"><ele>64.33333333333333</ele><time>2026-04-12T13:51:56.001Z</time></trkpt><trkpt lat="45.46403895278071" lon="10.6142888460467"><ele>64.0</ele><time>2026-04-12T13:51:57.001Z</time></trkpt><trkpt lat="45.46412379436557" lon="10.614153062904714"><ele>64.60000000000001</ele><time>2026-04-12T13:51:59.001Z</time></trkpt><trkpt lat="45.464174980931496" lon="10.614072201218045"><ele>65.2</ele><time>2026-04-12T13:52:00.001Z</time></trkpt><trkpt lat="45.46423869289955" lon="10.61396536021706"><ele>65.80000000000001</ele><time>2026-04-12T13:52:01.001Z</time></trkpt><trkpt lat="45.46429935808723" lon="10.613829808831202"><ele>66.4</ele><time>2026-04-12T13:52:02.001Z</time></trkpt><trkpt lat="45.464366306463226" lon="10.613682427819644"><ele>67.0</ele><time>2026-04-12T13:52:03.001Z</time></trkpt><trkpt lat="45.46443599403319" lon="10.613528515248417"><ele>67.0</ele><time>2026-04-12T13:52:04.001Z</time></trkpt><trkpt lat="45.46451006675222" lon="10.613379310278106"><ele>67.0</ele><time>2026-04-12T13:52:05.001Z</time></trkpt><trkpt lat="45.464578133818215" lon="10.613245092106714"><ele>67.0</ele><time>2026-04-12T13:52:06.001Z</time></trkpt><trkpt lat="45.46464057237963" lon="10.613122121119304"><ele>67.0</ele><time>2026-04-12T13:52:07.001Z</time></trkpt><trkpt lat="45.46470071187329" lon="10.613010014368465"><ele>67.0</ele><time>2026-04-12T13:52:08.001Z</time></trkpt><trkpt lat="45.46475672853579" lon="10.612905737211173"><ele>67.0</ele><time>2026-04-12T13:52:09.001Z</time></trkpt><trkpt lat="45.46480751701837" lon="10.612806781294234"><ele>67.0</ele><time>2026-04-12T13:52:10.001Z</time></trkpt><trkpt lat="45.464851069415296" lon="10.612711089232592"><ele>67.0</ele><time>2026-04-12T13:52:11.001Z</time></trkpt><trkpt lat="45.464885980761515" lon="10.612624990332153"><ele>67.0</ele><time>2026-04-12T13:52:12.001Z</time></trkpt><trkpt lat="45.46491571021345" lon="10.612535655220519"><ele>67.0</ele><time>2026-04-12T13:52:13.001Z</time></trkpt><trkpt lat="45.46495926545378" lon="10.612366006865656"><ele>67.0</ele><time>2026-04-12T13:52:15.001Z</time></trkpt><trkpt lat="45.46499082089885" lon="10.61228087765358"><ele>67.0</ele><time>2026-04-12T13:52:16.001Z</time></trkpt><trkpt lat="45.465029289661175" lon="10.6121781793765"><ele>67.0</ele><time>2026-04-12T13:52:17.001Z</time></trkpt><trkpt lat="45.4650307566648" lon="10.612051567188495"><ele>67.0</ele><time>2026-04-12T13:52:18.001Z</time></trkpt><trkpt lat="45.465022494201875" lon="10.611913905090406"><ele>67.0</ele><time>2026-04-12T13:52:19Z</time></trkpt><trkpt lat="45.465028070951746" lon="10.61178098432814"><ele>67.0</ele><time>2026-04-12T13:52:20Z</time></trkpt><trkpt lat="45.46506457446047" lon="10.611661204082296"><ele>67.4</ele><time>2026-04-12T13:52:21Z</time></trkpt><trkpt lat="45.465097492699066" lon="10.611532648411648"><ele>67.80000000000001</ele><time>2026-04-12T13:52:22Z</time></trkpt><trkpt lat="45.465110535262404" lon="10.611393567452758"><ele>68.2</ele><time>2026-04-12T13:52:23Z</time></trkpt><trkpt lat="45.465110748300575" lon="10.611248344155898"><ele>68.60000000000001</ele><time>2026-04-12T13:52:24Z</time></trkpt><trkpt lat="45.465096846332386" lon="10.611119720320524"><ele>69.0</ele><time>2026-04-12T13:52:25Z</time></trkpt><trkpt lat="45.465078801719244" lon="10.61099648776987"><ele>69.4</ele><time>2026-04-12T13:52:26Z</time></trkpt><trkpt lat="45.46506188031143" lon="10.610867449480715"><ele>69.80000000000001</ele><time>2026-04-12T13:52:27Z</time></trkpt><trkpt lat="45.46504880586039" lon="10.610731702329602"><ele>70.19999999999999</ele><time>2026-04-12T13:52:28Z</time></trkpt><trkpt lat="45.465035430625825" lon="10.610595884694579"><ele>70.6</ele><time>2026-04-12T13:52:29Z</time></trkpt><trkpt lat="45.46503130736191" lon="10.610454161842517"><ele>71.0</ele><time>2026-04-12T13:52:30Z</time></trkpt><trkpt lat="45.46501559488186" lon="10.610301490407894"><ele>71.5</ele><time>2026-04-12T13:52:31Z</time></trkpt><trkpt lat="45.465002496302375" lon="10.610120181765055"><ele>72.0</ele><time>2026-04-12T13:52:32Z</time></trkpt><trkpt lat="45.464985361686196" lon="10.609936761071427"><ele>72.5</ele><time>2026-04-12T13:52:33Z</time></trkpt><trkpt lat="45.464969129023174" lon="10.60976768755608"><ele>73.0</ele><time>2026-04-12T13:52:34Z</time></trkpt><trkpt lat="45.46496296566462" lon="10.609615142260951"><ele>73.2</ele><time>2026-04-12T13:52:35Z</time></trkpt><trkpt lat="45.46495498135944" lon="10.60946998771437"><ele>73.4</ele><time>2026-04-12T13:52:36Z</time></trkpt><trkpt lat="45.464945432068134" lon="10.609314361344644"><ele>73.60000000000001</ele><time>2026-04-12T13:52:37Z</time></trkpt><trkpt lat="45.46493544347064" lon="10.60916478523717"><ele>73.8</ele><time>2026-04-12T13:52:38Z</time></trkpt><trkpt lat="45.46492473157482" lon="10.609016374513804"><ele>74.0</ele><time>2026-04-12T13:52:39Z</time></trkpt><trkpt lat="45.46492088512319" lon="10.608877293860722"><ele>74.0</ele><time>2026-04-12T13:52:40Z</time></trkpt><trkpt lat="45.46491859365645" lon="10.60872992992265"><ele>74.0</ele><time>2026-04-12T13:52:41Z</time></trkpt><trkpt lat="45.464922639537235" lon="10.60858457995324"><ele>74.0</ele><time>2026-04-12T13:52:42Z</time></trkpt><trkpt lat="45.464926864285914" lon="10.608446949382026"><ele>74.0</ele><time>2026-04-12T13:52:43Z</time></trkpt><trkpt lat="45.46493240117871" lon="10.60831234637985"><ele>74.0</ele><time>2026-04-12T13:52:44Z</time></trkpt><trkpt lat="45.46493855883493" lon="10.608190593493207"><ele>74.33333333333334</ele><time>2026-04-12T13:52:45Z</time></trkpt><trkpt lat="45.464942153876024" lon="10.608076442873726"><ele>74.66666666666667</ele><time>2026-04-12T13:52:46Z</time></trkpt><trkpt lat="45.46494734093353" lon="10.607957227621206"><ele>75.0</ele><time>2026-04-12T13:52:47Z</time></trkpt><trkpt lat="45.46495202200555" lon="10.607834714814846"><ele>75.33333333333333</ele><time>2026-04-12T13:52:48Z</time></trkpt><trkpt lat="45.46495664929748" lon="10.607713094798362"><ele>75.66666666666666</ele><time>2026-04-12T13:52:49Z</time></trkpt><trkpt lat="45.46496318679036" lon="10.607579832840061"><ele>76.0</ele><time>2026-04-12T13:52:50Z</time></trkpt><trkpt lat="45.464971643178636" lon="10.607439996466207"><ele>76.5</ele><time>2026-04-12T13:52:51Z</time></trkpt><trkpt lat="45.46497721328067" lon="10.607310527584737"><ele>77.0</ele><time>2026-04-12T13:52:52Z</time></trkpt><trkpt lat="45.46497782725935" lon="10.607196014390087"><ele>77.5</ele><time>2026-04-12T13:52:53Z</time></trkpt><trkpt lat="45.46498555637991" lon="10.607099087503801"><ele>78.0</ele><time>2026-04-12T13:52:54Z</time></trkpt><trkpt lat="45.46498944448858" lon="10.60697585344832"><ele>78.5</ele><time>2026-04-12T13:52:56Z</time></trkpt><trkpt lat="45.46500287668831" lon="10.606878466284156"><ele>79.0</ele><time>2026-04-12T13:52:59Z</time></trkpt><trkpt lat="45.46502660038298" lon="10.606790752653573"><ele>79.33333333333333</ele><time>2026-04-12T13:53:08Z</time></trkpt><trkpt lat="45.46505829674132" lon="10.606696485015798"><ele>79.66666666666666</ele><time>2026-04-12T13:53:10Z</time></trkpt><trkpt lat="45.465073194434574" lon="10.606578673433333"><ele>80.0</ele><time>2026-04-12T13:53:13.001Z</time></trkpt><trkpt lat="45.46505291248019" lon="10.606477054268762"><ele>80.33333333333333</ele><time>2026-04-12T13:53:15.001Z</time></trkpt><trkpt lat="45.46503109067242" lon="10.606374694090942"><ele>80.66666666666667</ele><time>2026-04-12T13:53:17.001Z</time></trkpt><trkpt lat="45.46502695929595" lon="10.606262485242477"><ele>81.0</ele><time>2026-04-12T13:53:20.001Z</time></trkpt><trkpt lat="45.46503069428216" lon="10.606138333317478"><ele>81.0</ele><time>2026-04-12T13:53:23.001Z</time></trkpt><trkpt lat="45.46503439851684" lon="10.60603710416879"><ele>81.0</ele><time>2026-04-12T13:53:25.001Z</time></trkpt><trkpt lat="45.465035621132266" lon="10.605903765123163"><ele>81.0</ele><time>2026-04-12T13:53:27.001Z</time></trkpt><trkpt lat="45.46503263806218" lon="10.60573652576261"><ele>81.0</ele><time>2026-04-12T13:53:29.001Z</time></trkpt><trkpt lat="45.465041992433626" lon="10.60559390004915"><ele>81.0</ele><time>2026-04-12T13:53:31.001Z</time></trkpt><trkpt lat="45.46504414906632" lon="10.60549794116942"><ele>81.0</ele><time>2026-04-12T13:53:32.001Z</time></trkpt><trkpt lat="45.465046960807385" lon="10.605385973912343"><ele>81.0</ele><time>2026-04-12T13:53:33.001Z</time></trkpt><trkpt lat="45.46505233929261" lon="10.60527450744941"><ele>81.0</ele><time>2026-04-12T13:53:34.001Z</time></trkpt><trkpt lat="45.46505259442365" lon="10.605143104896568"><ele>81.0</ele><time>2026-04-12T13:53:35.001Z</time></trkpt><trkpt lat="45.465060149300356" lon="10.605007786381066"><ele>81.0</ele><time>2026-04-12T13:53:36.001Z</time></trkpt><trkpt lat="45.46506577293749" lon="10.60487011969742"><ele>81.0</ele><time>2026-04-12T13:53:37.001Z</time></trkpt><trkpt lat="45.465066868898184" lon="10.604741941115165"><ele>81.0</ele><time>2026-04-12T13:53:38.001Z</time></trkpt><trkpt lat="45.465070156598856" lon="10.604612724214029"><ele>81.0</ele><time>2026-04-12T13:53:39.001Z</time></trkpt><trkpt lat="45.465073694868906" lon="10.604485650205127"><ele>81.0</ele><time>2026-04-12T13:53:40.001Z</time></trkpt><trkpt lat="45.46507552251772" lon="10.60436915027678"><ele>81.0</ele><time>2026-04-12T13:53:41.001Z</time></trkpt><trkpt lat="45.46509332836019" lon="10.604244957531838"><ele>81.0</ele><time>2026-04-12T13:53:42.001Z</time></trkpt><trkpt lat="45.46507527174189" lon="10.604109328533507"><ele>81.0</ele><time>2026-04-12T13:53:43.001Z</time></trkpt><trkpt lat="45.465065785287024" lon="10.603977684256915"><ele>80.83333333333333</ele><time>2026-04-12T13:53:44.001Z</time></trkpt><trkpt lat="45.46505328515361" lon="10.603840492536152"><ele>80.66666666666667</ele><time>2026-04-12T13:53:45.001Z</time></trkpt><trkpt lat="45.46504134380177" lon="10.603712261322677"><ele>80.5</ele><time>2026-04-12T13:53:46.001Z</time></trkpt><trkpt lat="45.465045634540246" lon="10.603600731307234"><ele>80.33333333333334</ele><time>2026-04-12T13:53:47.001Z</time></trkpt><trkpt lat="45.46503482368574" lon="10.603493616243"><ele>80.16666666666667</ele><time>2026-04-12T13:53:48.001Z</time></trkpt><trkpt lat="45.46502423689345" lon="10.603388721198984"><ele>80.0</ele><time>2026-04-12T13:53:49.001Z</time></trkpt><trkpt lat="45.46501412320514" lon="10.603288514101106"><ele>80.0</ele><time>2026-04-12T13:53:50.001Z</time></trkpt><trkpt lat="45.465003313629474" lon="10.603179777971485"><ele>80.0</ele><time>2026-04-12T13:53:51.001Z</time></trkpt><trkpt lat="45.46497955006827" lon="10.603071257390596"><ele>80.0</ele><time>2026-04-12T13:53:52.001Z</time></trkpt><trkpt lat="45.46497956956412" lon="10.602961175351057"><ele>80.0</ele><time>2026-04-12T13:53:53.001Z</time></trkpt><trkpt lat="45.46498486833204" lon="10.602852090664834"><ele>80.0</ele><time>2026-04-12T13:53:54.001Z</time></trkpt><trkpt lat="45.464994142721174" lon="10.602742011844988"><ele>80.0</ele><time>2026-04-12T13:53:55.001Z</time></trkpt><trkpt lat="45.46500439887461" lon="10.602642791233308"><ele>79.66666666666667</ele><time>2026-04-12T13:53:56.001Z</time></trkpt><trkpt lat="45.46501513242515" lon="10.602551003481056"><ele>79.33333333333334</ele><time>2026-04-12T13:53:57.001Z</time></trkpt><trkpt lat="45.46504076644527" lon="10.602390310447012"><ele>79.0</ele><time>2026-04-12T13:53:59.001Z</time></trkpt><trkpt lat="45.46506814777183" lon="10.60226502008281"><ele>78.66666666666667</ele><time>2026-04-12T13:54:01.001Z</time></trkpt><trkpt lat="45.46508524058416" lon="10.602160653710433"><ele>78.33333333333333</ele><time>2026-04-12T13:54:03.001Z</time></trkpt><trkpt lat="45.4650952426776" lon="10.602059727144146"><ele>78.0</ele><time>2026-04-12T13:54:06.001Z</time></trkpt><trkpt lat="45.4651099781122" lon="10.60188730167873"><ele>77.6</ele><time>2026-04-12T13:54:13.001Z</time></trkpt><trkpt lat="45.465120535409554" lon="10.601759652617872"><ele>77.19999999999999</ele><time>2026-04-12T13:54:14.001Z</time></trkpt><trkpt lat="45.46511753515402" lon="10.60161736618866"><ele>76.8</ele><time>2026-04-12T13:54:15.001Z</time></trkpt><trkpt lat="45.46509076186826" lon="10.601482637302423"><ele>76.39999999999999</ele><time>2026-04-12T13:54:16.001Z</time></trkpt><trkpt lat="45.465042935837296" lon="10.601338321280268"><ele>76.0</ele><time>2026-04-12T13:54:17.001Z</time></trkpt><trkpt lat="45.464958494403476" lon="10.60118310523479"><ele>76.0</ele><time>2026-04-12T13:54:18.001Z</time></trkpt><trkpt lat="45.46484749919779" lon="10.601031933904368"><ele>76.0</ele><time>2026-04-12T13:54:19.001Z</time></trkpt><trkpt lat="45.464730820640426" lon="10.600867465752863"><ele>76.0</ele><time>2026-04-12T13:54:20Z</time></trkpt><trkpt lat="45.46461976324312" lon="10.600685305437272"><ele>75.0</ele><time>2026-04-12T13:54:21Z</time></trkpt><trkpt lat="45.464524721357165" lon="10.600474046470614"><ele>74.0</ele><time>2026-04-12T13:54:22Z</time></trkpt><trkpt lat="45.46447674167024" lon="10.600237270782573"><ele>73.0</ele><time>2026-04-12T13:54:23Z</time></trkpt><trkpt lat="45.46442647346357" lon="10.599984241811457"><ele>73.0</ele><time>2026-04-12T13:54:24Z</time></trkpt><trkpt lat="45.46437118056626" lon="10.599715699073972"><ele>73.0</ele><time>2026-04-12T13:54:25Z</time></trkpt><trkpt lat="45.46431337103093" lon="10.599442114718446"><ele>73.0</ele><time>2026-04-12T13:54:26Z</time></trkpt><trkpt lat="45.464242252283405" lon="10.599161458366046"><ele>73.0</ele><time>2026-04-12T13:54:27Z</time></trkpt><trkpt lat="45.46417672046697" lon="10.59887786887622"><ele>73.0</ele><time>2026-04-12T13:54:28Z</time></trkpt><trkpt lat="45.46411466365743" lon="10.598583205812128"><ele>73.0</ele><time>2026-04-12T13:54:29Z</time></trkpt><trkpt lat="45.46405175339514" lon="10.5982856771245"><ele>72.33333333333333</ele><time>2026-04-12T13:54:30Z</time></trkpt><trkpt lat="45.463987822641045" lon="10.5979910683065"><ele>71.66666666666667</ele><time>2026-04-12T13:54:31Z</time></trkpt><trkpt lat="45.46392352050759" lon="10.597695713100384"><ele>71.0</ele><time>2026-04-12T13:54:32Z</time></trkpt><trkpt lat="45.46385905385656" lon="10.597402985233662"><ele>71.0</ele><time>2026-04-12T13:54:33Z</time></trkpt><trkpt lat="45.46380136976645" lon="10.597119914477364"><ele>71.0</ele><time>2026-04-12T13:54:34Z</time></trkpt><trkpt lat="45.46374484073815" lon="10.596852405665986"><ele>71.0</ele><time>2026-04-12T13:54:35Z</time></trkpt><trkpt lat="45.46369079505216" lon="10.596587863529617"><ele>71.0</ele><time>2026-04-12T13:54:36Z</time></trkpt><trkpt lat="45.46364048685301" lon="10.596336257595876"><ele>71.0</ele><time>2026-04-12T13:54:37Z</time></trkpt><trkpt lat="45.463581975468955" lon="10.596094643820456"><ele>71.0</ele><time>2026-04-12T13:54:38Z</time></trkpt><trkpt lat="45.46352446628572" lon="10.595846036729872"><ele>71.0</ele><time>2026-04-12T13:54:39Z</time></trkpt><trkpt lat="45.46346786814807" lon="10.595597941713606"><ele>71.0</ele><time>2026-04-12T13:54:40Z</time></trkpt><trkpt lat="45.46341040076046" lon="10.595340326713638"><ele>71.0</ele><time>2026-04-12T13:54:41Z</time></trkpt><trkpt lat="45.46335565109181" lon="10.595085556196743"><ele>70.66666666666667</ele><time>2026-04-12T13:54:42Z</time></trkpt><trkpt lat="45.4632985267495" lon="10.594828483408412"><ele>70.33333333333333</ele><time>2026-04-12T13:54:43Z</time></trkpt><trkpt lat="45.46324340614622" lon="10.594577199023785"><ele>70.0</ele><time>2026-04-12T13:54:44Z</time></trkpt><trkpt lat="45.463189253366814" lon="10.594336286349654"><ele>70.0</ele><time>2026-04-12T13:54:45Z</time></trkpt><trkpt lat="45.46315358675133" lon="10.594103837088383"><ele>70.0</ele><time>2026-04-12T13:54:46Z</time></trkpt><trkpt lat="45.4631106308596" lon="10.593894926795889"><ele>70.0</ele><time>2026-04-12T13:54:47Z</time></trkpt><trkpt lat="45.46305984356616" lon="10.593697067994402"><ele>70.0</ele><time>2026-04-12T13:54:48Z</time></trkpt><trkpt lat="45.463051830523895" lon="10.593501511322554"><ele>70.0</ele><time>2026-04-12T13:54:49Z</time></trkpt><trkpt lat="45.46306662286507" lon="10.593322834487841"><ele>70.0</ele><time>2026-04-12T13:54:50Z</time></trkpt><trkpt lat="45.46309920322949" lon="10.593168686074716"><ele>70.0</ele><time>2026-04-12T13:54:51Z</time></trkpt><trkpt lat="45.463146259602766" lon="10.593043137224956"><ele>70.0</ele><time>2026-04-12T13:54:52Z</time></trkpt><trkpt lat="45.46317751794095" lon="10.59293080350026"><ele>70.0</ele><time>2026-04-12T13:54:53Z</time></trkpt><trkpt lat="45.46321317514659" lon="10.592820794928134"><ele>70.0</ele><time>2026-04-12T13:54:54Z</time></trkpt><trkpt lat="45.46320995463982" lon="10.59268766222928"><ele>70.0</ele><time>2026-04-12T13:54:55Z</time></trkpt><trkpt lat="45.46315205141629" lon="10.592539247885126"><ele>70.0</ele><time>2026-04-12T13:54:56Z</time></trkpt><trkpt lat="45.46312903127188" lon="10.592370264891995"><ele>70.33333333333333</ele><time>2026-04-12T13:54:57Z</time></trkpt><trkpt lat="45.46313507074161" lon="10.592162198776613"><ele>70.66666666666667</ele><time>2026-04-12T13:54:58Z</time></trkpt><trkpt lat="45.463138245906244" lon="10.591918680030817"><ele>71.0</ele><time>2026-04-12T13:54:59Z</time></trkpt><trkpt lat="45.4631414958246" lon="10.591648436742267"><ele>70.0</ele><time>2026-04-12T13:55:00Z</time></trkpt><trkpt lat="45.46312920294708" lon="10.591349871844967"><ele>69.0</ele><time>2026-04-12T13:55:01Z</time></trkpt><trkpt lat="45.46314638884086" lon="10.591047286337323"><ele>68.0</ele><time>2026-04-12T13:55:02Z</time></trkpt><trkpt lat="45.46315041118478" lon="10.590751395534927"><ele>67.33333333333334</ele><time>2026-04-12T13:55:03Z</time></trkpt><trkpt lat="45.463145849252626" lon="10.590464420999743"><ele>66.66666666666667</ele><time>2026-04-12T13:55:04Z</time></trkpt><trkpt lat="45.463134928366856" lon="10.590192930623145"><ele>66.0</ele><time>2026-04-12T13:55:05Z</time></trkpt><trkpt lat="45.463112280072" lon="10.589932833329518"><ele>66.0</ele><time>2026-04-12T13:55:06Z</time></trkpt><trkpt lat="45.46306959230205" lon="10.589673863103773"><ele>66.0</ele><time>2026-04-12T13:55:07Z</time></trkpt><trkpt lat="45.46299359318474" lon="10.589426599561344"><ele>66.0</ele><time>2026-04-12T13:55:08Z</time></trkpt><trkpt lat="45.46289818887048" lon="10.589194689151643"><ele>66.0</ele><time>2026-04-12T13:55:09Z</time></trkpt><trkpt lat="45.46280059283172" lon="10.588970215069507"><ele>66.0</ele><time>2026-04-12T13:55:10Z</time></trkpt><trkpt lat="45.46270291761235" lon="10.58874396385791"><ele>66.0</ele><time>2026-04-12T13:55:11Z</time></trkpt><trkpt lat="45.46260049813417" lon="10.588518041492478"><ele>66.0</ele><time>2026-04-12T13:55:12Z</time></trkpt><trkpt lat="45.46249659070711" lon="10.588303830492851"><ele>66.0</ele><time>2026-04-12T13:55:13Z</time></trkpt><trkpt lat="45.462391813014776" lon="10.588099854127156"><ele>66.0</ele><time>2026-04-12T13:55:14Z</time></trkpt><trkpt lat="45.462283614973266" lon="10.587898408262694"><ele>66.33333333333333</ele><time>2026-04-12T13:55:15Z</time></trkpt><trkpt lat="45.46217481717243" lon="10.587697220327504"><ele>66.66666666666666</ele><time>2026-04-12T13:55:16Z</time></trkpt><trkpt lat="45.46206785552366" lon="10.587496442376686"><ele>67.0</ele><time>2026-04-12T13:55:17Z</time></trkpt><trkpt lat="45.46196085114703" lon="10.58729410108589"><ele>67.0</ele><time>2026-04-12T13:55:18Z</time></trkpt><trkpt lat="45.461848063690816" lon="10.587094189320174"><ele>67.0</ele><time>2026-04-12T13:55:19Z</time></trkpt><trkpt lat="45.46174180739269" lon="10.586899546650205"><ele>67.0</ele><time>2026-04-12T13:55:20Z</time></trkpt><trkpt lat="45.46163317743442" lon="10.586706164934277"><ele>66.66666666666666</ele><time>2026-04-12T13:55:21Z</time></trkpt><trkpt lat="45.46152670509328" lon="10.586514927262012"><ele>66.33333333333333</ele><time>2026-04-12T13:55:22Z</time></trkpt><trkpt lat="45.46141935129438" lon="10.586324609813442"><ele>66.0</ele><time>2026-04-12T13:55:23Z</time></trkpt><trkpt lat="45.461315596745564" lon="10.586139468446367"><ele>66.33333333333333</ele><time>2026-04-12T13:55:24Z</time></trkpt><trkpt lat="45.46121301648968" lon="10.58595693473829"><ele>66.66666666666666</ele><time>2026-04-12T13:55:25Z</time></trkpt><trkpt lat="45.461112067744835" lon="10.585788941268717"><ele>67.0</ele><time>2026-04-12T13:55:26Z</time></trkpt><trkpt lat="45.461018173466705" lon="10.585625055617358"><ele>67.0</ele><time>2026-04-12T13:55:27Z</time></trkpt><trkpt lat="45.4609327355274" lon="10.585473173033279"><ele>67.0</ele><time>2026-04-12T13:55:28Z</time></trkpt><trkpt lat="45.46085639998734" lon="10.585336625935078"><ele>67.0</ele><time>2026-04-12T13:55:29Z</time></trkpt><trkpt lat="45.46078753480522" lon="10.58521474141927"><ele>67.0</ele><time>2026-04-12T13:55:30Z</time></trkpt><trkpt lat="45.46072855059322" lon="10.585120109056703"><ele>67.2</ele><time>2026-04-12T13:55:31Z</time></trkpt><trkpt lat="45.46067280940389" lon="10.585045985746854"><ele>67.4</ele><time>2026-04-12T13:55:32Z</time></trkpt><trkpt lat="45.460622626182044" lon="10.584969820059166"><ele>67.6</ele><time>2026-04-12T13:55:33Z</time></trkpt><trkpt lat="45.46058542437358" lon="10.584861285388616"><ele>67.8</ele><time>2026-04-12T13:55:34Z</time></trkpt><trkpt lat="45.460555348717406" lon="10.584723390854645"><ele>68.0</ele><time>2026-04-12T13:55:35Z</time></trkpt><trkpt lat="45.460531873544596" lon="10.584555939532681"><ele>68.0</ele><time>2026-04-12T13:55:36Z</time></trkpt><trkpt lat="45.46051226262936" lon="10.584381480581794"><ele>68.0</ele><time>2026-04-12T13:55:37Z</time></trkpt><trkpt lat="45.460493846102715" lon="10.584193091475726"><ele>68.0</ele><time>2026-04-12T13:55:38Z</time></trkpt><trkpt lat="45.46047719117504" lon="10.584000926140126"><ele>68.0</ele><time>2026-04-12T13:55:39Z</time></trkpt><trkpt lat="45.46045328719251" lon="10.583807124876213"><ele>68.2</ele><time>2026-04-12T13:55:40Z</time></trkpt><trkpt lat="45.460434155943815" lon="10.583629409452321"><ele>68.4</ele><time>2026-04-12T13:55:41Z</time></trkpt><trkpt lat="45.460415833309845" lon="10.583461400838608"><ele>68.60000000000001</ele><time>2026-04-12T13:55:42Z</time></trkpt><trkpt lat="45.46040508999239" lon="10.583309958348234"><ele>68.8</ele><time>2026-04-12T13:55:43Z</time></trkpt><trkpt lat="45.46038648400657" lon="10.583178594054246"><ele>69.0</ele><time>2026-04-12T13:55:44Z</time></trkpt><trkpt lat="45.4603773354556" lon="10.583056831829742"><ele>69.0</ele><time>2026-04-12T13:55:45Z</time></trkpt><trkpt lat="45.4603664555444" lon="10.58293810991308"><ele>69.0</ele><time>2026-04-12T13:55:46Z</time></trkpt><trkpt lat="45.46034919163468" lon="10.582804913340661"><ele>69.0</ele><time>2026-04-12T13:55:47Z</time></trkpt><trkpt lat="45.46033590844528" lon="10.582657364992498"><ele>69.0</ele><time>2026-04-12T13:55:48Z</time></trkpt><trkpt lat="45.46032019199566" lon="10.582502763609618"><ele>69.0</ele><time>2026-04-12T13:55:49Z</time></trkpt><trkpt lat="45.46030422960223" lon="10.582345138788162"><ele>69.2</ele><time>2026-04-12T13:55:50Z</time></trkpt><trkpt lat="45.4602898184109" lon="10.58219757326114"><ele>69.4</ele><time>2026-04-12T13:55:51Z</time></trkpt><trkpt lat="45.46027784322688" lon="10.582061283248157"><ele>69.6</ele><time>2026-04-12T13:55:52Z</time></trkpt><trkpt lat="45.46026131388851" lon="10.581932367811705"><ele>69.8</ele><time>2026-04-12T13:55:53Z</time></trkpt><trkpt lat="45.46025251985154" lon="10.581811597939312"><ele>70.0</ele><time>2026-04-12T13:55:54Z</time></trkpt><trkpt lat="45.46024320370817" lon="10.581697071738196"><ele>69.66666666666666</ele><time>2026-04-12T13:55:55.001Z</time></trkpt><trkpt lat="45.460234161539326" lon="10.581586955126362"><ele>69.33333333333333</ele><time>2026-04-12T13:55:56.001Z</time></trkpt><trkpt lat="45.46021825346148" lon="10.581479059777758"><ele>69.0</ele><time>2026-04-12T13:55:57.001Z</time></trkpt><trkpt lat="45.46019121271454" lon="10.581387236326645"><ele>68.66666666666667</ele><time>2026-04-12T13:55:58.001Z</time></trkpt><trkpt lat="45.460161914444264" lon="10.581297412193907"><ele>68.33333333333334</ele><time>2026-04-12T13:55:59.001Z</time></trkpt><trkpt lat="45.460153559082336" lon="10.58118435077523"><ele>68.0</ele><time>2026-04-12T13:56:00.001Z</time></trkpt><trkpt lat="45.460162653927405" lon="10.581064106553816"><ele>68.0</ele><time>2026-04-12T13:56:01.001Z</time></trkpt><trkpt lat="45.46015697459019" lon="10.580938998329477"><ele>68.0</ele><time>2026-04-12T13:56:02.001Z</time></trkpt><trkpt lat="45.460148209484686" lon="10.580807432151706"><ele>68.0</ele><time>2026-04-12T13:56:03.001Z</time></trkpt><trkpt lat="45.46014106791977" lon="10.580657062431298"><ele>68.0</ele><time>2026-04-12T13:56:04.001Z</time></trkpt><trkpt lat="45.460131117489965" lon="10.580497674672896"><ele>68.0</ele><time>2026-04-12T13:56:05.001Z</time></trkpt><trkpt lat="45.460113936433785" lon="10.580328591446643"><ele>68.0</ele><time>2026-04-12T13:56:06.001Z</time></trkpt><trkpt lat="45.46009308237041" lon="10.580155107250187"><ele>68.0</ele><time>2026-04-12T13:56:07.001Z</time></trkpt><trkpt lat="45.460065840948914" lon="10.579973097725905"><ele>68.0</ele><time>2026-04-12T13:56:08.001Z</time></trkpt><trkpt lat="45.46004718809054" lon="10.579789531275477"><ele>68.0</ele><time>2026-04-12T13:56:09.001Z</time></trkpt><trkpt lat="45.46002806684535" lon="10.57961120591177"><ele>68.0</ele><time>2026-04-12T13:56:10.001Z</time></trkpt><trkpt lat="45.460013799141265" lon="10.579434892623132"><ele>68.0</ele><time>2026-04-12T13:56:11.001Z</time></trkpt><trkpt lat="45.45999424435774" lon="10.5792602928894"><ele>68.0</ele><time>2026-04-12T13:56:12.001Z</time></trkpt><trkpt lat="45.45997538228699" lon="10.579083595684887"><ele>68.0</ele><time>2026-04-12T13:56:13.001Z</time></trkpt><trkpt lat="45.459954145995226" lon="10.57890429846012"><ele>68.0</ele><time>2026-04-12T13:56:14.001Z</time></trkpt><trkpt lat="45.45994240233291" lon="10.578730538344567"><ele>68.0</ele><time>2026-04-12T13:56:15.001Z</time></trkpt><trkpt lat="45.45992249651656" lon="10.578551060142232"><ele>68.0</ele><time>2026-04-12T13:56:16.001Z</time></trkpt><trkpt lat="45.45990550229477" lon="10.578368233288048"><ele>68.0</ele><time>2026-04-12T13:56:17.001Z</time></trkpt><trkpt lat="45.45988495479953" lon="10.578193022466538"><ele>68.0</ele><time>2026-04-12T13:56:18.001Z</time></trkpt><trkpt lat="45.45986575167293" lon="10.578021618241817"><ele>68.0</ele><time>2026-04-12T13:56:19.001Z</time></trkpt><trkpt lat="45.45984868133562" lon="10.577862963141818"><ele>68.0</ele><time>2026-04-12T13:56:20.001Z</time></trkpt><trkpt lat="45.45983477037228" lon="10.577698461805154"><ele>68.0</ele><time>2026-04-12T13:56:21.001Z</time></trkpt><trkpt lat="45.45981526045767" lon="10.577527033035494"><ele>68.0</ele><time>2026-04-12T13:56:22.001Z</time></trkpt><trkpt lat="45.45979630453294" lon="10.577353084759155"><ele>68.0</ele><time>2026-04-12T13:56:23.001Z</time></trkpt><trkpt lat="45.45979340887415" lon="10.577168748739211"><ele>68.0</ele><time>2026-04-12T13:56:24.001Z</time></trkpt><trkpt lat="45.45976923262002" lon="10.576990872644876"><ele>68.0</ele><time>2026-04-12T13:56:25.001Z</time></trkpt><trkpt lat="45.45975748337539" lon="10.576822313410764"><ele>68.4</ele><time>2026-04-12T13:56:26Z</time></trkpt><trkpt lat="45.459751623825156" lon="10.57666371555016"><ele>68.8</ele><time>2026-04-12T13:56:27Z</time></trkpt><trkpt lat="45.45975210518219" lon="10.576506638975872"><ele>69.2</ele><time>2026-04-12T13:56:28Z</time></trkpt><trkpt lat="45.45974763467101" lon="10.57635168022605"><ele>69.6</ele><time>2026-04-12T13:56:29Z</time></trkpt><trkpt lat="45.45974278599493" lon="10.576195980511871"><ele>70.0</ele><time>2026-04-12T13:56:30Z</time></trkpt><trkpt lat="45.45973782401179" lon="10.576043089413924"><ele>70.0</ele><time>2026-04-12T13:56:31Z</time></trkpt><trkpt lat="45.45973473511591" lon="10.575902857063161"><ele>70.0</ele><time>2026-04-12T13:56:32Z</time></trkpt><trkpt lat="45.45974314306961" lon="10.575767815471586"><ele>70.0</ele><time>2026-04-12T13:56:33Z</time></trkpt><trkpt lat="45.459774317191915" lon="10.575637307407337"><ele>70.0</ele><time>2026-04-12T13:56:34Z</time></trkpt><trkpt lat="45.459810525390935" lon="10.575511705378663"><ele>70.0</ele><time>2026-04-12T13:56:35Z</time></trkpt><trkpt lat="45.459830963614415" lon="10.57539205229962"><ele>69.4</ele><time>2026-04-12T13:56:36Z</time></trkpt><trkpt lat="45.45983769213105" lon="10.575275331997727"><ele>68.8</ele><time>2026-04-12T13:56:37Z</time></trkpt><trkpt lat="45.45986748359037" lon="10.575153051113185"><ele>68.2</ele><time>2026-04-12T13:56:38Z</time></trkpt><trkpt lat="45.459899487649125" lon="10.575021008235508"><ele>67.6</ele><time>2026-04-12T13:56:39Z</time></trkpt><trkpt lat="45.45991956000096" lon="10.574873475779723"><ele>67.0</ele><time>2026-04-12T13:56:40Z</time></trkpt><trkpt lat="45.459934835215776" lon="10.574714595741867"><ele>67.0</ele><time>2026-04-12T13:56:41Z</time></trkpt><trkpt lat="45.45994981649893" lon="10.574548117999692"><ele>67.0</ele><time>2026-04-12T13:56:42Z</time></trkpt><trkpt lat="45.45996391491582" lon="10.574377390047559"><ele>67.0</ele><time>2026-04-12T13:56:43Z</time></trkpt><trkpt lat="45.45998153574974" lon="10.574201191052552"><ele>67.0</ele><time>2026-04-12T13:56:44Z</time></trkpt><trkpt lat="45.46000024843348" lon="10.574016143695253"><ele>67.75</ele><time>2026-04-12T13:56:45Z</time></trkpt><trkpt lat="45.460019769282006" lon="10.573827045716218"><ele>68.5</ele><time>2026-04-12T13:56:46Z</time></trkpt><trkpt lat="45.460039602769236" lon="10.573646524779338"><ele>69.25</ele><time>2026-04-12T13:56:47Z</time></trkpt><trkpt lat="45.46005701248569" lon="10.573461660526824"><ele>70.0</ele><time>2026-04-12T13:56:48Z</time></trkpt><trkpt lat="45.46007340055388" lon="10.573286657192156"><ele>70.6</ele><time>2026-04-12T13:56:49Z</time></trkpt><trkpt lat="45.460106770093056" lon="10.573128082827735"><ele>71.2</ele><time>2026-04-12T13:56:50Z</time></trkpt><trkpt lat="45.460123652975206" lon="10.572974096628718"><ele>71.8</ele><time>2026-04-12T13:56:51Z</time></trkpt><trkpt lat="45.4601391503594" lon="10.572832747225993"><ele>72.4</ele><time>2026-04-12T13:56:52Z</time></trkpt><trkpt lat="45.46015331917965" lon="10.572704363830386"><ele>73.0</ele><time>2026-04-12T13:56:53Z</time></trkpt><trkpt lat="45.460167627341775" lon="10.572575957477545"><ele>73.25</ele><time>2026-04-12T13:56:54Z</time></trkpt><trkpt lat="45.46018379225013" lon="10.572429184715375"><ele>73.5</ele><time>2026-04-12T13:56:55Z</time></trkpt><trkpt lat="45.460204363932625" lon="10.572242399572124"><ele>73.75</ele><time>2026-04-12T13:56:56Z</time></trkpt><trkpt lat="45.460225680958025" lon="10.572048846964424"><ele>74.0</ele><time>2026-04-12T13:56:57Z</time></trkpt><trkpt lat="45.46024814298842" lon="10.57184630600846"><ele>74.75</ele><time>2026-04-12T13:56:58Z</time></trkpt><trkpt lat="45.4602707918966" lon="10.57164250388849"><ele>75.5</ele><time>2026-04-12T13:56:59Z</time></trkpt><trkpt lat="45.46029418354652" lon="10.571432018237946"><ele>76.25</ele><time>2026-04-12T13:57:00Z</time></trkpt><trkpt lat="45.46030549377786" lon="10.571226888949647"><ele>77.0</ele><time>2026-04-12T13:57:01Z</time></trkpt><trkpt lat="45.460330233329714" lon="10.571041538253674"><ele>77.2</ele><time>2026-04-12T13:57:02Z</time></trkpt><trkpt lat="45.46034983340963" lon="10.570875839407766"><ele>77.4</ele><time>2026-04-12T13:57:03Z</time></trkpt><trkpt lat="45.460363783508136" lon="10.570734035430034"><ele>77.6</ele><time>2026-04-12T13:57:04Z</time></trkpt><trkpt lat="45.460377280376385" lon="10.570619256615965"><ele>77.8</ele><time>2026-04-12T13:57:05Z</time></trkpt><trkpt lat="45.460393848879804" lon="10.570528499273575"><ele>78.0</ele><time>2026-04-12T13:57:06Z</time></trkpt><trkpt lat="45.46043998810249" lon="10.570368466166022"><ele>78.4</ele><time>2026-04-12T13:57:08Z</time></trkpt><trkpt lat="45.46044949385572" lon="10.570260740335565"><ele>78.8</ele><time>2026-04-12T13:57:09Z</time></trkpt><trkpt lat="45.46044140037928" lon="10.57012341968897"><ele>79.2</ele><time>2026-04-12T13:57:10Z</time></trkpt><trkpt lat="45.46044580357382" lon="10.569966858191597"><ele>79.6</ele><time>2026-04-12T13:57:11Z</time></trkpt><trkpt lat="45.460461725103094" lon="10.569793284040202"><ele>80.0</ele><time>2026-04-12T13:57:12Z</time></trkpt><trkpt lat="45.460483133747" lon="10.569608738573015"><ele>81.0</ele><time>2026-04-12T13:57:13Z</time></trkpt><trkpt lat="45.46050269492236" lon="10.569426656889386"><ele>82.0</ele><time>2026-04-12T13:57:14Z</time></trkpt><trkpt lat="45.46052176149924" lon="10.569251442540828"><ele>83.0</ele><time>2026-04-12T13:57:15Z</time></trkpt><trkpt lat="45.46054182001025" lon="10.569086183996692"><ele>84.0</ele><time>2026-04-12T13:57:16Z</time></trkpt><trkpt lat="45.46057265724822" lon="10.568925799930922"><ele>84.0</ele><time>2026-04-12T13:57:17Z</time></trkpt><trkpt lat="45.46058957295193" lon="10.568765533391757"><ele>84.0</ele><time>2026-04-12T13:57:18Z</time></trkpt><trkpt lat="45.46060534335631" lon="10.568612198362093"><ele>84.0</ele><time>2026-04-12T13:57:19Z</time></trkpt><trkpt lat="45.460605852414254" lon="10.568465790204677"><ele>84.0</ele><time>2026-04-12T13:57:20Z</time></trkpt><trkpt lat="45.46062856206805" lon="10.56832875923911"><ele>84.0</ele><time>2026-04-12T13:57:21Z</time></trkpt><trkpt lat="45.46064593971396" lon="10.56819954161846"><ele>83.6</ele><time>2026-04-12T13:57:22Z</time></trkpt><trkpt lat="45.46066000308824" lon="10.568081567733326"><ele>83.2</ele><time>2026-04-12T13:57:23Z</time></trkpt><trkpt lat="45.46067199799307" lon="10.56796878570431"><ele>82.8</ele><time>2026-04-12T13:57:24Z</time></trkpt><trkpt lat="45.46068302685132" lon="10.567854663938048"><ele>82.39999999999999</ele><time>2026-04-12T13:57:26Z</time></trkpt><trkpt lat="45.4606909710352" lon="10.567721763207217"><ele>82.0</ele><time>2026-04-12T13:57:30Z</time></trkpt><trkpt lat="45.460710092817195" lon="10.567565240539556"><ele>82.0</ele><time>2026-04-12T13:57:32Z</time></trkpt><trkpt lat="45.46072453297593" lon="10.567469006421414"><ele>82.0</ele><time>2026-04-12T13:57:33Z</time></trkpt><trkpt lat="45.46072940767811" lon="10.56737674439035"><ele>82.0</ele><time>2026-04-12T13:57:34Z</time></trkpt><trkpt lat="45.460741190456254" lon="10.56728438941992"><ele>82.0</ele><time>2026-04-12T13:57:35Z</time></trkpt><trkpt lat="45.46075994208592" lon="10.567112756908989"><ele>82.0</ele><time>2026-04-12T13:57:37Z</time></trkpt><trkpt lat="45.460771849650676" lon="10.567022492049162"><ele>82.0</ele><time>2026-04-12T13:57:38Z</time></trkpt><trkpt lat="45.46078042267539" lon="10.566931831742275"><ele>81.8</ele><time>2026-04-12T13:57:39Z</time></trkpt><trkpt lat="45.46080421258179" lon="10.566768259687649"><ele>81.6</ele><time>2026-04-12T13:57:41Z</time></trkpt><trkpt lat="45.46083127541636" lon="10.566619474020388"><ele>81.39999999999999</ele><time>2026-04-12T13:57:43Z</time></trkpt><trkpt lat="45.46082207012812" lon="10.566523267563491"><ele>81.19999999999999</ele><time>2026-04-12T13:57:44Z</time></trkpt><trkpt lat="45.4608195670343" lon="10.566410420647012"><ele>81.0</ele><time>2026-04-12T13:57:45Z</time></trkpt><trkpt lat="45.46083187895132" lon="10.566299489765775"><ele>81.19999999999999</ele><time>2026-04-12T13:57:46Z</time></trkpt><trkpt lat="45.46084298292537" lon="10.566174691829735"><ele>81.39999999999999</ele><time>2026-04-12T13:57:47Z</time></trkpt><trkpt lat="45.460847265008425" lon="10.566034119329554"><ele>81.6</ele><time>2026-04-12T13:57:48Z</time></trkpt><trkpt lat="45.460858309032446" lon="10.565888561903154"><ele>81.8</ele><time>2026-04-12T13:57:49Z</time></trkpt><trkpt lat="45.46086296652689" lon="10.565737956269755"><ele>82.0</ele><time>2026-04-12T13:57:50Z</time></trkpt><trkpt lat="45.460874195881416" lon="10.565583527127385"><ele>82.0</ele><time>2026-04-12T13:57:51Z</time></trkpt><trkpt lat="45.460879583837624" lon="10.565431414486268"><ele>82.0</ele><time>2026-04-12T13:57:52Z</time></trkpt><trkpt lat="45.460886366891906" lon="10.565286276010564"><ele>82.0</ele><time>2026-04-12T13:57:53Z</time></trkpt><trkpt lat="45.46089409139303" lon="10.565139129631191"><ele>82.0</ele><time>2026-04-12T13:57:54Z</time></trkpt><trkpt lat="45.46090729091704" lon="10.564984626855049"><ele>82.0</ele><time>2026-04-12T13:57:55Z</time></trkpt><trkpt lat="45.46091825029848" lon="10.56483268240134"><ele>81.8</ele><time>2026-04-12T13:57:56Z</time></trkpt><trkpt lat="45.460935188215984" lon="10.564680651769008"><ele>81.6</ele><time>2026-04-12T13:57:57Z</time></trkpt><trkpt lat="45.46094276572577" lon="10.564532654444212"><ele>81.39999999999999</ele><time>2026-04-12T13:57:58Z</time></trkpt><trkpt lat="45.460953189895925" lon="10.56439203719138"><ele>81.19999999999999</ele><time>2026-04-12T13:57:59Z</time></trkpt><trkpt lat="45.46096564009716" lon="10.56425533530607"><ele>81.0</ele><time>2026-04-12T13:58:00Z</time></trkpt><trkpt lat="45.46098563074318" lon="10.564104217454238"><ele>80.75</ele><time>2026-04-12T13:58:01Z</time></trkpt><trkpt lat="45.46100658847371" lon="10.563944054753248"><ele>80.5</ele><time>2026-04-12T13:58:02.001Z</time></trkpt><trkpt lat="45.46102762377794" lon="10.563777889810819"><ele>80.25</ele><time>2026-04-12T13:58:03.001Z</time></trkpt><trkpt lat="45.46104750036029" lon="10.563603308954882"><ele>80.0</ele><time>2026-04-12T13:58:04.001Z</time></trkpt><trkpt lat="45.461071573347496" lon="10.563434795520397"><ele>80.0</ele><time>2026-04-12T13:58:05.001Z</time></trkpt><trkpt lat="45.46109316124418" lon="10.563269963020751"><ele>80.0</ele><time>2026-04-12T13:58:06.001Z</time></trkpt><trkpt lat="45.46111298991457" lon="10.563090702643906"><ele>80.0</ele><time>2026-04-12T13:58:07.001Z</time></trkpt><trkpt lat="45.4611269368382" lon="10.562910868373914"><ele>80.0</ele><time>2026-04-12T13:58:08.001Z</time></trkpt><trkpt lat="45.46113550423622" lon="10.562727617179307"><ele>79.75</ele><time>2026-04-12T13:58:09.001Z</time></trkpt><trkpt lat="45.461140964950815" lon="10.562537499304767"><ele>79.5</ele><time>2026-04-12T13:58:10.001Z</time></trkpt><trkpt lat="45.46113941709112" lon="10.56235210022448"><ele>79.25</ele><time>2026-04-12T13:58:11.001Z</time></trkpt><trkpt lat="45.46113981696752" lon="10.562164765722782"><ele>79.0</ele><time>2026-04-12T13:58:12.001Z</time></trkpt><trkpt lat="45.461142543570546" lon="10.561978031989778"><ele>78.5</ele><time>2026-04-12T13:58:13.001Z</time></trkpt><trkpt lat="45.461142999947015" lon="10.561798096064031"><ele>78.0</ele><time>2026-04-12T13:58:14.001Z</time></trkpt><trkpt lat="45.46114303700314" lon="10.561624232688004"><ele>77.5</ele><time>2026-04-12T13:58:15.001Z</time></trkpt><trkpt lat="45.461141846875606" lon="10.561455635530335"><ele>77.0</ele><time>2026-04-12T13:58:16.001Z</time></trkpt><trkpt lat="45.46114193724679" lon="10.561290121813297"><ele>77.0</ele><time>2026-04-12T13:58:17.001Z</time></trkpt><trkpt lat="45.46113892850956" lon="10.561135006736599"><ele>77.0</ele><time>2026-04-12T13:58:18.001Z</time></trkpt><trkpt lat="45.461139076576934" lon="10.560982785464775"><ele>77.0</ele><time>2026-04-12T13:58:19.001Z</time></trkpt><trkpt lat="45.4611383277277" lon="10.560839477068615"><ele>77.0</ele><time>2026-04-12T13:58:20.001Z</time></trkpt><trkpt lat="45.461136607178126" lon="10.560711094145482"><ele>77.0</ele><time>2026-04-12T13:58:21.001Z</time></trkpt><trkpt lat="45.46113822888183" lon="10.560606171839552"><ele>77.0</ele><time>2026-04-12T13:58:22.001Z</time></trkpt><trkpt lat="45.461138637444314" lon="10.560514935805815"><ele>77.0</ele><time>2026-04-12T13:58:23.001Z</time></trkpt><trkpt lat="45.461162884003" lon="10.560356525814152"><ele>77.0</ele><time>2026-04-12T13:58:25.001Z</time></trkpt><trkpt lat="45.461215079063216" lon="10.560215680616302"><ele>77.0</ele><time>2026-04-12T13:58:27.001Z</time></trkpt><trkpt lat="45.461233243928376" lon="10.560121723705242"><ele>77.0</ele><time>2026-04-12T13:58:28.001Z</time></trkpt><trkpt lat="45.461230420320085" lon="10.56002523823031"><ele>77.0</ele><time>2026-04-12T13:58:29.001Z</time></trkpt><trkpt lat="45.461198990586794" lon="10.559930726229265"><ele>77.16666666666667</ele><time>2026-04-12T13:58:30.001Z</time></trkpt><trkpt lat="45.461178244347316" lon="10.559842440181795"><ele>77.33333333333334</ele><time>2026-04-12T13:58:31.001Z</time></trkpt><trkpt lat="45.461154618153145" lon="10.559688166676894"><ele>77.5</ele><time>2026-04-12T13:58:33Z</time></trkpt><trkpt lat="45.461153769759164" lon="10.55956455948377"><ele>77.66666666666667</ele><time>2026-04-12T13:58:35Z</time></trkpt><trkpt lat="45.46115229372677" lon="10.559452742874452"><ele>77.83333333333333</ele><time>2026-04-12T13:58:38Z</time></trkpt><trkpt lat="45.461174179701764" lon="10.559310895459525"><ele>78.0</ele><time>2026-04-12T13:58:41Z</time></trkpt><trkpt lat="45.46119714961892" lon="10.55916535617307"><ele>78.0</ele><time>2026-04-12T13:58:43Z</time></trkpt><trkpt lat="45.461238538257966" lon="10.5590776740689"><ele>78.0</ele><time>2026-04-12T13:58:44Z</time></trkpt><trkpt lat="45.46127770764687" lon="10.55896192086848"><ele>78.0</ele><time>2026-04-12T13:58:45Z</time></trkpt><trkpt lat="45.46132908109113" lon="10.5588226328545"><ele>78.0</ele><time>2026-04-12T13:58:46Z</time></trkpt><trkpt lat="45.4613779963464" lon="10.558689320258937"><ele>78.0</ele><time>2026-04-12T13:58:47Z</time></trkpt><trkpt lat="45.46142382701488" lon="10.558564244834475"><ele>77.4</ele><time>2026-04-12T13:58:48Z</time></trkpt><trkpt lat="45.46146558335106" lon="10.558450288592741"><ele>76.8</ele><time>2026-04-12T13:58:49Z</time></trkpt><trkpt lat="45.46148898857455" lon="10.558335818325359"><ele>76.2</ele><time>2026-04-12T13:58:50Z</time></trkpt><trkpt lat="45.461539078156626" lon="10.558233279675699"><ele>75.6</ele><time>2026-04-12T13:58:51Z</time></trkpt><trkpt lat="45.46157963917187" lon="10.558103416477246"><ele>75.0</ele><time>2026-04-12T13:58:52Z</time></trkpt><trkpt lat="45.461634713192154" lon="10.557969975796382"><ele>75.4</ele><time>2026-04-12T13:58:53Z</time></trkpt><trkpt lat="45.46167832611839" lon="10.557830186378999"><ele>75.8</ele><time>2026-04-12T13:58:54Z</time></trkpt><trkpt lat="45.46173074301684" lon="10.557690779934132"><ele>76.2</ele><time>2026-04-12T13:58:55Z</time></trkpt><trkpt lat="45.46178077609511" lon="10.557555043398034"><ele>76.6</ele><time>2026-04-12T13:58:56Z</time></trkpt><trkpt lat="45.461838271972134" lon="10.557410462359803"><ele>77.0</ele><time>2026-04-12T13:58:57Z</time></trkpt><trkpt lat="45.461893763020555" lon="10.557261944728147"><ele>77.0</ele><time>2026-04-12T13:58:58Z</time></trkpt><trkpt lat="45.461945030666335" lon="10.557119566889005"><ele>77.0</ele><time>2026-04-12T13:58:59Z</time></trkpt><trkpt lat="45.46200050756056" lon="10.556969410281901"><ele>77.0</ele><time>2026-04-12T13:59:00Z</time></trkpt><trkpt lat="45.46205839638545" lon="10.556805832361732"><ele>77.0</ele><time>2026-04-12T13:59:01Z</time></trkpt><trkpt lat="45.46212556721922" lon="10.556632411481976"><ele>76.0</ele><time>2026-04-12T13:59:02Z</time></trkpt><trkpt lat="45.462194629280695" lon="10.556469247106072"><ele>75.0</ele><time>2026-04-12T13:59:03Z</time></trkpt><trkpt lat="45.46226813721261" lon="10.556304658420785"><ele>74.0</ele><time>2026-04-12T13:59:04Z</time></trkpt><trkpt lat="45.462341040264754" lon="10.556100589105816"><ele>73.0</ele><time>2026-04-12T13:59:05Z</time></trkpt><trkpt lat="45.46243131211602" lon="10.555870821407897"><ele>73.0</ele><time>2026-04-12T13:59:06Z</time></trkpt><trkpt lat="45.46254185277229" lon="10.555645042652857"><ele>73.0</ele><time>2026-04-12T13:59:07Z</time></trkpt><trkpt lat="45.46266142019151" lon="10.555448130152127"><ele>73.0</ele><time>2026-04-12T13:59:08Z</time></trkpt><trkpt lat="45.46278988896692" lon="10.555266100820527"><ele>73.33333333333333</ele><time>2026-04-12T13:59:09Z</time></trkpt><trkpt lat="45.462907342834306" lon="10.555098109797111"><ele>73.66666666666667</ele><time>2026-04-12T13:59:10Z</time></trkpt><trkpt lat="45.463019310946905" lon="10.554939016077492"><ele>74.0</ele><time>2026-04-12T13:59:11Z</time></trkpt><trkpt lat="45.46312053328304" lon="10.554791297830478"><ele>73.25</ele><time>2026-04-12T13:59:12Z</time></trkpt><trkpt lat="45.46321589430559" lon="10.554640640611948"><ele>72.5</ele><time>2026-04-12T13:59:13Z</time></trkpt><trkpt lat="45.46330136749879" lon="10.554475810565453"><ele>71.75</ele><time>2026-04-12T13:59:14Z</time></trkpt><trkpt lat="45.46338408967459" lon="10.55429801479218"><ele>71.0</ele><time>2026-04-12T13:59:15Z</time></trkpt><trkpt lat="45.46345751116519" lon="10.554109766345576"><ele>71.0</ele><time>2026-04-12T13:59:16Z</time></trkpt><trkpt lat="45.463528418926494" lon="10.553937996644038"><ele>71.0</ele><time>2026-04-12T13:59:17Z</time></trkpt><trkpt lat="45.46359551742639" lon="10.553774121386596"><ele>71.0</ele><time>2026-04-12T13:59:18Z</time></trkpt><trkpt lat="45.46366303577145" lon="10.553620938798424"><ele>71.0</ele><time>2026-04-12T13:59:19Z</time></trkpt><trkpt lat="45.46373224456317" lon="10.553456245549919"><ele>71.5</ele><time>2026-04-12T13:59:20Z</time></trkpt><trkpt lat="45.46380153231557" lon="10.553289286532015"><ele>72.0</ele><time>2026-04-12T13:59:21Z</time></trkpt><trkpt lat="45.46387040333995" lon="10.553121623248732"><ele>72.5</ele><time>2026-04-12T13:59:22Z</time></trkpt><trkpt lat="45.46393486958222" lon="10.552962840230013"><ele>73.0</ele><time>2026-04-12T13:59:23Z</time></trkpt><trkpt lat="45.463992233103816" lon="10.55281360100523"><ele>73.0</ele><time>2026-04-12T13:59:24Z</time></trkpt><trkpt lat="45.464049717642176" lon="10.552667257284616"><ele>73.0</ele><time>2026-04-12T13:59:25Z</time></trkpt><trkpt lat="45.46410305693474" lon="10.552524713517618"><ele>73.0</ele><time>2026-04-12T13:59:26Z</time></trkpt><trkpt lat="45.464155605320826" lon="10.552371348066941"><ele>73.0</ele><time>2026-04-12T13:59:27Z</time></trkpt><trkpt lat="45.46421413358034" lon="10.552216163970344"><ele>73.0</ele><time>2026-04-12T13:59:28Z</time></trkpt><trkpt lat="45.464287366840665" lon="10.552060254102738"><ele>73.0</ele><time>2026-04-12T13:59:29Z</time></trkpt><trkpt lat="45.46436169544561" lon="10.551917369226523"><ele>73.0</ele><time>2026-04-12T13:59:30Z</time></trkpt><trkpt lat="45.464459113675694" lon="10.551767206160886"><ele>73.0</ele><time>2026-04-12T13:59:31Z</time></trkpt><trkpt lat="45.46455898041893" lon="10.55161260319584"><ele>72.66666666666666</ele><time>2026-04-12T13:59:32Z</time></trkpt><trkpt lat="45.46466123896966" lon="10.551447527536803"><ele>72.33333333333333</ele><time>2026-04-12T13:59:33Z</time></trkpt><trkpt lat="45.464769942774886" lon="10.551280712366852"><ele>72.0</ele><time>2026-04-12T13:59:34Z</time></trkpt><trkpt lat="45.46487168828604" lon="10.551101484456947"><ele>72.0</ele><time>2026-04-12T13:59:35Z</time></trkpt><trkpt lat="45.46497579869137" lon="10.550937136926002"><ele>72.0</ele><time>2026-04-12T13:59:36Z</time></trkpt><trkpt lat="45.46508145379866" lon="10.55076648097657"><ele>72.0</ele><time>2026-04-12T13:59:37Z</time></trkpt><trkpt lat="45.46518084886234" lon="10.550597642166677"><ele>72.0</ele><time>2026-04-12T13:59:38Z</time></trkpt><trkpt lat="45.46527911883715" lon="10.550432475114992"><ele>72.0</ele><time>2026-04-12T13:59:39Z</time></trkpt><trkpt lat="45.465373169063135" lon="10.550282093808166"><ele>72.0</ele><time>2026-04-12T13:59:40Z</time></trkpt><trkpt lat="45.465456372328426" lon="10.550125502464793"><ele>72.0</ele><time>2026-04-12T13:59:41Z</time></trkpt><trkpt lat="45.465534807156914" lon="10.549967397120648"><ele>71.75</ele><time>2026-04-12T13:59:42Z</time></trkpt><trkpt lat="45.46560333894785" lon="10.549815205894909"><ele>71.5</ele><time>2026-04-12T13:59:43Z</time></trkpt><trkpt lat="45.465671162935585" lon="10.549659983753994"><ele>71.25</ele><time>2026-04-12T13:59:44Z</time></trkpt><trkpt lat="45.46574411606826" lon="10.5494993989562"><ele>71.0</ele><time>2026-04-12T13:59:45Z</time></trkpt><trkpt lat="45.465804578365926" lon="10.549343652585788"><ele>71.2</ele><time>2026-04-12T13:59:46Z</time></trkpt><trkpt lat="45.465864127194855" lon="10.54920143722801"><ele>71.39999999999999</ele><time>2026-04-12T13:59:47Z</time></trkpt><trkpt lat="45.46592182986152" lon="10.549068440291189"><ele>71.6</ele><time>2026-04-12T13:59:48Z</time></trkpt><trkpt lat="45.46597468532612" lon="10.54893894413227"><ele>71.8</ele><time>2026-04-12T13:59:49Z</time></trkpt><trkpt lat="45.46602357643205" lon="10.548815717563764"><ele>72.0</ele><time>2026-04-12T13:59:50Z</time></trkpt><trkpt lat="45.46606885898102" lon="10.54869550857592"><ele>72.0</ele><time>2026-04-12T13:59:51Z</time></trkpt><trkpt lat="45.46611716650463" lon="10.548566689664042"><ele>72.0</ele><time>2026-04-12T13:59:52Z</time></trkpt><trkpt lat="45.46615850657141" lon="10.54843227474782"><ele>72.0</ele><time>2026-04-12T13:59:53Z</time></trkpt><trkpt lat="45.46619898014576" lon="10.548298438923663"><ele>72.0</ele><time>2026-04-12T13:59:54Z</time></trkpt><trkpt lat="45.4662439574952" lon="10.54815930157953"><ele>72.0</ele><time>2026-04-12T13:59:55Z</time></trkpt><trkpt lat="45.46628700117885" lon="10.548023869522181"><ele>72.0</ele><time>2026-04-12T13:59:56Z</time></trkpt><trkpt lat="45.46632754017014" lon="10.547896097075894"><ele>72.0</ele><time>2026-04-12T13:59:57Z</time></trkpt><trkpt lat="45.46636175861564" lon="10.547791340637945"><ele>72.0</ele><time>2026-04-12T13:59:58Z</time></trkpt><trkpt lat="45.466390870701304" lon="10.547708478018729"><ele>72.0</ele><time>2026-04-12T13:59:59Z</time></trkpt><trkpt lat="45.46644210474473" lon="10.547549361091011"><ele>72.0</ele><time>2026-04-12T14:00:01Z</time></trkpt><trkpt lat="45.4664881547431" lon="10.54739880586776"><ele>72.0</ele><time>2026-04-12T14:00:03Z</time></trkpt><trkpt lat="45.466534099330666" lon="10.547262806338683"><ele>72.0</ele><time>2026-04-12T14:00:05.001Z</time></trkpt><trkpt lat="45.46658459843163" lon="10.547106965279726"><ele>72.0</ele><time>2026-04-12T14:00:07.001Z</time></trkpt><trkpt lat="45.46663392055516" lon="10.546935023826912"><ele>72.0</ele><time>2026-04-12T14:00:09.001Z</time></trkpt><trkpt lat="45.46666079867203" lon="10.546839948061779"><ele>72.0</ele><time>2026-04-12T14:00:10.001Z</time></trkpt><trkpt lat="45.466699190420876" lon="10.546732987580118"><ele>72.16666666666667</ele><time>2026-04-12T14:00:11.001Z</time></trkpt><trkpt lat="45.46673453086807" lon="10.546622255589638"><ele>72.33333333333333</ele><time>2026-04-12T14:00:12.001Z</time></trkpt><trkpt lat="45.466776979767296" lon="10.54651135323891"><ele>72.5</ele><time>2026-04-12T14:00:13.001Z</time></trkpt><trkpt lat="45.466817741889514" lon="10.546397109417974"><ele>72.66666666666666</ele><time>2026-04-12T14:00:14.001Z</time></trkpt><trkpt lat="45.46685771440937" lon="10.546297749410758"><ele>72.83333333333333</ele><time>2026-04-12T14:00:15.001Z</time></trkpt><trkpt lat="45.466896506710796" lon="10.54619492166549"><ele>73.0</ele><time>2026-04-12T14:00:16.001Z</time></trkpt><trkpt lat="45.466929612300405" lon="10.546102038450254"><ele>72.66666666666666</ele><time>2026-04-12T14:00:17.001Z</time></trkpt><trkpt lat="45.46697052320605" lon="10.545967724398455"><ele>72.33333333333333</ele><time>2026-04-12T14:00:19.001Z</time></trkpt><trkpt lat="45.46698726398918" lon="10.545867322950306"><ele>72.0</ele><time>2026-04-12T14:00:23.001Z</time></trkpt><trkpt lat="45.46700281126615" lon="10.545751983685381"><ele>71.66666666666667</ele><time>2026-04-12T14:00:25.001Z</time></trkpt><trkpt lat="45.46704027622887" lon="10.54567289854039"><ele>71.33333333333334</ele><time>2026-04-12T14:00:27.001Z</time></trkpt><trkpt lat="45.467116832862146" lon="10.545714506964671"><ele>71.0</ele><time>2026-04-12T14:00:32.001Z</time></trkpt><trkpt lat="45.467178071168526" lon="10.545759094486764"><ele>70.66666666666667</ele><time>2026-04-12T14:00:35.001Z</time></trkpt><trkpt lat="45.46723347768533" lon="10.545805990996156"><ele>70.33333333333334</ele><time>2026-04-12T14:00:40Z</time></trkpt><trkpt lat="45.4672964220428" lon="10.545765495015102"><ele>70.0</ele><time>2026-04-12T14:00:41Z</time></trkpt><trkpt lat="45.46736155448832" lon="10.545673206897362"><ele>69.66666666666667</ele><time>2026-04-12T14:00:44Z</time></trkpt><trkpt lat="45.467423678779355" lon="10.545585427102854"><ele>69.33333333333333</ele><time>2026-04-12T14:00:47Z</time></trkpt><trkpt lat="45.46748377262983" lon="10.545483236860436"><ele>69.0</ele><time>2026-04-12T14:00:50Z</time></trkpt><trkpt lat="45.467551235978384" lon="10.545397630041512"><ele>69.16666666666667</ele><time>2026-04-12T14:00:53Z</time></trkpt><trkpt lat="45.46762041937283" lon="10.545304981758836"><ele>69.33333333333333</ele><time>2026-04-12T14:00:56Z</time></trkpt><trkpt lat="45.46769164832735" lon="10.545222747919766"><ele>69.5</ele><time>2026-04-12T14:00:59Z</time></trkpt><trkpt lat="45.46774766929827" lon="10.545137822403817"><ele>69.66666666666666</ele><time>2026-04-12T14:01:03Z</time></trkpt><trkpt lat="45.46779750802404" lon="10.545073375811976"><ele>69.83333333333333</ele><time>2026-04-12T14:01:08Z</time></trkpt><trkpt lat="45.467859368929936" lon="10.545046236061685"><ele>70.0</ele><time>2026-04-12T14:01:15Z</time></trkpt><trkpt lat="45.4678620993566" lon="10.544953356346332"><ele>70.0</ele><time>2026-04-12T14:09:02.001Z</time></trkpt><trkpt lat="45.46793811205376" lon="10.544903757567443"><ele>70.0</ele><time>2026-04-12T14:09:06.001Z</time></trkpt><trkpt lat="45.46800340654289" lon="10.544867399078397"><ele>70.0</ele><time>2026-04-12T14:09:16.001Z</time></trkpt><trkpt lat="45.46806448561368" lon="10.544839565276245"><ele>70.0</ele><time>2026-04-12T14:09:22Z</time></trkpt><trkpt lat="45.468128567818574" lon="10.544797861701214"><ele>70.0</ele><time>2026-04-12T14:09:30Z</time></trkpt><trkpt lat="45.4681861673152" lon="10.544756690376632"><ele>70.0</ele><time>2026-04-12T14:09:36Z</time></trkpt><trkpt lat="45.46823055737628" lon="10.544682518088539"><ele>70.0</ele><time>2026-04-12T14:09:42Z</time></trkpt><trkpt lat="45.46828721529006" lon="10.544721805299098"><ele>69.42857142857143</ele><time>2026-04-12T14:09:51Z</time></trkpt><trkpt lat="45.468327122585194" lon="10.54481481185904"><ele>68.85714285714286</ele><time>2026-04-12T14:09:59Z</time></trkpt><trkpt lat="45.46839374245563" lon="10.544828628167458"><ele>68.28571428571428</ele><time>2026-04-12T14:10:08Z</time></trkpt><trkpt lat="45.46845545384404" lon="10.54480238829317"><ele>67.71428571428572</ele><time>2026-04-12T14:10:14Z</time></trkpt><trkpt lat="45.46851289976201" lon="10.544753046236938"><ele>67.14285714285714</ele><time>2026-04-12T14:10:20Z</time></trkpt><trkpt lat="45.46857192010577" lon="10.54470695166736"><ele>66.57142857142857</ele><time>2026-04-12T14:10:27Z</time></trkpt><trkpt lat="45.46863127271379" lon="10.544674074888844"><ele>66.0</ele><time>2026-04-12T14:10:33Z</time></trkpt><trkpt lat="45.46869473079759" lon="10.544657979677513"><ele>66.0</ele><time>2026-04-12T14:10:41Z</time></trkpt><trkpt lat="45.46875605480924" lon="10.544620894084781"><ele>66.0</ele><time>2026-04-12T14:10:47Z</time></trkpt><trkpt lat="45.46881489816702" lon="10.544584134756981"><ele>66.0</ele><time>2026-04-12T14:10:53Z</time></trkpt><trkpt lat="45.46887533893152" lon="10.544551033978388"><ele>66.0</ele><time>2026-04-12T14:10:59Z</time></trkpt><trkpt lat="45.46893367718959" lon="10.544502113942896"><ele>66.0</ele><time>2026-04-12T14:11:05Z</time></trkpt><trkpt lat="45.46899476666582" lon="10.544459176310335"><ele>66.0</ele><time>2026-04-12T14:11:11.001Z</time></trkpt><trkpt lat="45.469048529275554" lon="10.54439824998638"><ele>66.0</ele><time>2026-04-12T14:11:18.001Z</time></trkpt><trkpt lat="45.46902258785001" lon="10.54430835519673"><ele>65.85714285714286</ele><time>2026-04-12T14:11:25Z</time></trkpt><trkpt lat="45.46895342794359" lon="10.544299959428953"><ele>65.71428571428572</ele><time>2026-04-12T14:11:31Z</time></trkpt><trkpt lat="45.468893419935235" lon="10.544240286401203"><ele>65.57142857142858</ele><time>2026-04-12T14:12:03Z</time></trkpt><trkpt lat="45.468845846289696" lon="10.544176295654854"><ele>65.42857142857143</ele><time>2026-04-12T14:12:08Z</time></trkpt><trkpt lat="45.46883271417026" lon="10.544072369471518"><ele>65.28571428571429</ele><time>2026-04-12T14:12:17Z</time></trkpt><trkpt lat="45.468770858180555" lon="10.544030984932458"><ele>65.14285714285715</ele><time>2026-04-12T14:12:24Z</time></trkpt><trkpt lat="45.46874637909379" lon="10.54393490709643"><ele>65.0</ele><time>2026-04-12T14:12:35Z</time></trkpt><trkpt lat="45.46870862325617" lon="10.543833549245464"><ele>65.71428571428572</ele><time>2026-04-12T14:12:55Z</time></trkpt><trkpt lat="45.46864875663645" lon="10.543762807759014"><ele>66.42857142857143</ele><time>2026-04-12T14:13:02Z</time></trkpt><trkpt lat="45.46858883203343" lon="10.543717126955032"><ele>67.14285714285714</ele><time>2026-04-12T14:13:08Z</time></trkpt><trkpt lat="45.46857456589124" lon="10.543615513414206"><ele>67.85714285714286</ele><time>2026-04-12T14:13:16.001Z</time></trkpt><trkpt lat="45.46858915436858" lon="10.5435239772761"><ele>68.57142857142857</ele><time>2026-04-12T14:13:23.001Z</time></trkpt><trkpt lat="45.46862010878161" lon="10.543443702872379"><ele>69.28571428571429</ele><time>2026-04-12T14:13:30Z</time></trkpt><trkpt lat="45.468647387190344" lon="10.543361286423275"><ele>70.0</ele><time>2026-04-12T14:13:36Z</time></trkpt><trkpt lat="45.46868068439002" lon="10.543271291929027"><ele>70.14285714285714</ele><time>2026-04-12T14:13:42Z</time></trkpt><trkpt lat="45.468708049455635" lon="10.543183801029295"><ele>70.28571428571428</ele><time>2026-04-12T14:13:48Z</time></trkpt><trkpt lat="45.46872709373632" lon="10.543085852721905"><ele>70.42857142857143</ele><time>2026-04-12T14:13:54Z</time></trkpt><trkpt lat="45.46873335354804" lon="10.54298953888676"><ele>70.57142857142857</ele><time>2026-04-12T14:14:00Z</time></trkpt><trkpt lat="45.46874297218244" lon="10.542893359176444"><ele>70.71428571428571</ele><time>2026-04-12T14:14:06Z</time></trkpt><trkpt lat="45.46874835707381" lon="10.542799696093352"><ele>70.85714285714286</ele><time>2026-04-12T14:14:12Z</time></trkpt><trkpt lat="45.468763379752076" lon="10.542712120255203"><ele>71.0</ele><time>2026-04-12T14:14:19Z</time></trkpt><trkpt lat="45.46880165311085" lon="10.542634385728714"><ele>70.42857142857143</ele><time>2026-04-12T14:14:25Z</time></trkpt><trkpt lat="45.46883699153899" lon="10.542543002429241"><ele>69.85714285714285</ele><time>2026-04-12T14:14:32Z</time></trkpt><trkpt lat="45.46888445901136" lon="10.542479482380708"><ele>69.28571428571428</ele><time>2026-04-12T14:14:38Z</time></trkpt><trkpt lat="45.46894258140047" lon="10.542430983583321"><ele>68.71428571428571</ele><time>2026-04-12T14:14:44Z</time></trkpt><trkpt lat="45.46898168903921" lon="10.542351249197058"><ele>68.14285714285714</ele><time>2026-04-12T14:14:50Z</time></trkpt><trkpt lat="45.46899939033763" lon="10.542261698975073"><ele>67.57142857142857</ele><time>2026-04-12T14:14:56Z</time></trkpt><trkpt lat="45.469032318034266" lon="10.542175183464996"><ele>67.0</ele><time>2026-04-12T14:15:02Z</time></trkpt><trkpt lat="45.46906581222511" lon="10.542089847077168"><ele>67.42857142857143</ele><time>2026-04-12T14:15:11Z</time></trkpt><trkpt lat="45.469109684298246" lon="10.542024297894324"><ele>67.85714285714286</ele><time>2026-04-12T14:15:16Z</time></trkpt><trkpt lat="45.46915020806552" lon="10.54193657223251"><ele>68.28571428571428</ele><time>2026-04-12T14:15:23Z</time></trkpt><trkpt lat="45.469148958559416" lon="10.541845813589848"><ele>68.71428571428572</ele><time>2026-04-12T14:15:31Z</time></trkpt><trkpt lat="45.46911408647372" lon="10.541755574297602"><ele>69.14285714285714</ele><time>2026-04-12T14:15:38Z</time></trkpt><trkpt lat="45.46910766447258" lon="10.541662676276395"><ele>69.57142857142857</ele><time>2026-04-12T14:16:02Z</time></trkpt><trkpt lat="45.46906863024658" lon="10.54158529901672"><ele>70.0</ele><time>2026-04-12T14:16:15Z</time></trkpt><trkpt lat="45.46906915412552" lon="10.541701155607523"><ele>70.0</ele><time>2026-04-12T14:16:24Z</time></trkpt><trkpt lat="45.46903451010159" lon="10.541790718228986"><ele>70.0</ele><time>2026-04-12T14:16:30Z</time></trkpt><trkpt lat="45.46896664358539" lon="10.541711602519584"><ele>70.0</ele><time>2026-04-12T14:17:09Z</time></trkpt><trkpt lat="45.46887076735719" lon="10.541687084993312"><ele>70.0</ele><time>2026-04-12T14:17:14Z</time></trkpt><trkpt lat="45.46851532072364" lon="10.54193068296699"><ele>70.0</ele><time>2026-04-12T14:17:15Z</time></trkpt><trkpt lat="45.46910279368074" lon="10.541790812276538"><ele>70.0</ele><time>2026-04-12T14:17:41Z</time></trkpt><trkpt lat="45.46915852205071" lon="10.541732910650293"><ele>70.0</ele><time>2026-04-12T14:18:16Z</time></trkpt><trkpt lat="45.46921826274185" lon="10.541673116284853"><ele>70.0</ele><time>2026-04-12T14:18:19Z</time></trkpt><trkpt lat="45.46935587113625" lon="10.541669668881726"><ele>70.0</ele><time>2026-04-12T14:18:31Z</time></trkpt><trkpt lat="45.46934937847545" lon="10.541571134705553"><ele>70.0</ele><time>2026-04-12T14:18:33Z</time></trkpt><trkpt lat="45.46940839743886" lon="10.541486730748877"><ele>70.0</ele><time>2026-04-12T14:18:35Z</time></trkpt><trkpt lat="45.469365628898785" lon="10.541606694321404"><ele>70.0</ele><time>2026-04-12T14:18:37Z</time></trkpt><trkpt lat="45.46930614875453" lon="10.541648592815621"><ele>70.0</ele><time>2026-04-12T14:18:39Z</time></trkpt><trkpt lat="45.46925802133867" lon="10.541535890163406"><ele>70.0</ele><time>2026-04-12T14:18:45Z</time></trkpt><trkpt lat="45.4688997901172" lon="10.541757068029524"><ele>70.0</ele><time>2026-04-12T14:18:47Z</time></trkpt><trkpt lat="45.46906577843168" lon="10.54181249238725"><ele>70.0</ele><time>2026-04-12T14:18:55Z</time></trkpt><trkpt lat="45.469105236928435" lon="10.541726833713312"><ele>70.0</ele><time>2026-04-12T14:19:52Z</time></trkpt><trkpt lat="45.469160809429845" lon="10.541668266805242"><ele>70.0</ele><time>2026-04-12T14:19:56Z</time></trkpt><trkpt lat="45.46930187880365" lon="10.541570466980486"><ele>70.0</ele><time>2026-04-12T14:20:14Z</time></trkpt><trkpt lat="45.46935496403914" lon="10.541501738765463"><ele>70.0</ele><time>2026-04-12T14:20:22Z</time></trkpt><trkpt lat="45.46939939042758" lon="10.541437844822543"><ele>70.0</ele><time>2026-04-12T14:20:29Z</time></trkpt><trkpt lat="45.46945164601429" lon="10.54137630831238"><ele>70.0</ele><time>2026-04-12T14:20:37Z</time></trkpt><trkpt lat="45.46950670102081" lon="10.541316541881269"><ele>70.0</ele><time>2026-04-12T14:20:45Z</time></trkpt><trkpt lat="45.469549666574274" lon="10.54124338913168"><ele>70.0</ele><time>2026-04-12T14:20:55Z</time></trkpt><trkpt lat="45.46960392619469" lon="10.541176510266848"><ele>70.0</ele><time>2026-04-12T14:21:03Z</time></trkpt><trkpt lat="45.469639047573885" lon="10.541092317172597"><ele>69.85714285714286</ele><time>2026-04-12T14:21:14Z</time></trkpt><trkpt lat="45.46967402388513" lon="10.541004583146611"><ele>69.71428571428572</ele><time>2026-04-12T14:21:23Z</time></trkpt><trkpt lat="45.46969536855779" lon="10.540919798316587"><ele>69.57142857142857</ele><time>2026-04-12T14:21:32Z</time></trkpt><trkpt lat="45.4697253720788" lon="10.540838535036821"><ele>69.42857142857143</ele><time>2026-04-12T14:21:41Z</time></trkpt><trkpt lat="45.469780235790616" lon="10.540793026936377"><ele>69.28571428571429</ele><time>2026-04-12T14:21:49Z</time></trkpt><trkpt lat="45.46983070883289" lon="10.540857697047537"><ele>69.14285714285714</ele><time>2026-04-12T14:22:28Z</time></trkpt><trkpt lat="45.46987096832845" lon="10.540927327120489"><ele>69.0</ele><time>2026-04-12T14:22:36Z</time></trkpt><trkpt lat="45.46992633043503" lon="10.540974422103046"><ele>69.0</ele><time>2026-04-12T14:22:45Z</time></trkpt><trkpt lat="45.46998294981701" lon="10.541016144937295"><ele>69.0</ele><time>2026-04-12T14:22:56Z</time></trkpt><trkpt lat="45.47004649966674" lon="10.541039514961781"><ele>69.0</ele><time>2026-04-12T14:23:06Z</time></trkpt><trkpt lat="45.470102411934505" lon="10.5409942098244"><ele>69.0</ele><time>2026-04-12T14:23:14Z</time></trkpt><trkpt lat="45.47016370530971" lon="10.540956091098362"><ele>69.0</ele><time>2026-04-12T14:23:23Z</time></trkpt><trkpt lat="45.47022560870833" lon="10.541004115207764"><ele>69.0</ele><time>2026-04-12T14:23:36Z</time></trkpt><trkpt lat="45.470290040515074" lon="10.541008404249652"><ele>69.0</ele><time>2026-04-12T14:23:43Z</time></trkpt><trkpt lat="45.47035333985186" lon="10.540994620942914"><ele>69.0</ele><time>2026-04-12T14:23:49Z</time></trkpt><trkpt lat="45.47041900742533" lon="10.54099304222681"><ele>69.0</ele><time>2026-04-12T14:23:56Z</time></trkpt><trkpt lat="45.470489798499365" lon="10.54097642768429"><ele>69.0</ele><time>2026-04-12T14:24:04Z</time></trkpt><trkpt lat="45.47056308693526" lon="10.540970933661171"><ele>69.0</ele><time>2026-04-12T14:24:11Z</time></trkpt><trkpt lat="45.47063353705975" lon="10.540975271991433"><ele>69.0</ele><time>2026-04-12T14:24:19Z</time></trkpt><trkpt lat="45.470701356516244" lon="10.540977915674699"><ele>69.0</ele><time>2026-04-12T14:24:26Z</time></trkpt><trkpt lat="45.470765508897436" lon="10.540985962691067"><ele>69.0</ele><time>2026-04-12T14:24:34Z</time></trkpt><trkpt lat="45.47083799846088" lon="10.54097765050559"><ele>69.0</ele><time>2026-04-12T14:24:43Z</time></trkpt><trkpt lat="45.47090938598585" lon="10.540995083338386"><ele>69.0</ele><time>2026-04-12T14:24:57Z</time></trkpt><trkpt lat="45.47097620712105" lon="10.54098876974759"><ele>69.0</ele><time>2026-04-12T14:25:22Z</time></trkpt><trkpt lat="45.471037666222514" lon="10.541018683563099"><ele>69.0</ele><time>2026-04-12T14:25:32Z</time></trkpt><trkpt lat="45.47110224818608" lon="10.541026234134137"><ele>69.0</ele><time>2026-04-12T14:25:41Z</time></trkpt><trkpt lat="45.47116838183434" lon="10.54102904534627"><ele>69.0</ele><time>2026-04-12T14:25:48Z</time></trkpt><trkpt lat="45.47114203012303" lon="10.54111206754105"><ele>69.0</ele><time>2026-04-12T14:26:08Z</time></trkpt><trkpt lat="45.47108335886734" lon="10.541168171942175"><ele>69.0</ele><time>2026-04-12T14:26:19Z</time></trkpt><trkpt lat="45.47103577334542" lon="10.541232012309962"><ele>69.0</ele><time>2026-04-12T14:26:27Z</time></trkpt><trkpt lat="45.471089505122066" lon="10.541171880508442"><ele>69.0</ele><time>2026-04-12T14:27:12Z</time></trkpt><trkpt lat="45.47103223579467" lon="10.541210140526557"><ele>69.0</ele><time>2026-04-12T14:27:27Z</time></trkpt><trkpt lat="45.47090964366878" lon="10.541165750516905"><ele>69.0</ele><time>2026-04-12T14:29:46Z</time></trkpt><trkpt lat="45.4709959067642" lon="10.541202315068118"><ele>69.0</ele><time>2026-04-12T14:31:05Z</time></trkpt><trkpt lat="45.47109987525289" lon="10.54120047846468"><ele>69.0</ele><time>2026-04-12T14:35:00Z</time></trkpt><trkpt lat="45.47115508049398" lon="10.541132732967988"><ele>69.0</ele><time>2026-04-12T14:35:07Z</time></trkpt><trkpt lat="45.4712231485755" lon="10.541068208071746"><ele>69.0</ele><time>2026-04-12T14:35:20Z</time></trkpt><trkpt lat="45.471173120971685" lon="10.541005669335034"><ele>69.0</ele><time>2026-04-12T14:35:28Z</time></trkpt><trkpt lat="45.47111008266236" lon="10.540962703515143"><ele>69.0</ele><time>2026-04-12T14:35:34Z</time></trkpt><trkpt lat="45.47104597185342" lon="10.540960383440575"><ele>69.0</ele><time>2026-04-12T14:35:41Z</time></trkpt><trkpt lat="45.47097676936402" lon="10.540946172247496"><ele>69.0</ele><time>2026-04-12T14:35:48Z</time></trkpt><trkpt lat="45.470912558395035" lon="10.540927251599582"><ele>69.0</ele><time>2026-04-12T14:35:54Z</time></trkpt><trkpt lat="45.47084570677937" lon="10.540915303357329"><ele>69.0</ele><time>2026-04-12T14:36:01Z</time></trkpt><trkpt lat="45.47077635515084" lon="10.540931654630493"><ele>69.0</ele><time>2026-04-12T14:36:09Z</time></trkpt><trkpt lat="45.47070517910226" lon="10.540926787093797"><ele>69.0</ele><time>2026-04-12T14:36:17Z</time></trkpt><trkpt lat="45.47063057297665" lon="10.540918387014168"><ele>69.0</ele><time>2026-04-12T14:36:23.999Z</time></trkpt><trkpt lat="45.47056360011299" lon="10.540892750210846"><ele>69.0</ele><time>2026-04-12T14:36:30.999Z</time></trkpt><trkpt lat="45.47049804735573" lon="10.540861247857546"><ele>69.0</ele><time>2026-04-12T14:36:36.999Z</time></trkpt><trkpt lat="45.47043242473378" lon="10.540840749614803"><ele>69.0</ele><time>2026-04-12T14:36:42.999Z</time></trkpt><trkpt lat="45.470362938786316" lon="10.540872106083347"><ele>69.0</ele><time>2026-04-12T14:36:49Z</time></trkpt><trkpt lat="45.47030994541667" lon="10.540823016170416"><ele>69.0</ele><time>2026-04-12T14:36:55Z</time></trkpt><trkpt lat="45.4702389667891" lon="10.54084632844395"><ele>69.0</ele><time>2026-04-12T14:37:02Z</time></trkpt><trkpt lat="45.47017549099531" lon="10.540820067053753"><ele>69.0</ele><time>2026-04-12T14:37:07Z</time></trkpt><trkpt lat="45.47011237560439" lon="10.540836042663802"><ele>69.0</ele><time>2026-04-12T14:37:14Z</time></trkpt><trkpt lat="45.470057371889546" lon="10.54090377304767"><ele>69.0</ele><time>2026-04-12T14:37:25Z</time></trkpt><trkpt lat="45.47001800719661" lon="10.540974737294684"><ele>69.0</ele><time>2026-04-12T14:37:33Z</time></trkpt><trkpt lat="45.46995913620402" lon="10.54102374258955"><ele>69.0</ele><time>2026-04-12T14:37:42Z</time></trkpt><trkpt lat="45.46990688489727" lon="10.541086181004138"><ele>69.0</ele><time>2026-04-12T14:37:51Z</time></trkpt><trkpt lat="45.46983741162765" lon="10.541132636422775"><ele>69.0</ele><time>2026-04-12T14:38:00Z</time></trkpt><trkpt lat="45.469772970926655" lon="10.541088570734695"><ele>69.0</ele><time>2026-04-12T14:38:10Z</time></trkpt><trkpt lat="45.469710209500946" lon="10.54105875500624"><ele>69.0</ele><time>2026-04-12T14:38:19Z</time></trkpt><trkpt lat="45.46963715950668" lon="10.541031038482013"><ele>69.0</ele><time>2026-04-12T14:38:26Z</time></trkpt><trkpt lat="45.46957073299643" lon="10.541061284870493"><ele>69.14285714285714</ele><time>2026-04-12T14:38:32Z</time></trkpt><trkpt lat="45.46951596819922" lon="10.541115622374136"><ele>69.28571428571429</ele><time>2026-04-12T14:38:38Z</time></trkpt><trkpt lat="45.469472918870814" lon="10.541194547732854"><ele>69.42857142857143</ele><time>2026-04-12T14:38:46Z</time></trkpt><trkpt lat="45.46942329768437" lon="10.541262574200653"><ele>69.57142857142857</ele><time>2026-04-12T14:38:53Z</time></trkpt><trkpt lat="45.46936558692397" lon="10.541316004767793"><ele>69.71428571428572</ele><time>2026-04-12T14:39:01Z</time></trkpt><trkpt lat="45.46932463718694" lon="10.54138607505696"><ele>69.85714285714286</ele><time>2026-04-12T14:39:11Z</time></trkpt><trkpt lat="45.46930179603641" lon="10.541481689508865"><ele>70.0</ele><time>2026-04-12T14:39:19Z</time></trkpt><trkpt lat="45.46925545235254" lon="10.54154701678199"><ele>70.0</ele><time>2026-04-12T14:39:26Z</time></trkpt><trkpt lat="45.46926878464908" lon="10.541639672526141"><ele>70.0</ele><time>2026-04-12T14:39:32Z</time></trkpt><trkpt lat="45.46928406899908" lon="10.541732956866115"><ele>70.0</ele><time>2026-04-12T14:39:40Z</time></trkpt><trkpt lat="45.469273554244616" lon="10.541824874236703"><ele>70.0</ele><time>2026-04-12T14:39:48Z</time></trkpt><trkpt lat="45.46922193802048" lon="10.541890793046027"><ele>70.0</ele><time>2026-04-12T14:39:59Z</time></trkpt><trkpt lat="45.469157051371624" lon="10.541930475838155"><ele>70.0</ele><time>2026-04-12T14:40:04Z</time></trkpt><trkpt lat="45.46910822247957" lon="10.541998849827204"><ele>70.0</ele><time>2026-04-12T14:40:10Z</time></trkpt><trkpt lat="45.46906963611347" lon="10.542081936975594"><ele>69.57142857142857</ele><time>2026-04-12T14:40:16Z</time></trkpt><trkpt lat="45.4690973699701" lon="10.542182812966619"><ele>69.14285714285714</ele><time>2026-04-12T14:40:21Z</time></trkpt><trkpt lat="45.469125264195654" lon="10.54229304231996"><ele>68.71428571428572</ele><time>2026-04-12T14:40:27Z</time></trkpt><trkpt lat="45.46908404671551" lon="10.542378957760423"><ele>68.28571428571428</ele><time>2026-04-12T14:40:37Z</time></trkpt><trkpt lat="45.469109763272954" lon="10.542463642927382"><ele>67.85714285714286</ele><time>2026-04-12T14:40:44Z</time></trkpt><trkpt lat="45.46906745307753" lon="10.542559510420572"><ele>67.42857142857143</ele><time>2026-04-12T14:40:51Z</time></trkpt><trkpt lat="45.46903746665627" lon="10.54263873325103"><ele>67.0</ele><time>2026-04-12T14:41:00Z</time></trkpt><trkpt lat="45.46899837440314" lon="10.542728411128946"><ele>67.0</ele><time>2026-04-12T14:41:06Z</time></trkpt><trkpt lat="45.46894463001634" lon="10.542808132942257"><ele>67.0</ele><time>2026-04-12T14:41:12Z</time></trkpt><trkpt lat="45.4688969658442" lon="10.542917219322568"><ele>67.0</ele><time>2026-04-12T14:41:19Z</time></trkpt><trkpt lat="45.46885579594757" lon="10.54301550090266"><ele>67.0</ele><time>2026-04-12T14:41:29Z</time></trkpt><trkpt lat="45.4688488326602" lon="10.54313730538073"><ele>67.0</ele><time>2026-04-12T14:41:39Z</time></trkpt><trkpt lat="45.468803770866884" lon="10.543220935891846"><ele>67.0</ele><time>2026-04-12T14:41:48Z</time></trkpt><trkpt lat="45.46877894631736" lon="10.543307059084857"><ele>67.42857142857143</ele><time>2026-04-12T14:41:57Z</time></trkpt><trkpt lat="45.46875715289238" lon="10.543420084794937"><ele>67.85714285714286</ele><time>2026-04-12T14:42:02Z</time></trkpt><trkpt lat="45.468724800886264" lon="10.54349775144156"><ele>68.28571428571428</ele><time>2026-04-12T14:42:10Z</time></trkpt><trkpt lat="45.46870684568439" lon="10.543585337671159"><ele>68.71428571428572</ele><time>2026-04-12T14:42:16Z</time></trkpt><trkpt lat="45.46867022888589" lon="10.543662516176491"><ele>69.14285714285714</ele><time>2026-04-12T14:42:22Z</time></trkpt><trkpt lat="45.46864251589287" lon="10.543748570074513"><ele>69.57142857142857</ele><time>2026-04-12T14:42:28Z</time></trkpt><trkpt lat="45.468667692544734" lon="10.543852061530686"><ele>70.0</ele><time>2026-04-12T14:42:34Z</time></trkpt><trkpt lat="45.46872284129447" lon="10.54390998611469"><ele>70.0</ele><time>2026-04-12T14:42:40.001Z</time></trkpt><trkpt lat="45.46871865650838" lon="10.544023558451661"><ele>70.0</ele><time>2026-04-12T14:42:46Z</time></trkpt><trkpt lat="45.46875412933952" lon="10.544105109233747"><ele>70.0</ele><time>2026-04-12T14:42:55Z</time></trkpt><trkpt lat="45.468810863972145" lon="10.544147831658067"><ele>70.0</ele><time>2026-04-12T14:43:01Z</time></trkpt><trkpt lat="45.46883807618883" lon="10.544231356661237"><ele>70.0</ele><time>2026-04-12T14:43:09Z</time></trkpt><trkpt lat="45.46887531075924" lon="10.544310497374017"><ele>70.0</ele><time>2026-04-12T14:43:16Z</time></trkpt><trkpt lat="45.46894020242078" lon="10.544325834098895"><ele>70.0</ele><time>2026-04-12T14:43:22Z</time></trkpt><trkpt lat="45.469008159944615" lon="10.544330350095224"><ele>69.42857142857143</ele><time>2026-04-12T14:43:30Z</time></trkpt><trkpt lat="45.469041689948554" lon="10.544412476647356"><ele>68.85714285714286</ele><time>2026-04-12T14:43:38Z</time></trkpt><trkpt lat="45.46898757595597" lon="10.544467677663219"><ele>68.28571428571428</ele><time>2026-04-12T14:43:46Z</time></trkpt><trkpt lat="45.468923040722295" lon="10.544508545061504"><ele>67.71428571428572</ele><time>2026-04-12T14:43:53Z</time></trkpt><trkpt lat="45.46886467507171" lon="10.544545901903835"><ele>67.14285714285714</ele><time>2026-04-12T14:43:57Z</time></trkpt><trkpt lat="45.46879385395875" lon="10.544591434565987"><ele>66.57142857142857</ele><time>2026-04-12T14:44:05Z</time></trkpt><trkpt lat="45.46872719438956" lon="10.544622387798608"><ele>66.0</ele><time>2026-04-12T14:44:12Z</time></trkpt><trkpt lat="45.46865516281037" lon="10.54465555898748"><ele>66.0</ele><time>2026-04-12T14:44:21Z</time></trkpt><trkpt lat="45.46859997882528" lon="10.544719541152082"><ele>66.0</ele><time>2026-04-12T14:44:29Z</time></trkpt><trkpt lat="45.46854896286458" lon="10.544775993114243"><ele>66.0</ele><time>2026-04-12T14:44:53Z</time></trkpt><trkpt lat="45.468484971957714" lon="10.544787921892377"><ele>66.0</ele><time>2026-04-12T14:45:00Z</time></trkpt><trkpt lat="45.468426623561044" lon="10.544822624656977"><ele>66.0</ele><time>2026-04-12T14:45:06Z</time></trkpt><trkpt lat="45.46836606041172" lon="10.544862193416778"><ele>66.0</ele><time>2026-04-12T14:45:14Z</time></trkpt><trkpt lat="45.46830063405305" lon="10.544902141622929"><ele>66.0</ele><time>2026-04-12T14:45:20Z</time></trkpt><trkpt lat="45.46824374852821" lon="10.54494164651082"><ele>66.0</ele><time>2026-04-12T14:45:26Z</time></trkpt><trkpt lat="45.46816771935615" lon="10.544976297077548"><ele>66.0</ele><time>2026-04-12T14:45:35Z</time></trkpt><trkpt lat="45.46810616422654" lon="10.544995594245414"><ele>66.0</ele><time>2026-04-12T14:45:44Z</time></trkpt><trkpt lat="45.46803796176921" lon="10.544995491947988"><ele>66.0</ele><time>2026-04-12T14:45:50Z</time></trkpt><trkpt lat="45.467966500314624" lon="10.545018147698563"><ele>66.0</ele><time>2026-04-12T14:45:57Z</time></trkpt><trkpt lat="45.46790360210809" lon="10.544980239379482"><ele>66.0</ele><time>2026-04-12T14:46:07Z</time></trkpt><trkpt lat="45.46784044366653" lon="10.545038062600298"><ele>66.0</ele><time>2026-04-12T14:48:43Z</time></trkpt><trkpt lat="45.46780188773751" lon="10.545116261733217"><ele>66.42857142857143</ele><time>2026-04-12T14:57:18Z</time></trkpt><trkpt lat="45.46774988033937" lon="10.545168204089622"><ele>66.85714285714286</ele><time>2026-04-12T14:57:21.999Z</time></trkpt><trkpt lat="45.467676905887465" lon="10.545258197452334"><ele>67.28571428571429</ele><time>2026-04-12T14:57:24.999Z</time></trkpt><trkpt lat="45.4676154009662" lon="10.545327081280218"><ele>67.71428571428572</ele><time>2026-04-12T14:57:26.999Z</time></trkpt><trkpt lat="45.467560387644646" lon="10.545388434892818"><ele>68.14285714285715</ele><time>2026-04-12T14:57:28.999Z</time></trkpt><trkpt lat="45.467506633479395" lon="10.545449578054749"><ele>68.57142857142857</ele><time>2026-04-12T14:57:30.999Z</time></trkpt><trkpt lat="45.467455330498346" lon="10.545509403714824"><ele>69.0</ele><time>2026-04-12T14:57:32.999Z</time></trkpt><trkpt lat="45.46741141753287" lon="10.545589646764638"><ele>69.0</ele><time>2026-04-12T14:57:34.999Z</time></trkpt><trkpt lat="45.46736742084459" lon="10.545673040619809"><ele>69.0</ele><time>2026-04-12T14:57:36.999Z</time></trkpt><trkpt lat="45.46731780454422" lon="10.545740770154147"><ele>69.0</ele><time>2026-04-12T14:57:38.999Z</time></trkpt><trkpt lat="45.46726238847254" lon="10.545799722529871"><ele>69.0</ele><time>2026-04-12T14:57:40.999Z</time></trkpt><trkpt lat="45.467180094226194" lon="10.545761530089804"><ele>69.0</ele><time>2026-04-12T14:57:43.999Z</time></trkpt><trkpt lat="45.46711803526898" lon="10.54572544604543"><ele>69.0</ele><time>2026-04-12T14:57:45.999Z</time></trkpt><trkpt lat="45.46707459659938" lon="10.545607751493971"><ele>69.4</ele><time>2026-04-12T14:57:48.999Z</time></trkpt><trkpt lat="45.467042722924994" lon="10.545428185855945"><ele>69.80000000000001</ele><time>2026-04-12T14:57:50.999Z</time></trkpt><trkpt lat="45.467009655813" lon="10.545249716060066"><ele>70.19999999999999</ele><time>2026-04-12T14:57:53Z</time></trkpt><trkpt lat="45.46700225657351" lon="10.545144189958975"><ele>70.6</ele><time>2026-04-12T14:57:54Z</time></trkpt><trkpt lat="45.466997928389404" lon="10.545034265520238"><ele>71.0</ele><time>2026-04-12T14:57:55Z</time></trkpt><trkpt lat="45.46698855268522" lon="10.544905094156789"><ele>71.25</ele><time>2026-04-12T14:57:56Z</time></trkpt><trkpt lat="45.46697455478124" lon="10.544767829442504"><ele>71.5</ele><time>2026-04-12T14:57:57Z</time></trkpt><trkpt lat="45.46696006518229" lon="10.544591646303106"><ele>71.75</ele><time>2026-04-12T14:57:58Z</time></trkpt><trkpt lat="45.46694147446156" lon="10.544403798648991"><ele>72.0</ele><time>2026-04-12T14:57:59Z</time></trkpt><trkpt lat="45.46691859237645" lon="10.544239581537616"><ele>72.2</ele><time>2026-04-12T14:58:00Z</time></trkpt><trkpt lat="45.46690627005343" lon="10.544098630289902"><ele>72.4</ele><time>2026-04-12T14:58:01Z</time></trkpt><trkpt lat="45.46690055806737" lon="10.543965074655793"><ele>72.6</ele><time>2026-04-12T14:58:02Z</time></trkpt><trkpt lat="45.466892015023895" lon="10.543849454697455"><ele>72.8</ele><time>2026-04-12T14:58:03Z</time></trkpt><trkpt lat="45.46688303004994" lon="10.543718213396843"><ele>73.0</ele><time>2026-04-12T14:58:04Z</time></trkpt><trkpt lat="45.466879240217715" lon="10.543590410865802"><ele>73.6</ele><time>2026-04-12T14:58:05Z</time></trkpt><trkpt lat="45.46686806904292" lon="10.543449311644153"><ele>74.19999999999999</ele><time>2026-04-12T14:58:06Z</time></trkpt><trkpt lat="45.46686385307817" lon="10.543307519674519"><ele>74.8</ele><time>2026-04-12T14:58:07Z</time></trkpt><trkpt lat="45.46686452230441" lon="10.5431666244201"><ele>75.39999999999999</ele><time>2026-04-12T14:58:08Z</time></trkpt><trkpt lat="45.466856003681436" lon="10.543022035409168"><ele>76.0</ele><time>2026-04-12T14:58:09Z</time></trkpt><trkpt lat="45.46685467035833" lon="10.542883982587444"><ele>76.0</ele><time>2026-04-12T14:58:10Z</time></trkpt><trkpt lat="45.46686159890235" lon="10.542751462419538"><ele>76.0</ele><time>2026-04-12T14:58:11Z</time></trkpt><trkpt lat="45.46686563345877" lon="10.542630626669164"><ele>76.0</ele><time>2026-04-12T14:58:12Z</time></trkpt><trkpt lat="45.46687060130072" lon="10.542515220344843"><ele>76.0</ele><time>2026-04-12T14:58:13Z</time></trkpt><trkpt lat="45.46687458786805" lon="10.542417670069703"><ele>76.0</ele><time>2026-04-12T14:58:14Z</time></trkpt><trkpt lat="45.46687867617377" lon="10.542269181610383"><ele>76.0</ele><time>2026-04-12T14:58:16Z</time></trkpt><trkpt lat="45.466885156916184" lon="10.542155990414976"><ele>76.0</ele><time>2026-04-12T14:58:18Z</time></trkpt><trkpt lat="45.46689899772538" lon="10.542038913107618"><ele>76.0</ele><time>2026-04-12T14:58:20Z</time></trkpt><trkpt lat="45.46691295742328" lon="10.541949375412063"><ele>76.0</ele><time>2026-04-12T14:58:22Z</time></trkpt><trkpt lat="45.466917279620375" lon="10.54182695183495"><ele>76.0</ele><time>2026-04-12T14:58:26Z</time></trkpt><trkpt lat="45.46690953705253" lon="10.541702936639089"><ele>76.0</ele><time>2026-04-12T14:58:28Z</time></trkpt><trkpt lat="45.466921864446" lon="10.541529773865017"><ele>76.0</ele><time>2026-04-12T14:58:30Z</time></trkpt><trkpt lat="45.46692813925962" lon="10.541438518128139"><ele>76.0</ele><time>2026-04-12T14:58:31Z</time></trkpt><trkpt lat="45.46693814167443" lon="10.541340035824241"><ele>76.0</ele><time>2026-04-12T14:58:32Z</time></trkpt><trkpt lat="45.466953829391024" lon="10.541230136335964"><ele>76.0</ele><time>2026-04-12T14:58:33Z</time></trkpt><trkpt lat="45.466971029918106" lon="10.541120976175703"><ele>76.0</ele><time>2026-04-12T14:58:34Z</time></trkpt><trkpt lat="45.46698746611465" lon="10.541013147133402"><ele>76.0</ele><time>2026-04-12T14:58:35Z</time></trkpt><trkpt lat="45.46700215774399" lon="10.54090680645679"><ele>76.0</ele><time>2026-04-12T14:58:36Z</time></trkpt><trkpt lat="45.46701707438275" lon="10.540799323014422"><ele>76.28571428571428</ele><time>2026-04-12T14:58:37Z</time></trkpt><trkpt lat="45.46703268747086" lon="10.540689760858625"><ele>76.57142857142858</ele><time>2026-04-12T14:58:38Z</time></trkpt><trkpt lat="45.46705623916465" lon="10.54058802902662"><ele>76.85714285714286</ele><time>2026-04-12T14:58:39Z</time></trkpt><trkpt lat="45.46707370736373" lon="10.540482894851996"><ele>77.14285714285714</ele><time>2026-04-12T14:58:40Z</time></trkpt><trkpt lat="45.467092598377164" lon="10.540377312444681"><ele>77.42857142857142</ele><time>2026-04-12T14:58:41Z</time></trkpt><trkpt lat="45.467113706485634" lon="10.540282023457051"><ele>77.71428571428572</ele><time>2026-04-12T14:58:42Z</time></trkpt><trkpt lat="45.467132929913994" lon="10.540187764908392"><ele>78.0</ele><time>2026-04-12T14:58:43Z</time></trkpt><trkpt lat="45.46716196015839" lon="10.540098701147935"><ele>78.4</ele><time>2026-04-12T14:58:44Z</time></trkpt><trkpt lat="45.46719037828882" lon="10.53994539082224"><ele>78.8</ele><time>2026-04-12T14:58:46Z</time></trkpt><trkpt lat="45.467225790718196" lon="10.539793994925065"><ele>79.2</ele><time>2026-04-12T14:58:48Z</time></trkpt><trkpt lat="45.46727327617893" lon="10.539627517908098"><ele>79.6</ele><time>2026-04-12T14:58:50Z</time></trkpt><trkpt lat="45.46730032883635" lon="10.539542794664673"><ele>80.0</ele><time>2026-04-12T14:58:51Z</time></trkpt><trkpt lat="45.46732688648522" lon="10.539447858120566"><ele>80.14285714285714</ele><time>2026-04-12T14:58:52Z</time></trkpt><trkpt lat="45.467355332491735" lon="10.539360232108972"><ele>80.28571428571429</ele><time>2026-04-12T14:58:53Z</time></trkpt><trkpt lat="45.467382616413566" lon="10.539267802687252"><ele>80.42857142857143</ele><time>2026-04-12T14:58:54Z</time></trkpt><trkpt lat="45.46741118792669" lon="10.539170678069887"><ele>80.57142857142857</ele><time>2026-04-12T14:58:55Z</time></trkpt><trkpt lat="45.46743725606824" lon="10.5390840712118"><ele>80.71428571428571</ele><time>2026-04-12T14:58:56Z</time></trkpt><trkpt lat="45.467465412386844" lon="10.538995877972438"><ele>80.85714285714286</ele><time>2026-04-12T14:58:57Z</time></trkpt><trkpt lat="45.46749505380616" lon="10.538916169278936"><ele>81.0</ele><time>2026-04-12T14:58:58Z</time></trkpt><trkpt lat="45.467522499090705" lon="10.538827811022346"><ele>81.83333333333333</ele><time>2026-04-12T14:58:59Z</time></trkpt><trkpt lat="45.46757527031597" lon="10.538685378379977"><ele>82.66666666666667</ele><time>2026-04-12T14:59:01Z</time></trkpt><trkpt lat="45.46761568708278" lon="10.538607195436725"><ele>83.5</ele><time>2026-04-12T14:59:03Z</time></trkpt><trkpt lat="45.46767090064408" lon="10.538514341831704"><ele>84.33333333333334</ele><time>2026-04-12T14:59:07Z</time></trkpt><trkpt lat="45.467723424255375" lon="10.538440995186313"><ele>85.16666666666667</ele><time>2026-04-12T14:59:09Z</time></trkpt><trkpt lat="45.46779001802345" lon="10.538375717200866"><ele>86.0</ele><time>2026-04-12T14:59:11Z</time></trkpt><trkpt lat="45.467819407582894" lon="10.538291054680167"><ele>86.0</ele><time>2026-04-12T14:59:13Z</time></trkpt><trkpt lat="45.46778425684223" lon="10.53820252165885"><ele>86.0</ele><time>2026-04-12T14:59:15Z</time></trkpt><trkpt lat="45.467777901991425" lon="10.538090012139683"><ele>86.0</ele><time>2026-04-12T14:59:17Z</time></trkpt><trkpt lat="45.46781651995259" lon="10.537970100969133"><ele>86.0</ele><time>2026-04-12T14:59:19Z</time></trkpt><trkpt lat="45.467869927844966" lon="10.537826973012614"><ele>86.0</ele><time>2026-04-12T14:59:21Z</time></trkpt><trkpt lat="45.467904208782436" lon="10.537734430471684"><ele>86.0</ele><time>2026-04-12T14:59:22Z</time></trkpt><trkpt lat="45.46793891495825" lon="10.537637931529579"><ele>85.83333333333334</ele><time>2026-04-12T14:59:23Z</time></trkpt><trkpt lat="45.46797373383634" lon="10.537547822696805"><ele>85.66666666666667</ele><time>2026-04-12T14:59:24Z</time></trkpt><trkpt lat="45.46802094919238" lon="10.53745851157536"><ele>85.5</ele><time>2026-04-12T14:59:25Z</time></trkpt><trkpt lat="45.46804354526127" lon="10.537343392190015"><ele>85.33333333333333</ele><time>2026-04-12T14:59:25.998Z</time></trkpt><trkpt lat="45.46808419427842" lon="10.537235173373382"><ele>85.16666666666666</ele><time>2026-04-12T14:59:26.998Z</time></trkpt><trkpt lat="45.46813085030984" lon="10.537122848508094"><ele>85.0</ele><time>2026-04-12T14:59:27.998Z</time></trkpt><trkpt lat="45.46817134797587" lon="10.53701472966844"><ele>85.28571428571429</ele><time>2026-04-12T14:59:28.998Z</time></trkpt><trkpt lat="45.46820387649041" lon="10.536910585784259"><ele>85.57142857142857</ele><time>2026-04-12T14:59:29.998Z</time></trkpt><trkpt lat="45.468236088956324" lon="10.536829247520888"><ele>85.85714285714286</ele><time>2026-04-12T14:59:30.998Z</time></trkpt><trkpt lat="45.46826415492518" lon="10.536745372664774"><ele>86.14285714285714</ele><time>2026-04-12T14:59:31.998Z</time></trkpt><trkpt lat="45.46829815807232" lon="10.53665815566004"><ele>86.42857142857143</ele><time>2026-04-12T14:59:32.998Z</time></trkpt><trkpt lat="45.46833119455249" lon="10.536568435655038"><ele>86.71428571428571</ele><time>2026-04-12T14:59:33.998Z</time></trkpt><trkpt lat="45.46836871360161" lon="10.536475829230216"><ele>87.0</ele><time>2026-04-12T14:59:34.998Z</time></trkpt><trkpt lat="45.468401982622076" lon="10.536384473642487"><ele>87.0</ele><time>2026-04-12T14:59:35.998Z</time></trkpt><trkpt lat="45.46843908339306" lon="10.5363022170985"><ele>87.0</ele><time>2026-04-12T14:59:36.998Z</time></trkpt><trkpt lat="45.46846725480799" lon="10.536206303786479"><ele>87.0</ele><time>2026-04-12T14:59:37.998Z</time></trkpt><trkpt lat="45.468519985738844" lon="10.536049965586214"><ele>87.0</ele><time>2026-04-12T14:59:39.998Z</time></trkpt><trkpt lat="45.46859015927376" lon="10.535908190815785"><ele>87.0</ele><time>2026-04-12T14:59:41.998Z</time></trkpt><trkpt lat="45.46860818430731" lon="10.535814172582013"><ele>87.39999999999999</ele><time>2026-04-12T14:59:42.998Z</time></trkpt><trkpt lat="45.46863937334881" lon="10.535730724747784"><ele>87.8</ele><time>2026-04-12T14:59:43.999Z</time></trkpt><trkpt lat="45.46868775902843" lon="10.535574336460463"><ele>88.2</ele><time>2026-04-12T14:59:45.999Z</time></trkpt><trkpt lat="45.46874610995194" lon="10.53542587947721"><ele>88.6</ele><time>2026-04-12T14:59:47.999Z</time></trkpt><trkpt lat="45.468797509269876" lon="10.535278206141756"><ele>89.0</ele><time>2026-04-12T14:59:49.999Z</time></trkpt><trkpt lat="45.46885442038425" lon="10.535122632166837"><ele>89.33333333333334</ele><time>2026-04-12T14:59:51.999Z</time></trkpt><trkpt lat="45.468884010216925" lon="10.535039052478034"><ele>89.66666666666667</ele><time>2026-04-12T14:59:52.999Z</time></trkpt><trkpt lat="45.46891660144722" lon="10.534942984457674"><ele>90.0</ele><time>2026-04-12T14:59:53.999Z</time></trkpt><trkpt lat="45.468952778856796" lon="10.534842529518905"><ele>90.33333333333333</ele><time>2026-04-12T14:59:54.999Z</time></trkpt><trkpt lat="45.46899324158826" lon="10.53473665327765"><ele>90.66666666666666</ele><time>2026-04-12T14:59:55.999Z</time></trkpt><trkpt lat="45.46902788519278" lon="10.53461049747724"><ele>91.0</ele><time>2026-04-12T14:59:56.999Z</time></trkpt><trkpt lat="45.46907185144427" lon="10.534493980275736"><ele>91.4</ele><time>2026-04-12T14:59:57.999Z</time></trkpt><trkpt lat="45.46911659408112" lon="10.534384951565505"><ele>91.8</ele><time>2026-04-12T14:59:58.999Z</time></trkpt><trkpt lat="45.46915190163253" lon="10.534246367468008"><ele>92.2</ele><time>2026-04-12T14:59:59.999Z</time></trkpt><trkpt lat="45.46918865753488" lon="10.534122970945338"><ele>92.60000000000001</ele><time>2026-04-12T15:00:00.999Z</time></trkpt><trkpt lat="45.46921983124514" lon="10.534014112280063"><ele>93.0</ele><time>2026-04-12T15:00:01.999Z</time></trkpt><trkpt lat="45.4692759216288" lon="10.533902721373888"><ele>93.0</ele><time>2026-04-12T15:00:02.999Z</time></trkpt><trkpt lat="45.46930008343883" lon="10.533770570556797"><ele>93.0</ele><time>2026-04-12T15:00:03.999Z</time></trkpt><trkpt lat="45.46934014366468" lon="10.533645446200284"><ele>93.0</ele><time>2026-04-12T15:00:04.999Z</time></trkpt><trkpt lat="45.46937956454282" lon="10.53351126840338"><ele>93.0</ele><time>2026-04-12T15:00:05.999Z</time></trkpt><trkpt lat="45.46943028103485" lon="10.533379865050465"><ele>93.0</ele><time>2026-04-12T15:00:06.999Z</time></trkpt><trkpt lat="45.469466452770945" lon="10.53324190943366"><ele>93.2</ele><time>2026-04-12T15:00:07.999Z</time></trkpt><trkpt lat="45.469500911565625" lon="10.53310706361688"><ele>93.4</ele><time>2026-04-12T15:00:08.999Z</time></trkpt><trkpt lat="45.469532009311514" lon="10.532966545677269"><ele>93.60000000000001</ele><time>2026-04-12T15:00:09.999Z</time></trkpt><trkpt lat="45.4695693562003" lon="10.53282779794663"><ele>93.80000000000001</ele><time>2026-04-12T15:00:10.999Z</time></trkpt><trkpt lat="45.46959871512489" lon="10.5326908398824"><ele>94.0</ele><time>2026-04-12T15:00:11.999Z</time></trkpt><trkpt lat="45.46962411959285" lon="10.532567563268772"><ele>94.33333333333333</ele><time>2026-04-12T15:00:12.999Z</time></trkpt><trkpt lat="45.469671268286795" lon="10.532481973779582"><ele>94.66666666666666</ele><time>2026-04-12T15:00:14.999Z</time></trkpt><trkpt lat="45.46970091264828" lon="10.532382146255024"><ele>95.0</ele><time>2026-04-12T15:00:18.999Z</time></trkpt><trkpt lat="45.4697600220977" lon="10.532303603446449"><ele>95.33333333333333</ele><time>2026-04-12T15:00:22Z</time></trkpt><trkpt lat="45.46986876917419" lon="10.53229762290142"><ele>95.66666666666667</ele><time>2026-04-12T15:00:24Z</time></trkpt><trkpt lat="45.469935849733716" lon="10.532191968946602"><ele>96.0</ele><time>2026-04-12T15:00:26Z</time></trkpt><trkpt lat="45.4699018359691" lon="10.532065872616966"><ele>95.83333333333333</ele><time>2026-04-12T15:00:27Z</time></trkpt><trkpt lat="45.469840046910676" lon="10.53202597078007"><ele>95.66666666666667</ele><time>2026-04-12T15:00:28Z</time></trkpt><trkpt lat="45.469814164781155" lon="10.531937530168133"><ele>95.5</ele><time>2026-04-12T15:00:31Z</time></trkpt><trkpt lat="45.46979867038251" lon="10.531820224028953"><ele>95.33333333333334</ele><time>2026-04-12T15:00:35Z</time></trkpt><trkpt lat="45.46978924359154" lon="10.53172771470271"><ele>95.16666666666667</ele><time>2026-04-12T15:00:36Z</time></trkpt><trkpt lat="45.46976122608507" lon="10.531549652430712"><ele>95.0</ele><time>2026-04-12T15:00:38Z</time></trkpt><trkpt lat="45.46973124527739" lon="10.531376262369363"><ele>95.0</ele><time>2026-04-12T15:00:40Z</time></trkpt><trkpt lat="45.46974146231385" lon="10.531264406192527"><ele>95.0</ele><time>2026-04-12T15:00:41Z</time></trkpt><trkpt lat="45.469718904707406" lon="10.53113512867268"><ele>95.0</ele><time>2026-04-12T15:00:42Z</time></trkpt><trkpt lat="45.46969702385276" lon="10.531001690883395"><ele>95.0</ele><time>2026-04-12T15:00:43Z</time></trkpt><trkpt lat="45.4696787203228" lon="10.530887392107605"><ele>95.0</ele><time>2026-04-12T15:00:44Z</time></trkpt><trkpt lat="45.46966401954883" lon="10.530796141785634"><ele>95.0</ele><time>2026-04-12T15:00:45Z</time></trkpt><trkpt lat="45.469628037243425" lon="10.530684276669877"><ele>95.0</ele><time>2026-04-12T15:00:47Z</time></trkpt><trkpt lat="45.469621490928695" lon="10.530579405820859"><ele>95.0</ele><time>2026-04-12T15:00:50Z</time></trkpt><trkpt lat="45.469609146542524" lon="10.530458953366638"><ele>95.0</ele><time>2026-04-12T15:00:53Z</time></trkpt><trkpt lat="45.469594163599425" lon="10.530363280119705"><ele>95.0</ele><time>2026-04-12T15:00:55Z</time></trkpt><trkpt lat="45.46957342368619" lon="10.530224486627201"><ele>95.0</ele><time>2026-04-12T15:00:57Z</time></trkpt><trkpt lat="45.469547525810896" lon="10.53007620925821"><ele>95.0</ele><time>2026-04-12T15:00:59Z</time></trkpt><trkpt lat="45.469525873103436" lon="10.529956984596632"><ele>95.0</ele><time>2026-04-12T15:01:01Z</time></trkpt><trkpt lat="45.469507082777845" lon="10.529841311293996"><ele>95.0</ele><time>2026-04-12T15:01:03Z</time></trkpt><trkpt lat="45.46949097262703" lon="10.529726388632932"><ele>95.0</ele><time>2026-04-12T15:01:05Z</time></trkpt><trkpt lat="45.46947243706757" lon="10.529584440480313"><ele>95.0</ele><time>2026-04-12T15:01:07Z</time></trkpt><trkpt lat="45.4694526471909" lon="10.529491624008601"><ele>95.0</ele><time>2026-04-12T15:01:08Z</time></trkpt><trkpt lat="45.4694294327227" lon="10.529399682817502"><ele>95.0</ele><time>2026-04-12T15:01:09Z</time></trkpt><trkpt lat="45.46941275292175" lon="10.529224647191489"><ele>95.0</ele><time>2026-04-12T15:01:11Z</time></trkpt><trkpt lat="45.469485867860996" lon="10.529109357540309"><ele>95.0</ele><time>2026-04-12T15:01:13Z</time></trkpt><trkpt lat="45.469550298766" lon="10.529072760768537"><ele>95.0</ele><time>2026-04-12T15:01:14Z</time></trkpt><trkpt lat="45.469622448128064" lon="10.529030477242982"><ele>95.0</ele><time>2026-04-12T15:01:15Z</time></trkpt><trkpt lat="45.46970501902866" lon="10.528962222781622"><ele>95.0</ele><time>2026-04-12T15:01:16Z</time></trkpt><trkpt lat="45.469803312336886" lon="10.528884615647936"><ele>95.0</ele><time>2026-04-12T15:01:17Z</time></trkpt><trkpt lat="45.4699013053573" lon="10.52882141501002"><ele>95.0</ele><time>2026-04-12T15:01:18Z</time></trkpt><trkpt lat="45.470008922071386" lon="10.528771638050426"><ele>95.0</ele><time>2026-04-12T15:01:19Z</time></trkpt><trkpt lat="45.470111661409405" lon="10.528704095614676"><ele>95.0</ele><time>2026-04-12T15:01:20Z</time></trkpt><trkpt lat="45.47021064302316" lon="10.528646253590205"><ele>95.0</ele><time>2026-04-12T15:01:21Z</time></trkpt><trkpt lat="45.47031893606643" lon="10.528580356546472"><ele>95.5</ele><time>2026-04-12T15:01:22Z</time></trkpt><trkpt lat="45.47043055949217" lon="10.52851695282489"><ele>96.0</ele><time>2026-04-12T15:01:23Z</time></trkpt><trkpt lat="45.47054525602589" lon="10.528449647654414"><ele>96.5</ele><time>2026-04-12T15:01:24Z</time></trkpt><trkpt lat="45.47066337489145" lon="10.528375859666701"><ele>97.0</ele><time>2026-04-12T15:01:25Z</time></trkpt><trkpt lat="45.470795202770525" lon="10.528297810700362"><ele>97.66666666666667</ele><time>2026-04-12T15:01:26Z</time></trkpt><trkpt lat="45.470940792955666" lon="10.528207949152904"><ele>98.33333333333334</ele><time>2026-04-12T15:01:27Z</time></trkpt><trkpt lat="45.47108734397151" lon="10.528115294349513"><ele>99.0</ele><time>2026-04-12T15:01:28Z</time></trkpt><trkpt lat="45.47124439749797" lon="10.528021372246881"><ele>98.66666666666666</ele><time>2026-04-12T15:01:29Z</time></trkpt><trkpt lat="45.47140522434237" lon="10.527924375137461"><ele>98.33333333333333</ele><time>2026-04-12T15:01:30Z</time></trkpt><trkpt lat="45.471571282594354" lon="10.527828806537801"><ele>98.0</ele><time>2026-04-12T15:01:31Z</time></trkpt><trkpt lat="45.47174400890844" lon="10.527730267018866"><ele>99.0</ele><time>2026-04-12T15:01:31.998Z</time></trkpt><trkpt lat="45.47191990708711" lon="10.527627159956086"><ele>100.0</ele><time>2026-04-12T15:01:32.998Z</time></trkpt><trkpt lat="45.47209994775568" lon="10.527524309297135"><ele>101.0</ele><time>2026-04-12T15:01:33.998Z</time></trkpt><trkpt lat="45.472278591133474" lon="10.527417854811342"><ele>101.33333333333333</ele><time>2026-04-12T15:01:34.998Z</time></trkpt><trkpt lat="45.472463514066945" lon="10.527317385808834"><ele>101.66666666666666</ele><time>2026-04-12T15:01:35.998Z</time></trkpt><trkpt lat="45.47264370457278" lon="10.527204424001711"><ele>102.0</ele><time>2026-04-12T15:01:36.998Z</time></trkpt><trkpt lat="45.47282565610431" lon="10.52709406056345"><ele>102.0</ele><time>2026-04-12T15:01:37.998Z</time></trkpt><trkpt lat="45.4730025253303" lon="10.526983555493699"><ele>102.0</ele><time>2026-04-12T15:01:38.998Z</time></trkpt><trkpt lat="45.473184280102195" lon="10.52687926153003"><ele>102.0</ele><time>2026-04-12T15:01:39.998Z</time></trkpt><trkpt lat="45.47337306737724" lon="10.526786207368806"><ele>102.0</ele><time>2026-04-12T15:01:40.998Z</time></trkpt><trkpt lat="45.47355575655362" lon="10.526703259242622"><ele>102.0</ele><time>2026-04-12T15:01:41.998Z</time></trkpt><trkpt lat="45.47374641615219" lon="10.526651119531465"><ele>102.0</ele><time>2026-04-12T15:01:42.998Z</time></trkpt><trkpt lat="45.47394117458631" lon="10.526640663352484"><ele>102.33333333333334</ele><time>2026-04-12T15:01:43.998Z</time></trkpt><trkpt lat="45.47413488280499" lon="10.526650552119078"><ele>102.66666666666667</ele><time>2026-04-12T15:01:44.998Z</time></trkpt><trkpt lat="45.474317060053295" lon="10.526688601561615"><ele>103.0</ele><time>2026-04-12T15:01:45.999Z</time></trkpt><trkpt lat="45.47447922133342" lon="10.526734589711305"><ele>102.80000000000001</ele><time>2026-04-12T15:01:46.999Z</time></trkpt><trkpt lat="45.47462001862184" lon="10.526761322922342"><ele>102.6</ele><time>2026-04-12T15:01:47.999Z</time></trkpt><trkpt lat="45.474733357906885" lon="10.526776812205606"><ele>102.4</ele><time>2026-04-12T15:01:48.999Z</time></trkpt><trkpt lat="45.47481502634311" lon="10.526808768988658"><ele>102.19999999999999</ele><time>2026-04-12T15:01:49.999Z</time></trkpt><trkpt lat="45.47488847124064" lon="10.526881057511368"><ele>102.0</ele><time>2026-04-12T15:01:50.999Z</time></trkpt><trkpt lat="45.47494362723971" lon="10.526979655610607"><ele>102.0</ele><time>2026-04-12T15:01:51.999Z</time></trkpt><trkpt lat="45.475011509231585" lon="10.52704318546204"><ele>102.0</ele><time>2026-04-12T15:01:52.999Z</time></trkpt><trkpt lat="45.475103433797926" lon="10.527058491906011"><ele>102.0</ele><time>2026-04-12T15:01:53.999Z</time></trkpt><trkpt lat="45.475200321576274" lon="10.527023253839838"><ele>102.0</ele><time>2026-04-12T15:01:54.999Z</time></trkpt><trkpt lat="45.475294021398206" lon="10.52693411608772"><ele>102.0</ele><time>2026-04-12T15:01:55.999Z</time></trkpt><trkpt lat="45.475395229562956" lon="10.526841237086238"><ele>102.66666666666666</ele><time>2026-04-12T15:01:56.999Z</time></trkpt><trkpt lat="45.47556989219568" lon="10.526889265891496"><ele>103.33333333333333</ele><time>2026-04-12T15:01:57.999Z</time></trkpt><trkpt lat="45.47574579573152" lon="10.526938106767917"><ele>104.0</ele><time>2026-04-12T15:01:58.999Z</time></trkpt><trkpt lat="45.47593986047446" lon="10.526984623316503"><ele>104.0</ele><time>2026-04-12T15:01:59.999Z</time></trkpt><trkpt lat="45.476127984543126" lon="10.52701630795982"><ele>104.0</ele><time>2026-04-12T15:02:00.999Z</time></trkpt><trkpt lat="45.47629613132124" lon="10.527044064466052"><ele>104.0</ele><time>2026-04-12T15:02:01.999Z</time></trkpt><trkpt lat="45.476455294020134" lon="10.527071081613869"><ele>103.33333333333333</ele><time>2026-04-12T15:02:02.999Z</time></trkpt><trkpt lat="45.47661026614004" lon="10.527099574749766"><ele>102.66666666666666</ele><time>2026-04-12T15:02:03.999Z</time></trkpt><trkpt lat="45.476759637350355" lon="10.527120928766726"><ele>102.0</ele><time>2026-04-12T15:02:04.999Z</time></trkpt><trkpt lat="45.47690547710314" lon="10.527141150185535"><ele>102.0</ele><time>2026-04-12T15:02:05.999Z</time></trkpt><trkpt lat="45.47704883936989" lon="10.527161718079876"><ele>102.0</ele><time>2026-04-12T15:02:06.999Z</time></trkpt><trkpt lat="45.47720392682622" lon="10.527182228452585"><ele>102.0</ele><time>2026-04-12T15:02:07.999Z</time></trkpt><trkpt lat="45.477367291153016" lon="10.52719732045766"><ele>102.66666666666666</ele><time>2026-04-12T15:02:09Z</time></trkpt><trkpt lat="45.47753703190372" lon="10.527181872331404"><ele>103.33333333333333</ele><time>2026-04-12T15:02:10Z</time></trkpt><trkpt lat="45.4777095279288" lon="10.527143357268633"><ele>104.0</ele><time>2026-04-12T15:02:11Z</time></trkpt><trkpt lat="45.47788813023554" lon="10.527070810951813"><ele>104.66666666666666</ele><time>2026-04-12T15:02:12Z</time></trkpt><trkpt lat="45.47806429398044" lon="10.526978999857956"><ele>105.33333333333334</ele><time>2026-04-12T15:02:13Z</time></trkpt><trkpt lat="45.478237983635644" lon="10.526863726859535"><ele>106.0</ele><time>2026-04-12T15:02:14Z</time></trkpt><trkpt lat="45.47840480565083" lon="10.526750238087454"><ele>106.0</ele><time>2026-04-12T15:02:15Z</time></trkpt><trkpt lat="45.478558014951844" lon="10.52663895805843"><ele>106.0</ele><time>2026-04-12T15:02:16Z</time></trkpt><trkpt lat="45.47871448582339" lon="10.526542800853324"><ele>106.0</ele><time>2026-04-12T15:02:17Z</time></trkpt><trkpt lat="45.47887115705874" lon="10.526446293568792"><ele>104.66666666666667</ele><time>2026-04-12T15:02:18Z</time></trkpt><trkpt lat="45.47902980616019" lon="10.526347660620274"><ele>103.33333333333334</ele><time>2026-04-12T15:02:19Z</time></trkpt><trkpt lat="45.47919189944164" lon="10.52623959981276"><ele>102.0</ele><time>2026-04-12T15:02:20Z</time></trkpt><trkpt lat="45.47934662629311" lon="10.52614431564356"><ele>102.33333333333334</ele><time>2026-04-12T15:02:21Z</time></trkpt><trkpt lat="45.479494178536434" lon="10.526048070251601"><ele>102.66666666666667</ele><time>2026-04-12T15:02:22Z</time></trkpt><trkpt lat="45.479633221462294" lon="10.525955878786817"><ele>103.0</ele><time>2026-04-12T15:02:23Z</time></trkpt><trkpt lat="45.479770835362494" lon="10.52586053999016"><ele>103.0</ele><time>2026-04-12T15:02:24Z</time></trkpt><trkpt lat="45.47990121179714" lon="10.525778210260759"><ele>103.0</ele><time>2026-04-12T15:02:25Z</time></trkpt><trkpt lat="45.480025081679095" lon="10.525652485941643"><ele>103.0</ele><time>2026-04-12T15:02:26Z</time></trkpt><trkpt lat="45.48013502117795" lon="10.525549553062643"><ele>103.0</ele><time>2026-04-12T15:02:27Z</time></trkpt><trkpt lat="45.48023674230723" lon="10.525466744606703"><ele>103.33333333333334</ele><time>2026-04-12T15:02:28Z</time></trkpt><trkpt lat="45.48031862082191" lon="10.525381884231171"><ele>103.66666666666667</ele><time>2026-04-12T15:02:29Z</time></trkpt><trkpt lat="45.480372456225936" lon="10.525306455023898"><ele>104.0</ele><time>2026-04-12T15:02:30Z</time></trkpt><trkpt lat="45.480432873560204" lon="10.525269035391347"><ele>104.33333333333334</ele><time>2026-04-12T15:02:31Z</time></trkpt><trkpt lat="45.4804991656501" lon="10.525258756779596"><ele>104.66666666666667</ele><time>2026-04-12T15:02:32Z</time></trkpt><trkpt lat="45.48057455438144" lon="10.525288650019908"><ele>105.0</ele><time>2026-04-12T15:02:33Z</time></trkpt><trkpt lat="45.48064754639503" lon="10.525352387843556"><ele>105.5</ele><time>2026-04-12T15:02:34Z</time></trkpt><trkpt lat="45.4807292429467" lon="10.525367756616674"><ele>106.0</ele><time>2026-04-12T15:02:35Z</time></trkpt><trkpt lat="45.48080335932058" lon="10.525309915748116"><ele>106.5</ele><time>2026-04-12T15:02:36Z</time></trkpt><trkpt lat="45.480856225376634" lon="10.525215525269436"><ele>107.0</ele><time>2026-04-12T15:02:37Z</time></trkpt><trkpt lat="45.480877711916435" lon="10.525090535102214"><ele>107.5</ele><time>2026-04-12T15:02:38Z</time></trkpt><trkpt lat="45.48087874325713" lon="10.524955393768712"><ele>108.0</ele><time>2026-04-12T15:02:39Z</time></trkpt><trkpt lat="45.48087095934443" lon="10.52479599811364"><ele>108.0</ele><time>2026-04-12T15:02:40Z</time></trkpt><trkpt lat="45.48090615790755" lon="10.52462684508215"><ele>108.0</ele><time>2026-04-12T15:02:41Z</time></trkpt><trkpt lat="45.48097324692302" lon="10.524452636528881"><ele>108.0</ele><time>2026-04-12T15:02:42Z</time></trkpt><trkpt lat="45.481043283114595" lon="10.52426733660239"><ele>108.0</ele><time>2026-04-12T15:02:43Z</time></trkpt><trkpt lat="45.48111633150657" lon="10.52410166367291"><ele>108.25</ele><time>2026-04-12T15:02:44Z</time></trkpt><trkpt lat="45.48120056062166" lon="10.523943075308077"><ele>108.5</ele><time>2026-04-12T15:02:45Z</time></trkpt><trkpt lat="45.48130426433052" lon="10.52378564326357"><ele>108.75</ele><time>2026-04-12T15:02:46Z</time></trkpt><trkpt lat="45.4814128137009" lon="10.523630682168394"><ele>109.0</ele><time>2026-04-12T15:02:47Z</time></trkpt><trkpt lat="45.481518780100075" lon="10.52346501869572"><ele>109.33333333333334</ele><time>2026-04-12T15:02:48Z</time></trkpt><trkpt lat="45.481624483384415" lon="10.523299043584261"><ele>109.66666666666666</ele><time>2026-04-12T15:02:49Z</time></trkpt><trkpt lat="45.481736968466755" lon="10.523133969516968"><ele>110.0</ele><time>2026-04-12T15:02:50Z</time></trkpt><trkpt lat="45.481849578803185" lon="10.522949763199916"><ele>108.0</ele><time>2026-04-12T15:02:51Z</time></trkpt><trkpt lat="45.48196456134315" lon="10.522758598693894"><ele>106.0</ele><time>2026-04-12T15:02:52Z</time></trkpt><trkpt lat="45.48207616291376" lon="10.522554671112138"><ele>104.0</ele><time>2026-04-12T15:02:53Z</time></trkpt><trkpt lat="45.482169788526974" lon="10.522332552842354"><ele>105.0</ele><time>2026-04-12T15:02:54Z</time></trkpt><trkpt lat="45.48226166456479" lon="10.522114286378951"><ele>106.0</ele><time>2026-04-12T15:02:55Z</time></trkpt><trkpt lat="45.48235565385013" lon="10.521896880628878"><ele>107.0</ele><time>2026-04-12T15:02:56Z</time></trkpt><trkpt lat="45.48244956628054" lon="10.521681413401282"><ele>107.0</ele><time>2026-04-12T15:02:57Z</time></trkpt><trkpt lat="45.4825408420187" lon="10.521466326366399"><ele>107.0</ele><time>2026-04-12T15:02:58Z</time></trkpt><trkpt lat="45.482632348682124" lon="10.521252249931893"><ele>107.0</ele><time>2026-04-12T15:02:59Z</time></trkpt><trkpt lat="45.48272716952604" lon="10.521041554023256"><ele>107.33333333333333</ele><time>2026-04-12T15:03:00Z</time></trkpt><trkpt lat="45.4828273887912" lon="10.52083014573351"><ele>107.66666666666666</ele><time>2026-04-12T15:03:01Z</time></trkpt><trkpt lat="45.48292622999445" lon="10.520621920982157"><ele>108.0</ele><time>2026-04-12T15:03:02.001Z</time></trkpt><trkpt lat="45.483022578896836" lon="10.520414571653244"><ele>107.33333333333334</ele><time>2026-04-12T15:03:03.001Z</time></trkpt><trkpt lat="45.483117944431676" lon="10.52019861892528"><ele>106.66666666666667</ele><time>2026-04-12T15:03:04.001Z</time></trkpt><trkpt lat="45.48321536764717" lon="10.519980679471377"><ele>106.0</ele><time>2026-04-12T15:03:05.001Z</time></trkpt><trkpt lat="45.48330845865557" lon="10.51976781508726"><ele>104.0</ele><time>2026-04-12T15:03:06.001Z</time></trkpt><trkpt lat="45.48340179674292" lon="10.519557522640145"><ele>102.0</ele><time>2026-04-12T15:03:07.001Z</time></trkpt><trkpt lat="45.483492538068795" lon="10.51935279468625"><ele>100.0</ele><time>2026-04-12T15:03:08.001Z</time></trkpt><trkpt lat="45.483587762811496" lon="10.519148725091274"><ele>100.0</ele><time>2026-04-12T15:03:09.001Z</time></trkpt><trkpt lat="45.48368219296009" lon="10.518952440223071"><ele>100.0</ele><time>2026-04-12T15:03:10.001Z</time></trkpt><trkpt lat="45.483781536140924" lon="10.518766782848058"><ele>100.0</ele><time>2026-04-12T15:03:11.001Z</time></trkpt><trkpt lat="45.48388442862854" lon="10.518587448676458"><ele>98.0</ele><time>2026-04-12T15:03:12.001Z</time></trkpt><trkpt lat="45.48401270267995" lon="10.518437448755213"><ele>96.0</ele><time>2026-04-12T15:03:13.001Z</time></trkpt><trkpt lat="45.48417124812908" lon="10.51837345555859"><ele>94.0</ele><time>2026-04-12T15:03:14.001Z</time></trkpt><trkpt lat="45.484344519135206" lon="10.518342842318319"><ele>94.0</ele><time>2026-04-12T15:03:15.001Z</time></trkpt><trkpt lat="45.48453434757687" lon="10.518309693163019"><ele>94.0</ele><time>2026-04-12T15:03:16.001Z</time></trkpt><trkpt lat="45.484719633901726" lon="10.518286677117956"><ele>94.0</ele><time>2026-04-12T15:03:17.001Z</time></trkpt><trkpt lat="45.48489903899215" lon="10.51826411365748"><ele>91.0</ele><time>2026-04-12T15:03:18.001Z</time></trkpt><trkpt lat="45.485076249803164" lon="10.518250862705285"><ele>88.0</ele><time>2026-04-12T15:03:19.001Z</time></trkpt><trkpt lat="45.48524821634498" lon="10.51824383827315"><ele>85.0</ele><time>2026-04-12T15:03:20.001Z</time></trkpt><trkpt lat="45.48541760038508" lon="10.518232481881942"><ele>83.33333333333333</ele><time>2026-04-12T15:03:21.001Z</time></trkpt><trkpt lat="45.4855806663624" lon="10.518218623000136"><ele>81.66666666666667</ele><time>2026-04-12T15:03:22.001Z</time></trkpt><trkpt lat="45.48574358513934" lon="10.518204973768725"><ele>80.0</ele><time>2026-04-12T15:03:23.001Z</time></trkpt><trkpt lat="45.48590842831482" lon="10.51816855424168"><ele>80.0</ele><time>2026-04-12T15:03:24.001Z</time></trkpt><trkpt lat="45.48607428145526" lon="10.518089350100656"><ele>80.0</ele><time>2026-04-12T15:03:25.001Z</time></trkpt><trkpt lat="45.48622918642902" lon="10.517978829980768"><ele>80.0</ele><time>2026-04-12T15:03:26.001Z</time></trkpt><trkpt lat="45.48637235912503" lon="10.517834387586323"><ele>78.66666666666667</ele><time>2026-04-12T15:03:27.001Z</time></trkpt><trkpt lat="45.48651167814374" lon="10.51767720745375"><ele>77.33333333333333</ele><time>2026-04-12T15:03:28.001Z</time></trkpt><trkpt lat="45.486650449432105" lon="10.517520567223096"><ele>76.0</ele><time>2026-04-12T15:03:29.001Z</time></trkpt><trkpt lat="45.48679152454252" lon="10.517360199269215"><ele>76.0</ele><time>2026-04-12T15:03:30.001Z</time></trkpt><trkpt lat="45.48693097242351" lon="10.517194304510548"><ele>76.0</ele><time>2026-04-12T15:03:31.001Z</time></trkpt><trkpt lat="45.4870673951247" lon="10.517019370519325"><ele>76.0</ele><time>2026-04-12T15:03:32.001Z</time></trkpt><trkpt lat="45.487194412168456" lon="10.516831648521716"><ele>75.66666666666666</ele><time>2026-04-12T15:03:33.001Z</time></trkpt><trkpt lat="45.487324333714106" lon="10.516640878414876"><ele>75.33333333333333</ele><time>2026-04-12T15:03:34.001Z</time></trkpt><trkpt lat="45.487454255565254" lon="10.516456719589446"><ele>75.0</ele><time>2026-04-12T15:03:35.001Z</time></trkpt><trkpt lat="45.487589099502934" lon="10.51626358527884"><ele>75.33333333333333</ele><time>2026-04-12T15:03:36.001Z</time></trkpt><trkpt lat="45.48771726600216" lon="10.516071450408377"><ele>75.66666666666666</ele><time>2026-04-12T15:03:37.001Z</time></trkpt><trkpt lat="45.4878695922408" lon="10.515916431525383"><ele>76.0</ele><time>2026-04-12T15:03:37.999Z</time></trkpt><trkpt lat="45.48801763967152" lon="10.515769172101603"><ele>75.33333333333333</ele><time>2026-04-12T15:03:38.999Z</time></trkpt><trkpt lat="45.488157396665486" lon="10.515610048591888"><ele>74.66666666666667</ele><time>2026-04-12T15:03:40Z</time></trkpt><trkpt lat="45.488311153160424" lon="10.515473883656824"><ele>74.0</ele><time>2026-04-12T15:03:41Z</time></trkpt><trkpt lat="45.48845228577725" lon="10.515325850470296"><ele>74.0</ele><time>2026-04-12T15:03:42Z</time></trkpt><trkpt lat="45.488595868692194" lon="10.515187056504123"><ele>74.0</ele><time>2026-04-12T15:03:43Z</time></trkpt><trkpt lat="45.48873998842484" lon="10.515056712500105"><ele>74.0</ele><time>2026-04-12T15:03:44Z</time></trkpt><trkpt lat="45.488877911729666" lon="10.514935282689859"><ele>73.66666666666667</ele><time>2026-04-12T15:03:45Z</time></trkpt><trkpt lat="45.489012720089896" lon="10.514816363398516"><ele>73.33333333333333</ele><time>2026-04-12T15:03:46Z</time></trkpt><trkpt lat="45.48913938819936" lon="10.514702813286638"><ele>73.0</ele><time>2026-04-12T15:03:47Z</time></trkpt><trkpt lat="45.489259304414595" lon="10.51459292625251"><ele>72.75</ele><time>2026-04-12T15:03:48Z</time></trkpt><trkpt lat="45.48937213931825" lon="10.514486334658303"><ele>72.5</ele><time>2026-04-12T15:03:49Z</time></trkpt><trkpt lat="45.48948197338725" lon="10.51437633808686"><ele>72.25</ele><time>2026-04-12T15:03:50Z</time></trkpt><trkpt lat="45.48959432621192" lon="10.514292192276008"><ele>72.0</ele><time>2026-04-12T15:03:51Z</time></trkpt><trkpt lat="45.489689827708006" lon="10.514184807176745"><ele>71.4</ele><time>2026-04-12T15:03:52Z</time></trkpt><trkpt lat="45.489784422182765" lon="10.514130557576767"><ele>70.80000000000001</ele><time>2026-04-12T15:03:53Z</time></trkpt><trkpt lat="45.48987787969095" lon="10.514099578861545"><ele>70.2</ele><time>2026-04-12T15:03:54Z</time></trkpt><trkpt lat="45.48997239343959" lon="10.5141038554311"><ele>69.60000000000001</ele><time>2026-04-12T15:03:55Z</time></trkpt><trkpt lat="45.490056327288784" lon="10.514165448807384"><ele>69.0</ele><time>2026-04-12T15:03:56Z</time></trkpt><trkpt lat="45.49013211098793" lon="10.5142755384034"><ele>69.0</ele><time>2026-04-12T15:03:57Z</time></trkpt><trkpt lat="45.49018613596286" lon="10.514439008387173"><ele>69.0</ele><time>2026-04-12T15:03:58Z</time></trkpt><trkpt lat="45.4902402060223" lon="10.514608355588575"><ele>69.0</ele><time>2026-04-12T15:03:59Z</time></trkpt><trkpt lat="45.49033034232426" lon="10.51474570864997"><ele>69.0</ele><time>2026-04-12T15:04:00Z</time></trkpt><trkpt lat="45.49045211562021" lon="10.514852435200716"><ele>69.25</ele><time>2026-04-12T15:04:01Z</time></trkpt><trkpt lat="45.49058132476031" lon="10.514930924989631"><ele>69.5</ele><time>2026-04-12T15:04:02Z</time></trkpt><trkpt lat="45.49069747076678" lon="10.514965013587846"><ele>69.75</ele><time>2026-04-12T15:04:03Z</time></trkpt><trkpt lat="45.490807663104135" lon="10.514970044821599"><ele>70.0</ele><time>2026-04-12T15:04:04Z</time></trkpt><trkpt lat="45.49090758053766" lon="10.514945263788599"><ele>70.0</ele><time>2026-04-12T15:04:05Z</time></trkpt><trkpt lat="45.49100491779698" lon="10.51488806119223"><ele>70.0</ele><time>2026-04-12T15:04:06Z</time></trkpt><trkpt lat="45.49108168707898" lon="10.514775628217139"><ele>70.0</ele><time>2026-04-12T15:04:07Z</time></trkpt><trkpt lat="45.491149851422556" lon="10.514620908756017"><ele>70.0</ele><time>2026-04-12T15:04:08Z</time></trkpt><trkpt lat="45.49122395557761" lon="10.51445693466349"><ele>69.75</ele><time>2026-04-12T15:04:09Z</time></trkpt><trkpt lat="45.491305490185255" lon="10.514292665485137"><ele>69.5</ele><time>2026-04-12T15:04:10Z</time></trkpt><trkpt lat="45.49138894949504" lon="10.51413425996088"><ele>69.25</ele><time>2026-04-12T15:04:11Z</time></trkpt><trkpt lat="45.49147354918662" lon="10.51398459438622"><ele>69.0</ele><time>2026-04-12T15:04:12Z</time></trkpt><trkpt lat="45.49155697039661" lon="10.513834428626291"><ele>69.5</ele><time>2026-04-12T15:04:13Z</time></trkpt><trkpt lat="45.49165042911623" lon="10.513682010586553"><ele>70.0</ele><time>2026-04-12T15:04:14Z</time></trkpt><trkpt lat="45.49174828721888" lon="10.513544161112103"><ele>70.5</ele><time>2026-04-12T15:04:15Z</time></trkpt><trkpt lat="45.49185119006652" lon="10.513422366222477"><ele>71.0</ele><time>2026-04-12T15:04:16Z</time></trkpt><trkpt lat="45.49196079893304" lon="10.513299841193684"><ele>71.0</ele><time>2026-04-12T15:04:17Z</time></trkpt><trkpt lat="45.49207665974793" lon="10.513180483746734"><ele>71.0</ele><time>2026-04-12T15:04:18Z</time></trkpt><trkpt lat="45.492195265900605" lon="10.513078793532943"><ele>71.0</ele><time>2026-04-12T15:04:19Z</time></trkpt><trkpt lat="45.49232236594119" lon="10.512974931800859"><ele>71.0</ele><time>2026-04-12T15:04:20Z</time></trkpt><trkpt lat="45.492446039745694" lon="10.512883129353192"><ele>71.2</ele><time>2026-04-12T15:04:21Z</time></trkpt><trkpt lat="45.49256071287972" lon="10.512797067690967"><ele>71.39999999999999</ele><time>2026-04-12T15:04:22Z</time></trkpt><trkpt lat="45.492664150697884" lon="10.512721127427495"><ele>71.6</ele><time>2026-04-12T15:04:23Z</time></trkpt><trkpt lat="45.49274207001719" lon="10.512657280082964"><ele>71.8</ele><time>2026-04-12T15:04:24Z</time></trkpt><trkpt lat="45.49280753653048" lon="10.512604926125459"><ele>72.0</ele><time>2026-04-12T15:04:25Z</time></trkpt><trkpt lat="45.49287192311366" lon="10.512558601251918"><ele>71.8</ele><time>2026-04-12T15:04:26Z</time></trkpt><trkpt lat="45.492933184282165" lon="10.512511939672898"><ele>71.6</ele><time>2026-04-12T15:04:27Z</time></trkpt><trkpt lat="45.49301362874006" lon="10.512452236876195"><ele>71.39999999999999</ele><time>2026-04-12T15:04:28Z</time></trkpt><trkpt lat="45.493115331425074" lon="10.512384434132699"><ele>71.2</ele><time>2026-04-12T15:04:29Z</time></trkpt><trkpt lat="45.49322592497781" lon="10.512303038150057"><ele>71.0</ele><time>2026-04-12T15:04:30Z</time></trkpt><trkpt lat="45.493350574730364" lon="10.512203045191985"><ele>71.0</ele><time>2026-04-12T15:04:31Z</time></trkpt><trkpt lat="45.49348080447923" lon="10.512090964598974"><ele>71.0</ele><time>2026-04-12T15:04:32Z</time></trkpt><trkpt lat="45.49364298380716" lon="10.511990446034513"><ele>71.0</ele><time>2026-04-12T15:04:33Z</time></trkpt><trkpt lat="45.49381912026889" lon="10.51185641707437"><ele>70.66666666666667</ele><time>2026-04-12T15:04:34Z</time></trkpt><trkpt lat="45.49400736484584" lon="10.511712547685807"><ele>70.33333333333333</ele><time>2026-04-12T15:04:35Z</time></trkpt><trkpt lat="45.49420170533098" lon="10.511566430779096"><ele>70.0</ele><time>2026-04-12T15:04:36.001Z</time></trkpt><trkpt lat="45.49439972385586" lon="10.511397110903943"><ele>70.0</ele><time>2026-04-12T15:04:37.001Z</time></trkpt><trkpt lat="45.49460106287103" lon="10.511248754999528"><ele>70.0</ele><time>2026-04-12T15:04:38.001Z</time></trkpt><trkpt lat="45.49479670036134" lon="10.51109907142173"><ele>70.0</ele><time>2026-04-12T15:04:39.001Z</time></trkpt><trkpt lat="45.49498606895527" lon="10.510956398554251"><ele>70.0</ele><time>2026-04-12T15:04:40.001Z</time></trkpt><trkpt lat="45.49516361690343" lon="10.510823406544727"><ele>70.0</ele><time>2026-04-12T15:04:41.001Z</time></trkpt><trkpt lat="45.49533792955597" lon="10.510692721816122"><ele>70.0</ele><time>2026-04-12T15:04:42.001Z</time></trkpt><trkpt lat="45.49549837015409" lon="10.510570096397455"><ele>69.66666666666666</ele><time>2026-04-12T15:04:43.001Z</time></trkpt><trkpt lat="45.495661576496694" lon="10.510449153761172"><ele>69.33333333333333</ele><time>2026-04-12T15:04:44.001Z</time></trkpt><trkpt lat="45.49582491979688" lon="10.510328161265962"><ele>69.0</ele><time>2026-04-12T15:04:45.001Z</time></trkpt><trkpt lat="45.49598625415221" lon="10.510204490075079"><ele>69.66666666666667</ele><time>2026-04-12T15:04:46.001Z</time></trkpt><trkpt lat="45.49614607225565" lon="10.5100824002171"><ele>70.33333333333334</ele><time>2026-04-12T15:04:47.001Z</time></trkpt><trkpt lat="45.496294303381426" lon="10.509965742688289"><ele>71.0</ele><time>2026-04-12T15:04:48.001Z</time></trkpt><trkpt lat="45.496436897712826" lon="10.50986086197212"><ele>71.0</ele><time>2026-04-12T15:04:49.001Z</time></trkpt><trkpt lat="45.4965778256154" lon="10.509762731256059"><ele>71.0</ele><time>2026-04-12T15:04:50.001Z</time></trkpt><trkpt lat="45.49672063704837" lon="10.509666779384158"><ele>71.0</ele><time>2026-04-12T15:04:51.001Z</time></trkpt><trkpt lat="45.49686666701509" lon="10.509577806034384"><ele>71.75</ele><time>2026-04-12T15:04:52.001Z</time></trkpt><trkpt lat="45.497002876718625" lon="10.509494868388924"><ele>72.5</ele><time>2026-04-12T15:04:53.001Z</time></trkpt><trkpt lat="45.49714175981076" lon="10.509415039829165"><ele>73.25</ele><time>2026-04-12T15:04:54.001Z</time></trkpt><trkpt lat="45.49726758169154" lon="10.509339647717068"><ele>74.0</ele><time>2026-04-12T15:04:55.001Z</time></trkpt><trkpt lat="45.49737863435264" lon="10.509277041638214"><ele>74.0</ele><time>2026-04-12T15:04:56.001Z</time></trkpt><trkpt lat="45.49746436476056" lon="10.509229302059504"><ele>74.0</ele><time>2026-04-12T15:04:57.001Z</time></trkpt><trkpt lat="45.497529402644325" lon="10.50919247058729"><ele>74.0</ele><time>2026-04-12T15:04:58.001Z</time></trkpt><trkpt lat="45.497614598388544" lon="10.509175635985297"><ele>74.0</ele><time>2026-04-12T15:05:00.001Z</time></trkpt><trkpt lat="45.49769426217003" lon="10.509198733772685"><ele>74.0</ele><time>2026-04-12T15:05:02.001Z</time></trkpt><trkpt lat="45.49779414348287" lon="10.509234074720263"><ele>74.0</ele><time>2026-04-12T15:05:04.001Z</time></trkpt><trkpt lat="45.49789329143137" lon="10.509170218438955"><ele>74.0</ele><time>2026-04-12T15:05:06.001Z</time></trkpt><trkpt lat="45.49792171419685" lon="10.508991464291295"><ele>74.0</ele><time>2026-04-12T15:05:08.001Z</time></trkpt><trkpt lat="45.49791232484097" lon="10.508886529244247"><ele>74.0</ele><time>2026-04-12T15:05:09.001Z</time></trkpt><trkpt lat="45.49792814632438" lon="10.508782713891138"><ele>74.0</ele><time>2026-04-12T15:05:10.001Z</time></trkpt><trkpt lat="45.49799706184684" lon="10.508708091795565"><ele>74.0</ele><time>2026-04-12T15:05:11.001Z</time></trkpt><trkpt lat="45.4980731310176" lon="10.508638095625502"><ele>75.4</ele><time>2026-04-12T15:05:12.001Z</time></trkpt><trkpt lat="45.49814581006391" lon="10.508526208164646"><ele>76.80000000000001</ele><time>2026-04-12T15:05:13.001Z</time></trkpt><trkpt lat="45.498225562184636" lon="10.508428230286501"><ele>78.19999999999999</ele><time>2026-04-12T15:05:14.001Z</time></trkpt><trkpt lat="45.49830438543694" lon="10.508326123997339"><ele>79.6</ele><time>2026-04-12T15:05:15.001Z</time></trkpt><trkpt lat="45.49838741615434" lon="10.508222848864273"><ele>81.0</ele><time>2026-04-12T15:05:16.001Z</time></trkpt><trkpt lat="45.498493684608775" lon="10.50816958742092"><ele>81.0</ele><time>2026-04-12T15:05:17.001Z</time></trkpt><trkpt lat="45.498590290216285" lon="10.50811260443025"><ele>81.0</ele><time>2026-04-12T15:05:18.001Z</time></trkpt><trkpt lat="45.49867769796013" lon="10.508043715855706"><ele>81.0</ele><time>2026-04-12T15:05:19.001Z</time></trkpt><trkpt lat="45.49875606612489" lon="10.508006353007971"><ele>81.0</ele><time>2026-04-12T15:05:20.001Z</time></trkpt><trkpt lat="45.49884777743373" lon="10.507962652189233"><ele>81.0</ele><time>2026-04-12T15:05:21.001Z</time></trkpt><trkpt lat="45.4989376207578" lon="10.507917982486443"><ele>81.83333333333333</ele><time>2026-04-12T15:05:22.001Z</time></trkpt><trkpt lat="45.4990122163881" lon="10.507872720321533"><ele>82.66666666666667</ele><time>2026-04-12T15:05:23.001Z</time></trkpt><trkpt lat="45.49908667571952" lon="10.507827329188292"><ele>83.5</ele><time>2026-04-12T15:05:24.001Z</time></trkpt><trkpt lat="45.49916089174604" lon="10.507780571654665"><ele>84.33333333333334</ele><time>2026-04-12T15:05:25.001Z</time></trkpt><trkpt lat="45.49923731666918" lon="10.507737248808352"><ele>85.16666666666667</ele><time>2026-04-12T15:05:26.001Z</time></trkpt><trkpt lat="45.49932431882855" lon="10.50769618662813"><ele>86.0</ele><time>2026-04-12T15:05:27.001Z</time></trkpt><trkpt lat="45.49942917799045" lon="10.507651586538794"><ele>86.0</ele><time>2026-04-12T15:05:28.001Z</time></trkpt><trkpt lat="45.49953530170281" lon="10.507610301264274"><ele>86.0</ele><time>2026-04-12T15:05:29.001Z</time></trkpt><trkpt lat="45.49964081882208" lon="10.507576547551023"><ele>86.0</ele><time>2026-04-12T15:05:30.001Z</time></trkpt><trkpt lat="45.49974723408575" lon="10.507541399455274"><ele>86.0</ele><time>2026-04-12T15:05:31.001Z</time></trkpt><trkpt lat="45.49984117024388" lon="10.507513422881239"><ele>86.0</ele><time>2026-04-12T15:05:32.001Z</time></trkpt><trkpt lat="45.499927212348915" lon="10.507486135498915"><ele>87.0</ele><time>2026-04-12T15:05:33.001Z</time></trkpt><trkpt lat="45.500011793557896" lon="10.50745768374334"><ele>88.0</ele><time>2026-04-12T15:05:34.001Z</time></trkpt><trkpt lat="45.50009877673681" lon="10.507428249418615"><ele>89.0</ele><time>2026-04-12T15:05:35.002Z</time></trkpt><trkpt lat="45.500186114895044" lon="10.507395601671197"><ele>90.0</ele><time>2026-04-12T15:05:36.002Z</time></trkpt><trkpt lat="45.50027637848981" lon="10.507356576955127"><ele>91.0</ele><time>2026-04-12T15:05:37.002Z</time></trkpt><trkpt lat="45.50035967098493" lon="10.507288304300499"><ele>91.8</ele><time>2026-04-12T15:05:38.002Z</time></trkpt><trkpt lat="45.50043652550233" lon="10.507187490545823"><ele>92.6</ele><time>2026-04-12T15:05:39.002Z</time></trkpt><trkpt lat="45.50051519279786" lon="10.507064252972441"><ele>93.4</ele><time>2026-04-12T15:05:40.002Z</time></trkpt><trkpt lat="45.50059139374545" lon="10.506948614454217"><ele>94.2</ele><time>2026-04-12T15:05:41.002Z</time></trkpt><trkpt lat="45.50066483979276" lon="10.506833989292128"><ele>95.0</ele><time>2026-04-12T15:05:42.002Z</time></trkpt><trkpt lat="45.50074235422672" lon="10.506718056848772"><ele>95.0</ele><time>2026-04-12T15:05:43.002Z</time></trkpt><trkpt lat="45.50082254152219" lon="10.506601926934588"><ele>95.0</ele><time>2026-04-12T15:05:44Z</time></trkpt><trkpt lat="45.50090058476908" lon="10.506479748813895"><ele>95.0</ele><time>2026-04-12T15:05:45Z</time></trkpt><trkpt lat="45.50098219566582" lon="10.506348201193836"><ele>95.0</ele><time>2026-04-12T15:05:46Z</time></trkpt><trkpt lat="45.501060392880106" lon="10.506212747344577"><ele>95.5</ele><time>2026-04-12T15:05:47Z</time></trkpt><trkpt lat="45.50113114234518" lon="10.5060729137324"><ele>96.0</ele><time>2026-04-12T15:05:48Z</time></trkpt><trkpt lat="45.50118345546669" lon="10.50591727179327"><ele>96.5</ele><time>2026-04-12T15:05:49Z</time></trkpt><trkpt lat="45.50121291497491" lon="10.505744791611502"><ele>97.0</ele><time>2026-04-12T15:05:50Z</time></trkpt><trkpt lat="45.501221152005634" lon="10.505572906445568"><ele>98.25</ele><time>2026-04-12T15:05:51Z</time></trkpt><trkpt lat="45.50121866367476" lon="10.505393543254804"><ele>99.5</ele><time>2026-04-12T15:05:52Z</time></trkpt><trkpt lat="45.50122067321994" lon="10.505206897851892"><ele>100.75</ele><time>2026-04-12T15:05:53Z</time></trkpt><trkpt lat="45.5012293600618" lon="10.505015778248524"><ele>102.0</ele><time>2026-04-12T15:05:54Z</time></trkpt><trkpt lat="45.50125446298007" lon="10.504816114083463"><ele>103.5</ele><time>2026-04-12T15:05:55Z</time></trkpt><trkpt lat="45.50128262699008" lon="10.504626807675278"><ele>105.0</ele><time>2026-04-12T15:05:56Z</time></trkpt><trkpt lat="45.50131247191011" lon="10.504463091887395"><ele>106.5</ele><time>2026-04-12T15:05:57Z</time></trkpt><trkpt lat="45.50134058926335" lon="10.504317505809556"><ele>108.0</ele><time>2026-04-12T15:05:58Z</time></trkpt><trkpt lat="45.50136716200512" lon="10.504192167751446"><ele>108.66666666666667</ele><time>2026-04-12T15:05:59Z</time></trkpt><trkpt lat="45.50139645946602" lon="10.504090643188023"><ele>109.33333333333334</ele><time>2026-04-12T15:06:00Z</time></trkpt><trkpt lat="45.50143913446832" lon="10.503954894651645"><ele>110.0</ele><time>2026-04-12T15:06:02Z</time></trkpt><trkpt lat="45.50146921816004" lon="10.503861572802112"><ele>110.66666666666667</ele><time>2026-04-12T15:06:04Z</time></trkpt><trkpt lat="45.50155222180219" lon="10.503742380156783"><ele>111.33333333333334</ele><time>2026-04-12T15:06:06Z</time></trkpt><trkpt lat="45.501616124763004" lon="10.50370476830613"><ele>112.0</ele><time>2026-04-12T15:06:07Z</time></trkpt><trkpt lat="45.501684984549804" lon="10.503683848853056"><ele>112.0</ele><time>2026-04-12T15:06:08.001Z</time></trkpt><trkpt lat="45.50175102500775" lon="10.503661852265074"><ele>112.0</ele><time>2026-04-12T15:06:09.001Z</time></trkpt><trkpt lat="45.50180711736518" lon="10.50361554223543"><ele>112.0</ele><time>2026-04-12T15:06:10.001Z</time></trkpt><trkpt lat="45.501847568947206" lon="10.503531383212806"><ele>112.0</ele><time>2026-04-12T15:06:11.001Z</time></trkpt><trkpt lat="45.50186556372612" lon="10.503430007003955"><ele>112.0</ele><time>2026-04-12T15:06:12.001Z</time></trkpt><trkpt lat="45.50185357183889" lon="10.503329712503177"><ele>112.0</ele><time>2026-04-12T15:06:13.001Z</time></trkpt><trkpt lat="45.50181370197568" lon="10.503231366081845"><ele>112.0</ele><time>2026-04-12T15:06:14.001Z</time></trkpt><trkpt lat="45.50175659409071" lon="10.50312931152935"><ele>112.0</ele><time>2026-04-12T15:06:15.001Z</time></trkpt><trkpt lat="45.50172793049207" lon="10.502994304646512"><ele>111.99999999999999</ele><time>2026-04-12T15:06:16.001Z</time></trkpt><trkpt lat="45.501721774052804" lon="10.502839728610716"><ele>111.99999999999999</ele><time>2026-04-12T15:06:17.001Z</time></trkpt><trkpt lat="45.50172787486847" lon="10.502678664562271"><ele>112.0</ele><time>2026-04-12T15:06:18.001Z</time></trkpt><trkpt lat="45.501717969730954" lon="10.5025115735136"><ele>112.0</ele><time>2026-04-12T15:06:19.001Z</time></trkpt><trkpt lat="45.501690497001" lon="10.502354137596601"><ele>112.19999999999999</ele><time>2026-04-12T15:06:20.001Z</time></trkpt><trkpt lat="45.501647643270935" lon="10.50222009823323"><ele>112.39999999999999</ele><time>2026-04-12T15:06:21.001Z</time></trkpt><trkpt lat="45.50158684096589" lon="10.502089937096287"><ele>112.60000000000001</ele><time>2026-04-12T15:06:22.001Z</time></trkpt><trkpt lat="45.50151236326891" lon="10.50196958491378"><ele>112.80000000000001</ele><time>2026-04-12T15:06:23.001Z</time></trkpt><trkpt lat="45.501436463110174" lon="10.501844236803615"><ele>113.0</ele><time>2026-04-12T15:06:24.001Z</time></trkpt><trkpt lat="45.50135167021189" lon="10.501735138844568"><ele>113.0</ele><time>2026-04-12T15:06:25.001Z</time></trkpt><trkpt lat="45.50127218339969" lon="10.50162376709854"><ele>113.0</ele><time>2026-04-12T15:06:26.001Z</time></trkpt><trkpt lat="45.50118932802848" lon="10.501506358759245"><ele>113.0</ele><time>2026-04-12T15:06:27.001Z</time></trkpt><trkpt lat="45.501101683658646" lon="10.50139300541442"><ele>113.0</ele><time>2026-04-12T15:06:28.001Z</time></trkpt><trkpt lat="45.50101461159132" lon="10.501274079909994"><ele>114.5</ele><time>2026-04-12T15:06:29.001Z</time></trkpt><trkpt lat="45.50092411724041" lon="10.501148480786467"><ele>116.0</ele><time>2026-04-12T15:06:30.001Z</time></trkpt><trkpt lat="45.50083024005755" lon="10.501014826073446"><ele>117.5</ele><time>2026-04-12T15:06:31.001Z</time></trkpt><trkpt lat="45.50073401632104" lon="10.50087972843494"><ele>119.0</ele><time>2026-04-12T15:06:32.001Z</time></trkpt><trkpt lat="45.5006376615657" lon="10.50074089238909"><ele>119.0</ele><time>2026-04-12T15:06:33.001Z</time></trkpt><trkpt lat="45.50053949551127" lon="10.500603860777733"><ele>119.0</ele><time>2026-04-12T15:06:34.001Z</time></trkpt><trkpt lat="45.500447742718954" lon="10.50047633713134"><ele>119.0</ele><time>2026-04-12T15:06:35.001Z</time></trkpt><trkpt lat="45.500366955150675" lon="10.500361244171572"><ele>119.0</ele><time>2026-04-12T15:06:36.001Z</time></trkpt><trkpt lat="45.50029779590527" lon="10.500259497978549"><ele>118.80000000000001</ele><time>2026-04-12T15:06:37.001Z</time></trkpt><trkpt lat="45.50024558544883" lon="10.50016625856266"><ele>118.60000000000001</ele><time>2026-04-12T15:06:38.001Z</time></trkpt><trkpt lat="45.50020467854" lon="10.50006776653654"><ele>118.4</ele><time>2026-04-12T15:06:39.001Z</time></trkpt><trkpt lat="45.50018651116095" lon="10.499947510043887"><ele>118.2</ele><time>2026-04-12T15:06:40.001Z</time></trkpt><trkpt lat="45.50017077629723" lon="10.499804947565032"><ele>118.0</ele><time>2026-04-12T15:06:41.001Z</time></trkpt><trkpt lat="45.50011686764973" lon="10.499678545760784"><ele>121.0</ele><time>2026-04-12T15:06:42.001Z</time></trkpt><trkpt lat="45.50004000036776" lon="10.499562216328995"><ele>124.0</ele><time>2026-04-12T15:06:43.001Z</time></trkpt><trkpt lat="45.49996404469028" lon="10.499435091011366"><ele>127.0</ele><time>2026-04-12T15:06:44.001Z</time></trkpt><trkpt lat="45.499878812262786" lon="10.499323933618994"><ele>130.0</ele><time>2026-04-12T15:06:45.001Z</time></trkpt><trkpt lat="45.49976320392577" lon="10.49927103437447"><ele>130.0</ele><time>2026-04-12T15:06:46.001Z</time></trkpt><trkpt lat="45.49964258489225" lon="10.499230043982775"><ele>130.0</ele><time>2026-04-12T15:06:47.001Z</time></trkpt><trkpt lat="45.49954153392141" lon="10.499135271078728"><ele>130.0</ele><time>2026-04-12T15:06:48.001Z</time></trkpt><trkpt lat="45.49943162111837" lon="10.499046549893928"><ele>130.0</ele><time>2026-04-12T15:06:49.001Z</time></trkpt><trkpt lat="45.499318020634476" lon="10.498981782993061"><ele>129.0</ele><time>2026-04-12T15:06:50.001Z</time></trkpt><trkpt lat="45.499210265813836" lon="10.498888716928446"><ele>128.0</ele><time>2026-04-12T15:06:51.001Z</time></trkpt><trkpt lat="45.4991018492825" lon="10.498795989624693"><ele>127.0</ele><time>2026-04-12T15:06:52.001Z</time></trkpt><trkpt lat="45.4989820896113" lon="10.498697611336597"><ele>126.0</ele><time>2026-04-12T15:06:53.001Z</time></trkpt><trkpt lat="45.49886451764146" lon="10.498543392706146"><ele>129.0</ele><time>2026-04-12T15:06:54.001Z</time></trkpt><trkpt lat="45.49872765203937" lon="10.49838384283212"><ele>132.0</ele><time>2026-04-12T15:06:55.001Z</time></trkpt><trkpt lat="45.49858232749185" lon="10.498207217318122"><ele>135.0</ele><time>2026-04-12T15:06:56.001Z</time></trkpt><trkpt lat="45.498425579874315" lon="10.49804036995979"><ele>139.0</ele><time>2026-04-12T15:06:57.001Z</time></trkpt><trkpt lat="45.49827661005962" lon="10.497855335139988"><ele>143.0</ele><time>2026-04-12T15:06:58.001Z</time></trkpt><trkpt lat="45.49812676428142" lon="10.49767779327694"><ele>147.0</ele><time>2026-04-12T15:06:59.001Z</time></trkpt><trkpt lat="45.49799020176081" lon="10.497516635543576"><ele>148.25</ele><time>2026-04-12T15:07:00.001Z</time></trkpt><trkpt lat="45.497865031447816" lon="10.49736517321255"><ele>149.5</ele><time>2026-04-12T15:07:01.001Z</time></trkpt><trkpt lat="45.497765428078175" lon="10.49721221720793"><ele>150.75</ele><time>2026-04-12T15:07:02.001Z</time></trkpt><trkpt lat="45.49768143612967" lon="10.497072781916465"><ele>152.0</ele><time>2026-04-12T15:07:03.001Z</time></trkpt><trkpt lat="45.49761220367723" lon="10.496907124274195"><ele>152.0</ele><time>2026-04-12T15:07:04.001Z</time></trkpt><trkpt lat="45.49754983394164" lon="10.496721396436756"><ele>152.0</ele><time>2026-04-12T15:07:05.001Z</time></trkpt><trkpt lat="45.4975492466009" lon="10.496504638093946"><ele>152.0</ele><time>2026-04-12T15:07:06.001Z</time></trkpt><trkpt lat="45.49757713221314" lon="10.496291028282476"><ele>152.0</ele><time>2026-04-12T15:07:07.001Z</time></trkpt><trkpt lat="45.497647829069855" lon="10.496081149473463"><ele>155.66666666666666</ele><time>2026-04-12T15:07:08.001Z</time></trkpt><trkpt lat="45.4977584080547" lon="10.495926458307805"><ele>159.33333333333334</ele><time>2026-04-12T15:07:09.001Z</time></trkpt><trkpt lat="45.4978889525109" lon="10.495807048426862"><ele>163.0</ele><time>2026-04-12T15:07:10.001Z</time></trkpt><trkpt lat="45.4980418491674" lon="10.495722021768383"><ele>164.33333333333334</ele><time>2026-04-12T15:07:11.001Z</time></trkpt><trkpt lat="45.49822018966021" lon="10.49568755732611"><ele>165.66666666666666</ele><time>2026-04-12T15:07:12.001Z</time></trkpt><trkpt lat="45.49840394339712" lon="10.49572716018056"><ele>167.0</ele><time>2026-04-12T15:07:13.001Z</time></trkpt><trkpt lat="45.498595702465124" lon="10.49578943161072"><ele>168.66666666666666</ele><time>2026-04-12T15:07:14.001Z</time></trkpt><trkpt lat="45.498789597907546" lon="10.495850362541244"><ele>170.33333333333334</ele><time>2026-04-12T15:07:15.001Z</time></trkpt><trkpt lat="45.49896663843521" lon="10.495889824605063"><ele>172.0</ele><time>2026-04-12T15:07:16.002Z</time></trkpt><trkpt lat="45.49912046701568" lon="10.495916252119317"><ele>172.0</ele><time>2026-04-12T15:07:17.002Z</time></trkpt><trkpt lat="45.499270406882026" lon="10.495919405686784"><ele>172.0</ele><time>2026-04-12T15:07:18.002Z</time></trkpt><trkpt lat="45.49942056024412" lon="10.495864901858587"><ele>172.0</ele><time>2026-04-12T15:07:19.002Z</time></trkpt><trkpt lat="45.499561564352454" lon="10.49576443730028"><ele>172.66666666666669</ele><time>2026-04-12T15:07:20.002Z</time></trkpt><trkpt lat="45.49969325828582" lon="10.495607163087245"><ele>173.33333333333334</ele><time>2026-04-12T15:07:21.002Z</time></trkpt><trkpt lat="45.49981888901605" lon="10.495421541987582"><ele>174.0</ele><time>2026-04-12T15:07:22.002Z</time></trkpt><trkpt lat="45.499941894708606" lon="10.495222404843325"><ele>176.33333333333334</ele><time>2026-04-12T15:07:23.002Z</time></trkpt><trkpt lat="45.500053550531405" lon="10.495007051095515"><ele>178.66666666666669</ele><time>2026-04-12T15:07:24.002Z</time></trkpt><trkpt lat="45.50016409543244" lon="10.494778239509742"><ele>181.0</ele><time>2026-04-12T15:07:25.002Z</time></trkpt><trkpt lat="45.50027380214344" lon="10.49454592175772"><ele>182.33333333333334</ele><time>2026-04-12T15:07:26.002Z</time></trkpt><trkpt lat="45.500393246729665" lon="10.494315350206998"><ele>183.66666666666666</ele><time>2026-04-12T15:07:27.002Z</time></trkpt><trkpt lat="45.50050300638247" lon="10.494109565520926"><ele>185.0</ele><time>2026-04-12T15:07:28.002Z</time></trkpt><trkpt lat="45.50060326008277" lon="10.49391632906711"><ele>185.66666666666666</ele><time>2026-04-12T15:07:29.002Z</time></trkpt><trkpt lat="45.50071870602704" lon="10.493760993801931"><ele>186.33333333333334</ele><time>2026-04-12T15:07:30.002Z</time></trkpt><trkpt lat="45.500860601179454" lon="10.493621593777387"><ele>187.0</ele><time>2026-04-12T15:07:31.002Z</time></trkpt><trkpt lat="45.5010053250608" lon="10.49349500435896"><ele>188.33333333333334</ele><time>2026-04-12T15:07:32.002Z</time></trkpt><trkpt lat="45.50116058727519" lon="10.493395914941159"><ele>189.66666666666666</ele><time>2026-04-12T15:07:33.002Z</time></trkpt><trkpt lat="45.50132896262479" lon="10.493329994928052"><ele>191.0</ele><time>2026-04-12T15:07:34.002Z</time></trkpt><trkpt lat="45.501497612842385" lon="10.493282341854824"><ele>191.75</ele><time>2026-04-12T15:07:35.002Z</time></trkpt><trkpt lat="45.50164293519706" lon="10.493249451534336"><ele>192.5</ele><time>2026-04-12T15:07:36.002Z</time></trkpt><trkpt lat="45.50177671773134" lon="10.493223816954124"><ele>193.25</ele><time>2026-04-12T15:07:37.002Z</time></trkpt><trkpt lat="45.50190375288577" lon="10.493202607292936"><ele>194.0</ele><time>2026-04-12T15:07:38.002Z</time></trkpt><trkpt lat="45.502032511755495" lon="10.493190440987371"><ele>195.0</ele><time>2026-04-12T15:07:39.002Z</time></trkpt><trkpt lat="45.50216909086823" lon="10.493181049810536"><ele>196.0</ele><time>2026-04-12T15:07:40.002Z</time></trkpt><trkpt lat="45.50230605975033" lon="10.493179678058024"><ele>197.0</ele><time>2026-04-12T15:07:41.002Z</time></trkpt><trkpt lat="45.50244552869432" lon="10.493182116582442"><ele>198.0</ele><time>2026-04-12T15:07:42.002Z</time></trkpt><trkpt lat="45.502575187390846" lon="10.493194310739707"><ele>198.0</ele><time>2026-04-12T15:07:43.002Z</time></trkpt><trkpt lat="45.502695731502875" lon="10.4932077212412"><ele>198.0</ele><time>2026-04-12T15:07:44.002Z</time></trkpt><trkpt lat="45.50280535607395" lon="10.493223606544886"><ele>198.0</ele><time>2026-04-12T15:07:45.002Z</time></trkpt><trkpt lat="45.502914441913525" lon="10.493245942623236"><ele>198.0</ele><time>2026-04-12T15:07:46.002Z</time></trkpt><trkpt lat="45.503028608270895" lon="10.493272743134513"><ele>197.8</ele><time>2026-04-12T15:07:47.002Z</time></trkpt><trkpt lat="45.50313839410119" lon="10.49331089313999"><ele>197.60000000000002</ele><time>2026-04-12T15:07:48.002Z</time></trkpt><trkpt lat="45.50324741010462" lon="10.493346047210146"><ele>197.39999999999998</ele><time>2026-04-12T15:07:49.002Z</time></trkpt><trkpt lat="45.503358067344976" lon="10.493386307743817"><ele>197.2</ele><time>2026-04-12T15:07:50.001Z</time></trkpt><trkpt lat="45.50346383445294" lon="10.493431207335535"><ele>197.0</ele><time>2026-04-12T15:07:51.001Z</time></trkpt><trkpt lat="45.503563750975474" lon="10.49348443508478"><ele>197.0</ele><time>2026-04-12T15:07:52.001Z</time></trkpt><trkpt lat="45.503665277392315" lon="10.493547172662815"><ele>197.0</ele><time>2026-04-12T15:07:53.001Z</time></trkpt><trkpt lat="45.503763309691685" lon="10.49361953336913"><ele>197.0</ele><time>2026-04-12T15:07:54.001Z</time></trkpt><trkpt lat="45.503852724292635" lon="10.49369941325873"><ele>197.0</ele><time>2026-04-12T15:07:55.001Z</time></trkpt><trkpt lat="45.50393530269916" lon="10.493772214800424"><ele>197.0</ele><time>2026-04-12T15:07:56.001Z</time></trkpt><trkpt lat="45.504013622365875" lon="10.493856264669628"><ele>197.39999999999998</ele><time>2026-04-12T15:07:57.001Z</time></trkpt><trkpt lat="45.504075996753436" lon="10.49394714159116"><ele>197.79999999999998</ele><time>2026-04-12T15:07:58.001Z</time></trkpt><trkpt lat="45.5041517015255" lon="10.493995581607932"><ele>198.2</ele><time>2026-04-12T15:07:59.001Z</time></trkpt><trkpt lat="45.50424258460494" lon="10.49397387573736"><ele>198.6</ele><time>2026-04-12T15:08:00.001Z</time></trkpt><trkpt lat="45.50432494160709" lon="10.493903851539253"><ele>199.0</ele><time>2026-04-12T15:08:01.001Z</time></trkpt><trkpt lat="45.504362960594555" lon="10.493777343963215"><ele>199.75</ele><time>2026-04-12T15:08:02.001Z</time></trkpt><trkpt lat="45.50436100415063" lon="10.493630304458087"><ele>200.5</ele><time>2026-04-12T15:08:03.001Z</time></trkpt><trkpt lat="45.504316128909785" lon="10.493476973758657"><ele>201.25</ele><time>2026-04-12T15:08:04.001Z</time></trkpt><trkpt lat="45.50426917741448" lon="10.493269187176638"><ele>202.0</ele><time>2026-04-12T15:08:05.001Z</time></trkpt><trkpt lat="45.50423584462856" lon="10.493040169717844"><ele>202.66666666666666</ele><time>2026-04-12T15:08:06.001Z</time></trkpt><trkpt lat="45.50419028540538" lon="10.492768361208793"><ele>203.33333333333331</ele><time>2026-04-12T15:08:07.001Z</time></trkpt><trkpt lat="45.504143041488426" lon="10.492469597687412"><ele>204.0</ele><time>2026-04-12T15:08:08.001Z</time></trkpt><trkpt lat="45.50409247695136" lon="10.492159249650886"><ele>203.66666666666669</ele><time>2026-04-12T15:08:09.001Z</time></trkpt><trkpt lat="45.50405067496047" lon="10.49185898661801"><ele>203.33333333333334</ele><time>2026-04-12T15:08:10.001Z</time></trkpt><trkpt lat="45.5040207579391" lon="10.491597989085573"><ele>203.0</ele><time>2026-04-12T15:08:11.001Z</time></trkpt><trkpt lat="45.50399380921849" lon="10.49135959010914"><ele>202.33333333333334</ele><time>2026-04-12T15:08:12.001Z</time></trkpt><trkpt lat="45.50398745105092" lon="10.491132599430442"><ele>201.66666666666669</ele><time>2026-04-12T15:08:13.001Z</time></trkpt><trkpt lat="45.50401889263098" lon="10.490921520220015"><ele>201.0</ele><time>2026-04-12T15:08:14.001Z</time></trkpt><trkpt lat="45.50408379413" lon="10.4907233470116"><ele>201.0</ele><time>2026-04-12T15:08:15.001Z</time></trkpt><trkpt lat="45.50418162288541" lon="10.490537836776873"><ele>201.0</ele><time>2026-04-12T15:08:16.001Z</time></trkpt><trkpt lat="45.50430019899286" lon="10.490386860176102"><ele>201.0</ele><time>2026-04-12T15:08:17.001Z</time></trkpt><trkpt lat="45.50444225712023" lon="10.490262785568124"><ele>200.75</ele><time>2026-04-12T15:08:18.001Z</time></trkpt><trkpt lat="45.504577193971976" lon="10.490157991230527"><ele>200.5</ele><time>2026-04-12T15:08:19.001Z</time></trkpt><trkpt lat="45.50470568704732" lon="10.490075229316991"><ele>200.25</ele><time>2026-04-12T15:08:20.001Z</time></trkpt><trkpt lat="45.504822811360725" lon="10.489998815864208"><ele>200.0</ele><time>2026-04-12T15:08:21.001Z</time></trkpt><trkpt lat="45.504929979751694" lon="10.4899204789957"><ele>200.0</ele><time>2026-04-12T15:08:22.001Z</time></trkpt><trkpt lat="45.505033389544906" lon="10.489842902110066"><ele>200.0</ele><time>2026-04-12T15:08:23.001Z</time></trkpt><trkpt lat="45.50513901081903" lon="10.489764887146208"><ele>200.0</ele><time>2026-04-12T15:08:24.001Z</time></trkpt><trkpt lat="45.50525292220913" lon="10.489700910132916"><ele>200.0</ele><time>2026-04-12T15:08:25.001Z</time></trkpt><trkpt lat="45.50537143531092" lon="10.489649583366884"><ele>200.25</ele><time>2026-04-12T15:08:26.001Z</time></trkpt><trkpt lat="45.50549869164404" lon="10.489604161418248"><ele>200.5</ele><time>2026-04-12T15:08:27.001Z</time></trkpt><trkpt lat="45.50562116682756" lon="10.489551713825723"><ele>200.75</ele><time>2026-04-12T15:08:28.001Z</time></trkpt><trkpt lat="45.505748100326336" lon="10.489509960924712"><ele>201.0</ele><time>2026-04-12T15:08:29.001Z</time></trkpt><trkpt lat="45.50586734542042" lon="10.489468815756377"><ele>201.0</ele><time>2026-04-12T15:08:30.001Z</time></trkpt><trkpt lat="45.505974697033615" lon="10.489432771200134"><ele>201.0</ele><time>2026-04-12T15:08:31.001Z</time></trkpt><trkpt lat="45.506075451334944" lon="10.489398743381638"><ele>201.0</ele><time>2026-04-12T15:08:32.001Z</time></trkpt><trkpt lat="45.50617361845214" lon="10.489348513030057"><ele>201.0</ele><time>2026-04-12T15:08:33.001Z</time></trkpt><trkpt lat="45.50627701473521" lon="10.489268962478134"><ele>201.0</ele><time>2026-04-12T15:08:34.001Z</time></trkpt><trkpt lat="45.50636280894271" lon="10.489152812208841"><ele>201.5</ele><time>2026-04-12T15:08:35.001Z</time></trkpt><trkpt lat="45.50643268852287" lon="10.489011505520162"><ele>202.0</ele><time>2026-04-12T15:08:36.001Z</time></trkpt><trkpt lat="45.50647945471202" lon="10.488852435587138"><ele>202.5</ele><time>2026-04-12T15:08:37.001Z</time></trkpt><trkpt lat="45.50650013490811" lon="10.488676572000077"><ele>203.0</ele><time>2026-04-12T15:08:38.001Z</time></trkpt><trkpt lat="45.50649430028079" lon="10.488486551873468"><ele>203.33333333333334</ele><time>2026-04-12T15:08:39.001Z</time></trkpt><trkpt lat="45.506464836638195" lon="10.488291560558043"><ele>203.66666666666669</ele><time>2026-04-12T15:08:40.001Z</time></trkpt><trkpt lat="45.50641745953694" lon="10.488087660782375"><ele>204.0</ele><time>2026-04-12T15:08:41.001Z</time></trkpt><trkpt lat="45.506354498001116" lon="10.487864425288924"><ele>202.33333333333331</ele><time>2026-04-12T15:08:42.001Z</time></trkpt><trkpt lat="45.50628758937159" lon="10.487632632554758"><ele>200.66666666666666</ele><time>2026-04-12T15:08:43.001Z</time></trkpt><trkpt lat="45.50620957559122" lon="10.487397295546344"><ele>199.0</ele><time>2026-04-12T15:08:44.001Z</time></trkpt><trkpt lat="45.50611909734757" lon="10.487167931115634"><ele>202.0</ele><time>2026-04-12T15:08:45.001Z</time></trkpt><trkpt lat="45.506009980465954" lon="10.486935726185461"><ele>205.0</ele><time>2026-04-12T15:08:46.001Z</time></trkpt><trkpt lat="45.50588079354266" lon="10.486693951271517"><ele>208.0</ele><time>2026-04-12T15:08:47.001Z</time></trkpt><trkpt lat="45.505756678922616" lon="10.486420654966038"><ele>215.0</ele><time>2026-04-12T15:08:48.001Z</time></trkpt><trkpt lat="45.50560600799322" lon="10.486119360273214"><ele>222.0</ele><time>2026-04-12T15:08:49.001Z</time></trkpt><trkpt lat="45.505447261370875" lon="10.485797672144434"><ele>217.5</ele><time>2026-04-12T15:08:50.001Z</time></trkpt><trkpt lat="45.505266852921906" lon="10.485466114503065"><ele>213.0</ele><time>2026-04-12T15:08:51.001Z</time></trkpt><trkpt lat="45.50509922046342" lon="10.485108223911858"><ele>213.0</ele><time>2026-04-12T15:08:52.001Z</time></trkpt><trkpt lat="45.5049221777283" lon="10.48475194362566"><ele>213.0</ele><time>2026-04-12T15:08:53.001Z</time></trkpt><trkpt lat="45.50475082984923" lon="10.484423545467786"><ele>210.0</ele><time>2026-04-12T15:08:54.001Z</time></trkpt><trkpt lat="45.50459922517469" lon="10.484126938893567"><ele>207.0</ele><time>2026-04-12T15:08:55.001Z</time></trkpt><trkpt lat="45.504456483842986" lon="10.483843943171813"><ele>211.0</ele><time>2026-04-12T15:08:56.001Z</time></trkpt><trkpt lat="45.50432626969782" lon="10.483582676035875"><ele>215.0</ele><time>2026-04-12T15:08:57.001Z</time></trkpt><trkpt lat="45.50421108504755" lon="10.483353190533142"><ele>219.0</ele><time>2026-04-12T15:08:58.001Z</time></trkpt><trkpt lat="45.50410345311257" lon="10.483140830297742"><ele>219.0</ele><time>2026-04-12T15:08:59.001Z</time></trkpt><trkpt lat="45.504007030918125" lon="10.482934923988916"><ele>219.0</ele><time>2026-04-12T15:09:00.001Z</time></trkpt><trkpt lat="45.50393225824459" lon="10.482725530865817"><ele>219.0</ele><time>2026-04-12T15:09:01.001Z</time></trkpt><trkpt lat="45.503899144264366" lon="10.48248500310389"><ele>220.66666666666669</ele><time>2026-04-12T15:09:02.001Z</time></trkpt><trkpt lat="45.50386228296082" lon="10.482236650483143"><ele>222.33333333333334</ele><time>2026-04-12T15:09:03.001Z</time></trkpt><trkpt lat="45.50386411538276" lon="10.481985429616529"><ele>224.0</ele><time>2026-04-12T15:09:04.001Z</time></trkpt><trkpt lat="45.503896097048255" lon="10.481729232458333"><ele>224.0</ele><time>2026-04-12T15:09:05.001Z</time></trkpt><trkpt lat="45.50396506086642" lon="10.481472490403474"><ele>224.0</ele><time>2026-04-12T15:09:06.001Z</time></trkpt><trkpt lat="45.50402455680831" lon="10.481189424072975"><ele>224.0</ele><time>2026-04-12T15:09:07.001Z</time></trkpt><trkpt lat="45.50411099977341" lon="10.480888051680203"><ele>223.33333333333334</ele><time>2026-04-12T15:09:08.001Z</time></trkpt><trkpt lat="45.50418579971559" lon="10.480592163065346"><ele>222.66666666666669</ele><time>2026-04-12T15:09:09.001Z</time></trkpt><trkpt lat="45.50424869586052" lon="10.480312083174953"><ele>222.0</ele><time>2026-04-12T15:09:10.001Z</time></trkpt><trkpt lat="45.504361551300065" lon="10.48005682352523"><ele>220.0</ele><time>2026-04-12T15:09:11.001Z</time></trkpt><trkpt lat="45.50447031767576" lon="10.479796626708081"><ele>218.0</ele><time>2026-04-12T15:09:12.001Z</time></trkpt><trkpt lat="45.50457897125499" lon="10.479545695892183"><ele>216.0</ele><time>2026-04-12T15:09:13.001Z</time></trkpt><trkpt lat="45.504719563131765" lon="10.47937609049454"><ele>215.0</ele><time>2026-04-12T15:09:14.001Z</time></trkpt><trkpt lat="45.50486772261937" lon="10.479226711244602"><ele>214.0</ele><time>2026-04-12T15:09:15.001Z</time></trkpt><trkpt lat="45.505026665980964" lon="10.479068157529774"><ele>213.0</ele><time>2026-04-12T15:09:16.001Z</time></trkpt><trkpt lat="45.50520458513357" lon="10.478929103309504"><ele>213.0</ele><time>2026-04-12T15:09:17.001Z</time></trkpt><trkpt lat="45.5053670163607" lon="10.478794719688363"><ele>213.0</ele><time>2026-04-12T15:09:18.001Z</time></trkpt><trkpt lat="45.50552259842311" lon="10.478666517093329"><ele>213.0</ele><time>2026-04-12T15:09:19.001Z</time></trkpt><trkpt lat="45.50567174179905" lon="10.478540688768025"><ele>212.0</ele><time>2026-04-12T15:09:20.001Z</time></trkpt><trkpt lat="45.50580298919535" lon="10.478380601010386"><ele>211.0</ele><time>2026-04-12T15:09:21.001Z</time></trkpt><trkpt lat="45.505915321763055" lon="10.47817335852737"><ele>210.0</ele><time>2026-04-12T15:09:22.001Z</time></trkpt><trkpt lat="45.50598564270349" lon="10.477920656633268"><ele>210.0</ele><time>2026-04-12T15:09:23.001Z</time></trkpt><trkpt lat="45.50603779538825" lon="10.477651401333226"><ele>210.0</ele><time>2026-04-12T15:09:24.002Z</time></trkpt><trkpt lat="45.5060652618319" lon="10.477375749885924"><ele>210.0</ele><time>2026-04-12T15:09:25.002Z</time></trkpt><trkpt lat="45.50606619088044" lon="10.477107979410338"><ele>208.33333333333331</ele><time>2026-04-12T15:09:26.002Z</time></trkpt><trkpt lat="45.50606051134002" lon="10.47684554398253"><ele>206.66666666666666</ele><time>2026-04-12T15:09:27.002Z</time></trkpt><trkpt lat="45.506047352185064" lon="10.476601334726496"><ele>205.0</ele><time>2026-04-12T15:09:28.002Z</time></trkpt><trkpt lat="45.50603312600124" lon="10.476358813092908"><ele>203.33333333333331</ele><time>2026-04-12T15:09:29.002Z</time></trkpt><trkpt lat="45.50604711848222" lon="10.476127569159209"><ele>201.66666666666669</ele><time>2026-04-12T15:09:30.002Z</time></trkpt><trkpt lat="45.50605320479527" lon="10.475892497501626"><ele>200.0</ele><time>2026-04-12T15:09:31.002Z</time></trkpt><trkpt lat="45.506091660835146" lon="10.475664964028068"><ele>200.0</ele><time>2026-04-12T15:09:32.002Z</time></trkpt><trkpt lat="45.50613784445097" lon="10.475453052522742"><ele>200.0</ele><time>2026-04-12T15:09:33.002Z</time></trkpt><trkpt lat="45.50618101488027" lon="10.475242822578057"><ele>200.0</ele><time>2026-04-12T15:09:34.002Z</time></trkpt><trkpt lat="45.506227026886286" lon="10.47503978718783"><ele>198.5</ele><time>2026-04-12T15:09:35.002Z</time></trkpt><trkpt lat="45.506270908658756" lon="10.47485551278685"><ele>197.0</ele><time>2026-04-12T15:09:36.002Z</time></trkpt><trkpt lat="45.50630099613752" lon="10.474666896594442"><ele>195.5</ele><time>2026-04-12T15:09:37.002Z</time></trkpt><trkpt lat="45.506325509047784" lon="10.474494715054693"><ele>194.0</ele><time>2026-04-12T15:09:38.002Z</time></trkpt><trkpt lat="45.506344286601085" lon="10.474333264969188"><ele>194.00000000000003</ele><time>2026-04-12T15:09:39.002Z</time></trkpt><trkpt lat="45.506378578152336" lon="10.47420737481444"><ele>194.0</ele><time>2026-04-12T15:09:40.002Z</time></trkpt><trkpt lat="45.5063801499514" lon="10.474092787804619"><ele>194.0</ele><time>2026-04-12T15:09:41.002Z</time></trkpt><trkpt lat="45.506397440570915" lon="10.473982457356025"><ele>194.0</ele><time>2026-04-12T15:09:42.002Z</time></trkpt><trkpt lat="45.50641127815044" lon="10.473872436543706"><ele>194.00000000000003</ele><time>2026-04-12T15:09:43.002Z</time></trkpt><trkpt lat="45.506425448850756" lon="10.473760177593551"><ele>194.0</ele><time>2026-04-12T15:09:44.002Z</time></trkpt><trkpt lat="45.50644299404051" lon="10.473636921228552"><ele>194.2</ele><time>2026-04-12T15:09:45.002Z</time></trkpt><trkpt lat="45.50645986986862" lon="10.473504900126997"><ele>194.39999999999998</ele><time>2026-04-12T15:09:46.002Z</time></trkpt><trkpt lat="45.50647417812434" lon="10.473371432477022"><ele>194.6</ele><time>2026-04-12T15:09:47.002Z</time></trkpt><trkpt lat="45.50648919479907" lon="10.473229353984477"><ele>194.8</ele><time>2026-04-12T15:09:48.002Z</time></trkpt><trkpt lat="45.50650449572587" lon="10.473078376625145"><ele>195.0</ele><time>2026-04-12T15:09:49.002Z</time></trkpt><trkpt lat="45.50651945991121" lon="10.472926456212507"><ele>195.5</ele><time>2026-04-12T15:09:50.002Z</time></trkpt><trkpt lat="45.50653573140954" lon="10.472770895358043"><ele>196.0</ele><time>2026-04-12T15:09:51.002Z</time></trkpt><trkpt lat="45.506552489525816" lon="10.472605885157233"><ele>196.5</ele><time>2026-04-12T15:09:52.002Z</time></trkpt><trkpt lat="45.5065697361617" lon="10.472436811949775"><ele>197.0</ele><time>2026-04-12T15:09:53.002Z</time></trkpt><trkpt lat="45.50659204559542" lon="10.472262770511621"><ele>196.0</ele><time>2026-04-12T15:09:54.002Z</time></trkpt><trkpt lat="45.50660919470422" lon="10.47208178316048"><ele>195.0</ele><time>2026-04-12T15:09:55.002Z</time></trkpt><trkpt lat="45.50663190584593" lon="10.471901147426873"><ele>194.0</ele><time>2026-04-12T15:09:56.001Z</time></trkpt><trkpt lat="45.506656723467415" lon="10.47172787621622"><ele>193.0</ele><time>2026-04-12T15:09:57.001Z</time></trkpt><trkpt lat="45.506690627137814" lon="10.471564540871217"><ele>193.0</ele><time>2026-04-12T15:09:58.001Z</time></trkpt><trkpt lat="45.506729349682985" lon="10.471416115880597"><ele>193.0</ele><time>2026-04-12T15:09:59.001Z</time></trkpt><trkpt lat="45.506770588263954" lon="10.471275383554618"><ele>193.0</ele><time>2026-04-12T15:10:00.001Z</time></trkpt><trkpt lat="45.506808868053845" lon="10.471134913422867"><ele>193.0</ele><time>2026-04-12T15:10:01.001Z</time></trkpt><trkpt lat="45.50684720860413" lon="10.47098858200446"><ele>193.0</ele><time>2026-04-12T15:10:02.001Z</time></trkpt><trkpt lat="45.50688934506577" lon="10.47083073621678"><ele>192.5</ele><time>2026-04-12T15:10:03.001Z</time></trkpt><trkpt lat="45.50692743546604" lon="10.470666429078218"><ele>192.0</ele><time>2026-04-12T15:10:04.001Z</time></trkpt><trkpt lat="45.50696212327863" lon="10.470504335176054"><ele>191.5</ele><time>2026-04-12T15:10:05.001Z</time></trkpt><trkpt lat="45.5069906634865" lon="10.470337554451161"><ele>191.0</ele><time>2026-04-12T15:10:06.001Z</time></trkpt><trkpt lat="45.50702741012372" lon="10.470163760319783"><ele>191.25</ele><time>2026-04-12T15:10:07.001Z</time></trkpt><trkpt lat="45.50705201197166" lon="10.469980266375144"><ele>191.5</ele><time>2026-04-12T15:10:08.001Z</time></trkpt><trkpt lat="45.50708013205785" lon="10.469793467865621"><ele>191.75</ele><time>2026-04-12T15:10:09.001Z</time></trkpt><trkpt lat="45.50709916569173" lon="10.469616792143032"><ele>192.0</ele><time>2026-04-12T15:10:10.001Z</time></trkpt><trkpt lat="45.5071131219744" lon="10.46945179059383"><ele>191.6</ele><time>2026-04-12T15:10:11.001Z</time></trkpt><trkpt lat="45.50711794872091" lon="10.469298995857985"><ele>191.2</ele><time>2026-04-12T15:10:12.001Z</time></trkpt><trkpt lat="45.50712020419921" lon="10.469149051726761"><ele>190.8</ele><time>2026-04-12T15:10:13.001Z</time></trkpt><trkpt lat="45.50710818918723" lon="10.469003544657566"><ele>190.4</ele><time>2026-04-12T15:10:14.001Z</time></trkpt><trkpt lat="45.507090802390444" lon="10.468855974118796"><ele>190.0</ele><time>2026-04-12T15:10:15.001Z</time></trkpt><trkpt lat="45.507071314062635" lon="10.468704045832288"><ele>189.2</ele><time>2026-04-12T15:10:16.001Z</time></trkpt><trkpt lat="45.50704341545129" lon="10.468555092649062"><ele>188.4</ele><time>2026-04-12T15:10:17.001Z</time></trkpt><trkpt lat="45.50702315583247" lon="10.468406346306478"><ele>187.60000000000002</ele><time>2026-04-12T15:10:18.001Z</time></trkpt><trkpt lat="45.507002571897985" lon="10.468256032532807"><ele>186.8</ele><time>2026-04-12T15:10:19.001Z</time></trkpt><trkpt lat="45.50697541438384" lon="10.468101334575406"><ele>186.0</ele><time>2026-04-12T15:10:20.001Z</time></trkpt><trkpt lat="45.50694853959027" lon="10.467935657443904"><ele>185.25</ele><time>2026-04-12T15:10:21.001Z</time></trkpt><trkpt lat="45.506927280265515" lon="10.46776829987907"><ele>184.5</ele><time>2026-04-12T15:10:22.001Z</time></trkpt><trkpt lat="45.50689932319326" lon="10.46759977933093"><ele>183.75</ele><time>2026-04-12T15:10:23.001Z</time></trkpt><trkpt lat="45.50687544115019" lon="10.467425398498374"><ele>183.0</ele><time>2026-04-12T15:10:24.001Z</time></trkpt><trkpt lat="45.506854403153284" lon="10.467250029586523"><ele>183.25</ele><time>2026-04-12T15:10:25.001Z</time></trkpt><trkpt lat="45.50682487164936" lon="10.467077482766001"><ele>183.5</ele><time>2026-04-12T15:10:26.001Z</time></trkpt><trkpt lat="45.50679505149167" lon="10.466912135276608"><ele>183.75</ele><time>2026-04-12T15:10:27.001Z</time></trkpt><trkpt lat="45.506767580852994" lon="10.466743319308085"><ele>184.0</ele><time>2026-04-12T15:10:28.001Z</time></trkpt><trkpt lat="45.506744629126224" lon="10.466585282975043"><ele>184.0</ele><time>2026-04-12T15:10:29.001Z</time></trkpt><trkpt lat="45.506722460245165" lon="10.46642550639948"><ele>184.0</ele><time>2026-04-12T15:10:30.001Z</time></trkpt><trkpt lat="45.50669588274357" lon="10.466257170696489"><ele>184.0</ele><time>2026-04-12T15:10:31.001Z</time></trkpt><trkpt lat="45.50667048122876" lon="10.466086225089809"><ele>184.0</ele><time>2026-04-12T15:10:32.001Z</time></trkpt><trkpt lat="45.50665576462203" lon="10.465912690198728"><ele>183.79999999999998</ele><time>2026-04-12T15:10:33.001Z</time></trkpt><trkpt lat="45.50667299264744" lon="10.465752426490411"><ele>183.6</ele><time>2026-04-12T15:10:34.001Z</time></trkpt><trkpt lat="45.506667034923495" lon="10.465597282822307"><ele>183.4</ele><time>2026-04-12T15:10:35.001Z</time></trkpt><trkpt lat="45.50668321092334" lon="10.465459452670308"><ele>183.2</ele><time>2026-04-12T15:10:36.001Z</time></trkpt><trkpt lat="45.506695245143845" lon="10.465329593671212"><ele>183.0</ele><time>2026-04-12T15:10:37.001Z</time></trkpt><trkpt lat="45.50670987437152" lon="10.465206481722381"><ele>183.0</ele><time>2026-04-12T15:10:38.001Z</time></trkpt><trkpt lat="45.50672353656193" lon="10.465093121827351"><ele>183.0</ele><time>2026-04-12T15:10:39.001Z</time></trkpt><trkpt lat="45.506737372577696" lon="10.464979613875613"><ele>183.0</ele><time>2026-04-12T15:10:40.001Z</time></trkpt><trkpt lat="45.50675305581891" lon="10.464874515603196"><ele>183.0</ele><time>2026-04-12T15:10:41.001Z</time></trkpt><trkpt lat="45.506761268571736" lon="10.464759164876224"><ele>183.0</ele><time>2026-04-12T15:10:42.001Z</time></trkpt><trkpt lat="45.506769461883664" lon="10.464648706961519"><ele>183.0</ele><time>2026-04-12T15:10:43.001Z</time></trkpt><trkpt lat="45.50677833137588" lon="10.464544933297953"><ele>182.83333333333334</ele><time>2026-04-12T15:10:44.001Z</time></trkpt><trkpt lat="45.50678942229508" lon="10.464448186063203"><ele>182.66666666666666</ele><time>2026-04-12T15:10:45.001Z</time></trkpt><trkpt lat="45.50680108482493" lon="10.464358754273771"><ele>182.5</ele><time>2026-04-12T15:10:46.001Z</time></trkpt><trkpt lat="45.506833966772405" lon="10.464204300091485"><ele>182.33333333333331</ele><time>2026-04-12T15:10:48.001Z</time></trkpt><trkpt lat="45.50687400311599" lon="10.464066440010024"><ele>182.16666666666666</ele><time>2026-04-12T15:10:50.001Z</time></trkpt><trkpt lat="45.50690839826296" lon="10.46395552048409"><ele>182.0</ele><time>2026-04-12T15:10:52.001Z</time></trkpt><trkpt lat="45.506922803332614" lon="10.46385195882532"><ele>182.0</ele><time>2026-04-12T15:10:54.001Z</time></trkpt><trkpt lat="45.50691303881737" lon="10.463722936464624"><ele>182.0</ele><time>2026-04-12T15:10:56.001Z</time></trkpt><trkpt lat="45.50683797818679" lon="10.463565523466196"><ele>182.0</ele><time>2026-04-12T15:10:58.001Z</time></trkpt><trkpt lat="45.50678754746125" lon="10.463440364678757"><ele>182.0</ele><time>2026-04-12T15:10:59.001Z</time></trkpt><trkpt lat="45.5067381521171" lon="10.463289351664022"><ele>182.0</ele><time>2026-04-12T15:11:00.001Z</time></trkpt><trkpt lat="45.50669465695068" lon="10.463124932285801"><ele>182.0</ele><time>2026-04-12T15:11:01.001Z</time></trkpt><trkpt lat="45.5066801902896" lon="10.462956652512153"><ele>182.0</ele><time>2026-04-12T15:11:02.001Z</time></trkpt><trkpt lat="45.50663395615043" lon="10.462791441264256"><ele>182.0</ele><time>2026-04-12T15:11:03.001Z</time></trkpt><trkpt lat="45.506597934663404" lon="10.462605017663833"><ele>182.0</ele><time>2026-04-12T15:11:04.001Z</time></trkpt><trkpt lat="45.50656158125769" lon="10.462413259569697"><ele>182.0</ele><time>2026-04-12T15:11:05.001Z</time></trkpt><trkpt lat="45.50651880668172" lon="10.46221117311909"><ele>182.0</ele><time>2026-04-12T15:11:06.001Z</time></trkpt><trkpt lat="45.50647599360174" lon="10.461998353762176"><ele>182.0</ele><time>2026-04-12T15:11:07.001Z</time></trkpt><trkpt lat="45.506429865980245" lon="10.461769343325109"><ele>181.66666666666666</ele><time>2026-04-12T15:11:08.001Z</time></trkpt><trkpt lat="45.50638848115128" lon="10.46153010981045"><ele>181.33333333333334</ele><time>2026-04-12T15:11:09.001Z</time></trkpt><trkpt lat="45.50633422457347" lon="10.461292716078587"><ele>181.0</ele><time>2026-04-12T15:11:10.001Z</time></trkpt><trkpt lat="45.50628871988779" lon="10.461043958804096"><ele>181.0</ele><time>2026-04-12T15:11:11.001Z</time></trkpt><trkpt lat="45.50624376312022" lon="10.46078822165669"><ele>181.0</ele><time>2026-04-12T15:11:12.001Z</time></trkpt><trkpt lat="45.50619777287074" lon="10.460519835899754"><ele>181.0</ele><time>2026-04-12T15:11:13.001Z</time></trkpt><trkpt lat="45.50615622143031" lon="10.46025668368245"><ele>181.0</ele><time>2026-04-12T15:11:14.001Z</time></trkpt><trkpt lat="45.506115714979245" lon="10.45998069297076"><ele>181.0</ele><time>2026-04-12T15:11:15.001Z</time></trkpt><trkpt lat="45.50607680198846" lon="10.459701823813823"><ele>181.0</ele><time>2026-04-12T15:11:16.001Z</time></trkpt><trkpt lat="45.50604078409721" lon="10.459414327068606"><ele>180.66666666666669</ele><time>2026-04-12T15:11:17.001Z</time></trkpt><trkpt lat="45.5059998529633" lon="10.459123877733331"><ele>180.33333333333334</ele><time>2026-04-12T15:11:18.001Z</time></trkpt><trkpt lat="45.5059632371622" lon="10.45883334648945"><ele>180.0</ele><time>2026-04-12T15:11:19.001Z</time></trkpt><trkpt lat="45.50592797050578" lon="10.458537431682988"><ele>179.66666666666666</ele><time>2026-04-12T15:11:20.001Z</time></trkpt><trkpt lat="45.50589095668063" lon="10.45823851171214"><ele>179.33333333333331</ele><time>2026-04-12T15:11:21.001Z</time></trkpt><trkpt lat="45.505853771407615" lon="10.457938121083336"><ele>179.0</ele><time>2026-04-12T15:11:22.001Z</time></trkpt><trkpt lat="45.50581673430007" lon="10.457641328637335"><ele>178.66666666666666</ele><time>2026-04-12T15:11:23.001Z</time></trkpt><trkpt lat="45.50577871355881" lon="10.457341198838847"><ele>178.33333333333334</ele><time>2026-04-12T15:11:24.001Z</time></trkpt><trkpt lat="45.50574546182266" lon="10.45703944583791"><ele>178.0</ele><time>2026-04-12T15:11:25.001Z</time></trkpt><trkpt lat="45.505711704211464" lon="10.456742430691556"><ele>178.0</ele><time>2026-04-12T15:11:26.001Z</time></trkpt><trkpt lat="45.5056842861707" lon="10.456444484190667"><ele>178.0</ele><time>2026-04-12T15:11:27.001Z</time></trkpt><trkpt lat="45.50566128357273" lon="10.45614062379754"><ele>178.0</ele><time>2026-04-12T15:11:28.001Z</time></trkpt><trkpt lat="45.50563873410339" lon="10.455846044831357"><ele>178.0</ele><time>2026-04-12T15:11:29.001Z</time></trkpt><trkpt lat="45.5056187908756" lon="10.45556948431156"><ele>178.0</ele><time>2026-04-12T15:11:30.001Z</time></trkpt><trkpt lat="45.50560882253304" lon="10.455305582957552"><ele>178.0</ele><time>2026-04-12T15:11:31.001Z</time></trkpt><trkpt lat="45.50560797906012" lon="10.455056835276844"><ele>177.75</ele><time>2026-04-12T15:11:32.001Z</time></trkpt><trkpt lat="45.505603528430356" lon="10.45483182553598"><ele>177.5</ele><time>2026-04-12T15:11:33.001Z</time></trkpt><trkpt lat="45.505611576699984" lon="10.454635917987659"><ele>177.25</ele><time>2026-04-12T15:11:34.001Z</time></trkpt><trkpt lat="45.50564084808512" lon="10.454464798672024"><ele>177.0</ele><time>2026-04-12T15:11:35.001Z</time></trkpt><trkpt lat="45.50569209893887" lon="10.454315193317987"><ele>177.0</ele><time>2026-04-12T15:11:36.001Z</time></trkpt><trkpt lat="45.505776164348894" lon="10.454207991780274"><ele>177.0</ele><time>2026-04-12T15:11:37.001Z</time></trkpt><trkpt lat="45.505850518058686" lon="10.454097929690604"><ele>177.0</ele><time>2026-04-12T15:11:38.001Z</time></trkpt><trkpt lat="45.50592936035719" lon="10.454013360890114"><ele>177.0</ele><time>2026-04-12T15:11:39.001Z</time></trkpt><trkpt lat="45.50598539333084" lon="10.453908489030452"><ele>177.0</ele><time>2026-04-12T15:11:40.001Z</time></trkpt><trkpt lat="45.50600959212026" lon="10.453789530688992"><ele>176.83333333333334</ele><time>2026-04-12T15:11:41.001Z</time></trkpt><trkpt lat="45.50600935493361" lon="10.453671894229197"><ele>176.66666666666666</ele><time>2026-04-12T15:11:42.001Z</time></trkpt><trkpt lat="45.50598561490368" lon="10.453562169600657"><ele>176.5</ele><time>2026-04-12T15:11:43.001Z</time></trkpt><trkpt lat="45.50593194727133" lon="10.4534647568999"><ele>176.33333333333331</ele><time>2026-04-12T15:11:44.001Z</time></trkpt><trkpt lat="45.50586513596127" lon="10.453397596351431"><ele>176.16666666666666</ele><time>2026-04-12T15:11:45.001Z</time></trkpt><trkpt lat="45.50578483822194" lon="10.45336525106095"><ele>176.0</ele><time>2026-04-12T15:11:46.001Z</time></trkpt><trkpt lat="45.50569015763119" lon="10.45336109676709"><ele>176.0</ele><time>2026-04-12T15:11:47.001Z</time></trkpt><trkpt lat="45.50559667948414" lon="10.453413342196393"><ele>176.0</ele><time>2026-04-12T15:11:48.001Z</time></trkpt><trkpt lat="45.50551579778582" lon="10.453477597305744"><ele>176.0</ele><time>2026-04-12T15:11:49.002Z</time></trkpt><trkpt lat="45.50541954605969" lon="10.453547015535435"><ele>176.0</ele><time>2026-04-12T15:11:50.002Z</time></trkpt><trkpt lat="45.50531476070062" lon="10.453570319999443"><ele>176.0</ele><time>2026-04-12T15:11:51.002Z</time></trkpt><trkpt lat="45.50519611273419" lon="10.453526333203934"><ele>176.0</ele><time>2026-04-12T15:11:52.002Z</time></trkpt><trkpt lat="45.50506908240317" lon="10.453489936945482"><ele>176.0</ele><time>2026-04-12T15:11:53.002Z</time></trkpt><trkpt lat="45.50492774468588" lon="10.453474693852492"><ele>176.0</ele><time>2026-04-12T15:11:54.002Z</time></trkpt><trkpt lat="45.504779365234214" lon="10.453424802372249"><ele>176.0</ele><time>2026-04-12T15:11:55.002Z</time></trkpt><trkpt lat="45.50462562209342" lon="10.45337671736845"><ele>176.0</ele><time>2026-04-12T15:11:56.002Z</time></trkpt><trkpt lat="45.50446899374717" lon="10.453333080371385"><ele>176.0</ele><time>2026-04-12T15:11:57.002Z</time></trkpt><trkpt lat="45.504302845428725" lon="10.453284859524317"><ele>176.0</ele><time>2026-04-12T15:11:58.002Z</time></trkpt><trkpt lat="45.504144224242594" lon="10.453237266128447"><ele>176.0</ele><time>2026-04-12T15:11:59.002Z</time></trkpt><trkpt lat="45.50396743026479" lon="10.453186830932573"><ele>176.0</ele><time>2026-04-12T15:12:00.002Z</time></trkpt><trkpt lat="45.503798396291835" lon="10.453113542074709"><ele>176.0</ele><time>2026-04-12T15:12:01.002Z</time></trkpt><trkpt lat="45.503613419021036" lon="10.453077523243087"><ele>175.66666666666666</ele><time>2026-04-12T15:12:02.001Z</time></trkpt><trkpt lat="45.503431264733464" lon="10.453020856443423"><ele>175.33333333333334</ele><time>2026-04-12T15:12:03.001Z</time></trkpt><trkpt lat="45.50324710746342" lon="10.452955670742826"><ele>175.0</ele><time>2026-04-12T15:12:04.001Z</time></trkpt><trkpt lat="45.503063303571736" lon="10.452864393017691"><ele>174.33333333333334</ele><time>2026-04-12T15:12:05.001Z</time></trkpt><trkpt lat="45.50287386987535" lon="10.452801797603312"><ele>173.66666666666666</ele><time>2026-04-12T15:12:06.001Z</time></trkpt><trkpt lat="45.502688231788866" lon="10.45270728761256"><ele>173.0</ele><time>2026-04-12T15:12:07.001Z</time></trkpt><trkpt lat="45.50250426997883" lon="10.45260519139283"><ele>173.0</ele><time>2026-04-12T15:12:08.001Z</time></trkpt><trkpt lat="45.50232528471995" lon="10.452495499721463"><ele>173.0</ele><time>2026-04-12T15:12:09.001Z</time></trkpt><trkpt lat="45.50214861959863" lon="10.452389291682076"><ele>173.0</ele><time>2026-04-12T15:12:10.001Z</time></trkpt><trkpt lat="45.50197925543792" lon="10.45228980218252"><ele>172.66666666666666</ele><time>2026-04-12T15:12:11.001Z</time></trkpt><trkpt lat="45.501818235680375" lon="10.452196812644978"><ele>172.33333333333334</ele><time>2026-04-12T15:12:12.001Z</time></trkpt><trkpt lat="45.50166217510749" lon="10.452100303923793"><ele>172.0</ele><time>2026-04-12T15:12:13.001Z</time></trkpt><trkpt lat="45.501512678327344" lon="10.452013865205204"><ele>172.66666666666669</ele><time>2026-04-12T15:12:14.001Z</time></trkpt><trkpt lat="45.50134864915439" lon="10.451923649451935"><ele>173.33333333333334</ele><time>2026-04-12T15:12:15.001Z</time></trkpt><trkpt lat="45.501178029286" lon="10.451828482871461"><ele>174.0</ele><time>2026-04-12T15:12:16.001Z</time></trkpt><trkpt lat="45.50101059199156" lon="10.451732555773104"><ele>174.0</ele><time>2026-04-12T15:12:17.001Z</time></trkpt><trkpt lat="45.50084592925437" lon="10.451636149875085"><ele>174.0</ele><time>2026-04-12T15:12:18.001Z</time></trkpt><trkpt lat="45.500683882348675" lon="10.451536080775155"><ele>174.0</ele><time>2026-04-12T15:12:19.001Z</time></trkpt><trkpt lat="45.50051757374087" lon="10.451434556593275"><ele>172.33333333333334</ele><time>2026-04-12T15:12:20.001Z</time></trkpt><trkpt lat="45.50035820052319" lon="10.45129388244677"><ele>170.66666666666669</ele><time>2026-04-12T15:12:21.001Z</time></trkpt><trkpt lat="45.50019900808614" lon="10.451158145680246"><ele>169.0</ele><time>2026-04-12T15:12:22.001Z</time></trkpt><trkpt lat="45.50005411746406" lon="10.451022287595396"><ele>168.66666666666669</ele><time>2026-04-12T15:12:23.001Z</time></trkpt><trkpt lat="45.499913457541325" lon="10.45088853600947"><ele>168.33333333333334</ele><time>2026-04-12T15:12:24.001Z</time></trkpt><trkpt lat="45.49976776803968" lon="10.450786354798481"><ele>168.0</ele><time>2026-04-12T15:12:25.001Z</time></trkpt><trkpt lat="45.49963251501473" lon="10.450666272860426"><ele>168.33333333333334</ele><time>2026-04-12T15:12:26.001Z</time></trkpt><trkpt lat="45.499478810772395" lon="10.450542076558209"><ele>168.66666666666669</ele><time>2026-04-12T15:12:27.001Z</time></trkpt><trkpt lat="45.499322567369454" lon="10.450412456334961"><ele>169.0</ele><time>2026-04-12T15:12:28.001Z</time></trkpt><trkpt lat="45.49915886223541" lon="10.45028578356501"><ele>169.0</ele><time>2026-04-12T15:12:29.001Z</time></trkpt><trkpt lat="45.49899772294629" lon="10.450138752859738"><ele>169.0</ele><time>2026-04-12T15:12:30.001Z</time></trkpt><trkpt lat="45.49882614298575" lon="10.450005556111613"><ele>169.0</ele><time>2026-04-12T15:12:31.001Z</time></trkpt><trkpt lat="45.49865873408911" lon="10.44987559733545"><ele>168.66666666666669</ele><time>2026-04-12T15:12:32.001Z</time></trkpt><trkpt lat="45.498485079236836" lon="10.449741880625501"><ele>168.33333333333334</ele><time>2026-04-12T15:12:33.001Z</time></trkpt><trkpt lat="45.49831388759204" lon="10.449610975719272"><ele>168.0</ele><time>2026-04-12T15:12:34.001Z</time></trkpt><trkpt lat="45.4981383263307" lon="10.449499140944097"><ele>167.66666666666666</ele><time>2026-04-12T15:12:35.001Z</time></trkpt><trkpt lat="45.49796293012112" lon="10.449346102988308"><ele>167.33333333333331</ele><time>2026-04-12T15:12:36.001Z</time></trkpt><trkpt lat="45.497786224179805" lon="10.449224229032483"><ele>167.0</ele><time>2026-04-12T15:12:37.001Z</time></trkpt><trkpt lat="45.497606012424214" lon="10.449111051865593"><ele>167.0</ele><time>2026-04-12T15:12:38.001Z</time></trkpt><trkpt lat="45.4974242965129" lon="10.44900542273996"><ele>167.0</ele><time>2026-04-12T15:12:39.001Z</time></trkpt><trkpt lat="45.497245945501746" lon="10.448910025449253"><ele>167.0</ele><time>2026-04-12T15:12:40.001Z</time></trkpt><trkpt lat="45.49706548037208" lon="10.448824713608785"><ele>166.0</ele><time>2026-04-12T15:12:41.001Z</time></trkpt><trkpt lat="45.49688209111315" lon="10.448765696864461"><ele>165.0</ele><time>2026-04-12T15:12:42.001Z</time></trkpt><trkpt lat="45.49670152031287" lon="10.448688491300915"><ele>164.0</ele><time>2026-04-12T15:12:43.001Z</time></trkpt><trkpt lat="45.496522834177945" lon="10.448615756285992"><ele>164.0</ele><time>2026-04-12T15:12:44.001Z</time></trkpt><trkpt lat="45.49634894630292" lon="10.448520557695462"><ele>164.0</ele><time>2026-04-12T15:12:45.001Z</time></trkpt><trkpt lat="45.49616441849102" lon="10.448443544862808"><ele>164.0</ele><time>2026-04-12T15:12:46.001Z</time></trkpt><trkpt lat="45.49597720111443" lon="10.448365600986396"><ele>164.0</ele><time>2026-04-12T15:12:47.001Z</time></trkpt><trkpt lat="45.49578874981325" lon="10.448287131582076"><ele>164.0</ele><time>2026-04-12T15:12:48.001Z</time></trkpt><trkpt lat="45.49559448588124" lon="10.448228034436413"><ele>164.0</ele><time>2026-04-12T15:12:49.001Z</time></trkpt><trkpt lat="45.49540077324918" lon="10.448144063427378"><ele>163.66666666666666</ele><time>2026-04-12T15:12:50.001Z</time></trkpt><trkpt lat="45.49520596594969" lon="10.448060747757323"><ele>163.33333333333334</ele><time>2026-04-12T15:12:51.001Z</time></trkpt><trkpt lat="45.495005984500786" lon="10.44797460441867"><ele>163.0</ele><time>2026-04-12T15:12:52.001Z</time></trkpt><trkpt lat="45.49480182464143" lon="10.447891506572823"><ele>163.0</ele><time>2026-04-12T15:12:53.001Z</time></trkpt><trkpt lat="45.49459755306311" lon="10.447808397549101"><ele>163.0</ele><time>2026-04-12T15:12:54.001Z</time></trkpt><trkpt lat="45.49438845138903" lon="10.447719574390687"><ele>163.0</ele><time>2026-04-12T15:12:55.001Z</time></trkpt><trkpt lat="45.49417653815114" lon="10.447629779511852"><ele>162.33333333333334</ele><time>2026-04-12T15:12:56.001Z</time></trkpt><trkpt lat="45.49396835923509" lon="10.447542979495843"><ele>161.66666666666666</ele><time>2026-04-12T15:12:57.001Z</time></trkpt><trkpt lat="45.49375879233414" lon="10.447454711055512"><ele>161.0</ele><time>2026-04-12T15:12:58.001Z</time></trkpt><trkpt lat="45.49355070425466" lon="10.447371796312607"><ele>161.0</ele><time>2026-04-12T15:12:59.001Z</time></trkpt><trkpt lat="45.493355364150105" lon="10.447267247052672"><ele>161.0</ele><time>2026-04-12T15:13:00.001Z</time></trkpt><trkpt lat="45.49316213570343" lon="10.4471862994228"><ele>161.0</ele><time>2026-04-12T15:13:01.001Z</time></trkpt><trkpt lat="45.49297661579089" lon="10.447108581017108"><ele>160.66666666666666</ele><time>2026-04-12T15:13:02.001Z</time></trkpt><trkpt lat="45.49279429940956" lon="10.447032204730368"><ele>160.33333333333334</ele><time>2026-04-12T15:13:03.001Z</time></trkpt><trkpt lat="45.49261199481233" lon="10.446955833297263"><ele>160.0</ele><time>2026-04-12T15:13:04.001Z</time></trkpt><trkpt lat="45.49241958334546" lon="10.446875227859895"><ele>160.0</ele><time>2026-04-12T15:13:05.001Z</time></trkpt><trkpt lat="45.49222738930708" lon="10.446794829858748"><ele>160.0</ele><time>2026-04-12T15:13:06.001Z</time></trkpt><trkpt lat="45.492030635296366" lon="10.446734614438434"><ele>160.0</ele><time>2026-04-12T15:13:07.001Z</time></trkpt><trkpt lat="45.49183137562927" lon="10.44663786991"><ele>159.0</ele><time>2026-04-12T15:13:08.001Z</time></trkpt><trkpt lat="45.49160554735304" lon="10.446561000607895"><ele>158.0</ele><time>2026-04-12T15:13:09.001Z</time></trkpt><trkpt lat="45.49135006103149" lon="10.446494765031511"><ele>158.0</ele><time>2026-04-12T15:13:10.001Z</time></trkpt><trkpt lat="45.49107169470422" lon="10.446442099899356"><ele>158.0</ele><time>2026-04-12T15:13:11.001Z</time></trkpt><trkpt lat="45.490784530922916" lon="10.446398789385318"><ele>158.0</ele><time>2026-04-12T15:13:12.001Z</time></trkpt><trkpt lat="45.49049432482235" lon="10.446338436858055"><ele>158.0</ele><time>2026-04-12T15:13:13.001Z</time></trkpt><trkpt lat="45.49023138038258" lon="10.446259650507686"><ele>157.0</ele><time>2026-04-12T15:13:14.001Z</time></trkpt><trkpt lat="45.48998809806241" lon="10.446166997582603"><ele>156.0</ele><time>2026-04-12T15:13:15.001Z</time></trkpt><trkpt lat="45.48977261296958" lon="10.446068444756111"><ele>156.33333333333334</ele><time>2026-04-12T15:13:16.001Z</time></trkpt><trkpt lat="45.4895776346781" lon="10.44597547294525"><ele>156.66666666666669</ele><time>2026-04-12T15:13:17.001Z</time></trkpt><trkpt lat="45.48939773457198" lon="10.445889796206446"><ele>157.0</ele><time>2026-04-12T15:13:18.001Z</time></trkpt><trkpt lat="45.48922458133268" lon="10.445807332804518"><ele>157.0</ele><time>2026-04-12T15:13:19.001Z</time></trkpt><trkpt lat="45.489057197410894" lon="10.445727616365282"><ele>157.0</ele><time>2026-04-12T15:13:20.001Z</time></trkpt><trkpt lat="45.48888867625425" lon="10.44564779052168"><ele>157.0</ele><time>2026-04-12T15:13:21.001Z</time></trkpt><trkpt lat="45.48872293822462" lon="10.445568972865097"><ele>156.33333333333334</ele><time>2026-04-12T15:13:22.001Z</time></trkpt><trkpt lat="45.48855232409678" lon="10.445487590231233"><ele>155.66666666666666</ele><time>2026-04-12T15:13:23.001Z</time></trkpt><trkpt lat="45.488386832881545" lon="10.445408601897306"><ele>155.0</ele><time>2026-04-12T15:13:24.001Z</time></trkpt><trkpt lat="45.48822081199657" lon="10.445329342274102"><ele>155.0</ele><time>2026-04-12T15:13:25.001Z</time></trkpt><trkpt lat="45.488052070825596" lon="10.445248783875215"><ele>155.0</ele><time>2026-04-12T15:13:26.001Z</time></trkpt><trkpt lat="45.48787748393559" lon="10.445165434709297"><ele>155.0</ele><time>2026-04-12T15:13:27.001Z</time></trkpt><trkpt lat="45.487711848347935" lon="10.445086359016832"><ele>154.66666666666666</ele><time>2026-04-12T15:13:28.001Z</time></trkpt><trkpt lat="45.48755306826834" lon="10.445010556209033"><ele>154.33333333333334</ele><time>2026-04-12T15:13:29.001Z</time></trkpt><trkpt lat="45.48739385331713" lon="10.444934545686868"><ele>154.0</ele><time>2026-04-12T15:13:30.001Z</time></trkpt><trkpt lat="45.48722312117539" lon="10.444853036834902"><ele>154.0</ele><time>2026-04-12T15:13:31.001Z</time></trkpt><trkpt lat="45.48703944487971" lon="10.444765852018831"><ele>154.0</ele><time>2026-04-12T15:13:32.001Z</time></trkpt><trkpt lat="45.486849996667566" lon="10.444676189276462"><ele>154.0</ele><time>2026-04-12T15:13:33.001Z</time></trkpt><trkpt lat="45.48665492839022" lon="10.444583866499844"><ele>154.0</ele><time>2026-04-12T15:13:34.001Z</time></trkpt><trkpt lat="45.486455646284405" lon="10.444491705680539"><ele>154.0</ele><time>2026-04-12T15:13:35.001Z</time></trkpt><trkpt lat="45.48624969049364" lon="10.444423210440826"><ele>154.0</ele><time>2026-04-12T15:13:36.001Z</time></trkpt><trkpt lat="45.48605551957794" lon="10.444338999936289"><ele>153.66666666666669</ele><time>2026-04-12T15:13:37.001Z</time></trkpt><trkpt lat="45.48587651048865" lon="10.444241305310712"><ele>153.33333333333334</ele><time>2026-04-12T15:13:38.001Z</time></trkpt><trkpt lat="45.48569090535895" lon="10.444167777585532"><ele>153.0</ele><time>2026-04-12T15:13:39.001Z</time></trkpt><trkpt lat="45.4855031561643" lon="10.444105729344262"><ele>153.0</ele><time>2026-04-12T15:13:40.001Z</time></trkpt><trkpt lat="45.48530921721222" lon="10.444047468353729"><ele>153.0</ele><time>2026-04-12T15:13:41.001Z</time></trkpt><trkpt lat="45.48511085760737" lon="10.443990033338936"><ele>153.0</ele><time>2026-04-12T15:13:42.001Z</time></trkpt><trkpt lat="45.48490924693985" lon="10.443934291357479"><ele>153.0</ele><time>2026-04-12T15:13:43.001Z</time></trkpt><trkpt lat="45.48470545058658" lon="10.443879359737586"><ele>153.0</ele><time>2026-04-12T15:13:44.001Z</time></trkpt><trkpt lat="45.48451044575255" lon="10.443824775256218"><ele>153.0</ele><time>2026-04-12T15:13:45.001Z</time></trkpt><trkpt lat="45.48432394513153" lon="10.443771422542582"><ele>152.33333333333334</ele><time>2026-04-12T15:13:46.001Z</time></trkpt><trkpt lat="45.484144254636185" lon="10.443711175480118"><ele>151.66666666666669</ele><time>2026-04-12T15:13:47.001Z</time></trkpt><trkpt lat="45.483968325889386" lon="10.443651038903571"><ele>151.0</ele><time>2026-04-12T15:13:48.001Z</time></trkpt><trkpt lat="45.483789481845236" lon="10.443588490634857"><ele>150.66666666666669</ele><time>2026-04-12T15:13:49.001Z</time></trkpt><trkpt lat="45.48360591818175" lon="10.443524291757049"><ele>150.33333333333334</ele><time>2026-04-12T15:13:50.001Z</time></trkpt><trkpt lat="45.48341984958374" lon="10.443459216932439"><ele>150.0</ele><time>2026-04-12T15:13:51.001Z</time></trkpt><trkpt lat="45.48323772547544" lon="10.443395189405233"><ele>150.0</ele><time>2026-04-12T15:13:52.001Z</time></trkpt><trkpt lat="45.48305867090547" lon="10.443332166472784"><ele>150.0</ele><time>2026-04-12T15:13:53.001Z</time></trkpt><trkpt lat="45.48287549926519" lon="10.443267694398676"><ele>150.0</ele><time>2026-04-12T15:13:54.001Z</time></trkpt><trkpt lat="45.4826913930815" lon="10.443202893415844"><ele>150.0</ele><time>2026-04-12T15:13:55.001Z</time></trkpt><trkpt lat="45.48251153068701" lon="10.443139682521952"><ele>150.0</ele><time>2026-04-12T15:13:56.001Z</time></trkpt><trkpt lat="45.4823204808292" lon="10.443072718715648"><ele>150.0</ele><time>2026-04-12T15:13:57.001Z</time></trkpt><trkpt lat="45.48211567152502" lon="10.443000932103914"><ele>149.0</ele><time>2026-04-12T15:13:58.001Z</time></trkpt><trkpt lat="45.4818902703822" lon="10.442921928150776"><ele>148.0</ele><time>2026-04-12T15:13:59.001Z</time></trkpt><trkpt lat="45.48164877782253" lon="10.442837285787892"><ele>148.0</ele><time>2026-04-12T15:14:00.001Z</time></trkpt><trkpt lat="45.48139472303914" lon="10.442748237028628"><ele>148.0</ele><time>2026-04-12T15:14:01.001Z</time></trkpt><trkpt lat="45.481127802937955" lon="10.442655374218972"><ele>147.0</ele><time>2026-04-12T15:14:02.001Z</time></trkpt><trkpt lat="45.480854306447675" lon="10.442576673050272"><ele>146.0</ele><time>2026-04-12T15:14:03.001Z</time></trkpt><trkpt lat="45.48058236469441" lon="10.442483168536992"><ele>146.5</ele><time>2026-04-12T15:14:04.001Z</time></trkpt><trkpt lat="45.48030515462606" lon="10.442391659672591"><ele>147.0</ele><time>2026-04-12T15:14:05.001Z</time></trkpt><trkpt lat="45.480030643734" lon="10.442304210480254"><ele>147.0</ele><time>2026-04-12T15:14:06.001Z</time></trkpt><trkpt lat="45.479762670773056" lon="10.442194247102575"><ele>147.0</ele><time>2026-04-12T15:14:07.001Z</time></trkpt><trkpt lat="45.47951337299517" lon="10.442113321218182"><ele>146.5</ele><time>2026-04-12T15:14:08.001Z</time></trkpt><trkpt lat="45.479269292890656" lon="10.442034088880803"><ele>146.0</ele><time>2026-04-12T15:14:09.001Z</time></trkpt><trkpt lat="45.47903880621375" lon="10.441959656450495"><ele>146.0</ele><time>2026-04-12T15:14:10.001Z</time></trkpt><trkpt lat="45.47881392239311" lon="10.441887223634263"><ele>146.0</ele><time>2026-04-12T15:14:11.001Z</time></trkpt><trkpt lat="45.478596640171425" lon="10.44181723915975"><ele>145.66666666666666</ele><time>2026-04-12T15:14:12.001Z</time></trkpt><trkpt lat="45.47838429102217" lon="10.441748843642221"><ele>145.33333333333334</ele><time>2026-04-12T15:14:13.001Z</time></trkpt><trkpt lat="45.47818706411947" lon="10.4416853188201"><ele>145.0</ele><time>2026-04-12T15:14:14.001Z</time></trkpt><trkpt lat="45.47798844094623" lon="10.441644014845714"><ele>145.0</ele><time>2026-04-12T15:14:15.001Z</time></trkpt><trkpt lat="45.477803898532855" lon="10.441582555071708"><ele>145.0</ele><time>2026-04-12T15:14:16.001Z</time></trkpt><trkpt lat="45.47762109771127" lon="10.441530257227587"><ele>145.0</ele><time>2026-04-12T15:14:17.001Z</time></trkpt><trkpt lat="45.47744767991979" lon="10.44146077076062"><ele>145.0</ele><time>2026-04-12T15:14:18.001Z</time></trkpt><trkpt lat="45.477267951444944" lon="10.441452717340852"><ele>145.0</ele><time>2026-04-12T15:14:19.001Z</time></trkpt><trkpt lat="45.47710515604223" lon="10.441441335051865"><ele>145.0</ele><time>2026-04-12T15:14:20.001Z</time></trkpt><trkpt lat="45.47696016132374" lon="10.441418660464226"><ele>145.0</ele><time>2026-04-12T15:14:21.001Z</time></trkpt><trkpt lat="45.47683718879503" lon="10.441367550975823"><ele>145.0</ele><time>2026-04-12T15:14:22.001Z</time></trkpt><trkpt lat="45.4767364426282" lon="10.441296950282283"><ele>145.0</ele><time>2026-04-12T15:14:23.001Z</time></trkpt><trkpt lat="45.4766434616477" lon="10.44125341517855"><ele>145.0</ele><time>2026-04-12T15:14:24.001Z</time></trkpt><trkpt lat="45.47655022550011" lon="10.441292688053275"><ele>145.0</ele><time>2026-04-12T15:14:25.001Z</time></trkpt><trkpt lat="45.47647398396601" lon="10.441376210745362"><ele>145.0</ele><time>2026-04-12T15:14:26.001Z</time></trkpt><trkpt lat="45.47643698593458" lon="10.441497296038813"><ele>145.0</ele><time>2026-04-12T15:14:27.001Z</time></trkpt><trkpt lat="45.476418540311435" lon="10.44164724991997"><ele>145.0</ele><time>2026-04-12T15:14:28.001Z</time></trkpt><trkpt lat="45.47638778695136" lon="10.4417989187433"><ele>145.0</ele><time>2026-04-12T15:14:29.001Z</time></trkpt><trkpt lat="45.4763244332196" lon="10.441942693845338"><ele>145.0</ele><time>2026-04-12T15:14:30.001Z</time></trkpt><trkpt lat="45.47621198211551" lon="10.442058984337768"><ele>145.0</ele><time>2026-04-12T15:14:31.001Z</time></trkpt><trkpt lat="45.4760959294849" lon="10.442179756747862"><ele>145.0</ele><time>2026-04-12T15:14:32.001Z</time></trkpt><trkpt lat="45.47600048438044" lon="10.442308112857173"><ele>145.0</ele><time>2026-04-12T15:14:33.001Z</time></trkpt><trkpt lat="45.47590517868291" lon="10.442397028950031"><ele>145.0</ele><time>2026-04-12T15:14:34.001Z</time></trkpt><trkpt lat="45.47580432332194" lon="10.442454537176186"><ele>145.0</ele><time>2026-04-12T15:14:35.001Z</time></trkpt><trkpt lat="45.47569797564098" lon="10.442454217455182"><ele>145.0</ele><time>2026-04-12T15:14:36.001Z</time></trkpt><trkpt lat="45.47557955089609" lon="10.442409194724977"><ele>145.0</ele><time>2026-04-12T15:14:37.001Z</time></trkpt><trkpt lat="45.475483223528215" lon="10.442297869561814"><ele>145.0</ele><time>2026-04-12T15:14:38.001Z</time></trkpt><trkpt lat="45.47539551894893" lon="10.442184770749341"><ele>144.5</ele><time>2026-04-12T15:14:39.001Z</time></trkpt><trkpt lat="45.47535760326945" lon="10.442005414723909"><ele>144.0</ele><time>2026-04-12T15:14:40.001Z</time></trkpt><trkpt lat="45.47534853340562" lon="10.441820655596766"><ele>143.5</ele><time>2026-04-12T15:14:41.001Z</time></trkpt><trkpt lat="45.47538182833958" lon="10.441629352176916"><ele>143.0</ele><time>2026-04-12T15:14:42.001Z</time></trkpt><trkpt lat="45.475414657076286" lon="10.441420322568764"><ele>143.33333333333331</ele><time>2026-04-12T15:14:43.001Z</time></trkpt><trkpt lat="45.47550544847811" lon="10.441200079540533"><ele>143.66666666666666</ele><time>2026-04-12T15:14:44.001Z</time></trkpt><trkpt lat="45.475568262446956" lon="10.440957937514357"><ele>144.0</ele><time>2026-04-12T15:14:45.001Z</time></trkpt><trkpt lat="45.47562110299151" lon="10.440700110283936"><ele>143.33333333333334</ele><time>2026-04-12T15:14:46.001Z</time></trkpt><trkpt lat="45.475680423165265" lon="10.440422779517288"><ele>142.66666666666669</ele><time>2026-04-12T15:14:47.001Z</time></trkpt><trkpt lat="45.47577126690119" lon="10.440142226896258"><ele>142.0</ele><time>2026-04-12T15:14:48.001Z</time></trkpt><trkpt lat="45.475856692964534" lon="10.43984894897121"><ele>141.5</ele><time>2026-04-12T15:14:49.001Z</time></trkpt><trkpt lat="45.475950259501715" lon="10.439534618225697"><ele>141.0</ele><time>2026-04-12T15:14:50.001Z</time></trkpt><trkpt lat="45.47604778381018" lon="10.439214507456283"><ele>141.0</ele><time>2026-04-12T15:14:51.001Z</time></trkpt><trkpt lat="45.47614924657016" lon="10.438881468368614"><ele>141.0</ele><time>2026-04-12T15:14:52.001Z</time></trkpt><trkpt lat="45.47625030000185" lon="10.43854977395862"><ele>142.0</ele><time>2026-04-12T15:14:53.001Z</time></trkpt><trkpt lat="45.4763509608712" lon="10.438220595623829"><ele>143.0</ele><time>2026-04-12T15:14:54.001Z</time></trkpt><trkpt lat="45.47643820727595" lon="10.437893214035359"><ele>143.0</ele><time>2026-04-12T15:14:55.001Z</time></trkpt><trkpt lat="45.47653422984415" lon="10.437578451641963"><ele>143.0</ele><time>2026-04-12T15:14:56.001Z</time></trkpt><trkpt lat="45.476628925021636" lon="10.437268653538082"><ele>143.0</ele><time>2026-04-12T15:14:57.001Z</time></trkpt><trkpt lat="45.47673565002021" lon="10.436966769081437"><ele>143.0</ele><time>2026-04-12T15:14:58.001Z</time></trkpt><trkpt lat="45.47683001847905" lon="10.4366592951696"><ele>143.0</ele><time>2026-04-12T15:14:59.001Z</time></trkpt><trkpt lat="45.476923807555046" lon="10.436353708991074"><ele>143.0</ele><time>2026-04-12T15:15:00.001Z</time></trkpt><trkpt lat="45.47701615750704" lon="10.436052811745299"><ele>143.0</ele><time>2026-04-12T15:15:01.001Z</time></trkpt><trkpt lat="45.47710800322822" lon="10.435753557614524"><ele>143.0</ele><time>2026-04-12T15:15:02.001Z</time></trkpt><trkpt lat="45.47719963194252" lon="10.435455010287473"><ele>143.5</ele><time>2026-04-12T15:15:03.001Z</time></trkpt><trkpt lat="45.477277632712266" lon="10.435150926500274"><ele>144.0</ele><time>2026-04-12T15:15:04.001Z</time></trkpt><trkpt lat="45.47736996014081" lon="10.434857705699285"><ele>143.66666666666666</ele><time>2026-04-12T15:15:05.001Z</time></trkpt><trkpt lat="45.477454319366764" lon="10.434579663090812"><ele>143.33333333333331</ele><time>2026-04-12T15:15:06.001Z</time></trkpt><trkpt lat="45.47753614899014" lon="10.434307186175802"><ele>143.0</ele><time>2026-04-12T15:15:07.001Z</time></trkpt><trkpt lat="45.477630324590955" lon="10.434052819151628"><ele>142.66666666666666</ele><time>2026-04-12T15:15:08.001Z</time></trkpt><trkpt lat="45.477710681770105" lon="10.433792783426975"><ele>142.33333333333334</ele><time>2026-04-12T15:15:09.001Z</time></trkpt><trkpt lat="45.477790784081876" lon="10.433532668899476"><ele>142.0</ele><time>2026-04-12T15:15:10.001Z</time></trkpt><trkpt lat="45.477871494386804" lon="10.433270579691222"><ele>141.66666666666669</ele><time>2026-04-12T15:15:11.001Z</time></trkpt><trkpt lat="45.477951257672245" lon="10.433011567214274"><ele>141.33333333333334</ele><time>2026-04-12T15:15:12.001Z</time></trkpt><trkpt lat="45.47801854021759" lon="10.43273673491457"><ele>141.0</ele><time>2026-04-12T15:15:13.001Z</time></trkpt><trkpt lat="45.47810136317489" lon="10.432471574206355"><ele>141.0</ele><time>2026-04-12T15:15:14.001Z</time></trkpt><trkpt lat="45.47818306387169" lon="10.432203812224376"><ele>141.0</ele><time>2026-04-12T15:15:15.001Z</time></trkpt><trkpt lat="45.478279673137" lon="10.431945110758116"><ele>141.0</ele><time>2026-04-12T15:15:16.001Z</time></trkpt><trkpt lat="45.4783613763867" lon="10.431679797659836"><ele>141.0</ele><time>2026-04-12T15:15:17.001Z</time></trkpt><trkpt lat="45.47844402065889" lon="10.431411429587914"><ele>141.0</ele><time>2026-04-12T15:15:18.001Z</time></trkpt><trkpt lat="45.47851144920944" lon="10.431133495256837"><ele>141.0</ele><time>2026-04-12T15:15:19.001Z</time></trkpt><trkpt lat="45.478595377393084" lon="10.430873294592324"><ele>141.0</ele><time>2026-04-12T15:15:20.001Z</time></trkpt><trkpt lat="45.478676210034884" lon="10.430615705992796"><ele>141.0</ele><time>2026-04-12T15:15:21.001Z</time></trkpt><trkpt lat="45.47875302207812" lon="10.430366108616706"><ele>141.0</ele><time>2026-04-12T15:15:22.001Z</time></trkpt><trkpt lat="45.478829239620495" lon="10.430125328014043"><ele>141.0</ele><time>2026-04-12T15:15:23.001Z</time></trkpt><trkpt lat="45.478906263742616" lon="10.429869825305792"><ele>141.0</ele><time>2026-04-12T15:15:24.001Z</time></trkpt><trkpt lat="45.47897820759566" lon="10.429633799101254"><ele>141.0</ele><time>2026-04-12T15:15:25.001Z</time></trkpt><trkpt lat="45.47905308543783" lon="10.429385346546706"><ele>141.33333333333334</ele><time>2026-04-12T15:15:26.001Z</time></trkpt><trkpt lat="45.47914373595811" lon="10.429143432436941"><ele>141.66666666666669</ele><time>2026-04-12T15:15:27.001Z</time></trkpt><trkpt lat="45.47922249748843" lon="10.428888429881955"><ele>142.0</ele><time>2026-04-12T15:15:28.001Z</time></trkpt><trkpt lat="45.479302053373495" lon="10.428629160536607"><ele>142.33333333333334</ele><time>2026-04-12T15:15:29.001Z</time></trkpt><trkpt lat="45.479382261232665" lon="10.42836733708321"><ele>142.66666666666666</ele><time>2026-04-12T15:15:30.001Z</time></trkpt><trkpt lat="45.47944905722929" lon="10.428091479300372"><ele>143.0</ele><time>2026-04-12T15:15:31.001Z</time></trkpt><trkpt lat="45.47953310002612" lon="10.427823969147306"><ele>142.66666666666666</ele><time>2026-04-12T15:15:32.001Z</time></trkpt><trkpt lat="45.47961692706198" lon="10.427556915900256"><ele>142.33333333333334</ele><time>2026-04-12T15:15:33.001Z</time></trkpt><trkpt lat="45.47970227509369" lon="10.427285766982044"><ele>142.0</ele><time>2026-04-12T15:15:34.001Z</time></trkpt><trkpt lat="45.47978485154346" lon="10.427015688806051"><ele>142.0</ele><time>2026-04-12T15:15:35.001Z</time></trkpt><trkpt lat="45.479866023509544" lon="10.42674578815394"><ele>142.0</ele><time>2026-04-12T15:15:36.001Z</time></trkpt><trkpt lat="45.47994711940064" lon="10.426477431497077"><ele>142.0</ele><time>2026-04-12T15:15:37.001Z</time></trkpt><trkpt lat="45.48002626692617" lon="10.426214389930731"><ele>142.66666666666669</ele><time>2026-04-12T15:15:38.001Z</time></trkpt><trkpt lat="45.480105323877304" lon="10.425957292721215"><ele>143.33333333333334</ele><time>2026-04-12T15:15:39.001Z</time></trkpt><trkpt lat="45.48018647938483" lon="10.425691437968075"><ele>144.0</ele><time>2026-04-12T15:15:40.001Z</time></trkpt><trkpt lat="45.4802878766588" lon="10.42542308075832"><ele>144.66666666666666</ele><time>2026-04-12T15:15:41.001Z</time></trkpt><trkpt lat="45.480361287934784" lon="10.42512769600991"><ele>145.33333333333331</ele><time>2026-04-12T15:15:42.001Z</time></trkpt><trkpt lat="45.480442901557105" lon="10.424861785665795"><ele>146.0</ele><time>2026-04-12T15:15:43.001Z</time></trkpt><trkpt lat="45.480536477525014" lon="10.424613194959077"><ele>146.66666666666666</ele><time>2026-04-12T15:15:44.001Z</time></trkpt><trkpt lat="45.48060328505045" lon="10.424367011009531"><ele>147.33333333333334</ele><time>2026-04-12T15:15:45.001Z</time></trkpt><trkpt lat="45.48067051449374" lon="10.424126110332212"><ele>148.0</ele><time>2026-04-12T15:15:46.001Z</time></trkpt><trkpt lat="45.480741258557785" lon="10.423885655808395"><ele>148.0</ele><time>2026-04-12T15:15:47.001Z</time></trkpt><trkpt lat="45.480812779892304" lon="10.423637805558089"><ele>148.0</ele><time>2026-04-12T15:15:48.001Z</time></trkpt><trkpt lat="45.480890610437356" lon="10.4233777661603"><ele>148.0</ele><time>2026-04-12T15:15:49.001Z</time></trkpt><trkpt lat="45.4809710601726" lon="10.42311553510733"><ele>148.33333333333334</ele><time>2026-04-12T15:15:50.001Z</time></trkpt><trkpt lat="45.48104041983096" lon="10.422839588119803"><ele>148.66666666666666</ele><time>2026-04-12T15:15:51.001Z</time></trkpt><trkpt lat="45.48110650754328" lon="10.422564213807044"><ele>149.0</ele><time>2026-04-12T15:15:52.001Z</time></trkpt><trkpt lat="45.48116661555967" lon="10.422293672431172"><ele>149.33333333333331</ele><time>2026-04-12T15:15:53.001Z</time></trkpt><trkpt lat="45.481224009849036" lon="10.422021959753845"><ele>149.66666666666666</ele><time>2026-04-12T15:15:54.001Z</time></trkpt><trkpt lat="45.481273423367746" lon="10.42175278548953"><ele>150.0</ele><time>2026-04-12T15:15:55.001Z</time></trkpt><trkpt lat="45.48131546439516" lon="10.421480113895475"><ele>151.33333333333334</ele><time>2026-04-12T15:15:56.001Z</time></trkpt><trkpt lat="45.48135552786913" lon="10.421211004032683"><ele>152.66666666666669</ele><time>2026-04-12T15:15:57.001Z</time></trkpt><trkpt lat="45.48139541098301" lon="10.420941995138527"><ele>154.0</ele><time>2026-04-12T15:15:58.001Z</time></trkpt><trkpt lat="45.481432940092084" lon="10.420666886033796"><ele>155.0</ele><time>2026-04-12T15:15:59.019Z</time></trkpt><trkpt lat="45.48146983055089" lon="10.42039638500057"><ele>156.0</ele><time>2026-04-12T15:16:00.021Z</time></trkpt><trkpt lat="45.48150841375003" lon="10.42012759175781"><ele>157.0</ele><time>2026-04-12T15:16:01.019Z</time></trkpt><trkpt lat="45.481542420289855" lon="10.419855029101363"><ele>157.5</ele><time>2026-04-12T15:16:02.016Z</time></trkpt><trkpt lat="45.48157503496613" lon="10.419580973693998"><ele>158.0</ele><time>2026-04-12T15:16:03.015Z</time></trkpt><trkpt lat="45.48142074638641" lon="10.417208588256893"><ele>156.5</ele><time>2026-04-12T15:16:06.719Z</time></trkpt><trkpt lat="45.4813420305702" lon="10.416579036449992"><ele>155.0</ele><time>2026-04-12T15:16:07.719Z</time></trkpt><trkpt lat="45.48125663442525" lon="10.41595107823812"><ele>154.5</ele><time>2026-04-12T15:16:08.719Z</time></trkpt><trkpt lat="45.48116432198472" lon="10.415325778009663"><ele>154.0</ele><time>2026-04-12T15:16:09.718Z</time></trkpt><trkpt lat="45.48107191726262" lon="10.414699524109878"><ele>153.0</ele><time>2026-04-12T15:16:10.719Z</time></trkpt><trkpt lat="45.48097966277242" lon="10.414074011163345"><ele>152.0</ele><time>2026-04-12T15:16:11.718Z</time></trkpt><trkpt lat="45.48088643597146" lon="10.413448297598894"><ele>151.0</ele><time>2026-04-12T15:16:12.718Z</time></trkpt><trkpt lat="45.48079309120165" lon="10.412822734398476"><ele>150.0</ele><time>2026-04-12T15:16:13.718Z</time></trkpt><trkpt lat="45.48069974261488" lon="10.412197145618212"><ele>149.5</ele><time>2026-04-12T15:16:14.718Z</time></trkpt><trkpt lat="45.4806273" lon="10.4117208"><ele>149.0</ele><time>2026-04-12T15:16:15.718Z</time></trkpt><trkpt lat="45.480050286320484" lon="10.405633980418001"><ele>145.25</ele><time>2026-04-12T15:17:13.001Z</time></trkpt><trkpt lat="45.48006159515075" lon="10.4054473022976"><ele>141.5</ele><time>2026-04-12T15:17:14.001Z</time></trkpt><trkpt lat="45.480055007072835" lon="10.405248134227563"><ele>137.75</ele><time>2026-04-12T15:17:15.001Z</time></trkpt><trkpt lat="45.48009901331182" lon="10.405058418649483"><ele>134.0</ele><time>2026-04-12T15:17:16.001Z</time></trkpt><trkpt lat="45.48011897173047" lon="10.404860005192159"><ele>134.33333333333331</ele><time>2026-04-12T15:17:17.001Z</time></trkpt><trkpt lat="45.480141320454194" lon="10.404656940961408"><ele>134.66666666666666</ele><time>2026-04-12T15:17:18.001Z</time></trkpt><trkpt lat="45.48016648811917" lon="10.404435337910073"><ele>135.0</ele><time>2026-04-12T15:17:19.001Z</time></trkpt><trkpt lat="45.48019911303877" lon="10.404209717278752"><ele>135.0</ele><time>2026-04-12T15:17:20.001Z</time></trkpt><trkpt lat="45.48024299210047" lon="10.403964849078722"><ele>135.0</ele><time>2026-04-12T15:17:21.001Z</time></trkpt><trkpt lat="45.4802966952119" lon="10.403701651606282"><ele>135.0</ele><time>2026-04-12T15:17:22.001Z</time></trkpt><trkpt lat="45.48035808041291" lon="10.40342137451802"><ele>135.0</ele><time>2026-04-12T15:17:23.001Z</time></trkpt><trkpt lat="45.48042583356123" lon="10.403125031181244"><ele>135.0</ele><time>2026-04-12T15:17:24.001Z</time></trkpt><trkpt lat="45.480498062278514" lon="10.402823036991174"><ele>135.0</ele><time>2026-04-12T15:17:25.001Z</time></trkpt><trkpt lat="45.48057575150568" lon="10.402510833621701"><ele>136.0</ele><time>2026-04-12T15:17:26.001Z</time></trkpt><trkpt lat="45.4806548486495" lon="10.402196597455697"><ele>137.0</ele><time>2026-04-12T15:17:27.001Z</time></trkpt><trkpt lat="45.48073415992741" lon="10.4018871218402"><ele>137.0</ele><time>2026-04-12T15:17:28.001Z</time></trkpt><trkpt lat="45.48081471500858" lon="10.40157279357663"><ele>137.0</ele><time>2026-04-12T15:17:29.001Z</time></trkpt><trkpt lat="45.48089488805378" lon="10.401257564068322"><ele>136.5</ele><time>2026-04-12T15:17:30.001Z</time></trkpt><trkpt lat="45.480975000119415" lon="10.400942795738702"><ele>136.0</ele><time>2026-04-12T15:17:31.001Z</time></trkpt><trkpt lat="45.48105577450882" lon="10.400625425272924"><ele>136.0</ele><time>2026-04-12T15:17:32.001Z</time></trkpt><trkpt lat="45.48113566380854" lon="10.400312228200038"><ele>136.0</ele><time>2026-04-12T15:17:33.001Z</time></trkpt><trkpt lat="45.48121554446152" lon="10.399999372509912"><ele>135.5</ele><time>2026-04-12T15:17:34.001Z</time></trkpt><trkpt lat="45.481295955647255" lon="10.399684438726291"><ele>135.0</ele><time>2026-04-12T15:17:35.001Z</time></trkpt><trkpt lat="45.48137602833193" lon="10.399370831103367"><ele>135.0</ele><time>2026-04-12T15:17:36.001Z</time></trkpt><trkpt lat="45.4814544556045" lon="10.399063667456202"><ele>135.0</ele><time>2026-04-12T15:17:37.001Z</time></trkpt><trkpt lat="45.481533860156595" lon="10.398752676449998"><ele>135.0</ele><time>2026-04-12T15:17:38.001Z</time></trkpt><trkpt lat="45.481610959997376" lon="10.398451260443666"><ele>135.0</ele><time>2026-04-12T15:17:39.001Z</time></trkpt><trkpt lat="45.4816847879787" lon="10.398162673831893"><ele>135.0</ele><time>2026-04-12T15:17:40.001Z</time></trkpt><trkpt lat="45.48175614679749" lon="10.397883739132588"><ele>135.0</ele><time>2026-04-12T15:17:41.001Z</time></trkpt><trkpt lat="45.48182520612703" lon="10.397613040561488"><ele>135.0</ele><time>2026-04-12T15:17:42.001Z</time></trkpt><trkpt lat="45.48188970935445" lon="10.397359787038301"><ele>135.0</ele><time>2026-04-12T15:17:43.001Z</time></trkpt><trkpt lat="45.48195445806111" lon="10.397105569920052"><ele>135.0</ele><time>2026-04-12T15:17:44.001Z</time></trkpt><trkpt lat="45.48202231162099" lon="10.396839433893298"><ele>135.0</ele><time>2026-04-12T15:17:45.001Z</time></trkpt><trkpt lat="45.4820917836637" lon="10.396567217203588"><ele>135.0</ele><time>2026-04-12T15:17:46.001Z</time></trkpt><trkpt lat="45.482161488304065" lon="10.396294089598982"><ele>135.33333333333334</ele><time>2026-04-12T15:17:47.001Z</time></trkpt><trkpt lat="45.48223418549822" lon="10.396010069231297"><ele>135.66666666666669</ele><time>2026-04-12T15:17:48.001Z</time></trkpt><trkpt lat="45.48231020684504" lon="10.395715381926605"><ele>136.0</ele><time>2026-04-12T15:17:49.001Z</time></trkpt><trkpt lat="45.48238493327143" lon="10.395423266057973"><ele>136.33333333333334</ele><time>2026-04-12T15:17:50.001Z</time></trkpt><trkpt lat="45.48246051307755" lon="10.395128927370084"><ele>136.66666666666666</ele><time>2026-04-12T15:17:51.001Z</time></trkpt><trkpt lat="45.48253818281633" lon="10.394825415283433"><ele>137.0</ele><time>2026-04-12T15:17:52.001Z</time></trkpt><trkpt lat="45.48261498664115" lon="10.394525287651712"><ele>137.5</ele><time>2026-04-12T15:17:53.001Z</time></trkpt><trkpt lat="45.48269435846512" lon="10.394214075882156"><ele>138.0</ele><time>2026-04-12T15:17:54.001Z</time></trkpt><trkpt lat="45.48274248718547" lon="10.393887162339844"><ele>140.0</ele><time>2026-04-12T15:17:55.001Z</time></trkpt><trkpt lat="45.482820134495846" lon="10.39357194628026"><ele>142.0</ele><time>2026-04-12T15:17:56.001Z</time></trkpt><trkpt lat="45.48290417170324" lon="10.393261646079134"><ele>142.5</ele><time>2026-04-12T15:17:57.001Z</time></trkpt><trkpt lat="45.4829931728753" lon="10.392937885643036"><ele>143.0</ele><time>2026-04-12T15:17:58.001Z</time></trkpt><trkpt lat="45.48308246652442" lon="10.392623285102298"><ele>143.0</ele><time>2026-04-12T15:17:59.001Z</time></trkpt><trkpt lat="45.48317570875008" lon="10.392304147974377"><ele>143.0</ele><time>2026-04-12T15:18:00.001Z</time></trkpt><trkpt lat="45.48326295056893" lon="10.391977735447435"><ele>142.5</ele><time>2026-04-12T15:18:01.001Z</time></trkpt><trkpt lat="45.483343608857204" lon="10.391653964470802"><ele>142.0</ele><time>2026-04-12T15:18:02.001Z</time></trkpt><trkpt lat="45.48342572168673" lon="10.391327615877243"><ele>141.5</ele><time>2026-04-12T15:18:03.001Z</time></trkpt><trkpt lat="45.483512175211686" lon="10.391006727637087"><ele>141.0</ele><time>2026-04-12T15:18:04.001Z</time></trkpt><trkpt lat="45.48360470978532" lon="10.39068032266526"><ele>142.5</ele><time>2026-04-12T15:18:05.001Z</time></trkpt><trkpt lat="45.48370219681297" lon="10.390365061325946"><ele>144.0</ele><time>2026-04-12T15:18:06.001Z</time></trkpt><trkpt lat="45.483794039368924" lon="10.390043080912742"><ele>144.5</ele><time>2026-04-12T15:18:07.001Z</time></trkpt><trkpt lat="45.48388238746834" lon="10.389717788705978"><ele>145.0</ele><time>2026-04-12T15:18:08.001Z</time></trkpt><trkpt lat="45.483969797693966" lon="10.389406004011992"><ele>145.5</ele><time>2026-04-12T15:18:09.001Z</time></trkpt><trkpt lat="45.48405723102538" lon="10.389103465811827"><ele>146.0</ele><time>2026-04-12T15:18:10.001Z</time></trkpt><trkpt lat="45.484141626893404" lon="10.388804395280427"><ele>145.0</ele><time>2026-04-12T15:18:11.001Z</time></trkpt><trkpt lat="45.48422333231363" lon="10.388516184791843"><ele>144.0</ele><time>2026-04-12T15:18:12.001Z</time></trkpt><trkpt lat="45.48430466337425" lon="10.388226143364694"><ele>143.0</ele><time>2026-04-12T15:18:13.001Z</time></trkpt><trkpt lat="45.48438595528953" lon="10.387932788329035"><ele>143.0</ele><time>2026-04-12T15:18:14.001Z</time></trkpt><trkpt lat="45.484465353099864" lon="10.387635833046867"><ele>143.0</ele><time>2026-04-12T15:18:15.001Z</time></trkpt><trkpt lat="45.48454562373857" lon="10.387338671760313"><ele>143.0</ele><time>2026-04-12T15:18:16.001Z</time></trkpt><trkpt lat="45.48463549636616" lon="10.387047083842518"><ele>143.0</ele><time>2026-04-12T15:18:17.001Z</time></trkpt><trkpt lat="45.484719957096935" lon="10.386751828689441"><ele>143.0</ele><time>2026-04-12T15:18:18.001Z</time></trkpt><trkpt lat="45.48479996532409" lon="10.386453085055486"><ele>143.0</ele><time>2026-04-12T15:18:19.001Z</time></trkpt><trkpt lat="45.48488137238135" lon="10.386151846894187"><ele>143.33333333333331</ele><time>2026-04-12T15:18:20.001Z</time></trkpt><trkpt lat="45.48495847015286" lon="10.385852619494521"><ele>143.66666666666666</ele><time>2026-04-12T15:18:21.001Z</time></trkpt><trkpt lat="45.48503776359889" lon="10.38556934695288"><ele>144.0</ele><time>2026-04-12T15:18:22.001Z</time></trkpt><trkpt lat="45.48510944625982" lon="10.385296077470498"><ele>144.0</ele><time>2026-04-12T15:18:23.001Z</time></trkpt><trkpt lat="45.48517748315724" lon="10.38503102760271"><ele>144.0</ele><time>2026-04-12T15:18:24.001Z</time></trkpt><trkpt lat="45.48523759402248" lon="10.384786570949199"><ele>144.0</ele><time>2026-04-12T15:18:25.001Z</time></trkpt><trkpt lat="45.485291277262085" lon="10.384555372113123"><ele>144.0</ele><time>2026-04-12T15:18:26.001Z</time></trkpt><trkpt lat="45.48533889823267" lon="10.384321174750058"><ele>144.0</ele><time>2026-04-12T15:18:27.001Z</time></trkpt><trkpt lat="45.485379495561716" lon="10.38408880445148"><ele>144.0</ele><time>2026-04-12T15:18:28.001Z</time></trkpt><trkpt lat="45.48543192871113" lon="10.383875841826105"><ele>144.0</ele><time>2026-04-12T15:18:29.001Z</time></trkpt><trkpt lat="45.48546453882257" lon="10.383670598773977"><ele>144.0</ele><time>2026-04-12T15:18:30.001Z</time></trkpt><trkpt lat="45.48549168831264" lon="10.383481155582357"><ele>144.0</ele><time>2026-04-12T15:18:31.001Z</time></trkpt><trkpt lat="45.485512826424845" lon="10.38330575088866"><ele>144.0</ele><time>2026-04-12T15:18:32.001Z</time></trkpt><trkpt lat="45.48553203280177" lon="10.383132785381282"><ele>144.25</ele><time>2026-04-12T15:18:33.001Z</time></trkpt><trkpt lat="45.48555106641389" lon="10.382943913363336"><ele>144.5</ele><time>2026-04-12T15:18:34.001Z</time></trkpt><trkpt lat="45.48556600014085" lon="10.382761556068703"><ele>144.75</ele><time>2026-04-12T15:18:35.001Z</time></trkpt><trkpt lat="45.485580499535075" lon="10.382560855672088"><ele>145.0</ele><time>2026-04-12T15:18:36.001Z</time></trkpt><trkpt lat="45.48559478627204" lon="10.382345581923742"><ele>145.0</ele><time>2026-04-12T15:18:37.001Z</time></trkpt><trkpt lat="45.48560719706114" lon="10.382102016093508"><ele>145.0</ele><time>2026-04-12T15:18:38.001Z</time></trkpt><trkpt lat="45.48561500768453" lon="10.381848472384705"><ele>145.0</ele><time>2026-04-12T15:18:39.001Z</time></trkpt><trkpt lat="45.48561864509524" lon="10.381577857477255"><ele>144.66666666666669</ele><time>2026-04-12T15:18:40.001Z</time></trkpt><trkpt lat="45.48560147546111" lon="10.381299306855052"><ele>144.33333333333334</ele><time>2026-04-12T15:18:41.001Z</time></trkpt><trkpt lat="45.4855949429387" lon="10.381006048310551"><ele>144.0</ele><time>2026-04-12T15:18:42.001Z</time></trkpt><trkpt lat="45.48557942277047" lon="10.380708212814932"><ele>144.0</ele><time>2026-04-12T15:18:43.001Z</time></trkpt><trkpt lat="45.485558037908575" lon="10.380412969423464"><ele>144.0</ele><time>2026-04-12T15:18:44.001Z</time></trkpt><trkpt lat="45.48552963083823" lon="10.380119306037903"><ele>144.0</ele><time>2026-04-12T15:18:45.001Z</time></trkpt><trkpt lat="45.48551098071143" lon="10.379821548623557"><ele>143.66666666666666</ele><time>2026-04-12T15:18:46.001Z</time></trkpt><trkpt lat="45.48547515217553" lon="10.379539066848784"><ele>143.33333333333331</ele><time>2026-04-12T15:18:47.001Z</time></trkpt><trkpt lat="45.48543539149253" lon="10.379269401878428"><ele>143.0</ele><time>2026-04-12T15:18:48.001Z</time></trkpt><trkpt lat="45.485390069106266" lon="10.37901272028508"><ele>144.0</ele><time>2026-04-12T15:18:49.001Z</time></trkpt><trkpt lat="45.48533496755172" lon="10.37873942572346"><ele>145.0</ele><time>2026-04-12T15:18:50.001Z</time></trkpt><trkpt lat="45.48527343914614" lon="10.378457963216016"><ele>146.0</ele><time>2026-04-12T15:18:51.001Z</time></trkpt><trkpt lat="45.4852031708474" lon="10.378158948147995"><ele>145.66666666666666</ele><time>2026-04-12T15:18:52.001Z</time></trkpt><trkpt lat="45.48512281701079" lon="10.377857927686248"><ele>145.33333333333334</ele><time>2026-04-12T15:18:53.001Z</time></trkpt><trkpt lat="45.48504548426102" lon="10.377580116331789"><ele>145.0</ele><time>2026-04-12T15:18:54.001Z</time></trkpt><trkpt lat="45.48497208320105" lon="10.377327034519865"><ele>144.33333333333334</ele><time>2026-04-12T15:18:55.001Z</time></trkpt><trkpt lat="45.48490106282674" lon="10.377094927082142"><ele>143.66666666666666</ele><time>2026-04-12T15:18:56.001Z</time></trkpt><trkpt lat="45.48483050479259" lon="10.376875610870176"><ele>143.0</ele><time>2026-04-12T15:18:57.001Z</time></trkpt><trkpt lat="45.48476519234908" lon="10.376675947968057"><ele>143.0</ele><time>2026-04-12T15:18:58.001Z</time></trkpt><trkpt lat="45.48470314646671" lon="10.376485672019784"><ele>143.0</ele><time>2026-04-12T15:18:59.001Z</time></trkpt><trkpt lat="45.484642359837295" lon="10.376298970181171"><ele>143.0</ele><time>2026-04-12T15:19:00.001Z</time></trkpt><trkpt lat="45.4845788949265" lon="10.376105251604045"><ele>143.0</ele><time>2026-04-12T15:19:01.001Z</time></trkpt><trkpt lat="45.48451128938923" lon="10.375899780595976"><ele>143.0</ele><time>2026-04-12T15:19:02.001Z</time></trkpt><trkpt lat="45.48444290332593" lon="10.375691937183998"><ele>143.0</ele><time>2026-04-12T15:19:03.001Z</time></trkpt><trkpt lat="45.48437470841205" lon="10.375484674924127"><ele>143.0</ele><time>2026-04-12T15:19:04.001Z</time></trkpt><trkpt lat="45.484306339326736" lon="10.375277989037398"><ele>143.0</ele><time>2026-04-12T15:19:05.001Z</time></trkpt><trkpt lat="45.484239054512834" lon="10.375074626480798"><ele>143.0</ele><time>2026-04-12T15:19:06.001Z</time></trkpt><trkpt lat="45.48417226381714" lon="10.374872757700622"><ele>143.0</ele><time>2026-04-12T15:19:07.001Z</time></trkpt><trkpt lat="45.48410467020871" lon="10.374667295159714"><ele>143.33333333333331</ele><time>2026-04-12T15:19:08.001Z</time></trkpt><trkpt lat="45.484035919786756" lon="10.374458085183132"><ele>143.66666666666666</ele><time>2026-04-12T15:19:09.001Z</time></trkpt><trkpt lat="45.48396599751914" lon="10.37424429950949"><ele>144.0</ele><time>2026-04-12T15:19:10.001Z</time></trkpt><trkpt lat="45.483891314237795" lon="10.374015605795213"><ele>144.0</ele><time>2026-04-12T15:19:11.001Z</time></trkpt><trkpt lat="45.483812105593735" lon="10.373776325191571"><ele>144.0</ele><time>2026-04-12T15:19:12.001Z</time></trkpt><trkpt lat="45.48373147556152" lon="10.373530087142088"><ele>144.0</ele><time>2026-04-12T15:19:13.001Z</time></trkpt><trkpt lat="45.48364880070681" lon="10.373276845540568"><ele>144.0</ele><time>2026-04-12T15:19:14.001Z</time></trkpt><trkpt lat="45.48356257260553" lon="10.37301676769157"><ele>144.0</ele><time>2026-04-12T15:19:15.001Z</time></trkpt><trkpt lat="45.483477121499696" lon="10.372757378993583"><ele>144.0</ele><time>2026-04-12T15:19:16.001Z</time></trkpt><trkpt lat="45.483396634205704" lon="10.372512853846604"><ele>144.0</ele><time>2026-04-12T15:19:17.001Z</time></trkpt><trkpt lat="45.4833188858101" lon="10.372276649424407"><ele>144.0</ele><time>2026-04-12T15:19:18.001Z</time></trkpt><trkpt lat="45.48324229197229" lon="10.372042965542033"><ele>144.0</ele><time>2026-04-12T15:19:19.001Z</time></trkpt><trkpt lat="45.48316682372404" lon="10.371814677509771"><ele>144.0</ele><time>2026-04-12T15:19:20.001Z</time></trkpt><trkpt lat="45.483092415802396" lon="10.371589989069118"><ele>144.0</ele><time>2026-04-12T15:19:21.001Z</time></trkpt><trkpt lat="45.483017160011734" lon="10.371362740572454"><ele>144.0</ele><time>2026-04-12T15:19:22.001Z</time></trkpt><trkpt lat="45.482940698608445" lon="10.371131851377937"><ele>144.0</ele><time>2026-04-12T15:19:23.001Z</time></trkpt><trkpt lat="45.48286321326478" lon="10.370897529237649"><ele>144.0</ele><time>2026-04-12T15:19:24.001Z</time></trkpt><trkpt lat="45.48278479380973" lon="10.370660293002018"><ele>144.0</ele><time>2026-04-12T15:19:25.001Z</time></trkpt><trkpt lat="45.4827085140232" lon="10.370429365601101"><ele>144.0</ele><time>2026-04-12T15:19:26.001Z</time></trkpt><trkpt lat="45.482631207759155" lon="10.370194594626184"><ele>144.0</ele><time>2026-04-12T15:19:27.001Z</time></trkpt><trkpt lat="45.482553703637045" lon="10.369959222811566"><ele>144.0</ele><time>2026-04-12T15:19:28.001Z</time></trkpt><trkpt lat="45.482475614867745" lon="10.369722075519837"><ele>143.66666666666666</ele><time>2026-04-12T15:19:29.001Z</time></trkpt><trkpt lat="45.48240011816331" lon="10.36949279998555"><ele>143.33333333333331</ele><time>2026-04-12T15:19:30.001Z</time></trkpt><trkpt lat="45.48232214419676" lon="10.369256001301812"><ele>143.0</ele><time>2026-04-12T15:19:31.001Z</time></trkpt><trkpt lat="45.48224650001009" lon="10.36902594944683"><ele>143.0</ele><time>2026-04-12T15:19:32.001Z</time></trkpt><trkpt lat="45.48217139858508" lon="10.368797472542632"><ele>143.0</ele><time>2026-04-12T15:19:33.001Z</time></trkpt><trkpt lat="45.482096184348705" lon="10.368568652331854"><ele>143.0</ele><time>2026-04-12T15:19:34.001Z</time></trkpt><trkpt lat="45.48202218340362" lon="10.368343523329324"><ele>143.0</ele><time>2026-04-12T15:19:35.001Z</time></trkpt><trkpt lat="45.481946334110354" lon="10.368112757910527"><ele>143.0</ele><time>2026-04-12T15:19:36.001Z</time></trkpt><trkpt lat="45.48187319254018" lon="10.367890133903623"><ele>143.0</ele><time>2026-04-12T15:19:37Z</time></trkpt><trkpt lat="45.48179921536171" lon="10.367664966532429"><ele>142.66666666666666</ele><time>2026-04-12T15:19:38Z</time></trkpt><trkpt lat="45.48172608597796" lon="10.367442379653646"><ele>142.33333333333334</ele><time>2026-04-12T15:19:39Z</time></trkpt><trkpt lat="45.48165180773425" lon="10.367216295881256"><ele>142.0</ele><time>2026-04-12T15:19:40Z</time></trkpt><trkpt lat="45.48157828498023" lon="10.366992511697093"><ele>142.0</ele><time>2026-04-12T15:19:41Z</time></trkpt><trkpt lat="45.48150377856633" lon="10.366765488517208"><ele>142.0</ele><time>2026-04-12T15:19:42Z</time></trkpt><trkpt lat="45.48143073363829" lon="10.366542683005918"><ele>142.0</ele><time>2026-04-12T15:19:43Z</time></trkpt><trkpt lat="45.48135634475707" lon="10.366315777905395"><ele>142.0</ele><time>2026-04-12T15:19:44Z</time></trkpt><trkpt lat="45.48128238534299" lon="10.36609018298662"><ele>142.0</ele><time>2026-04-12T15:19:45Z</time></trkpt><trkpt lat="45.48121114602186" lon="10.365872885148002"><ele>142.0</ele><time>2026-04-12T15:19:46Z</time></trkpt><trkpt lat="45.48114133446503" lon="10.365660115638928"><ele>141.0</ele><time>2026-04-12T15:19:47Z</time></trkpt><trkpt lat="45.48107029423751" lon="10.365445466679196"><ele>140.0</ele><time>2026-04-12T15:19:48Z</time></trkpt><trkpt lat="45.48099904758661" lon="10.365230193711524"><ele>139.0</ele><time>2026-04-12T15:19:49Z</time></trkpt><trkpt lat="45.480929511490665" lon="10.365020089587587"><ele>139.0</ele><time>2026-04-12T15:19:50Z</time></trkpt><trkpt lat="45.480868459363414" lon="10.364835619522424"><ele>139.0</ele><time>2026-04-12T15:19:51Z</time></trkpt><trkpt lat="45.48082467603473" lon="10.36470332762471"><ele>139.0</ele><time>2026-04-12T15:19:52Z</time></trkpt><trkpt lat="45.480776615495095" lon="10.364558112164275"><ele>139.0</ele><time>2026-04-12T15:19:53Z</time></trkpt><trkpt lat="45.48072337873389" lon="10.364397256457398"><ele>139.0</ele><time>2026-04-12T15:19:54Z</time></trkpt><trkpt lat="45.480669678094465" lon="10.364234999241868"><ele>139.0</ele><time>2026-04-12T15:19:55Z</time></trkpt><trkpt lat="45.48061710159043" lon="10.364074322427129"><ele>139.0</ele><time>2026-04-12T15:19:56Z</time></trkpt><trkpt lat="45.4805714830839" lon="10.363935462903616"><ele>139.0</ele><time>2026-04-12T15:19:57Z</time></trkpt><trkpt lat="45.48053014637592" lon="10.363810307702689"><ele>139.0</ele><time>2026-04-12T15:19:58Z</time></trkpt><trkpt lat="45.48049414192992" lon="10.363700694139588"><ele>139.0</ele><time>2026-04-12T15:19:59Z</time></trkpt><trkpt lat="45.48045739372276" lon="10.363588816341242"><ele>139.0</ele><time>2026-04-12T15:20:00Z</time></trkpt><trkpt lat="45.48042017532592" lon="10.36347545166688"><ele>139.0</ele><time>2026-04-12T15:20:01Z</time></trkpt><trkpt lat="45.48038159401392" lon="10.363357353444467"><ele>139.0</ele><time>2026-04-12T15:20:02Z</time></trkpt><trkpt lat="45.48033693558902" lon="10.363221073750559"><ele>139.5</ele><time>2026-04-12T15:20:03Z</time></trkpt><trkpt lat="45.480282564037076" lon="10.363055153356743"><ele>140.0</ele><time>2026-04-12T15:20:04Z</time></trkpt><trkpt lat="45.48022358234183" lon="10.362876420170657"><ele>140.5</ele><time>2026-04-12T15:20:05Z</time></trkpt><trkpt lat="45.48016129715787" lon="10.36268576231556"><ele>141.0</ele><time>2026-04-12T15:20:06Z</time></trkpt><trkpt lat="45.4800963056255" lon="10.362486664585278"><ele>141.0</ele><time>2026-04-12T15:20:07Z</time></trkpt><trkpt lat="45.48003258143411" lon="10.362291476748753"><ele>141.0</ele><time>2026-04-12T15:20:08Z</time></trkpt><trkpt lat="45.47997290425177" lon="10.362108738020464"><ele>141.0</ele><time>2026-04-12T15:20:09Z</time></trkpt><trkpt lat="45.47991671309234" lon="10.361936387800009"><ele>141.0</ele><time>2026-04-12T15:20:10Z</time></trkpt><trkpt lat="45.47986255726418" lon="10.36176603534324"><ele>141.0</ele><time>2026-04-12T15:20:11Z</time></trkpt><trkpt lat="45.479809547935545" lon="10.361600055483287"><ele>141.0</ele><time>2026-04-12T15:20:12Z</time></trkpt><trkpt lat="45.479761538430154" lon="10.361439842895669"><ele>141.0</ele><time>2026-04-12T15:20:13Z</time></trkpt><trkpt lat="45.47971699198992" lon="10.361291187783177"><ele>141.0</ele><time>2026-04-12T15:20:14Z</time></trkpt><trkpt lat="45.4796797148426" lon="10.361154530003466"><ele>141.0</ele><time>2026-04-12T15:20:15Z</time></trkpt><trkpt lat="45.47964455135497" lon="10.361022929795316"><ele>141.0</ele><time>2026-04-12T15:20:16Z</time></trkpt><trkpt lat="45.47961054460624" lon="10.360892607997917"><ele>141.0</ele><time>2026-04-12T15:20:17Z</time></trkpt><trkpt lat="45.47957903821975" lon="10.360765122218973"><ele>141.0</ele><time>2026-04-12T15:20:18Z</time></trkpt><trkpt lat="45.47954636257389" lon="10.360629853403278"><ele>141.0</ele><time>2026-04-12T15:20:19Z</time></trkpt><trkpt lat="45.479515344379585" lon="10.36049643302148"><ele>141.0</ele><time>2026-04-12T15:20:20Z</time></trkpt><trkpt lat="45.479485634303764" lon="10.360364706932913"><ele>141.0</ele><time>2026-04-12T15:20:21Z</time></trkpt><trkpt lat="45.479458777801845" lon="10.36024155841365"><ele>141.0</ele><time>2026-04-12T15:20:22Z</time></trkpt><trkpt lat="45.47943450300944" lon="10.360126095524427"><ele>141.0</ele><time>2026-04-12T15:20:23Z</time></trkpt><trkpt lat="45.47941124648077" lon="10.360009781005765"><ele>141.0</ele><time>2026-04-12T15:20:24Z</time></trkpt><trkpt lat="45.47938702950629" lon="10.35988690706104"><ele>141.0</ele><time>2026-04-12T15:20:25Z</time></trkpt><trkpt lat="45.47936133168005" lon="10.359749878344987"><ele>140.5</ele><time>2026-04-12T15:20:26Z</time></trkpt><trkpt lat="45.47933525987397" lon="10.359603688095158"><ele>140.0</ele><time>2026-04-12T15:20:27Z</time></trkpt><trkpt lat="45.47930909038523" lon="10.35945167657277"><ele>139.5</ele><time>2026-04-12T15:20:28Z</time></trkpt><trkpt lat="45.479283330212205" lon="10.359292607210428"><ele>139.0</ele><time>2026-04-12T15:20:29Z</time></trkpt><trkpt lat="45.479257751775364" lon="10.359124013327692"><ele>139.0</ele><time>2026-04-12T15:20:30Z</time></trkpt><trkpt lat="45.479232613036956" lon="10.358944223529106"><ele>139.0</ele><time>2026-04-12T15:20:31Z</time></trkpt><trkpt lat="45.47920818741274" lon="10.3587558865844"><ele>139.0</ele><time>2026-04-12T15:20:32Z</time></trkpt><trkpt lat="45.47918390780008" lon="10.358564783977187"><ele>139.0</ele><time>2026-04-12T15:20:33Z</time></trkpt><trkpt lat="45.47916562973955" lon="10.3583934935013"><ele>138.75</ele><time>2026-04-12T15:20:34Z</time></trkpt><trkpt lat="45.479149198521434" lon="10.358224048845978"><ele>138.5</ele><time>2026-04-12T15:20:35Z</time></trkpt><trkpt lat="45.47913498307624" lon="10.358067436909916"><ele>138.25</ele><time>2026-04-12T15:20:36Z</time></trkpt><trkpt lat="45.47912275367078" lon="10.35791460740877"><ele>138.0</ele><time>2026-04-12T15:20:37Z</time></trkpt><trkpt lat="45.479110785537166" lon="10.357756688768633"><ele>138.5</ele><time>2026-04-12T15:20:38Z</time></trkpt><trkpt lat="45.47910064674714" lon="10.35760253060426"><ele>139.0</ele><time>2026-04-12T15:20:39Z</time></trkpt><trkpt lat="45.47909169425378" lon="10.3574351012886"><ele>139.5</ele><time>2026-04-12T15:20:40Z</time></trkpt><trkpt lat="45.479084894524505" lon="10.35726364509665"><ele>140.0</ele><time>2026-04-12T15:20:41Z</time></trkpt><trkpt lat="45.47907942286432" lon="10.357093764638991"><ele>140.0</ele><time>2026-04-12T15:20:42Z</time></trkpt><trkpt lat="45.47907456886488" lon="10.356927327127634"><ele>140.0</ele><time>2026-04-12T15:20:43Z</time></trkpt><trkpt lat="45.47905338002071" lon="10.356763462110518"><ele>140.0</ele><time>2026-04-12T15:20:44Z</time></trkpt><trkpt lat="45.47904959687661" lon="10.356595862306875"><ele>140.0</ele><time>2026-04-12T15:20:45Z</time></trkpt><trkpt lat="45.47904645121491" lon="10.356426813222994"><ele>140.0</ele><time>2026-04-12T15:20:46Z</time></trkpt><trkpt lat="45.479041159000836" lon="10.356252066803146"><ele>140.0</ele><time>2026-04-12T15:20:47Z</time></trkpt><trkpt lat="45.47905171543213" lon="10.35606274726743"><ele>140.0</ele><time>2026-04-12T15:20:48Z</time></trkpt><trkpt lat="45.4790471765436" lon="10.35587316622516"><ele>140.0</ele><time>2026-04-12T15:20:49Z</time></trkpt><trkpt lat="45.47904258412336" lon="10.355681350220967"><ele>140.5</ele><time>2026-04-12T15:20:50Z</time></trkpt><trkpt lat="45.479037979777665" lon="10.355489035674234"><ele>141.0</ele><time>2026-04-12T15:20:51Z</time></trkpt><trkpt lat="45.47903349636577" lon="10.355301772286705"><ele>141.5</ele><time>2026-04-12T15:20:52Z</time></trkpt><trkpt lat="45.479029286805776" lon="10.355125947220683"><ele>142.0</ele><time>2026-04-12T15:20:53Z</time></trkpt><trkpt lat="45.47902506735856" lon="10.354949708702087"><ele>142.0</ele><time>2026-04-12T15:20:54Z</time></trkpt><trkpt lat="45.479020749174936" lon="10.354769346820287"><ele>142.0</ele><time>2026-04-12T15:20:55Z</time></trkpt><trkpt lat="45.479016194296506" lon="10.354579098402496"><ele>142.0</ele><time>2026-04-12T15:20:56Z</time></trkpt><trkpt lat="45.478995954330664" lon="10.354380033508138"><ele>142.0</ele><time>2026-04-12T15:20:57Z</time></trkpt><trkpt lat="45.47899220491959" lon="10.354177998103545"><ele>141.75</ele><time>2026-04-12T15:20:58Z</time></trkpt><trkpt lat="45.47899489246611" lon="10.353996232370722"><ele>141.5</ele><time>2026-04-12T15:20:59Z</time></trkpt><trkpt lat="45.478990985348396" lon="10.3537980248833"><ele>141.25</ele><time>2026-04-12T15:21:00Z</time></trkpt><trkpt lat="45.4789824613711" lon="10.353603938375825"><ele>141.0</ele><time>2026-04-12T15:21:01Z</time></trkpt><trkpt lat="45.4789795441893" lon="10.353435288625807"><ele>140.66666666666666</ele><time>2026-04-12T15:21:02Z</time></trkpt><trkpt lat="45.47897402227701" lon="10.353292704379085"><ele>140.33333333333334</ele><time>2026-04-12T15:21:03Z</time></trkpt><trkpt lat="45.47897350317332" lon="10.353174475141765"><ele>140.0</ele><time>2026-04-12T15:21:04Z</time></trkpt><trkpt lat="45.47897131934985" lon="10.353056178367535"><ele>139.66666666666669</ele><time>2026-04-12T15:21:05Z</time></trkpt><trkpt lat="45.47896615519677" lon="10.352942502711356"><ele>139.33333333333334</ele><time>2026-04-12T15:21:06Z</time></trkpt><trkpt lat="45.478962409985094" lon="10.352819281090564"><ele>139.0</ele><time>2026-04-12T15:21:07Z</time></trkpt><trkpt lat="45.47896155129749" lon="10.352695593159902"><ele>139.0</ele><time>2026-04-12T15:21:08Z</time></trkpt><trkpt lat="45.478957584078614" lon="10.352561976979215"><ele>139.0</ele><time>2026-04-12T15:21:09Z</time></trkpt><trkpt lat="45.47895095047827" lon="10.352430357576294"><ele>139.0</ele><time>2026-04-12T15:21:10Z</time></trkpt><trkpt lat="45.478948225345285" lon="10.352297399480205"><ele>139.0</ele><time>2026-04-12T15:21:11Z</time></trkpt><trkpt lat="45.47894322546002" lon="10.352161450373503"><ele>139.0</ele><time>2026-04-12T15:21:12Z</time></trkpt><trkpt lat="45.478953597763706" lon="10.352008034543688"><ele>139.0</ele><time>2026-04-12T15:21:13Z</time></trkpt><trkpt lat="45.47894937912729" lon="10.351843928471427"><ele>139.0</ele><time>2026-04-12T15:21:14Z</time></trkpt><trkpt lat="45.47894493880687" lon="10.35167119919494"><ele>139.0</ele><time>2026-04-12T15:21:15Z</time></trkpt><trkpt lat="45.47894033679809" lon="10.351492180030398"><ele>139.0</ele><time>2026-04-12T15:21:16Z</time></trkpt><trkpt lat="45.478935582643025" lon="10.351307242479253"><ele>139.25</ele><time>2026-04-12T15:21:17Z</time></trkpt><trkpt lat="45.47893051171199" lon="10.351109982084745"><ele>139.5</ele><time>2026-04-12T15:21:18Z</time></trkpt><trkpt lat="45.47892529080597" lon="10.350906887743074"><ele>139.75</ele><time>2026-04-12T15:21:19Z</time></trkpt><trkpt lat="45.47891994449846" lon="10.350698915248497"><ele>140.0</ele><time>2026-04-12T15:21:20Z</time></trkpt><trkpt lat="45.47891435866847" lon="10.350481625130683"><ele>140.0</ele><time>2026-04-12T15:21:21.001Z</time></trkpt><trkpt lat="45.47890871684223" lon="10.350261191238294"><ele>140.0</ele><time>2026-04-12T15:21:22.001Z</time></trkpt><trkpt lat="45.478902941554665" lon="10.350034619361239"><ele>140.0</ele><time>2026-04-12T15:21:23.001Z</time></trkpt><trkpt lat="45.47889759033588" lon="10.349824684302678"><ele>140.0</ele><time>2026-04-12T15:21:24.001Z</time></trkpt><trkpt lat="45.47889227818497" lon="10.349616282312628"><ele>140.0</ele><time>2026-04-12T15:21:25.001Z</time></trkpt><trkpt lat="45.47888712833274" lon="10.349414246996066"><ele>140.0</ele><time>2026-04-12T15:21:26.001Z</time></trkpt><trkpt lat="45.47888204024095" lon="10.349214634877585"><ele>140.0</ele><time>2026-04-12T15:21:27.001Z</time></trkpt><trkpt lat="45.47887722154816" lon="10.349015335209288"><ele>140.0</ele><time>2026-04-12T15:21:28.001Z</time></trkpt><trkpt lat="45.478872332656785" lon="10.348827274159529"><ele>140.0</ele><time>2026-04-12T15:21:29.001Z</time></trkpt><trkpt lat="45.47886768542867" lon="10.348648509141224"><ele>140.0</ele><time>2026-04-12T15:21:30.001Z</time></trkpt><trkpt lat="45.4788630346982" lon="10.348469609493431"><ele>140.0</ele><time>2026-04-12T15:21:31Z</time></trkpt><trkpt lat="45.47885867352838" lon="10.348295833156296"><ele>140.0</ele><time>2026-04-12T15:21:32Z</time></trkpt><trkpt lat="45.47885479247607" lon="10.348128034439087"><ele>140.0</ele><time>2026-04-12T15:21:33Z</time></trkpt><trkpt lat="45.47885144512749" lon="10.34796487813256"><ele>140.0</ele><time>2026-04-12T15:21:34Z</time></trkpt><trkpt lat="45.478851720049946" lon="10.347805184376968"><ele>140.0</ele><time>2026-04-12T15:21:35Z</time></trkpt><trkpt lat="45.47885424186612" lon="10.347652099234317"><ele>139.6</ele><time>2026-04-12T15:21:36Z</time></trkpt><trkpt lat="45.4788582600666" lon="10.347502634139598"><ele>139.2</ele><time>2026-04-12T15:21:37Z</time></trkpt><trkpt lat="45.47886401256802" lon="10.347358195986274"><ele>138.8</ele><time>2026-04-12T15:21:38Z</time></trkpt><trkpt lat="45.47887204495744" lon="10.347215463533718"><ele>138.4</ele><time>2026-04-12T15:21:39Z</time></trkpt><trkpt lat="45.478880526909265" lon="10.34707584550896"><ele>138.0</ele><time>2026-04-12T15:21:40Z</time></trkpt><trkpt lat="45.47889103670341" lon="10.346937103122526"><ele>137.8</ele><time>2026-04-12T15:21:41Z</time></trkpt><trkpt lat="45.47890326404731" lon="10.346798700593757"><ele>137.60000000000002</ele><time>2026-04-12T15:21:42Z</time></trkpt><trkpt lat="45.478918102202535" lon="10.346661122886776"><ele>137.39999999999998</ele><time>2026-04-12T15:21:43Z</time></trkpt><trkpt lat="45.47893403324809" lon="10.346524645550355"><ele>137.2</ele><time>2026-04-12T15:21:44Z</time></trkpt><trkpt lat="45.478950504655806" lon="10.346393470054519"><ele>137.0</ele><time>2026-04-12T15:21:45Z</time></trkpt><trkpt lat="45.47896423261893" lon="10.346299165091848"><ele>137.0</ele><time>2026-04-12T15:21:46Z</time></trkpt><trkpt lat="45.47896678967035" lon="10.346176759415899"><ele>137.0</ele><time>2026-04-12T15:21:48Z</time></trkpt><trkpt lat="45.479007007324974" lon="10.346034326548455"><ele>137.0</ele><time>2026-04-12T15:21:51Z</time></trkpt><trkpt lat="45.47902930396126" lon="10.345913474783769"><ele>137.0</ele><time>2026-04-12T15:21:52Z</time></trkpt><trkpt lat="45.47905682002855" lon="10.345769806482112"><ele>137.0</ele><time>2026-04-12T15:21:53Z</time></trkpt><trkpt lat="45.47908650636612" lon="10.345628489669537"><ele>137.4</ele><time>2026-04-12T15:21:54Z</time></trkpt><trkpt lat="45.479118378307454" lon="10.345480359727475"><ele>137.79999999999998</ele><time>2026-04-12T15:21:55Z</time></trkpt><trkpt lat="45.47915366281799" lon="10.34533312892924"><ele>138.2</ele><time>2026-04-12T15:21:56Z</time></trkpt><trkpt lat="45.479190021206236" lon="10.345187176626203"><ele>138.6</ele><time>2026-04-12T15:21:57Z</time></trkpt><trkpt lat="45.47923205398941" lon="10.345035799979593"><ele>139.0</ele><time>2026-04-12T15:21:58Z</time></trkpt><trkpt lat="45.47928018596193" lon="10.344873237828054"><ele>139.0</ele><time>2026-04-12T15:21:59Z</time></trkpt><trkpt lat="45.479329513359495" lon="10.344704482525392"><ele>139.0</ele><time>2026-04-12T15:22:00Z</time></trkpt><trkpt lat="45.479379034249554" lon="10.344540979620355"><ele>139.0</ele><time>2026-04-12T15:22:01Z</time></trkpt><trkpt lat="45.47942365335881" lon="10.344393660754978"><ele>139.0</ele><time>2026-04-12T15:22:02Z</time></trkpt><trkpt lat="45.47946778214845" lon="10.34424796093042"><ele>139.0</ele><time>2026-04-12T15:22:03Z</time></trkpt><trkpt lat="45.47950474503176" lon="10.344125920996593"><ele>139.0</ele><time>2026-04-12T15:22:04Z</time></trkpt><trkpt lat="45.479540822760256" lon="10.344006803227876"><ele>139.0</ele><time>2026-04-12T15:22:05Z</time></trkpt><trkpt lat="45.47955976046363" lon="10.343886766582576"><ele>139.0</ele><time>2026-04-12T15:22:06Z</time></trkpt><trkpt lat="45.47959289968873" lon="10.343786549159825"><ele>139.0</ele><time>2026-04-12T15:22:07Z</time></trkpt><trkpt lat="45.479637730945115" lon="10.343683775064392"><ele>139.0</ele><time>2026-04-12T15:22:08Z</time></trkpt><trkpt lat="45.479679142244365" lon="10.343545555499691"><ele>139.4</ele><time>2026-04-12T15:22:09Z</time></trkpt><trkpt lat="45.47970555458457" lon="10.343402031658364"><ele>139.8</ele><time>2026-04-12T15:22:10Z</time></trkpt><trkpt lat="45.47974787680609" lon="10.343276565389788"><ele>140.2</ele><time>2026-04-12T15:22:11Z</time></trkpt><trkpt lat="45.47978610479464" lon="10.343163133203218"><ele>140.6</ele><time>2026-04-12T15:22:12Z</time></trkpt><trkpt lat="45.47981426373647" lon="10.343060490747275"><ele>141.0</ele><time>2026-04-12T15:22:13Z</time></trkpt><trkpt lat="45.479848632548546" lon="10.342949413223737"><ele>141.0</ele><time>2026-04-12T15:22:14Z</time></trkpt><trkpt lat="45.479883595822486" lon="10.342835750485099"><ele>141.0</ele><time>2026-04-12T15:22:15Z</time></trkpt><trkpt lat="45.47991973697056" lon="10.342711523160958"><ele>141.0</ele><time>2026-04-12T15:22:16Z</time></trkpt><trkpt lat="45.479955931304666" lon="10.342589100534564"><ele>141.0</ele><time>2026-04-12T15:22:17Z</time></trkpt><trkpt lat="45.47999371319648" lon="10.342467646954447"><ele>141.0</ele><time>2026-04-12T15:22:18Z</time></trkpt><trkpt lat="45.480030317171206" lon="10.342337499779731"><ele>140.4</ele><time>2026-04-12T15:22:19Z</time></trkpt><trkpt lat="45.48007038508022" lon="10.342209892603309"><ele>139.8</ele><time>2026-04-12T15:22:20Z</time></trkpt><trkpt lat="45.48011055651511" lon="10.342070283831514"><ele>139.20000000000002</ele><time>2026-04-12T15:22:21Z</time></trkpt><trkpt lat="45.4801492834855" lon="10.3419323871068"><ele>138.6</ele><time>2026-04-12T15:22:22Z</time></trkpt><trkpt lat="45.48019516099733" lon="10.341787491130502"><ele>138.0</ele><time>2026-04-12T15:22:23Z</time></trkpt><trkpt lat="45.48024304894387" lon="10.341639193981651"><ele>138.0</ele><time>2026-04-12T15:22:24Z</time></trkpt><trkpt lat="45.48028733223551" lon="10.341484667921359"><ele>138.0</ele><time>2026-04-12T15:22:25Z</time></trkpt><trkpt lat="45.4803321349393" lon="10.341327360393997"><ele>138.0</ele><time>2026-04-12T15:22:26Z</time></trkpt><trkpt lat="45.48037842341233" lon="10.34117737722605"><ele>138.0</ele><time>2026-04-12T15:22:27Z</time></trkpt><trkpt lat="45.4804285563034" lon="10.341014565426171"><ele>138.5</ele><time>2026-04-12T15:22:28Z</time></trkpt><trkpt lat="45.48047508205428" lon="10.340858710743033"><ele>139.0</ele><time>2026-04-12T15:22:29Z</time></trkpt><trkpt lat="45.48052410348781" lon="10.340708502556835"><ele>139.5</ele><time>2026-04-12T15:22:30Z</time></trkpt><trkpt lat="45.4805742160258" lon="10.340561176626293"><ele>140.0</ele><time>2026-04-12T15:22:31Z</time></trkpt><trkpt lat="45.48062020833037" lon="10.340426065950547"><ele>140.0</ele><time>2026-04-12T15:22:32Z</time></trkpt><trkpt lat="45.48066345337428" lon="10.340301929630968"><ele>140.0</ele><time>2026-04-12T15:22:33Z</time></trkpt><trkpt lat="45.48070322533233" lon="10.340184943921074"><ele>140.0</ele><time>2026-04-12T15:22:34Z</time></trkpt><trkpt lat="45.480743049778916" lon="10.340079506349431"><ele>140.0</ele><time>2026-04-12T15:22:35Z</time></trkpt><trkpt lat="45.480780647584325" lon="10.339981538980698"><ele>140.0</ele><time>2026-04-12T15:22:36Z</time></trkpt><trkpt lat="45.48081835473441" lon="10.33988653933593"><ele>140.0</ele><time>2026-04-12T15:22:37Z</time></trkpt><trkpt lat="45.48085986208976" lon="10.339782191824561"><ele>139.8</ele><time>2026-04-12T15:22:38Z</time></trkpt><trkpt lat="45.48090390524181" lon="10.339671967991553"><ele>139.6</ele><time>2026-04-12T15:22:39Z</time></trkpt><trkpt lat="45.48095254098278" lon="10.33955685786013"><ele>139.4</ele><time>2026-04-12T15:22:40Z</time></trkpt><trkpt lat="45.48100622617055" lon="10.339432444760185"><ele>139.2</ele><time>2026-04-12T15:22:41Z</time></trkpt><trkpt lat="45.481062005884255" lon="10.339303236616704"><ele>139.0</ele><time>2026-04-12T15:22:42Z</time></trkpt><trkpt lat="45.48112338276868" lon="10.339168957953687"><ele>139.0</ele><time>2026-04-12T15:22:43Z</time></trkpt><trkpt lat="45.481185511477506" lon="10.339039358415818"><ele>139.0</ele><time>2026-04-12T15:22:44Z</time></trkpt><trkpt lat="45.48125102751038" lon="10.338907836855658"><ele>139.0</ele><time>2026-04-12T15:22:45Z</time></trkpt><trkpt lat="45.48132036793032" lon="10.338775546175011"><ele>139.0</ele><time>2026-04-12T15:22:46Z</time></trkpt><trkpt lat="45.48139258612533" lon="10.338641209923171"><ele>139.0</ele><time>2026-04-12T15:22:47Z</time></trkpt><trkpt lat="45.48146497584591" lon="10.338508302267394"><ele>139.0</ele><time>2026-04-12T15:22:48Z</time></trkpt><trkpt lat="45.48153560206608" lon="10.338376283880145"><ele>139.0</ele><time>2026-04-12T15:22:49Z</time></trkpt><trkpt lat="45.4816158350685" lon="10.338243570764591"><ele>139.0</ele><time>2026-04-12T15:22:50Z</time></trkpt><trkpt lat="45.481690459774136" lon="10.338120083578264"><ele>139.2</ele><time>2026-04-12T15:22:51Z</time></trkpt><trkpt lat="45.481761214113014" lon="10.338008660146192"><ele>139.4</ele><time>2026-04-12T15:22:52Z</time></trkpt><trkpt lat="45.48184145761048" lon="10.337888811395414"><ele>139.6</ele><time>2026-04-12T15:22:53Z</time></trkpt><trkpt lat="45.4819176717236" lon="10.337777992961035"><ele>139.8</ele><time>2026-04-12T15:22:54Z</time></trkpt><trkpt lat="45.48199194251637" lon="10.33766850062653"><ele>140.0</ele><time>2026-04-12T15:22:55Z</time></trkpt><trkpt lat="45.48206176215913" lon="10.337561959706678"><ele>139.8</ele><time>2026-04-12T15:22:56Z</time></trkpt><trkpt lat="45.482136597388205" lon="10.337459424091563"><ele>139.6</ele><time>2026-04-12T15:22:57Z</time></trkpt><trkpt lat="45.48221330611004" lon="10.337350196141044"><ele>139.4</ele><time>2026-04-12T15:22:58Z</time></trkpt><trkpt lat="45.482297307124384" lon="10.337235803448264"><ele>139.2</ele><time>2026-04-12T15:22:59Z</time></trkpt><trkpt lat="45.48238550832725" lon="10.337118949162658"><ele>139.0</ele><time>2026-04-12T15:23:00Z</time></trkpt><trkpt lat="45.48247132404733" lon="10.336996512264014"><ele>139.0</ele><time>2026-04-12T15:23:01Z</time></trkpt><trkpt lat="45.482560464469394" lon="10.336873759418568"><ele>139.0</ele><time>2026-04-12T15:23:02Z</time></trkpt><trkpt lat="45.482648498102925" lon="10.336748359759083"><ele>139.0</ele><time>2026-04-12T15:23:03Z</time></trkpt><trkpt lat="45.48274133968848" lon="10.336620823574744"><ele>139.0</ele><time>2026-04-12T15:23:04Z</time></trkpt><trkpt lat="45.482832315244345" lon="10.33649414119799"><ele>138.5</ele><time>2026-04-12T15:23:05Z</time></trkpt><trkpt lat="45.482924612716445" lon="10.336356236864487"><ele>138.0</ele><time>2026-04-12T15:23:06Z</time></trkpt><trkpt lat="45.48301598404441" lon="10.336226659326353"><ele>137.5</ele><time>2026-04-12T15:23:07Z</time></trkpt><trkpt lat="45.483112000164404" lon="10.33609706917942"><ele>137.0</ele><time>2026-04-12T15:23:08Z</time></trkpt><trkpt lat="45.48320532811001" lon="10.335971959319432"><ele>137.0</ele><time>2026-04-12T15:23:09Z</time></trkpt><trkpt lat="45.483295839536794" lon="10.335852100768847"><ele>137.0</ele><time>2026-04-12T15:23:10Z</time></trkpt><trkpt lat="45.483384757218175" lon="10.335730054669035"><ele>137.0</ele><time>2026-04-12T15:23:11Z</time></trkpt><trkpt lat="45.48348091269089" lon="10.335590632213712"><ele>137.0</ele><time>2026-04-12T15:23:12Z</time></trkpt><trkpt lat="45.483582308440894" lon="10.335438755605509"><ele>137.66666666666666</ele><time>2026-04-12T15:23:13Z</time></trkpt><trkpt lat="45.483705347178805" lon="10.33529682935814"><ele>138.33333333333334</ele><time>2026-04-12T15:23:14Z</time></trkpt><trkpt lat="45.48382316225833" lon="10.335133176316159"><ele>139.0</ele><time>2026-04-12T15:23:15Z</time></trkpt><trkpt lat="45.48394940601208" lon="10.334957693587203"><ele>139.0</ele><time>2026-04-12T15:23:16Z</time></trkpt><trkpt lat="45.484066764167416" lon="10.334769911167209"><ele>139.0</ele><time>2026-04-12T15:23:17Z</time></trkpt><trkpt lat="45.48418941518684" lon="10.334596915926992"><ele>139.0</ele><time>2026-04-12T15:23:18Z</time></trkpt><trkpt lat="45.48430122375005" lon="10.33444247735179"><ele>139.0</ele><time>2026-04-12T15:23:19Z</time></trkpt><trkpt lat="45.48439171663455" lon="10.334317174578462"><ele>139.0</ele><time>2026-04-12T15:23:20Z</time></trkpt><trkpt lat="45.48446580868134" lon="10.334215642250424"><ele>139.0</ele><time>2026-04-12T15:23:21Z</time></trkpt><trkpt lat="45.48452271914647" lon="10.334135814499566"><ele>139.0</ele><time>2026-04-12T15:23:22Z</time></trkpt><trkpt lat="45.48457837924545" lon="10.334057631209685"><ele>139.0</ele><time>2026-04-12T15:23:23Z</time></trkpt><trkpt lat="45.48462918775585" lon="10.333984197956692"><ele>138.4</ele><time>2026-04-12T15:23:24Z</time></trkpt><trkpt lat="45.48470782109972" lon="10.333870739663482"><ele>137.8</ele><time>2026-04-12T15:23:26Z</time></trkpt><trkpt lat="45.48481416470961" lon="10.33375133844759"><ele>137.2</ele><time>2026-04-12T15:23:28Z</time></trkpt><trkpt lat="45.48487748301766" lon="10.333662860622985"><ele>136.6</ele><time>2026-04-12T15:23:29Z</time></trkpt><trkpt lat="45.48493820260865" lon="10.333578014038153"><ele>136.0</ele><time>2026-04-12T15:23:30Z</time></trkpt><trkpt lat="45.48499593438166" lon="10.33349734256263"><ele>136.0</ele><time>2026-04-12T15:23:31Z</time></trkpt><trkpt lat="45.48506670217792" lon="10.333398455119905"><ele>136.0</ele><time>2026-04-12T15:23:32Z</time></trkpt><trkpt lat="45.48514193148762" lon="10.333293333396842"><ele>136.0</ele><time>2026-04-12T15:23:33Z</time></trkpt><trkpt lat="45.4852226629312" lon="10.333180523320491"><ele>136.0</ele><time>2026-04-12T15:23:34Z</time></trkpt><trkpt lat="45.48530527491895" lon="10.33306508539676"><ele>136.0</ele><time>2026-04-12T15:23:35Z</time></trkpt><trkpt lat="45.485384582458096" lon="10.332954265027567"><ele>136.6</ele><time>2026-04-12T15:23:36Z</time></trkpt><trkpt lat="45.48544599937416" lon="10.332837490669341"><ele>137.2</ele><time>2026-04-12T15:23:37Z</time></trkpt><trkpt lat="45.48552479080475" lon="10.332730692931234"><ele>137.8</ele><time>2026-04-12T15:23:38Z</time></trkpt><trkpt lat="45.48560802435533" lon="10.33261517558729"><ele>138.4</ele><time>2026-04-12T15:23:39Z</time></trkpt><trkpt lat="45.48569326976289" lon="10.33249789053437"><ele>139.0</ele><time>2026-04-12T15:23:40Z</time></trkpt><trkpt lat="45.485780472829255" lon="10.33238086652634"><ele>139.0</ele><time>2026-04-12T15:23:41Z</time></trkpt><trkpt lat="45.48587193509396" lon="10.33225402416341"><ele>139.0</ele><time>2026-04-12T15:23:42Z</time></trkpt><trkpt lat="45.48596396485099" lon="10.332133355047024"><ele>139.0</ele><time>2026-04-12T15:23:43Z</time></trkpt><trkpt lat="45.486059592726136" lon="10.331995300582907"><ele>139.0</ele><time>2026-04-12T15:23:44Z</time></trkpt><trkpt lat="45.48616093477749" lon="10.331856417851192"><ele>138.5</ele><time>2026-04-12T15:23:45Z</time></trkpt><trkpt lat="45.48626383063252" lon="10.331713732538542"><ele>138.0</ele><time>2026-04-12T15:23:46Z</time></trkpt><trkpt lat="45.486369621902476" lon="10.331566117556523"><ele>137.5</ele><time>2026-04-12T15:23:47Z</time></trkpt><trkpt lat="45.48648363436418" lon="10.331414657440437"><ele>137.0</ele><time>2026-04-12T15:23:48Z</time></trkpt><trkpt lat="45.486592520395384" lon="10.331263032839356"><ele>137.0</ele><time>2026-04-12T15:23:49Z</time></trkpt><trkpt lat="45.486692372788795" lon="10.331118398860973"><ele>137.0</ele><time>2026-04-12T15:23:50Z</time></trkpt><trkpt lat="45.48679007016597" lon="10.330984154175335"><ele>137.0</ele><time>2026-04-12T15:23:51Z</time></trkpt><trkpt lat="45.48687846524315" lon="10.330862320948208"><ele>137.0</ele><time>2026-04-12T15:23:52Z</time></trkpt><trkpt lat="45.48696301342627" lon="10.330742903826653"><ele>137.0</ele><time>2026-04-12T15:23:53Z</time></trkpt><trkpt lat="45.48704484366446" lon="10.330628603341383"><ele>137.0</ele><time>2026-04-12T15:23:54Z</time></trkpt><trkpt lat="45.487120053049466" lon="10.33052273379336"><ele>137.0</ele><time>2026-04-12T15:23:55Z</time></trkpt><trkpt lat="45.4871885055375" lon="10.330426134952383"><ele>137.0</ele><time>2026-04-12T15:23:56Z</time></trkpt><trkpt lat="45.48725095359821" lon="10.330345296489671"><ele>137.0</ele><time>2026-04-12T15:23:57Z</time></trkpt><trkpt lat="45.48730464485763" lon="10.330264150600913"><ele>137.0</ele><time>2026-04-12T15:23:58Z</time></trkpt><trkpt lat="45.48734986028323" lon="10.330201163081348"><ele>137.0</ele><time>2026-04-12T15:23:59Z</time></trkpt><trkpt lat="45.48743959377538" lon="10.330077954261176"><ele>137.0</ele><time>2026-04-12T15:24:01Z</time></trkpt><trkpt lat="45.48748530354259" lon="10.33001029537996"><ele>137.0</ele><time>2026-04-12T15:24:02Z</time></trkpt><trkpt lat="45.48753293044232" lon="10.329941748732436"><ele>137.0</ele><time>2026-04-12T15:24:03Z</time></trkpt><trkpt lat="45.48758057898652" lon="10.329875372202482"><ele>137.0</ele><time>2026-04-12T15:24:04Z</time></trkpt><trkpt lat="45.48763327421364" lon="10.32980385231008"><ele>137.16666666666666</ele><time>2026-04-12T15:24:05Z</time></trkpt><trkpt lat="45.48771935391485" lon="10.329681405453602"><ele>137.33333333333331</ele><time>2026-04-12T15:24:07Z</time></trkpt><trkpt lat="45.4877690474979" lon="10.32961078554426"><ele>137.5</ele><time>2026-04-12T15:24:08Z</time></trkpt><trkpt lat="45.48781899547834" lon="10.329539048948297"><ele>137.66666666666666</ele><time>2026-04-12T15:24:09Z</time></trkpt><trkpt lat="45.48787459854277" lon="10.329463940953708"><ele>137.83333333333334</ele><time>2026-04-12T15:24:10Z</time></trkpt><trkpt lat="45.48793787510661" lon="10.32938011764589"><ele>138.0</ele><time>2026-04-12T15:24:11Z</time></trkpt><trkpt lat="45.488016925366225" lon="10.329293061723972"><ele>138.0</ele><time>2026-04-12T15:24:12Z</time></trkpt><trkpt lat="45.48810579033527" lon="10.329169479777276"><ele>138.0</ele><time>2026-04-12T15:24:13Z</time></trkpt><trkpt lat="45.48820312344017" lon="10.329034121394091"><ele>138.0</ele><time>2026-04-12T15:24:14Z</time></trkpt><trkpt lat="45.488305138880506" lon="10.328892251565557"><ele>138.0</ele><time>2026-04-12T15:24:15Z</time></trkpt><trkpt lat="45.48840203644343" lon="10.328757499146086"><ele>138.5</ele><time>2026-04-12T15:24:16Z</time></trkpt><trkpt lat="45.48849564009689" lon="10.328627327050793"><ele>139.0</ele><time>2026-04-12T15:24:17Z</time></trkpt><trkpt lat="45.48857961437354" lon="10.328510546563061"><ele>139.5</ele><time>2026-04-12T15:24:18Z</time></trkpt><trkpt lat="45.48865120955787" lon="10.328379685318966"><ele>140.0</ele><time>2026-04-12T15:24:19Z</time></trkpt><trkpt lat="45.48872363176175" lon="10.328286899940128"><ele>139.66666666666666</ele><time>2026-04-12T15:24:20Z</time></trkpt><trkpt lat="45.488794353771965" lon="10.328188337847513"><ele>139.33333333333331</ele><time>2026-04-12T15:24:21Z</time></trkpt><trkpt lat="45.48885889260122" lon="10.328097711689546"><ele>139.0</ele><time>2026-04-12T15:24:22Z</time></trkpt><trkpt lat="45.48891781853259" lon="10.328015474857619"><ele>138.66666666666666</ele><time>2026-04-12T15:24:23Z</time></trkpt><trkpt lat="45.488970662336264" lon="10.327941502821407"><ele>138.33333333333334</ele><time>2026-04-12T15:24:24Z</time></trkpt><trkpt lat="45.48902745355747" lon="10.32786546627471"><ele>138.0</ele><time>2026-04-12T15:24:25Z</time></trkpt><trkpt lat="45.48908544213689" lon="10.327788757682772"><ele>138.0</ele><time>2026-04-12T15:24:26Z</time></trkpt><trkpt lat="45.48914037504862" lon="10.327709250686745"><ele>138.0</ele><time>2026-04-12T15:24:27Z</time></trkpt><trkpt lat="45.48918885378753" lon="10.327638292968702"><ele>138.0</ele><time>2026-04-12T15:24:28Z</time></trkpt><trkpt lat="45.48923795259923" lon="10.32756953091365"><ele>138.0</ele><time>2026-04-12T15:24:29Z</time></trkpt><trkpt lat="45.48932602027433" lon="10.327454400019386"><ele>138.0</ele><time>2026-04-12T15:24:31Z</time></trkpt><trkpt lat="45.48941012611898" lon="10.327330161856993"><ele>138.20000000000002</ele><time>2026-04-12T15:24:33Z</time></trkpt><trkpt lat="45.48949415161641" lon="10.327217634547651"><ele>138.4</ele><time>2026-04-12T15:24:35Z</time></trkpt><trkpt lat="45.48955305435067" lon="10.32713219931943"><ele>138.60000000000002</ele><time>2026-04-12T15:24:37Z</time></trkpt><trkpt lat="45.48960581501761" lon="10.327061339814762"><ele>138.8</ele><time>2026-04-12T15:24:39Z</time></trkpt><trkpt lat="45.48967542644957" lon="10.326960597739626"><ele>139.0</ele><time>2026-04-12T15:24:41Z</time></trkpt><trkpt lat="45.48977227332738" lon="10.326851185355288"><ele>139.0</ele><time>2026-04-12T15:24:43Z</time></trkpt><trkpt lat="45.48982038473762" lon="10.326784114619315"><ele>139.0</ele><time>2026-04-12T15:24:44Z</time></trkpt><trkpt lat="45.48987121343209" lon="10.326713255755744"><ele>139.0</ele><time>2026-04-12T15:24:45Z</time></trkpt><trkpt lat="45.489927224141574" lon="10.32663517272173"><ele>139.0</ele><time>2026-04-12T15:24:46Z</time></trkpt><trkpt lat="45.48998302243001" lon="10.326557385796942"><ele>139.0</ele><time>2026-04-12T15:24:47Z</time></trkpt><trkpt lat="45.49003169495875" lon="10.32646059818474"><ele>139.0</ele><time>2026-04-12T15:24:48Z</time></trkpt><trkpt lat="45.49009635188594" lon="10.32637280773236"><ele>138.8</ele><time>2026-04-12T15:24:49Z</time></trkpt><trkpt lat="45.4901654984564" lon="10.32628202956332"><ele>138.60000000000002</ele><time>2026-04-12T15:24:50Z</time></trkpt><trkpt lat="45.490240497417545" lon="10.326181334426497"><ele>138.4</ele><time>2026-04-12T15:24:51Z</time></trkpt><trkpt lat="45.4903254728374" lon="10.326060599812319"><ele>138.20000000000002</ele><time>2026-04-12T15:24:52Z</time></trkpt><trkpt lat="45.490421431867716" lon="10.325930577943122"><ele>138.0</ele><time>2026-04-12T15:24:53Z</time></trkpt><trkpt lat="45.49051613224866" lon="10.325800180950258"><ele>138.0</ele><time>2026-04-12T15:24:54Z</time></trkpt><trkpt lat="45.490612533334165" lon="10.325667052619226"><ele>138.0</ele><time>2026-04-12T15:24:55Z</time></trkpt><trkpt lat="45.49071002675695" lon="10.325530041989657"><ele>138.0</ele><time>2026-04-12T15:24:56Z</time></trkpt><trkpt lat="45.49081385933695" lon="10.32538164532532"><ele>138.0</ele><time>2026-04-12T15:24:57Z</time></trkpt><trkpt lat="45.49092380546337" lon="10.32523449984979"><ele>138.33333333333334</ele><time>2026-04-12T15:24:58Z</time></trkpt><trkpt lat="45.49103520965296" lon="10.32508282895508"><ele>138.66666666666669</ele><time>2026-04-12T15:24:59Z</time></trkpt><trkpt lat="45.491146528446016" lon="10.324925067812899"><ele>139.0</ele><time>2026-04-12T15:25:00Z</time></trkpt><trkpt lat="45.49125312952613" lon="10.324778523905314"><ele>138.66666666666669</ele><time>2026-04-12T15:25:01Z</time></trkpt><trkpt lat="45.49136274449762" lon="10.324627949969326"><ele>138.33333333333334</ele><time>2026-04-12T15:25:02Z</time></trkpt><trkpt lat="45.49147251097393" lon="10.324474238237764"><ele>138.0</ele><time>2026-04-12T15:25:03Z</time></trkpt><trkpt lat="45.49158475604493" lon="10.324320037440597"><ele>138.0</ele><time>2026-04-12T15:25:04Z</time></trkpt><trkpt lat="45.49169662841068" lon="10.324167609304771"><ele>138.0</ele><time>2026-04-12T15:25:05Z</time></trkpt><trkpt lat="45.49180788115697" lon="10.324008997436056"><ele>138.0</ele><time>2026-04-12T15:25:06Z</time></trkpt><trkpt lat="45.49192571503204" lon="10.323844236811786"><ele>138.33333333333334</ele><time>2026-04-12T15:25:07Z</time></trkpt><trkpt lat="45.49204565007883" lon="10.323683848941174"><ele>138.66666666666669</ele><time>2026-04-12T15:25:08Z</time></trkpt><trkpt lat="45.49216834301937" lon="10.323511455233499"><ele>139.0</ele><time>2026-04-12T15:25:09Z</time></trkpt><trkpt lat="45.49228680635757" lon="10.323342337479499"><ele>139.0</ele><time>2026-04-12T15:25:10Z</time></trkpt><trkpt lat="45.49240639358996" lon="10.323174408351962"><ele>139.0</ele><time>2026-04-12T15:25:11Z</time></trkpt><trkpt lat="45.49253195274085" lon="10.322997802693127"><ele>139.0</ele><time>2026-04-12T15:25:12Z</time></trkpt><trkpt lat="45.49264963310513" lon="10.322831293103544"><ele>139.0</ele><time>2026-04-12T15:25:13Z</time></trkpt><trkpt lat="45.49277579810087" lon="10.322660027758054"><ele>139.0</ele><time>2026-04-12T15:25:14Z</time></trkpt><trkpt lat="45.49289973758559" lon="10.322495095464989"><ele>139.0</ele><time>2026-04-12T15:25:15Z</time></trkpt><trkpt lat="45.493027087342924" lon="10.322318941131972"><ele>139.0</ele><time>2026-04-12T15:25:16Z</time></trkpt><trkpt lat="45.49315539677653" lon="10.32214156763679"><ele>139.0</ele><time>2026-04-12T15:25:17Z</time></trkpt><trkpt lat="45.49327705290055" lon="10.32196253366681"><ele>139.0</ele><time>2026-04-12T15:25:18Z</time></trkpt><trkpt lat="45.49340489636425" lon="10.321781135474804"><ele>139.0</ele><time>2026-04-12T15:25:19Z</time></trkpt><trkpt lat="45.49353806592645" lon="10.321599262261728"><ele>139.0</ele><time>2026-04-12T15:25:20Z</time></trkpt><trkpt lat="45.49366725190401" lon="10.321420784233068"><ele>139.0</ele><time>2026-04-12T15:25:21Z</time></trkpt><trkpt lat="45.49379712040103" lon="10.321239687036073"><ele>139.66666666666669</ele><time>2026-04-12T15:25:22Z</time></trkpt><trkpt lat="45.49392823330895" lon="10.321056172053568"><ele>140.33333333333334</ele><time>2026-04-12T15:25:23Z</time></trkpt><trkpt lat="45.494053056122716" lon="10.320872365510628"><ele>141.0</ele><time>2026-04-12T15:25:24Z</time></trkpt><trkpt lat="45.4941807708605" lon="10.32069844992555"><ele>140.66666666666666</ele><time>2026-04-12T15:25:25Z</time></trkpt><trkpt lat="45.49430486797164" lon="10.320523366523501"><ele>140.33333333333331</ele><time>2026-04-12T15:25:26Z</time></trkpt><trkpt lat="45.494423104507526" lon="10.320355803547308"><ele>140.0</ele><time>2026-04-12T15:25:27Z</time></trkpt><trkpt lat="45.49454136358685" lon="10.32019163429836"><ele>140.0</ele><time>2026-04-12T15:25:28Z</time></trkpt><trkpt lat="45.494661477473045" lon="10.320022059665195"><ele>140.0</ele><time>2026-04-12T15:25:29Z</time></trkpt><trkpt lat="45.494781745118004" lon="10.319857180389445"><ele>140.0</ele><time>2026-04-12T15:25:30Z</time></trkpt><trkpt lat="45.49490261336598" lon="10.319698413074361"><ele>140.0</ele><time>2026-04-12T15:25:31Z</time></trkpt><trkpt lat="45.49501874267521" lon="10.319545078775377"><ele>140.0</ele><time>2026-04-12T15:25:32Z</time></trkpt><trkpt lat="45.4951244941017" lon="10.319367977116388"><ele>140.0</ele><time>2026-04-12T15:25:33Z</time></trkpt><trkpt lat="45.4952417677444" lon="10.31923960944519"><ele>140.0</ele><time>2026-04-12T15:25:34Z</time></trkpt><trkpt lat="45.495350055119225" lon="10.319101985569528"><ele>140.0</ele><time>2026-04-12T15:25:35Z</time></trkpt><trkpt lat="45.49546285906691" lon="10.318942539048818"><ele>140.0</ele><time>2026-04-12T15:25:36Z</time></trkpt><trkpt lat="45.4955786896478" lon="10.318773515631614"><ele>140.0</ele><time>2026-04-12T15:25:37Z</time></trkpt><trkpt lat="45.49570549027654" lon="10.318598099832073"><ele>140.0</ele><time>2026-04-12T15:25:38Z</time></trkpt><trkpt lat="45.49583217052738" lon="10.318418691042524"><ele>140.0</ele><time>2026-04-12T15:25:39Z</time></trkpt><trkpt lat="45.49594821153242" lon="10.318234336166272"><ele>140.0</ele><time>2026-04-12T15:25:40Z</time></trkpt><trkpt lat="45.49606795246385" lon="10.318035613468174"><ele>140.0</ele><time>2026-04-12T15:25:41Z</time></trkpt><trkpt lat="45.49618561429834" lon="10.317822392676211"><ele>140.0</ele><time>2026-04-12T15:25:42Z</time></trkpt><trkpt lat="45.496294195129245" lon="10.31758985074188"><ele>139.0</ele><time>2026-04-12T15:25:43Z</time></trkpt><trkpt lat="45.49639523866446" lon="10.317351824613095"><ele>138.0</ele><time>2026-04-12T15:25:44Z</time></trkpt><trkpt lat="45.49648913085067" lon="10.317111155931938"><ele>137.0</ele><time>2026-04-12T15:25:45Z</time></trkpt><trkpt lat="45.4965825255294" lon="10.316862765937609"><ele>137.0</ele><time>2026-04-12T15:25:46Z</time></trkpt><trkpt lat="45.496670628896915" lon="10.316606591894862"><ele>137.0</ele><time>2026-04-12T15:25:47Z</time></trkpt><trkpt lat="45.49674110895723" lon="10.316360043760175"><ele>137.0</ele><time>2026-04-12T15:25:48Z</time></trkpt><trkpt lat="45.49680367132459" lon="10.31613245841866"><ele>137.0</ele><time>2026-04-12T15:25:49Z</time></trkpt><trkpt lat="45.49686018524918" lon="10.315897354118094"><ele>137.0</ele><time>2026-04-12T15:25:50Z</time></trkpt><trkpt lat="45.49690843725955" lon="10.315651123886678"><ele>137.0</ele><time>2026-04-12T15:25:51Z</time></trkpt><trkpt lat="45.496949574642755" lon="10.31538647785465"><ele>137.66666666666666</ele><time>2026-04-12T15:25:52Z</time></trkpt><trkpt lat="45.49698553564586" lon="10.315116234016326"><ele>138.33333333333334</ele><time>2026-04-12T15:25:53Z</time></trkpt><trkpt lat="45.49701688251825" lon="10.314827223418815"><ele>139.0</ele><time>2026-04-12T15:25:54Z</time></trkpt><trkpt lat="45.4970505109279" lon="10.314522621752145"><ele>139.0</ele><time>2026-04-12T15:25:55Z</time></trkpt><trkpt lat="45.49708902423198" lon="10.314209059706188"><ele>139.0</ele><time>2026-04-12T15:25:56Z</time></trkpt><trkpt lat="45.49712736617182" lon="10.313889910022278"><ele>139.0</ele><time>2026-04-12T15:25:57Z</time></trkpt><trkpt lat="45.497168644247054" lon="10.313569458608915"><ele>139.0</ele><time>2026-04-12T15:25:58Z</time></trkpt><trkpt lat="45.49721163867177" lon="10.313238422239646"><ele>138.5</ele><time>2026-04-12T15:25:59Z</time></trkpt><trkpt lat="45.49725363016295" lon="10.312902105017843"><ele>138.0</ele><time>2026-04-12T15:26:00Z</time></trkpt><trkpt lat="45.497298125264976" lon="10.3125566053206"><ele>138.0</ele><time>2026-04-12T15:26:01Z</time></trkpt><trkpt lat="45.49734264404506" lon="10.312212194582346"><ele>138.0</ele><time>2026-04-12T15:26:02Z</time></trkpt><trkpt lat="45.49738636215893" lon="10.311863474330195"><ele>138.0</ele><time>2026-04-12T15:26:03Z</time></trkpt><trkpt lat="45.497430605447384" lon="10.311512981379122"><ele>138.0</ele><time>2026-04-12T15:26:04Z</time></trkpt><trkpt lat="45.4974753026631" lon="10.311158874291646"><ele>138.0</ele><time>2026-04-12T15:26:05Z</time></trkpt><trkpt lat="45.49751754984517" lon="10.310804568403698"><ele>138.0</ele><time>2026-04-12T15:26:06Z</time></trkpt><trkpt lat="45.49756121169241" lon="10.310448699999316"><ele>138.0</ele><time>2026-04-12T15:26:07Z</time></trkpt><trkpt lat="45.49760235874329" lon="10.310088650264676"><ele>138.0</ele><time>2026-04-12T15:26:08Z</time></trkpt><trkpt lat="45.497646470871096" lon="10.309733774712882"><ele>138.0</ele><time>2026-04-12T15:26:09Z</time></trkpt><trkpt lat="45.49769493297051" lon="10.309372160384909"><ele>138.0</ele><time>2026-04-12T15:26:10Z</time></trkpt><trkpt lat="45.49774222978565" lon="10.309010378462924"><ele>138.5</ele><time>2026-04-12T15:26:11Z</time></trkpt><trkpt lat="45.49778887199957" lon="10.308641411936874"><ele>139.0</ele><time>2026-04-12T15:26:12Z</time></trkpt><trkpt lat="45.497833064372436" lon="10.308273693978515"><ele>138.5</ele><time>2026-04-12T15:26:13Z</time></trkpt><trkpt lat="45.497879441747294" lon="10.307904023551185"><ele>138.0</ele><time>2026-04-12T15:26:14Z</time></trkpt><trkpt lat="45.49792466831599" lon="10.307540570563413"><ele>138.5</ele><time>2026-04-12T15:26:15Z</time></trkpt><trkpt lat="45.497970857665315" lon="10.307166502115152"><ele>139.0</ele><time>2026-04-12T15:26:16Z</time></trkpt><trkpt lat="45.498016512142264" lon="10.30679828022355"><ele>139.0</ele><time>2026-04-12T15:26:17Z</time></trkpt><trkpt lat="45.49806151481843" lon="10.306430968486968"><ele>139.0</ele><time>2026-04-12T15:26:18Z</time></trkpt><trkpt lat="45.49810242354454" lon="10.306076758396191"><ele>138.33333333333334</ele><time>2026-04-12T15:26:19Z</time></trkpt><trkpt lat="45.49814364735987" lon="10.305747652273755"><ele>137.66666666666666</ele><time>2026-04-12T15:26:20Z</time></trkpt><trkpt lat="45.498180806180216" lon="10.305452885922893"><ele>137.0</ele><time>2026-04-12T15:26:21Z</time></trkpt><trkpt lat="45.498216351944144" lon="10.30516628137192"><ele>137.33333333333331</ele><time>2026-04-12T15:26:22Z</time></trkpt><trkpt lat="45.49824907973561" lon="10.304900069835792"><ele>137.66666666666666</ele><time>2026-04-12T15:26:23Z</time></trkpt><trkpt lat="45.49828218832096" lon="10.304632043124592"><ele>138.0</ele><time>2026-04-12T15:26:24Z</time></trkpt><trkpt lat="45.498317705683476" lon="10.30435501123109"><ele>138.0</ele><time>2026-04-12T15:26:25Z</time></trkpt><trkpt lat="45.49835703857368" lon="10.304075494231107"><ele>138.0</ele><time>2026-04-12T15:26:26Z</time></trkpt><trkpt lat="45.49839333789535" lon="10.303790074266306"><ele>138.0</ele><time>2026-04-12T15:26:27Z</time></trkpt><trkpt lat="45.49842784341657" lon="10.30350389736079"><ele>138.0</ele><time>2026-04-12T15:26:28Z</time></trkpt><trkpt lat="45.49845914507925" lon="10.30321871792805"><ele>138.0</ele><time>2026-04-12T15:26:29Z</time></trkpt><trkpt lat="45.49849921060469" lon="10.302919974093756"><ele>138.0</ele><time>2026-04-12T15:26:30Z</time></trkpt><trkpt lat="45.4985340826952" lon="10.30262654097718"><ele>137.33333333333334</ele><time>2026-04-12T15:26:31Z</time></trkpt><trkpt lat="45.49857001000222" lon="10.30232799738465"><ele>136.66666666666669</ele><time>2026-04-12T15:26:32Z</time></trkpt><trkpt lat="45.49860813060387" lon="10.302037966979825"><ele>136.0</ele><time>2026-04-12T15:26:33Z</time></trkpt><trkpt lat="45.49864573388673" lon="10.301748799499382"><ele>135.66666666666669</ele><time>2026-04-12T15:26:34Z</time></trkpt><trkpt lat="45.498683241680745" lon="10.301453403738913"><ele>135.33333333333334</ele><time>2026-04-12T15:26:35Z</time></trkpt><trkpt lat="45.4987199558197" lon="10.30115860312295"><ele>135.0</ele><time>2026-04-12T15:26:36Z</time></trkpt><trkpt lat="45.498757387077774" lon="10.300863477439874"><ele>135.0</ele><time>2026-04-12T15:26:37Z</time></trkpt><trkpt lat="45.49879517427311" lon="10.300564978965625"><ele>135.0</ele><time>2026-04-12T15:26:38Z</time></trkpt><trkpt lat="45.49883240581475" lon="10.300266716215784"><ele>135.0</ele><time>2026-04-12T15:26:39Z</time></trkpt><trkpt lat="45.49887154624689" lon="10.299970200300505"><ele>136.0</ele><time>2026-04-12T15:26:40Z</time></trkpt><trkpt lat="45.49891241090552" lon="10.299669117398402"><ele>137.0</ele><time>2026-04-12T15:26:41Z</time></trkpt><trkpt lat="45.49895219745436" lon="10.299366213609384"><ele>138.0</ele><time>2026-04-12T15:26:42Z</time></trkpt><trkpt lat="45.498990027518495" lon="10.299065431655439"><ele>137.66666666666666</ele><time>2026-04-12T15:26:43Z</time></trkpt><trkpt lat="45.49902712259915" lon="10.298760551505284"><ele>137.33333333333331</ele><time>2026-04-12T15:26:44Z</time></trkpt><trkpt lat="45.49906035358539" lon="10.298458910801239"><ele>137.0</ele><time>2026-04-12T15:26:45Z</time></trkpt><trkpt lat="45.499095608698184" lon="10.298154866155613"><ele>136.66666666666666</ele><time>2026-04-12T15:26:46Z</time></trkpt><trkpt lat="45.4991313734388" lon="10.297849460490594"><ele>136.33333333333334</ele><time>2026-04-12T15:26:47Z</time></trkpt><trkpt lat="45.4991697877908" lon="10.297547526766001"><ele>136.0</ele><time>2026-04-12T15:26:48Z</time></trkpt><trkpt lat="45.49920855911255" lon="10.29724531091843"><ele>136.0</ele><time>2026-04-12T15:26:49Z</time></trkpt><trkpt lat="45.49924743436007" lon="10.296939867067403"><ele>136.0</ele><time>2026-04-12T15:26:50Z</time></trkpt><trkpt lat="45.49928485741367" lon="10.296638925453097"><ele>136.0</ele><time>2026-04-12T15:26:51Z</time></trkpt><trkpt lat="45.49932343818103" lon="10.296333970882499"><ele>136.0</ele><time>2026-04-12T15:26:52Z</time></trkpt><trkpt lat="45.4993604915691" lon="10.296030076660912"><ele>136.0</ele><time>2026-04-12T15:26:53Z</time></trkpt><trkpt lat="45.49939812654931" lon="10.295726274497776"><ele>136.0</ele><time>2026-04-12T15:26:54Z</time></trkpt><trkpt lat="45.49943449311125" lon="10.295424853779428"><ele>136.0</ele><time>2026-04-12T15:26:55Z</time></trkpt><trkpt lat="45.49947095935528" lon="10.295125498436516"><ele>136.0</ele><time>2026-04-12T15:26:56Z</time></trkpt><trkpt lat="45.49950965270864" lon="10.294818261183533"><ele>136.0</ele><time>2026-04-12T15:26:57Z</time></trkpt><trkpt lat="45.49954870237128" lon="10.294508973102806"><ele>136.0</ele><time>2026-04-12T15:26:58Z</time></trkpt><trkpt lat="45.49958893187986" lon="10.294195252513873"><ele>136.0</ele><time>2026-04-12T15:26:59Z</time></trkpt><trkpt lat="45.49962840584613" lon="10.293885169084374"><ele>136.0</ele><time>2026-04-12T15:27:00Z</time></trkpt><trkpt lat="45.49966403055907" lon="10.29357605302149"><ele>136.0</ele><time>2026-04-12T15:27:01Z</time></trkpt><trkpt lat="45.49970163832884" lon="10.293263228845111"><ele>136.0</ele><time>2026-04-12T15:27:02Z</time></trkpt><trkpt lat="45.49973991062104" lon="10.292955698269118"><ele>136.0</ele><time>2026-04-12T15:27:03Z</time></trkpt><trkpt lat="45.49977644447765" lon="10.29265163597204"><ele>136.0</ele><time>2026-04-12T15:27:04Z</time></trkpt><trkpt lat="45.49981594975654" lon="10.292351183273626"><ele>136.0</ele><time>2026-04-12T15:27:05Z</time></trkpt><trkpt lat="45.49985481392905" lon="10.292045954970966"><ele>136.0</ele><time>2026-04-12T15:27:06Z</time></trkpt><trkpt lat="45.499892652277616" lon="10.29174632256209"><ele>136.0</ele><time>2026-04-12T15:27:07Z</time></trkpt><trkpt lat="45.49992866365274" lon="10.291452439814124"><ele>136.0</ele><time>2026-04-12T15:27:08Z</time></trkpt><trkpt lat="45.499966844064005" lon="10.291152521478509"><ele>136.0</ele><time>2026-04-12T15:27:09Z</time></trkpt><trkpt lat="45.50000424246696" lon="10.290851011001543"><ele>135.33333333333334</ele><time>2026-04-12T15:27:10Z</time></trkpt><trkpt lat="45.500041202335986" lon="10.290546198290267"><ele>134.66666666666666</ele><time>2026-04-12T15:27:11Z</time></trkpt><trkpt lat="45.50007771924148" lon="10.290241514486857"><ele>134.0</ele><time>2026-04-12T15:27:12Z</time></trkpt><trkpt lat="45.500116638850336" lon="10.289930660336195"><ele>133.0</ele><time>2026-04-12T15:27:13Z</time></trkpt><trkpt lat="45.50015619480712" lon="10.289629355070913"><ele>132.0</ele><time>2026-04-12T15:27:14Z</time></trkpt><trkpt lat="45.50019689638933" lon="10.289320193517137"><ele>131.0</ele><time>2026-04-12T15:27:15Z</time></trkpt><trkpt lat="45.50023352457164" lon="10.28901171666839"><ele>131.33333333333331</ele><time>2026-04-12T15:27:16Z</time></trkpt><trkpt lat="45.5002721477615" lon="10.288700166651777"><ele>131.66666666666666</ele><time>2026-04-12T15:27:17Z</time></trkpt><trkpt lat="45.50031130466729" lon="10.288389140138529"><ele>132.0</ele><time>2026-04-12T15:27:18Z</time></trkpt><trkpt lat="45.50035159680874" lon="10.288070754838982"><ele>132.0</ele><time>2026-04-12T15:27:19Z</time></trkpt><trkpt lat="45.50039076500333" lon="10.287759583908686"><ele>132.0</ele><time>2026-04-12T15:27:20Z</time></trkpt><trkpt lat="45.50043060086358" lon="10.287441922377269"><ele>132.0</ele><time>2026-04-12T15:27:21Z</time></trkpt><trkpt lat="45.500470042836035" lon="10.287125616832459"><ele>132.0</ele><time>2026-04-12T15:27:22Z</time></trkpt><trkpt lat="45.50050899003343" lon="10.286812085001879"><ele>132.0</ele><time>2026-04-12T15:27:23Z</time></trkpt><trkpt lat="45.50054858196876" lon="10.286497127477052"><ele>132.0</ele><time>2026-04-12T15:27:24Z</time></trkpt><trkpt lat="45.50058921145302" lon="10.286179575527306"><ele>132.0</ele><time>2026-04-12T15:27:25Z</time></trkpt><trkpt lat="45.500628184557264" lon="10.285864129272415"><ele>132.0</ele><time>2026-04-12T15:27:26Z</time></trkpt><trkpt lat="45.50066671808752" lon="10.285546496843395"><ele>131.66666666666666</ele><time>2026-04-12T15:27:27Z</time></trkpt><trkpt lat="45.50070404841766" lon="10.285229896169582"><ele>131.33333333333331</ele><time>2026-04-12T15:27:28Z</time></trkpt><trkpt lat="45.50074462597564" lon="10.284915024796911"><ele>131.0</ele><time>2026-04-12T15:27:29Z</time></trkpt><trkpt lat="45.5007838841136" lon="10.284606253385387"><ele>131.0</ele><time>2026-04-12T15:27:30Z</time></trkpt><trkpt lat="45.50082411358324" lon="10.284290366557958"><ele>131.0</ele><time>2026-04-12T15:27:31Z</time></trkpt><trkpt lat="45.50086371177368" lon="10.28397404854125"><ele>131.0</ele><time>2026-04-12T15:27:32Z</time></trkpt><trkpt lat="45.50090220161419" lon="10.283656781318912"><ele>131.0</ele><time>2026-04-12T15:27:33Z</time></trkpt><trkpt lat="45.50094046611232" lon="10.28334253187539"><ele>131.0</ele><time>2026-04-12T15:27:34Z</time></trkpt><trkpt lat="45.50097811593147" lon="10.283024547974511"><ele>130.33333333333331</ele><time>2026-04-12T15:27:35Z</time></trkpt><trkpt lat="45.50101714442432" lon="10.282706533377624"><ele>129.66666666666666</ele><time>2026-04-12T15:27:36Z</time></trkpt><trkpt lat="45.50105525256037" lon="10.28239325521554"><ele>129.0</ele><time>2026-04-12T15:27:37Z</time></trkpt><trkpt lat="45.501093547316394" lon="10.282083813470878"><ele>129.0</ele><time>2026-04-12T15:27:38Z</time></trkpt><trkpt lat="45.501130459763395" lon="10.281777367750689"><ele>129.0</ele><time>2026-04-12T15:27:39Z</time></trkpt><trkpt lat="45.50116262196192" lon="10.28146449911301"><ele>129.0</ele><time>2026-04-12T15:27:40Z</time></trkpt><trkpt lat="45.50118846734973" lon="10.281156353145454"><ele>128.66666666666666</ele><time>2026-04-12T15:27:41Z</time></trkpt><trkpt lat="45.501207404477086" lon="10.28083712085961"><ele>128.33333333333331</ele><time>2026-04-12T15:27:42Z</time></trkpt><trkpt lat="45.50122171652825" lon="10.280533707029925"><ele>128.0</ele><time>2026-04-12T15:27:43Z</time></trkpt><trkpt lat="45.50123069641325" lon="10.280222398571942"><ele>128.66666666666666</ele><time>2026-04-12T15:27:44Z</time></trkpt><trkpt lat="45.50123765042194" lon="10.27991768822601"><ele>129.33333333333334</ele><time>2026-04-12T15:27:45Z</time></trkpt><trkpt lat="45.50124242574204" lon="10.27962940082142"><ele>130.0</ele><time>2026-04-12T15:27:46Z</time></trkpt><trkpt lat="45.50124627904184" lon="10.279348171406546"><ele>130.33333333333334</ele><time>2026-04-12T15:27:47Z</time></trkpt><trkpt lat="45.50124942458819" lon="10.279060586460933"><ele>130.66666666666666</ele><time>2026-04-12T15:27:48Z</time></trkpt><trkpt lat="45.501249325102215" lon="10.278751783684758"><ele>131.0</ele><time>2026-04-12T15:27:49Z</time></trkpt><trkpt lat="45.50124338877651" lon="10.278440917714596"><ele>131.0</ele><time>2026-04-12T15:27:50Z</time></trkpt><trkpt lat="45.50123260938273" lon="10.278115846581144"><ele>131.0</ele><time>2026-04-12T15:27:51Z</time></trkpt><trkpt lat="45.50121548360317" lon="10.277791660121022"><ele>130.5</ele><time>2026-04-12T15:27:52Z</time></trkpt><trkpt lat="45.50119433815325" lon="10.277461581337336"><ele>130.0</ele><time>2026-04-12T15:27:53Z</time></trkpt><trkpt lat="45.50117416668885" lon="10.277135094679833"><ele>130.0</ele><time>2026-04-12T15:27:54Z</time></trkpt><trkpt lat="45.50115669681091" lon="10.27680561980775"><ele>130.0</ele><time>2026-04-12T15:27:55Z</time></trkpt><trkpt lat="45.5011409326499" lon="10.276477220389275"><ele>130.0</ele><time>2026-04-12T15:27:56Z</time></trkpt><trkpt lat="45.50112508594533" lon="10.276146515081166"><ele>130.0</ele><time>2026-04-12T15:27:57Z</time></trkpt><trkpt lat="45.50111001251604" lon="10.27581431797483"><ele>129.33333333333334</ele><time>2026-04-12T15:27:58Z</time></trkpt><trkpt lat="45.501096057611925" lon="10.275497299839612"><ele>128.66666666666666</ele><time>2026-04-12T15:27:59Z</time></trkpt><trkpt lat="45.501081202910974" lon="10.275186636963145"><ele>128.0</ele><time>2026-04-12T15:28:00Z</time></trkpt><trkpt lat="45.50106466154751" lon="10.274884047784338"><ele>128.0</ele><time>2026-04-12T15:28:01Z</time></trkpt><trkpt lat="45.50104798248967" lon="10.274588091021442"><ele>128.0</ele><time>2026-04-12T15:28:02Z</time></trkpt><trkpt lat="45.50103287472604" lon="10.27430216465326"><ele>128.0</ele><time>2026-04-12T15:28:03Z</time></trkpt><trkpt lat="45.50101832921097" lon="10.274019308580145"><ele>128.33333333333331</ele><time>2026-04-12T15:28:04Z</time></trkpt><trkpt lat="45.50100284187881" lon="10.273738117004735"><ele>128.66666666666666</ele><time>2026-04-12T15:28:05Z</time></trkpt><trkpt lat="45.500989481314" lon="10.273455619352632"><ele>129.0</ele><time>2026-04-12T15:28:06Z</time></trkpt><trkpt lat="45.50097658534481" lon="10.273167170489941"><ele>129.0</ele><time>2026-04-12T15:28:07Z</time></trkpt><trkpt lat="45.50096270615358" lon="10.272880524525014"><ele>129.0</ele><time>2026-04-12T15:28:08Z</time></trkpt><trkpt lat="45.50094686586477" lon="10.272582554187922"><ele>129.0</ele><time>2026-04-12T15:28:09Z</time></trkpt><trkpt lat="45.500933077194695" lon="10.272297812746622"><ele>129.33333333333334</ele><time>2026-04-12T15:28:10Z</time></trkpt><trkpt lat="45.500919129580375" lon="10.272027158849863"><ele>129.66666666666669</ele><time>2026-04-12T15:28:11Z</time></trkpt><trkpt lat="45.50090625375498" lon="10.271763067926154"><ele>130.0</ele><time>2026-04-12T15:28:12Z</time></trkpt><trkpt lat="45.500894385763665" lon="10.27149212139653"><ele>129.0</ele><time>2026-04-12T15:28:13Z</time></trkpt><trkpt lat="45.5008819952635" lon="10.27121258678925"><ele>128.0</ele><time>2026-04-12T15:28:14Z</time></trkpt><trkpt lat="45.5008686482091" lon="10.270930171072433"><ele>127.0</ele><time>2026-04-12T15:28:15Z</time></trkpt><trkpt lat="45.500853591891385" lon="10.270643907855195"><ele>127.0</ele><time>2026-04-12T15:28:16Z</time></trkpt><trkpt lat="45.50083896313764" lon="10.270356308774543"><ele>127.0</ele><time>2026-04-12T15:28:17Z</time></trkpt><trkpt lat="45.50082352413089" lon="10.270072773026197"><ele>127.0</ele><time>2026-04-12T15:28:18Z</time></trkpt><trkpt lat="45.500808301537916" lon="10.26979127637726"><ele>126.66666666666667</ele><time>2026-04-12T15:28:19Z</time></trkpt><trkpt lat="45.500794391904506" lon="10.269514810072263"><ele>126.33333333333334</ele><time>2026-04-12T15:28:20Z</time></trkpt><trkpt lat="45.50078221600715" lon="10.26923811544359"><ele>126.0</ele><time>2026-04-12T15:28:21Z</time></trkpt><trkpt lat="45.50076934225966" lon="10.268957479496187"><ele>125.33333333333334</ele><time>2026-04-12T15:28:22Z</time></trkpt><trkpt lat="45.500756347566146" lon="10.268673082778824"><ele>124.66666666666667</ele><time>2026-04-12T15:28:23Z</time></trkpt><trkpt lat="45.500744727943136" lon="10.268380847457985"><ele>124.0</ele><time>2026-04-12T15:28:24Z</time></trkpt><trkpt lat="45.50073498812838" lon="10.268089291889282"><ele>123.66666666666667</ele><time>2026-04-12T15:28:25Z</time></trkpt><trkpt lat="45.50072817329212" lon="10.2677938267876"><ele>123.33333333333334</ele><time>2026-04-12T15:28:26Z</time></trkpt><trkpt lat="45.50072238348764" lon="10.267500559410253"><ele>123.0</ele><time>2026-04-12T15:28:27Z</time></trkpt><trkpt lat="45.500718055763336" lon="10.267216807043887"><ele>123.0</ele><time>2026-04-12T15:28:28Z</time></trkpt><trkpt lat="45.50071887795434" lon="10.266946911317454"><ele>123.0</ele><time>2026-04-12T15:28:29Z</time></trkpt><trkpt lat="45.500722196752115" lon="10.266692623876548"><ele>123.0</ele><time>2026-04-12T15:28:30Z</time></trkpt><trkpt lat="45.500727250691476" lon="10.266449315077866"><ele>122.66666666666666</ele><time>2026-04-12T15:28:31Z</time></trkpt><trkpt lat="45.5007352416225" lon="10.266195698294961"><ele>122.33333333333333</ele><time>2026-04-12T15:28:32Z</time></trkpt><trkpt lat="45.500740931987764" lon="10.265935120427082"><ele>122.0</ele><time>2026-04-12T15:28:33Z</time></trkpt><trkpt lat="45.5007494550219" lon="10.265686961022073"><ele>122.0</ele><time>2026-04-12T15:28:34Z</time></trkpt><trkpt lat="45.500756899207474" lon="10.26544410951898"><ele>122.0</ele><time>2026-04-12T15:28:35Z</time></trkpt><trkpt lat="45.50077217949553" lon="10.26520362570198"><ele>122.0</ele><time>2026-04-12T15:28:36Z</time></trkpt><trkpt lat="45.50078408353557" lon="10.264963018837374"><ele>122.33333333333333</ele><time>2026-04-12T15:28:37Z</time></trkpt><trkpt lat="45.50079790552304" lon="10.264721575104131"><ele>122.66666666666666</ele><time>2026-04-12T15:28:38Z</time></trkpt><trkpt lat="45.5008102313083" lon="10.264483932712702"><ele>123.0</ele><time>2026-04-12T15:28:39Z</time></trkpt><trkpt lat="45.50082229853992" lon="10.264238638229665"><ele>123.0</ele><time>2026-04-12T15:28:40Z</time></trkpt><trkpt lat="45.50083497659364" lon="10.263985238244725"><ele>123.0</ele><time>2026-04-12T15:28:41Z</time></trkpt><trkpt lat="45.50084954211157" lon="10.263729269737844"><ele>123.0</ele><time>2026-04-12T15:28:42Z</time></trkpt><trkpt lat="45.500863944573766" lon="10.263474779501847"><ele>123.0</ele><time>2026-04-12T15:28:43Z</time></trkpt><trkpt lat="45.50087984764855" lon="10.263221959668003"><ele>123.0</ele><time>2026-04-12T15:28:44Z</time></trkpt><trkpt lat="45.50089152802479" lon="10.262977542066585"><ele>123.0</ele><time>2026-04-12T15:28:45Z</time></trkpt><trkpt lat="45.50090444467871" lon="10.262745982023965"><ele>123.0</ele><time>2026-04-12T15:28:46Z</time></trkpt><trkpt lat="45.500919142072355" lon="10.26251505868409"><ele>123.0</ele><time>2026-04-12T15:28:47Z</time></trkpt><trkpt lat="45.500934637240846" lon="10.262279043911988"><ele>123.0</ele><time>2026-04-12T15:28:48Z</time></trkpt><trkpt lat="45.50095112520942" lon="10.26203303792005"><ele>123.0</ele><time>2026-04-12T15:28:49Z</time></trkpt><trkpt lat="45.500964978066165" lon="10.261788998686903"><ele>123.0</ele><time>2026-04-12T15:28:50Z</time></trkpt><trkpt lat="45.50098105126542" lon="10.261538467716937"><ele>123.0</ele><time>2026-04-12T15:28:51Z</time></trkpt><trkpt lat="45.50099933313142" lon="10.261272765866744"><ele>122.66666666666666</ele><time>2026-04-12T15:28:52Z</time></trkpt><trkpt lat="45.50101844844557" lon="10.261001555715373"><ele>122.33333333333333</ele><time>2026-04-12T15:28:53Z</time></trkpt><trkpt lat="45.501036024619445" lon="10.26073463523343"><ele>122.0</ele><time>2026-04-12T15:28:54Z</time></trkpt><trkpt lat="45.501052097536025" lon="10.260448968551707"><ele>121.66666666666666</ele><time>2026-04-12T15:28:55Z</time></trkpt><trkpt lat="45.501068087786095" lon="10.260158961808191"><ele>121.33333333333334</ele><time>2026-04-12T15:28:56Z</time></trkpt><trkpt lat="45.50108151759321" lon="10.259861798610972"><ele>121.0</ele><time>2026-04-12T15:28:57Z</time></trkpt><trkpt lat="45.50109496814625" lon="10.259554503152154"><ele>121.0</ele><time>2026-04-12T15:28:58Z</time></trkpt><trkpt lat="45.50111145223539" lon="10.25925114077022"><ele>121.0</ele><time>2026-04-12T15:28:59Z</time></trkpt><trkpt lat="45.501127930688604" lon="10.258955614725286"><ele>121.0</ele><time>2026-04-12T15:29:00Z</time></trkpt><trkpt lat="45.501144949976016" lon="10.258660514218413"><ele>121.0</ele><time>2026-04-12T15:29:01Z</time></trkpt><trkpt lat="45.50116315969291" lon="10.258371214206237"><ele>121.0</ele><time>2026-04-12T15:29:02Z</time></trkpt><trkpt lat="45.50118274826392" lon="10.25808227817635"><ele>121.0</ele><time>2026-04-12T15:29:03Z</time></trkpt><trkpt lat="45.501200674382176" lon="10.257797845474462"><ele>121.33333333333334</ele><time>2026-04-12T15:29:04Z</time></trkpt><trkpt lat="45.50121693073736" lon="10.257513756836016"><ele>121.66666666666666</ele><time>2026-04-12T15:29:05Z</time></trkpt><trkpt lat="45.50123319328128" lon="10.257231255820393"><ele>122.0</ele><time>2026-04-12T15:29:06Z</time></trkpt><trkpt lat="45.501249727394466" lon="10.25695445561284"><ele>121.33333333333333</ele><time>2026-04-12T15:29:07Z</time></trkpt><trkpt lat="45.501268316423776" lon="10.256677728642218"><ele>120.66666666666666</ele><time>2026-04-12T15:29:08Z</time></trkpt><trkpt lat="45.501287607028054" lon="10.256395960198915"><ele>120.0</ele><time>2026-04-12T15:29:09Z</time></trkpt><trkpt lat="45.50130559347471" lon="10.256117285124693"><ele>120.0</ele><time>2026-04-12T15:29:10Z</time></trkpt><trkpt lat="45.50132255863392" lon="10.255842573021006"><ele>120.0</ele><time>2026-04-12T15:29:11Z</time></trkpt><trkpt lat="45.501342557208595" lon="10.255558696269606"><ele>120.0</ele><time>2026-04-12T15:29:12Z</time></trkpt><trkpt lat="45.50137203667147" lon="10.255281699793237"><ele>120.33333333333334</ele><time>2026-04-12T15:29:13Z</time></trkpt><trkpt lat="45.50140900107878" lon="10.255002898893492"><ele>120.66666666666667</ele><time>2026-04-12T15:29:14Z</time></trkpt><trkpt lat="45.501449261777616" lon="10.254725759797429"><ele>121.0</ele><time>2026-04-12T15:29:15Z</time></trkpt><trkpt lat="45.50149512750155" lon="10.254442037115549"><ele>121.33333333333334</ele><time>2026-04-12T15:29:16Z</time></trkpt><trkpt lat="45.501549660158034" lon="10.254175067690595"><ele>121.66666666666666</ele><time>2026-04-12T15:29:17Z</time></trkpt><trkpt lat="45.501608901681415" lon="10.253903920782417"><ele>122.0</ele><time>2026-04-12T15:29:18Z</time></trkpt><trkpt lat="45.50167369316762" lon="10.253634166395678"><ele>121.33333333333333</ele><time>2026-04-12T15:29:19Z</time></trkpt><trkpt lat="45.501743539711526" lon="10.253373685405805"><ele>120.66666666666666</ele><time>2026-04-12T15:29:20Z</time></trkpt><trkpt lat="45.50181518451655" lon="10.253100542443502"><ele>120.0</ele><time>2026-04-12T15:29:21Z</time></trkpt><trkpt lat="45.501890653521556" lon="10.252844391535984"><ele>120.0</ele><time>2026-04-12T15:29:22Z</time></trkpt><trkpt lat="45.50197680843877" lon="10.25258016086162"><ele>120.0</ele><time>2026-04-12T15:29:23Z</time></trkpt><trkpt lat="45.502069438135514" lon="10.252323367532682"><ele>120.0</ele><time>2026-04-12T15:29:24Z</time></trkpt><trkpt lat="45.50216445132536" lon="10.252069472139285"><ele>120.0</ele><time>2026-04-12T15:29:25Z</time></trkpt><trkpt lat="45.502266174555864" lon="10.251815956303323"><ele>120.0</ele><time>2026-04-12T15:29:26Z</time></trkpt><trkpt lat="45.50237195466767" lon="10.251568569568704"><ele>120.0</ele><time>2026-04-12T15:29:27Z</time></trkpt><trkpt lat="45.50248353231526" lon="10.251323542473985"><ele>120.0</ele><time>2026-04-12T15:29:28Z</time></trkpt><trkpt lat="45.502602402857825" lon="10.251084802964842"><ele>120.0</ele><time>2026-04-12T15:29:29Z</time></trkpt><trkpt lat="45.502725831800355" lon="10.250852500193876"><ele>120.0</ele><time>2026-04-12T15:29:30Z</time></trkpt><trkpt lat="45.50285619895952" lon="10.25062588996664"><ele>120.33333333333334</ele><time>2026-04-12T15:29:31Z</time></trkpt><trkpt lat="45.50298676481075" lon="10.25040136359969"><ele>120.66666666666667</ele><time>2026-04-12T15:29:32Z</time></trkpt><trkpt lat="45.50312331431074" lon="10.250182264676027"><ele>121.0</ele><time>2026-04-12T15:29:33Z</time></trkpt><trkpt lat="45.50326076044637" lon="10.249962588175832"><ele>120.66666666666667</ele><time>2026-04-12T15:29:34Z</time></trkpt><trkpt lat="45.50339900417791" lon="10.249745116959524"><ele>120.33333333333334</ele><time>2026-04-12T15:29:35Z</time></trkpt><trkpt lat="45.50353785386688" lon="10.249518778377723"><ele>120.0</ele><time>2026-04-12T15:29:36Z</time></trkpt><trkpt lat="45.503672716645454" lon="10.249291557470029"><ele>119.66666666666666</ele><time>2026-04-12T15:29:37Z</time></trkpt><trkpt lat="45.50381041461097" lon="10.249062870246002"><ele>119.33333333333333</ele><time>2026-04-12T15:29:38Z</time></trkpt><trkpt lat="45.50394568806134" lon="10.248839160323888"><ele>119.0</ele><time>2026-04-12T15:29:39Z</time></trkpt><trkpt lat="45.50408005116231" lon="10.24862114771153"><ele>119.66666666666666</ele><time>2026-04-12T15:29:40Z</time></trkpt><trkpt lat="45.50421133235421" lon="10.248407840952524"><ele>120.33333333333334</ele><time>2026-04-12T15:29:41Z</time></trkpt><trkpt lat="45.50433851947553" lon="10.248195537320486"><ele>121.0</ele><time>2026-04-12T15:29:42Z</time></trkpt><trkpt lat="45.50446503382441" lon="10.24799146440334"><ele>120.66666666666667</ele><time>2026-04-12T15:29:43Z</time></trkpt><trkpt lat="45.50458879168906" lon="10.247793867732703"><ele>120.33333333333334</ele><time>2026-04-12T15:29:44Z</time></trkpt><trkpt lat="45.50471092235967" lon="10.247598466562643"><ele>120.0</ele><time>2026-04-12T15:29:45Z</time></trkpt><trkpt lat="45.50483117353266" lon="10.24740137621595"><ele>120.0</ele><time>2026-04-12T15:29:46Z</time></trkpt><trkpt lat="45.50494925652327" lon="10.247210893905233"><ele>120.0</ele><time>2026-04-12T15:29:47Z</time></trkpt><trkpt lat="45.505069630080484" lon="10.247013319559514"><ele>120.0</ele><time>2026-04-12T15:29:48Z</time></trkpt><trkpt lat="45.50518599801475" lon="10.246820304536453"><ele>120.0</ele><time>2026-04-12T15:29:49Z</time></trkpt><trkpt lat="45.50530749187725" lon="10.246627820043122"><ele>120.0</ele><time>2026-04-12T15:29:50Z</time></trkpt><trkpt lat="45.505423764174644" lon="10.246442505112833"><ele>120.0</ele><time>2026-04-12T15:29:51Z</time></trkpt><trkpt lat="45.505542953346115" lon="10.246251119545866"><ele>120.0</ele><time>2026-04-12T15:29:52Z</time></trkpt><trkpt lat="45.505658812731646" lon="10.246062368929557"><ele>120.0</ele><time>2026-04-12T15:29:53Z</time></trkpt><trkpt lat="45.50577861132737" lon="10.245865252520467"><ele>120.0</ele><time>2026-04-12T15:29:54Z</time></trkpt><trkpt lat="45.50589787805683" lon="10.245666476677028"><ele>119.33333333333334</ele><time>2026-04-12T15:29:55Z</time></trkpt><trkpt lat="45.50601280608426" lon="10.245479509195627"><ele>118.66666666666667</ele><time>2026-04-12T15:29:56Z</time></trkpt><trkpt lat="45.5061316896677" lon="10.245290932124156"><ele>118.0</ele><time>2026-04-12T15:29:57Z</time></trkpt><trkpt lat="45.506251928559394" lon="10.245098975901481"><ele>118.0</ele><time>2026-04-12T15:29:58Z</time></trkpt><trkpt lat="45.50637438391902" lon="10.244898206896877"><ele>118.0</ele><time>2026-04-12T15:29:59Z</time></trkpt><trkpt lat="45.5064991431934" lon="10.244696512711608"><ele>118.0</ele><time>2026-04-12T15:30:00Z</time></trkpt><trkpt lat="45.50662656965328" lon="10.244490455129712"><ele>117.66666666666667</ele><time>2026-04-12T15:30:01Z</time></trkpt><trkpt lat="45.50676034913169" lon="10.244278767494338"><ele>117.33333333333334</ele><time>2026-04-12T15:30:02Z</time></trkpt><trkpt lat="45.50689649437968" lon="10.244064079740896"><ele>117.0</ele><time>2026-04-12T15:30:03Z</time></trkpt><trkpt lat="45.50703402942565" lon="10.243836584799281"><ele>117.0</ele><time>2026-04-12T15:30:04Z</time></trkpt><trkpt lat="45.507173311253375" lon="10.243608917771914"><ele>117.0</ele><time>2026-04-12T15:30:05Z</time></trkpt><trkpt lat="45.50730774969775" lon="10.243381450180658"><ele>117.0</ele><time>2026-04-12T15:30:06Z</time></trkpt><trkpt lat="45.50743834403755" lon="10.243156541949498"><ele>117.0</ele><time>2026-04-12T15:30:07Z</time></trkpt><trkpt lat="45.50756828283883" lon="10.242930250582976"><ele>117.0</ele><time>2026-04-12T15:30:08Z</time></trkpt><trkpt lat="45.50769629595579" lon="10.242694950762163"><ele>117.0</ele><time>2026-04-12T15:30:09Z</time></trkpt><trkpt lat="45.50781398359403" lon="10.24245576093384"><ele>117.0</ele><time>2026-04-12T15:30:10Z</time></trkpt><trkpt lat="45.50792929249417" lon="10.242210856380707"><ele>117.0</ele><time>2026-04-12T15:30:11Z</time></trkpt><trkpt lat="45.508041027898116" lon="10.24196488957753"><ele>117.0</ele><time>2026-04-12T15:30:12Z</time></trkpt><trkpt lat="45.50815239072281" lon="10.241716508950706"><ele>116.33333333333334</ele><time>2026-04-12T15:30:13Z</time></trkpt><trkpt lat="45.508260115618576" lon="10.241465340835893"><ele>115.66666666666667</ele><time>2026-04-12T15:30:14Z</time></trkpt><trkpt lat="45.508364415677235" lon="10.241213994223735"><ele>115.0</ele><time>2026-04-12T15:30:15Z</time></trkpt><trkpt lat="45.508463558861635" lon="10.24095871711474"><ele>115.0</ele><time>2026-04-12T15:30:16Z</time></trkpt><trkpt lat="45.508559009931744" lon="10.240701912250373"><ele>115.0</ele><time>2026-04-12T15:30:17Z</time></trkpt><trkpt lat="45.50864917459636" lon="10.24044233562314"><ele>115.0</ele><time>2026-04-12T15:30:18Z</time></trkpt><trkpt lat="45.508738043539864" lon="10.2401812836278"><ele>115.33333333333334</ele><time>2026-04-12T15:30:19Z</time></trkpt><trkpt lat="45.50882268873883" lon="10.23991938296849"><ele>115.66666666666666</ele><time>2026-04-12T15:30:20Z</time></trkpt><trkpt lat="45.508902153055594" lon="10.23965456215355"><ele>116.0</ele><time>2026-04-12T15:30:21Z</time></trkpt><trkpt lat="45.50897864122653" lon="10.239385762951319"><ele>116.0</ele><time>2026-04-12T15:30:22Z</time></trkpt><trkpt lat="45.50905458284643" lon="10.239109983017658"><ele>116.0</ele><time>2026-04-12T15:30:23Z</time></trkpt><trkpt lat="45.509120642473185" lon="10.23884714888647"><ele>116.0</ele><time>2026-04-12T15:30:24Z</time></trkpt><trkpt lat="45.50919101415937" lon="10.238566175085971"><ele>116.0</ele><time>2026-04-12T15:30:25Z</time></trkpt><trkpt lat="45.509253038779526" lon="10.238291272260645"><ele>116.0</ele><time>2026-04-12T15:30:26Z</time></trkpt><trkpt lat="45.50931555990474" lon="10.238008778892885"><ele>116.0</ele><time>2026-04-12T15:30:27Z</time></trkpt><trkpt lat="45.509371774918804" lon="10.237727631723805"><ele>116.0</ele><time>2026-04-12T15:30:28Z</time></trkpt><trkpt lat="45.509426990275394" lon="10.237441190038751"><ele>116.0</ele><time>2026-04-12T15:30:29Z</time></trkpt><trkpt lat="45.509476419207374" lon="10.237154938953301"><ele>116.0</ele><time>2026-04-12T15:30:30Z</time></trkpt><trkpt lat="45.50952028247584" lon="10.23687575421712"><ele>116.0</ele><time>2026-04-12T15:30:31Z</time></trkpt><trkpt lat="45.50956104104058" lon="10.236592795776566"><ele>116.0</ele><time>2026-04-12T15:30:32Z</time></trkpt><trkpt lat="45.50959741519931" lon="10.236308482434062"><ele>116.0</ele><time>2026-04-12T15:30:33Z</time></trkpt><trkpt lat="45.50963031541101" lon="10.236031207350432"><ele>116.33333333333333</ele><time>2026-04-12T15:30:34Z</time></trkpt><trkpt lat="45.50966229523036" lon="10.235747080665426"><ele>116.66666666666666</ele><time>2026-04-12T15:30:35Z</time></trkpt><trkpt lat="45.50968985971359" lon="10.235464617979911"><ele>117.0</ele><time>2026-04-12T15:30:36Z</time></trkpt><trkpt lat="45.50971334821873" lon="10.235181712209057"><ele>117.0</ele><time>2026-04-12T15:30:37Z</time></trkpt><trkpt lat="45.50973171487568" lon="10.234898554434752"><ele>117.0</ele><time>2026-04-12T15:30:38Z</time></trkpt><trkpt lat="45.509748636585726" lon="10.234608326351658"><ele>117.0</ele><time>2026-04-12T15:30:39Z</time></trkpt><trkpt lat="45.50976741318425" lon="10.234307136977343"><ele>117.0</ele><time>2026-04-12T15:30:40Z</time></trkpt><trkpt lat="45.50978913975129" lon="10.233996785764889"><ele>117.0</ele><time>2026-04-12T15:30:41Z</time></trkpt><trkpt lat="45.50981294114891" lon="10.233688430699655"><ele>117.0</ele><time>2026-04-12T15:30:42Z</time></trkpt><trkpt lat="45.509836791848635" lon="10.233372864878916"><ele>116.33333333333334</ele><time>2026-04-12T15:30:43Z</time></trkpt><trkpt lat="45.50986082182796" lon="10.23305904802178"><ele>115.66666666666667</ele><time>2026-04-12T15:30:44Z</time></trkpt><trkpt lat="45.509888207453905" lon="10.232755023739786"><ele>115.0</ele><time>2026-04-12T15:30:45Z</time></trkpt><trkpt lat="45.50991193979892" lon="10.232454428043683"><ele>116.0</ele><time>2026-04-12T15:30:46Z</time></trkpt><trkpt lat="45.50993453887158" lon="10.23216425314624"><ele>117.0</ele><time>2026-04-12T15:30:47Z</time></trkpt><trkpt lat="45.5099560052167" lon="10.231873082804087"><ele>118.0</ele><time>2026-04-12T15:30:48Z</time></trkpt><trkpt lat="45.50997644064714" lon="10.231582743152277"><ele>118.33333333333334</ele><time>2026-04-12T15:30:49Z</time></trkpt><trkpt lat="45.50999687861884" lon="10.231292669378803"><ele>118.66666666666666</ele><time>2026-04-12T15:30:50Z</time></trkpt><trkpt lat="45.51001883735351" lon="10.231001263492267"><ele>119.0</ele><time>2026-04-12T15:30:51Z</time></trkpt><trkpt lat="45.51004331848972" lon="10.230702888463425"><ele>118.66666666666666</ele><time>2026-04-12T15:30:52Z</time></trkpt><trkpt lat="45.51006823009736" lon="10.230406962460822"><ele>118.33333333333334</ele><time>2026-04-12T15:30:53Z</time></trkpt><trkpt lat="45.51009284206224" lon="10.230101007825361"><ele>118.0</ele><time>2026-04-12T15:30:54Z</time></trkpt><trkpt lat="45.51011921616362" lon="10.229799365747454"><ele>118.0</ele><time>2026-04-12T15:30:55Z</time></trkpt><trkpt lat="45.51014528873049" lon="10.229490122552102"><ele>118.0</ele><time>2026-04-12T15:30:56Z</time></trkpt><trkpt lat="45.51016783968529" lon="10.229182294935494"><ele>118.0</ele><time>2026-04-12T15:30:57Z</time></trkpt><trkpt lat="45.510188657852936" lon="10.228870775079379"><ele>118.0</ele><time>2026-04-12T15:30:58Z</time></trkpt><trkpt lat="45.51020990801364" lon="10.228548959085007"><ele>118.0</ele><time>2026-04-12T15:30:59Z</time></trkpt><trkpt lat="45.510234536520436" lon="10.22822622808054"><ele>118.0</ele><time>2026-04-12T15:31:00Z</time></trkpt><trkpt lat="45.51025002704413" lon="10.227890901884129"><ele>118.0</ele><time>2026-04-12T15:31:01Z</time></trkpt><trkpt lat="45.51025714112813" lon="10.22756222652198"><ele>118.0</ele><time>2026-04-12T15:31:02Z</time></trkpt><trkpt lat="45.510260817268616" lon="10.227245472072337"><ele>118.0</ele><time>2026-04-12T15:31:03Z</time></trkpt><trkpt lat="45.51026406328104" lon="10.226930618597127"><ele>118.0</ele><time>2026-04-12T15:31:04Z</time></trkpt><trkpt lat="45.51026945844542" lon="10.226619304620682"><ele>117.5</ele><time>2026-04-12T15:31:05Z</time></trkpt><trkpt lat="45.510278819215344" lon="10.226296048257893"><ele>117.0</ele><time>2026-04-12T15:31:06Z</time></trkpt><trkpt lat="45.51029336542297" lon="10.22597002115735"><ele>118.0</ele><time>2026-04-12T15:31:07Z</time></trkpt><trkpt lat="45.51031138784518" lon="10.22563425691895"><ele>119.0</ele><time>2026-04-12T15:31:08Z</time></trkpt><trkpt lat="45.510335585766335" lon="10.225306341024075"><ele>119.0</ele><time>2026-04-12T15:31:09Z</time></trkpt><trkpt lat="45.51036453427512" lon="10.224990894813276"><ele>119.0</ele><time>2026-04-12T15:31:10Z</time></trkpt><trkpt lat="45.51039472509657" lon="10.224687637646594"><ele>119.0</ele><time>2026-04-12T15:31:11Z</time></trkpt><trkpt lat="45.51042857823892" lon="10.224373158926989"><ele>119.0</ele><time>2026-04-12T15:31:12Z</time></trkpt><trkpt lat="45.5104725304231" lon="10.224055591104934"><ele>119.0</ele><time>2026-04-12T15:31:13Z</time></trkpt><trkpt lat="45.51053338770921" lon="10.223734732138526"><ele>119.0</ele><time>2026-04-12T15:31:14Z</time></trkpt><trkpt lat="45.51060665784792" lon="10.22339864473567"><ele>119.0</ele><time>2026-04-12T15:31:15Z</time></trkpt><trkpt lat="45.51068769524184" lon="10.223052735556886"><ele>120.5</ele><time>2026-04-12T15:31:16Z</time></trkpt><trkpt lat="45.5107708750087" lon="10.222707182046161"><ele>122.0</ele><time>2026-04-12T15:31:17Z</time></trkpt><trkpt lat="45.51085184103871" lon="10.22236973131505"><ele>121.5</ele><time>2026-04-12T15:31:18Z</time></trkpt><trkpt lat="45.51093314808351" lon="10.222038443773931"><ele>121.0</ele><time>2026-04-12T15:31:19Z</time></trkpt><trkpt lat="45.511014055259515" lon="10.221713295074334"><ele>121.5</ele><time>2026-04-12T15:31:20Z</time></trkpt><trkpt lat="45.51109600071604" lon="10.22138544536104"><ele>122.0</ele><time>2026-04-12T15:31:21Z</time></trkpt><trkpt lat="45.51117518018906" lon="10.221064074109183"><ele>121.5</ele><time>2026-04-12T15:31:22Z</time></trkpt><trkpt lat="45.511252158174784" lon="10.220746882313101"><ele>121.0</ele><time>2026-04-12T15:31:23Z</time></trkpt><trkpt lat="45.51133163942541" lon="10.220424688603243"><ele>121.0</ele><time>2026-04-12T15:31:24Z</time></trkpt><trkpt lat="45.511413139344455" lon="10.22010470470697"><ele>121.0</ele><time>2026-04-12T15:31:25Z</time></trkpt><trkpt lat="45.51149336856083" lon="10.219782864591744"><ele>122.0</ele><time>2026-04-12T15:31:26Z</time></trkpt><trkpt lat="45.51157028623837" lon="10.219462143922366"><ele>123.0</ele><time>2026-04-12T15:31:27Z</time></trkpt><trkpt lat="45.51164600846004" lon="10.219135889773167"><ele>122.5</ele><time>2026-04-12T15:31:28Z</time></trkpt><trkpt lat="45.51172268157753" lon="10.21881380231341"><ele>122.0</ele><time>2026-04-12T15:31:29Z</time></trkpt><trkpt lat="45.51179450739353" lon="10.218511413611774"><ele>122.0</ele><time>2026-04-12T15:31:30Z</time></trkpt><trkpt lat="45.511862481474346" lon="10.21822045630471"><ele>122.0</ele><time>2026-04-12T15:31:31Z</time></trkpt><trkpt lat="45.51193085142839" lon="10.217932267832612"><ele>122.0</ele><time>2026-04-12T15:31:32Z</time></trkpt><trkpt lat="45.511999570711396" lon="10.217651553885156"><ele>122.0</ele><time>2026-04-12T15:31:33Z</time></trkpt><trkpt lat="45.51206162790673" lon="10.217373022593524"><ele>122.0</ele><time>2026-04-12T15:31:34Z</time></trkpt><trkpt lat="45.51211809992088" lon="10.217089264499974"><ele>122.0</ele><time>2026-04-12T15:31:35Z</time></trkpt><trkpt lat="45.51217635669482" lon="10.216798508214124"><ele>122.33333333333333</ele><time>2026-04-12T15:31:36Z</time></trkpt><trkpt lat="45.51224120952792" lon="10.216504941305713"><ele>122.66666666666666</ele><time>2026-04-12T15:31:37Z</time></trkpt><trkpt lat="45.51231156060724" lon="10.21621231072181"><ele>123.0</ele><time>2026-04-12T15:31:38Z</time></trkpt><trkpt lat="45.51238973008774" lon="10.215921301919519"><ele>121.0</ele><time>2026-04-12T15:31:39Z</time></trkpt><trkpt lat="45.51246874987371" lon="10.21562656569604"><ele>119.0</ele><time>2026-04-12T15:31:40Z</time></trkpt><trkpt lat="45.5125459170841" lon="10.215316031647443"><ele>119.0</ele><time>2026-04-12T15:31:41Z</time></trkpt><trkpt lat="45.512615337926334" lon="10.215008929268972"><ele>119.0</ele><time>2026-04-12T15:31:42Z</time></trkpt><trkpt lat="45.51268684831455" lon="10.214695671978932"><ele>119.0</ele><time>2026-04-12T15:31:43Z</time></trkpt><trkpt lat="45.51276023555716" lon="10.214387930762573"><ele>119.0</ele><time>2026-04-12T15:31:44Z</time></trkpt><trkpt lat="45.51283326252157" lon="10.214098334123438"><ele>119.0</ele><time>2026-04-12T15:31:45Z</time></trkpt><trkpt lat="45.51290873842447" lon="10.213805731604381"><ele>119.33333333333333</ele><time>2026-04-12T15:31:46Z</time></trkpt><trkpt lat="45.51298198863438" lon="10.213532428239565"><ele>119.66666666666666</ele><time>2026-04-12T15:31:47Z</time></trkpt><trkpt lat="45.51306038317387" lon="10.213260881934822"><ele>120.0</ele><time>2026-04-12T15:31:48Z</time></trkpt><trkpt lat="45.51314574622302" lon="10.21299076805187"><ele>120.66666666666666</ele><time>2026-04-12T15:31:49Z</time></trkpt><trkpt lat="45.51323709818677" lon="10.21273674754865"><ele>121.33333333333333</ele><time>2026-04-12T15:31:50Z</time></trkpt><trkpt lat="45.51332867573124" lon="10.212485794855583"><ele>122.0</ele><time>2026-04-12T15:31:51Z</time></trkpt><trkpt lat="45.513423528537864" lon="10.212237278073099"><ele>122.0</ele><time>2026-04-12T15:31:52Z</time></trkpt><trkpt lat="45.5135194322631" lon="10.211988922478676"><ele>122.0</ele><time>2026-04-12T15:31:53Z</time></trkpt><trkpt lat="45.513618216467606" lon="10.21174268067158"><ele>122.0</ele><time>2026-04-12T15:31:54Z</time></trkpt><trkpt lat="45.513718235848394" lon="10.211500251184061"><ele>121.66666666666666</ele><time>2026-04-12T15:31:55Z</time></trkpt><trkpt lat="45.51382700328059" lon="10.211261805149046"><ele>121.33333333333334</ele><time>2026-04-12T15:31:56Z</time></trkpt><trkpt lat="45.513939456406405" lon="10.211035560596805"><ele>121.0</ele><time>2026-04-12T15:31:57Z</time></trkpt><trkpt lat="45.514049951171764" lon="10.210813185685149"><ele>120.66666666666667</ele><time>2026-04-12T15:31:58Z</time></trkpt><trkpt lat="45.514165991874826" lon="10.210595047571328"><ele>120.33333333333334</ele><time>2026-04-12T15:31:59Z</time></trkpt><trkpt lat="45.51428833600562" lon="10.210385845070878"><ele>120.0</ele><time>2026-04-12T15:32:00Z</time></trkpt><trkpt lat="45.51441222432102" lon="10.210184441525225"><ele>120.0</ele><time>2026-04-12T15:32:01Z</time></trkpt><trkpt lat="45.514537856202296" lon="10.20997901306729"><ele>120.0</ele><time>2026-04-12T15:32:02Z</time></trkpt><trkpt lat="45.51465968367641" lon="10.209773626508193"><ele>120.0</ele><time>2026-04-12T15:32:03Z</time></trkpt><trkpt lat="45.51478232463313" lon="10.209564890570672"><ele>120.0</ele><time>2026-04-12T15:32:04Z</time></trkpt><trkpt lat="45.51491021597833" lon="10.209356182470993"><ele>120.0</ele><time>2026-04-12T15:32:05Z</time></trkpt><trkpt lat="45.51503704642044" lon="10.209152588365452"><ele>120.0</ele><time>2026-04-12T15:32:06Z</time></trkpt><trkpt lat="45.515158394888246" lon="10.208941462668523"><ele>119.66666666666666</ele><time>2026-04-12T15:32:07Z</time></trkpt><trkpt lat="45.51527774843076" lon="10.20872364344472"><ele>119.33333333333333</ele><time>2026-04-12T15:32:08Z</time></trkpt><trkpt lat="45.5154025712183" lon="10.20851660568865"><ele>119.0</ele><time>2026-04-12T15:32:09Z</time></trkpt><trkpt lat="45.515533139007005" lon="10.20830108813173"><ele>119.33333333333333</ele><time>2026-04-12T15:32:10Z</time></trkpt><trkpt lat="45.515659494645014" lon="10.208087156938472"><ele>119.66666666666666</ele><time>2026-04-12T15:32:11Z</time></trkpt><trkpt lat="45.51578853944337" lon="10.207869569579191"><ele>120.0</ele><time>2026-04-12T15:32:12Z</time></trkpt><trkpt lat="45.51591808868562" lon="10.207647983916068"><ele>120.0</ele><time>2026-04-12T15:32:13Z</time></trkpt><trkpt lat="45.516045863930145" lon="10.20742696554617"><ele>120.0</ele><time>2026-04-12T15:32:14Z</time></trkpt><trkpt lat="45.51617563083082" lon="10.207207456182136"><ele>120.0</ele><time>2026-04-12T15:32:15Z</time></trkpt><trkpt lat="45.5163058950748" lon="10.206982842048706"><ele>120.33333333333334</ele><time>2026-04-12T15:32:16Z</time></trkpt><trkpt lat="45.516436283073496" lon="10.206747666570454"><ele>120.66666666666667</ele><time>2026-04-12T15:32:17Z</time></trkpt><trkpt lat="45.51657087116664" lon="10.206513252599748"><ele>121.0</ele><time>2026-04-12T15:32:18Z</time></trkpt><trkpt lat="45.51670360168725" lon="10.206279110148397"><ele>121.0</ele><time>2026-04-12T15:32:19Z</time></trkpt><trkpt lat="45.51683340614562" lon="10.206046292166901"><ele>121.0</ele><time>2026-04-12T15:32:20Z</time></trkpt><trkpt lat="45.51695339353261" lon="10.205814770318064"><ele>121.0</ele><time>2026-04-12T15:32:21Z</time></trkpt><trkpt lat="45.51706673846925" lon="10.205581710086564"><ele>122.0</ele><time>2026-04-12T15:32:22Z</time></trkpt><trkpt lat="45.517178560913194" lon="10.205344890808044"><ele>123.0</ele><time>2026-04-12T15:32:23Z</time></trkpt><trkpt lat="45.517287620661385" lon="10.205109996737171"><ele>124.0</ele><time>2026-04-12T15:32:24Z</time></trkpt><trkpt lat="45.51739340808851" lon="10.204866866405034"><ele>123.0</ele><time>2026-04-12T15:32:25Z</time></trkpt><trkpt lat="45.51749713113036" lon="10.204604739588646"><ele>122.0</ele><time>2026-04-12T15:32:26Z</time></trkpt><trkpt lat="45.517600145174804" lon="10.204352789063705"><ele>121.0</ele><time>2026-04-12T15:32:27Z</time></trkpt><trkpt lat="45.517703181928105" lon="10.204084931115847"><ele>121.0</ele><time>2026-04-12T15:32:28Z</time></trkpt><trkpt lat="45.51780365757603" lon="10.203811397304907"><ele>121.0</ele><time>2026-04-12T15:32:29Z</time></trkpt><trkpt lat="45.517903502847794" lon="10.203526900751614"><ele>121.0</ele><time>2026-04-12T15:32:30Z</time></trkpt><trkpt lat="45.51799854154073" lon="10.203240985385289"><ele>121.66666666666667</ele><time>2026-04-12T15:32:31Z</time></trkpt><trkpt lat="45.51808807457826" lon="10.202963464582847"><ele>122.33333333333334</ele><time>2026-04-12T15:32:32Z</time></trkpt><trkpt lat="45.51816332341776" lon="10.202686853918081"><ele>123.0</ele><time>2026-04-12T15:32:33Z</time></trkpt><trkpt lat="45.51823173471834" lon="10.202424343098382"><ele>122.66666666666666</ele><time>2026-04-12T15:32:34Z</time></trkpt><trkpt lat="45.518292683512875" lon="10.202177203689729"><ele>122.33333333333333</ele><time>2026-04-12T15:32:35Z</time></trkpt><trkpt lat="45.51835260620555" lon="10.201948531911507"><ele>122.0</ele><time>2026-04-12T15:32:36Z</time></trkpt><trkpt lat="45.51841336275555" lon="10.201730940625405"><ele>122.0</ele><time>2026-04-12T15:32:37Z</time></trkpt><trkpt lat="45.51848252968397" lon="10.201532535477481"><ele>122.0</ele><time>2026-04-12T15:32:38Z</time></trkpt><trkpt lat="45.518548693511015" lon="10.201368910399076"><ele>122.0</ele><time>2026-04-12T15:32:39Z</time></trkpt><trkpt lat="45.51859307282271" lon="10.201214081985157"><ele>122.0</ele><time>2026-04-12T15:32:40Z</time></trkpt><trkpt lat="45.51862293563733" lon="10.201072760537372"><ele>124.0</ele><time>2026-04-12T15:32:41Z</time></trkpt><trkpt lat="45.51864174615478" lon="10.200968265067266"><ele>124.0</ele><time>2026-04-12T15:32:42Z</time></trkpt><trkpt lat="45.51866718828492" lon="10.200850110678912"><ele>124.0</ele><time>2026-04-12T15:32:44Z</time></trkpt></trkseg></trk></gpx>